<?xml version='1.0' encoding='UTF-8'?><gpx version="1.1" creator="JPX - https://github.com/jenetics/jpx" xmlns="http://www.topografix.com/GPX/1/1"><trk><trkseg><trkpt lat="43.842133654651754" lon="11.183377676469814"><ele>49.0</ele><time>2026-03-28T09:05:56Z</time></trkpt><trkpt lat="43.84216034924725" lon="11.183278908617075"><ele>49.0</ele><time>2026-03-28T09:06:00Z</time></trkpt><trkpt lat="43.842073443482235" lon="11.183176685816038"><ele>49.0</ele><time>2026-03-28T09:06:03Z</time></trkpt><trkpt lat="43.84199913842967" lon="11.183117776375445"><ele>49.0</ele><time>2026-03-28T09:06:04Z</time></trkpt><trkpt lat="43.841923356476514" lon="11.183042364703043"><ele>49.0</ele><time>2026-03-28T09:06:05Z</time></trkpt><trkpt lat="43.84183871518429" lon="11.182985187238002"><ele>48.83333333333333</ele><time>2026-03-28T09:06:06Z</time></trkpt><trkpt lat="43.84174927014902" lon="11.182917448999225"><ele>48.666666666666664</ele><time>2026-03-28T09:06:07Z</time></trkpt><trkpt lat="43.84167118063603" lon="11.182839966499934"><ele>48.5</ele><time>2026-03-28T09:06:08Z</time></trkpt><trkpt lat="43.84160494247441" lon="11.182770953237707"><ele>48.33333333333333</ele><time>2026-03-28T09:06:09Z</time></trkpt><trkpt lat="43.84153241004236" lon="11.182730189747417"><ele>48.166666666666664</ele><time>2026-03-28T09:06:10Z</time></trkpt><trkpt lat="43.84145745938054" lon="11.182663758714357"><ele>48.0</ele><time>2026-03-28T09:06:11Z</time></trkpt><trkpt lat="43.84139116425961" lon="11.182605494432494"><ele>48.0</ele><time>2026-03-28T09:06:12Z</time></trkpt><trkpt lat="43.841335431000914" lon="11.182553643398215"><ele>48.0</ele><time>2026-03-28T09:06:13Z</time></trkpt><trkpt lat="43.84127997320626" lon="11.182496101426759"><ele>48.0</ele><time>2026-03-28T09:06:13.999Z</time></trkpt><trkpt lat="43.841211595792196" lon="11.18243405211586"><ele>48.0</ele><time>2026-03-28T09:06:14.999Z</time></trkpt><trkpt lat="43.84113678012218" lon="11.182358417193909"><ele>48.0</ele><time>2026-03-28T09:06:15.999Z</time></trkpt><trkpt lat="43.841063084216714" lon="11.18228875526759"><ele>48.0</ele><time>2026-03-28T09:06:16.999Z</time></trkpt><trkpt lat="43.84098714885988" lon="11.182220677703599"><ele>47.833333333333336</ele><time>2026-03-28T09:06:17.999Z</time></trkpt><trkpt lat="43.84092326546362" lon="11.18215974524633"><ele>47.666666666666664</ele><time>2026-03-28T09:06:18.999Z</time></trkpt><trkpt lat="43.84086822340538" lon="11.182102102699698"><ele>47.5</ele><time>2026-03-28T09:06:19.999Z</time></trkpt><trkpt lat="43.84080552901309" lon="11.182046691962837"><ele>47.33333333333333</ele><time>2026-03-28T09:06:20.999Z</time></trkpt><trkpt lat="43.84073868568896" lon="11.181991984800854"><ele>47.166666666666664</ele><time>2026-03-28T09:06:21.999Z</time></trkpt><trkpt lat="43.84068197858456" lon="11.181952750903138"><ele>47.0</ele><time>2026-03-28T09:06:22.999Z</time></trkpt><trkpt lat="43.840621484023025" lon="11.181849432602483"><ele>47.0</ele><time>2026-03-28T09:06:24.999Z</time></trkpt><trkpt lat="43.84065007253595" lon="11.181673615637896"><ele>47.0</ele><time>2026-03-28T09:06:27.999Z</time></trkpt><trkpt lat="43.84070263679024" lon="11.181580455223239"><ele>47.0</ele><time>2026-03-28T09:06:28.999Z</time></trkpt><trkpt lat="43.8407709793933" lon="11.181467991541844"><ele>47.0</ele><time>2026-03-28T09:06:29.999Z</time></trkpt><trkpt lat="43.840830965008905" lon="11.181352961996447"><ele>47.0</ele><time>2026-03-28T09:06:30.999Z</time></trkpt><trkpt lat="43.840889741979716" lon="11.181240446624727"><ele>46.75</ele><time>2026-03-28T09:06:31.999Z</time></trkpt><trkpt lat="43.84095305098563" lon="11.18112590629663"><ele>46.5</ele><time>2026-03-28T09:06:32.999Z</time></trkpt><trkpt lat="43.841019355870195" lon="11.180997395580711"><ele>46.25</ele><time>2026-03-28T09:06:33.999Z</time></trkpt><trkpt lat="43.84108130244598" lon="11.180859123935361"><ele>46.0</ele><time>2026-03-28T09:06:34.999Z</time></trkpt><trkpt lat="43.84114886407236" lon="11.180713707732798"><ele>46.5</ele><time>2026-03-28T09:06:35.999Z</time></trkpt><trkpt lat="43.84121778130846" lon="11.180562956311391"><ele>47.0</ele><time>2026-03-28T09:06:37Z</time></trkpt><trkpt lat="43.84128977529956" lon="11.180401843190841"><ele>47.5</ele><time>2026-03-28T09:06:38Z</time></trkpt><trkpt lat="43.841363521308736" lon="11.180242735785187"><ele>48.0</ele><time>2026-03-28T09:06:39Z</time></trkpt><trkpt lat="43.841439138051456" lon="11.180065764657806"><ele>48.0</ele><time>2026-03-28T09:06:40Z</time></trkpt><trkpt lat="43.84152352966068" lon="11.179888170293276"><ele>48.0</ele><time>2026-03-28T09:06:41Z</time></trkpt><trkpt lat="43.84160398497803" lon="11.179725969041005"><ele>48.0</ele><time>2026-03-28T09:06:42Z</time></trkpt><trkpt lat="43.84166439546088" lon="11.17957409379002"><ele>48.0</ele><time>2026-03-28T09:06:43Z</time></trkpt><trkpt lat="43.84173659219781" lon="11.179424202661751"><ele>48.0</ele><time>2026-03-28T09:06:44Z</time></trkpt><trkpt lat="43.84179793410399" lon="11.179269342414594"><ele>48.0</ele><time>2026-03-28T09:06:45Z</time></trkpt><trkpt lat="43.841857105814576" lon="11.179141621057601"><ele>48.0</ele><time>2026-03-28T09:06:46Z</time></trkpt><trkpt lat="43.841912463665246" lon="11.179012341476634"><ele>48.0</ele><time>2026-03-28T09:06:47Z</time></trkpt><trkpt lat="43.84198290595636" lon="11.178864244681703"><ele>48.2</ele><time>2026-03-28T09:06:48Z</time></trkpt><trkpt lat="43.8420428343598" lon="11.178722423009795"><ele>48.4</ele><time>2026-03-28T09:06:49Z</time></trkpt><trkpt lat="43.84209194527251" lon="11.178601265907623"><ele>48.6</ele><time>2026-03-28T09:06:50Z</time></trkpt><trkpt lat="43.84213853468473" lon="11.178496627390134"><ele>48.800000000000004</ele><time>2026-03-28T09:06:51Z</time></trkpt><trkpt lat="43.84218159437318" lon="11.178402106293817"><ele>49.0</ele><time>2026-03-28T09:06:52Z</time></trkpt><trkpt lat="43.84224773923931" lon="11.17832024403283"><ele>49.0</ele><time>2026-03-28T09:06:53Z</time></trkpt><trkpt lat="43.842332391546414" lon="11.178274108492186"><ele>49.0</ele><time>2026-03-28T09:06:54Z</time></trkpt><trkpt lat="43.84242359181057" lon="11.178241000367764"><ele>49.0</ele><time>2026-03-28T09:06:55Z</time></trkpt><trkpt lat="43.84252663405807" lon="11.178327854379372"><ele>49.0</ele><time>2026-03-28T09:06:56Z</time></trkpt><trkpt lat="43.842626933545304" lon="11.178420217868968"><ele>49.0</ele><time>2026-03-28T09:06:57Z</time></trkpt><trkpt lat="43.84274440726076" lon="11.178545317892189"><ele>49.0</ele><time>2026-03-28T09:06:58Z</time></trkpt><trkpt lat="43.84289044225296" lon="11.178670885376189"><ele>49.0</ele><time>2026-03-28T09:06:59Z</time></trkpt><trkpt lat="43.84303655501409" lon="11.178782750348061"><ele>49.0</ele><time>2026-03-28T09:07:00Z</time></trkpt><trkpt lat="43.843173051139516" lon="11.178888132532398"><ele>49.0</ele><time>2026-03-28T09:07:01Z</time></trkpt><trkpt lat="43.84329755251443" lon="11.178985401480329"><ele>49.0</ele><time>2026-03-28T09:07:02Z</time></trkpt><trkpt lat="43.84342345663112" lon="11.179075140166697"><ele>49.0</ele><time>2026-03-28T09:07:03Z</time></trkpt><trkpt lat="43.843550579521654" lon="11.179166383292028"><ele>49.0</ele><time>2026-03-28T09:07:04Z</time></trkpt><trkpt lat="43.84366023363336" lon="11.179270109904996"><ele>49.75</ele><time>2026-03-28T09:07:05Z</time></trkpt><trkpt lat="43.8437638795114" lon="11.179363297808424"><ele>50.5</ele><time>2026-03-28T09:07:06Z</time></trkpt><trkpt lat="43.84386415589899" lon="11.179465418869519"><ele>51.25</ele><time>2026-03-28T09:07:07Z</time></trkpt><trkpt lat="43.843961064325974" lon="11.179558553503677"><ele>52.0</ele><time>2026-03-28T09:07:08Z</time></trkpt><trkpt lat="43.84405551098118" lon="11.179632291264847"><ele>51.99999999999999</ele><time>2026-03-28T09:07:09Z</time></trkpt><trkpt lat="43.844135827399505" lon="11.179708780068916"><ele>52.0</ele><time>2026-03-28T09:07:10Z</time></trkpt><trkpt lat="43.84420788641609" lon="11.179784219531241"><ele>52.0</ele><time>2026-03-28T09:07:11Z</time></trkpt><trkpt lat="43.844275651531184" lon="11.179851669451205"><ele>52.0</ele><time>2026-03-28T09:07:12Z</time></trkpt><trkpt lat="43.84433538694227" lon="11.179914205047492"><ele>51.99999999999999</ele><time>2026-03-28T09:07:13Z</time></trkpt><trkpt lat="43.84438702982515" lon="11.179965331815026"><ele>52.0</ele><time>2026-03-28T09:07:14Z</time></trkpt><trkpt lat="43.844480050319184" lon="11.180043963082694"><ele>52.0</ele><time>2026-03-28T09:07:16Z</time></trkpt><trkpt lat="43.844567091760545" lon="11.180105025704792"><ele>52.0</ele><time>2026-03-28T09:07:18Z</time></trkpt><trkpt lat="43.84463323537864" lon="11.18018060588252"><ele>52.0</ele><time>2026-03-28T09:07:20Z</time></trkpt><trkpt lat="43.844595978539694" lon="11.180404174630958"><ele>52.0</ele><time>2026-03-28T09:07:22Z</time></trkpt><trkpt lat="43.84457967173182" lon="11.180510005833899"><ele>52.0</ele><time>2026-03-28T09:07:23Z</time></trkpt><trkpt lat="43.844483411479246" lon="11.18055571062263"><ele>52.0</ele><time>2026-03-28T09:07:24Z</time></trkpt><trkpt lat="43.84439100181254" lon="11.180588377478625"><ele>52.0</ele><time>2026-03-28T09:07:25Z</time></trkpt><trkpt lat="43.84428420993208" lon="11.180580126437501"><ele>52.0</ele><time>2026-03-28T09:07:26Z</time></trkpt><trkpt lat="43.84417575273232" lon="11.180525213125147"><ele>52.0</ele><time>2026-03-28T09:07:27Z</time></trkpt><trkpt lat="43.84406338996621" lon="11.180421671237529"><ele>51.33333333333333</ele><time>2026-03-28T09:07:28Z</time></trkpt><trkpt lat="43.84394962181204" lon="11.180304979962274"><ele>50.66666666666667</ele><time>2026-03-28T09:07:29Z</time></trkpt><trkpt lat="43.843817480306264" lon="11.180184404034707"><ele>50.0</ele><time>2026-03-28T09:07:30Z</time></trkpt><trkpt lat="43.84367648540298" lon="11.180061914295642"><ele>50.0</ele><time>2026-03-28T09:07:31Z</time></trkpt><trkpt lat="43.84353168070552" lon="11.179940569558763"><ele>50.0</ele><time>2026-03-28T09:07:32Z</time></trkpt><trkpt lat="43.843383911804175" lon="11.179813242921574"><ele>50.0</ele><time>2026-03-28T09:07:33Z</time></trkpt><trkpt lat="43.84323475631915" lon="11.179681148326907"><ele>49.66666666666667</ele><time>2026-03-28T09:07:34Z</time></trkpt><trkpt lat="43.843084249063615" lon="11.17955235670406"><ele>49.33333333333333</ele><time>2026-03-28T09:07:35Z</time></trkpt><trkpt lat="43.84293089357743" lon="11.17943114086622"><ele>49.0</ele><time>2026-03-28T09:07:36Z</time></trkpt><trkpt lat="43.842778630959714" lon="11.179306394564863"><ele>49.0</ele><time>2026-03-28T09:07:37Z</time></trkpt><trkpt lat="43.842638466899295" lon="11.179178611461758"><ele>49.0</ele><time>2026-03-28T09:07:38Z</time></trkpt><trkpt lat="43.84250004961818" lon="11.179060083105542"><ele>49.0</ele><time>2026-03-28T09:07:39Z</time></trkpt><trkpt lat="43.842363037419986" lon="11.17894563246433"><ele>49.0</ele><time>2026-03-28T09:07:40Z</time></trkpt><trkpt lat="43.84221941941938" lon="11.178823169791468"><ele>49.0</ele><time>2026-03-28T09:07:41Z</time></trkpt><trkpt lat="43.84208147698197" lon="11.178696117715976"><ele>49.0</ele><time>2026-03-28T09:07:42Z</time></trkpt><trkpt lat="43.841946204161374" lon="11.17858704486553"><ele>49.0</ele><time>2026-03-28T09:07:43Z</time></trkpt><trkpt lat="43.84182075880304" lon="11.178486132691368"><ele>49.0</ele><time>2026-03-28T09:07:44Z</time></trkpt><trkpt lat="43.84169854843656" lon="11.17837961991715"><ele>49.0</ele><time>2026-03-28T09:07:45Z</time></trkpt><trkpt lat="43.841580606480534" lon="11.178228325962188"><ele>48.0</ele><time>2026-03-28T09:07:46Z</time></trkpt><trkpt lat="43.841483798891964" lon="11.1780857524817"><ele>47.0</ele><time>2026-03-28T09:07:47Z</time></trkpt><trkpt lat="43.84142132100321" lon="11.17793678287745"><ele>46.0</ele><time>2026-03-28T09:07:48Z</time></trkpt><trkpt lat="43.84138105289535" lon="11.177773505144732"><ele>45.0</ele><time>2026-03-28T09:07:49Z</time></trkpt><trkpt lat="43.841357353763385" lon="11.17758418738717"><ele>45.0</ele><time>2026-03-28T09:07:50Z</time></trkpt><trkpt lat="43.84136555924183" lon="11.177403354682596"><ele>45.0</ele><time>2026-03-28T09:07:51Z</time></trkpt><trkpt lat="43.841378900005715" lon="11.1772329150676"><ele>45.0</ele><time>2026-03-28T09:07:52Z</time></trkpt><trkpt lat="43.841371918344876" lon="11.177084703172019"><ele>45.0</ele><time>2026-03-28T09:07:53Z</time></trkpt><trkpt lat="43.84134672752878" lon="11.17694444517725"><ele>45.2</ele><time>2026-03-28T09:07:54Z</time></trkpt><trkpt lat="43.841307503162604" lon="11.176804728494481"><ele>45.4</ele><time>2026-03-28T09:07:55Z</time></trkpt><trkpt lat="43.841247678939155" lon="11.176655731010257"><ele>45.599999999999994</ele><time>2026-03-28T09:07:56Z</time></trkpt><trkpt lat="43.84117267796812" lon="11.176541381535541"><ele>45.8</ele><time>2026-03-28T09:07:57Z</time></trkpt><trkpt lat="43.84110388826271" lon="11.17644548798156"><ele>46.0</ele><time>2026-03-28T09:07:58Z</time></trkpt><trkpt lat="43.84102652805828" lon="11.176371967472411"><ele>45.66666666666667</ele><time>2026-03-28T09:07:59Z</time></trkpt><trkpt lat="43.84095339307482" lon="11.176313462650294"><ele>45.333333333333336</ele><time>2026-03-28T09:08:00Z</time></trkpt><trkpt lat="43.840887134745095" lon="11.176264031865536"><ele>45.0</ele><time>2026-03-28T09:08:01Z</time></trkpt><trkpt lat="43.84083336193609" lon="11.176214695548847"><ele>44.666666666666664</ele><time>2026-03-28T09:08:02Z</time></trkpt><trkpt lat="43.84074346786666" lon="11.176110468853865"><ele>44.33333333333333</ele><time>2026-03-28T09:08:04Z</time></trkpt><trkpt lat="43.84066511114192" lon="11.176049625817615"><ele>44.0</ele><time>2026-03-28T09:08:07Z</time></trkpt><trkpt lat="43.84069187662017" lon="11.175911018051261"><ele>44.0</ele><time>2026-03-28T09:08:08Z</time></trkpt><trkpt lat="43.84063460492664" lon="11.175852626463117"><ele>44.0</ele><time>2026-03-28T09:08:11Z</time></trkpt><trkpt lat="43.840577933560596" lon="11.175803497473218"><ele>44.0</ele><time>2026-03-28T09:08:15Z</time></trkpt><trkpt lat="43.8403694647318" lon="11.175781605661772"><ele>44.0</ele><time>2026-03-28T09:16:26Z</time></trkpt><trkpt lat="43.84029470933327" lon="11.175780645044359"><ele>44.0</ele><time>2026-03-28T09:16:28Z</time></trkpt><trkpt lat="43.84022643486465" lon="11.175720087029868"><ele>44.0</ele><time>2026-03-28T09:16:29Z</time></trkpt><trkpt lat="43.84015273607565" lon="11.17565039822891"><ele>44.0</ele><time>2026-03-28T09:16:30Z</time></trkpt><trkpt lat="43.840064911470265" lon="11.17558957191049"><ele>44.0</ele><time>2026-03-28T09:16:30.999Z</time></trkpt><trkpt lat="43.83997188886699" lon="11.175543130017486"><ele>44.0</ele><time>2026-03-28T09:16:31.999Z</time></trkpt><trkpt lat="43.83989367554331" lon="11.175515480416943"><ele>44.0</ele><time>2026-03-28T09:16:32.999Z</time></trkpt><trkpt lat="43.83982485329725" lon="11.175484668461579"><ele>44.0</ele><time>2026-03-28T09:16:33.999Z</time></trkpt><trkpt lat="43.839726285060934" lon="11.17540260544165"><ele>44.0</ele><time>2026-03-28T09:16:35.999Z</time></trkpt><trkpt lat="43.83967500814442" lon="11.175296778983437"><ele>44.0</ele><time>2026-03-28T09:16:37.999Z</time></trkpt><trkpt lat="43.839624595283766" lon="11.175230936618686"><ele>44.0</ele><time>2026-03-28T09:16:38.999Z</time></trkpt><trkpt lat="43.839548102417886" lon="11.175184764150838"><ele>44.0</ele><time>2026-03-28T09:16:39.999Z</time></trkpt><trkpt lat="43.83945921221163" lon="11.175158704298003"><ele>44.0</ele><time>2026-03-28T09:16:40.999Z</time></trkpt><trkpt lat="43.83937256379155" lon="11.175129157744669"><ele>44.0</ele><time>2026-03-28T09:16:41.999Z</time></trkpt><trkpt lat="43.839311105605184" lon="11.175057125096066"><ele>44.0</ele><time>2026-03-28T09:16:42.999Z</time></trkpt><trkpt lat="43.83923355729748" lon="11.174945147718677"><ele>44.0</ele><time>2026-03-28T09:16:43.999Z</time></trkpt><trkpt lat="43.83914940858943" lon="11.174817633048669"><ele>44.0</ele><time>2026-03-28T09:16:44.999Z</time></trkpt><trkpt lat="43.8390517074605" lon="11.174694250868962"><ele>44.0</ele><time>2026-03-28T09:16:45.999Z</time></trkpt><trkpt lat="43.83894269573135" lon="11.174573278796082"><ele>44.0</ele><time>2026-03-28T09:16:46.999Z</time></trkpt><trkpt lat="43.83882907540769" lon="11.174460807585659"><ele>44.0</ele><time>2026-03-28T09:16:47.999Z</time></trkpt><trkpt lat="43.83868455868572" lon="11.174363882552752"><ele>44.0</ele><time>2026-03-28T09:16:48.999Z</time></trkpt><trkpt lat="43.83855051547461" lon="11.174239577519428"><ele>43.666666666666664</ele><time>2026-03-28T09:16:49.999Z</time></trkpt><trkpt lat="43.838408281119634" lon="11.174105089415923"><ele>43.333333333333336</ele><time>2026-03-28T09:16:50.999Z</time></trkpt><trkpt lat="43.83826085403336" lon="11.173974685912073"><ele>43.0</ele><time>2026-03-28T09:16:51.999Z</time></trkpt><trkpt lat="43.83811255395908" lon="11.173843921657731"><ele>42.66666666666667</ele><time>2026-03-28T09:16:52.999Z</time></trkpt><trkpt lat="43.837961280021275" lon="11.173716205319403"><ele>42.333333333333336</ele><time>2026-03-28T09:16:53.999Z</time></trkpt><trkpt lat="43.83780746206311" lon="11.173596777531058"><ele>42.0</ele><time>2026-03-28T09:16:54.999Z</time></trkpt><trkpt lat="43.83763947943746" lon="11.17349506696798"><ele>41.666666666666664</ele><time>2026-03-28T09:16:55.999Z</time></trkpt><trkpt lat="43.83748453598295" lon="11.17340073259549"><ele>41.33333333333333</ele><time>2026-03-28T09:16:56.999Z</time></trkpt><trkpt lat="43.83734311944378" lon="11.173305929300742"><ele>41.0</ele><time>2026-03-28T09:16:57.999Z</time></trkpt><trkpt lat="43.83720145402954" lon="11.173186120914236"><ele>41.0</ele><time>2026-03-28T09:16:58.999Z</time></trkpt><trkpt lat="43.83706612942245" lon="11.173060950739094"><ele>41.0</ele><time>2026-03-28T09:16:59.999Z</time></trkpt><trkpt lat="43.83694166646691" lon="11.172963010624951"><ele>41.0</ele><time>2026-03-28T09:17:00.999Z</time></trkpt><trkpt lat="43.83683102540441" lon="11.17288671673175"><ele>41.0</ele><time>2026-03-28T09:17:01.999Z</time></trkpt><trkpt lat="43.83671960233552" lon="11.172828816409652"><ele>40.666666666666664</ele><time>2026-03-28T09:17:02.999Z</time></trkpt><trkpt lat="43.83663188219276" lon="11.172786627675318"><ele>40.33333333333333</ele><time>2026-03-28T09:17:03.999Z</time></trkpt><trkpt lat="43.83655543709812" lon="11.1727521607508"><ele>40.0</ele><time>2026-03-28T09:17:05Z</time></trkpt><trkpt lat="43.836495631548765" lon="11.172714828089614"><ele>39.666666666666664</ele><time>2026-03-28T09:17:06Z</time></trkpt><trkpt lat="43.836412884821556" lon="11.1726182107181"><ele>39.333333333333336</ele><time>2026-03-28T09:17:08Z</time></trkpt><trkpt lat="43.836363288548" lon="11.172527389550433"><ele>39.0</ele><time>2026-03-28T09:17:09Z</time></trkpt><trkpt lat="43.8363160131429" lon="11.172409081484394"><ele>39.0</ele><time>2026-03-28T09:17:10Z</time></trkpt><trkpt lat="43.8362569151916" lon="11.172354702727846"><ele>39.0</ele><time>2026-03-28T09:17:11Z</time></trkpt><trkpt lat="43.83618039755818" lon="11.172334898818558"><ele>39.0</ele><time>2026-03-28T09:17:12Z</time></trkpt><trkpt lat="43.836090454355606" lon="11.172327989487066"><ele>39.0</ele><time>2026-03-28T09:17:13Z</time></trkpt><trkpt lat="43.83601702407507" lon="11.172442524383865"><ele>39.0</ele><time>2026-03-28T09:17:14Z</time></trkpt><trkpt lat="43.8359701108509" lon="11.172563438428316"><ele>39.0</ele><time>2026-03-28T09:17:15Z</time></trkpt><trkpt lat="43.83595017559178" lon="11.172733198868212"><ele>39.0</ele><time>2026-03-28T09:17:16Z</time></trkpt><trkpt lat="43.83594397821233" lon="11.17294287363633"><ele>39.0</ele><time>2026-03-28T09:17:17Z</time></trkpt><trkpt lat="43.83592300207961" lon="11.17315266607293"><ele>39.0</ele><time>2026-03-28T09:17:18Z</time></trkpt><trkpt lat="43.83584657782402" lon="11.173334782591176"><ele>39.0</ele><time>2026-03-28T09:17:19Z</time></trkpt><trkpt lat="43.835737476021684" lon="11.173519712753217"><ele>39.0</ele><time>2026-03-28T09:17:20Z</time></trkpt><trkpt lat="43.8356049222645" lon="11.173716507145157"><ele>39.0</ele><time>2026-03-28T09:17:21Z</time></trkpt><trkpt lat="43.83546649827989" lon="11.173890953783689"><ele>39.333333333333336</ele><time>2026-03-28T09:17:22Z</time></trkpt><trkpt lat="43.83531812387406" lon="11.174066307394053"><ele>39.66666666666667</ele><time>2026-03-28T09:17:23Z</time></trkpt><trkpt lat="43.83516588382256" lon="11.174245918079006"><ele>40.0</ele><time>2026-03-28T09:17:24Z</time></trkpt><trkpt lat="43.83500366203033" lon="11.17443804082718"><ele>40.5</ele><time>2026-03-28T09:17:25Z</time></trkpt><trkpt lat="43.834831495533486" lon="11.174642189530937"><ele>41.0</ele><time>2026-03-28T09:17:26Z</time></trkpt><trkpt lat="43.83465761884609" lon="11.174848366065591"><ele>40.0</ele><time>2026-03-28T09:17:27Z</time></trkpt><trkpt lat="43.834486505752494" lon="11.175068051171369"><ele>39.0</ele><time>2026-03-28T09:17:28Z</time></trkpt><trkpt lat="43.83429886203623" lon="11.175273436468975"><ele>39.0</ele><time>2026-03-28T09:17:29Z</time></trkpt><trkpt lat="43.83411669454922" lon="11.17549057826877"><ele>39.0</ele><time>2026-03-28T09:17:30Z</time></trkpt><trkpt lat="43.83394452359275" lon="11.175705843607043"><ele>38.0</ele><time>2026-03-28T09:17:31Z</time></trkpt><trkpt lat="43.83376960478342" lon="11.175929694830646"><ele>37.0</ele><time>2026-03-28T09:17:32Z</time></trkpt><trkpt lat="43.833591283044434" lon="11.17615176303323"><ele>37.5</ele><time>2026-03-28T09:17:33Z</time></trkpt><trkpt lat="43.833417397012106" lon="11.176379706786712"><ele>38.0</ele><time>2026-03-28T09:17:34Z</time></trkpt><trkpt lat="43.83324107978004" lon="11.176610708206312"><ele>38.0</ele><time>2026-03-28T09:17:35Z</time></trkpt><trkpt lat="43.83306211564862" lon="11.176838971990193"><ele>38.0</ele><time>2026-03-28T09:17:36Z</time></trkpt><trkpt lat="43.832882383587446" lon="11.177067625535228"><ele>38.0</ele><time>2026-03-28T09:17:37Z</time></trkpt><trkpt lat="43.83270097645635" lon="11.177297009224866"><ele>38.0</ele><time>2026-03-28T09:17:38Z</time></trkpt><trkpt lat="43.83252187924085" lon="11.177527527816423"><ele>38.0</ele><time>2026-03-28T09:17:39Z</time></trkpt><trkpt lat="43.83234044819559" lon="11.177759968826326"><ele>38.0</ele><time>2026-03-28T09:17:40Z</time></trkpt><trkpt lat="43.83215764446058" lon="11.177992027578785"><ele>38.0</ele><time>2026-03-28T09:17:41Z</time></trkpt><trkpt lat="43.83197481362934" lon="11.178232905471324"><ele>38.0</ele><time>2026-03-28T09:17:42Z</time></trkpt><trkpt lat="43.83178895055678" lon="11.178474462802551"><ele>38.0</ele><time>2026-03-28T09:17:43Z</time></trkpt><trkpt lat="43.83160093590348" lon="11.178714554509474"><ele>38.0</ele><time>2026-03-28T09:17:44Z</time></trkpt><trkpt lat="43.83141566412384" lon="11.17895514737643"><ele>38.0</ele><time>2026-03-28T09:17:45Z</time></trkpt><trkpt lat="43.83123224564553" lon="11.179198447547224"><ele>38.0</ele><time>2026-03-28T09:17:46Z</time></trkpt><trkpt lat="43.8310500016457" lon="11.179441446237739"><ele>37.5</ele><time>2026-03-28T09:17:47Z</time></trkpt><trkpt lat="43.83086562146995" lon="11.179687021389446"><ele>37.0</ele><time>2026-03-28T09:17:48Z</time></trkpt><trkpt lat="43.830684337384774" lon="11.179924083258502"><ele>37.0</ele><time>2026-03-28T09:17:49Z</time></trkpt><trkpt lat="43.83049213020578" lon="11.18015524853285"><ele>37.0</ele><time>2026-03-28T09:17:50Z</time></trkpt><trkpt lat="43.83030087451931" lon="11.18038750898753"><ele>37.0</ele><time>2026-03-28T09:17:51Z</time></trkpt><trkpt lat="43.83012087748487" lon="11.180616251113735"><ele>37.0</ele><time>2026-03-28T09:17:52Z</time></trkpt><trkpt lat="43.8299538929351" lon="11.18083813646903"><ele>37.333333333333336</ele><time>2026-03-28T09:17:53Z</time></trkpt><trkpt lat="43.829803188043115" lon="11.181030577899563"><ele>37.666666666666664</ele><time>2026-03-28T09:17:54Z</time></trkpt><trkpt lat="43.829655704265406" lon="11.181222483722937"><ele>38.0</ele><time>2026-03-28T09:17:55Z</time></trkpt><trkpt lat="43.829516846882406" lon="11.181399844636323"><ele>37.666666666666664</ele><time>2026-03-28T09:17:56Z</time></trkpt><trkpt lat="43.82938813919811" lon="11.181566512188898"><ele>37.333333333333336</ele><time>2026-03-28T09:17:57Z</time></trkpt><trkpt lat="43.82927068396378" lon="11.181724535506387"><ele>37.0</ele><time>2026-03-28T09:17:58Z</time></trkpt><trkpt lat="43.829161747707964" lon="11.181861093530188"><ele>37.5</ele><time>2026-03-28T09:17:59Z</time></trkpt><trkpt lat="43.82905746797666" lon="11.181991701547634"><ele>38.0</ele><time>2026-03-28T09:18:00Z</time></trkpt><trkpt lat="43.8289594614532" lon="11.182117083415474"><ele>38.5</ele><time>2026-03-28T09:18:01Z</time></trkpt><trkpt lat="43.828867747896105" lon="11.182231457778588"><ele>39.0</ele><time>2026-03-28T09:18:02Z</time></trkpt><trkpt lat="43.828774935601075" lon="11.18233080607723"><ele>39.2</ele><time>2026-03-28T09:18:03Z</time></trkpt><trkpt lat="43.82867278949995" lon="11.182409436050872"><ele>39.4</ele><time>2026-03-28T09:18:04Z</time></trkpt><trkpt lat="43.82856450443887" lon="11.1824592924815"><ele>39.6</ele><time>2026-03-28T09:18:05Z</time></trkpt><trkpt lat="43.82846755923538" lon="11.182513155433533"><ele>39.8</ele><time>2026-03-28T09:18:06Z</time></trkpt><trkpt lat="43.82839376014516" lon="11.18260782678553"><ele>40.0</ele><time>2026-03-28T09:18:07Z</time></trkpt><trkpt lat="43.82835395885315" lon="11.18275666074333"><ele>39.5</ele><time>2026-03-28T09:18:08Z</time></trkpt><trkpt lat="43.82832458341992" lon="11.182942815187497"><ele>39.0</ele><time>2026-03-28T09:18:09Z</time></trkpt><trkpt lat="43.828287402577324" lon="11.183141274997949"><ele>38.5</ele><time>2026-03-28T09:18:10Z</time></trkpt><trkpt lat="43.8282110307169" lon="11.183325264497636"><ele>38.0</ele><time>2026-03-28T09:18:11Z</time></trkpt><trkpt lat="43.828118972443136" lon="11.183518082018033"><ele>38.0</ele><time>2026-03-28T09:18:12Z</time></trkpt><trkpt lat="43.82802981999239" lon="11.183728935928766"><ele>38.0</ele><time>2026-03-28T09:18:13Z</time></trkpt><trkpt lat="43.82793778189161" lon="11.183944573003506"><ele>38.0</ele><time>2026-03-28T09:18:14Z</time></trkpt><trkpt lat="43.827835281248944" lon="11.184174651252919"><ele>38.0</ele><time>2026-03-28T09:18:15Z</time></trkpt><trkpt lat="43.82773327482789" lon="11.184408696442047"><ele>38.0</ele><time>2026-03-28T09:18:16Z</time></trkpt><trkpt lat="43.82763102874506" lon="11.184660720190767"><ele>38.0</ele><time>2026-03-28T09:18:17Z</time></trkpt><trkpt lat="43.827524567188156" lon="11.184913999200587"><ele>38.33333333333333</ele><time>2026-03-28T09:18:18Z</time></trkpt><trkpt lat="43.82741980010704" lon="11.185164796894059"><ele>38.666666666666664</ele><time>2026-03-28T09:18:19Z</time></trkpt><trkpt lat="43.827314831522116" lon="11.185416237261816"><ele>39.0</ele><time>2026-03-28T09:18:20Z</time></trkpt><trkpt lat="43.827205344787885" lon="11.185674095804698"><ele>38.333333333333336</ele><time>2026-03-28T09:18:21Z</time></trkpt><trkpt lat="43.8270981835163" lon="11.185924487746195"><ele>37.66666666666667</ele><time>2026-03-28T09:18:21.999Z</time></trkpt><trkpt lat="43.8269938683141" lon="11.186178632643667"><ele>37.0</ele><time>2026-03-28T09:18:22.999Z</time></trkpt><trkpt lat="43.82689158277762" lon="11.186427239326093"><ele>37.333333333333336</ele><time>2026-03-28T09:18:23.999Z</time></trkpt><trkpt lat="43.82678869446112" lon="11.186662567140177"><ele>37.666666666666664</ele><time>2026-03-28T09:18:24.999Z</time></trkpt><trkpt lat="43.826683650017145" lon="11.186901887517017"><ele>38.0</ele><time>2026-03-28T09:18:25.999Z</time></trkpt><trkpt lat="43.82657589286103" lon="11.187153361263984"><ele>38.0</ele><time>2026-03-28T09:18:26.999Z</time></trkpt><trkpt lat="43.8264647479069" lon="11.18741494318852"><ele>38.0</ele><time>2026-03-28T09:18:27.999Z</time></trkpt><trkpt lat="43.82635247352846" lon="11.187679197352283"><ele>38.0</ele><time>2026-03-28T09:18:28.999Z</time></trkpt><trkpt lat="43.8262408298815" lon="11.187952289083345"><ele>38.0</ele><time>2026-03-28T09:18:29.999Z</time></trkpt><trkpt lat="43.82612742288027" lon="11.188229602583647"><ele>38.0</ele><time>2026-03-28T09:18:30.999Z</time></trkpt><trkpt lat="43.82601234335775" lon="11.188503433373544"><ele>38.0</ele><time>2026-03-28T09:18:31.999Z</time></trkpt><trkpt lat="43.825897254951045" lon="11.188773111644359"><ele>38.0</ele><time>2026-03-28T09:18:32.999Z</time></trkpt><trkpt lat="43.825788041799335" lon="11.18902896151491"><ele>38.0</ele><time>2026-03-28T09:18:33.999Z</time></trkpt><trkpt lat="43.825677253977226" lon="11.189288564695504"><ele>38.0</ele><time>2026-03-28T09:18:34.999Z</time></trkpt><trkpt lat="43.82557549400265" lon="11.189516497425405"><ele>38.0</ele><time>2026-03-28T09:18:35.999Z</time></trkpt><trkpt lat="43.82548191247813" lon="11.189737068471166"><ele>38.0</ele><time>2026-03-28T09:18:36.999Z</time></trkpt><trkpt lat="43.8253992995614" lon="11.189944618546658"><ele>38.666666666666664</ele><time>2026-03-28T09:18:37.999Z</time></trkpt><trkpt lat="43.8253157280941" lon="11.190141374975552"><ele>39.333333333333336</ele><time>2026-03-28T09:18:38.999Z</time></trkpt><trkpt lat="43.82523616609403" lon="11.190324405652728"><ele>40.0</ele><time>2026-03-28T09:18:39.999Z</time></trkpt><trkpt lat="43.82516422163397" lon="11.190494471086337"><ele>40.0</ele><time>2026-03-28T09:18:40.999Z</time></trkpt><trkpt lat="43.82509698452349" lon="11.190653383450085"><ele>40.0</ele><time>2026-03-28T09:18:41.999Z</time></trkpt><trkpt lat="43.82502309257658" lon="11.190802083572377"><ele>40.0</ele><time>2026-03-28T09:18:42.999Z</time></trkpt><trkpt lat="43.82495193956108" lon="11.190943753672434"><ele>40.0</ele><time>2026-03-28T09:18:43.999Z</time></trkpt><trkpt lat="43.82488026823258" lon="11.191077178571465"><ele>39.75</ele><time>2026-03-28T09:18:44.999Z</time></trkpt><trkpt lat="43.82480330523388" lon="11.191207068420114"><ele>39.5</ele><time>2026-03-28T09:18:45.999Z</time></trkpt><trkpt lat="43.82472852622071" lon="11.191323981949623"><ele>39.25</ele><time>2026-03-28T09:18:46.999Z</time></trkpt><trkpt lat="43.82464473354597" lon="11.191445819467003"><ele>39.0</ele><time>2026-03-28T09:18:47.999Z</time></trkpt><trkpt lat="43.82455308411715" lon="11.191583157200297"><ele>39.0</ele><time>2026-03-28T09:18:48.999Z</time></trkpt><trkpt lat="43.82438277678994" lon="11.191817353262868"><ele>39.0</ele><time>2026-03-28T09:18:50.999Z</time></trkpt><trkpt lat="43.824287576722334" lon="11.19192542679313"><ele>39.0</ele><time>2026-03-28T09:18:51.999Z</time></trkpt><trkpt lat="43.82419708658703" lon="11.192014181144062"><ele>39.25</ele><time>2026-03-28T09:18:52.999Z</time></trkpt><trkpt lat="43.82410247375666" lon="11.192081845811337"><ele>39.5</ele><time>2026-03-28T09:18:53.999Z</time></trkpt><trkpt lat="43.82400041364521" lon="11.192149505571285"><ele>39.75</ele><time>2026-03-28T09:18:54.999Z</time></trkpt><trkpt lat="43.82389226622466" lon="11.192200777156645"><ele>40.0</ele><time>2026-03-28T09:18:55.999Z</time></trkpt><trkpt lat="43.82378134396443" lon="11.192248691071738"><ele>40.0</ele><time>2026-03-28T09:18:56.999Z</time></trkpt><trkpt lat="43.82364844989343" lon="11.192287488169354"><ele>40.0</ele><time>2026-03-28T09:18:57.999Z</time></trkpt><trkpt lat="43.82351903280109" lon="11.1923068633055"><ele>40.0</ele><time>2026-03-28T09:18:58.999Z</time></trkpt><trkpt lat="43.823398804867715" lon="11.192307348973438"><ele>40.0</ele><time>2026-03-28T09:18:59.999Z</time></trkpt><trkpt lat="43.82329693094611" lon="11.19230057846856"><ele>39.4</ele><time>2026-03-28T09:19:00.999Z</time></trkpt><trkpt lat="43.82320084459495" lon="11.192283908609664"><ele>38.8</ele><time>2026-03-28T09:19:01.999Z</time></trkpt><trkpt lat="43.82309728335104" lon="11.192240861969362"><ele>38.2</ele><time>2026-03-28T09:19:02.999Z</time></trkpt><trkpt lat="43.82299878171146" lon="11.192190710232177"><ele>37.6</ele><time>2026-03-28T09:19:03.999Z</time></trkpt><trkpt lat="43.82290133756033" lon="11.192128195504727"><ele>37.0</ele><time>2026-03-28T09:19:04.999Z</time></trkpt><trkpt lat="43.82281688197324" lon="11.192059142871864"><ele>37.0</ele><time>2026-03-28T09:19:05.999Z</time></trkpt><trkpt lat="43.82273599507163" lon="11.192001267549054"><ele>37.0</ele><time>2026-03-28T09:19:06.999Z</time></trkpt><trkpt lat="43.82265460679824" lon="11.191937267561073"><ele>37.0</ele><time>2026-03-28T09:19:07.999Z</time></trkpt><trkpt lat="43.8225742381553" lon="11.191870060062806"><ele>37.0</ele><time>2026-03-28T09:19:08.999Z</time></trkpt><trkpt lat="43.82247406857434" lon="11.191786294221272"><ele>37.0</ele><time>2026-03-28T09:19:09.999Z</time></trkpt><trkpt lat="43.82237768544046" lon="11.191705520577976"><ele>37.2</ele><time>2026-03-28T09:19:11Z</time></trkpt><trkpt lat="43.822294050195374" lon="11.191635249677178"><ele>37.400000000000006</ele><time>2026-03-28T09:19:12Z</time></trkpt><trkpt lat="43.82221386811396" lon="11.191567403300743"><ele>37.599999999999994</ele><time>2026-03-28T09:19:13Z</time></trkpt><trkpt lat="43.82213956874123" lon="11.191504534599536"><ele>37.8</ele><time>2026-03-28T09:19:14Z</time></trkpt><trkpt lat="43.82203875832556" lon="11.191441793592755"><ele>38.0</ele><time>2026-03-28T09:19:15Z</time></trkpt><trkpt lat="43.82193356384266" lon="11.191352572227327"><ele>38.0</ele><time>2026-03-28T09:19:16Z</time></trkpt><trkpt lat="43.821831124155366" lon="11.191271107791241"><ele>38.0</ele><time>2026-03-28T09:19:17Z</time></trkpt><trkpt lat="43.821729659629426" lon="11.191184677387735"><ele>38.0</ele><time>2026-03-28T09:19:18Z</time></trkpt><trkpt lat="43.82161555491233" lon="11.191088690228826"><ele>38.0</ele><time>2026-03-28T09:19:19Z</time></trkpt><trkpt lat="43.821488792659956" lon="11.190984251818707"><ele>38.0</ele><time>2026-03-28T09:19:20Z</time></trkpt><trkpt lat="43.82135684661099" lon="11.19085341309018"><ele>38.0</ele><time>2026-03-28T09:19:21Z</time></trkpt><trkpt lat="43.8212083451437" lon="11.190728736836531"><ele>38.0</ele><time>2026-03-28T09:19:22Z</time></trkpt><trkpt lat="43.82105573078051" lon="11.190600607535545"><ele>39.0</ele><time>2026-03-28T09:19:23Z</time></trkpt><trkpt lat="43.820902944290914" lon="11.190466860166923"><ele>40.0</ele><time>2026-03-28T09:19:24Z</time></trkpt><trkpt lat="43.82074210232204" lon="11.190326815999898"><ele>41.0</ele><time>2026-03-28T09:19:25Z</time></trkpt><trkpt lat="43.820579697723616" lon="11.19018541126516"><ele>41.0</ele><time>2026-03-28T09:19:26Z</time></trkpt><trkpt lat="43.82041111402902" lon="11.190038626423252"><ele>41.0</ele><time>2026-03-28T09:19:27Z</time></trkpt><trkpt lat="43.82024333163634" lon="11.189892539272797"><ele>41.0</ele><time>2026-03-28T09:19:28Z</time></trkpt><trkpt lat="43.8200736160558" lon="11.189744768880589"><ele>40.33333333333333</ele><time>2026-03-28T09:19:29Z</time></trkpt><trkpt lat="43.81990796989689" lon="11.189600498675809"><ele>39.666666666666664</ele><time>2026-03-28T09:19:30Z</time></trkpt><trkpt lat="43.81974217725742" lon="11.189456110890553"><ele>39.0</ele><time>2026-03-28T09:19:31Z</time></trkpt><trkpt lat="43.819573831058925" lon="11.189309162414485"><ele>39.0</ele><time>2026-03-28T09:19:32Z</time></trkpt><trkpt lat="43.819406784198165" lon="11.18916155081316"><ele>39.0</ele><time>2026-03-28T09:19:33Z</time></trkpt><trkpt lat="43.81924516887557" lon="11.189018698398447"><ele>39.0</ele><time>2026-03-28T09:19:34Z</time></trkpt><trkpt lat="43.81908101351398" lon="11.188873596746163"><ele>38.666666666666664</ele><time>2026-03-28T09:19:35Z</time></trkpt><trkpt lat="43.818902002479156" lon="11.188756474368825"><ele>38.33333333333333</ele><time>2026-03-28T09:19:36Z</time></trkpt><trkpt lat="43.818745726856754" lon="11.188623452059327"><ele>38.0</ele><time>2026-03-28T09:19:37Z</time></trkpt><trkpt lat="43.81859697669906" lon="11.18849563209614"><ele>38.0</ele><time>2026-03-28T09:19:38Z</time></trkpt><trkpt lat="43.81844214876951" lon="11.188367520842569"><ele>38.0</ele><time>2026-03-28T09:19:39Z</time></trkpt><trkpt lat="43.81830012484017" lon="11.188188303628014"><ele>38.0</ele><time>2026-03-28T09:19:40Z</time></trkpt><trkpt lat="43.8181522176241" lon="11.188055787864643"><ele>37.33333333333333</ele><time>2026-03-28T09:19:41Z</time></trkpt><trkpt lat="43.818013688745935" lon="11.187931674535331"><ele>36.666666666666664</ele><time>2026-03-28T09:19:42Z</time></trkpt><trkpt lat="43.81788520735809" lon="11.187817427542281"><ele>36.0</ele><time>2026-03-28T09:19:43Z</time></trkpt><trkpt lat="43.817755519315796" lon="11.187703029789104"><ele>36.0</ele><time>2026-03-28T09:19:44Z</time></trkpt><trkpt lat="43.81760644930154" lon="11.187578286400269"><ele>36.0</ele><time>2026-03-28T09:19:45Z</time></trkpt><trkpt lat="43.81744749697857" lon="11.18743901616868"><ele>36.0</ele><time>2026-03-28T09:19:46Z</time></trkpt><trkpt lat="43.817293875742514" lon="11.187291733497677"><ele>36.333333333333336</ele><time>2026-03-28T09:19:47Z</time></trkpt><trkpt lat="43.81715412446589" lon="11.187113195850502"><ele>36.66666666666667</ele><time>2026-03-28T09:19:48Z</time></trkpt><trkpt lat="43.817016487232195" lon="11.186918198094912"><ele>37.0</ele><time>2026-03-28T09:19:49Z</time></trkpt><trkpt lat="43.81688196749521" lon="11.186708835154766"><ele>36.333333333333336</ele><time>2026-03-28T09:19:50Z</time></trkpt><trkpt lat="43.816749818399806" lon="11.186502393910054"><ele>35.666666666666664</ele><time>2026-03-28T09:19:51Z</time></trkpt><trkpt lat="43.81662161202999" lon="11.18632080093027"><ele>35.0</ele><time>2026-03-28T09:19:52Z</time></trkpt><trkpt lat="43.81649541340447" lon="11.186155431373804"><ele>35.0</ele><time>2026-03-28T09:19:53Z</time></trkpt><trkpt lat="43.81636916873317" lon="11.186006171386255"><ele>35.0</ele><time>2026-03-28T09:19:54Z</time></trkpt><trkpt lat="43.81624251409577" lon="11.185873966725497"><ele>35.0</ele><time>2026-03-28T09:19:55Z</time></trkpt><trkpt lat="43.81611056569831" lon="11.18575848212236"><ele>35.0</ele><time>2026-03-28T09:19:56Z</time></trkpt><trkpt lat="43.81596068301877" lon="11.185641501292254"><ele>35.0</ele><time>2026-03-28T09:19:57Z</time></trkpt><trkpt lat="43.81581243999641" lon="11.18552432917142"><ele>35.0</ele><time>2026-03-28T09:19:58Z</time></trkpt><trkpt lat="43.81567407782643" lon="11.18542133566144"><ele>35.0</ele><time>2026-03-28T09:19:59Z</time></trkpt><trkpt lat="43.815554668981726" lon="11.185300133015566"><ele>35.0</ele><time>2026-03-28T09:20:00Z</time></trkpt><trkpt lat="43.81543647030182" lon="11.185208573428223"><ele>35.0</ele><time>2026-03-28T09:20:01Z</time></trkpt><trkpt lat="43.81527474783369" lon="11.185235121907168"><ele>35.0</ele><time>2026-03-28T09:20:02Z</time></trkpt><trkpt lat="43.81512011447706" lon="11.185256640700128"><ele>35.666666666666664</ele><time>2026-03-28T09:20:03Z</time></trkpt><trkpt lat="43.8149494522082" lon="11.185328696476331"><ele>36.333333333333336</ele><time>2026-03-28T09:20:04Z</time></trkpt><trkpt lat="43.81480121986422" lon="11.185412548952463"><ele>37.0</ele><time>2026-03-28T09:20:05Z</time></trkpt><trkpt lat="43.81465681341897" lon="11.185494027941601"><ele>37.0</ele><time>2026-03-28T09:20:06Z</time></trkpt><trkpt lat="43.814525039856804" lon="11.185571769930732"><ele>37.0</ele><time>2026-03-28T09:20:07Z</time></trkpt><trkpt lat="43.81440451404897" lon="11.185651879011372"><ele>37.0</ele><time>2026-03-28T09:20:08Z</time></trkpt><trkpt lat="43.81428517316929" lon="11.185679717470775"><ele>37.0</ele><time>2026-03-28T09:20:09Z</time></trkpt><trkpt lat="43.81418709524948" lon="11.185735421780606"><ele>37.333333333333336</ele><time>2026-03-28T09:20:10Z</time></trkpt><trkpt lat="43.81409918757226" lon="11.185782596484623"><ele>37.66666666666667</ele><time>2026-03-28T09:20:11Z</time></trkpt><trkpt lat="43.81402217819217" lon="11.185813019097306"><ele>38.0</ele><time>2026-03-28T09:20:12Z</time></trkpt><trkpt lat="43.81395280496963" lon="11.185814578809152"><ele>38.333333333333336</ele><time>2026-03-28T09:20:13Z</time></trkpt><trkpt lat="43.81387295910141" lon="11.185792585584153"><ele>38.666666666666664</ele><time>2026-03-28T09:20:14Z</time></trkpt><trkpt lat="43.81378891233187" lon="11.18572389916601"><ele>39.0</ele><time>2026-03-28T09:20:15Z</time></trkpt><trkpt lat="43.8137024419027" lon="11.185623285689966"><ele>39.0</ele><time>2026-03-28T09:20:16Z</time></trkpt><trkpt lat="43.81360865773915" lon="11.185471919985751"><ele>39.0</ele><time>2026-03-28T09:20:17Z</time></trkpt><trkpt lat="43.81353131362409" lon="11.185257098738335"><ele>39.0</ele><time>2026-03-28T09:20:18Z</time></trkpt><trkpt lat="43.81343186626166" lon="11.18507994144768"><ele>38.5</ele><time>2026-03-28T09:20:19Z</time></trkpt><trkpt lat="43.81334891072839" lon="11.184914804423602"><ele>38.0</ele><time>2026-03-28T09:20:20Z</time></trkpt><trkpt lat="43.813263006495774" lon="11.184756113881287"><ele>37.5</ele><time>2026-03-28T09:20:21Z</time></trkpt><trkpt lat="43.81318319506321" lon="11.184605813336017"><ele>37.0</ele><time>2026-03-28T09:20:21.999Z</time></trkpt><trkpt lat="43.81310680922805" lon="11.184464542674744"><ele>37.0</ele><time>2026-03-28T09:20:22.999Z</time></trkpt><trkpt lat="43.81303395606004" lon="11.184334477411657"><ele>37.0</ele><time>2026-03-28T09:20:23.999Z</time></trkpt><trkpt lat="43.81296965894441" lon="11.184203127026064"><ele>37.0</ele><time>2026-03-28T09:20:24.999Z</time></trkpt><trkpt lat="43.81289710570645" lon="11.184062576643951"><ele>37.0</ele><time>2026-03-28T09:20:25.999Z</time></trkpt><trkpt lat="43.81282243886788" lon="11.18392023723485"><ele>37.0</ele><time>2026-03-28T09:20:26.999Z</time></trkpt><trkpt lat="43.81274821000388" lon="11.183791618508156"><ele>37.0</ele><time>2026-03-28T09:20:27.999Z</time></trkpt><trkpt lat="43.81267596782507" lon="11.183652035245654"><ele>37.0</ele><time>2026-03-28T09:20:28.999Z</time></trkpt><trkpt lat="43.81260735499758" lon="11.18351847866057"><ele>37.0</ele><time>2026-03-28T09:20:29.999Z</time></trkpt><trkpt lat="43.81253116654152" lon="11.183389535188763"><ele>37.25</ele><time>2026-03-28T09:20:30.999Z</time></trkpt><trkpt lat="43.81243917847421" lon="11.183256546260061"><ele>37.5</ele><time>2026-03-28T09:20:31.999Z</time></trkpt><trkpt lat="43.81234566889782" lon="11.183125932550475"><ele>37.75</ele><time>2026-03-28T09:20:32.999Z</time></trkpt><trkpt lat="43.81225101932122" lon="11.1830130553602"><ele>38.0</ele><time>2026-03-28T09:20:33.999Z</time></trkpt><trkpt lat="43.812152146919544" lon="11.182897362564715"><ele>37.8</ele><time>2026-03-28T09:20:34.999Z</time></trkpt><trkpt lat="43.812114145052284" lon="11.18281705042867"><ele>37.599999999999994</ele><time>2026-03-28T09:20:35.999Z</time></trkpt><trkpt lat="43.81202142584015" lon="11.182724170712794"><ele>37.400000000000006</ele><time>2026-03-28T09:20:36.999Z</time></trkpt><trkpt lat="43.811937647947936" lon="11.182617015523936"><ele>37.2</ele><time>2026-03-28T09:20:37.999Z</time></trkpt><trkpt lat="43.81183677828789" lon="11.182486668384849"><ele>37.0</ele><time>2026-03-28T09:20:38.999Z</time></trkpt><trkpt lat="43.81170705069191" lon="11.182342988129879"><ele>37.0</ele><time>2026-03-28T09:20:39.999Z</time></trkpt><trkpt lat="43.81157350552208" lon="11.182193199224185"><ele>37.0</ele><time>2026-03-28T09:20:40.999Z</time></trkpt><trkpt lat="43.811436939227995" lon="11.182033046558036"><ele>37.0</ele><time>2026-03-28T09:20:41.999Z</time></trkpt><trkpt lat="43.81131097977548" lon="11.181871454112256"><ele>37.0</ele><time>2026-03-28T09:20:42.999Z</time></trkpt><trkpt lat="43.81119484601502" lon="11.181728261505292"><ele>37.0</ele><time>2026-03-28T09:20:43.999Z</time></trkpt><trkpt lat="43.81107255343485" lon="11.181619976938785"><ele>37.0</ele><time>2026-03-28T09:20:44.999Z</time></trkpt><trkpt lat="43.81097229936271" lon="11.181495939659468"><ele>37.0</ele><time>2026-03-28T09:20:45.999Z</time></trkpt><trkpt lat="43.810880029394774" lon="11.18138047316027"><ele>37.4</ele><time>2026-03-28T09:20:46.999Z</time></trkpt><trkpt lat="43.810791107856986" lon="11.181276885222852"><ele>37.800000000000004</ele><time>2026-03-28T09:20:47.999Z</time></trkpt><trkpt lat="43.810714235261486" lon="11.181183070835049"><ele>38.2</ele><time>2026-03-28T09:20:48.999Z</time></trkpt><trkpt lat="43.810651946850626" lon="11.181104073361984"><ele>38.6</ele><time>2026-03-28T09:20:49.999Z</time></trkpt><trkpt lat="43.81058903035473" lon="11.181031706686701"><ele>39.0</ele><time>2026-03-28T09:20:50.999Z</time></trkpt><trkpt lat="43.8105309826617" lon="11.180966280277385"><ele>39.0</ele><time>2026-03-28T09:20:51.999Z</time></trkpt><trkpt lat="43.810465305490325" lon="11.180905546852596"><ele>39.0</ele><time>2026-03-28T09:20:52.999Z</time></trkpt><trkpt lat="43.81039933691527" lon="11.180838993099785"><ele>39.0</ele><time>2026-03-28T09:20:53.999Z</time></trkpt><trkpt lat="43.8103374136228" lon="11.180779834200353"><ele>39.0</ele><time>2026-03-28T09:20:54.999Z</time></trkpt><trkpt lat="43.81027710349881" lon="11.180726159753968"><ele>39.0</ele><time>2026-03-28T09:20:55.999Z</time></trkpt><trkpt lat="43.81020598466456" lon="11.180662961805725"><ele>39.0</ele><time>2026-03-28T09:20:56.999Z</time></trkpt><trkpt lat="43.81014755669617" lon="11.180610021036875"><ele>39.0</ele><time>2026-03-28T09:20:57.999Z</time></trkpt><trkpt lat="43.81005209577458" lon="11.180535539750055"><ele>39.0</ele><time>2026-03-28T09:20:59.999Z</time></trkpt><trkpt lat="43.80997448144627" lon="11.180479945025793"><ele>39.0</ele><time>2026-03-28T09:21:01.999Z</time></trkpt><trkpt lat="43.8099009834604" lon="11.180418767290941"><ele>39.0</ele><time>2026-03-28T09:21:04.999Z</time></trkpt><trkpt lat="43.80984400617509" lon="11.18037463658167"><ele>39.0</ele><time>2026-03-28T09:21:07.999Z</time></trkpt><trkpt lat="43.80976649968251" lon="11.18030319500092"><ele>39.0</ele><time>2026-03-28T09:21:35Z</time></trkpt><trkpt lat="43.809654455408435" lon="11.180436766661474"><ele>39.0</ele><time>2026-03-28T09:21:37Z</time></trkpt><trkpt lat="43.80965636086861" lon="11.180532558108832"><ele>39.0</ele><time>2026-03-28T09:21:38Z</time></trkpt><trkpt lat="43.80969781312235" lon="11.180634415528404"><ele>39.0</ele><time>2026-03-28T09:21:39Z</time></trkpt><trkpt lat="43.80977976300569" lon="11.180742718626025"><ele>39.0</ele><time>2026-03-28T09:21:40Z</time></trkpt><trkpt lat="43.80989471673483" lon="11.180840014059854"><ele>39.0</ele><time>2026-03-28T09:21:41Z</time></trkpt><trkpt lat="43.81002138057481" lon="11.180935657661589"><ele>39.0</ele><time>2026-03-28T09:21:42Z</time></trkpt><trkpt lat="43.81014846012544" lon="11.181034941672984"><ele>39.0</ele><time>2026-03-28T09:21:43Z</time></trkpt><trkpt lat="43.81026981599982" lon="11.181108075150078"><ele>39.0</ele><time>2026-03-28T09:21:44Z</time></trkpt><trkpt lat="43.81038507619222" lon="11.181144211803515"><ele>39.0</ele><time>2026-03-28T09:21:45Z</time></trkpt><trkpt lat="43.81050710828586" lon="11.181192082078747"><ele>39.0</ele><time>2026-03-28T09:21:46Z</time></trkpt><trkpt lat="43.8106248727504" lon="11.181282374041864"><ele>39.0</ele><time>2026-03-28T09:21:47Z</time></trkpt><trkpt lat="43.810765913236175" lon="11.181373537218265"><ele>39.0</ele><time>2026-03-28T09:21:48Z</time></trkpt><trkpt lat="43.81089540515772" lon="11.181527370380731"><ele>38.333333333333336</ele><time>2026-03-28T09:21:49Z</time></trkpt><trkpt lat="43.811028464278216" lon="11.18168544086341"><ele>37.66666666666667</ele><time>2026-03-28T09:21:50Z</time></trkpt><trkpt lat="43.81115720048844" lon="11.181837113644564"><ele>37.0</ele><time>2026-03-28T09:21:51Z</time></trkpt><trkpt lat="43.81128693924223" lon="11.18199062078136"><ele>37.0</ele><time>2026-03-28T09:21:52Z</time></trkpt><trkpt lat="43.81141718031353" lon="11.182146663699974"><ele>37.0</ele><time>2026-03-28T09:21:53Z</time></trkpt><trkpt lat="43.81153994369393" lon="11.182296315809824"><ele>37.0</ele><time>2026-03-28T09:21:54Z</time></trkpt><trkpt lat="43.811577384728395" lon="11.182570330518464"><ele>37.0</ele><time>2026-03-28T09:21:55Z</time></trkpt><trkpt lat="43.8116390493282" lon="11.18279843156205"><ele>37.0</ele><time>2026-03-28T09:21:56Z</time></trkpt><trkpt lat="43.81167673667339" lon="11.183045562312461"><ele>37.0</ele><time>2026-03-28T09:21:57Z</time></trkpt><trkpt lat="43.81168872172727" lon="11.183307587793616"><ele>37.0</ele><time>2026-03-28T09:21:58Z</time></trkpt><trkpt lat="43.811676440864204" lon="11.18354757376809"><ele>37.0</ele><time>2026-03-28T09:21:59Z</time></trkpt><trkpt lat="43.81164187548387" lon="11.183779745710027"><ele>37.0</ele><time>2026-03-28T09:22:00Z</time></trkpt><trkpt lat="43.81159467985744" lon="11.183985638617544"><ele>37.0</ele><time>2026-03-28T09:22:01Z</time></trkpt><trkpt lat="43.811543926099624" lon="11.184176568813841"><ele>37.0</ele><time>2026-03-28T09:22:02Z</time></trkpt><trkpt lat="43.81147458256502" lon="11.184365343533187"><ele>37.0</ele><time>2026-03-28T09:22:03Z</time></trkpt><trkpt lat="43.811371178061044" lon="11.184552299068653"><ele>37.0</ele><time>2026-03-28T09:22:04Z</time></trkpt><trkpt lat="43.81126548697748" lon="11.184756962135713"><ele>37.0</ele><time>2026-03-28T09:22:05Z</time></trkpt><trkpt lat="43.81115542577878" lon="11.184983405809868"><ele>37.0</ele><time>2026-03-28T09:22:06Z</time></trkpt><trkpt lat="43.81103894982031" lon="11.185197815559532"><ele>37.333333333333336</ele><time>2026-03-28T09:22:07Z</time></trkpt><trkpt lat="43.81091400135182" lon="11.185434116698218"><ele>37.666666666666664</ele><time>2026-03-28T09:22:08Z</time></trkpt><trkpt lat="43.81077307856409" lon="11.185683541462387"><ele>38.0</ele><time>2026-03-28T09:22:09Z</time></trkpt><trkpt lat="43.8106178765786" lon="11.185940745623316"><ele>37.0</ele><time>2026-03-28T09:22:10Z</time></trkpt><trkpt lat="43.81045165684916" lon="11.18620870867024"><ele>36.0</ele><time>2026-03-28T09:22:11Z</time></trkpt><trkpt lat="43.81026500854076" lon="11.186482105169473"><ele>36.5</ele><time>2026-03-28T09:22:12Z</time></trkpt><trkpt lat="43.81007586857964" lon="11.186774018796632"><ele>37.0</ele><time>2026-03-28T09:22:13Z</time></trkpt><trkpt lat="43.8098811278217" lon="11.187072902541802"><ele>36.0</ele><time>2026-03-28T09:22:14Z</time></trkpt><trkpt lat="43.809684697816266" lon="11.187376588117678"><ele>35.0</ele><time>2026-03-28T09:22:15Z</time></trkpt><trkpt lat="43.809484615536896" lon="11.187684400672172"><ele>36.0</ele><time>2026-03-28T09:22:16Z</time></trkpt><trkpt lat="43.80928043453629" lon="11.18799463102988"><ele>37.0</ele><time>2026-03-28T09:22:17Z</time></trkpt><trkpt lat="43.809069597040796" lon="11.188314575040168"><ele>37.5</ele><time>2026-03-28T09:22:18Z</time></trkpt><trkpt lat="43.80886493823197" lon="11.188643723293321"><ele>38.0</ele><time>2026-03-28T09:22:19Z</time></trkpt><trkpt lat="43.808650401075795" lon="11.1889805016204"><ele>37.0</ele><time>2026-03-28T09:22:20Z</time></trkpt><trkpt lat="43.80843150312559" lon="11.18932811150092"><ele>36.0</ele><time>2026-03-28T09:22:21Z</time></trkpt><trkpt lat="43.8082012577746" lon="11.18969220331622"><ele>37.0</ele><time>2026-03-28T09:22:22Z</time></trkpt><trkpt lat="43.807964922165056" lon="11.190056257235268"><ele>38.0</ele><time>2026-03-28T09:22:23Z</time></trkpt><trkpt lat="43.80772815245485" lon="11.190467114576666"><ele>38.0</ele><time>2026-03-28T09:22:24Z</time></trkpt><trkpt lat="43.80749887140837" lon="11.190903146528171"><ele>38.0</ele><time>2026-03-28T09:22:25Z</time></trkpt><trkpt lat="43.80729617625791" lon="11.19107138847784"><ele>38.0</ele><time>2026-03-28T09:22:26Z</time></trkpt><trkpt lat="43.8070955875485" lon="11.191386898307744"><ele>38.0</ele><time>2026-03-28T09:22:27Z</time></trkpt><trkpt lat="43.80688883846518" lon="11.191697700741166"><ele>37.5</ele><time>2026-03-28T09:22:28Z</time></trkpt><trkpt lat="43.80668764588347" lon="11.192008432544515"><ele>37.0</ele><time>2026-03-28T09:22:29Z</time></trkpt><trkpt lat="43.806489505542324" lon="11.192324502253621"><ele>36.5</ele><time>2026-03-28T09:22:30Z</time></trkpt><trkpt lat="43.806283139707205" lon="11.192646233628041"><ele>36.0</ele><time>2026-03-28T09:22:31Z</time></trkpt><trkpt lat="43.80606987400711" lon="11.192969915853688"><ele>36.0</ele><time>2026-03-28T09:22:32Z</time></trkpt><trkpt lat="43.805857038427256" lon="11.193302965377441"><ele>36.0</ele><time>2026-03-28T09:22:33Z</time></trkpt><trkpt lat="43.80563255595318" lon="11.19365807193617"><ele>36.0</ele><time>2026-03-28T09:22:33.999Z</time></trkpt><trkpt lat="43.80540239644204" lon="11.194017208989852"><ele>36.0</ele><time>2026-03-28T09:22:34.999Z</time></trkpt><trkpt lat="43.80515909551176" lon="11.194398109764546"><ele>36.5</ele><time>2026-03-28T09:22:35.999Z</time></trkpt><trkpt lat="43.80490043040654" lon="11.19479714049023"><ele>37.0</ele><time>2026-03-28T09:22:36.999Z</time></trkpt><trkpt lat="43.80463904570997" lon="11.195202515275609"><ele>37.5</ele><time>2026-03-28T09:22:37.999Z</time></trkpt><trkpt lat="43.80436942892477" lon="11.195617664854451"><ele>38.0</ele><time>2026-03-28T09:22:38.999Z</time></trkpt><trkpt lat="43.804101970281984" lon="11.196026968448539"><ele>38.0</ele><time>2026-03-28T09:22:39.999Z</time></trkpt><trkpt lat="43.80383857252718" lon="11.196429279091213"><ele>38.0</ele><time>2026-03-28T09:22:40.999Z</time></trkpt><trkpt lat="43.80357451658598" lon="11.196828401669858"><ele>37.5</ele><time>2026-03-28T09:22:41.999Z</time></trkpt><trkpt lat="43.80329705811854" lon="11.197222081108677"><ele>37.0</ele><time>2026-03-28T09:22:42.999Z</time></trkpt><trkpt lat="43.803021963106666" lon="11.197618452464184"><ele>37.0</ele><time>2026-03-28T09:22:43.999Z</time></trkpt><trkpt lat="43.80277759162353" lon="11.19799555204039"><ele>37.0</ele><time>2026-03-28T09:22:44.999Z</time></trkpt><trkpt lat="43.80255657619352" lon="11.19834181720561"><ele>37.0</ele><time>2026-03-28T09:22:45.999Z</time></trkpt><trkpt lat="43.80235346763673" lon="11.198653934796456"><ele>37.0</ele><time>2026-03-28T09:22:46.999Z</time></trkpt><trkpt lat="43.80218229686277" lon="11.198937191742495"><ele>38.0</ele><time>2026-03-28T09:22:47.999Z</time></trkpt><trkpt lat="43.80201010998069" lon="11.199213448474147"><ele>39.0</ele><time>2026-03-28T09:22:48.999Z</time></trkpt><trkpt lat="43.8018447560941" lon="11.19948705607419"><ele>38.5</ele><time>2026-03-28T09:22:49.999Z</time></trkpt><trkpt lat="43.80168463770066" lon="11.199751379970145"><ele>38.0</ele><time>2026-03-28T09:22:50.999Z</time></trkpt><trkpt lat="43.80153612095323" lon="11.199994215792653"><ele>38.0</ele><time>2026-03-28T09:22:51.999Z</time></trkpt><trkpt lat="43.801395991791324" lon="11.200227881714802"><ele>38.0</ele><time>2026-03-28T09:22:52.999Z</time></trkpt><trkpt lat="43.80125359028556" lon="11.200465769642316"><ele>38.0</ele><time>2026-03-28T09:22:53.999Z</time></trkpt><trkpt lat="43.801116941414584" lon="11.200688859579287"><ele>38.0</ele><time>2026-03-28T09:22:54.999Z</time></trkpt><trkpt lat="43.800987418236204" lon="11.20090205477095"><ele>38.0</ele><time>2026-03-28T09:22:55.999Z</time></trkpt><trkpt lat="43.8008695869508" lon="11.201109984830186"><ele>38.0</ele><time>2026-03-28T09:22:56.999Z</time></trkpt><trkpt lat="43.800766242713614" lon="11.20129919860316"><ele>38.0</ele><time>2026-03-28T09:22:57.999Z</time></trkpt><trkpt lat="43.800674008039536" lon="11.20146118529909"><ele>38.0</ele><time>2026-03-28T09:22:58.999Z</time></trkpt><trkpt lat="43.8005861281273" lon="11.201616246009655"><ele>38.0</ele><time>2026-03-28T09:22:59.999Z</time></trkpt><trkpt lat="43.800493794906075" lon="11.20177039718027"><ele>38.0</ele><time>2026-03-28T09:23:00.999Z</time></trkpt><trkpt lat="43.80040502506593" lon="11.201932060846971"><ele>38.0</ele><time>2026-03-28T09:23:01.999Z</time></trkpt><trkpt lat="43.80032857281017" lon="11.202090734520352"><ele>38.0</ele><time>2026-03-28T09:23:02.999Z</time></trkpt><trkpt lat="43.800263837141955" lon="11.2022391552907"><ele>38.0</ele><time>2026-03-28T09:23:03.999Z</time></trkpt><trkpt lat="43.80022869346396" lon="11.202368117135748"><ele>38.0</ele><time>2026-03-28T09:23:04.999Z</time></trkpt><trkpt lat="43.800195143604476" lon="11.20250433085519"><ele>38.0</ele><time>2026-03-28T09:23:05.999Z</time></trkpt><trkpt lat="43.80016853808625" lon="11.202639772648379"><ele>38.0</ele><time>2026-03-28T09:23:06.999Z</time></trkpt><trkpt lat="43.80014566463764" lon="11.202778382929186"><ele>38.0</ele><time>2026-03-28T09:23:07.999Z</time></trkpt><trkpt lat="43.80011657030733" lon="11.2029252654274"><ele>38.0</ele><time>2026-03-28T09:23:08.999Z</time></trkpt><trkpt lat="43.80007651047265" lon="11.203061921552989"><ele>38.0</ele><time>2026-03-28T09:23:09.999Z</time></trkpt><trkpt lat="43.800018721015405" lon="11.203193529397621"><ele>38.0</ele><time>2026-03-28T09:23:10.999Z</time></trkpt><trkpt lat="43.79993989502296" lon="11.203328913788383"><ele>38.0</ele><time>2026-03-28T09:23:11.999Z</time></trkpt><trkpt lat="43.7998373375713" lon="11.203453212865073"><ele>38.0</ele><time>2026-03-28T09:23:12.999Z</time></trkpt><trkpt lat="43.79972231274787" lon="11.203575364101962"><ele>38.0</ele><time>2026-03-28T09:23:13.999Z</time></trkpt><trkpt lat="43.79961509261486" lon="11.20369089182098"><ele>38.0</ele><time>2026-03-28T09:23:14.999Z</time></trkpt><trkpt lat="43.799499427708575" lon="11.203811652091414"><ele>38.0</ele><time>2026-03-28T09:23:15.999Z</time></trkpt><trkpt lat="43.799366468212895" lon="11.20391802547167"><ele>38.0</ele><time>2026-03-28T09:23:16.999Z</time></trkpt><trkpt lat="43.79921851343219" lon="11.203979873002533"><ele>38.0</ele><time>2026-03-28T09:23:17.999Z</time></trkpt><trkpt lat="43.799071382601156" lon="11.2040015458353"><ele>38.0</ele><time>2026-03-28T09:23:18.999Z</time></trkpt><trkpt lat="43.79893190277346" lon="11.203974723570724"><ele>38.0</ele><time>2026-03-28T09:23:19.999Z</time></trkpt><trkpt lat="43.7987811391406" lon="11.203925873780749"><ele>38.0</ele><time>2026-03-28T09:23:20.999Z</time></trkpt><trkpt lat="43.79861828227562" lon="11.20387062596302"><ele>38.33333333333333</ele><time>2026-03-28T09:23:22Z</time></trkpt><trkpt lat="43.79845810356184" lon="11.203818483717573"><ele>38.666666666666664</ele><time>2026-03-28T09:23:23Z</time></trkpt><trkpt lat="43.79831749038307" lon="11.203774243820297"><ele>39.0</ele><time>2026-03-28T09:23:24Z</time></trkpt><trkpt lat="43.798176162633204" lon="11.203734497152015"><ele>39.0</ele><time>2026-03-28T09:23:25Z</time></trkpt><trkpt lat="43.798023534929676" lon="11.203700096235979"><ele>39.0</ele><time>2026-03-28T09:23:26Z</time></trkpt><trkpt lat="43.79785508438538" lon="11.203665590244439"><ele>39.0</ele><time>2026-03-28T09:23:27Z</time></trkpt><trkpt lat="43.79769003363058" lon="11.203630773824646"><ele>39.0</ele><time>2026-03-28T09:23:28Z</time></trkpt><trkpt lat="43.79752165945068" lon="11.203593015401745"><ele>39.0</ele><time>2026-03-28T09:23:29Z</time></trkpt><trkpt lat="43.79735740443236" lon="11.203551768108644"><ele>39.0</ele><time>2026-03-28T09:23:30Z</time></trkpt><trkpt lat="43.79718777775021" lon="11.203488464759813"><ele>39.0</ele><time>2026-03-28T09:23:31Z</time></trkpt><trkpt lat="43.797014625374246" lon="11.203417204334192"><ele>39.0</ele><time>2026-03-28T09:23:32Z</time></trkpt><trkpt lat="43.79683978373421" lon="11.203348164655816"><ele>39.0</ele><time>2026-03-28T09:23:33Z</time></trkpt><trkpt lat="43.79666088932625" lon="11.203275653506456"><ele>39.333333333333336</ele><time>2026-03-28T09:23:34Z</time></trkpt><trkpt lat="43.796500269872354" lon="11.203205043018855"><ele>39.66666666666667</ele><time>2026-03-28T09:23:35Z</time></trkpt><trkpt lat="43.7963498300437" lon="11.203129415234221"><ele>40.0</ele><time>2026-03-28T09:23:36Z</time></trkpt><trkpt lat="43.79621525477042" lon="11.203033178986342"><ele>40.0</ele><time>2026-03-28T09:23:37Z</time></trkpt><trkpt lat="43.79609332141726" lon="11.202910254934816"><ele>40.0</ele><time>2026-03-28T09:23:38Z</time></trkpt><trkpt lat="43.795974625417195" lon="11.202756308153798"><ele>40.0</ele><time>2026-03-28T09:23:39Z</time></trkpt><trkpt lat="43.795867223354975" lon="11.202564441576898"><ele>40.0</ele><time>2026-03-28T09:23:40Z</time></trkpt><trkpt lat="43.7957535365347" lon="11.202336162379442"><ele>40.0</ele><time>2026-03-28T09:23:41Z</time></trkpt><trkpt lat="43.79564341329364" lon="11.202110960993247"><ele>40.0</ele><time>2026-03-28T09:23:42Z</time></trkpt><trkpt lat="43.795538592405684" lon="11.201900985904812"><ele>40.0</ele><time>2026-03-28T09:23:43Z</time></trkpt><trkpt lat="43.79543342126215" lon="11.201696570807583"><ele>40.0</ele><time>2026-03-28T09:23:44Z</time></trkpt><trkpt lat="43.79532590559594" lon="11.201487194636432"><ele>40.0</ele><time>2026-03-28T09:23:45Z</time></trkpt><trkpt lat="43.79521674220515" lon="11.201270174541227"><ele>41.0</ele><time>2026-03-28T09:23:46Z</time></trkpt><trkpt lat="43.79511093883825" lon="11.201061971576413"><ele>42.0</ele><time>2026-03-28T09:23:47Z</time></trkpt><trkpt lat="43.79500868436585" lon="11.200863219639471"><ele>43.0</ele><time>2026-03-28T09:23:48Z</time></trkpt><trkpt lat="43.794909477462454" lon="11.200669806220823"><ele>43.0</ele><time>2026-03-28T09:23:49Z</time></trkpt><trkpt lat="43.79480289334881" lon="11.200466953957797"><ele>43.0</ele><time>2026-03-28T09:23:50Z</time></trkpt><trkpt lat="43.7946917759319" lon="11.200259844684322"><ele>43.0</ele><time>2026-03-28T09:23:51Z</time></trkpt><trkpt lat="43.7945827902408" lon="11.200056708650232"><ele>43.0</ele><time>2026-03-28T09:23:52Z</time></trkpt><trkpt lat="43.79447983216182" lon="11.199864846168921"><ele>43.0</ele><time>2026-03-28T09:23:53Z</time></trkpt><trkpt lat="43.794378790786254" lon="11.19967585629884"><ele>43.0</ele><time>2026-03-28T09:23:54Z</time></trkpt><trkpt lat="43.794269280911664" lon="11.19948962090016"><ele>41.66666666666667</ele><time>2026-03-28T09:23:55Z</time></trkpt><trkpt lat="43.79414665248767" lon="11.19930285696965"><ele>40.333333333333336</ele><time>2026-03-28T09:23:56Z</time></trkpt><trkpt lat="43.794019780767776" lon="11.199138447295867"><ele>39.0</ele><time>2026-03-28T09:23:57Z</time></trkpt><trkpt lat="43.79388834497506" lon="11.198993929172614"><ele>39.0</ele><time>2026-03-28T09:23:58Z</time></trkpt><trkpt lat="43.79375336584168" lon="11.198859049498312"><ele>39.0</ele><time>2026-03-28T09:23:59Z</time></trkpt><trkpt lat="43.79361427546698" lon="11.1987319597468"><ele>39.0</ele><time>2026-03-28T09:24:00Z</time></trkpt><trkpt lat="43.79347489538714" lon="11.198606426164414"><ele>39.333333333333336</ele><time>2026-03-28T09:24:01Z</time></trkpt><trkpt lat="43.793315256740435" lon="11.198479310329594"><ele>39.66666666666667</ele><time>2026-03-28T09:24:02Z</time></trkpt><trkpt lat="43.79315613837593" lon="11.198368333647826"><ele>40.0</ele><time>2026-03-28T09:24:03Z</time></trkpt><trkpt lat="43.793005552487855" lon="11.19826838421247"><ele>39.66666666666667</ele><time>2026-03-28T09:24:04Z</time></trkpt><trkpt lat="43.79284871474468" lon="11.198157046941393"><ele>39.333333333333336</ele><time>2026-03-28T09:24:05Z</time></trkpt><trkpt lat="43.79267832359361" lon="11.198033645757361"><ele>39.0</ele><time>2026-03-28T09:24:06Z</time></trkpt><trkpt lat="43.79248528844836" lon="11.19791091130601"><ele>40.5</ele><time>2026-03-28T09:24:07Z</time></trkpt><trkpt lat="43.792276478868025" lon="11.197758387863384"><ele>42.0</ele><time>2026-03-28T09:24:08Z</time></trkpt><trkpt lat="43.79206818908465" lon="11.197586121143626"><ele>42.0</ele><time>2026-03-28T09:24:09Z</time></trkpt><trkpt lat="43.79186531819698" lon="11.197422842007828"><ele>42.0</ele><time>2026-03-28T09:24:10Z</time></trkpt><trkpt lat="43.791653886255986" lon="11.197266926285568"><ele>40.5</ele><time>2026-03-28T09:24:11Z</time></trkpt><trkpt lat="43.79144377202042" lon="11.197116325043552"><ele>39.0</ele><time>2026-03-28T09:24:12Z</time></trkpt><trkpt lat="43.79123615696654" lon="11.196965882888065"><ele>39.0</ele><time>2026-03-28T09:24:13Z</time></trkpt><trkpt lat="43.79104025485194" lon="11.196823134215625"><ele>39.0</ele><time>2026-03-28T09:24:14Z</time></trkpt><trkpt lat="43.79084932104007" lon="11.19668045078498"><ele>39.0</ele><time>2026-03-28T09:24:15Z</time></trkpt><trkpt lat="43.790647493775445" lon="11.19653270932546"><ele>36.5</ele><time>2026-03-28T09:24:16Z</time></trkpt><trkpt lat="43.79043847171629" lon="11.196387960892665"><ele>34.0</ele><time>2026-03-28T09:24:17Z</time></trkpt><trkpt lat="43.79023195165673" lon="11.196240552980088"><ele>31.0</ele><time>2026-03-28T09:24:18Z</time></trkpt><trkpt lat="43.790024090301436" lon="11.19609264968574"><ele>28.0</ele><time>2026-03-28T09:24:19Z</time></trkpt><trkpt lat="43.7898136157284" lon="11.195939996129848"><ele>28.0</ele><time>2026-03-28T09:24:20Z</time></trkpt><trkpt lat="43.789600295477484" lon="11.195781638095854"><ele>28.0</ele><time>2026-03-28T09:24:21Z</time></trkpt><trkpt lat="43.789398891515425" lon="11.195638415374228"><ele>32.333333333333336</ele><time>2026-03-28T09:24:22Z</time></trkpt><trkpt lat="43.78920249942197" lon="11.195479896335033"><ele>36.666666666666664</ele><time>2026-03-28T09:24:23Z</time></trkpt><trkpt lat="43.789029497572436" lon="11.195372621583362"><ele>41.0</ele><time>2026-03-28T09:24:24Z</time></trkpt><trkpt lat="43.7888332220305" lon="11.195235516168967"><ele>41.0</ele><time>2026-03-28T09:24:25Z</time></trkpt><trkpt lat="43.78864231771273" lon="11.19509567092199"><ele>41.0</ele><time>2026-03-28T09:24:26Z</time></trkpt><trkpt lat="43.7884489233001" lon="11.19493349246496"><ele>41.0</ele><time>2026-03-28T09:24:26.999Z</time></trkpt><trkpt lat="43.78825937719599" lon="11.194795376183867"><ele>40.33333333333333</ele><time>2026-03-28T09:24:27.999Z</time></trkpt><trkpt lat="43.78808158534203" lon="11.194665824865254"><ele>39.666666666666664</ele><time>2026-03-28T09:24:28.999Z</time></trkpt><trkpt lat="43.78790885216124" lon="11.194539959662805"><ele>39.0</ele><time>2026-03-28T09:24:29.999Z</time></trkpt><trkpt lat="43.787732955848234" lon="11.194436297488515"><ele>38.666666666666664</ele><time>2026-03-28T09:24:30.999Z</time></trkpt><trkpt lat="43.78757327352142" lon="11.194295434110897"><ele>38.33333333333333</ele><time>2026-03-28T09:24:31.999Z</time></trkpt><trkpt lat="43.78741038655315" lon="11.194176743518968"><ele>38.0</ele><time>2026-03-28T09:24:32.999Z</time></trkpt><trkpt lat="43.78724732260253" lon="11.194057923955476"><ele>38.0</ele><time>2026-03-28T09:24:33.999Z</time></trkpt><trkpt lat="43.78708383714034" lon="11.193964440323423"><ele>38.0</ele><time>2026-03-28T09:24:34.999Z</time></trkpt><trkpt lat="43.78693062798005" lon="11.19382550378984"><ele>38.0</ele><time>2026-03-28T09:24:35.999Z</time></trkpt><trkpt lat="43.78675917919618" lon="11.193695803770535"><ele>38.0</ele><time>2026-03-28T09:24:36.999Z</time></trkpt><trkpt lat="43.78658856106122" lon="11.193546258823815"><ele>38.0</ele><time>2026-03-28T09:24:37.999Z</time></trkpt><trkpt lat="43.786415010696096" lon="11.193383303318447"><ele>38.0</ele><time>2026-03-28T09:24:38.999Z</time></trkpt><trkpt lat="43.78625676981768" lon="11.193219043745573"><ele>38.33333333333333</ele><time>2026-03-28T09:24:39.999Z</time></trkpt><trkpt lat="43.78610917876321" lon="11.193052650287788"><ele>38.666666666666664</ele><time>2026-03-28T09:24:40.999Z</time></trkpt><trkpt lat="43.785970321185566" lon="11.192885092939527"><ele>39.0</ele><time>2026-03-28T09:24:41.999Z</time></trkpt><trkpt lat="43.78584214456456" lon="11.192710768506734"><ele>39.0</ele><time>2026-03-28T09:24:42.999Z</time></trkpt><trkpt lat="43.78572057593394" lon="11.19252960340979"><ele>39.0</ele><time>2026-03-28T09:24:43.999Z</time></trkpt><trkpt lat="43.785610412681486" lon="11.192350928245066"><ele>39.0</ele><time>2026-03-28T09:24:44.999Z</time></trkpt><trkpt lat="43.78549304298492" lon="11.192182180960542"><ele>39.0</ele><time>2026-03-28T09:24:45.999Z</time></trkpt><trkpt lat="43.7854068454723" lon="11.191979862093175"><ele>39.0</ele><time>2026-03-28T09:24:46.999Z</time></trkpt><trkpt lat="43.785318226832935" lon="11.191797649219298"><ele>39.0</ele><time>2026-03-28T09:24:47.999Z</time></trkpt><trkpt lat="43.78522188683764" lon="11.191636072612681"><ele>39.0</ele><time>2026-03-28T09:24:48.999Z</time></trkpt><trkpt lat="43.78515179333" lon="11.19147107543442"><ele>39.0</ele><time>2026-03-28T09:24:49.999Z</time></trkpt><trkpt lat="43.78508423315338" lon="11.191307523034343"><ele>39.0</ele><time>2026-03-28T09:24:50.999Z</time></trkpt><trkpt lat="43.78501791945994" lon="11.191144575706048"><ele>39.0</ele><time>2026-03-28T09:24:51.999Z</time></trkpt><trkpt lat="43.78494991176666" lon="11.190979789595762"><ele>39.0</ele><time>2026-03-28T09:24:52.999Z</time></trkpt><trkpt lat="43.78488295534113" lon="11.190812941121091"><ele>39.0</ele><time>2026-03-28T09:24:53.999Z</time></trkpt><trkpt lat="43.78481360417787" lon="11.19064873460526"><ele>39.0</ele><time>2026-03-28T09:24:54.999Z</time></trkpt><trkpt lat="43.784753051383554" lon="11.190500834742666"><ele>39.0</ele><time>2026-03-28T09:24:55.999Z</time></trkpt><trkpt lat="43.78468811254108" lon="11.190342989654317"><ele>39.0</ele><time>2026-03-28T09:24:56.999Z</time></trkpt><trkpt lat="43.78461745299241" lon="11.190177856279494"><ele>39.0</ele><time>2026-03-28T09:24:57.999Z</time></trkpt><trkpt lat="43.78455116058812" lon="11.190020300891518"><ele>39.0</ele><time>2026-03-28T09:24:58.999Z</time></trkpt><trkpt lat="43.78448640814238" lon="11.189866148478682"><ele>39.0</ele><time>2026-03-28T09:24:59.999Z</time></trkpt><trkpt lat="43.784422168640056" lon="11.189719196366731"><ele>39.0</ele><time>2026-03-28T09:25:00.999Z</time></trkpt><trkpt lat="43.78436113894527" lon="11.1895615480675"><ele>39.0</ele><time>2026-03-28T09:25:01.999Z</time></trkpt><trkpt lat="43.784285324735364" lon="11.189414812693364"><ele>39.0</ele><time>2026-03-28T09:25:02.999Z</time></trkpt><trkpt lat="43.78418889373145" lon="11.189283661335342"><ele>39.0</ele><time>2026-03-28T09:25:03.999Z</time></trkpt><trkpt lat="43.78411171351171" lon="11.189133810743385"><ele>39.75</ele><time>2026-03-28T09:25:04.999Z</time></trkpt><trkpt lat="43.78401541498295" lon="11.18900208930785"><ele>40.5</ele><time>2026-03-28T09:25:05.999Z</time></trkpt><trkpt lat="43.783904004673246" lon="11.188865717217418"><ele>41.25</ele><time>2026-03-28T09:25:06.999Z</time></trkpt><trkpt lat="43.78376993666972" lon="11.188749714093833"><ele>42.0</ele><time>2026-03-28T09:25:07.999Z</time></trkpt><trkpt lat="43.783638856409745" lon="11.188606419378154"><ele>42.0</ele><time>2026-03-28T09:25:08.999Z</time></trkpt><trkpt lat="43.78349604326584" lon="11.188478705947038"><ele>42.0</ele><time>2026-03-28T09:25:09.999Z</time></trkpt><trkpt lat="43.783346126225034" lon="11.188357693714886"><ele>42.0</ele><time>2026-03-28T09:25:10.999Z</time></trkpt><trkpt lat="43.783201817443526" lon="11.188221589236958"><ele>41.666666666666664</ele><time>2026-03-28T09:25:11.999Z</time></trkpt><trkpt lat="43.78304456045243" lon="11.188089803192497"><ele>41.33333333333333</ele><time>2026-03-28T09:25:12.999Z</time></trkpt><trkpt lat="43.78288318823" lon="11.18795440539245"><ele>41.0</ele><time>2026-03-28T09:25:13.999Z</time></trkpt><trkpt lat="43.78272364086223" lon="11.187819094638426"><ele>40.666666666666664</ele><time>2026-03-28T09:25:14.999Z</time></trkpt><trkpt lat="43.78255927967625" lon="11.187681443656569"><ele>40.333333333333336</ele><time>2026-03-28T09:25:15.999Z</time></trkpt><trkpt lat="43.78239236203452" lon="11.187541854434576"><ele>40.0</ele><time>2026-03-28T09:25:16.999Z</time></trkpt><trkpt lat="43.78222399932594" lon="11.18740074763241"><ele>39.66666666666667</ele><time>2026-03-28T09:25:17.999Z</time></trkpt><trkpt lat="43.78205721022289" lon="11.187261349532806"><ele>39.333333333333336</ele><time>2026-03-28T09:25:18.999Z</time></trkpt><trkpt lat="43.78188839974342" lon="11.187119822181849"><ele>39.0</ele><time>2026-03-28T09:25:19.999Z</time></trkpt><trkpt lat="43.781725123010546" lon="11.186983301577833"><ele>39.0</ele><time>2026-03-28T09:25:20.999Z</time></trkpt><trkpt lat="43.781561989310354" lon="11.186846900592304"><ele>39.0</ele><time>2026-03-28T09:25:21.999Z</time></trkpt><trkpt lat="43.78139454942636" lon="11.186706836418477"><ele>39.0</ele><time>2026-03-28T09:25:22.999Z</time></trkpt><trkpt lat="43.78122189590991" lon="11.186562110994025"><ele>38.666666666666664</ele><time>2026-03-28T09:25:23.999Z</time></trkpt><trkpt lat="43.78104409358864" lon="11.186414831149186"><ele>38.33333333333333</ele><time>2026-03-28T09:25:24.999Z</time></trkpt><trkpt lat="43.78086928808352" lon="11.186270820500047"><ele>38.0</ele><time>2026-03-28T09:25:25.999Z</time></trkpt><trkpt lat="43.78070656598599" lon="11.186142095879891"><ele>38.0</ele><time>2026-03-28T09:25:26.999Z</time></trkpt><trkpt lat="43.780527235716946" lon="11.186011513488747"><ele>38.0</ele><time>2026-03-28T09:25:28Z</time></trkpt><trkpt lat="43.78034240047426" lon="11.185895499215603"><ele>38.0</ele><time>2026-03-28T09:25:29Z</time></trkpt><trkpt lat="43.78013842704885" lon="11.185816579705792"><ele>38.666666666666664</ele><time>2026-03-28T09:25:30Z</time></trkpt><trkpt lat="43.77993317214659" lon="11.185746432469637"><ele>39.333333333333336</ele><time>2026-03-28T09:25:31Z</time></trkpt><trkpt lat="43.779732484321826" lon="11.185701682731388"><ele>40.0</ele><time>2026-03-28T09:25:32Z</time></trkpt><trkpt lat="43.77953616509402" lon="11.185681590488853"><ele>39.333333333333336</ele><time>2026-03-28T09:25:33Z</time></trkpt><trkpt lat="43.77933540633536" lon="11.185660445842517"><ele>38.666666666666664</ele><time>2026-03-28T09:25:34Z</time></trkpt><trkpt lat="43.77913234674598" lon="11.18568781924872"><ele>38.0</ele><time>2026-03-28T09:25:35Z</time></trkpt><trkpt lat="43.778926302471795" lon="11.18576665335285"><ele>37.666666666666664</ele><time>2026-03-28T09:25:36Z</time></trkpt><trkpt lat="43.77872678099784" lon="11.18583824517039"><ele>37.333333333333336</ele><time>2026-03-28T09:25:37Z</time></trkpt><trkpt lat="43.77852251462422" lon="11.185924171783151"><ele>37.0</ele><time>2026-03-28T09:25:38Z</time></trkpt><trkpt lat="43.77831111522171" lon="11.186018532621105"><ele>36.5</ele><time>2026-03-28T09:25:39Z</time></trkpt><trkpt lat="43.77809656173789" lon="11.186148485183956"><ele>36.0</ele><time>2026-03-28T09:25:40Z</time></trkpt><trkpt lat="43.77787134347527" lon="11.186286809471238"><ele>36.0</ele><time>2026-03-28T09:25:41Z</time></trkpt><trkpt lat="43.777638462759256" lon="11.18642713350918"><ele>36.0</ele><time>2026-03-28T09:25:42Z</time></trkpt><trkpt lat="43.777397721173465" lon="11.186549699902555"><ele>37.0</ele><time>2026-03-28T09:25:43Z</time></trkpt><trkpt lat="43.77715012511796" lon="11.18665033682145"><ele>38.0</ele><time>2026-03-28T09:25:44Z</time></trkpt><trkpt lat="43.77690165495693" lon="11.186723329866368"><ele>36.5</ele><time>2026-03-28T09:25:45Z</time></trkpt><trkpt lat="43.77664240117412" lon="11.186768037965011"><ele>35.0</ele><time>2026-03-28T09:25:46Z</time></trkpt><trkpt lat="43.77638008296138" lon="11.186795314003266"><ele>35.0</ele><time>2026-03-28T09:25:47Z</time></trkpt><trkpt lat="43.77611912432954" lon="11.186801222650656"><ele>35.0</ele><time>2026-03-28T09:25:48Z</time></trkpt><trkpt lat="43.77585687424897" lon="11.18678606369795"><ele>36.0</ele><time>2026-03-28T09:25:49Z</time></trkpt><trkpt lat="43.77560469501094" lon="11.186766126152657"><ele>37.0</ele><time>2026-03-28T09:25:50Z</time></trkpt><trkpt lat="43.77536979241725" lon="11.186748550351922"><ele>37.0</ele><time>2026-03-28T09:25:51Z</time></trkpt><trkpt lat="43.77513693219292" lon="11.186704847496005"><ele>37.0</ele><time>2026-03-28T09:25:52Z</time></trkpt><trkpt lat="43.7748980465409" lon="11.186705967456286"><ele>37.0</ele><time>2026-03-28T09:25:53Z</time></trkpt><trkpt lat="43.774655010285684" lon="11.18668100856006"><ele>37.0</ele><time>2026-03-28T09:25:54Z</time></trkpt><trkpt lat="43.774416176270044" lon="11.186646779504407"><ele>37.0</ele><time>2026-03-28T09:25:55Z</time></trkpt><trkpt lat="43.77417142254646" lon="11.186604307404599"><ele>37.0</ele><time>2026-03-28T09:25:56Z</time></trkpt><trkpt lat="43.773928460119244" lon="11.186564173220578"><ele>37.0</ele><time>2026-03-28T09:25:57Z</time></trkpt><trkpt lat="43.77368923053418" lon="11.186536455671238"><ele>37.0</ele><time>2026-03-28T09:25:58Z</time></trkpt><trkpt lat="43.77346980187282" lon="11.186507676372651"><ele>37.0</ele><time>2026-03-28T09:25:59Z</time></trkpt><trkpt lat="43.773271680824124" lon="11.186482631134941"><ele>37.0</ele><time>2026-03-28T09:26:00Z</time></trkpt><trkpt lat="43.7730883797275" lon="11.186463903668548"><ele>37.0</ele><time>2026-03-28T09:26:01Z</time></trkpt><trkpt lat="43.77291681006795" lon="11.18644552681792"><ele>37.0</ele><time>2026-03-28T09:26:02Z</time></trkpt><trkpt lat="43.77274843426406" lon="11.186433775031006"><ele>37.0</ele><time>2026-03-28T09:26:03Z</time></trkpt><trkpt lat="43.77260107246429" lon="11.186426751815876"><ele>37.0</ele><time>2026-03-28T09:26:04Z</time></trkpt><trkpt lat="43.772455375461014" lon="11.186418268894226"><ele>37.333333333333336</ele><time>2026-03-28T09:26:05Z</time></trkpt><trkpt lat="43.77228888637691" lon="11.18642749153234"><ele>37.666666666666664</ele><time>2026-03-28T09:26:06Z</time></trkpt><trkpt lat="43.77210696895964" lon="11.186441579226798"><ele>38.0</ele><time>2026-03-28T09:26:07Z</time></trkpt><trkpt lat="43.77193354843335" lon="11.18645500892215"><ele>38.0</ele><time>2026-03-28T09:26:08Z</time></trkpt><trkpt lat="43.77176031023283" lon="11.186479995321886"><ele>38.0</ele><time>2026-03-28T09:26:09Z</time></trkpt><trkpt lat="43.77158919841503" lon="11.18679419093743"><ele>38.33333333333333</ele><time>2026-03-28T09:26:10Z</time></trkpt><trkpt lat="43.77140285402371" lon="11.18689758705183"><ele>38.666666666666664</ele><time>2026-03-28T09:26:11Z</time></trkpt><trkpt lat="43.771212755282754" lon="11.187006952667334"><ele>39.0</ele><time>2026-03-28T09:26:12Z</time></trkpt><trkpt lat="43.771016048051024" lon="11.187128656637805"><ele>39.333333333333336</ele><time>2026-03-28T09:26:13Z</time></trkpt><trkpt lat="43.77081886542448" lon="11.187258194799854"><ele>39.66666666666667</ele><time>2026-03-28T09:26:14Z</time></trkpt><trkpt lat="43.770623715002806" lon="11.187388325364827"><ele>40.0</ele><time>2026-03-28T09:26:15Z</time></trkpt><trkpt lat="43.77043901083994" lon="11.187522180813732"><ele>39.333333333333336</ele><time>2026-03-28T09:26:16Z</time></trkpt><trkpt lat="43.77026613220178" lon="11.18763182241429"><ele>38.666666666666664</ele><time>2026-03-28T09:26:17Z</time></trkpt><trkpt lat="43.77009506432518" lon="11.187744554886885"><ele>38.0</ele><time>2026-03-28T09:26:18Z</time></trkpt><trkpt lat="43.76991432314684" lon="11.187849879132525"><ele>37.666666666666664</ele><time>2026-03-28T09:26:19Z</time></trkpt><trkpt lat="43.76972598812785" lon="11.187947262833514"><ele>37.333333333333336</ele><time>2026-03-28T09:26:20Z</time></trkpt><trkpt lat="43.769546411502745" lon="11.188050068436635"><ele>37.0</ele><time>2026-03-28T09:26:21Z</time></trkpt><trkpt lat="43.76937656318414" lon="11.188156053092683"><ele>37.66666666666667</ele><time>2026-03-28T09:26:22Z</time></trkpt><trkpt lat="43.76921585641874" lon="11.188253577842763"><ele>38.333333333333336</ele><time>2026-03-28T09:26:23Z</time></trkpt><trkpt lat="43.769063515781866" lon="11.18834003941474"><ele>39.0</ele><time>2026-03-28T09:26:24Z</time></trkpt><trkpt lat="43.76891889885082" lon="11.18842673658915"><ele>39.0</ele><time>2026-03-28T09:26:25Z</time></trkpt><trkpt lat="43.76878920681677" lon="11.18851974868091"><ele>39.0</ele><time>2026-03-28T09:26:26Z</time></trkpt><trkpt lat="43.76868445142295" lon="11.188637659198347"><ele>39.0</ele><time>2026-03-28T09:26:27Z</time></trkpt><trkpt lat="43.768616852403994" lon="11.18879574381365"><ele>39.0</ele><time>2026-03-28T09:26:28Z</time></trkpt><trkpt lat="43.76857954237141" lon="11.18896380163424"><ele>39.25</ele><time>2026-03-28T09:26:29Z</time></trkpt><trkpt lat="43.768597029409825" lon="11.189137653458337"><ele>39.5</ele><time>2026-03-28T09:26:30Z</time></trkpt><trkpt lat="43.768682000398506" lon="11.18930423437646"><ele>39.75</ele><time>2026-03-28T09:26:31Z</time></trkpt><trkpt lat="43.76877920901834" lon="11.189440127042626"><ele>40.0</ele><time>2026-03-28T09:26:32Z</time></trkpt><trkpt lat="43.768902319484525" lon="11.189545889250411"><ele>40.0</ele><time>2026-03-28T09:26:33Z</time></trkpt><trkpt lat="43.76901315341072" lon="11.189622786362326"><ele>40.0</ele><time>2026-03-28T09:26:34Z</time></trkpt><trkpt lat="43.769108212599726" lon="11.189709695787634"><ele>40.0</ele><time>2026-03-28T09:26:35Z</time></trkpt><trkpt lat="43.769186241528296" lon="11.189799606508874"><ele>40.0</ele><time>2026-03-28T09:26:36Z</time></trkpt><trkpt lat="43.76922926194338" lon="11.189907603703263"><ele>40.0</ele><time>2026-03-28T09:26:37Z</time></trkpt><trkpt lat="43.769231051523604" lon="11.190028378217857"><ele>40.16666666666667</ele><time>2026-03-28T09:26:38Z</time></trkpt><trkpt lat="43.76919418327807" lon="11.190141794816439"><ele>40.333333333333336</ele><time>2026-03-28T09:26:39Z</time></trkpt><trkpt lat="43.76914015207233" lon="11.190234784299912"><ele>40.5</ele><time>2026-03-28T09:26:40Z</time></trkpt><trkpt lat="43.76907501424225" lon="11.190283743029049"><ele>40.666666666666664</ele><time>2026-03-28T09:26:40.999Z</time></trkpt><trkpt lat="43.76900213812815" lon="11.19029670700989"><ele>40.83333333333333</ele><time>2026-03-28T09:26:41.999Z</time></trkpt><trkpt lat="43.76892288546868" lon="11.190270495755325"><ele>41.0</ele><time>2026-03-28T09:26:42.999Z</time></trkpt><trkpt lat="43.768854008895396" lon="11.190200212191632"><ele>41.0</ele><time>2026-03-28T09:26:43.999Z</time></trkpt><trkpt lat="43.76879653116312" lon="11.190094272031942"><ele>41.0</ele><time>2026-03-28T09:26:44.999Z</time></trkpt><trkpt lat="43.7687550503954" lon="11.189948662697228"><ele>41.0</ele><time>2026-03-28T09:26:45.999Z</time></trkpt><trkpt lat="43.76869990262807" lon="11.189781168015273"><ele>41.0</ele><time>2026-03-28T09:26:46.999Z</time></trkpt><trkpt lat="43.768626879206586" lon="11.189627847897373"><ele>40.666666666666664</ele><time>2026-03-28T09:26:47.999Z</time></trkpt><trkpt lat="43.768528627169204" lon="11.189447801749035"><ele>40.333333333333336</ele><time>2026-03-28T09:26:48.999Z</time></trkpt><trkpt lat="43.76842818387739" lon="11.189258412853475"><ele>40.0</ele><time>2026-03-28T09:26:49.999Z</time></trkpt><trkpt lat="43.76833627757609" lon="11.189094836251577"><ele>40.0</ele><time>2026-03-28T09:26:50.999Z</time></trkpt><trkpt lat="43.768250289457974" lon="11.188944898990194"><ele>40.0</ele><time>2026-03-28T09:26:51.999Z</time></trkpt><trkpt lat="43.768175387306876" lon="11.188812634972674"><ele>40.0</ele><time>2026-03-28T09:26:52.999Z</time></trkpt><trkpt lat="43.768111863866324" lon="11.188699636840182"><ele>40.0</ele><time>2026-03-28T09:26:53.999Z</time></trkpt><trkpt lat="43.768063887987296" lon="11.188605291201826"><ele>40.0</ele><time>2026-03-28T09:26:54.999Z</time></trkpt><trkpt lat="43.7680251114839" lon="11.188534909247094"><ele>40.0</ele><time>2026-03-28T09:26:55.999Z</time></trkpt><trkpt lat="43.76797820536563" lon="11.188445087849422"><ele>40.0</ele><time>2026-03-28T09:26:57.999Z</time></trkpt><trkpt lat="43.76791528100834" lon="11.188336624999765"><ele>40.0</ele><time>2026-03-28T09:27:39Z</time></trkpt><trkpt lat="43.76787530235775" lon="11.188256109983218"><ele>40.0</ele><time>2026-03-28T09:27:40Z</time></trkpt><trkpt lat="43.76785383516422" lon="11.188142220222723"><ele>40.0</ele><time>2026-03-28T09:27:41Z</time></trkpt><trkpt lat="43.76781043873016" lon="11.188057132066037"><ele>40.0</ele><time>2026-03-28T09:27:42Z</time></trkpt><trkpt lat="43.76774856110375" lon="11.187966875740663"><ele>40.0</ele><time>2026-03-28T09:27:44Z</time></trkpt><trkpt lat="43.76758258713999" lon="11.188118580472263"><ele>40.0</ele><time>2026-03-28T09:27:45Z</time></trkpt><trkpt lat="43.767509001315084" lon="11.188207473093591"><ele>40.0</ele><time>2026-03-28T09:27:46Z</time></trkpt><trkpt lat="43.76743447211583" lon="11.18828905228915"><ele>40.0</ele><time>2026-03-28T09:27:47Z</time></trkpt><trkpt lat="43.76736659960549" lon="11.188345545531394"><ele>40.16666666666667</ele><time>2026-03-28T09:27:48Z</time></trkpt><trkpt lat="43.76730386520089" lon="11.188399452895604"><ele>40.333333333333336</ele><time>2026-03-28T09:27:49Z</time></trkpt><trkpt lat="43.76724979797346" lon="11.188444118910176"><ele>40.5</ele><time>2026-03-28T09:27:50Z</time></trkpt><trkpt lat="43.76717368053938" lon="11.188491622485461"><ele>40.666666666666664</ele><time>2026-03-28T09:27:52Z</time></trkpt><trkpt lat="43.76710286314074" lon="11.188559398626914"><ele>40.83333333333333</ele><time>2026-03-28T09:27:55Z</time></trkpt><trkpt lat="43.76703089156907" lon="11.188587133717723"><ele>41.0</ele><time>2026-03-28T09:27:57Z</time></trkpt><trkpt lat="43.76700575283864" lon="11.188466113371787"><ele>41.0</ele><time>2026-03-28T09:27:58Z</time></trkpt><trkpt lat="43.766959211495085" lon="11.188357131900755"><ele>41.0</ele><time>2026-03-28T09:27:59Z</time></trkpt><trkpt lat="43.76692601383291" lon="11.18823223409318"><ele>41.0</ele><time>2026-03-28T09:28:00Z</time></trkpt><trkpt lat="43.76689247799421" lon="11.188119801603586"><ele>41.0</ele><time>2026-03-28T09:28:01Z</time></trkpt><trkpt lat="43.76684846071079" lon="11.187996115993704"><ele>41.0</ele><time>2026-03-28T09:28:02Z</time></trkpt><trkpt lat="43.766799995623124" lon="11.187872185493868"><ele>41.0</ele><time>2026-03-28T09:28:03Z</time></trkpt><trkpt lat="43.76674221246368" lon="11.187750284940252"><ele>41.0</ele><time>2026-03-28T09:28:04Z</time></trkpt><trkpt lat="43.766685095347675" lon="11.187623616560547"><ele>41.0</ele><time>2026-03-28T09:28:05Z</time></trkpt><trkpt lat="43.766631700478136" lon="11.1875044375358"><ele>41.0</ele><time>2026-03-28T09:28:06Z</time></trkpt><trkpt lat="43.76658195171169" lon="11.187389344241296"><ele>41.0</ele><time>2026-03-28T09:28:07Z</time></trkpt><trkpt lat="43.76653700923667" lon="11.187285457730747"><ele>40.83333333333333</ele><time>2026-03-28T09:28:08Z</time></trkpt><trkpt lat="43.76649457738699" lon="11.187186673601948"><ele>40.666666666666664</ele><time>2026-03-28T09:28:09Z</time></trkpt><trkpt lat="43.766451524071016" lon="11.187091604773485"><ele>40.5</ele><time>2026-03-28T09:28:10Z</time></trkpt><trkpt lat="43.76640638568479" lon="11.186985320180586"><ele>40.333333333333336</ele><time>2026-03-28T09:28:11Z</time></trkpt><trkpt lat="43.76637843936742" lon="11.186882708740566"><ele>40.16666666666667</ele><time>2026-03-28T09:28:12Z</time></trkpt><trkpt lat="43.76634572236974" lon="11.186805893475885"><ele>40.0</ele><time>2026-03-28T09:28:13Z</time></trkpt><trkpt lat="43.766289592306315" lon="11.186672965657808"><ele>40.0</ele><time>2026-03-28T09:28:15Z</time></trkpt><trkpt lat="43.76624827948277" lon="11.186571082926436"><ele>40.0</ele><time>2026-03-28T09:28:17Z</time></trkpt><trkpt lat="43.766207491756" lon="11.186467939397875"><ele>40.0</ele><time>2026-03-28T09:28:20Z</time></trkpt><trkpt lat="43.766023007414574" lon="11.186525260916486"><ele>40.0</ele><time>2026-03-28T09:28:23Z</time></trkpt><trkpt lat="43.76593609538497" lon="11.186567251481852"><ele>40.4</ele><time>2026-03-28T09:28:25Z</time></trkpt><trkpt lat="43.76585906116522" lon="11.186682340966442"><ele>40.8</ele><time>2026-03-28T09:28:27Z</time></trkpt><trkpt lat="43.7657998755649" lon="11.186763198502348"><ele>41.2</ele><time>2026-03-28T09:28:28Z</time></trkpt><trkpt lat="43.76574328813962" lon="11.18684096713255"><ele>41.6</ele><time>2026-03-28T09:28:29Z</time></trkpt><trkpt lat="43.76567973851304" lon="11.186952173316243"><ele>42.0</ele><time>2026-03-28T09:28:31Z</time></trkpt><trkpt lat="43.7655889305961" lon="11.187048810289525"><ele>42.0</ele><time>2026-03-28T09:28:33Z</time></trkpt><trkpt lat="43.76553436961537" lon="11.187128877466465"><ele>42.0</ele><time>2026-03-28T09:28:34Z</time></trkpt><trkpt lat="43.76547360096698" lon="11.187248913594164"><ele>42.0</ele><time>2026-03-28T09:28:35Z</time></trkpt><trkpt lat="43.76537888449494" lon="11.187361174743561"><ele>42.0</ele><time>2026-03-28T09:28:36Z</time></trkpt><trkpt lat="43.76527720750355" lon="11.187504084982486"><ele>42.25</ele><time>2026-03-28T09:28:37Z</time></trkpt><trkpt lat="43.765188236019064" lon="11.18764984882783"><ele>42.5</ele><time>2026-03-28T09:28:38Z</time></trkpt><trkpt lat="43.76509887021332" lon="11.187774486713215"><ele>42.75</ele><time>2026-03-28T09:28:39Z</time></trkpt><trkpt lat="43.76501419192646" lon="11.187893796221575"><ele>43.0</ele><time>2026-03-28T09:28:40Z</time></trkpt><trkpt lat="43.764939004059414" lon="11.188004747398052"><ele>43.0</ele><time>2026-03-28T09:28:41Z</time></trkpt><trkpt lat="43.76486374981996" lon="11.188108505390094"><ele>43.0</ele><time>2026-03-28T09:28:42Z</time></trkpt><trkpt lat="43.7647859972123" lon="11.18820709525058"><ele>43.0</ele><time>2026-03-28T09:28:43Z</time></trkpt><trkpt lat="43.764700599198385" lon="11.188300374581837"><ele>43.0</ele><time>2026-03-28T09:28:44Z</time></trkpt><trkpt lat="43.764635446314095" lon="11.188417676548"><ele>43.0</ele><time>2026-03-28T09:28:45Z</time></trkpt><trkpt lat="43.764534235171574" lon="11.188522414576683"><ele>43.0</ele><time>2026-03-28T09:28:46Z</time></trkpt><trkpt lat="43.764428868818584" lon="11.188657886190214"><ele>43.0</ele><time>2026-03-28T09:28:47Z</time></trkpt><trkpt lat="43.764323982471225" lon="11.18881499798928"><ele>43.0</ele><time>2026-03-28T09:28:48Z</time></trkpt><trkpt lat="43.76420974642016" lon="11.188938279737737"><ele>43.0</ele><time>2026-03-28T09:28:49Z</time></trkpt><trkpt lat="43.76410021064358" lon="11.18908744494016"><ele>42.75</ele><time>2026-03-28T09:28:50Z</time></trkpt><trkpt lat="43.763988427075866" lon="11.189230969990072"><ele>42.5</ele><time>2026-03-28T09:28:51Z</time></trkpt><trkpt lat="43.76388081765266" lon="11.189362573145427"><ele>42.25</ele><time>2026-03-28T09:28:52Z</time></trkpt><trkpt lat="43.763781925789694" lon="11.189487205589934"><ele>42.0</ele><time>2026-03-28T09:28:53Z</time></trkpt><trkpt lat="43.76369018124216" lon="11.189606665656502"><ele>42.0</ele><time>2026-03-28T09:28:53.999Z</time></trkpt><trkpt lat="43.76359536514335" lon="11.189713610078233"><ele>42.0</ele><time>2026-03-28T09:28:54.999Z</time></trkpt><trkpt lat="43.763508617856715" lon="11.189815373263201"><ele>42.0</ele><time>2026-03-28T09:28:55.999Z</time></trkpt><trkpt lat="43.76342170560429" lon="11.189930773157629"><ele>42.0</ele><time>2026-03-28T09:28:56.999Z</time></trkpt><trkpt lat="43.76333500991468" lon="11.190026012733037"><ele>41.8</ele><time>2026-03-28T09:28:57.999Z</time></trkpt><trkpt lat="43.763242384925206" lon="11.19008242221312"><ele>41.6</ele><time>2026-03-28T09:28:58.999Z</time></trkpt><trkpt lat="43.76314328666554" lon="11.190084839374082"><ele>41.4</ele><time>2026-03-28T09:28:59.999Z</time></trkpt><trkpt lat="43.76306281871426" lon="11.190100902868057"><ele>41.199999999999996</ele><time>2026-03-28T09:29:00.999Z</time></trkpt><trkpt lat="43.762998432379355" lon="11.190107890054884"><ele>41.0</ele><time>2026-03-28T09:29:01.999Z</time></trkpt><trkpt lat="43.76289258436872" lon="11.190135918105439"><ele>41.0</ele><time>2026-03-28T09:29:03.999Z</time></trkpt><trkpt lat="43.76284751786159" lon="11.19005721758808"><ele>41.0</ele><time>2026-03-28T09:29:04.999Z</time></trkpt><trkpt lat="43.762747254724886" lon="11.19000497505931"><ele>41.0</ele><time>2026-03-28T09:29:06.999Z</time></trkpt><trkpt lat="43.76267741807042" lon="11.189987902880691"><ele>41.0</ele><time>2026-03-28T09:29:07.999Z</time></trkpt><trkpt lat="43.7626249837495" lon="11.189894860018"><ele>41.0</ele><time>2026-03-28T09:29:08.999Z</time></trkpt><trkpt lat="43.76256846617207" lon="11.189847710159965"><ele>41.0</ele><time>2026-03-28T09:29:09.999Z</time></trkpt><trkpt lat="43.76242945381391" lon="11.1898792278853"><ele>41.0</ele><time>2026-03-28T09:29:11.999Z</time></trkpt><trkpt lat="43.76236392395112" lon="11.189897449544775"><ele>41.0</ele><time>2026-03-28T09:29:12.999Z</time></trkpt><trkpt lat="43.762307924084176" lon="11.190016413860752"><ele>41.0</ele><time>2026-03-28T09:29:13.999Z</time></trkpt><trkpt lat="43.76227434039508" lon="11.190124962751906"><ele>41.0</ele><time>2026-03-28T09:29:14.999Z</time></trkpt><trkpt lat="43.76227075087937" lon="11.19024964268631"><ele>41.0</ele><time>2026-03-28T09:29:15.999Z</time></trkpt><trkpt lat="43.76229902560417" lon="11.190382781770937"><ele>41.0</ele><time>2026-03-28T09:29:16.999Z</time></trkpt><trkpt lat="43.76236289259591" lon="11.190507144485657"><ele>41.0</ele><time>2026-03-28T09:29:17.999Z</time></trkpt><trkpt lat="43.762447239268994" lon="11.190648260910947"><ele>41.0</ele><time>2026-03-28T09:29:18.999Z</time></trkpt><trkpt lat="43.76253090947147" lon="11.190833848042242"><ele>41.0</ele><time>2026-03-28T09:29:19.999Z</time></trkpt><trkpt lat="43.762557284672404" lon="11.191019654604455"><ele>41.0</ele><time>2026-03-28T09:29:20.999Z</time></trkpt><trkpt lat="43.76258056129555" lon="11.19121629471382"><ele>41.0</ele><time>2026-03-28T09:29:21.999Z</time></trkpt><trkpt lat="43.76261632638371" lon="11.191418220898473"><ele>41.0</ele><time>2026-03-28T09:29:22.999Z</time></trkpt><trkpt lat="43.76265674651022" lon="11.191639220947653"><ele>41.0</ele><time>2026-03-28T09:29:23.999Z</time></trkpt><trkpt lat="43.76269891557806" lon="11.191863355146"><ele>40.666666666666664</ele><time>2026-03-28T09:29:24.999Z</time></trkpt><trkpt lat="43.762741062574946" lon="11.192080683080022"><ele>40.333333333333336</ele><time>2026-03-28T09:29:25.999Z</time></trkpt><trkpt lat="43.76278190780235" lon="11.192310700982084"><ele>40.0</ele><time>2026-03-28T09:29:26.999Z</time></trkpt><trkpt lat="43.76282392679775" lon="11.19254645940993"><ele>40.0</ele><time>2026-03-28T09:29:27.999Z</time></trkpt><trkpt lat="43.762859023743964" lon="11.19279147918497"><ele>40.0</ele><time>2026-03-28T09:29:28.999Z</time></trkpt><trkpt lat="43.76289802689711" lon="11.193041149073457"><ele>40.0</ele><time>2026-03-28T09:29:29.999Z</time></trkpt><trkpt lat="43.76294345325435" lon="11.193293680507857"><ele>40.66666666666667</ele><time>2026-03-28T09:29:30.999Z</time></trkpt><trkpt lat="43.76298058489248" lon="11.193551145523235"><ele>41.333333333333336</ele><time>2026-03-28T09:29:31.999Z</time></trkpt><trkpt lat="43.76301162010968" lon="11.193815236560772"><ele>42.0</ele><time>2026-03-28T09:29:32.999Z</time></trkpt><trkpt lat="43.763051162903615" lon="11.19408380387215"><ele>42.0</ele><time>2026-03-28T09:29:33.999Z</time></trkpt><trkpt lat="43.76309258498335" lon="11.194338748112022"><ele>42.0</ele><time>2026-03-28T09:29:34.999Z</time></trkpt><trkpt lat="43.76315848353116" lon="11.19457210550504"><ele>42.0</ele><time>2026-03-28T09:29:35.999Z</time></trkpt><trkpt lat="43.76321530124307" lon="11.194793711935892"><ele>41.75</ele><time>2026-03-28T09:29:36.999Z</time></trkpt><trkpt lat="43.76325986123992" lon="11.195005632734983"><ele>41.5</ele><time>2026-03-28T09:29:37.999Z</time></trkpt><trkpt lat="43.763314004517426" lon="11.19519510237908"><ele>41.25</ele><time>2026-03-28T09:29:38.999Z</time></trkpt><trkpt lat="43.76335816660746" lon="11.195375053235377"><ele>41.0</ele><time>2026-03-28T09:29:40Z</time></trkpt><trkpt lat="43.76340302041314" lon="11.195545269062935"><ele>41.0</ele><time>2026-03-28T09:29:41Z</time></trkpt><trkpt lat="43.763443483154454" lon="11.195709809590797"><ele>41.0</ele><time>2026-03-28T09:29:42Z</time></trkpt><trkpt lat="43.76345612923726" lon="11.195873428176407"><ele>41.0</ele><time>2026-03-28T09:29:43Z</time></trkpt><trkpt lat="43.76344873275033" lon="11.196031005775335"><ele>41.0</ele><time>2026-03-28T09:29:44Z</time></trkpt><trkpt lat="43.76342388676817" lon="11.196192703419465"><ele>41.0</ele><time>2026-03-28T09:29:45Z</time></trkpt><trkpt lat="43.763383358655055" lon="11.196371592722429"><ele>41.0</ele><time>2026-03-28T09:29:46Z</time></trkpt><trkpt lat="43.76333179718226" lon="11.196570995211673"><ele>41.0</ele><time>2026-03-28T09:29:47Z</time></trkpt><trkpt lat="43.7632663855749" lon="11.19678151409907"><ele>41.0</ele><time>2026-03-28T09:29:48Z</time></trkpt><trkpt lat="43.76317079135394" lon="11.196996128456897"><ele>41.0</ele><time>2026-03-28T09:29:49Z</time></trkpt><trkpt lat="43.76305876616288" lon="11.197217001996966"><ele>41.0</ele><time>2026-03-28T09:29:50Z</time></trkpt><trkpt lat="43.76294105449004" lon="11.197435861055089"><ele>41.0</ele><time>2026-03-28T09:29:51Z</time></trkpt><trkpt lat="43.76282556904632" lon="11.197651411706593"><ele>41.0</ele><time>2026-03-28T09:29:52Z</time></trkpt><trkpt lat="43.76270314284012" lon="11.19785932905051"><ele>41.0</ele><time>2026-03-28T09:29:53Z</time></trkpt><trkpt lat="43.7625678614619" lon="11.198057934066187"><ele>41.0</ele><time>2026-03-28T09:29:54Z</time></trkpt><trkpt lat="43.76243167977572" lon="11.198247779544367"><ele>41.0</ele><time>2026-03-28T09:29:55Z</time></trkpt><trkpt lat="43.76229883897524" lon="11.19843582059665"><ele>41.0</ele><time>2026-03-28T09:29:56Z</time></trkpt><trkpt lat="43.76216959825469" lon="11.19862512957549"><ele>41.0</ele><time>2026-03-28T09:29:57Z</time></trkpt><trkpt lat="43.76203696790698" lon="11.198811210212405"><ele>41.0</ele><time>2026-03-28T09:29:58Z</time></trkpt><trkpt lat="43.76191035213795" lon="11.19898430254907"><ele>41.0</ele><time>2026-03-28T09:29:59Z</time></trkpt><trkpt lat="43.761794372899246" lon="11.199153451162134"><ele>41.33333333333333</ele><time>2026-03-28T09:30:00Z</time></trkpt><trkpt lat="43.76168783088205" lon="11.199320509183858"><ele>41.666666666666664</ele><time>2026-03-28T09:30:01Z</time></trkpt><trkpt lat="43.76158353764168" lon="11.19948403878724"><ele>42.0</ele><time>2026-03-28T09:30:02Z</time></trkpt><trkpt lat="43.761478965298515" lon="11.19963584596479"><ele>42.0</ele><time>2026-03-28T09:30:03Z</time></trkpt><trkpt lat="43.76137989834356" lon="11.19977519491743"><ele>42.0</ele><time>2026-03-28T09:30:04Z</time></trkpt><trkpt lat="43.761289554697285" lon="11.199913309614232"><ele>42.0</ele><time>2026-03-28T09:30:05Z</time></trkpt><trkpt lat="43.76121203888723" lon="11.200032395867941"><ele>42.0</ele><time>2026-03-28T09:30:06Z</time></trkpt><trkpt lat="43.76114190421677" lon="11.20013095182799"><ele>42.0</ele><time>2026-03-28T09:30:07Z</time></trkpt><trkpt lat="43.7610635908286" lon="11.200213354666225"><ele>42.0</ele><time>2026-03-28T09:30:08Z</time></trkpt><trkpt lat="43.7609716085743" lon="11.200267973632293"><ele>42.0</ele><time>2026-03-28T09:30:09Z</time></trkpt><trkpt lat="43.76088161429885" lon="11.200360480398324"><ele>42.0</ele><time>2026-03-28T09:30:10Z</time></trkpt><trkpt lat="43.76080820352341" lon="11.200516971519543"><ele>42.0</ele><time>2026-03-28T09:30:11Z</time></trkpt><trkpt lat="43.760719746947956" lon="11.20068168390642"><ele>41.666666666666664</ele><time>2026-03-28T09:30:12Z</time></trkpt><trkpt lat="43.76059777392858" lon="11.200828980405992"><ele>41.33333333333333</ele><time>2026-03-28T09:30:13Z</time></trkpt><trkpt lat="43.760464032057676" lon="11.200986706397003"><ele>41.0</ele><time>2026-03-28T09:30:14Z</time></trkpt><trkpt lat="43.760380701410355" lon="11.20117189593028"><ele>41.0</ele><time>2026-03-28T09:30:15Z</time></trkpt><trkpt lat="43.760303816028845" lon="11.20138142986617"><ele>41.0</ele><time>2026-03-28T09:30:16Z</time></trkpt><trkpt lat="43.76027846773002" lon="11.20162270609064"><ele>41.0</ele><time>2026-03-28T09:30:17Z</time></trkpt><trkpt lat="43.760286334371706" lon="11.201846022416412"><ele>41.75</ele><time>2026-03-28T09:30:18Z</time></trkpt><trkpt lat="43.76029962584225" lon="11.202047879419768"><ele>42.5</ele><time>2026-03-28T09:30:19Z</time></trkpt><trkpt lat="43.76030434514385" lon="11.202231456963133"><ele>43.25</ele><time>2026-03-28T09:30:20Z</time></trkpt><trkpt lat="43.76030972335297" lon="11.202392306215554"><ele>44.0</ele><time>2026-03-28T09:30:21Z</time></trkpt><trkpt lat="43.760306113448614" lon="11.202542271831401"><ele>44.0</ele><time>2026-03-28T09:30:22Z</time></trkpt><trkpt lat="43.76028086550717" lon="11.20267855864365"><ele>44.0</ele><time>2026-03-28T09:30:23Z</time></trkpt><trkpt lat="43.76027153978279" lon="11.202821335766588"><ele>44.0</ele><time>2026-03-28T09:30:24Z</time></trkpt><trkpt lat="43.76017768613444" lon="11.20292759168695"><ele>44.0</ele><time>2026-03-28T09:30:25Z</time></trkpt><trkpt lat="43.76014408944177" lon="11.20303302919765"><ele>44.0</ele><time>2026-03-28T09:30:26Z</time></trkpt><trkpt lat="43.76008132035192" lon="11.203115560705193"><ele>44.25</ele><time>2026-03-28T09:30:27Z</time></trkpt><trkpt lat="43.75992168387111" lon="11.203066515249834"><ele>44.5</ele><time>2026-03-28T09:30:28Z</time></trkpt><trkpt lat="43.75980729985884" lon="11.20306718245885"><ele>44.75</ele><time>2026-03-28T09:30:29Z</time></trkpt><trkpt lat="43.759697442227385" lon="11.203072200452004"><ele>45.0</ele><time>2026-03-28T09:30:30Z</time></trkpt><trkpt lat="43.75960543133488" lon="11.203081072501009"><ele>45.0</ele><time>2026-03-28T09:30:31Z</time></trkpt><trkpt lat="43.75953056109781" lon="11.203091600852133"><ele>45.0</ele><time>2026-03-28T09:30:32Z</time></trkpt><trkpt lat="43.7594571827307" lon="11.203099848360559"><ele>45.0</ele><time>2026-03-28T09:30:33Z</time></trkpt><trkpt lat="43.75934371088715" lon="11.203103801616319"><ele>45.0</ele><time>2026-03-28T09:30:35Z</time></trkpt><trkpt lat="43.75924910404845" lon="11.203102661344715"><ele>45.0</ele><time>2026-03-28T09:30:37Z</time></trkpt><trkpt lat="43.75915548365717" lon="11.20301563174971"><ele>45.4</ele><time>2026-03-28T09:30:39Z</time></trkpt><trkpt lat="43.759110082369155" lon="11.202917670424233"><ele>45.8</ele><time>2026-03-28T09:30:40Z</time></trkpt><trkpt lat="43.759060630484335" lon="11.20278488781568"><ele>46.2</ele><time>2026-03-28T09:30:41Z</time></trkpt><trkpt lat="43.75901339622103" lon="11.202651130702508"><ele>46.6</ele><time>2026-03-28T09:30:42Z</time></trkpt><trkpt lat="43.75896649205074" lon="11.20251180125709"><ele>47.0</ele><time>2026-03-28T09:30:43Z</time></trkpt><trkpt lat="43.7589250582595" lon="11.202385650014229"><ele>47.166666666666664</ele><time>2026-03-28T09:30:44Z</time></trkpt><trkpt lat="43.75888808318349" lon="11.202271868415888"><ele>47.33333333333333</ele><time>2026-03-28T09:30:45Z</time></trkpt><trkpt lat="43.758859509299604" lon="11.202153386952387"><ele>47.5</ele><time>2026-03-28T09:30:46Z</time></trkpt><trkpt lat="43.758827797356865" lon="11.202043356901456"><ele>47.666666666666664</ele><time>2026-03-28T09:30:47Z</time></trkpt><trkpt lat="43.758795757605526" lon="11.201939122533002"><ele>47.833333333333336</ele><time>2026-03-28T09:30:48Z</time></trkpt><trkpt lat="43.75876028080851" lon="11.201828223524283"><ele>48.0</ele><time>2026-03-28T09:30:49Z</time></trkpt><trkpt lat="43.75872250029306" lon="11.201702886984759"><ele>48.0</ele><time>2026-03-28T09:30:50Z</time></trkpt><trkpt lat="43.75867887101122" lon="11.201566174919709"><ele>48.0</ele><time>2026-03-28T09:30:51Z</time></trkpt><trkpt lat="43.758629299244426" lon="11.201442903290856"><ele>48.0</ele><time>2026-03-28T09:30:52Z</time></trkpt><trkpt lat="43.758577161383" lon="11.2013317554235"><ele>48.0</ele><time>2026-03-28T09:30:53Z</time></trkpt><trkpt lat="43.75852460670462" lon="11.201239404728128"><ele>48.0</ele><time>2026-03-28T09:30:54Z</time></trkpt><trkpt lat="43.758467674981105" lon="11.20116435378647"><ele>48.0</ele><time>2026-03-28T09:30:55Z</time></trkpt><trkpt lat="43.7584057450618" lon="11.20109925973793"><ele>48.0</ele><time>2026-03-28T09:30:56Z</time></trkpt><trkpt lat="43.758324698006895" lon="11.201004599550354"><ele>48.0</ele><time>2026-03-28T09:30:57Z</time></trkpt><trkpt lat="43.758237028997414" lon="11.20090044067306"><ele>48.0</ele><time>2026-03-28T09:30:58Z</time></trkpt><trkpt lat="43.75814308395271" lon="11.200792302718211"><ele>48.0</ele><time>2026-03-28T09:30:59Z</time></trkpt><trkpt lat="43.75804643178134" lon="11.200679397449418"><ele>47.599999999999994</ele><time>2026-03-28T09:30:59.999Z</time></trkpt><trkpt lat="43.75795500477011" lon="11.200574046217264"><ele>47.199999999999996</ele><time>2026-03-28T09:31:00.999Z</time></trkpt><trkpt lat="43.757872953510415" lon="11.200487350360167"><ele>46.8</ele><time>2026-03-28T09:31:01.999Z</time></trkpt><trkpt lat="43.75779370070245" lon="11.200408825911596"><ele>46.4</ele><time>2026-03-28T09:31:02.999Z</time></trkpt><trkpt lat="43.75773141659767" lon="11.200321976726038"><ele>46.0</ele><time>2026-03-28T09:31:03.999Z</time></trkpt><trkpt lat="43.75769908474267" lon="11.200205578016215"><ele>46.0</ele><time>2026-03-28T09:31:04.999Z</time></trkpt><trkpt lat="43.757642588222986" lon="11.200122529527766"><ele>46.0</ele><time>2026-03-28T09:31:05.999Z</time></trkpt><trkpt lat="43.75761100490857" lon="11.200037024769612"><ele>46.0</ele><time>2026-03-28T09:31:06.999Z</time></trkpt><trkpt lat="43.75757766344132" lon="11.199955632236058"><ele>46.0</ele><time>2026-03-28T09:31:10.999Z</time></trkpt><trkpt lat="43.75752397658697" lon="11.19986563846831"><ele>46.0</ele><time>2026-03-28T09:31:24.999Z</time></trkpt><trkpt lat="43.7574782681826" lon="11.199770779133699"><ele>46.0</ele><time>2026-03-28T09:31:25.999Z</time></trkpt><trkpt lat="43.75744396848654" lon="11.199678448156272"><ele>46.16666666666667</ele><time>2026-03-28T09:31:26.999Z</time></trkpt><trkpt lat="43.75740903626444" lon="11.1996011874171"><ele>46.333333333333336</ele><time>2026-03-28T09:31:27.999Z</time></trkpt><trkpt lat="43.75734997995542" lon="11.19947444883011"><ele>46.5</ele><time>2026-03-28T09:31:29.999Z</time></trkpt><trkpt lat="43.75733004193987" lon="11.199347064992871"><ele>46.666666666666664</ele><time>2026-03-28T09:31:31.999Z</time></trkpt><trkpt lat="43.757269105087495" lon="11.19923704535764"><ele>46.83333333333333</ele><time>2026-03-28T09:31:33.999Z</time></trkpt><trkpt lat="43.75723039058671" lon="11.199152352701903"><ele>47.0</ele><time>2026-03-28T09:31:34.999Z</time></trkpt><trkpt lat="43.757191397928246" lon="11.199069531437399"><ele>47.166666666666664</ele><time>2026-03-28T09:31:35.999Z</time></trkpt><trkpt lat="43.75715536600301" lon="11.198991973767923"><ele>47.33333333333333</ele><time>2026-03-28T09:31:36.999Z</time></trkpt><trkpt lat="43.75709585732109" lon="11.198847640868578"><ele>47.5</ele><time>2026-03-28T09:31:38.999Z</time></trkpt><trkpt lat="43.757043403611966" lon="11.198738543638179"><ele>47.666666666666664</ele><time>2026-03-28T09:31:40.999Z</time></trkpt><trkpt lat="43.75701331725383" lon="11.198640090291095"><ele>47.833333333333336</ele><time>2026-03-28T09:31:49Z</time></trkpt><trkpt lat="43.756955996225486" lon="11.198562542440714"><ele>48.0</ele><time>2026-03-28T09:31:51Z</time></trkpt><trkpt lat="43.7567684007629" lon="11.198726931680612"><ele>48.0</ele><time>2026-03-28T09:31:52Z</time></trkpt><trkpt lat="43.75669441922755" lon="11.19881597640131"><ele>48.0</ele><time>2026-03-28T09:31:53Z</time></trkpt><trkpt lat="43.75660681945642" lon="11.198925554578906"><ele>48.0</ele><time>2026-03-28T09:31:54Z</time></trkpt><trkpt lat="43.75652470981206" lon="11.199027471695688"><ele>48.0</ele><time>2026-03-28T09:31:55Z</time></trkpt><trkpt lat="43.756444897666114" lon="11.199126929187996"><ele>48.0</ele><time>2026-03-28T09:31:56Z</time></trkpt><trkpt lat="43.756364670548656" lon="11.199224815107675"><ele>48.0</ele><time>2026-03-28T09:31:57Z</time></trkpt><trkpt lat="43.75627911471747" lon="11.19933426270735"><ele>48.0</ele><time>2026-03-28T09:31:58Z</time></trkpt><trkpt lat="43.75619519723039" lon="11.199456174374951"><ele>48.0</ele><time>2026-03-28T09:31:59Z</time></trkpt><trkpt lat="43.75610815121646" lon="11.19958096497266"><ele>48.0</ele><time>2026-03-28T09:32:00Z</time></trkpt><trkpt lat="43.756026466013864" lon="11.199691572963253"><ele>48.0</ele><time>2026-03-28T09:32:01Z</time></trkpt><trkpt lat="43.75594647354756" lon="11.199794957946207"><ele>48.0</ele><time>2026-03-28T09:32:02Z</time></trkpt><trkpt lat="43.755859934518014" lon="11.199905388577182"><ele>48.0</ele><time>2026-03-28T09:32:03Z</time></trkpt><trkpt lat="43.75576142425689" lon="11.200008240559335"><ele>48.0</ele><time>2026-03-28T09:32:04Z</time></trkpt><trkpt lat="43.75564607353344" lon="11.20008602112391"><ele>48.0</ele><time>2026-03-28T09:32:05Z</time></trkpt><trkpt lat="43.75552347499991" lon="11.20013821562623"><ele>48.0</ele><time>2026-03-28T09:32:06Z</time></trkpt><trkpt lat="43.75540775079075" lon="11.200195938767362"><ele>48.0</ele><time>2026-03-28T09:32:07Z</time></trkpt><trkpt lat="43.755272842047006" lon="11.20027257079066"><ele>48.0</ele><time>2026-03-28T09:32:08Z</time></trkpt><trkpt lat="43.75514546031975" lon="11.200336670482594"><ele>48.0</ele><time>2026-03-28T09:32:09Z</time></trkpt><trkpt lat="43.75503471995384" lon="11.200397400929404"><ele>48.0</ele><time>2026-03-28T09:32:10Z</time></trkpt><trkpt lat="43.75492872879434" lon="11.200455987913125"><ele>48.0</ele><time>2026-03-28T09:32:11Z</time></trkpt><trkpt lat="43.75482824313943" lon="11.200512162460186"><ele>48.0</ele><time>2026-03-28T09:32:12Z</time></trkpt><trkpt lat="43.75474334936397" lon="11.20056880167197"><ele>48.0</ele><time>2026-03-28T09:32:13Z</time></trkpt><trkpt lat="43.75465892063632" lon="11.20062374967636"><ele>48.25</ele><time>2026-03-28T09:32:14Z</time></trkpt><trkpt lat="43.754560162417434" lon="11.200679418718877"><ele>48.5</ele><time>2026-03-28T09:32:15Z</time></trkpt><trkpt lat="43.75443478265678" lon="11.200724917804937"><ele>48.75</ele><time>2026-03-28T09:32:16Z</time></trkpt><trkpt lat="43.75429041656705" lon="11.200736489492513"><ele>49.0</ele><time>2026-03-28T09:32:17Z</time></trkpt><trkpt lat="43.754156446694054" lon="11.20072161760229"><ele>50.25</ele><time>2026-03-28T09:32:18Z</time></trkpt><trkpt lat="43.75403900907267" lon="11.200714618320989"><ele>51.5</ele><time>2026-03-28T09:32:19Z</time></trkpt><trkpt lat="43.75391285302417" lon="11.200717259192269"><ele>52.75</ele><time>2026-03-28T09:32:20Z</time></trkpt><trkpt lat="43.75378820437231" lon="11.200747441524106"><ele>54.0</ele><time>2026-03-28T09:32:21Z</time></trkpt><trkpt lat="43.75366392425065" lon="11.20080556423377"><ele>54.0</ele><time>2026-03-28T09:32:22Z</time></trkpt><trkpt lat="43.75355616781355" lon="11.200881717847905"><ele>54.0</ele><time>2026-03-28T09:32:23Z</time></trkpt><trkpt lat="43.75344902040387" lon="11.200972240785967"><ele>54.0</ele><time>2026-03-28T09:32:24Z</time></trkpt><trkpt lat="43.75336106838439" lon="11.201054827406917"><ele>54.0</ele><time>2026-03-28T09:32:25Z</time></trkpt><trkpt lat="43.75328546278802" lon="11.20113996337645"><ele>54.2</ele><time>2026-03-28T09:32:26Z</time></trkpt><trkpt lat="43.75321884541706" lon="11.201235028765185"><ele>54.400000000000006</ele><time>2026-03-28T09:32:27Z</time></trkpt><trkpt lat="43.753170051315394" lon="11.20134539299204"><ele>54.6</ele><time>2026-03-28T09:32:28Z</time></trkpt><trkpt lat="43.753132565480236" lon="11.201476704541626"><ele>54.8</ele><time>2026-03-28T09:32:29Z</time></trkpt><trkpt lat="43.753097401293786" lon="11.201629957064021"><ele>55.0</ele><time>2026-03-28T09:32:30Z</time></trkpt><trkpt lat="43.75303347453556" lon="11.201815439620372"><ele>55.0</ele><time>2026-03-28T09:32:31Z</time></trkpt><trkpt lat="43.75297853201386" lon="11.20203367149138"><ele>55.0</ele><time>2026-03-28T09:32:32Z</time></trkpt><trkpt lat="43.75293965705216" lon="11.202246551663"><ele>55.0</ele><time>2026-03-28T09:32:33Z</time></trkpt><trkpt lat="43.75289842769166" lon="11.202407090526629"><ele>55.0</ele><time>2026-03-28T09:32:34Z</time></trkpt><trkpt lat="43.75285901333413" lon="11.20254409409338"><ele>55.0</ele><time>2026-03-28T09:32:35Z</time></trkpt><trkpt lat="43.75278724010306" lon="11.202635970605865"><ele>55.0</ele><time>2026-03-28T09:32:36Z</time></trkpt><trkpt lat="43.75271346742811" lon="11.202709068295892"><ele>55.0</ele><time>2026-03-28T09:32:37Z</time></trkpt><trkpt lat="43.75262755501907" lon="11.202764638556937"><ele>55.0</ele><time>2026-03-28T09:32:38Z</time></trkpt><trkpt lat="43.75254207271616" lon="11.202820605101584"><ele>55.0</ele><time>2026-03-28T09:32:39Z</time></trkpt><trkpt lat="43.75246352673906" lon="11.202897274262483"><ele>54.8</ele><time>2026-03-28T09:32:40Z</time></trkpt><trkpt lat="43.75238589250574" lon="11.20294685172273"><ele>54.6</ele><time>2026-03-28T09:32:41Z</time></trkpt><trkpt lat="43.752309719873466" lon="11.203006076733459"><ele>54.400000000000006</ele><time>2026-03-28T09:32:42Z</time></trkpt><trkpt lat="43.752240182155916" lon="11.203104643778078"><ele>54.2</ele><time>2026-03-28T09:32:43Z</time></trkpt><trkpt lat="43.7521846832547" lon="11.20324219605541"><ele>54.0</ele><time>2026-03-28T09:32:44Z</time></trkpt><trkpt lat="43.75213853767698" lon="11.203385998070582"><ele>54.0</ele><time>2026-03-28T09:32:45Z</time></trkpt><trkpt lat="43.75209654826003" lon="11.203522798986636"><ele>54.00000000000001</ele><time>2026-03-28T09:32:46Z</time></trkpt><trkpt lat="43.75205969942113" lon="11.203655450439285"><ele>54.00000000000001</ele><time>2026-03-28T09:32:47Z</time></trkpt><trkpt lat="43.75202381160183" lon="11.203795934143917"><ele>54.0</ele><time>2026-03-28T09:32:48Z</time></trkpt><trkpt lat="43.75199215679476" lon="11.203932972723186"><ele>54.0</ele><time>2026-03-28T09:32:49Z</time></trkpt><trkpt lat="43.75196536552498" lon="11.204064326733041"><ele>53.0</ele><time>2026-03-28T09:32:50Z</time></trkpt><trkpt lat="43.75195119600325" lon="11.20419920178478"><ele>52.00000000000001</ele><time>2026-03-28T09:32:51Z</time></trkpt><trkpt lat="43.751942936558265" lon="11.204343846022978"><ele>51.0</ele><time>2026-03-28T09:32:52Z</time></trkpt><trkpt lat="43.75192386441161" lon="11.204470662533996"><ele>50.0</ele><time>2026-03-28T09:32:53Z</time></trkpt><trkpt lat="43.75190251422894" lon="11.204602439334533"><ele>49.0</ele><time>2026-03-28T09:32:54Z</time></trkpt><trkpt lat="43.751869849018064" lon="11.204751882501538"><ele>50.0</ele><time>2026-03-28T09:32:55Z</time></trkpt><trkpt lat="43.75182658573899" lon="11.20491567214406"><ele>51.0</ele><time>2026-03-28T09:32:56Z</time></trkpt><trkpt lat="43.751775998693894" lon="11.205072271881242"><ele>52.0</ele><time>2026-03-28T09:32:57Z</time></trkpt><trkpt lat="43.751707240405196" lon="11.205218881642322"><ele>53.0</ele><time>2026-03-28T09:32:58Z</time></trkpt><trkpt lat="43.75163162816762" lon="11.205364298805037"><ele>53.0</ele><time>2026-03-28T09:32:59Z</time></trkpt><trkpt lat="43.75157247154772" lon="11.20549578498654"><ele>53.0</ele><time>2026-03-28T09:33:00Z</time></trkpt><trkpt lat="43.75151674954979" lon="11.20562129349343"><ele>53.0</ele><time>2026-03-28T09:33:01Z</time></trkpt><trkpt lat="43.75145583860071" lon="11.205757082627443"><ele>53.0</ele><time>2026-03-28T09:33:02Z</time></trkpt><trkpt lat="43.751392104583104" lon="11.20589987583054"><ele>54.2</ele><time>2026-03-28T09:33:03Z</time></trkpt><trkpt lat="43.75132216288267" lon="11.206029972337678"><ele>55.4</ele><time>2026-03-28T09:33:04Z</time></trkpt><trkpt lat="43.75124556264124" lon="11.206142158671087"><ele>56.60000000000001</ele><time>2026-03-28T09:33:05Z</time></trkpt><trkpt lat="43.75118481925449" lon="11.206255451255098"><ele>57.800000000000004</ele><time>2026-03-28T09:33:06Z</time></trkpt><trkpt lat="43.751135515654745" lon="11.206373503202904"><ele>59.0</ele><time>2026-03-28T09:33:07Z</time></trkpt><trkpt lat="43.75106909333775" lon="11.206480184834755"><ele>57.75</ele><time>2026-03-28T09:33:08Z</time></trkpt><trkpt lat="43.75097624526082" lon="11.206573955183977"><ele>56.5</ele><time>2026-03-28T09:33:09Z</time></trkpt><trkpt lat="43.75088563962924" lon="11.20665577926676"><ele>55.25</ele><time>2026-03-28T09:33:10Z</time></trkpt><trkpt lat="43.750784057235784" lon="11.206714238150175"><ele>54.0</ele><time>2026-03-28T09:33:11Z</time></trkpt><trkpt lat="43.75067159675254" lon="11.206787917640282"><ele>54.0</ele><time>2026-03-28T09:33:12Z</time></trkpt><trkpt lat="43.75054970039955" lon="11.206868057110581"><ele>54.0</ele><time>2026-03-28T09:33:12.999Z</time></trkpt><trkpt lat="43.750430881000476" lon="11.206970393774604"><ele>54.0</ele><time>2026-03-28T09:33:13.999Z</time></trkpt><trkpt lat="43.750297491559174" lon="11.207060295234577"><ele>54.0</ele><time>2026-03-28T09:33:14.999Z</time></trkpt><trkpt lat="43.75015957834421" lon="11.20715406715331"><ele>52.75</ele><time>2026-03-28T09:33:15.999Z</time></trkpt><trkpt lat="43.75002743862967" lon="11.207258433076605"><ele>51.5</ele><time>2026-03-28T09:33:16.999Z</time></trkpt><trkpt lat="43.74989870761423" lon="11.207346246154017"><ele>50.25</ele><time>2026-03-28T09:33:17.999Z</time></trkpt><trkpt lat="43.74978321945877" lon="11.207430635463755"><ele>49.0</ele><time>2026-03-28T09:33:18.999Z</time></trkpt><trkpt lat="43.74967230964334" lon="11.207505672042366"><ele>49.25</ele><time>2026-03-28T09:33:19.999Z</time></trkpt><trkpt lat="43.74956742318233" lon="11.207576258682534"><ele>49.5</ele><time>2026-03-28T09:33:20.999Z</time></trkpt><trkpt lat="43.749454970662605" lon="11.207660180874992"><ele>49.75</ele><time>2026-03-28T09:33:21.999Z</time></trkpt><trkpt lat="43.749334991023915" lon="11.207746006143253"><ele>50.0</ele><time>2026-03-28T09:33:22.999Z</time></trkpt><trkpt lat="43.74921222832457" lon="11.207827014961142"><ele>50.0</ele><time>2026-03-28T09:33:23.999Z</time></trkpt><trkpt lat="43.74909801057105" lon="11.207888721163357"><ele>50.0</ele><time>2026-03-28T09:33:24.999Z</time></trkpt><trkpt lat="43.74898421622788" lon="11.20790980707418"><ele>50.0</ele><time>2026-03-28T09:33:25.999Z</time></trkpt><trkpt lat="43.748864422808275" lon="11.207937885817662"><ele>50.0</ele><time>2026-03-28T09:33:26.999Z</time></trkpt><trkpt lat="43.74871678080892" lon="11.207970972420446"><ele>50.0</ele><time>2026-03-28T09:33:27.999Z</time></trkpt><trkpt lat="43.74854052120336" lon="11.208010472236818"><ele>50.0</ele><time>2026-03-28T09:33:28.999Z</time></trkpt><trkpt lat="43.74834584648556" lon="11.208056313861851"><ele>50.0</ele><time>2026-03-28T09:33:29.999Z</time></trkpt><trkpt lat="43.74813702446003" lon="11.20811991945053"><ele>51.0</ele><time>2026-03-28T09:33:30.999Z</time></trkpt><trkpt lat="43.747931798084004" lon="11.20817009738038"><ele>52.0</ele><time>2026-03-28T09:33:31.999Z</time></trkpt><trkpt lat="43.74772243638611" lon="11.208209964371717"><ele>53.0</ele><time>2026-03-28T09:33:32.999Z</time></trkpt><trkpt lat="43.74750445980511" lon="11.20828957984098"><ele>53.0</ele><time>2026-03-28T09:33:33.999Z</time></trkpt><trkpt lat="43.74730061832288" lon="11.208342328574794"><ele>53.0</ele><time>2026-03-28T09:33:34.999Z</time></trkpt><trkpt lat="43.74710681030589" lon="11.208394244936144"><ele>53.0</ele><time>2026-03-28T09:33:35.999Z</time></trkpt><trkpt lat="43.7469139045091" lon="11.208440993520243"><ele>52.0</ele><time>2026-03-28T09:33:36.999Z</time></trkpt><trkpt lat="43.74671986233211" lon="11.208487140941637"><ele>51.0</ele><time>2026-03-28T09:33:37.999Z</time></trkpt><trkpt lat="43.746534495834005" lon="11.208529835850047"><ele>50.0</ele><time>2026-03-28T09:33:38.999Z</time></trkpt><trkpt lat="43.746362084994644" lon="11.208575003630427"><ele>50.0</ele><time>2026-03-28T09:33:39.999Z</time></trkpt><trkpt lat="43.746188645485" lon="11.208629896601915"><ele>50.0</ele><time>2026-03-28T09:33:40.999Z</time></trkpt><trkpt lat="43.74600220866303" lon="11.208715336413597"><ele>50.0</ele><time>2026-03-28T09:33:41.999Z</time></trkpt><trkpt lat="43.74581247587808" lon="11.208831641124577"><ele>50.333333333333336</ele><time>2026-03-28T09:33:42.999Z</time></trkpt><trkpt lat="43.74562817538763" lon="11.208960202991827"><ele>50.66666666666667</ele><time>2026-03-28T09:33:43.999Z</time></trkpt><trkpt lat="43.74546941595449" lon="11.209083924336896"><ele>51.0</ele><time>2026-03-28T09:33:44.999Z</time></trkpt><trkpt lat="43.745340275619355" lon="11.209222425225866"><ele>51.0</ele><time>2026-03-28T09:33:45.999Z</time></trkpt><trkpt lat="43.74522188621769" lon="11.209405960723453"><ele>51.0</ele><time>2026-03-28T09:33:46.999Z</time></trkpt><trkpt lat="43.74510243681934" lon="11.209635629788409"><ele>51.0</ele><time>2026-03-28T09:33:47.999Z</time></trkpt><trkpt lat="43.74499546563839" lon="11.20990117557323"><ele>51.5</ele><time>2026-03-28T09:33:48.999Z</time></trkpt><trkpt lat="43.744894011936665" lon="11.210194924223645"><ele>52.0</ele><time>2026-03-28T09:33:49.999Z</time></trkpt><trkpt lat="43.74479033343472" lon="11.210487343956197"><ele>53.5</ele><time>2026-03-28T09:33:50.999Z</time></trkpt><trkpt lat="43.74468085826819" lon="11.2107859748127"><ele>55.0</ele><time>2026-03-28T09:33:52Z</time></trkpt><trkpt lat="43.74457358710348" lon="11.211064071380806"><ele>55.0</ele><time>2026-03-28T09:33:53Z</time></trkpt><trkpt lat="43.7444682421706" lon="11.211344750460308"><ele>55.0</ele><time>2026-03-28T09:33:54Z</time></trkpt><trkpt lat="43.744373835424014" lon="11.211604342172118"><ele>55.0</ele><time>2026-03-28T09:33:55Z</time></trkpt><trkpt lat="43.7442889146284" lon="11.21185154617254"><ele>54.666666666666664</ele><time>2026-03-28T09:33:56Z</time></trkpt><trkpt lat="43.744214992260865" lon="11.21208321795448"><ele>54.33333333333333</ele><time>2026-03-28T09:33:57Z</time></trkpt><trkpt lat="43.74414652679087" lon="11.212297872514132"><ele>54.0</ele><time>2026-03-28T09:33:58Z</time></trkpt><trkpt lat="43.74408282359644" lon="11.212495606238482"><ele>56.25</ele><time>2026-03-28T09:33:59Z</time></trkpt><trkpt lat="43.74401550997968" lon="11.212679667555468"><ele>58.5</ele><time>2026-03-28T09:34:00Z</time></trkpt><trkpt lat="43.74394524796858" lon="11.212856046220086"><ele>60.75</ele><time>2026-03-28T09:34:01Z</time></trkpt><trkpt lat="43.74386714465036" lon="11.213026767249367"><ele>63.0</ele><time>2026-03-28T09:34:02Z</time></trkpt><trkpt lat="43.74376253744864" lon="11.21319090340393"><ele>64.25</ele><time>2026-03-28T09:34:03Z</time></trkpt><trkpt lat="43.74367908724705" lon="11.21337417003493"><ele>65.5</ele><time>2026-03-28T09:34:04Z</time></trkpt><trkpt lat="43.74359181420553" lon="11.213528629672583"><ele>66.75</ele><time>2026-03-28T09:34:05Z</time></trkpt><trkpt lat="43.74350947628343" lon="11.213679227705923"><ele>68.0</ele><time>2026-03-28T09:34:06Z</time></trkpt><trkpt lat="43.74340573111833" lon="11.213804468856292"><ele>65.5</ele><time>2026-03-28T09:34:07Z</time></trkpt><trkpt lat="43.74332026455431" lon="11.213954436330312"><ele>63.0</ele><time>2026-03-28T09:34:08Z</time></trkpt><trkpt lat="43.743220986698525" lon="11.214069352612482"><ele>60.5</ele><time>2026-03-28T09:34:09Z</time></trkpt><trkpt lat="43.74312567419534" lon="11.214158125003504"><ele>58.0</ele><time>2026-03-28T09:34:10Z</time></trkpt><trkpt lat="43.74304456984704" lon="11.21423162462439"><ele>58.0</ele><time>2026-03-28T09:34:11Z</time></trkpt><trkpt lat="43.74299337061584" lon="11.21433873421504"><ele>58.0</ele><time>2026-03-28T09:34:12Z</time></trkpt><trkpt lat="43.742964267835816" lon="11.214481242413934"><ele>58.0</ele><time>2026-03-28T09:34:13Z</time></trkpt><trkpt lat="43.74301599674115" lon="11.21464743580051"><ele>58.0</ele><time>2026-03-28T09:34:14Z</time></trkpt><trkpt lat="43.7430608206685" lon="11.214817769786784"><ele>58.75</ele><time>2026-03-28T09:34:15Z</time></trkpt><trkpt lat="43.743104544532166" lon="11.214998641035503"><ele>59.5</ele><time>2026-03-28T09:34:16Z</time></trkpt><trkpt lat="43.743141140219606" lon="11.215156190647356"><ele>60.25</ele><time>2026-03-28T09:34:17Z</time></trkpt><trkpt lat="43.743169689314925" lon="11.215302261024897"><ele>61.0</ele><time>2026-03-28T09:34:18Z</time></trkpt><trkpt lat="43.743186484391614" lon="11.215459139446766"><ele>61.0</ele><time>2026-03-28T09:34:19Z</time></trkpt><trkpt lat="43.743178103957085" lon="11.215618614865301"><ele>60.99999999999999</ele><time>2026-03-28T09:34:20Z</time></trkpt><trkpt lat="43.74317674948751" lon="11.215756731103548"><ele>60.99999999999999</ele><time>2026-03-28T09:34:21Z</time></trkpt><trkpt lat="43.74316783992745" lon="11.215898061507627"><ele>61.0</ele><time>2026-03-28T09:34:22Z</time></trkpt><trkpt lat="43.74316959555832" lon="11.216039551560645"><ele>61.0</ele><time>2026-03-28T09:34:23Z</time></trkpt><trkpt lat="43.74316245370248" lon="11.216167518273307"><ele>62.199999999999996</ele><time>2026-03-28T09:34:24Z</time></trkpt><trkpt lat="43.743147093135605" lon="11.216283270157037"><ele>63.39999999999999</ele><time>2026-03-28T09:34:25Z</time></trkpt><trkpt lat="43.74313593267527" lon="11.216415864685992"><ele>64.6</ele><time>2026-03-28T09:34:26Z</time></trkpt><trkpt lat="43.74312059591452" lon="11.21654490689234"><ele>65.8</ele><time>2026-03-28T09:34:27Z</time></trkpt><trkpt lat="43.743101055185356" lon="11.216672785690331"><ele>67.0</ele><time>2026-03-28T09:34:28Z</time></trkpt><trkpt lat="43.74308594266888" lon="11.216796554160679"><ele>68.2</ele><time>2026-03-28T09:34:29Z</time></trkpt><trkpt lat="43.743068910649946" lon="11.216928619504081"><ele>69.4</ele><time>2026-03-28T09:34:30Z</time></trkpt><trkpt lat="43.74305307024345" lon="11.21706706294757"><ele>70.6</ele><time>2026-03-28T09:34:31Z</time></trkpt><trkpt lat="43.743039489475485" lon="11.217218572581373"><ele>71.8</ele><time>2026-03-28T09:34:32Z</time></trkpt><trkpt lat="43.74303042333976" lon="11.217376448596523"><ele>73.0</ele><time>2026-03-28T09:34:33Z</time></trkpt><trkpt lat="43.74302001738447" lon="11.217530911697274"><ele>73.33333333333333</ele><time>2026-03-28T09:34:34Z</time></trkpt><trkpt lat="43.743024319560284" lon="11.217656149024123"><ele>73.66666666666666</ele><time>2026-03-28T09:34:35Z</time></trkpt><trkpt lat="43.74302974432111" lon="11.217765802607206"><ele>74.0</ele><time>2026-03-28T09:34:36Z</time></trkpt><trkpt lat="43.74303610440038" lon="11.217863457432044"><ele>74.33333333333333</ele><time>2026-03-28T09:34:37Z</time></trkpt><trkpt lat="43.743042002126266" lon="11.21797412765277"><ele>74.66666666666667</ele><time>2026-03-28T09:34:38Z</time></trkpt><trkpt lat="43.7430494834138" lon="11.218084255987634"><ele>75.0</ele><time>2026-03-28T09:34:39Z</time></trkpt><trkpt lat="43.74305924183399" lon="11.218179364358228"><ele>74.33333333333333</ele><time>2026-03-28T09:34:40Z</time></trkpt><trkpt lat="43.743074766161534" lon="11.218321487808966"><ele>73.66666666666667</ele><time>2026-03-28T09:34:42Z</time></trkpt><trkpt lat="43.74308806397858" lon="11.218415774408124"><ele>73.0</ele><time>2026-03-28T09:34:43Z</time></trkpt><trkpt lat="43.743098239098856" lon="11.218532279424444"><ele>72.33333333333334</ele><time>2026-03-28T09:34:44Z</time></trkpt><trkpt lat="43.743091249319484" lon="11.218649601787174"><ele>71.66666666666667</ele><time>2026-03-28T09:34:45Z</time></trkpt><trkpt lat="43.74308089528149" lon="11.218765526540041"><ele>71.0</ele><time>2026-03-28T09:34:46Z</time></trkpt><trkpt lat="43.743079428593745" lon="11.218868638854955"><ele>71.0</ele><time>2026-03-28T09:34:47Z</time></trkpt><trkpt lat="43.74307114227847" lon="11.218965478496537"><ele>71.0</ele><time>2026-03-28T09:34:48Z</time></trkpt><trkpt lat="43.74305323828467" lon="11.219051804801953"><ele>71.0</ele><time>2026-03-28T09:34:49Z</time></trkpt><trkpt lat="43.743002208261295" lon="11.219145684228081"><ele>71.0</ele><time>2026-03-28T09:34:51Z</time></trkpt><trkpt lat="43.74294168752083" lon="11.219225090119927"><ele>71.0</ele><time>2026-03-28T09:35:00Z</time></trkpt><trkpt lat="43.742857968423536" lon="11.219291314943977"><ele>71.0</ele><time>2026-03-28T09:35:03Z</time></trkpt><trkpt lat="43.74278719864042" lon="11.219211622926492"><ele>70.6</ele><time>2026-03-28T09:35:04Z</time></trkpt><trkpt lat="43.74273364128176" lon="11.219119247637703"><ele>70.19999999999999</ele><time>2026-03-28T09:35:05Z</time></trkpt><trkpt lat="43.74268712280349" lon="11.21899825684574"><ele>69.80000000000001</ele><time>2026-03-28T09:35:06Z</time></trkpt><trkpt lat="43.74266393051353" lon="11.218847141276772"><ele>69.4</ele><time>2026-03-28T09:35:07Z</time></trkpt><trkpt lat="43.74266067862614" lon="11.218664875316534"><ele>69.0</ele><time>2026-03-28T09:35:08Z</time></trkpt><trkpt lat="43.742671383506114" lon="11.218471140399519"><ele>71.33333333333333</ele><time>2026-03-28T09:35:09Z</time></trkpt><trkpt lat="43.742683004141185" lon="11.2182548597432"><ele>73.66666666666666</ele><time>2026-03-28T09:35:10Z</time></trkpt><trkpt lat="43.7426938984712" lon="11.218032849764798"><ele>76.0</ele><time>2026-03-28T09:35:11Z</time></trkpt><trkpt lat="43.74270635511367" lon="11.217797407034622"><ele>76.0</ele><time>2026-03-28T09:35:12Z</time></trkpt><trkpt lat="43.74271951273077" lon="11.217557127301436"><ele>76.0</ele><time>2026-03-28T09:35:13Z</time></trkpt><trkpt lat="43.74272082259929" lon="11.217296832147149"><ele>76.0</ele><time>2026-03-28T09:35:14Z</time></trkpt><trkpt lat="43.742711085500524" lon="11.217022263997308"><ele>76.0</ele><time>2026-03-28T09:35:15Z</time></trkpt><trkpt lat="43.74268694101383" lon="11.216752509211519"><ele>76.0</ele><time>2026-03-28T09:35:16Z</time></trkpt><trkpt lat="43.74264058135053" lon="11.216479996405777"><ele>76.0</ele><time>2026-03-28T09:35:17Z</time></trkpt><trkpt lat="43.742578888834196" lon="11.216240288164169"><ele>73.66666666666666</ele><time>2026-03-28T09:35:18Z</time></trkpt><trkpt lat="43.74250966972827" lon="11.21601345859674"><ele>71.33333333333333</ele><time>2026-03-28T09:35:19Z</time></trkpt><trkpt lat="43.74243407338412" lon="11.215803193881554"><ele>69.0</ele><time>2026-03-28T09:35:19.999Z</time></trkpt><trkpt lat="43.74234406651288" lon="11.215601783763375"><ele>65.0</ele><time>2026-03-28T09:35:20.999Z</time></trkpt><trkpt lat="43.742244331991124" lon="11.215418553032567"><ele>61.0</ele><time>2026-03-28T09:35:21.999Z</time></trkpt><trkpt lat="43.74212970093011" lon="11.215240666213589"><ele>57.0</ele><time>2026-03-28T09:35:22.999Z</time></trkpt><trkpt lat="43.742002649826944" lon="11.215079369140579"><ele>56.66666666666667</ele><time>2026-03-28T09:35:23.999Z</time></trkpt><trkpt lat="43.7418636701312" lon="11.214933844441905"><ele>56.333333333333336</ele><time>2026-03-28T09:35:24.999Z</time></trkpt><trkpt lat="43.741711327599475" lon="11.214803386107064"><ele>56.0</ele><time>2026-03-28T09:35:25.999Z</time></trkpt><trkpt lat="43.74153186101143" lon="11.214653922638325"><ele>56.0</ele><time>2026-03-28T09:35:26.999Z</time></trkpt><trkpt lat="43.74131642356607" lon="11.214535482417723"><ele>56.0</ele><time>2026-03-28T09:35:27.999Z</time></trkpt><trkpt lat="43.74108457418735" lon="11.214439786306734"><ele>58.0</ele><time>2026-03-28T09:35:28.999Z</time></trkpt><trkpt lat="43.740838899222695" lon="11.214363181809794"><ele>60.0</ele><time>2026-03-28T09:35:29.999Z</time></trkpt><trkpt lat="43.74058824753026" lon="11.214322107158443"><ele>60.0</ele><time>2026-03-28T09:35:30.999Z</time></trkpt><trkpt lat="43.74034829396103" lon="11.214264930621535"><ele>60.0</ele><time>2026-03-28T09:35:31.999Z</time></trkpt><trkpt lat="43.74011724098927" lon="11.214193292971906"><ele>61.33333333333333</ele><time>2026-03-28T09:35:32.999Z</time></trkpt><trkpt lat="43.73989109793639" lon="11.214142145103532"><ele>62.666666666666664</ele><time>2026-03-28T09:35:33.999Z</time></trkpt><trkpt lat="43.739682261578125" lon="11.214095018085642"><ele>64.0</ele><time>2026-03-28T09:35:34.999Z</time></trkpt><trkpt lat="43.73947880237255" lon="11.214049365013354"><ele>61.0</ele><time>2026-03-28T09:35:35.999Z</time></trkpt><trkpt lat="43.739285586081465" lon="11.214005217145106"><ele>58.0</ele><time>2026-03-28T09:35:36.999Z</time></trkpt><trkpt lat="43.73909627852687" lon="11.21396268191015"><ele>55.0</ele><time>2026-03-28T09:35:37.999Z</time></trkpt><trkpt lat="43.738915958850654" lon="11.213922166167272"><ele>55.33333333333333</ele><time>2026-03-28T09:35:38.999Z</time></trkpt><trkpt lat="43.738734303218735" lon="11.213880954046944"><ele>55.66666666666667</ele><time>2026-03-28T09:35:39.999Z</time></trkpt><trkpt lat="43.73854877246684" lon="11.213838487916002"><ele>56.0</ele><time>2026-03-28T09:35:40.999Z</time></trkpt><trkpt lat="43.738342858822975" lon="11.213791839048527"><ele>56.0</ele><time>2026-03-28T09:35:41.999Z</time></trkpt><trkpt lat="43.7381198305048" lon="11.213741859748094"><ele>56.0</ele><time>2026-03-28T09:35:42.999Z</time></trkpt><trkpt lat="43.7378772027304" lon="11.213686563031358"><ele>64.66666666666667</ele><time>2026-03-28T09:35:43.999Z</time></trkpt><trkpt lat="43.7376506436262" lon="11.213648609715412"><ele>73.33333333333333</ele><time>2026-03-28T09:35:44.999Z</time></trkpt><trkpt lat="43.73744110148102" lon="11.213601240011268"><ele>82.0</ele><time>2026-03-28T09:35:45.999Z</time></trkpt><trkpt lat="43.73724152893685" lon="11.213562389298778"><ele>82.0</ele><time>2026-03-28T09:35:46.999Z</time></trkpt><trkpt lat="43.73705799133214" lon="11.213523882227308"><ele>82.0</ele><time>2026-03-28T09:35:47.999Z</time></trkpt><trkpt lat="43.736873460105045" lon="11.213460853237006"><ele>82.0</ele><time>2026-03-28T09:35:48.999Z</time></trkpt><trkpt lat="43.73668363098694" lon="11.213418224541408"><ele>92.66666666666666</ele><time>2026-03-28T09:35:49.999Z</time></trkpt><trkpt lat="43.73648317330842" lon="11.213374773665132"><ele>103.33333333333333</ele><time>2026-03-28T09:35:50.999Z</time></trkpt><trkpt lat="43.736285650730146" lon="11.213334209626531"><ele>114.0</ele><time>2026-03-28T09:35:51.999Z</time></trkpt><trkpt lat="43.73608165141713" lon="11.213294640230268"><ele>119.0</ele><time>2026-03-28T09:35:53.072Z</time></trkpt><trkpt lat="43.73588560996888" lon="11.213280005332948"><ele>124.0</ele><time>2026-03-28T09:35:54.065Z</time></trkpt><trkpt lat="43.735692934817074" lon="11.213244255378036"><ele>129.0</ele><time>2026-03-28T09:35:55.063Z</time></trkpt><trkpt lat="43.73551079749749" lon="11.213226019833227"><ele>122.0</ele><time>2026-03-28T09:35:56.063Z</time></trkpt><trkpt lat="43.73349454944013" lon="11.213324954804174"><ele>122.0</ele><time>2026-03-28T09:35:59.943Z</time></trkpt><trkpt lat="43.73288096200367" lon="11.213511226767967"><ele>118.0</ele><time>2026-03-28T09:36:00.94Z</time></trkpt><trkpt lat="43.73227837439899" lon="11.213770584417862"><ele>113.0</ele><time>2026-03-28T09:36:01.943Z</time></trkpt><trkpt lat="43.73169660112264" lon="11.214103009532451"><ele>113.0</ele><time>2026-03-28T09:36:02.943Z</time></trkpt><trkpt lat="43.731414" lon="11.2142954"><ele>113.0</ele><time>2026-03-28T09:36:03.941Z</time></trkpt><trkpt lat="43.72689993788861" lon="11.21846676969189"><ele>103.0</ele><time>2026-03-28T09:36:53.999Z</time></trkpt><trkpt lat="43.72670830298594" lon="11.218524614718964"><ele>93.0</ele><time>2026-03-28T09:36:54.999Z</time></trkpt><trkpt lat="43.726526538205945" lon="11.21857396142457"><ele>83.0</ele><time>2026-03-28T09:36:55.999Z</time></trkpt><trkpt lat="43.726341320749086" lon="11.218634024046413"><ele>83.0</ele><time>2026-03-28T09:36:56.999Z</time></trkpt><trkpt lat="43.726156211665156" lon="11.21868385753666"><ele>83.0</ele><time>2026-03-28T09:36:57.999Z</time></trkpt><trkpt lat="43.72597651149925" lon="11.218734508972293"><ele>83.0</ele><time>2026-03-28T09:36:58.999Z</time></trkpt><trkpt lat="43.72577688386348" lon="11.218787207181531"><ele>89.0</ele><time>2026-03-28T09:37:00.063Z</time></trkpt><trkpt lat="43.72071437766245" lon="11.219758437304655"><ele>84.75</ele><time>2026-03-28T09:37:27Z</time></trkpt><trkpt lat="43.72057055124874" lon="11.219861777794117"><ele>80.5</ele><time>2026-03-28T09:37:28Z</time></trkpt><trkpt lat="43.72048191753389" lon="11.219934668619254"><ele>76.25</ele><time>2026-03-28T09:37:29Z</time></trkpt><trkpt lat="43.7203873347043" lon="11.220012211224365"><ele>72.0</ele><time>2026-03-28T09:37:30Z</time></trkpt><trkpt lat="43.720283775112065" lon="11.220077904005956"><ele>72.4</ele><time>2026-03-28T09:37:31Z</time></trkpt><trkpt lat="43.72018759964378" lon="11.22014039635869"><ele>72.80000000000001</ele><time>2026-03-28T09:37:32Z</time></trkpt><trkpt lat="43.7200995860573" lon="11.2201855735979"><ele>73.2</ele><time>2026-03-28T09:37:33Z</time></trkpt><trkpt lat="43.72001857493002" lon="11.220218999853525"><ele>73.60000000000001</ele><time>2026-03-28T09:37:34Z</time></trkpt><trkpt lat="43.719942800518886" lon="11.220256149189852"><ele>74.0</ele><time>2026-03-28T09:37:35Z</time></trkpt><trkpt lat="43.71985692365274" lon="11.220290998807796"><ele>74.0</ele><time>2026-03-28T09:37:36Z</time></trkpt><trkpt lat="43.71975581886302" lon="11.220313303989176"><ele>74.0</ele><time>2026-03-28T09:37:37Z</time></trkpt><trkpt lat="43.7196355590263" lon="11.220316402771259"><ele>74.0</ele><time>2026-03-28T09:37:38Z</time></trkpt><trkpt lat="43.719495523890515" lon="11.220306943265856"><ele>74.0</ele><time>2026-03-28T09:37:39Z</time></trkpt><trkpt lat="43.719348805641815" lon="11.220297334807661"><ele>75.25</ele><time>2026-03-28T09:37:40Z</time></trkpt><trkpt lat="43.71921340971436" lon="11.220283785966751"><ele>76.5</ele><time>2026-03-28T09:37:41Z</time></trkpt><trkpt lat="43.719075757479104" lon="11.220270236898681"><ele>77.75</ele><time>2026-03-28T09:37:42Z</time></trkpt><trkpt lat="43.71892476114443" lon="11.22025530907202"><ele>79.0</ele><time>2026-03-28T09:37:43Z</time></trkpt><trkpt lat="43.71876643089474" lon="11.220245041272793"><ele>79.0</ele><time>2026-03-28T09:37:44Z</time></trkpt><trkpt lat="43.71859542866829" lon="11.22023858490351"><ele>79.0</ele><time>2026-03-28T09:37:45Z</time></trkpt><trkpt lat="43.71841472259593" lon="11.22024326297049"><ele>79.0</ele><time>2026-03-28T09:37:46Z</time></trkpt><trkpt lat="43.71822975425661" lon="11.220270355440958"><ele>80.33333333333333</ele><time>2026-03-28T09:37:47Z</time></trkpt><trkpt lat="43.718039439053996" lon="11.22029860763282"><ele>81.66666666666667</ele><time>2026-03-28T09:37:48Z</time></trkpt><trkpt lat="43.71784603322266" lon="11.220328347283942"><ele>83.0</ele><time>2026-03-28T09:37:49Z</time></trkpt><trkpt lat="43.71763981129336" lon="11.22034028512361"><ele>83.66666666666667</ele><time>2026-03-28T09:37:50Z</time></trkpt><trkpt lat="43.717430710222686" lon="11.220335759108464"><ele>84.33333333333333</ele><time>2026-03-28T09:37:51Z</time></trkpt><trkpt lat="43.71722219471689" lon="11.22031472857151"><ele>85.0</ele><time>2026-03-28T09:37:52Z</time></trkpt><trkpt lat="43.71700872068844" lon="11.220278942357638"><ele>83.66666666666666</ele><time>2026-03-28T09:37:53Z</time></trkpt><trkpt lat="43.71680074058175" lon="11.220226567652091"><ele>82.33333333333333</ele><time>2026-03-28T09:37:54Z</time></trkpt><trkpt lat="43.71660576076728" lon="11.22015621221493"><ele>81.0</ele><time>2026-03-28T09:37:55Z</time></trkpt><trkpt lat="43.71641001127907" lon="11.22006130025652"><ele>81.0</ele><time>2026-03-28T09:37:56Z</time></trkpt><trkpt lat="43.71621381252283" lon="11.21995868796593"><ele>81.0</ele><time>2026-03-28T09:37:57Z</time></trkpt><trkpt lat="43.716016509844344" lon="11.219843568003498"><ele>81.0</ele><time>2026-03-28T09:37:58Z</time></trkpt><trkpt lat="43.715819048036366" lon="11.21970322664407"><ele>83.5</ele><time>2026-03-28T09:37:59Z</time></trkpt><trkpt lat="43.71561965076604" lon="11.219544712990231"><ele>86.0</ele><time>2026-03-28T09:38:00Z</time></trkpt><trkpt lat="43.71542378617509" lon="11.219363948441472"><ele>84.5</ele><time>2026-03-28T09:38:01Z</time></trkpt><trkpt lat="43.715232671282294" lon="11.219165429093533"><ele>83.0</ele><time>2026-03-28T09:38:02Z</time></trkpt><trkpt lat="43.71504514197242" lon="11.218945379483221"><ele>83.0</ele><time>2026-03-28T09:38:03Z</time></trkpt><trkpt lat="43.714868233090925" lon="11.21870213794224"><ele>83.0</ele><time>2026-03-28T09:38:04Z</time></trkpt><trkpt lat="43.71470352571037" lon="11.218441938673417"><ele>83.0</ele><time>2026-03-28T09:38:05Z</time></trkpt><trkpt lat="43.714547399328495" lon="11.218166944233143"><ele>83.0</ele><time>2026-03-28T09:38:06Z</time></trkpt><trkpt lat="43.714401266494974" lon="11.217879607088532"><ele>79.0</ele><time>2026-03-28T09:38:07Z</time></trkpt><trkpt lat="43.71426826492624" lon="11.21758146162356"><ele>75.0</ele><time>2026-03-28T09:38:08Z</time></trkpt><trkpt lat="43.714142267069114" lon="11.217291817647169"><ele>75.0</ele><time>2026-03-28T09:38:09Z</time></trkpt><trkpt lat="43.71401727108665" lon="11.217015512854758"><ele>75.0</ele><time>2026-03-28T09:38:10Z</time></trkpt><trkpt lat="43.71388893210485" lon="11.216739797330856"><ele>77.5</ele><time>2026-03-28T09:38:11Z</time></trkpt><trkpt lat="43.7137472585302" lon="11.216466773247994"><ele>80.0</ele><time>2026-03-28T09:38:12Z</time></trkpt><trkpt lat="43.7135890655791" lon="11.21620785891724"><ele>75.0</ele><time>2026-03-28T09:38:13Z</time></trkpt><trkpt lat="43.71341700230669" lon="11.215955509855252"><ele>70.0</ele><time>2026-03-28T09:38:14Z</time></trkpt><trkpt lat="43.71323429091005" lon="11.21571885181628"><ele>75.5</ele><time>2026-03-28T09:38:15Z</time></trkpt><trkpt lat="43.71303959666189" lon="11.215501953573174"><ele>81.0</ele><time>2026-03-28T09:38:16Z</time></trkpt><trkpt lat="43.71283646961197" lon="11.215303065889243"><ele>77.0</ele><time>2026-03-28T09:38:17Z</time></trkpt><trkpt lat="43.71262583692016" lon="11.215115564318623"><ele>73.0</ele><time>2026-03-28T09:38:18Z</time></trkpt><trkpt lat="43.71240835787928" lon="11.214941293414165"><ele>76.0</ele><time>2026-03-28T09:38:19Z</time></trkpt><trkpt lat="43.7121862113849" lon="11.21477920484412"><ele>79.0</ele><time>2026-03-28T09:38:20Z</time></trkpt><trkpt lat="43.711956923171186" lon="11.214627428495174"><ele>77.0</ele><time>2026-03-28T09:38:21Z</time></trkpt><trkpt lat="43.711732217182735" lon="11.214484851660025"><ele>75.0</ele><time>2026-03-28T09:38:21.999Z</time></trkpt><trkpt lat="43.711505206115284" lon="11.214340649546548"><ele>75.0</ele><time>2026-03-28T09:38:22.999Z</time></trkpt><trkpt lat="43.71128675982922" lon="11.2141937969724"><ele>75.0</ele><time>2026-03-28T09:38:23.999Z</time></trkpt><trkpt lat="43.71106602861608" lon="11.214050514680812"><ele>73.5</ele><time>2026-03-28T09:38:24.999Z</time></trkpt><trkpt lat="43.710846545330284" lon="11.213912773777107"><ele>72.0</ele><time>2026-03-28T09:38:25.999Z</time></trkpt><trkpt lat="43.71063121468583" lon="11.213782296898108"><ele>72.0</ele><time>2026-03-28T09:38:26.999Z</time></trkpt><trkpt lat="43.71042502366353" lon="11.213654418564268"><ele>72.0</ele><time>2026-03-28T09:38:27.999Z</time></trkpt><trkpt lat="43.71021817058681" lon="11.213522044583081"><ele>72.5</ele><time>2026-03-28T09:38:28.999Z</time></trkpt><trkpt lat="43.71000882041144" lon="11.213395338352475"><ele>73.0</ele><time>2026-03-28T09:38:29.999Z</time></trkpt><trkpt lat="43.70979409623027" lon="11.213287430180438"><ele>73.0</ele><time>2026-03-28T09:38:30.999Z</time></trkpt><trkpt lat="43.709574642674866" lon="11.213195626483673"><ele>73.0</ele><time>2026-03-28T09:38:31.999Z</time></trkpt><trkpt lat="43.709351523803676" lon="11.21311586304989"><ele>73.5</ele><time>2026-03-28T09:38:32.999Z</time></trkpt><trkpt lat="43.70912429001322" lon="11.21304741753336"><ele>74.0</ele><time>2026-03-28T09:38:33.999Z</time></trkpt><trkpt lat="43.708897503792706" lon="11.212989333345423"><ele>74.0</ele><time>2026-03-28T09:38:34.999Z</time></trkpt><trkpt lat="43.70867361626874" lon="11.212945028637774"><ele>74.0</ele><time>2026-03-28T09:38:35.999Z</time></trkpt><trkpt lat="43.708458757061" lon="11.212922684548184"><ele>74.0</ele><time>2026-03-28T09:38:36.999Z</time></trkpt><trkpt lat="43.708244049486545" lon="11.212915647787334"><ele>74.33333333333334</ele><time>2026-03-28T09:38:37.999Z</time></trkpt><trkpt lat="43.708024715033375" lon="11.212922427826811"><ele>74.66666666666667</ele><time>2026-03-28T09:38:38.999Z</time></trkpt><trkpt lat="43.70779727796946" lon="11.212929147454675"><ele>75.0</ele><time>2026-03-28T09:38:39.999Z</time></trkpt><trkpt lat="43.7075640384373" lon="11.212952447196923"><ele>77.5</ele><time>2026-03-28T09:38:40.999Z</time></trkpt><trkpt lat="43.707326846612084" lon="11.213000057427202"><ele>80.0</ele><time>2026-03-28T09:38:41.999Z</time></trkpt><trkpt lat="43.70708988288926" lon="11.213051455181507"><ele>92.5</ele><time>2026-03-28T09:38:42.999Z</time></trkpt><trkpt lat="43.706851312971885" lon="11.213097225791246"><ele>105.0</ele><time>2026-03-28T09:38:43.999Z</time></trkpt><trkpt lat="43.70659495937571" lon="11.213142912557677"><ele>103.0</ele><time>2026-03-28T09:38:44.999Z</time></trkpt><trkpt lat="43.70632883377396" lon="11.213200801360307"><ele>101.0</ele><time>2026-03-28T09:38:45.999Z</time></trkpt><trkpt lat="43.70606259775729" lon="11.213253674118425"><ele>118.0</ele><time>2026-03-28T09:38:46.999Z</time></trkpt><trkpt lat="43.70579560433972" lon="11.213303176262388"><ele>135.0</ele><time>2026-03-28T09:38:47.999Z</time></trkpt><trkpt lat="43.7055243834334" lon="11.213350834399867"><ele>149.0</ele><time>2026-03-28T09:38:48.999Z</time></trkpt><trkpt lat="43.70523924458708" lon="11.213397460836896"><ele>163.0</ele><time>2026-03-28T09:38:49.999Z</time></trkpt><trkpt lat="43.70494119465723" lon="11.213443362743314"><ele>163.0</ele><time>2026-03-28T09:38:51.068Z</time></trkpt><trkpt lat="43.70468462456161" lon="11.213477882568496"><ele>163.0</ele><time>2026-03-28T09:38:52.066Z</time></trkpt><trkpt lat="43.70443551203498" lon="11.213518914618223"><ele>156.0</ele><time>2026-03-28T09:38:53.063Z</time></trkpt><trkpt lat="43.70418715879633" lon="11.213558359045521"><ele>149.0</ele><time>2026-03-28T09:38:54.063Z</time></trkpt><trkpt lat="43.703923012570506" lon="11.213601295427711"><ele>87.0</ele><time>2026-03-28T09:38:55.062Z</time></trkpt><trkpt lat="43.70245416532872" lon="11.214066555625346"><ele>90.5</ele><time>2026-03-28T09:38:58.08Z</time></trkpt><trkpt lat="43.7026652323445" lon="11.213663911273741"><ele>94.0</ele><time>2026-03-28T09:38:58.999Z</time></trkpt><trkpt lat="43.70239041033939" lon="11.2138563407559"><ele>94.0</ele><time>2026-03-28T09:38:59.999Z</time></trkpt><trkpt lat="43.702112269208804" lon="11.213907245378087"><ele>94.0</ele><time>2026-03-28T09:39:00.999Z</time></trkpt><trkpt lat="43.70184452734618" lon="11.213907941428564"><ele>94.5</ele><time>2026-03-28T09:39:01.999Z</time></trkpt><trkpt lat="43.701568450940705" lon="11.213897803969148"><ele>95.0</ele><time>2026-03-28T09:39:02.999Z</time></trkpt><trkpt lat="43.70128690792913" lon="11.213845013751525"><ele>90.5</ele><time>2026-03-28T09:39:03.999Z</time></trkpt><trkpt lat="43.70101011312836" lon="11.213782698997752"><ele>86.0</ele><time>2026-03-28T09:39:04.999Z</time></trkpt><trkpt lat="43.70072825722807" lon="11.213700310658448"><ele>86.0</ele><time>2026-03-28T09:39:06Z</time></trkpt><trkpt lat="43.70045510276273" lon="11.21360311929601"><ele>86.0</ele><time>2026-03-28T09:39:07Z</time></trkpt><trkpt lat="43.70018894346022" lon="11.21347068334199"><ele>86.0</ele><time>2026-03-28T09:39:08Z</time></trkpt><trkpt lat="43.69993751752132" lon="11.213312057675113"><ele>86.0</ele><time>2026-03-28T09:39:09Z</time></trkpt><trkpt lat="43.69969947593265" lon="11.213118645810102"><ele>85.0</ele><time>2026-03-28T09:39:10Z</time></trkpt><trkpt lat="43.69946350489644" lon="11.212900031827443"><ele>84.0</ele><time>2026-03-28T09:39:11Z</time></trkpt><trkpt lat="43.69922805229858" lon="11.212687112698429"><ele>85.5</ele><time>2026-03-28T09:39:12Z</time></trkpt><trkpt lat="43.69899075831489" lon="11.212482308509749"><ele>87.0</ele><time>2026-03-28T09:39:13Z</time></trkpt><trkpt lat="43.69875088353372" lon="11.212283492237217"><ele>88.0</ele><time>2026-03-28T09:39:14Z</time></trkpt><trkpt lat="43.69850885044189" lon="11.21209329281442"><ele>89.0</ele><time>2026-03-28T09:39:15Z</time></trkpt><trkpt lat="43.69827278753526" lon="11.211929728016296"><ele>89.0</ele><time>2026-03-28T09:39:16Z</time></trkpt><trkpt lat="43.69803654679051" lon="11.21179692777385"><ele>89.0</ele><time>2026-03-28T09:39:17Z</time></trkpt><trkpt lat="43.69779174975726" lon="11.21168255132906"><ele>91.0</ele><time>2026-03-28T09:39:18Z</time></trkpt><trkpt lat="43.69755279739584" lon="11.21158795262746"><ele>93.0</ele><time>2026-03-28T09:39:19Z</time></trkpt><trkpt lat="43.69732910978669" lon="11.211514662443845"><ele>92.0</ele><time>2026-03-28T09:39:20Z</time></trkpt><trkpt lat="43.69712036333597" lon="11.211467829298732"><ele>91.0</ele><time>2026-03-28T09:39:21Z</time></trkpt><trkpt lat="43.69693110077909" lon="11.211429201009738"><ele>90.0</ele><time>2026-03-28T09:39:22Z</time></trkpt><trkpt lat="43.69676936029009" lon="11.211413791912353"><ele>90.0</ele><time>2026-03-28T09:39:23Z</time></trkpt><trkpt lat="43.69662888294972" lon="11.211406052079527"><ele>90.0</ele><time>2026-03-28T09:39:24Z</time></trkpt><trkpt lat="43.69652301310793" lon="11.211395261259712"><ele>90.0</ele><time>2026-03-28T09:39:25Z</time></trkpt><trkpt lat="43.69644197749068" lon="11.211359161308327"><ele>90.0</ele><time>2026-03-28T09:39:26Z</time></trkpt><trkpt lat="43.696384943700146" lon="11.211290168270864"><ele>90.0</ele><time>2026-03-28T09:39:27Z</time></trkpt><trkpt lat="43.696342707978324" lon="11.211177609422707"><ele>90.0</ele><time>2026-03-28T09:39:28Z</time></trkpt><trkpt lat="43.69633749551289" lon="11.211050440255207"><ele>90.0</ele><time>2026-03-28T09:39:29Z</time></trkpt><trkpt lat="43.696307366224985" lon="11.210958835416562"><ele>90.0</ele><time>2026-03-28T09:39:30Z</time></trkpt><trkpt lat="43.69624867105056" lon="11.210905139151565"><ele>90.0</ele><time>2026-03-28T09:39:31Z</time></trkpt><trkpt lat="43.69617511724533" lon="11.210882197466004"><ele>90.0</ele><time>2026-03-28T09:39:32Z</time></trkpt><trkpt lat="43.69607916610386" lon="11.210898397228423"><ele>90.0</ele><time>2026-03-28T09:39:33Z</time></trkpt><trkpt lat="43.69596850676972" lon="11.210958423233834"><ele>90.0</ele><time>2026-03-28T09:39:34Z</time></trkpt><trkpt lat="43.69584646278846" lon="11.211042301617697"><ele>90.0</ele><time>2026-03-28T09:39:35Z</time></trkpt><trkpt lat="43.6957035130402" lon="11.211121718994503"><ele>90.0</ele><time>2026-03-28T09:39:36Z</time></trkpt><trkpt lat="43.69555371642516" lon="11.211203743337526"><ele>90.0</ele><time>2026-03-28T09:39:37Z</time></trkpt><trkpt lat="43.695393998808214" lon="11.211287789398307"><ele>90.0</ele><time>2026-03-28T09:39:38Z</time></trkpt><trkpt lat="43.6952314884261" lon="11.211369579857799"><ele>90.0</ele><time>2026-03-28T09:39:39Z</time></trkpt><trkpt lat="43.69507516013824" lon="11.211463658351438"><ele>90.66666666666667</ele><time>2026-03-28T09:39:40Z</time></trkpt><trkpt lat="43.69492382733854" lon="11.211552522587358"><ele>91.33333333333334</ele><time>2026-03-28T09:39:41Z</time></trkpt><trkpt lat="43.694760184299135" lon="11.21164890589426"><ele>92.0</ele><time>2026-03-28T09:39:42Z</time></trkpt><trkpt lat="43.694589721746254" lon="11.211749764399217"><ele>90.66666666666667</ele><time>2026-03-28T09:39:43Z</time></trkpt><trkpt lat="43.69441401290281" lon="11.211843491197568"><ele>89.33333333333333</ele><time>2026-03-28T09:39:44Z</time></trkpt><trkpt lat="43.69422820732312" lon="11.21194163000005"><ele>88.0</ele><time>2026-03-28T09:39:45Z</time></trkpt><trkpt lat="43.69403758694604" lon="11.212047994943688"><ele>88.0</ele><time>2026-03-28T09:39:46Z</time></trkpt><trkpt lat="43.69384693593302" lon="11.212155973358417"><ele>88.0</ele><time>2026-03-28T09:39:47Z</time></trkpt><trkpt lat="43.693663477308995" lon="11.21226140644143"><ele>88.0</ele><time>2026-03-28T09:39:48Z</time></trkpt><trkpt lat="43.6934862838194" lon="11.212367698835648"><ele>91.0</ele><time>2026-03-28T09:39:49Z</time></trkpt><trkpt lat="43.693315160032355" lon="11.21246960790859"><ele>94.0</ele><time>2026-03-28T09:39:50Z</time></trkpt><trkpt lat="43.693142590694954" lon="11.212566975648398"><ele>97.0</ele><time>2026-03-28T09:39:51Z</time></trkpt><trkpt lat="43.69296207112906" lon="11.212656626528165"><ele>97.0</ele><time>2026-03-28T09:39:52Z</time></trkpt><trkpt lat="43.6927784007803" lon="11.212729225859764"><ele>97.0</ele><time>2026-03-28T09:39:53Z</time></trkpt><trkpt lat="43.69258534845404" lon="11.212778375581726"><ele>97.0</ele><time>2026-03-28T09:39:54Z</time></trkpt><trkpt lat="43.69239003213534" lon="11.212800551728598"><ele>95.33333333333334</ele><time>2026-03-28T09:39:55Z</time></trkpt><trkpt lat="43.69219200133675" lon="11.212792583932815"><ele>93.66666666666667</ele><time>2026-03-28T09:39:56Z</time></trkpt><trkpt lat="43.69199763347417" lon="11.21273989883358"><ele>92.0</ele><time>2026-03-28T09:39:57Z</time></trkpt><trkpt lat="43.691804213323245" lon="11.212656007665428"><ele>92.0</ele><time>2026-03-28T09:39:58Z</time></trkpt><trkpt lat="43.691610437970304" lon="11.212572708706995"><ele>92.0</ele><time>2026-03-28T09:39:59Z</time></trkpt><trkpt lat="43.691410035192256" lon="11.21248854278839"><ele>92.0</ele><time>2026-03-28T09:40:00Z</time></trkpt><trkpt lat="43.691204640016004" lon="11.212395160852628"><ele>92.33333333333334</ele><time>2026-03-28T09:40:01Z</time></trkpt><trkpt lat="43.69099542978312" lon="11.212298355620543"><ele>92.66666666666667</ele><time>2026-03-28T09:40:02Z</time></trkpt><trkpt lat="43.69078353175285" lon="11.212209444142825"><ele>93.0</ele><time>2026-03-28T09:40:03Z</time></trkpt><trkpt lat="43.690578662442924" lon="11.212104083328676"><ele>93.0</ele><time>2026-03-28T09:40:04Z</time></trkpt><trkpt lat="43.69037056138357" lon="11.212013200584698"><ele>93.0</ele><time>2026-03-28T09:40:05Z</time></trkpt><trkpt lat="43.69016518981014" lon="11.211924053247696"><ele>93.0</ele><time>2026-03-28T09:40:06Z</time></trkpt><trkpt lat="43.68996289878052" lon="11.211837408006753"><ele>93.0</ele><time>2026-03-28T09:40:07Z</time></trkpt><trkpt lat="43.68976526363691" lon="11.211753778108884"><ele>93.0</ele><time>2026-03-28T09:40:08Z</time></trkpt><trkpt lat="43.6895740478324" lon="11.211701710002831"><ele>93.0</ele><time>2026-03-28T09:40:09Z</time></trkpt><trkpt lat="43.6893862510404" lon="11.211629945008998"><ele>93.0</ele><time>2026-03-28T09:40:10Z</time></trkpt><trkpt lat="43.68918924599063" lon="11.211579363298029"><ele>93.0</ele><time>2026-03-28T09:40:11Z</time></trkpt><trkpt lat="43.68898227942088" lon="11.211551159056448"><ele>93.0</ele><time>2026-03-28T09:40:12Z</time></trkpt><trkpt lat="43.68876833308911" lon="11.211531634897748"><ele>97.0</ele><time>2026-03-28T09:40:13Z</time></trkpt><trkpt lat="43.68854534462397" lon="11.211522952794681"><ele>101.0</ele><time>2026-03-28T09:40:14Z</time></trkpt><trkpt lat="43.68831146621128" lon="11.211516370408352"><ele>101.0</ele><time>2026-03-28T09:40:15Z</time></trkpt><trkpt lat="43.68811225379409" lon="11.211517990234201"><ele>101.0</ele><time>2026-03-28T09:40:16Z</time></trkpt><trkpt lat="43.68788967649228" lon="11.211529107688444"><ele>101.0</ele><time>2026-03-28T09:40:17Z</time></trkpt><trkpt lat="43.68766460978168" lon="11.211554123069204"><ele>101.5</ele><time>2026-03-28T09:40:18Z</time></trkpt><trkpt lat="43.68743602412799" lon="11.211568914388181"><ele>102.0</ele><time>2026-03-28T09:40:19Z</time></trkpt><trkpt lat="43.68720840067688" lon="11.211581945875908"><ele>102.0</ele><time>2026-03-28T09:40:20Z</time></trkpt><trkpt lat="43.68697361401789" lon="11.211596005563134"><ele>102.0</ele><time>2026-03-28T09:40:21Z</time></trkpt><trkpt lat="43.68674084384086" lon="11.211612715970873"><ele>103.0</ele><time>2026-03-28T09:40:22Z</time></trkpt><trkpt lat="43.68650408813839" lon="11.211628504488543"><ele>104.0</ele><time>2026-03-28T09:40:23Z</time></trkpt><trkpt lat="43.68627435085041" lon="11.21164534147113"><ele>105.5</ele><time>2026-03-28T09:40:24Z</time></trkpt><trkpt lat="43.686044226987626" lon="11.211677463792219"><ele>107.0</ele><time>2026-03-28T09:40:25Z</time></trkpt><trkpt lat="43.68581627801817" lon="11.21172379973046"><ele>107.0</ele><time>2026-03-28T09:40:26Z</time></trkpt><trkpt lat="43.6855855010216" lon="11.21178350744506"><ele>107.0</ele><time>2026-03-28T09:40:27Z</time></trkpt><trkpt lat="43.685352793868695" lon="11.211850085639975"><ele>109.5</ele><time>2026-03-28T09:40:28Z</time></trkpt><trkpt lat="43.68512003124032" lon="11.211910051318581"><ele>112.0</ele><time>2026-03-28T09:40:29Z</time></trkpt><trkpt lat="43.68489844280305" lon="11.211968657194022"><ele>112.0</ele><time>2026-03-28T09:40:30Z</time></trkpt><trkpt lat="43.68468235415503" lon="11.212020663579022"><ele>112.0</ele><time>2026-03-28T09:40:31Z</time></trkpt><trkpt lat="43.6844651226266" lon="11.212071381068395"><ele>112.0</ele><time>2026-03-28T09:40:32Z</time></trkpt><trkpt lat="43.68425779935546" lon="11.212129914452957"><ele>112.0</ele><time>2026-03-28T09:40:33Z</time></trkpt><trkpt lat="43.684066236146386" lon="11.212181179083766"><ele>112.0</ele><time>2026-03-28T09:40:34Z</time></trkpt><trkpt lat="43.68387409223076" lon="11.21222802931271"><ele>112.0</ele><time>2026-03-28T09:40:35Z</time></trkpt><trkpt lat="43.68369811991924" lon="11.212277719349363"><ele>107.0</ele><time>2026-03-28T09:40:35.999Z</time></trkpt><trkpt lat="43.68354014978151" lon="11.212332833780602"><ele>102.0</ele><time>2026-03-28T09:40:36.999Z</time></trkpt><trkpt lat="43.68338359432742" lon="11.212354381513643"><ele>97.0</ele><time>2026-03-28T09:40:37.999Z</time></trkpt><trkpt lat="43.68325473753082" lon="11.212391358662995"><ele>97.0</ele><time>2026-03-28T09:40:38.999Z</time></trkpt><trkpt lat="43.68315003212813" lon="11.212583179149025"><ele>97.0</ele><time>2026-03-28T09:40:39.999Z</time></trkpt><trkpt lat="43.683018693356225" lon="11.212686131292353"><ele>97.0</ele><time>2026-03-28T09:40:40.999Z</time></trkpt><trkpt lat="43.68286599797239" lon="11.212783702238493"><ele>97.0</ele><time>2026-03-28T09:40:41.999Z</time></trkpt><trkpt lat="43.682694494981725" lon="11.21286433334504"><ele>97.0</ele><time>2026-03-28T09:40:42.999Z</time></trkpt><trkpt lat="43.68250451369214" lon="11.21291679040036"><ele>97.0</ele><time>2026-03-28T09:40:43.999Z</time></trkpt><trkpt lat="43.68231611632133" lon="11.21291040404881"><ele>97.0</ele><time>2026-03-28T09:40:44.999Z</time></trkpt><trkpt lat="43.68211664790083" lon="11.212832214707756"><ele>97.0</ele><time>2026-03-28T09:40:45.999Z</time></trkpt><trkpt lat="43.68190698642703" lon="11.212745497890154"><ele>97.0</ele><time>2026-03-28T09:40:46.999Z</time></trkpt><trkpt lat="43.68171265405234" lon="11.212686011756032"><ele>97.33333333333334</ele><time>2026-03-28T09:40:47.999Z</time></trkpt><trkpt lat="43.68153497305903" lon="11.21263409420542"><ele>97.66666666666666</ele><time>2026-03-28T09:40:48.999Z</time></trkpt><trkpt lat="43.68136487034812" lon="11.212590218742575"><ele>98.0</ele><time>2026-03-28T09:40:49.999Z</time></trkpt><trkpt lat="43.68120291213386" lon="11.212523924630782"><ele>97.33333333333333</ele><time>2026-03-28T09:40:50.999Z</time></trkpt><trkpt lat="43.68104619920408" lon="11.212419920624095"><ele>96.66666666666666</ele><time>2026-03-28T09:40:51.999Z</time></trkpt><trkpt lat="43.680885186186366" lon="11.21227152713691"><ele>96.0</ele><time>2026-03-28T09:40:52.999Z</time></trkpt><trkpt lat="43.68072555703971" lon="11.212079573668063"><ele>96.0</ele><time>2026-03-28T09:40:53.999Z</time></trkpt><trkpt lat="43.680571129260514" lon="11.211867241965981"><ele>96.0</ele><time>2026-03-28T09:40:54.999Z</time></trkpt><trkpt lat="43.68040262637356" lon="11.211675988229928"><ele>96.0</ele><time>2026-03-28T09:40:55.999Z</time></trkpt><trkpt lat="43.680214143840026" lon="11.211498898279498"><ele>96.0</ele><time>2026-03-28T09:40:56.999Z</time></trkpt><trkpt lat="43.68002999705138" lon="11.211309036173171"><ele>96.0</ele><time>2026-03-28T09:40:57.999Z</time></trkpt><trkpt lat="43.67984427976995" lon="11.211108572537578"><ele>96.0</ele><time>2026-03-28T09:40:58.999Z</time></trkpt><trkpt lat="43.67965420466222" lon="11.210909641287472"><ele>96.0</ele><time>2026-03-28T09:40:59.999Z</time></trkpt><trkpt lat="43.679465238041324" lon="11.210709322965643"><ele>96.33333333333334</ele><time>2026-03-28T09:41:00.999Z</time></trkpt><trkpt lat="43.67928883593885" lon="11.210514557791502"><ele>96.66666666666667</ele><time>2026-03-28T09:41:01.999Z</time></trkpt><trkpt lat="43.67912895063228" lon="11.210318589156534"><ele>97.0</ele><time>2026-03-28T09:41:02.999Z</time></trkpt><trkpt lat="43.67897625695753" lon="11.21010509366521"><ele>97.0</ele><time>2026-03-28T09:41:03.999Z</time></trkpt><trkpt lat="43.678813484535226" lon="11.209913137007025"><ele>97.0</ele><time>2026-03-28T09:41:04.999Z</time></trkpt><trkpt lat="43.678651834231694" lon="11.209748464148234"><ele>97.0</ele><time>2026-03-28T09:41:05.999Z</time></trkpt><trkpt lat="43.678484504192205" lon="11.209617854056043"><ele>97.0</ele><time>2026-03-28T09:41:06.999Z</time></trkpt><trkpt lat="43.6783128014009" lon="11.20952425370193"><ele>97.0</ele><time>2026-03-28T09:41:07.999Z</time></trkpt><trkpt lat="43.67813321342326" lon="11.209450117297438"><ele>97.0</ele><time>2026-03-28T09:41:08.999Z</time></trkpt><trkpt lat="43.67794294773035" lon="11.209425669416428"><ele>98.0</ele><time>2026-03-28T09:41:09.999Z</time></trkpt><trkpt lat="43.67775924688548" lon="11.209423036280466"><ele>99.0</ele><time>2026-03-28T09:41:10.999Z</time></trkpt><trkpt lat="43.677587372350175" lon="11.209445524714289"><ele>100.0</ele><time>2026-03-28T09:41:12Z</time></trkpt><trkpt lat="43.67743000429276" lon="11.209501971682688"><ele>100.0</ele><time>2026-03-28T09:41:13Z</time></trkpt><trkpt lat="43.67728823820471" lon="11.2095708214628"><ele>100.0</ele><time>2026-03-28T09:41:14Z</time></trkpt><trkpt lat="43.677162541401984" lon="11.209637694065945"><ele>100.0</ele><time>2026-03-28T09:41:15Z</time></trkpt><trkpt lat="43.67704572366417" lon="11.20971135486723"><ele>100.0</ele><time>2026-03-28T09:41:16Z</time></trkpt><trkpt lat="43.67693738011398" lon="11.209805220259137"><ele>100.8</ele><time>2026-03-28T09:41:17Z</time></trkpt><trkpt lat="43.67683693200161" lon="11.2098956567773"><ele>101.6</ele><time>2026-03-28T09:41:18Z</time></trkpt><trkpt lat="43.67676178623563" lon="11.209976361615475"><ele>102.4</ele><time>2026-03-28T09:41:19Z</time></trkpt><trkpt lat="43.67667931454713" lon="11.210077543507369"><ele>103.2</ele><time>2026-03-28T09:41:20Z</time></trkpt><trkpt lat="43.67659972125341" lon="11.210195950109757"><ele>104.0</ele><time>2026-03-28T09:41:21Z</time></trkpt><trkpt lat="43.67653351543837" lon="11.21031816371942"><ele>104.0</ele><time>2026-03-28T09:41:22Z</time></trkpt><trkpt lat="43.67646711269976" lon="11.21045069099115"><ele>104.0</ele><time>2026-03-28T09:41:23Z</time></trkpt><trkpt lat="43.67640558131199" lon="11.21062515308326"><ele>104.0</ele><time>2026-03-28T09:41:24Z</time></trkpt><trkpt lat="43.676353127156816" lon="11.210832068500057"><ele>104.0</ele><time>2026-03-28T09:41:25Z</time></trkpt><trkpt lat="43.67628991549648" lon="11.211067630466134"><ele>107.33333333333333</ele><time>2026-03-28T09:41:26Z</time></trkpt><trkpt lat="43.67623610775391" lon="11.211330060108574"><ele>110.66666666666666</ele><time>2026-03-28T09:41:27Z</time></trkpt><trkpt lat="43.67621102928092" lon="11.21160745270808"><ele>114.0</ele><time>2026-03-28T09:41:28Z</time></trkpt><trkpt lat="43.676202222392185" lon="11.211856965326026"><ele>114.0</ele><time>2026-03-28T09:41:29Z</time></trkpt><trkpt lat="43.6761978578188" lon="11.212099475692433"><ele>114.0</ele><time>2026-03-28T09:41:30Z</time></trkpt><trkpt lat="43.67619770259346" lon="11.21232527754374"><ele>114.0</ele><time>2026-03-28T09:41:31Z</time></trkpt><trkpt lat="43.67619686917334" lon="11.212538989216224"><ele>113.5</ele><time>2026-03-28T09:41:32Z</time></trkpt><trkpt lat="43.67620107307585" lon="11.212738156993744"><ele>113.0</ele><time>2026-03-28T09:41:33Z</time></trkpt><trkpt lat="43.67619282180209" lon="11.212933427061708"><ele>112.5</ele><time>2026-03-28T09:41:34Z</time></trkpt><trkpt lat="43.67616808798228" lon="11.213138539223639"><ele>112.0</ele><time>2026-03-28T09:41:35Z</time></trkpt><trkpt lat="43.676119211079126" lon="11.21334970547"><ele>109.33333333333334</ele><time>2026-03-28T09:41:36Z</time></trkpt><trkpt lat="43.67603948014427" lon="11.21354294368994"><ele>106.66666666666666</ele><time>2026-03-28T09:41:37Z</time></trkpt><trkpt lat="43.67593351678288" lon="11.213728982102621"><ele>104.0</ele><time>2026-03-28T09:41:38Z</time></trkpt><trkpt lat="43.675795859930666" lon="11.213891592008284"><ele>104.0</ele><time>2026-03-28T09:41:39Z</time></trkpt><trkpt lat="43.67563682955089" lon="11.21403100166843"><ele>104.0</ele><time>2026-03-28T09:41:40Z</time></trkpt><trkpt lat="43.675474449590816" lon="11.214158135581874"><ele>104.0</ele><time>2026-03-28T09:41:41Z</time></trkpt><trkpt lat="43.67532514868902" lon="11.214271737737434"><ele>105.66666666666666</ele><time>2026-03-28T09:41:42Z</time></trkpt><trkpt lat="43.67518215212541" lon="11.214372517478283"><ele>107.33333333333334</ele><time>2026-03-28T09:41:43Z</time></trkpt><trkpt lat="43.6750229693915" lon="11.214404157261045"><ele>109.0</ele><time>2026-03-28T09:41:44Z</time></trkpt><trkpt lat="43.674854433621235" lon="11.214414492910668"><ele>109.0</ele><time>2026-03-28T09:41:45Z</time></trkpt><trkpt lat="43.67468820496776" lon="11.214374218162009"><ele>109.0</ele><time>2026-03-28T09:41:46Z</time></trkpt><trkpt lat="43.67453464335937" lon="11.214284940368332"><ele>109.0</ele><time>2026-03-28T09:41:47Z</time></trkpt><trkpt lat="43.67439244251766" lon="11.21415915855744"><ele>108.66666666666667</ele><time>2026-03-28T09:41:48Z</time></trkpt><trkpt lat="43.67427673895526" lon="11.21399204235548"><ele>108.33333333333334</ele><time>2026-03-28T09:41:49Z</time></trkpt><trkpt lat="43.674176892884645" lon="11.213772538684834"><ele>108.0</ele><time>2026-03-28T09:41:50Z</time></trkpt><trkpt lat="43.674072775933865" lon="11.213518088437556"><ele>113.33333333333334</ele><time>2026-03-28T09:41:51Z</time></trkpt><trkpt lat="43.6739800085284" lon="11.21325219538487"><ele>118.66666666666667</ele><time>2026-03-28T09:41:52Z</time></trkpt><trkpt lat="43.67389615832766" lon="11.212979743072006"><ele>124.0</ele><time>2026-03-28T09:41:53Z</time></trkpt><trkpt lat="43.67382880630808" lon="11.21273501449341"><ele>126.33333333333334</ele><time>2026-03-28T09:41:54Z</time></trkpt><trkpt lat="43.67379132975855" lon="11.212497507521478"><ele>128.66666666666666</ele><time>2026-03-28T09:41:55Z</time></trkpt><trkpt lat="43.673792104923486" lon="11.212239647940129"><ele>131.0</ele><time>2026-03-28T09:41:56Z</time></trkpt><trkpt lat="43.67377479952696" lon="11.212001332845817"><ele>130.66666666666666</ele><time>2026-03-28T09:41:57Z</time></trkpt><trkpt lat="43.67373355046486" lon="11.21178372059635"><ele>130.33333333333334</ele><time>2026-03-28T09:41:58Z</time></trkpt><trkpt lat="43.67363862125124" lon="11.21158097180824"><ele>130.0</ele><time>2026-03-28T09:41:59Z</time></trkpt><trkpt lat="43.673491528187036" lon="11.21140948019596"><ele>130.0</ele><time>2026-03-28T09:42:00Z</time></trkpt><trkpt lat="43.673318302883544" lon="11.211263486001803"><ele>130.0</ele><time>2026-03-28T09:42:01Z</time></trkpt><trkpt lat="43.673153810846514" lon="11.211113575726543"><ele>130.0</ele><time>2026-03-28T09:42:02Z</time></trkpt><trkpt lat="43.672978694455566" lon="11.21097360977831"><ele>130.0</ele><time>2026-03-28T09:42:03Z</time></trkpt><trkpt lat="43.67278326165455" lon="11.210885229008285"><ele>130.0</ele><time>2026-03-28T09:42:04Z</time></trkpt><trkpt lat="43.672568987210916" lon="11.21082818010649"><ele>130.0</ele><time>2026-03-28T09:42:05Z</time></trkpt><trkpt lat="43.672339773450936" lon="11.210822196881239"><ele>130.33333333333334</ele><time>2026-03-28T09:42:06Z</time></trkpt><trkpt lat="43.672111982569135" lon="11.210842816100104"><ele>130.66666666666666</ele><time>2026-03-28T09:42:07Z</time></trkpt><trkpt lat="43.6719074758306" lon="11.210847460104242"><ele>131.0</ele><time>2026-03-28T09:42:08Z</time></trkpt><trkpt lat="43.67172437101005" lon="11.210858718617557"><ele>133.66666666666666</ele><time>2026-03-28T09:42:09Z</time></trkpt><trkpt lat="43.67156042911697" lon="11.210888372875573"><ele>136.33333333333334</ele><time>2026-03-28T09:42:10Z</time></trkpt><trkpt lat="43.671416900220265" lon="11.210943361443757"><ele>139.0</ele><time>2026-03-28T09:42:11Z</time></trkpt><trkpt lat="43.67128203794643" lon="11.211086714130664"><ele>139.0</ele><time>2026-03-28T09:42:12Z</time></trkpt><trkpt lat="43.67116146715774" lon="11.211263629453635"><ele>139.0</ele><time>2026-03-28T09:42:13Z</time></trkpt><trkpt lat="43.67105006496842" lon="11.211384087128177"><ele>139.0</ele><time>2026-03-28T09:42:14Z</time></trkpt><trkpt lat="43.6709557758581" lon="11.2114579671303"><ele>139.0</ele><time>2026-03-28T09:42:15Z</time></trkpt><trkpt lat="43.67084666657566" lon="11.21149092449658"><ele>140.66666666666669</ele><time>2026-03-28T09:42:16Z</time></trkpt><trkpt lat="43.670695364318064" lon="11.211478936141372"><ele>142.33333333333334</ele><time>2026-03-28T09:42:17Z</time></trkpt><trkpt lat="43.670522479208145" lon="11.211411374062823"><ele>144.0</ele><time>2026-03-28T09:42:18Z</time></trkpt><trkpt lat="43.67033342192037" lon="11.211361191098488"><ele>144.0</ele><time>2026-03-28T09:42:19Z</time></trkpt><trkpt lat="43.670163159724424" lon="11.211252747529844"><ele>144.0</ele><time>2026-03-28T09:42:20Z</time></trkpt><trkpt lat="43.669972068208104" lon="11.211148926904512"><ele>144.0</ele><time>2026-03-28T09:42:21Z</time></trkpt><trkpt lat="43.66979247877102" lon="11.210984988781654"><ele>144.0</ele><time>2026-03-28T09:42:22Z</time></trkpt><trkpt lat="43.669617590593155" lon="11.210804557121927"><ele>144.0</ele><time>2026-03-28T09:42:23Z</time></trkpt><trkpt lat="43.669440492987164" lon="11.210624159694692"><ele>144.0</ele><time>2026-03-28T09:42:24Z</time></trkpt><trkpt lat="43.669264525754485" lon="11.210455527251892"><ele>149.5</ele><time>2026-03-28T09:42:25Z</time></trkpt><trkpt lat="43.66907096424324" lon="11.210299319317782"><ele>155.0</ele><time>2026-03-28T09:42:26Z</time></trkpt><trkpt lat="43.668857832815405" lon="11.210183144929632"><ele>155.0</ele><time>2026-03-28T09:42:27Z</time></trkpt><trkpt lat="43.66862338913258" lon="11.210119765941085"><ele>155.0</ele><time>2026-03-28T09:42:28Z</time></trkpt><trkpt lat="43.6683813993983" lon="11.210090220982789"><ele>155.5</ele><time>2026-03-28T09:42:29Z</time></trkpt><trkpt lat="43.668141976852475" lon="11.210085712325574"><ele>156.0</ele><time>2026-03-28T09:42:30Z</time></trkpt><trkpt lat="43.66793079161968" lon="11.210088675992534"><ele>156.66666666666666</ele><time>2026-03-28T09:42:31Z</time></trkpt><trkpt lat="43.667743497279034" lon="11.210056798641462"><ele>157.33333333333331</ele><time>2026-03-28T09:42:32Z</time></trkpt><trkpt lat="43.66758634016577" lon="11.210051072233279"><ele>158.0</ele><time>2026-03-28T09:42:33Z</time></trkpt><trkpt lat="43.667459379555936" lon="11.210032054985584"><ele>158.0</ele><time>2026-03-28T09:42:34Z</time></trkpt><trkpt lat="43.66735603332227" lon="11.209971953474636"><ele>158.0</ele><time>2026-03-28T09:42:35Z</time></trkpt><trkpt lat="43.667254968672445" lon="11.209884901719098"><ele>158.0</ele><time>2026-03-28T09:42:36Z</time></trkpt><trkpt lat="43.66721232297669" lon="11.209714549363818"><ele>158.0</ele><time>2026-03-28T09:42:37Z</time></trkpt><trkpt lat="43.66723171550949" lon="11.209541013384108"><ele>160.75</ele><time>2026-03-28T09:42:38Z</time></trkpt><trkpt lat="43.667286147740505" lon="11.209390292019336"><ele>163.5</ele><time>2026-03-28T09:42:39Z</time></trkpt><trkpt lat="43.66739487289788" lon="11.209225534691296"><ele>166.25</ele><time>2026-03-28T09:42:40Z</time></trkpt><trkpt lat="43.66749810444372" lon="11.20907102968123"><ele>169.0</ele><time>2026-03-28T09:42:41Z</time></trkpt><trkpt lat="43.667660851498226" lon="11.208931162774425"><ele>168.66666666666669</ele><time>2026-03-28T09:42:41.999Z</time></trkpt><trkpt lat="43.66783971625418" lon="11.208793669891609"><ele>168.33333333333334</ele><time>2026-03-28T09:42:42.999Z</time></trkpt><trkpt lat="43.66802143249828" lon="11.208655316084304"><ele>168.0</ele><time>2026-03-28T09:42:43.999Z</time></trkpt><trkpt lat="43.66820575789281" lon="11.20854442211895"><ele>168.0</ele><time>2026-03-28T09:42:44.999Z</time></trkpt><trkpt lat="43.668410181372636" lon="11.208460124252422"><ele>168.0</ele><time>2026-03-28T09:42:45.999Z</time></trkpt><trkpt lat="43.66863585116105" lon="11.208392009395295"><ele>168.0</ele><time>2026-03-28T09:42:46.999Z</time></trkpt><trkpt lat="43.668865725014946" lon="11.20832896062808"><ele>168.5</ele><time>2026-03-28T09:42:47.999Z</time></trkpt><trkpt lat="43.669105380928244" lon="11.208275881867097"><ele>169.0</ele><time>2026-03-28T09:42:48.999Z</time></trkpt><trkpt lat="43.66934763622779" lon="11.208221910003505"><ele>168.33333333333334</ele><time>2026-03-28T09:42:49.999Z</time></trkpt><trkpt lat="43.669572472141695" lon="11.2081648941447"><ele>167.66666666666666</ele><time>2026-03-28T09:42:50.999Z</time></trkpt><trkpt lat="43.66977728464266" lon="11.208105442233252"><ele>167.0</ele><time>2026-03-28T09:42:51.999Z</time></trkpt><trkpt lat="43.66996674513101" lon="11.208051006200167"><ele>169.0</ele><time>2026-03-28T09:42:52.999Z</time></trkpt><trkpt lat="43.67012348668862" lon="11.207993471658225"><ele>171.0</ele><time>2026-03-28T09:42:53.999Z</time></trkpt><trkpt lat="43.670262718879776" lon="11.207914453309678"><ele>173.0</ele><time>2026-03-28T09:42:54.999Z</time></trkpt><trkpt lat="43.670373314566945" lon="11.20779403071528"><ele>175.25</ele><time>2026-03-28T09:42:55.999Z</time></trkpt><trkpt lat="43.67046133477162" lon="11.207635075456041"><ele>177.5</ele><time>2026-03-28T09:42:56.999Z</time></trkpt><trkpt lat="43.67051416537416" lon="11.207429423835658"><ele>179.75</ele><time>2026-03-28T09:42:57.999Z</time></trkpt><trkpt lat="43.67051586925831" lon="11.20722699859168"><ele>182.0</ele><time>2026-03-28T09:42:58.999Z</time></trkpt><trkpt lat="43.67047993372341" lon="11.207037321843174"><ele>181.66666666666666</ele><time>2026-03-28T09:42:59.999Z</time></trkpt><trkpt lat="43.670386347777665" lon="11.206866013468021"><ele>181.33333333333334</ele><time>2026-03-28T09:43:00.999Z</time></trkpt><trkpt lat="43.6702635970818" lon="11.206720534746731"><ele>181.0</ele><time>2026-03-28T09:43:01.999Z</time></trkpt><trkpt lat="43.67008414477182" lon="11.20661793494434"><ele>181.0</ele><time>2026-03-28T09:43:02.999Z</time></trkpt><trkpt lat="43.66986916341157" lon="11.206549058509898"><ele>181.0</ele><time>2026-03-28T09:43:03.999Z</time></trkpt><trkpt lat="43.669640334307225" lon="11.206490440879634"><ele>186.0</ele><time>2026-03-28T09:43:04.999Z</time></trkpt><trkpt lat="43.66942030701015" lon="11.206418599773075"><ele>191.0</ele><time>2026-03-28T09:43:05.999Z</time></trkpt><trkpt lat="43.66920217371917" lon="11.206345173446733"><ele>191.0</ele><time>2026-03-28T09:43:06.999Z</time></trkpt><trkpt lat="43.66897188566033" lon="11.206277107286148"><ele>191.0</ele><time>2026-03-28T09:43:07.999Z</time></trkpt><trkpt lat="43.668737156289446" lon="11.2062179762879"><ele>193.0</ele><time>2026-03-28T09:43:08.999Z</time></trkpt><trkpt lat="43.668521303968205" lon="11.206185538542014"><ele>195.0</ele><time>2026-03-28T09:43:09.999Z</time></trkpt><trkpt lat="43.668305770303704" lon="11.20620118357635"><ele>197.0</ele><time>2026-03-28T09:43:10.999Z</time></trkpt><trkpt lat="43.66808181444196" lon="11.206280052481087"><ele>197.0</ele><time>2026-03-28T09:43:11.999Z</time></trkpt><trkpt lat="43.667841935249434" lon="11.206370608981608"><ele>197.0</ele><time>2026-03-28T09:43:12.999Z</time></trkpt><trkpt lat="43.66761190047401" lon="11.20645341602513"><ele>195.66666666666669</ele><time>2026-03-28T09:43:13.999Z</time></trkpt><trkpt lat="43.66740556053783" lon="11.206520234419957"><ele>194.33333333333331</ele><time>2026-03-28T09:43:14.999Z</time></trkpt><trkpt lat="43.66721953638987" lon="11.206593327871712"><ele>193.0</ele><time>2026-03-28T09:43:15.999Z</time></trkpt><trkpt lat="43.667032946151856" lon="11.206722720554522"><ele>198.5</ele><time>2026-03-28T09:43:16.999Z</time></trkpt><trkpt lat="43.66684486586949" lon="11.206917266421014"><ele>204.0</ele><time>2026-03-28T09:43:18Z</time></trkpt><trkpt lat="43.66667838070005" lon="11.207124368960887"><ele>204.0</ele><time>2026-03-28T09:43:19Z</time></trkpt><trkpt lat="43.66652075794811" lon="11.20727982234435"><ele>204.0</ele><time>2026-03-28T09:43:20Z</time></trkpt><trkpt lat="43.66638351017447" lon="11.207425520102076"><ele>204.0</ele><time>2026-03-28T09:43:21Z</time></trkpt><trkpt lat="43.666260327592475" lon="11.207534402722096"><ele>204.5</ele><time>2026-03-28T09:43:22Z</time></trkpt><trkpt lat="43.66613367755002" lon="11.207592188315076"><ele>205.0</ele><time>2026-03-28T09:43:23Z</time></trkpt><trkpt lat="43.66600849055674" lon="11.207601886030924"><ele>205.5</ele><time>2026-03-28T09:43:24Z</time></trkpt><trkpt lat="43.66586698558635" lon="11.207610924789446"><ele>206.0</ele><time>2026-03-28T09:43:25Z</time></trkpt><trkpt lat="43.66574610938397" lon="11.207503225508141"><ele>206.0</ele><time>2026-03-28T09:43:26Z</time></trkpt><trkpt lat="43.66565714849683" lon="11.207339758229853"><ele>206.0</ele><time>2026-03-28T09:43:27Z</time></trkpt><trkpt lat="43.66560725806124" lon="11.207159837461013"><ele>206.0</ele><time>2026-03-28T09:43:28Z</time></trkpt><trkpt lat="43.66561485893526" lon="11.206931715265588"><ele>208.33333333333334</ele><time>2026-03-28T09:43:29Z</time></trkpt><trkpt lat="43.66558536721679" lon="11.206674213398568"><ele>210.66666666666669</ele><time>2026-03-28T09:43:30Z</time></trkpt><trkpt lat="43.66556268537" lon="11.206391211041264"><ele>213.0</ele><time>2026-03-28T09:43:31Z</time></trkpt><trkpt lat="43.66555068210996" lon="11.206131839818578"><ele>216.0</ele><time>2026-03-28T09:43:32Z</time></trkpt><trkpt lat="43.66556082167751" lon="11.205894932315593"><ele>219.0</ele><time>2026-03-28T09:43:33Z</time></trkpt><trkpt lat="43.66559175883092" lon="11.205639677707612"><ele>222.0</ele><time>2026-03-28T09:43:34Z</time></trkpt><trkpt lat="43.66563734384258" lon="11.205383359939589"><ele>223.66666666666669</ele><time>2026-03-28T09:43:35Z</time></trkpt><trkpt lat="43.665681377877014" lon="11.205118415903048"><ele>225.33333333333334</ele><time>2026-03-28T09:43:36Z</time></trkpt><trkpt lat="43.66569788242829" lon="11.204844207356416"><ele>227.0</ele><time>2026-03-28T09:43:37Z</time></trkpt><trkpt lat="43.66566323173233" lon="11.20457626165886"><ele>229.33333333333334</ele><time>2026-03-28T09:43:38Z</time></trkpt><trkpt lat="43.66559287278382" lon="11.204311784899845"><ele>231.66666666666669</ele><time>2026-03-28T09:43:39Z</time></trkpt><trkpt lat="43.665500775832065" lon="11.204089369631998"><ele>234.0</ele><time>2026-03-28T09:43:40Z</time></trkpt><trkpt lat="43.665433924128436" lon="11.20388096466984"><ele>236.66666666666669</ele><time>2026-03-28T09:43:41Z</time></trkpt><trkpt lat="43.665377609376364" lon="11.20367893398832"><ele>239.33333333333334</ele><time>2026-03-28T09:43:42Z</time></trkpt><trkpt lat="43.665326868844645" lon="11.203472442777057"><ele>242.0</ele><time>2026-03-28T09:43:43Z</time></trkpt><trkpt lat="43.665299407176654" lon="11.203262258264065"><ele>241.75</ele><time>2026-03-28T09:43:44Z</time></trkpt><trkpt lat="43.66528638668602" lon="11.203055133013281"><ele>241.5</ele><time>2026-03-28T09:43:45Z</time></trkpt><trkpt lat="43.66530051523022" lon="11.202863677024876"><ele>241.25</ele><time>2026-03-28T09:43:46Z</time></trkpt><trkpt lat="43.66533738214206" lon="11.202672299295596"><ele>241.0</ele><time>2026-03-28T09:43:47Z</time></trkpt><trkpt lat="43.66540353542734" lon="11.202466603886265"><ele>241.0</ele><time>2026-03-28T09:43:48Z</time></trkpt><trkpt lat="43.665478387904066" lon="11.202241226608427"><ele>241.0</ele><time>2026-03-28T09:43:49Z</time></trkpt><trkpt lat="43.665548806133245" lon="11.201989982013743"><ele>241.0</ele><time>2026-03-28T09:43:50Z</time></trkpt><trkpt lat="43.66559387228246" lon="11.201725374921734"><ele>241.0</ele><time>2026-03-28T09:43:51Z</time></trkpt><trkpt lat="43.66561146752712" lon="11.201459208484312"><ele>241.0</ele><time>2026-03-28T09:43:52Z</time></trkpt><trkpt lat="43.665611010608735" lon="11.201217600705741"><ele>241.0</ele><time>2026-03-28T09:43:53Z</time></trkpt><trkpt lat="43.66561937645238" lon="11.201000489987024"><ele>241.0</ele><time>2026-03-28T09:43:54Z</time></trkpt><trkpt lat="43.66564942425908" lon="11.200779173335333"><ele>241.0</ele><time>2026-03-28T09:43:55Z</time></trkpt><trkpt lat="43.66574033096357" lon="11.200549019862239"><ele>241.0</ele><time>2026-03-28T09:43:56Z</time></trkpt><trkpt lat="43.665846285655306" lon="11.200298891535136"><ele>239.33333333333331</ele><time>2026-03-28T09:43:57Z</time></trkpt><trkpt lat="43.665929478436006" lon="11.200009631316199"><ele>237.66666666666669</ele><time>2026-03-28T09:43:58Z</time></trkpt><trkpt lat="43.665972767549995" lon="11.199714424880849"><ele>236.0</ele><time>2026-03-28T09:43:59Z</time></trkpt><trkpt lat="43.6660396657934" lon="11.199468042529261"><ele>241.66666666666669</ele><time>2026-03-28T09:44:00Z</time></trkpt><trkpt lat="43.666159112354684" lon="11.19926783764625"><ele>247.33333333333331</ele><time>2026-03-28T09:44:01Z</time></trkpt><trkpt lat="43.66627946022935" lon="11.199056651015784"><ele>253.0</ele><time>2026-03-28T09:44:02Z</time></trkpt><trkpt lat="43.66638202239584" lon="11.198884778565075"><ele>253.0</ele><time>2026-03-28T09:44:03Z</time></trkpt><trkpt lat="43.66644153173972" lon="11.198696504969186"><ele>253.0</ele><time>2026-03-28T09:44:04Z</time></trkpt><trkpt lat="43.66645556466155" lon="11.198496132204566"><ele>253.0</ele><time>2026-03-28T09:44:05Z</time></trkpt><trkpt lat="43.66643874302476" lon="11.198280009815681"><ele>251.66666666666666</ele><time>2026-03-28T09:44:06Z</time></trkpt><trkpt lat="43.666378846586156" lon="11.198091210397507"><ele>250.33333333333331</ele><time>2026-03-28T09:44:07Z</time></trkpt><trkpt lat="43.66626231486835" lon="11.197921865730732"><ele>249.0</ele><time>2026-03-28T09:44:08Z</time></trkpt><trkpt lat="43.66609815337057" lon="11.197805931067522"><ele>249.0</ele><time>2026-03-28T09:44:09Z</time></trkpt><trkpt lat="43.66594190911731" lon="11.197744039352143"><ele>249.0</ele><time>2026-03-28T09:44:10Z</time></trkpt><trkpt lat="43.665813014209526" lon="11.197657136970982"><ele>249.0</ele><time>2026-03-28T09:44:11Z</time></trkpt><trkpt lat="43.66570775070268" lon="11.197540122371892"><ele>249.0</ele><time>2026-03-28T09:44:12Z</time></trkpt><trkpt lat="43.6656182623877" lon="11.197374096247144"><ele>252.33333333333331</ele><time>2026-03-28T09:44:13Z</time></trkpt><trkpt lat="43.66556983803871" lon="11.197166829438515"><ele>255.66666666666666</ele><time>2026-03-28T09:44:14Z</time></trkpt><trkpt lat="43.66555355971997" lon="11.196925900789898"><ele>259.0</ele><time>2026-03-28T09:44:15Z</time></trkpt><trkpt lat="43.665523356597625" lon="11.196673630560552"><ele>257.0</ele><time>2026-03-28T09:44:16Z</time></trkpt><trkpt lat="43.66548459960738" lon="11.196440955161789"><ele>255.0</ele><time>2026-03-28T09:44:17Z</time></trkpt><trkpt lat="43.66536700364713" lon="11.196216770788318"><ele>253.0</ele><time>2026-03-28T09:44:18Z</time></trkpt><trkpt lat="43.66521176210481" lon="11.195995395331535"><ele>253.0</ele><time>2026-03-28T09:44:19Z</time></trkpt><trkpt lat="43.665072092042585" lon="11.195747131473333"><ele>253.0</ele><time>2026-03-28T09:44:20Z</time></trkpt><trkpt lat="43.66495646230801" lon="11.195528936771339"><ele>253.0</ele><time>2026-03-28T09:44:21Z</time></trkpt><trkpt lat="43.66488791008429" lon="11.195316723554837"><ele>257.0</ele><time>2026-03-28T09:44:22Z</time></trkpt><trkpt lat="43.66484855337682" lon="11.195082951361014"><ele>261.0</ele><time>2026-03-28T09:44:23Z</time></trkpt><trkpt lat="43.66484682113066" lon="11.194828096533541"><ele>265.0</ele><time>2026-03-28T09:44:24Z</time></trkpt><trkpt lat="43.66486936992927" lon="11.19454236046133"><ele>266.3333333333333</ele><time>2026-03-28T09:44:25Z</time></trkpt><trkpt lat="43.664889204465084" lon="11.194245058628661"><ele>267.6666666666667</ele><time>2026-03-28T09:44:26Z</time></trkpt><trkpt lat="43.66492352432046" lon="11.193987273302577"><ele>269.0</ele><time>2026-03-28T09:44:27Z</time></trkpt><trkpt lat="43.66494550276096" lon="11.19377058346167"><ele>269.75</ele><time>2026-03-28T09:44:28Z</time></trkpt><trkpt lat="43.66495541181877" lon="11.193585782558962"><ele>270.5</ele><time>2026-03-28T09:44:29Z</time></trkpt><trkpt lat="43.66493416863418" lon="11.193397512780706"><ele>271.25</ele><time>2026-03-28T09:44:30Z</time></trkpt><trkpt lat="43.66487221948196" lon="11.193218615892349"><ele>272.0</ele><time>2026-03-28T09:44:31Z</time></trkpt><trkpt lat="43.66475326280134" lon="11.193055615853297"><ele>272.33333333333337</ele><time>2026-03-28T09:44:32Z</time></trkpt><trkpt lat="43.66462147632264" lon="11.192871049623864"><ele>272.6666666666667</ele><time>2026-03-28T09:44:33Z</time></trkpt><trkpt lat="43.664465686173614" lon="11.19266626484871"><ele>273.0</ele><time>2026-03-28T09:44:34Z</time></trkpt><trkpt lat="43.6642923873433" lon="11.192447915787634"><ele>276.0</ele><time>2026-03-28T09:44:35Z</time></trkpt><trkpt lat="43.66414805164413" lon="11.192204525399672"><ele>279.0</ele><time>2026-03-28T09:44:36Z</time></trkpt><trkpt lat="43.664013089813075" lon="11.192005435130461"><ele>282.0</ele><time>2026-03-28T09:44:37Z</time></trkpt><trkpt lat="43.66387365480618" lon="11.191851050442905"><ele>282.0</ele><time>2026-03-28T09:44:38Z</time></trkpt><trkpt lat="43.66368304933347" lon="11.191741866247387"><ele>282.0</ele><time>2026-03-28T09:44:39Z</time></trkpt><trkpt lat="43.663487154975044" lon="11.191658450984951"><ele>282.0</ele><time>2026-03-28T09:44:40Z</time></trkpt><trkpt lat="43.663275969076984" lon="11.191592529077113"><ele>281.6666666666667</ele><time>2026-03-28T09:44:41Z</time></trkpt><trkpt lat="43.66309232350528" lon="11.191527514262217"><ele>281.33333333333337</ele><time>2026-03-28T09:44:42Z</time></trkpt><trkpt lat="43.66292780365727" lon="11.191474761228458"><ele>281.0</ele><time>2026-03-28T09:44:43Z</time></trkpt><trkpt lat="43.66277246956548" lon="11.1914691298361"><ele>282.0</ele><time>2026-03-28T09:44:44Z</time></trkpt><trkpt lat="43.66262061800551" lon="11.191513012002806"><ele>283.0</ele><time>2026-03-28T09:44:45Z</time></trkpt><trkpt lat="43.662508430179635" lon="11.19150116887185"><ele>284.0</ele><time>2026-03-28T09:44:45.999Z</time></trkpt><trkpt lat="43.66243032545171" lon="11.191451423364258"><ele>285.0</ele><time>2026-03-28T09:44:46.999Z</time></trkpt><trkpt lat="43.662379701265266" lon="11.191325240928105"><ele>285.0</ele><time>2026-03-28T09:44:48.999Z</time></trkpt><trkpt lat="43.66238638044158" lon="11.191187163213"><ele>285.0</ele><time>2026-03-28T09:44:50.999Z</time></trkpt><trkpt lat="43.66235240963851" lon="11.191079657339111"><ele>285.0</ele><time>2026-03-28T09:44:51.999Z</time></trkpt><trkpt lat="43.66228698632648" lon="11.190980102359077"><ele>285.0</ele><time>2026-03-28T09:44:52.999Z</time></trkpt><trkpt lat="43.662190500851835" lon="11.190922071105094"><ele>285.0</ele><time>2026-03-28T09:44:53.999Z</time></trkpt><trkpt lat="43.66205881927232" lon="11.190883476540431"><ele>287.3333333333333</ele><time>2026-03-28T09:44:54.999Z</time></trkpt><trkpt lat="43.661916596405966" lon="11.19081216388486"><ele>289.66666666666663</ele><time>2026-03-28T09:44:55.999Z</time></trkpt><trkpt lat="43.661773809579714" lon="11.190740863505706"><ele>292.0</ele><time>2026-03-28T09:44:56.999Z</time></trkpt><trkpt lat="43.66162642235058" lon="11.190682694175276"><ele>290.25</ele><time>2026-03-28T09:44:57.999Z</time></trkpt><trkpt lat="43.66148389779633" lon="11.190669220616767"><ele>288.5</ele><time>2026-03-28T09:44:58.999Z</time></trkpt><trkpt lat="43.66135870155442" lon="11.190645302494294"><ele>286.75</ele><time>2026-03-28T09:44:59.999Z</time></trkpt><trkpt lat="43.66124642255047" lon="11.190613905925991"><ele>285.0</ele><time>2026-03-28T09:45:00.999Z</time></trkpt><trkpt lat="43.661144380834244" lon="11.190584432757849"><ele>286.5</ele><time>2026-03-28T09:45:01.999Z</time></trkpt><trkpt lat="43.66104727162711" lon="11.19055845368168"><ele>288.0</ele><time>2026-03-28T09:45:02.999Z</time></trkpt><trkpt lat="43.660938421406804" lon="11.190524458269238"><ele>289.5</ele><time>2026-03-28T09:45:03.999Z</time></trkpt><trkpt lat="43.66082087411532" lon="11.190489386105135"><ele>291.0</ele><time>2026-03-28T09:45:04.999Z</time></trkpt><trkpt lat="43.66069964882691" lon="11.190452084143638"><ele>291.0</ele><time>2026-03-28T09:45:05.999Z</time></trkpt><trkpt lat="43.66057350814154" lon="11.190400435035633"><ele>291.0</ele><time>2026-03-28T09:45:06.999Z</time></trkpt><trkpt lat="43.66045474516212" lon="11.190328078265926"><ele>291.0</ele><time>2026-03-28T09:45:07.999Z</time></trkpt><trkpt lat="43.660326396642674" lon="11.190238031491958"><ele>291.0</ele><time>2026-03-28T09:45:08.999Z</time></trkpt><trkpt lat="43.66022181411718" lon="11.190128659744081"><ele>292.25</ele><time>2026-03-28T09:45:09.999Z</time></trkpt><trkpt lat="43.66011693791519" lon="11.190039481407647"><ele>293.5</ele><time>2026-03-28T09:45:10.999Z</time></trkpt><trkpt lat="43.66001788860371" lon="11.189955602234203"><ele>294.75</ele><time>2026-03-28T09:45:11.999Z</time></trkpt><trkpt lat="43.65992707583041" lon="11.18987916101558"><ele>296.0</ele><time>2026-03-28T09:45:12.999Z</time></trkpt><trkpt lat="43.65983609846658" lon="11.189802556505855"><ele>296.0</ele><time>2026-03-28T09:45:13.999Z</time></trkpt><trkpt lat="43.65973529094044" lon="11.189717360092606"><ele>296.0</ele><time>2026-03-28T09:45:14.999Z</time></trkpt><trkpt lat="43.65963150112289" lon="11.189633288230038"><ele>296.0</ele><time>2026-03-28T09:45:15.999Z</time></trkpt><trkpt lat="43.65952896974516" lon="11.189550898805019"><ele>296.0</ele><time>2026-03-28T09:45:16.999Z</time></trkpt><trkpt lat="43.65942666744922" lon="11.189482494420332"><ele>297.40000000000003</ele><time>2026-03-28T09:45:17.999Z</time></trkpt><trkpt lat="43.659319566726026" lon="11.189423767125735"><ele>298.8</ele><time>2026-03-28T09:45:18.999Z</time></trkpt><trkpt lat="43.65921392226473" lon="11.189389419147446"><ele>300.20000000000005</ele><time>2026-03-28T09:45:19.999Z</time></trkpt><trkpt lat="43.6591197269629" lon="11.189336548479735"><ele>301.6</ele><time>2026-03-28T09:45:20.999Z</time></trkpt><trkpt lat="43.65903075241181" lon="11.189284108421814"><ele>303.0</ele><time>2026-03-28T09:45:21.999Z</time></trkpt><trkpt lat="43.6589555258091" lon="11.189220989877523"><ele>303.0</ele><time>2026-03-28T09:45:22.999Z</time></trkpt><trkpt lat="43.658889393776015" lon="11.189155918899079"><ele>303.0</ele><time>2026-03-28T09:45:24Z</time></trkpt><trkpt lat="43.65883342680666" lon="11.189096663669286"><ele>303.0</ele><time>2026-03-28T09:45:25Z</time></trkpt><trkpt lat="43.65874164233174" lon="11.188978783693427"><ele>303.0</ele><time>2026-03-28T09:45:27Z</time></trkpt><trkpt lat="43.658672087567076" lon="11.188898929089557"><ele>303.0</ele><time>2026-03-28T09:45:29Z</time></trkpt><trkpt lat="43.65860174190576" lon="11.188818174572438"><ele>303.4</ele><time>2026-03-28T09:45:31Z</time></trkpt><trkpt lat="43.65852811825314" lon="11.188782412231914"><ele>303.8</ele><time>2026-03-28T09:45:33Z</time></trkpt><trkpt lat="43.65850950931766" lon="11.188698044951984"><ele>304.2</ele><time>2026-03-28T09:45:35Z</time></trkpt><trkpt lat="43.65846647787999" lon="11.18861474991313"><ele>304.6</ele><time>2026-03-28T09:45:37Z</time></trkpt><trkpt lat="43.658388123013694" lon="11.18848807708442"><ele>305.0</ele><time>2026-03-28T09:45:39Z</time></trkpt><trkpt lat="43.658272172362885" lon="11.188430577913502"><ele>305.0</ele><time>2026-03-28T09:45:41Z</time></trkpt><trkpt lat="43.658159657287726" lon="11.18839424751542"><ele>305.0</ele><time>2026-03-28T09:45:43Z</time></trkpt><trkpt lat="43.65809899215337" lon="11.188365932674957"><ele>305.0</ele><time>2026-03-28T09:45:44Z</time></trkpt><trkpt lat="43.65804739790868" lon="11.188313183657076"><ele>305.0</ele><time>2026-03-28T09:45:45Z</time></trkpt><trkpt lat="43.65797274393733" lon="11.188273911740579"><ele>305.0</ele><time>2026-03-28T09:45:46Z</time></trkpt><trkpt lat="43.657873655116234" lon="11.188223753582818"><ele>305.0</ele><time>2026-03-28T09:45:47Z</time></trkpt><trkpt lat="43.65776675371536" lon="11.188186038216903"><ele>305.8</ele><time>2026-03-28T09:45:48Z</time></trkpt><trkpt lat="43.65766411751021" lon="11.188128543257763"><ele>306.6</ele><time>2026-03-28T09:45:49Z</time></trkpt><trkpt lat="43.65756499214508" lon="11.188083807930902"><ele>307.4</ele><time>2026-03-28T09:45:50Z</time></trkpt><trkpt lat="43.65747054641866" lon="11.188038296366065"><ele>308.2</ele><time>2026-03-28T09:45:51Z</time></trkpt><trkpt lat="43.65738162264648" lon="11.18799345265781"><ele>309.0</ele><time>2026-03-28T09:45:52Z</time></trkpt><trkpt lat="43.65730114498116" lon="11.1879483837758"><ele>309.0</ele><time>2026-03-28T09:45:53Z</time></trkpt><trkpt lat="43.657207018303545" lon="11.187904231207789"><ele>309.0</ele><time>2026-03-28T09:45:54Z</time></trkpt><trkpt lat="43.657108798528135" lon="11.187838345160367"><ele>309.0</ele><time>2026-03-28T09:45:55Z</time></trkpt><trkpt lat="43.65699225012227" lon="11.187780504802124"><ele>309.0</ele><time>2026-03-28T09:45:56Z</time></trkpt><trkpt lat="43.65687604583107" lon="11.187722835391869"><ele>308.4</ele><time>2026-03-28T09:45:57Z</time></trkpt><trkpt lat="43.65677771862927" lon="11.187674037880459"><ele>307.79999999999995</ele><time>2026-03-28T09:45:58Z</time></trkpt><trkpt lat="43.65668690277329" lon="11.187629755339792"><ele>307.20000000000005</ele><time>2026-03-28T09:45:59Z</time></trkpt><trkpt lat="43.65660060660004" lon="11.18758981091176"><ele>306.6</ele><time>2026-03-28T09:46:00Z</time></trkpt><trkpt lat="43.6565185763816" lon="11.187555290854712"><ele>306.0</ele><time>2026-03-28T09:46:01Z</time></trkpt><trkpt lat="43.65644573831752" lon="11.18752699943331"><ele>306.0</ele><time>2026-03-28T09:46:02Z</time></trkpt><trkpt lat="43.65637750066166" lon="11.187503808816015"><ele>306.0</ele><time>2026-03-28T09:46:03Z</time></trkpt><trkpt lat="43.65626226455074" lon="11.187473603577084"><ele>306.0</ele><time>2026-03-28T09:46:05Z</time></trkpt><trkpt lat="43.65616603693991" lon="11.187453345528663"><ele>306.0</ele><time>2026-03-28T09:46:07Z</time></trkpt><trkpt lat="43.65607292981335" lon="11.187441992698165"><ele>306.0</ele><time>2026-03-28T09:46:21Z</time></trkpt><trkpt lat="43.656004892731495" lon="11.187434797922698"><ele>306.0</ele><time>2026-03-28T09:46:22Z</time></trkpt><trkpt lat="43.65592368638398" lon="11.187437269941876"><ele>305.40000000000003</ele><time>2026-03-28T09:46:23Z</time></trkpt><trkpt lat="43.65585534994653" lon="11.187446209832572"><ele>304.8</ele><time>2026-03-28T09:46:24Z</time></trkpt><trkpt lat="43.6557513505156" lon="11.187491747693828"><ele>304.20000000000005</ele><time>2026-03-28T09:46:26Z</time></trkpt><trkpt lat="43.6556704842687" lon="11.187472740135505"><ele>303.6</ele><time>2026-03-28T09:46:28Z</time></trkpt><trkpt lat="43.65553603624341" lon="11.187420303618092"><ele>303.0</ele><time>2026-03-28T09:46:30Z</time></trkpt><trkpt lat="43.65545232585068" lon="11.187399983511925"><ele>303.0</ele><time>2026-03-28T09:46:31Z</time></trkpt><trkpt lat="43.65537709040472" lon="11.187345038350472"><ele>303.0</ele><time>2026-03-28T09:46:32Z</time></trkpt><trkpt lat="43.65529458667418" lon="11.187292889485695"><ele>303.0</ele><time>2026-03-28T09:46:33Z</time></trkpt><trkpt lat="43.655221570031955" lon="11.18726479169391"><ele>303.0</ele><time>2026-03-28T09:46:34Z</time></trkpt><trkpt lat="43.65514790139111" lon="11.18721568735491"><ele>303.0</ele><time>2026-03-28T09:46:35Z</time></trkpt><trkpt lat="43.65505434582242" lon="11.18715576277459"><ele>303.0</ele><time>2026-03-28T09:46:36Z</time></trkpt><trkpt lat="43.65494841298864" lon="11.187083871616025"><ele>302.0</ele><time>2026-03-28T09:46:37Z</time></trkpt><trkpt lat="43.65483206637696" lon="11.187021152393257"><ele>301.0</ele><time>2026-03-28T09:46:38Z</time></trkpt><trkpt lat="43.654710690498256" lon="11.186973834819021"><ele>300.0</ele><time>2026-03-28T09:46:39Z</time></trkpt><trkpt lat="43.654591922392434" lon="11.186924792023342"><ele>299.0</ele><time>2026-03-28T09:46:40Z</time></trkpt><trkpt lat="43.65446794241931" lon="11.186923859375824"><ele>296.0</ele><time>2026-03-28T09:46:41Z</time></trkpt><trkpt lat="43.65433844952121" lon="11.186948530110907"><ele>293.0</ele><time>2026-03-28T09:46:42Z</time></trkpt><trkpt lat="43.654205349414426" lon="11.186995941985737"><ele>290.0</ele><time>2026-03-28T09:46:43Z</time></trkpt><trkpt lat="43.65407103785436" lon="11.187057429147805"><ele>287.0</ele><time>2026-03-28T09:46:44Z</time></trkpt><trkpt lat="43.65394586834542" lon="11.187113829663593"><ele>287.0</ele><time>2026-03-28T09:46:45Z</time></trkpt><trkpt lat="43.6538283453186" lon="11.187166784637004"><ele>287.0</ele><time>2026-03-28T09:46:46Z</time></trkpt><trkpt lat="43.653714616437036" lon="11.187218311514439"><ele>287.0</ele><time>2026-03-28T09:46:47Z</time></trkpt><trkpt lat="43.653603566963106" lon="11.18726597917234"><ele>287.0</ele><time>2026-03-28T09:46:48Z</time></trkpt><trkpt lat="43.65348076738755" lon="11.187291582147134"><ele>284.75</ele><time>2026-03-28T09:46:49Z</time></trkpt><trkpt lat="43.65333712025291" lon="11.187289982629267"><ele>282.5</ele><time>2026-03-28T09:46:50Z</time></trkpt><trkpt lat="43.6531945566474" lon="11.187248337830592"><ele>280.25</ele><time>2026-03-28T09:46:51Z</time></trkpt><trkpt lat="43.653063628965675" lon="11.18718877700962"><ele>278.0</ele><time>2026-03-28T09:46:51.999Z</time></trkpt><trkpt lat="43.65294004149974" lon="11.187117606436404"><ele>278.0</ele><time>2026-03-28T09:46:52.999Z</time></trkpt><trkpt lat="43.65281983122752" lon="11.187065065067175"><ele>278.0</ele><time>2026-03-28T09:46:53.999Z</time></trkpt><trkpt lat="43.652702373408125" lon="11.187008081388429"><ele>278.0</ele><time>2026-03-28T09:46:54.999Z</time></trkpt><trkpt lat="43.65258565563051" lon="11.18696742320635"><ele>278.0</ele><time>2026-03-28T09:46:55.999Z</time></trkpt><trkpt lat="43.652463939129625" lon="11.186978098834661"><ele>277.75</ele><time>2026-03-28T09:46:56.999Z</time></trkpt><trkpt lat="43.65233945437351" lon="11.187051733205479"><ele>277.5</ele><time>2026-03-28T09:46:57.999Z</time></trkpt><trkpt lat="43.652239356380896" lon="11.187182300944594"><ele>277.25</ele><time>2026-03-28T09:46:58.999Z</time></trkpt><trkpt lat="43.65217280142053" lon="11.187384840669155"><ele>277.0</ele><time>2026-03-28T09:46:59.999Z</time></trkpt><trkpt lat="43.652128260198026" lon="11.187640325188054"><ele>279.3333333333333</ele><time>2026-03-28T09:47:00.999Z</time></trkpt><trkpt lat="43.652096392273194" lon="11.187915737771583"><ele>281.6666666666667</ele><time>2026-03-28T09:47:01.999Z</time></trkpt><trkpt lat="43.652059763236664" lon="11.188157380716174"><ele>284.0</ele><time>2026-03-28T09:47:02.999Z</time></trkpt><trkpt lat="43.65203049273874" lon="11.188360232110302"><ele>284.0</ele><time>2026-03-28T09:47:03.999Z</time></trkpt><trkpt lat="43.6520294672582" lon="11.188540868624656"><ele>284.0</ele><time>2026-03-28T09:47:04.999Z</time></trkpt><trkpt lat="43.65207809516591" lon="11.188709837428982"><ele>284.0</ele><time>2026-03-28T09:47:05.999Z</time></trkpt><trkpt lat="43.65217951327135" lon="11.18886211835463"><ele>284.0</ele><time>2026-03-28T09:47:06.999Z</time></trkpt><trkpt lat="43.652329804716004" lon="11.188983758450592"><ele>279.33333333333337</ele><time>2026-03-28T09:47:07.999Z</time></trkpt><trkpt lat="43.65249527390115" lon="11.189048213475498"><ele>274.6666666666667</ele><time>2026-03-28T09:47:08.999Z</time></trkpt><trkpt lat="43.65264345271788" lon="11.189089488179313"><ele>270.0</ele><time>2026-03-28T09:47:09.999Z</time></trkpt><trkpt lat="43.65276237354139" lon="11.189174831579416"><ele>275.0</ele><time>2026-03-28T09:47:10.999Z</time></trkpt><trkpt lat="43.65284166951883" lon="11.189337977564403"><ele>280.0</ele><time>2026-03-28T09:47:11.999Z</time></trkpt><trkpt lat="43.65290173847681" lon="11.189526516483948"><ele>285.0</ele><time>2026-03-28T09:47:12.999Z</time></trkpt><trkpt lat="43.65291620704597" lon="11.189766457559248"><ele>283.6666666666667</ele><time>2026-03-28T09:47:13.999Z</time></trkpt><trkpt lat="43.65292439102343" lon="11.19003319767886"><ele>282.33333333333337</ele><time>2026-03-28T09:47:14.999Z</time></trkpt><trkpt lat="43.65291946904577" lon="11.190290081699962"><ele>281.0</ele><time>2026-03-28T09:47:15.999Z</time></trkpt><trkpt lat="43.652961240198984" lon="11.190542099961188"><ele>278.0</ele><time>2026-03-28T09:47:16.999Z</time></trkpt><trkpt lat="43.653053414894615" lon="11.190790327589175"><ele>275.0</ele><time>2026-03-28T09:47:17.999Z</time></trkpt><trkpt lat="43.65319781931935" lon="11.191013906440348"><ele>272.0</ele><time>2026-03-28T09:47:18.999Z</time></trkpt><trkpt lat="43.65334649356049" lon="11.19119847474304"><ele>272.0</ele><time>2026-03-28T09:47:19.999Z</time></trkpt><trkpt lat="43.65347347438821" lon="11.191360769408186"><ele>272.0</ele><time>2026-03-28T09:47:20.999Z</time></trkpt><trkpt lat="43.65355394544054" lon="11.191517501655204"><ele>272.0</ele><time>2026-03-28T09:47:21.999Z</time></trkpt><trkpt lat="43.653617753533986" lon="11.19168490672981"><ele>272.0</ele><time>2026-03-28T09:47:22.999Z</time></trkpt><trkpt lat="43.65362940068131" lon="11.191862827586585"><ele>269.5</ele><time>2026-03-28T09:47:23.999Z</time></trkpt><trkpt lat="43.65359607350538" lon="11.192043760083621"><ele>267.0</ele><time>2026-03-28T09:47:24.999Z</time></trkpt><trkpt lat="43.6535247020224" lon="11.192221242698169"><ele>264.5</ele><time>2026-03-28T09:47:25.999Z</time></trkpt><trkpt lat="43.653404815202755" lon="11.19238018988341"><ele>262.0</ele><time>2026-03-28T09:47:26.999Z</time></trkpt><trkpt lat="43.65327418690529" lon="11.192571101640022"><ele>262.0</ele><time>2026-03-28T09:47:27.999Z</time></trkpt><trkpt lat="43.653145996873924" lon="11.192737497647112"><ele>262.0</ele><time>2026-03-28T09:47:28.999Z</time></trkpt><trkpt lat="43.65302556359952" lon="11.192855241110337"><ele>262.0</ele><time>2026-03-28T09:47:30Z</time></trkpt><trkpt lat="43.65291118563942" lon="11.192945995066944"><ele>263.5</ele><time>2026-03-28T09:47:31Z</time></trkpt><trkpt lat="43.6527812000877" lon="11.192974777830065"><ele>265.0</ele><time>2026-03-28T09:47:32Z</time></trkpt><trkpt lat="43.65264995267967" lon="11.192953077697402"><ele>266.5</ele><time>2026-03-28T09:47:33Z</time></trkpt><trkpt lat="43.652553488183024" lon="11.192888778999352"><ele>268.0</ele><time>2026-03-28T09:47:34Z</time></trkpt><trkpt lat="43.652459882053485" lon="11.192786716663594"><ele>268.0</ele><time>2026-03-28T09:47:35Z</time></trkpt><trkpt lat="43.65235959665159" lon="11.192601491031859"><ele>268.0</ele><time>2026-03-28T09:47:36Z</time></trkpt><trkpt lat="43.652241962190274" lon="11.192385506563166"><ele>268.0</ele><time>2026-03-28T09:47:37Z</time></trkpt><trkpt lat="43.652133139080874" lon="11.192141523830648"><ele>268.3333333333333</ele><time>2026-03-28T09:47:38Z</time></trkpt><trkpt lat="43.65201644475823" lon="11.19189432616232"><ele>268.6666666666667</ele><time>2026-03-28T09:47:39Z</time></trkpt><trkpt lat="43.65190193973633" lon="11.19165434873284"><ele>269.0</ele><time>2026-03-28T09:47:40Z</time></trkpt><trkpt lat="43.6518064553195" lon="11.191456852269443"><ele>264.0</ele><time>2026-03-28T09:47:41Z</time></trkpt><trkpt lat="43.651716964853556" lon="11.19130370178465"><ele>259.0</ele><time>2026-03-28T09:47:42Z</time></trkpt><trkpt lat="43.6516015071841" lon="11.19118325350085"><ele>254.0</ele><time>2026-03-28T09:47:43Z</time></trkpt><trkpt lat="43.65145964882553" lon="11.191122113263626"><ele>249.0</ele><time>2026-03-28T09:47:44Z</time></trkpt><trkpt lat="43.65129661391065" lon="11.191139368494545"><ele>249.0</ele><time>2026-03-28T09:47:45Z</time></trkpt><trkpt lat="43.651146006949325" lon="11.191228175311876"><ele>249.0</ele><time>2026-03-28T09:47:46Z</time></trkpt><trkpt lat="43.65102444214143" lon="11.191380533271277"><ele>249.0</ele><time>2026-03-28T09:47:47Z</time></trkpt><trkpt lat="43.650928802358784" lon="11.191462944459788"><ele>249.0</ele><time>2026-03-28T09:47:48Z</time></trkpt><trkpt lat="43.650810204797644" lon="11.191520819172606"><ele>249.25</ele><time>2026-03-28T09:47:49Z</time></trkpt><trkpt lat="43.65068424582073" lon="11.191474328986638"><ele>249.5</ele><time>2026-03-28T09:47:50Z</time></trkpt><trkpt lat="43.65056786415136" lon="11.191352317644295"><ele>249.75</ele><time>2026-03-28T09:47:51Z</time></trkpt><trkpt lat="43.65050898221051" lon="11.191156720845129"><ele>250.0</ele><time>2026-03-28T09:47:52Z</time></trkpt><trkpt lat="43.65047789834889" lon="11.190932633554723"><ele>250.0</ele><time>2026-03-28T09:47:53Z</time></trkpt><trkpt lat="43.65043046468668" lon="11.190682148772156"><ele>250.0</ele><time>2026-03-28T09:47:54Z</time></trkpt><trkpt lat="43.65039338566472" lon="11.190405518642436"><ele>250.0</ele><time>2026-03-28T09:47:55Z</time></trkpt><trkpt lat="43.650331563899066" lon="11.190141610665275"><ele>253.33333333333331</ele><time>2026-03-28T09:47:56Z</time></trkpt><trkpt lat="43.65026795543603" lon="11.18986620838088"><ele>256.6666666666667</ele><time>2026-03-28T09:47:57Z</time></trkpt><trkpt lat="43.650165278546886" lon="11.189585607693099"><ele>260.0</ele><time>2026-03-28T09:47:58Z</time></trkpt><trkpt lat="43.6500462898072" lon="11.189309453480169"><ele>260.0</ele><time>2026-03-28T09:47:59Z</time></trkpt><trkpt lat="43.649942470391345" lon="11.189060154230875"><ele>260.0</ele><time>2026-03-28T09:48:00Z</time></trkpt><trkpt lat="43.649844820268996" lon="11.188849659526717"><ele>260.0</ele><time>2026-03-28T09:48:01Z</time></trkpt><trkpt lat="43.64977186049943" lon="11.188657468641342"><ele>257.0</ele><time>2026-03-28T09:48:02Z</time></trkpt><trkpt lat="43.64969445916856" lon="11.18848298171807"><ele>254.0</ele><time>2026-03-28T09:48:03Z</time></trkpt><trkpt lat="43.649631533527185" lon="11.188347073490746"><ele>251.0</ele><time>2026-03-28T09:48:04Z</time></trkpt><trkpt lat="43.64957968352207" lon="11.188243364774978"><ele>248.0</ele><time>2026-03-28T09:48:05Z</time></trkpt><trkpt lat="43.64953209032746" lon="11.188175570419368"><ele>245.0</ele><time>2026-03-28T09:48:07Z</time></trkpt><trkpt lat="43.649614419951924" lon="11.188316015033582"><ele>245.00000000000003</ele><time>2026-03-28T09:48:17Z</time></trkpt><trkpt lat="43.64964627746959" lon="11.188429031081487"><ele>245.0</ele><time>2026-03-28T09:48:18Z</time></trkpt><trkpt lat="43.64970084682096" lon="11.188521046723132"><ele>245.0</ele><time>2026-03-28T09:48:19Z</time></trkpt><trkpt lat="43.64975608738169" lon="11.18862859725206"><ele>245.0</ele><time>2026-03-28T09:48:20Z</time></trkpt><trkpt lat="43.64980168237578" lon="11.188715275978353"><ele>245.00000000000003</ele><time>2026-03-28T09:48:21Z</time></trkpt><trkpt lat="43.64980269884215" lon="11.18881126808821"><ele>245.0</ele><time>2026-03-28T09:48:22Z</time></trkpt><trkpt lat="43.64986409612849" lon="11.188961712709867"><ele>245.0</ele><time>2026-03-28T09:48:24Z</time></trkpt><trkpt lat="43.64989817876887" lon="11.189045226872906"><ele>245.0</ele><time>2026-03-28T09:48:25Z</time></trkpt><trkpt lat="43.64993532846886" lon="11.189136256468508"><ele>245.0</ele><time>2026-03-28T09:48:27Z</time></trkpt><trkpt lat="43.65012406028481" lon="11.188809975038698"><ele>245.0</ele><time>2026-03-28T09:48:28Z</time></trkpt><trkpt lat="43.65010576589097" lon="11.18897795734522"><ele>245.0</ele><time>2026-03-28T09:48:29Z</time></trkpt><trkpt lat="43.65016049994088" lon="11.188916540574445"><ele>245.0</ele><time>2026-03-28T09:48:30Z</time></trkpt><trkpt lat="43.65029686631524" lon="11.18892009518949"><ele>245.0</ele><time>2026-03-28T09:48:32Z</time></trkpt><trkpt lat="43.65037547218449" lon="11.188958253043246"><ele>245.0</ele><time>2026-03-28T09:48:33Z</time></trkpt><trkpt lat="43.65042537987984" lon="11.189081841850186"><ele>245.0</ele><time>2026-03-28T09:48:34Z</time></trkpt><trkpt lat="43.65048324586341" lon="11.189221231581815"><ele>245.0</ele><time>2026-03-28T09:48:35Z</time></trkpt><trkpt lat="43.65055241141592" lon="11.189393050066501"><ele>245.0</ele><time>2026-03-28T09:48:36Z</time></trkpt><trkpt lat="43.65063226267017" lon="11.189568782352906"><ele>245.0</ele><time>2026-03-28T09:48:37Z</time></trkpt><trkpt lat="43.650711723441255" lon="11.189739265969056"><ele>245.0</ele><time>2026-03-28T09:48:38Z</time></trkpt><trkpt lat="43.65078260069804" lon="11.189898423144406"><ele>245.0</ele><time>2026-03-28T09:48:39Z</time></trkpt><trkpt lat="43.65084811224463" lon="11.190030950735904"><ele>245.0</ele><time>2026-03-28T09:48:40Z</time></trkpt><trkpt lat="43.65092732769212" lon="11.19012012600956"><ele>245.0</ele><time>2026-03-28T09:48:41Z</time></trkpt><trkpt lat="43.65098410454907" lon="11.190218934470215"><ele>245.0</ele><time>2026-03-28T09:48:42Z</time></trkpt><trkpt lat="43.65104781693185" lon="11.190280139337974"><ele>245.0</ele><time>2026-03-28T09:48:43Z</time></trkpt><trkpt lat="43.65115740268269" lon="11.190332652418437"><ele>244.6</ele><time>2026-03-28T09:48:45Z</time></trkpt><trkpt lat="43.65127808893127" lon="11.19032379351322"><ele>244.2</ele><time>2026-03-28T09:48:47Z</time></trkpt><trkpt lat="43.6513584043627" lon="11.19026846624798"><ele>243.8</ele><time>2026-03-28T09:48:49Z</time></trkpt><trkpt lat="43.65143277829378" lon="11.190227927553359"><ele>243.4</ele><time>2026-03-28T09:48:50.999Z</time></trkpt><trkpt lat="43.651486023860116" lon="11.190162540789643"><ele>243.0</ele><time>2026-03-28T09:48:52.999Z</time></trkpt><trkpt lat="43.65139885169812" lon="11.190212626632704"><ele>243.0</ele><time>2026-03-28T09:49:21.999Z</time></trkpt><trkpt lat="43.65132631950523" lon="11.190248817596506"><ele>243.0</ele><time>2026-03-28T09:49:23.999Z</time></trkpt><trkpt lat="43.651254589193115" lon="11.190323635135048"><ele>243.0</ele><time>2026-03-28T09:49:25.999Z</time></trkpt><trkpt lat="43.65115377607747" lon="11.190281017346656"><ele>243.0</ele><time>2026-03-28T09:49:27.999Z</time></trkpt><trkpt lat="43.65106594137526" lon="11.190252140790825"><ele>243.0</ele><time>2026-03-28T09:49:29.999Z</time></trkpt><trkpt lat="43.65099224150843" lon="11.190153723670393"><ele>243.5</ele><time>2026-03-28T09:49:31.999Z</time></trkpt><trkpt lat="43.65092530363895" lon="11.19005412532005"><ele>244.0</ele><time>2026-03-28T09:49:32.999Z</time></trkpt><trkpt lat="43.65083810280125" lon="11.189952029429396"><ele>244.5</ele><time>2026-03-28T09:49:33.999Z</time></trkpt><trkpt lat="43.65076700783696" lon="11.189823837792977"><ele>245.0</ele><time>2026-03-28T09:49:34.999Z</time></trkpt><trkpt lat="43.65070921631548" lon="11.189675657451636"><ele>243.75</ele><time>2026-03-28T09:49:36Z</time></trkpt><trkpt lat="43.650651841056465" lon="11.189521825748225"><ele>242.5</ele><time>2026-03-28T09:49:37Z</time></trkpt><trkpt lat="43.650586196911966" lon="11.189372088485815"><ele>241.25</ele><time>2026-03-28T09:49:38Z</time></trkpt><trkpt lat="43.650520675412615" lon="11.189220663432854"><ele>240.0</ele><time>2026-03-28T09:49:39Z</time></trkpt><trkpt lat="43.65045364193839" lon="11.189067433310179"><ele>239.0</ele><time>2026-03-28T09:49:40Z</time></trkpt><trkpt lat="43.650382098688844" lon="11.188923109570068"><ele>238.0</ele><time>2026-03-28T09:49:41Z</time></trkpt><trkpt lat="43.650282810577394" lon="11.18878566217248"><ele>237.0</ele><time>2026-03-28T09:49:42Z</time></trkpt><trkpt lat="43.650177781023636" lon="11.188675178886117"><ele>236.0</ele><time>2026-03-28T09:49:43Z</time></trkpt><trkpt lat="43.65008202609134" lon="11.18858577959728"><ele>237.8</ele><time>2026-03-28T09:49:44Z</time></trkpt><trkpt lat="43.649984412201654" lon="11.188530044448614"><ele>239.60000000000002</ele><time>2026-03-28T09:49:45Z</time></trkpt><trkpt lat="43.64989220784502" lon="11.188488325977882"><ele>241.4</ele><time>2026-03-28T09:49:46Z</time></trkpt><trkpt lat="43.6498101422785" lon="11.188448153353056"><ele>243.2</ele><time>2026-03-28T09:49:47Z</time></trkpt><trkpt lat="43.649729856477755" lon="11.188397994165948"><ele>245.0</ele><time>2026-03-28T09:49:48Z</time></trkpt><trkpt lat="43.64963807784226" lon="11.188331881916223"><ele>245.0</ele><time>2026-03-28T09:49:49Z</time></trkpt><trkpt lat="43.64954829719098" lon="11.188258865102945"><ele>245.0</ele><time>2026-03-28T09:49:50Z</time></trkpt><trkpt lat="43.64950225902355" lon="11.188119242089613"><ele>245.0</ele><time>2026-03-28T09:49:51Z</time></trkpt><trkpt lat="43.649436560039895" lon="11.188003889730293"><ele>245.0</ele><time>2026-03-28T09:49:52Z</time></trkpt><trkpt lat="43.649363114394234" lon="11.18789978177719"><ele>245.0</ele><time>2026-03-28T09:49:53Z</time></trkpt><trkpt lat="43.649303640512805" lon="11.18778660518558"><ele>245.4</ele><time>2026-03-28T09:49:54Z</time></trkpt><trkpt lat="43.649252655769246" lon="11.187669742069039"><ele>245.8</ele><time>2026-03-28T09:49:55Z</time></trkpt><trkpt lat="43.64921329716269" lon="11.187549319652595"><ele>246.2</ele><time>2026-03-28T09:49:56Z</time></trkpt><trkpt lat="43.64918883492757" lon="11.187407381393646"><ele>246.6</ele><time>2026-03-28T09:49:57Z</time></trkpt><trkpt lat="43.64917697387176" lon="11.187240995580963"><ele>247.0</ele><time>2026-03-28T09:49:58Z</time></trkpt><trkpt lat="43.649179586849776" lon="11.187062306569404"><ele>247.0</ele><time>2026-03-28T09:49:59Z</time></trkpt><trkpt lat="43.64918302444245" lon="11.186872070310873"><ele>247.0</ele><time>2026-03-28T09:50:00Z</time></trkpt><trkpt lat="43.64918772919707" lon="11.186659150615336"><ele>247.0</ele><time>2026-03-28T09:50:01Z</time></trkpt><trkpt lat="43.64918883164454" lon="11.186460298683457"><ele>247.0</ele><time>2026-03-28T09:50:02Z</time></trkpt><trkpt lat="43.64917416909009" lon="11.186270802524927"><ele>244.33333333333331</ele><time>2026-03-28T09:50:03Z</time></trkpt><trkpt lat="43.64912799438038" lon="11.186074132312363"><ele>241.66666666666669</ele><time>2026-03-28T09:50:04Z</time></trkpt><trkpt lat="43.64905774960471" lon="11.18587421820325"><ele>239.0</ele><time>2026-03-28T09:50:05Z</time></trkpt><trkpt lat="43.64896205795367" lon="11.185690397611765"><ele>236.0</ele><time>2026-03-28T09:50:06Z</time></trkpt><trkpt lat="43.64886905599679" lon="11.185521265447372"><ele>233.0</ele><time>2026-03-28T09:50:07Z</time></trkpt><trkpt lat="43.64879498851561" lon="11.18534906894508"><ele>230.0</ele><time>2026-03-28T09:50:08Z</time></trkpt><trkpt lat="43.64872467787011" lon="11.185165649670372"><ele>227.0</ele><time>2026-03-28T09:50:09Z</time></trkpt><trkpt lat="43.64869146791226" lon="11.18495551746307"><ele>223.33333333333334</ele><time>2026-03-28T09:50:10Z</time></trkpt><trkpt lat="43.64866106348086" lon="11.184713053045032"><ele>219.66666666666669</ele><time>2026-03-28T09:50:11Z</time></trkpt><trkpt lat="43.64863330934299" lon="11.184483519494048"><ele>216.0</ele><time>2026-03-28T09:50:12Z</time></trkpt><trkpt lat="43.64855450987148" lon="11.184254510833247"><ele>218.33333333333331</ele><time>2026-03-28T09:50:13Z</time></trkpt><trkpt lat="43.64844712618935" lon="11.184017878291172"><ele>220.66666666666666</ele><time>2026-03-28T09:50:14Z</time></trkpt><trkpt lat="43.64832740068567" lon="11.18379202945657"><ele>223.0</ele><time>2026-03-28T09:50:15Z</time></trkpt><trkpt lat="43.64817975812924" lon="11.183574108422976"><ele>223.0</ele><time>2026-03-28T09:50:16Z</time></trkpt><trkpt lat="43.648048944626446" lon="11.18336378411005"><ele>223.0</ele><time>2026-03-28T09:50:17Z</time></trkpt><trkpt lat="43.64792145997542" lon="11.183165069154594"><ele>223.0</ele><time>2026-03-28T09:50:18Z</time></trkpt><trkpt lat="43.64781743931031" lon="11.182952105765748"><ele>223.66666666666666</ele><time>2026-03-28T09:50:19Z</time></trkpt><trkpt lat="43.64770447365878" lon="11.182765453935671"><ele>224.33333333333331</ele><time>2026-03-28T09:50:20Z</time></trkpt><trkpt lat="43.64759787116968" lon="11.18258868556811"><ele>225.0</ele><time>2026-03-28T09:50:21Z</time></trkpt><trkpt lat="43.647457446975665" lon="11.182441813443285"><ele>223.0</ele><time>2026-03-28T09:50:22Z</time></trkpt><trkpt lat="43.64727639810301" lon="11.18233224273927"><ele>221.0</ele><time>2026-03-28T09:50:23Z</time></trkpt><trkpt lat="43.6470924831155" lon="11.182259091437912"><ele>219.0</ele><time>2026-03-28T09:50:24Z</time></trkpt><trkpt lat="43.646941925815675" lon="11.182133870443968"><ele>219.0</ele><time>2026-03-28T09:50:25Z</time></trkpt><trkpt lat="43.646804017618706" lon="11.181978825524649"><ele>219.0</ele><time>2026-03-28T09:50:26Z</time></trkpt><trkpt lat="43.64665997386443" lon="11.181777023619317"><ele>219.0</ele><time>2026-03-28T09:50:27Z</time></trkpt><trkpt lat="43.64651453832801" lon="11.18156701534464"><ele>217.0</ele><time>2026-03-28T09:50:28Z</time></trkpt><trkpt lat="43.64634650674293" lon="11.181391649523034"><ele>215.0</ele><time>2026-03-28T09:50:29Z</time></trkpt><trkpt lat="43.64617985216991" lon="11.181227501326426"><ele>213.0</ele><time>2026-03-28T09:50:30Z</time></trkpt><trkpt lat="43.646019899571826" lon="11.18107317758301"><ele>213.0</ele><time>2026-03-28T09:50:31Z</time></trkpt><trkpt lat="43.64587362790595" lon="11.180916838879948"><ele>213.0</ele><time>2026-03-28T09:50:32Z</time></trkpt><trkpt lat="43.64574298594732" lon="11.180740808959792"><ele>213.0</ele><time>2026-03-28T09:50:33Z</time></trkpt><trkpt lat="43.645612156305496" lon="11.180585066740313"><ele>210.0</ele><time>2026-03-28T09:50:34Z</time></trkpt><trkpt lat="43.645500295969306" lon="11.180437999174282"><ele>207.0</ele><time>2026-03-28T09:50:35Z</time></trkpt><trkpt lat="43.64535039902149" lon="11.180312723630479"><ele>204.0</ele><time>2026-03-28T09:50:36Z</time></trkpt><trkpt lat="43.64517396691215" lon="11.18023550191382"><ele>204.0</ele><time>2026-03-28T09:50:37Z</time></trkpt><trkpt lat="43.644996889716865" lon="11.180159510576857"><ele>204.0</ele><time>2026-03-28T09:50:38Z</time></trkpt><trkpt lat="43.64483044982849" lon="11.180066727741655"><ele>204.0</ele><time>2026-03-28T09:50:39Z</time></trkpt><trkpt lat="43.644672579477835" lon="11.17993756475031"><ele>202.0</ele><time>2026-03-28T09:50:40Z</time></trkpt><trkpt lat="43.64453810272233" lon="11.179774953797843"><ele>200.0</ele><time>2026-03-28T09:50:41Z</time></trkpt><trkpt lat="43.644396257589456" lon="11.179585354575874"><ele>198.0</ele><time>2026-03-28T09:50:42Z</time></trkpt><trkpt lat="43.644239244140145" lon="11.179391824083115"><ele>198.0</ele><time>2026-03-28T09:50:43Z</time></trkpt><trkpt lat="43.64408777511138" lon="11.179175030222938"><ele>198.0</ele><time>2026-03-28T09:50:44Z</time></trkpt><trkpt lat="43.64393028175238" lon="11.178961045905913"><ele>198.0</ele><time>2026-03-28T09:50:45Z</time></trkpt><trkpt lat="43.64377333677111" lon="11.17875815469454"><ele>197.0</ele><time>2026-03-28T09:50:46Z</time></trkpt><trkpt lat="43.64362393035158" lon="11.178561978251155"><ele>196.0</ele><time>2026-03-28T09:50:47Z</time></trkpt><trkpt lat="43.6434861792674" lon="11.178365633821686"><ele>195.0</ele><time>2026-03-28T09:50:48Z</time></trkpt><trkpt lat="43.64336968011989" lon="11.178158231516672"><ele>190.66666666666666</ele><time>2026-03-28T09:50:49Z</time></trkpt><trkpt lat="43.643257154034025" lon="11.17795803181684"><ele>186.33333333333331</ele><time>2026-03-28T09:50:50Z</time></trkpt><trkpt lat="43.64314794320041" lon="11.177777775725758"><ele>182.0</ele><time>2026-03-28T09:50:51Z</time></trkpt><trkpt lat="43.643026857670115" lon="11.17760861412511"><ele>182.0</ele><time>2026-03-28T09:50:52Z</time></trkpt><trkpt lat="43.64289970460594" lon="11.177440285285837"><ele>182.0</ele><time>2026-03-28T09:50:53Z</time></trkpt><trkpt lat="43.642790080050624" lon="11.177246533194248"><ele>182.0</ele><time>2026-03-28T09:50:54Z</time></trkpt><trkpt lat="43.642683923855735" lon="11.17705226125869"><ele>182.66666666666666</ele><time>2026-03-28T09:50:55Z</time></trkpt><trkpt lat="43.64259103029435" lon="11.176846499173385"><ele>183.33333333333334</ele><time>2026-03-28T09:50:56Z</time></trkpt><trkpt lat="43.642529530218155" lon="11.176616876315604"><ele>184.0</ele><time>2026-03-28T09:50:56.999Z</time></trkpt><trkpt lat="43.642482164097395" lon="11.176366965982613"><ele>181.0</ele><time>2026-03-28T09:50:57.999Z</time></trkpt><trkpt lat="43.642437392136216" lon="11.17611161249997"><ele>178.0</ele><time>2026-03-28T09:50:58.999Z</time></trkpt><trkpt lat="43.64235469436716" lon="11.17586257151793"><ele>175.0</ele><time>2026-03-28T09:50:59.999Z</time></trkpt><trkpt lat="43.64225922287562" lon="11.175606682929654"><ele>176.66666666666669</ele><time>2026-03-28T09:51:00.999Z</time></trkpt><trkpt lat="43.642145168741756" lon="11.175357370668403"><ele>178.33333333333334</ele><time>2026-03-28T09:51:01.999Z</time></trkpt><trkpt lat="43.642034727980196" lon="11.175127286266198"><ele>180.0</ele><time>2026-03-28T09:51:02.999Z</time></trkpt><trkpt lat="43.641924029290124" lon="11.17491444073182"><ele>175.0</ele><time>2026-03-28T09:51:03.999Z</time></trkpt><trkpt lat="43.64183943028329" lon="11.174698384536219"><ele>170.0</ele><time>2026-03-28T09:51:04.999Z</time></trkpt><trkpt lat="43.641741041499166" lon="11.174516000329316"><ele>165.0</ele><time>2026-03-28T09:51:05.999Z</time></trkpt><trkpt lat="43.641644047038504" lon="11.174376798112164"><ele>165.0</ele><time>2026-03-28T09:51:06.999Z</time></trkpt><trkpt lat="43.64154018671613" lon="11.17426674706387"><ele>165.0</ele><time>2026-03-28T09:51:07.999Z</time></trkpt><trkpt lat="43.64142431819456" lon="11.17419347238564"><ele>165.0</ele><time>2026-03-28T09:51:08.999Z</time></trkpt><trkpt lat="43.64127358341192" lon="11.174213054144175"><ele>165.0</ele><time>2026-03-28T09:51:09.999Z</time></trkpt><trkpt lat="43.641105816252626" lon="11.174271135945432"><ele>164.25</ele><time>2026-03-28T09:51:10.999Z</time></trkpt><trkpt lat="43.640945254681505" lon="11.174346764567696"><ele>163.5</ele><time>2026-03-28T09:51:11.999Z</time></trkpt><trkpt lat="43.64082626965733" lon="11.174406397955279"><ele>162.75</ele><time>2026-03-28T09:51:12.999Z</time></trkpt><trkpt lat="43.64074484099581" lon="11.174504025174086"><ele>162.0</ele><time>2026-03-28T09:51:13.999Z</time></trkpt><trkpt lat="43.64069264485466" lon="11.174663997430997"><ele>162.0</ele><time>2026-03-28T09:51:14.999Z</time></trkpt><trkpt lat="43.64068078873743" lon="11.174842418811691"><ele>162.0</ele><time>2026-03-28T09:51:15.999Z</time></trkpt><trkpt lat="43.64072528846399" lon="11.175008204814663"><ele>162.0</ele><time>2026-03-28T09:51:16.999Z</time></trkpt><trkpt lat="43.640803476284496" lon="11.175155102882163"><ele>162.0</ele><time>2026-03-28T09:51:17.999Z</time></trkpt><trkpt lat="43.64089244437393" lon="11.175315321718111"><ele>162.0</ele><time>2026-03-28T09:51:18.999Z</time></trkpt><trkpt lat="43.640959368404026" lon="11.175479172421673"><ele>162.0</ele><time>2026-03-28T09:51:19.999Z</time></trkpt><trkpt lat="43.64096448533017" lon="11.175670352443758"><ele>162.0</ele><time>2026-03-28T09:51:20.999Z</time></trkpt><trkpt lat="43.640958574808515" lon="11.175894955172085"><ele>162.0</ele><time>2026-03-28T09:51:21.999Z</time></trkpt><trkpt lat="43.64094245401096" lon="11.17613737201781"><ele>162.0</ele><time>2026-03-28T09:51:22.999Z</time></trkpt><trkpt lat="43.64092661212671" lon="11.176345723899923"><ele>162.0</ele><time>2026-03-28T09:51:23.999Z</time></trkpt><trkpt lat="43.64090196736134" lon="11.176518862971657"><ele>162.0</ele><time>2026-03-28T09:51:24.999Z</time></trkpt><trkpt lat="43.6408403847277" lon="11.176650542810528"><ele>162.0</ele><time>2026-03-28T09:51:25.999Z</time></trkpt><trkpt lat="43.64075053341192" lon="11.17673677126995"><ele>162.0</ele><time>2026-03-28T09:51:26.999Z</time></trkpt><trkpt lat="43.64064229681447" lon="11.176768661751607"><ele>162.0</ele><time>2026-03-28T09:51:27.999Z</time></trkpt><trkpt lat="43.640518527913756" lon="11.176728748646672"><ele>162.0</ele><time>2026-03-28T09:51:28.999Z</time></trkpt><trkpt lat="43.640392140740964" lon="11.176651995770117"><ele>162.0</ele><time>2026-03-28T09:51:29.999Z</time></trkpt><trkpt lat="43.64025513443999" lon="11.176505671429775"><ele>157.5</ele><time>2026-03-28T09:51:30.999Z</time></trkpt><trkpt lat="43.64009378329839" lon="11.176298455330052"><ele>153.0</ele><time>2026-03-28T09:51:31.999Z</time></trkpt><trkpt lat="43.63992424483658" lon="11.176076371787882"><ele>153.0</ele><time>2026-03-28T09:51:32.999Z</time></trkpt><trkpt lat="43.63975437969099" lon="11.175869322998754"><ele>153.0</ele><time>2026-03-28T09:51:33.999Z</time></trkpt><trkpt lat="43.639604577557066" lon="11.175701225563104"><ele>153.0</ele><time>2026-03-28T09:51:34.999Z</time></trkpt><trkpt lat="43.63945221899157" lon="11.17557952552715"><ele>150.33333333333334</ele><time>2026-03-28T09:51:35.999Z</time></trkpt><trkpt lat="43.63929330248519" lon="11.175512484439626"><ele>147.66666666666669</ele><time>2026-03-28T09:51:36.999Z</time></trkpt><trkpt lat="43.639113433970806" lon="11.175515146604804"><ele>145.0</ele><time>2026-03-28T09:51:37.999Z</time></trkpt><trkpt lat="43.63891391133541" lon="11.175580259338417"><ele>145.0</ele><time>2026-03-28T09:51:38.999Z</time></trkpt><trkpt lat="43.63870757405464" lon="11.175718701535931"><ele>145.0</ele><time>2026-03-28T09:51:39.999Z</time></trkpt><trkpt lat="43.63849775300027" lon="11.175885711085924"><ele>145.0</ele><time>2026-03-28T09:51:41Z</time></trkpt><trkpt lat="43.638294409915964" lon="11.17605031418923"><ele>145.0</ele><time>2026-03-28T09:51:42Z</time></trkpt><trkpt lat="43.638117253137395" lon="11.176234769932288"><ele>145.0</ele><time>2026-03-28T09:51:43Z</time></trkpt><trkpt lat="43.63795407653696" lon="11.176449896287487"><ele>145.0</ele><time>2026-03-28T09:51:44Z</time></trkpt><trkpt lat="43.6378084814019" lon="11.17665577749966"><ele>145.0</ele><time>2026-03-28T09:51:45Z</time></trkpt><trkpt lat="43.63767584367693" lon="11.176860426724803"><ele>144.0</ele><time>2026-03-28T09:51:46Z</time></trkpt><trkpt lat="43.637546259793346" lon="11.177094002885351"><ele>143.0</ele><time>2026-03-28T09:51:47Z</time></trkpt><trkpt lat="43.63744784408656" lon="11.177363804282871"><ele>142.0</ele><time>2026-03-28T09:51:48Z</time></trkpt><trkpt lat="43.637384048403774" lon="11.17763456795403"><ele>142.0</ele><time>2026-03-28T09:51:49Z</time></trkpt><trkpt lat="43.637313711452535" lon="11.177879658872723"><ele>142.0</ele><time>2026-03-28T09:51:50Z</time></trkpt><trkpt lat="43.63719093891201" lon="11.178071096908184"><ele>142.0</ele><time>2026-03-28T09:51:51Z</time></trkpt><trkpt lat="43.63703854889975" lon="11.178238155857969"><ele>140.33333333333334</ele><time>2026-03-28T09:51:52Z</time></trkpt><trkpt lat="43.63687653822806" lon="11.178407656695425"><ele>138.66666666666666</ele><time>2026-03-28T09:51:53Z</time></trkpt><trkpt lat="43.6367096561171" lon="11.178574580661387"><ele>137.0</ele><time>2026-03-28T09:51:54Z</time></trkpt><trkpt lat="43.636549958896765" lon="11.178723678080948"><ele>137.0</ele><time>2026-03-28T09:51:55Z</time></trkpt><trkpt lat="43.63640312355373" lon="11.178836889942106"><ele>137.0</ele><time>2026-03-28T09:51:56Z</time></trkpt><trkpt lat="43.63625159234686" lon="11.17889965174308"><ele>137.0</ele><time>2026-03-28T09:51:57Z</time></trkpt><trkpt lat="43.636084531212504" lon="11.178924104723436"><ele>134.66666666666666</ele><time>2026-03-28T09:51:58Z</time></trkpt><trkpt lat="43.63592547040367" lon="11.178901826650574"><ele>132.33333333333334</ele><time>2026-03-28T09:51:59Z</time></trkpt><trkpt lat="43.63578481059695" lon="11.178855007118834"><ele>130.0</ele><time>2026-03-28T09:52:00Z</time></trkpt><trkpt lat="43.63564430911397" lon="11.178804439338366"><ele>130.0</ele><time>2026-03-28T09:52:01Z</time></trkpt><trkpt lat="43.63550903754307" lon="11.178750594565347"><ele>130.0</ele><time>2026-03-28T09:52:02Z</time></trkpt><trkpt lat="43.63537677443541" lon="11.17870117009678"><ele>130.0</ele><time>2026-03-28T09:52:03Z</time></trkpt><trkpt lat="43.63524382543157" lon="11.178683072657876"><ele>130.0</ele><time>2026-03-28T09:52:04Z</time></trkpt><trkpt lat="43.63511588415506" lon="11.178656155180825"><ele>129.5</ele><time>2026-03-28T09:52:05Z</time></trkpt><trkpt lat="43.63499662482768" lon="11.178644986748083"><ele>129.0</ele><time>2026-03-28T09:52:06Z</time></trkpt><trkpt lat="43.6348731321029" lon="11.178650405595981"><ele>128.5</ele><time>2026-03-28T09:52:07Z</time></trkpt><trkpt lat="43.63475297551534" lon="11.17866056154115"><ele>128.0</ele><time>2026-03-28T09:52:08Z</time></trkpt><trkpt lat="43.63463075048133" lon="11.178681983731986"><ele>128.0</ele><time>2026-03-28T09:52:09Z</time></trkpt><trkpt lat="43.63449982629571" lon="11.178734497794728"><ele>128.0</ele><time>2026-03-28T09:52:10Z</time></trkpt><trkpt lat="43.63436981400571" lon="11.178813430432092"><ele>128.0</ele><time>2026-03-28T09:52:11Z</time></trkpt><trkpt lat="43.63424986982072" lon="11.178903082645698"><ele>128.0</ele><time>2026-03-28T09:52:12Z</time></trkpt><trkpt lat="43.634123554185145" lon="11.178994380203116"><ele>128.66666666666666</ele><time>2026-03-28T09:52:13Z</time></trkpt><trkpt lat="43.633990930434265" lon="11.179079693611339"><ele>129.33333333333334</ele><time>2026-03-28T09:52:14Z</time></trkpt><trkpt lat="43.633851623031155" lon="11.179170253741002"><ele>130.0</ele><time>2026-03-28T09:52:15Z</time></trkpt><trkpt lat="43.63371219873963" lon="11.179280934680769"><ele>129.66666666666669</ele><time>2026-03-28T09:52:16Z</time></trkpt><trkpt lat="43.63357284192408" lon="11.179425513852006"><ele>129.33333333333334</ele><time>2026-03-28T09:52:17Z</time></trkpt><trkpt lat="43.63343877985464" lon="11.179577702491633"><ele>129.0</ele><time>2026-03-28T09:52:18Z</time></trkpt><trkpt lat="43.63331097160806" lon="11.179723704191062"><ele>129.33333333333334</ele><time>2026-03-28T09:52:19Z</time></trkpt><trkpt lat="43.63318756659385" lon="11.179868477056871"><ele>129.66666666666669</ele><time>2026-03-28T09:52:20Z</time></trkpt><trkpt lat="43.63304378148178" lon="11.18001227689036"><ele>130.0</ele><time>2026-03-28T09:52:21Z</time></trkpt><trkpt lat="43.6328646865073" lon="11.180136786256519"><ele>129.66666666666669</ele><time>2026-03-28T09:52:22Z</time></trkpt><trkpt lat="43.63267165608179" lon="11.18024643268354"><ele>129.33333333333334</ele><time>2026-03-28T09:52:23Z</time></trkpt><trkpt lat="43.63246327216553" lon="11.180345785240952"><ele>129.0</ele><time>2026-03-28T09:52:24Z</time></trkpt><trkpt lat="43.63225345453758" lon="11.180453702038175"><ele>129.0</ele><time>2026-03-28T09:52:25Z</time></trkpt><trkpt lat="43.63203817018033" lon="11.180577921770768"><ele>129.0</ele><time>2026-03-28T09:52:26Z</time></trkpt><trkpt lat="43.63182243267487" lon="11.180705825004553"><ele>128.5</ele><time>2026-03-28T09:52:27Z</time></trkpt><trkpt lat="43.63160142150626" lon="11.180838546678705"><ele>128.0</ele><time>2026-03-28T09:52:28Z</time></trkpt><trkpt lat="43.631375913257585" lon="11.180973666082311"><ele>128.0</ele><time>2026-03-28T09:52:29Z</time></trkpt><trkpt lat="43.6311376323718" lon="11.181090786049523"><ele>128.0</ele><time>2026-03-28T09:52:30Z</time></trkpt><trkpt lat="43.63088642653559" lon="11.1811835509874"><ele>128.0</ele><time>2026-03-28T09:52:31Z</time></trkpt><trkpt lat="43.630624707934196" lon="11.181252248310159"><ele>128.0</ele><time>2026-03-28T09:52:32Z</time></trkpt><trkpt lat="43.63038416021183" lon="11.181350858735964"><ele>128.33333333333331</ele><time>2026-03-28T09:52:33Z</time></trkpt><trkpt lat="43.63017107922482" lon="11.181447249641288"><ele>128.66666666666666</ele><time>2026-03-28T09:52:34Z</time></trkpt><trkpt lat="43.62997668094734" lon="11.18156785172025"><ele>129.0</ele><time>2026-03-28T09:52:35Z</time></trkpt><trkpt lat="43.62979856093649" lon="11.181722015809408"><ele>129.33333333333334</ele><time>2026-03-28T09:52:36Z</time></trkpt><trkpt lat="43.62962735797065" lon="11.181863189116642"><ele>129.66666666666669</ele><time>2026-03-28T09:52:37Z</time></trkpt><trkpt lat="43.62943087180035" lon="11.181930860924604"><ele>130.0</ele><time>2026-03-28T09:52:38Z</time></trkpt><trkpt lat="43.62922124257011" lon="11.181971276449522"><ele>130.0</ele><time>2026-03-28T09:52:39Z</time></trkpt><trkpt lat="43.62903046000487" lon="11.182017351670805"><ele>130.0</ele><time>2026-03-28T09:52:40Z</time></trkpt><trkpt lat="43.62886411230354" lon="11.18205630861372"><ele>130.0</ele><time>2026-03-28T09:52:41Z</time></trkpt><trkpt lat="43.62871914928381" lon="11.18210922070196"><ele>130.25</ele><time>2026-03-28T09:52:42Z</time></trkpt><trkpt lat="43.62859124641969" lon="11.182156516096743"><ele>130.5</ele><time>2026-03-28T09:52:43Z</time></trkpt><trkpt lat="43.62849206918633" lon="11.182176132525026"><ele>130.75</ele><time>2026-03-28T09:52:44Z</time></trkpt><trkpt lat="43.628423991933246" lon="11.182295726668785"><ele>131.0</ele><time>2026-03-28T09:52:45Z</time></trkpt><trkpt lat="43.62835228180527" lon="11.182414125758712"><ele>131.66666666666666</ele><time>2026-03-28T09:52:46Z</time></trkpt><trkpt lat="43.62827023122653" lon="11.18256685792619"><ele>132.33333333333334</ele><time>2026-03-28T09:52:47Z</time></trkpt><trkpt lat="43.628171690443615" lon="11.1827377512719"><ele>133.0</ele><time>2026-03-28T09:52:48Z</time></trkpt><trkpt lat="43.62805437151616" lon="11.182915183418752"><ele>133.0</ele><time>2026-03-28T09:52:49Z</time></trkpt><trkpt lat="43.62793361233104" lon="11.183094824026576"><ele>133.0</ele><time>2026-03-28T09:52:50Z</time></trkpt><trkpt lat="43.62780475753344" lon="11.183268038587242"><ele>133.0</ele><time>2026-03-28T09:52:51Z</time></trkpt><trkpt lat="43.62765451537163" lon="11.183443429848085"><ele>134.66666666666669</ele><time>2026-03-28T09:52:52Z</time></trkpt><trkpt lat="43.62750805273705" lon="11.183588671731606"><ele>136.33333333333334</ele><time>2026-03-28T09:52:53Z</time></trkpt><trkpt lat="43.6273385694134" lon="11.183722046160522"><ele>138.0</ele><time>2026-03-28T09:52:54Z</time></trkpt><trkpt lat="43.62713928769498" lon="11.183805438355794"><ele>138.0</ele><time>2026-03-28T09:52:55Z</time></trkpt><trkpt lat="43.626943404604965" lon="11.183885739770812"><ele>138.0</ele><time>2026-03-28T09:52:56Z</time></trkpt><trkpt lat="43.62673190433139" lon="11.18397048191149"><ele>138.0</ele><time>2026-03-28T09:52:57Z</time></trkpt><trkpt lat="43.626514354336415" lon="11.184030577746492"><ele>139.0</ele><time>2026-03-28T09:52:58Z</time></trkpt><trkpt lat="43.62631738903204" lon="11.184076766298507"><ele>140.0</ele><time>2026-03-28T09:52:59Z</time></trkpt><trkpt lat="43.62613183908297" lon="11.184124847078897"><ele>141.0</ele><time>2026-03-28T09:53:00Z</time></trkpt><trkpt lat="43.625948138531" lon="11.184190980861132"><ele>141.0</ele><time>2026-03-28T09:53:01Z</time></trkpt><trkpt lat="43.62577690390687" lon="11.184277651467454"><ele>141.0</ele><time>2026-03-28T09:53:02Z</time></trkpt><trkpt lat="43.62559531297403" lon="11.184378524530386"><ele>141.0</ele><time>2026-03-28T09:53:03Z</time></trkpt><trkpt lat="43.62543258922005" lon="11.18451767102316"><ele>141.5</ele><time>2026-03-28T09:53:04Z</time></trkpt><trkpt lat="43.62529546074796" lon="11.18465306478101"><ele>142.0</ele><time>2026-03-28T09:53:05Z</time></trkpt><trkpt lat="43.62518787927671" lon="11.184760232488408"><ele>142.5</ele><time>2026-03-28T09:53:06Z</time></trkpt><trkpt lat="43.62510156905402" lon="11.18483250919687"><ele>143.0</ele><time>2026-03-28T09:53:07Z</time></trkpt><trkpt lat="43.62501619839759" lon="11.184912590296985"><ele>144.0</ele><time>2026-03-28T09:53:09Z</time></trkpt><trkpt lat="43.62493081522287" lon="11.184977531862359"><ele>145.0</ele><time>2026-03-28T09:53:10.999Z</time></trkpt><trkpt lat="43.624864117236925" lon="11.18506385453435"><ele>146.0</ele><time>2026-03-28T09:53:11.999Z</time></trkpt><trkpt lat="43.62480490246369" lon="11.185111402909676"><ele>147.0</ele><time>2026-03-28T09:53:12.999Z</time></trkpt><trkpt lat="43.624749807180734" lon="11.185166549921952"><ele>148.0</ele><time>2026-03-28T09:53:13.999Z</time></trkpt><trkpt lat="43.624675422129314" lon="11.185222360243216"><ele>149.0</ele><time>2026-03-28T09:53:14.999Z</time></trkpt><trkpt lat="43.624579847179106" lon="11.18528729201553"><ele>148.2</ele><time>2026-03-28T09:53:15.999Z</time></trkpt><trkpt lat="43.62447219139491" lon="11.18533938210432"><ele>147.4</ele><time>2026-03-28T09:53:16.999Z</time></trkpt><trkpt lat="43.62436341524041" lon="11.185389479593091"><ele>146.6</ele><time>2026-03-28T09:53:17.999Z</time></trkpt><trkpt lat="43.6242602429459" lon="11.185428912075686"><ele>145.8</ele><time>2026-03-28T09:53:18.999Z</time></trkpt><trkpt lat="43.62415047120669" lon="11.185468864696757"><ele>145.0</ele><time>2026-03-28T09:53:19.999Z</time></trkpt><trkpt lat="43.62403237793327" lon="11.185527028196631"><ele>145.0</ele><time>2026-03-28T09:53:20.999Z</time></trkpt><trkpt lat="43.623907200295946" lon="11.185598880539697"><ele>145.0</ele><time>2026-03-28T09:53:21.999Z</time></trkpt><trkpt lat="43.62379547591185" lon="11.185681308438047"><ele>145.0</ele><time>2026-03-28T09:53:22.999Z</time></trkpt><trkpt lat="43.62368501930706" lon="11.185776980850724"><ele>145.0</ele><time>2026-03-28T09:53:23.999Z</time></trkpt><trkpt lat="43.62357620379571" lon="11.185888290565103"><ele>144.5</ele><time>2026-03-28T09:53:24.999Z</time></trkpt><trkpt lat="43.623449788618004" lon="11.185986516506608"><ele>144.0</ele><time>2026-03-28T09:53:25.999Z</time></trkpt><trkpt lat="43.62332793626692" lon="11.186094881357945"><ele>143.5</ele><time>2026-03-28T09:53:26.999Z</time></trkpt><trkpt lat="43.62320366614595" lon="11.186196480122918"><ele>143.0</ele><time>2026-03-28T09:53:27.999Z</time></trkpt><trkpt lat="43.62307437487661" lon="11.18629202497642"><ele>143.0</ele><time>2026-03-28T09:53:28.999Z</time></trkpt><trkpt lat="43.62293741363898" lon="11.186377456229202"><ele>143.0</ele><time>2026-03-28T09:53:29.999Z</time></trkpt><trkpt lat="43.6227861055118" lon="11.18646147291018"><ele>143.0</ele><time>2026-03-28T09:53:30.999Z</time></trkpt><trkpt lat="43.62262891706994" lon="11.18656216905181"><ele>144.0</ele><time>2026-03-28T09:53:31.999Z</time></trkpt><trkpt lat="43.62247459798197" lon="11.186636174091253"><ele>145.0</ele><time>2026-03-28T09:53:32.999Z</time></trkpt><trkpt lat="43.622337598029496" lon="11.186702913699106"><ele>146.0</ele><time>2026-03-28T09:53:33.999Z</time></trkpt><trkpt lat="43.622206010251716" lon="11.186782355669948"><ele>146.0</ele><time>2026-03-28T09:53:34.999Z</time></trkpt><trkpt lat="43.6220635518149" lon="11.186824568251053"><ele>146.0</ele><time>2026-03-28T09:53:35.999Z</time></trkpt><trkpt lat="43.62191495020601" lon="11.186889476851189"><ele>146.0</ele><time>2026-03-28T09:53:36.999Z</time></trkpt><trkpt lat="43.62174131775397" lon="11.186977323860951"><ele>143.33333333333331</ele><time>2026-03-28T09:53:37.999Z</time></trkpt><trkpt lat="43.621533030137485" lon="11.187042584846342"><ele>140.66666666666666</ele><time>2026-03-28T09:53:38.999Z</time></trkpt><trkpt lat="43.62130670732752" lon="11.187082995783676"><ele>138.0</ele><time>2026-03-28T09:53:39.999Z</time></trkpt><trkpt lat="43.62107013780523" lon="11.18714487557199"><ele>138.0</ele><time>2026-03-28T09:53:40.999Z</time></trkpt><trkpt lat="43.62084171072498" lon="11.187204625533433"><ele>138.0</ele><time>2026-03-28T09:53:41.999Z</time></trkpt><trkpt lat="43.62062272968349" lon="11.187268896803424"><ele>138.0</ele><time>2026-03-28T09:53:42.999Z</time></trkpt><trkpt lat="43.62042076486778" lon="11.187312784659916"><ele>138.0</ele><time>2026-03-28T09:53:43.999Z</time></trkpt><trkpt lat="43.62022616909854" lon="11.187367069379142"><ele>138.0</ele><time>2026-03-28T09:53:44.999Z</time></trkpt><trkpt lat="43.620037334235185" lon="11.187440192954226"><ele>139.33333333333334</ele><time>2026-03-28T09:53:45.999Z</time></trkpt><trkpt lat="43.61984596480199" lon="11.187554836070744"><ele>140.66666666666669</ele><time>2026-03-28T09:53:47Z</time></trkpt><trkpt lat="43.61966814688154" lon="11.187713596895437"><ele>142.0</ele><time>2026-03-28T09:53:48Z</time></trkpt><trkpt lat="43.6195032273104" lon="11.187931436329395"><ele>142.0</ele><time>2026-03-28T09:53:49Z</time></trkpt><trkpt lat="43.619350970249954" lon="11.188151155484684"><ele>142.0</ele><time>2026-03-28T09:53:50Z</time></trkpt><trkpt lat="43.61920143732508" lon="11.18834378103116"><ele>142.0</ele><time>2026-03-28T09:53:51Z</time></trkpt><trkpt lat="43.619023566282635" lon="11.188474766036167"><ele>142.0</ele><time>2026-03-28T09:53:52Z</time></trkpt><trkpt lat="43.618817631949966" lon="11.18859109330688"><ele>142.0</ele><time>2026-03-28T09:53:53Z</time></trkpt><trkpt lat="43.61860000843062" lon="11.188708566363381"><ele>141.66666666666669</ele><time>2026-03-28T09:53:54Z</time></trkpt><trkpt lat="43.618385241807154" lon="11.188788713404783"><ele>141.33333333333334</ele><time>2026-03-28T09:53:55Z</time></trkpt><trkpt lat="43.618197568683975" lon="11.18886533435184"><ele>141.0</ele><time>2026-03-28T09:53:56Z</time></trkpt><trkpt lat="43.61803236558593" lon="11.188927363317678"><ele>141.0</ele><time>2026-03-28T09:53:57Z</time></trkpt><trkpt lat="43.6178768483091" lon="11.18899034126758"><ele>141.0</ele><time>2026-03-28T09:53:58Z</time></trkpt><trkpt lat="43.617727861926305" lon="11.189058453404689"><ele>141.0</ele><time>2026-03-28T09:53:59Z</time></trkpt><trkpt lat="43.617583275096" lon="11.189093782962212"><ele>142.75</ele><time>2026-03-28T09:54:00Z</time></trkpt><trkpt lat="43.61745973337604" lon="11.189169748658276"><ele>144.5</ele><time>2026-03-28T09:54:01Z</time></trkpt><trkpt lat="43.617328146434026" lon="11.18923361413008"><ele>146.25</ele><time>2026-03-28T09:54:02Z</time></trkpt><trkpt lat="43.61719103149743" lon="11.189319653790987"><ele>148.0</ele><time>2026-03-28T09:54:03Z</time></trkpt><trkpt lat="43.61705442547869" lon="11.18941630695941"><ele>148.5</ele><time>2026-03-28T09:54:04Z</time></trkpt><trkpt lat="43.616938411204316" lon="11.189518787573398"><ele>149.0</ele><time>2026-03-28T09:54:05Z</time></trkpt><trkpt lat="43.61684276030673" lon="11.18962012745832"><ele>149.5</ele><time>2026-03-28T09:54:06Z</time></trkpt><trkpt lat="43.61675385154414" lon="11.189704745957359"><ele>150.0</ele><time>2026-03-28T09:54:07Z</time></trkpt><trkpt lat="43.61667432746652" lon="11.189781419807845"><ele>150.6</ele><time>2026-03-28T09:54:08Z</time></trkpt><trkpt lat="43.61658656266013" lon="11.18985171233185"><ele>151.2</ele><time>2026-03-28T09:54:09Z</time></trkpt><trkpt lat="43.61648455959674" lon="11.189921434371893"><ele>151.8</ele><time>2026-03-28T09:54:10Z</time></trkpt><trkpt lat="43.61638349621751" lon="11.189992244679988"><ele>152.4</ele><time>2026-03-28T09:54:11Z</time></trkpt><trkpt lat="43.616294446417825" lon="11.19005343161217"><ele>153.0</ele><time>2026-03-28T09:54:12Z</time></trkpt><trkpt lat="43.61621537833686" lon="11.190109389841046"><ele>152.25</ele><time>2026-03-28T09:54:13Z</time></trkpt><trkpt lat="43.61613549265338" lon="11.190158324339025"><ele>151.5</ele><time>2026-03-28T09:54:14Z</time></trkpt><trkpt lat="43.61603105891689" lon="11.190208905292952"><ele>150.75</ele><time>2026-03-28T09:54:15Z</time></trkpt><trkpt lat="43.615900446847306" lon="11.190263463499193"><ele>150.0</ele><time>2026-03-28T09:54:16Z</time></trkpt><trkpt lat="43.61576550787423" lon="11.190320010383958"><ele>150.0</ele><time>2026-03-28T09:54:17Z</time></trkpt><trkpt lat="43.61562137127789" lon="11.190369964440677"><ele>150.0</ele><time>2026-03-28T09:54:18Z</time></trkpt><trkpt lat="43.61549152442216" lon="11.190398852957752"><ele>150.0</ele><time>2026-03-28T09:54:19Z</time></trkpt><trkpt lat="43.615364770424" lon="11.190433757802507"><ele>150.0</ele><time>2026-03-28T09:54:20Z</time></trkpt><trkpt lat="43.61524039058204" lon="11.190464316353129"><ele>148.75</ele><time>2026-03-28T09:54:21Z</time></trkpt><trkpt lat="43.61511962842982" lon="11.190492362331442"><ele>147.5</ele><time>2026-03-28T09:54:22Z</time></trkpt><trkpt lat="43.61499186997222" lon="11.190521864942362"><ele>146.25</ele><time>2026-03-28T09:54:23Z</time></trkpt><trkpt lat="43.61485223588008" lon="11.190558884061424"><ele>145.0</ele><time>2026-03-28T09:54:24Z</time></trkpt><trkpt lat="43.614724073960424" lon="11.190605142603568"><ele>145.0</ele><time>2026-03-28T09:54:25Z</time></trkpt><trkpt lat="43.614597378521196" lon="11.190664034787254"><ele>145.0</ele><time>2026-03-28T09:54:26Z</time></trkpt><trkpt lat="43.61447701437303" lon="11.190718752250264"><ele>145.0</ele><time>2026-03-28T09:54:27Z</time></trkpt><trkpt lat="43.614361910954884" lon="11.190773666094703"><ele>145.0</ele><time>2026-03-28T09:54:28Z</time></trkpt><trkpt lat="43.61424005676701" lon="11.190826024287645"><ele>146.25</ele><time>2026-03-28T09:54:29Z</time></trkpt><trkpt lat="43.61411274161595" lon="11.190878154361934"><ele>147.5</ele><time>2026-03-28T09:54:30Z</time></trkpt><trkpt lat="43.61398806001887" lon="11.19093228118242"><ele>148.75</ele><time>2026-03-28T09:54:31Z</time></trkpt><trkpt lat="43.613863278573064" lon="11.190986839660601"><ele>150.0</ele><time>2026-03-28T09:54:32Z</time></trkpt><trkpt lat="43.61373926049212" lon="11.191038202374054"><ele>149.0</ele><time>2026-03-28T09:54:33Z</time></trkpt><trkpt lat="43.613617687974326" lon="11.191082362026869"><ele>148.0</ele><time>2026-03-28T09:54:34Z</time></trkpt><trkpt lat="43.61349798663567" lon="11.191119358358685"><ele>147.0</ele><time>2026-03-28T09:54:35Z</time></trkpt><trkpt lat="43.613360486685615" lon="11.191149335866562"><ele>146.0</ele><time>2026-03-28T09:54:36Z</time></trkpt><trkpt lat="43.61321481189692" lon="11.19117318467989"><ele>146.0</ele><time>2026-03-28T09:54:37Z</time></trkpt><trkpt lat="43.61305837788985" lon="11.19119375291899"><ele>146.0</ele><time>2026-03-28T09:54:38Z</time></trkpt><trkpt lat="43.612900070699666" lon="11.191216056939167"><ele>146.0</ele><time>2026-03-28T09:54:39Z</time></trkpt><trkpt lat="43.61274121154776" lon="11.191234939578095"><ele>145.66666666666666</ele><time>2026-03-28T09:54:40Z</time></trkpt><trkpt lat="43.612582100949915" lon="11.19125499486123"><ele>145.33333333333334</ele><time>2026-03-28T09:54:41Z</time></trkpt><trkpt lat="43.61242077591974" lon="11.191281801091195"><ele>145.0</ele><time>2026-03-28T09:54:42Z</time></trkpt><trkpt lat="43.61226702732885" lon="11.19133983124388"><ele>145.0</ele><time>2026-03-28T09:54:43Z</time></trkpt><trkpt lat="43.61206987535747" lon="11.191558710230646"><ele>145.0</ele><time>2026-03-28T09:54:44Z</time></trkpt><trkpt lat="43.61188899622413" lon="11.191699788634944"><ele>145.0</ele><time>2026-03-28T09:54:45Z</time></trkpt><trkpt lat="43.61171811992619" lon="11.191853224378407"><ele>145.0</ele><time>2026-03-28T09:54:46Z</time></trkpt><trkpt lat="43.611545274558246" lon="11.192002280974364"><ele>145.0</ele><time>2026-03-28T09:54:47Z</time></trkpt><trkpt lat="43.61136731644455" lon="11.192144065126271"><ele>145.0</ele><time>2026-03-28T09:54:48Z</time></trkpt><trkpt lat="43.61119112521654" lon="11.192275024780734"><ele>145.0</ele><time>2026-03-28T09:54:49Z</time></trkpt><trkpt lat="43.611028250089895" lon="11.192397059735443"><ele>145.0</ele><time>2026-03-28T09:54:50Z</time></trkpt><trkpt lat="43.610854563420965" lon="11.192523662089053"><ele>145.33333333333334</ele><time>2026-03-28T09:54:51Z</time></trkpt><trkpt lat="43.610670748452435" lon="11.192637829400129"><ele>145.66666666666666</ele><time>2026-03-28T09:54:52Z</time></trkpt><trkpt lat="43.61049302345932" lon="11.192690666401251"><ele>146.0</ele><time>2026-03-28T09:54:53Z</time></trkpt><trkpt lat="43.61030767271952" lon="11.19272496829705"><ele>146.0</ele><time>2026-03-28T09:54:54Z</time></trkpt><trkpt lat="43.6101155019855" lon="11.192816157239793"><ele>146.0</ele><time>2026-03-28T09:54:55Z</time></trkpt><trkpt lat="43.609914568569074" lon="11.192939774625142"><ele>146.0</ele><time>2026-03-28T09:54:56Z</time></trkpt><trkpt lat="43.6097210799347" lon="11.19311522606541"><ele>148.0</ele><time>2026-03-28T09:54:57Z</time></trkpt><trkpt lat="43.60952946038042" lon="11.193307214307527"><ele>150.0</ele><time>2026-03-28T09:54:58Z</time></trkpt><trkpt lat="43.60934268147586" lon="11.193488553234328"><ele>150.0</ele><time>2026-03-28T09:54:59Z</time></trkpt><trkpt lat="43.609160359637876" lon="11.193675405542633"><ele>150.0</ele><time>2026-03-28T09:55:00Z</time></trkpt><trkpt lat="43.608981929497695" lon="11.193824161106571"><ele>150.0</ele><time>2026-03-28T09:55:01Z</time></trkpt><trkpt lat="43.608810126651115" lon="11.193953238333107"><ele>152.33333333333334</ele><time>2026-03-28T09:55:02Z</time></trkpt><trkpt lat="43.6086177320179" lon="11.194038201934843"><ele>154.66666666666669</ele><time>2026-03-28T09:55:03Z</time></trkpt><trkpt lat="43.608431857573244" lon="11.194119125847376"><ele>157.0</ele><time>2026-03-28T09:55:04Z</time></trkpt><trkpt lat="43.60824051850095" lon="11.194194680973277"><ele>157.0</ele><time>2026-03-28T09:55:05Z</time></trkpt><trkpt lat="43.60802868563501" lon="11.194238384794048"><ele>157.0</ele><time>2026-03-28T09:55:06Z</time></trkpt><trkpt lat="43.60780371821607" lon="11.194260760593334"><ele>157.0</ele><time>2026-03-28T09:55:07Z</time></trkpt><trkpt lat="43.60758654420647" lon="11.19424706097977"><ele>156.33333333333334</ele><time>2026-03-28T09:55:08Z</time></trkpt><trkpt lat="43.6073831191763" lon="11.194231678001886"><ele>155.66666666666666</ele><time>2026-03-28T09:55:09Z</time></trkpt><trkpt lat="43.6071657491766" lon="11.194215709593921"><ele>155.0</ele><time>2026-03-28T09:55:10Z</time></trkpt><trkpt lat="43.60695032309074" lon="11.194184094201306"><ele>154.66666666666666</ele><time>2026-03-28T09:55:11Z</time></trkpt><trkpt lat="43.60673234833397" lon="11.194167151107896"><ele>154.33333333333334</ele><time>2026-03-28T09:55:12Z</time></trkpt><trkpt lat="43.606532408705796" lon="11.194123400607541"><ele>154.0</ele><time>2026-03-28T09:55:13Z</time></trkpt><trkpt lat="43.60635393492401" lon="11.194115050815595"><ele>154.0</ele><time>2026-03-28T09:55:14Z</time></trkpt><trkpt lat="43.60616314310553" lon="11.194195139981751"><ele>154.0</ele><time>2026-03-28T09:55:15Z</time></trkpt><trkpt lat="43.60595453288683" lon="11.194321374088831"><ele>154.0</ele><time>2026-03-28T09:55:16Z</time></trkpt><trkpt lat="43.60573243571077" lon="11.194455865404711"><ele>151.5</ele><time>2026-03-28T09:55:17Z</time></trkpt><trkpt lat="43.60549640043199" lon="11.19455993929983"><ele>149.0</ele><time>2026-03-28T09:55:18Z</time></trkpt><trkpt lat="43.60527760641855" lon="11.194675939128485"><ele>148.33333333333331</ele><time>2026-03-28T09:55:19Z</time></trkpt><trkpt lat="43.605073364012085" lon="11.194780349123493"><ele>147.66666666666666</ele><time>2026-03-28T09:55:20Z</time></trkpt><trkpt lat="43.604869983092684" lon="11.194868793640607"><ele>147.0</ele><time>2026-03-28T09:55:21Z</time></trkpt><trkpt lat="43.60464670138648" lon="11.194949987326574"><ele>148.5</ele><time>2026-03-28T09:55:22Z</time></trkpt><trkpt lat="43.60440978802882" lon="11.195050581778204"><ele>150.0</ele><time>2026-03-28T09:55:23Z</time></trkpt><trkpt lat="43.604165140116926" lon="11.195126262332543"><ele>150.0</ele><time>2026-03-28T09:55:24Z</time></trkpt><trkpt lat="43.60391666712626" lon="11.195204122418028"><ele>150.0</ele><time>2026-03-28T09:55:25Z</time></trkpt><trkpt lat="43.60367535399142" lon="11.195295332824266"><ele>149.5</ele><time>2026-03-28T09:55:26Z</time></trkpt><trkpt lat="43.6034315957516" lon="11.195405934833916"><ele>149.0</ele><time>2026-03-28T09:55:27Z</time></trkpt><trkpt lat="43.60319214576877" lon="11.195548427799483"><ele>151.0</ele><time>2026-03-28T09:55:28Z</time></trkpt><trkpt lat="43.60295686246666" lon="11.195710326331794"><ele>153.0</ele><time>2026-03-28T09:55:29Z</time></trkpt><trkpt lat="43.60272989952572" lon="11.195876251240454"><ele>153.5</ele><time>2026-03-28T09:55:30Z</time></trkpt><trkpt lat="43.60251031900892" lon="11.196021555040245"><ele>154.0</ele><time>2026-03-28T09:55:31Z</time></trkpt><trkpt lat="43.602297328007246" lon="11.196166103295019"><ele>154.0</ele><time>2026-03-28T09:55:31.999Z</time></trkpt><trkpt lat="43.60207516793674" lon="11.196308299031234"><ele>154.0</ele><time>2026-03-28T09:55:32.999Z</time></trkpt><trkpt lat="43.60185901225685" lon="11.196478672478383"><ele>156.0</ele><time>2026-03-28T09:55:33.999Z</time></trkpt><trkpt lat="43.60166110682104" lon="11.196673585005458"><ele>158.0</ele><time>2026-03-28T09:55:34.999Z</time></trkpt><trkpt lat="43.601492987764054" lon="11.196884039320633"><ele>158.0</ele><time>2026-03-28T09:55:35.999Z</time></trkpt><trkpt lat="43.60131017684907" lon="11.19706789321917"><ele>158.0</ele><time>2026-03-28T09:55:36.999Z</time></trkpt><trkpt lat="43.60110306510664" lon="11.197219758092267"><ele>158.5</ele><time>2026-03-28T09:55:37.999Z</time></trkpt><trkpt lat="43.60088022008941" lon="11.197342458931187"><ele>159.0</ele><time>2026-03-28T09:55:38.999Z</time></trkpt><trkpt lat="43.60066371343975" lon="11.197472369139012"><ele>159.0</ele><time>2026-03-28T09:55:39.999Z</time></trkpt><trkpt lat="43.60045797009039" lon="11.197560899019882"><ele>159.0</ele><time>2026-03-28T09:55:40.999Z</time></trkpt><trkpt lat="43.60028001273106" lon="11.197650938236983"><ele>159.0</ele><time>2026-03-28T09:55:41.999Z</time></trkpt><trkpt lat="43.60012125501528" lon="11.197752761221608"><ele>159.0</ele><time>2026-03-28T09:55:42.999Z</time></trkpt><trkpt lat="43.599975591349995" lon="11.197916281880538"><ele>159.0</ele><time>2026-03-28T09:55:43.999Z</time></trkpt><trkpt lat="43.599822793601746" lon="11.198116745615025"><ele>159.0</ele><time>2026-03-28T09:55:44.999Z</time></trkpt><trkpt lat="43.59964710395251" lon="11.198275447184235"><ele>159.0</ele><time>2026-03-28T09:55:45.999Z</time></trkpt><trkpt lat="43.599446752296444" lon="11.198430990536894"><ele>159.0</ele><time>2026-03-28T09:55:46.999Z</time></trkpt><trkpt lat="43.599253910212134" lon="11.198626403487593"><ele>159.0</ele><time>2026-03-28T09:55:47.999Z</time></trkpt><trkpt lat="43.599053494761975" lon="11.198789506361553"><ele>159.0</ele><time>2026-03-28T09:55:48.999Z</time></trkpt><trkpt lat="43.598856132976834" lon="11.198908473042929"><ele>159.0</ele><time>2026-03-28T09:55:49.999Z</time></trkpt><trkpt lat="43.598669742502096" lon="11.19902058190552"><ele>159.66666666666666</ele><time>2026-03-28T09:55:50.999Z</time></trkpt><trkpt lat="43.59850476966706" lon="11.199137029682518"><ele>160.33333333333331</ele><time>2026-03-28T09:55:51.999Z</time></trkpt><trkpt lat="43.598366145167454" lon="11.199238767584866"><ele>161.0</ele><time>2026-03-28T09:55:53Z</time></trkpt><trkpt lat="43.59823849563123" lon="11.199397130892377"><ele>161.0</ele><time>2026-03-28T09:55:54Z</time></trkpt><trkpt lat="43.59810579310019" lon="11.19961142636592"><ele>161.0</ele><time>2026-03-28T09:55:55Z</time></trkpt><trkpt lat="43.59796949478534" lon="11.19983286467259"><ele>161.0</ele><time>2026-03-28T09:55:56Z</time></trkpt><trkpt lat="43.59782528580408" lon="11.20005957360629"><ele>160.66666666666666</ele><time>2026-03-28T09:55:57Z</time></trkpt><trkpt lat="43.59768383171387" lon="11.200293365408186"><ele>160.33333333333334</ele><time>2026-03-28T09:55:58Z</time></trkpt><trkpt lat="43.59754449511977" lon="11.20054395841347"><ele>160.0</ele><time>2026-03-28T09:55:59Z</time></trkpt><trkpt lat="43.59741190246331" lon="11.200804137421262"><ele>161.66666666666669</ele><time>2026-03-28T09:56:00Z</time></trkpt><trkpt lat="43.59728687078384" lon="11.201044351625233"><ele>163.33333333333334</ele><time>2026-03-28T09:56:01Z</time></trkpt><trkpt lat="43.59715986810417" lon="11.201260035705502"><ele>165.0</ele><time>2026-03-28T09:56:02Z</time></trkpt><trkpt lat="43.59701956915183" lon="11.201475647173943"><ele>164.0</ele><time>2026-03-28T09:56:03Z</time></trkpt><trkpt lat="43.596877910821064" lon="11.2017015766607"><ele>163.0</ele><time>2026-03-28T09:56:04Z</time></trkpt><trkpt lat="43.596747346513915" lon="11.201916427769776"><ele>162.0</ele><time>2026-03-28T09:56:05Z</time></trkpt><trkpt lat="43.59662176161504" lon="11.202102852723177"><ele>162.0</ele><time>2026-03-28T09:56:06Z</time></trkpt><trkpt lat="43.59649508102993" lon="11.20225352054151"><ele>162.0</ele><time>2026-03-28T09:56:07Z</time></trkpt><trkpt lat="43.59634042008227" lon="11.202366277970967"><ele>162.0</ele><time>2026-03-28T09:56:08Z</time></trkpt><trkpt lat="43.59615337024479" lon="11.202426490758898"><ele>163.33333333333334</ele><time>2026-03-28T09:56:09Z</time></trkpt><trkpt lat="43.595957728108345" lon="11.20244712906955"><ele>164.66666666666669</ele><time>2026-03-28T09:56:10Z</time></trkpt><trkpt lat="43.595795256407" lon="11.20245346875371"><ele>166.0</ele><time>2026-03-28T09:56:11Z</time></trkpt><trkpt lat="43.595641450289705" lon="11.202462708749765"><ele>166.0</ele><time>2026-03-28T09:56:12Z</time></trkpt><trkpt lat="43.59549807355539" lon="11.202447854945424"><ele>166.0</ele><time>2026-03-28T09:56:13Z</time></trkpt><trkpt lat="43.595360576765565" lon="11.20236941896119"><ele>166.0</ele><time>2026-03-28T09:56:14Z</time></trkpt><trkpt lat="43.59522735567652" lon="11.20229586189316"><ele>166.0</ele><time>2026-03-28T09:56:15Z</time></trkpt><trkpt lat="43.59509008164998" lon="11.20222843776008"><ele>164.0</ele><time>2026-03-28T09:56:16Z</time></trkpt><trkpt lat="43.59495138814092" lon="11.202173707054177"><ele>162.0</ele><time>2026-03-28T09:56:17Z</time></trkpt><trkpt lat="43.594830850511215" lon="11.202126732291184"><ele>160.0</ele><time>2026-03-28T09:56:18Z</time></trkpt><trkpt lat="43.59471072133902" lon="11.202078928041221"><ele>158.0</ele><time>2026-03-28T09:56:19Z</time></trkpt><trkpt lat="43.594584454758206" lon="11.20203223277816"><ele>158.8</ele><time>2026-03-28T09:56:20Z</time></trkpt><trkpt lat="43.59446703360585" lon="11.201983193791396"><ele>159.60000000000002</ele><time>2026-03-28T09:56:21Z</time></trkpt><trkpt lat="43.59436700217765" lon="11.201930107925552"><ele>160.39999999999998</ele><time>2026-03-28T09:56:22Z</time></trkpt><trkpt lat="43.59428878055061" lon="11.201875492880895"><ele>161.2</ele><time>2026-03-28T09:56:23Z</time></trkpt><trkpt lat="43.594224105339755" lon="11.201824695555361"><ele>162.0</ele><time>2026-03-28T09:56:24Z</time></trkpt><trkpt lat="43.594144162048735" lon="11.20176741220625"><ele>162.0</ele><time>2026-03-28T09:56:25Z</time></trkpt><trkpt lat="43.5940347157486" lon="11.201848380822227"><ele>162.0</ele><time>2026-03-28T09:56:27Z</time></trkpt><trkpt lat="43.593987392253545" lon="11.201954983362214"><ele>162.0</ele><time>2026-03-28T09:56:28Z</time></trkpt><trkpt lat="43.59393676716011" lon="11.202093568369033"><ele>162.0</ele><time>2026-03-28T09:56:29Z</time></trkpt><trkpt lat="43.593857179082065" lon="11.202249115057514"><ele>162.0</ele><time>2026-03-28T09:56:30Z</time></trkpt><trkpt lat="43.5937481136798" lon="11.20239488308046"><ele>162.0</ele><time>2026-03-28T09:56:31Z</time></trkpt><trkpt lat="43.593614191254915" lon="11.202537701376613"><ele>162.0</ele><time>2026-03-28T09:56:32Z</time></trkpt><trkpt lat="43.59347241957344" lon="11.202696564613381"><ele>162.0</ele><time>2026-03-28T09:56:33Z</time></trkpt><trkpt lat="43.59332626194812" lon="11.202855628976689"><ele>162.0</ele><time>2026-03-28T09:56:34Z</time></trkpt><trkpt lat="43.593167712449876" lon="11.20301737061822"><ele>162.0</ele><time>2026-03-28T09:56:35Z</time></trkpt><trkpt lat="43.593003267628305" lon="11.203179647972206"><ele>160.66666666666666</ele><time>2026-03-28T09:56:36Z</time></trkpt><trkpt lat="43.592833776358184" lon="11.203362760696288"><ele>159.33333333333331</ele><time>2026-03-28T09:56:37Z</time></trkpt><trkpt lat="43.59266343404483" lon="11.203558235700116"><ele>158.0</ele><time>2026-03-28T09:56:38Z</time></trkpt><trkpt lat="43.59249589623109" lon="11.203763137387748"><ele>158.0</ele><time>2026-03-28T09:56:39Z</time></trkpt><trkpt lat="43.59232269489644" lon="11.203984177904093"><ele>158.0</ele><time>2026-03-28T09:56:40Z</time></trkpt><trkpt lat="43.592143430112266" lon="11.20420838107741"><ele>160.5</ele><time>2026-03-28T09:56:41Z</time></trkpt><trkpt lat="43.591955117877006" lon="11.204440317900087"><ele>163.0</ele><time>2026-03-28T09:56:42Z</time></trkpt><trkpt lat="43.59177748836932" lon="11.204662636064038"><ele>164.33333333333334</ele><time>2026-03-28T09:56:43Z</time></trkpt><trkpt lat="43.59161628605153" lon="11.20486454277998"><ele>165.66666666666666</ele><time>2026-03-28T09:56:44Z</time></trkpt><trkpt lat="43.591467775899844" lon="11.20505234216964"><ele>167.0</ele><time>2026-03-28T09:56:45Z</time></trkpt><trkpt lat="43.59133208526782" lon="11.20522178458942"><ele>167.0</ele><time>2026-03-28T09:56:46Z</time></trkpt><trkpt lat="43.591203341800465" lon="11.205362248078083"><ele>167.0</ele><time>2026-03-28T09:56:47Z</time></trkpt><trkpt lat="43.591063985936344" lon="11.205454305051818"><ele>167.0</ele><time>2026-03-28T09:56:48Z</time></trkpt><trkpt lat="43.59092409496912" lon="11.205511979566019"><ele>167.33333333333331</ele><time>2026-03-28T09:56:49Z</time></trkpt><trkpt lat="43.59080889491092" lon="11.205617740642765"><ele>167.66666666666666</ele><time>2026-03-28T09:56:50Z</time></trkpt><trkpt lat="43.590707842632526" lon="11.20579685602582"><ele>168.0</ele><time>2026-03-28T09:56:51Z</time></trkpt><trkpt lat="43.5906025083762" lon="11.206011850961357"><ele>168.0</ele><time>2026-03-28T09:56:52Z</time></trkpt><trkpt lat="43.59047640575357" lon="11.206237198908314"><ele>168.0</ele><time>2026-03-28T09:56:53Z</time></trkpt><trkpt lat="43.59033203261576" lon="11.206470604190208"><ele>168.0</ele><time>2026-03-28T09:56:54Z</time></trkpt><trkpt lat="43.590182867641516" lon="11.206712068822771"><ele>170.33333333333334</ele><time>2026-03-28T09:56:55Z</time></trkpt><trkpt lat="43.59003741144543" lon="11.206950642622724"><ele>172.66666666666669</ele><time>2026-03-28T09:56:56Z</time></trkpt><trkpt lat="43.58989520172456" lon="11.20716560278818"><ele>175.0</ele><time>2026-03-28T09:56:57Z</time></trkpt><trkpt lat="43.58975987698353" lon="11.207342059116526"><ele>177.0</ele><time>2026-03-28T09:56:58Z</time></trkpt><trkpt lat="43.58963215230818" lon="11.207497138174741"><ele>179.0</ele><time>2026-03-28T09:56:59Z</time></trkpt><trkpt lat="43.589498733904115" lon="11.207607685918282"><ele>181.0</ele><time>2026-03-28T09:57:00Z</time></trkpt><trkpt lat="43.58933382700277" lon="11.207691330236019"><ele>181.0</ele><time>2026-03-28T09:57:01Z</time></trkpt><trkpt lat="43.58913631717156" lon="11.207754170053764"><ele>181.0</ele><time>2026-03-28T09:57:02Z</time></trkpt><trkpt lat="43.58896333157426" lon="11.207819417759554"><ele>181.0</ele><time>2026-03-28T09:57:03Z</time></trkpt><trkpt lat="43.58881978732637" lon="11.207879757338253"><ele>181.0</ele><time>2026-03-28T09:57:04Z</time></trkpt><trkpt lat="43.58868536866746" lon="11.20794008797102"><ele>181.0</ele><time>2026-03-28T09:57:05Z</time></trkpt><trkpt lat="43.58856059738317" lon="11.207989639644564"><ele>181.0</ele><time>2026-03-28T09:57:06Z</time></trkpt><trkpt lat="43.58844707925505" lon="11.20803207015101"><ele>181.0</ele><time>2026-03-28T09:57:07Z</time></trkpt><trkpt lat="43.58833473867486" lon="11.208082843033509"><ele>182.33333333333334</ele><time>2026-03-28T09:57:08Z</time></trkpt><trkpt lat="43.58818972350831" lon="11.208127204223931"><ele>183.66666666666666</ele><time>2026-03-28T09:57:09Z</time></trkpt><trkpt lat="43.58803642106141" lon="11.208224276893878"><ele>185.0</ele><time>2026-03-28T09:57:10Z</time></trkpt><trkpt lat="43.58787290616365" lon="11.208307380184532"><ele>182.66666666666666</ele><time>2026-03-28T09:57:11Z</time></trkpt><trkpt lat="43.58772657390304" lon="11.208411935837773"><ele>180.33333333333334</ele><time>2026-03-28T09:57:12Z</time></trkpt><trkpt lat="43.587565924935625" lon="11.208504613291495"><ele>178.0</ele><time>2026-03-28T09:57:13Z</time></trkpt><trkpt lat="43.58740650922424" lon="11.208620054764575"><ele>178.0</ele><time>2026-03-28T09:57:14Z</time></trkpt><trkpt lat="43.587242848050565" lon="11.208728699893115"><ele>178.0</ele><time>2026-03-28T09:57:15Z</time></trkpt><trkpt lat="43.587062490139466" lon="11.208834476503647"><ele>178.0</ele><time>2026-03-28T09:57:16Z</time></trkpt><trkpt lat="43.586891043029055" lon="11.208938301607464"><ele>179.0</ele><time>2026-03-28T09:57:17Z</time></trkpt><trkpt lat="43.58673134770235" lon="11.209063087857789"><ele>180.0</ele><time>2026-03-28T09:57:18Z</time></trkpt><trkpt lat="43.586558160406085" lon="11.209171772088386"><ele>181.0</ele><time>2026-03-28T09:57:19Z</time></trkpt><trkpt lat="43.58638739512198" lon="11.209283207300123"><ele>181.0</ele><time>2026-03-28T09:57:20Z</time></trkpt><trkpt lat="43.58621703096815" lon="11.209384653222143"><ele>181.0</ele><time>2026-03-28T09:57:21Z</time></trkpt><trkpt lat="43.58604794618496" lon="11.209488616922854"><ele>181.0</ele><time>2026-03-28T09:57:22Z</time></trkpt><trkpt lat="43.585872147394284" lon="11.209602007221557"><ele>181.33333333333334</ele><time>2026-03-28T09:57:23Z</time></trkpt><trkpt lat="43.585691488468434" lon="11.209720670593518"><ele>181.66666666666666</ele><time>2026-03-28T09:57:24Z</time></trkpt><trkpt lat="43.5855079276724" lon="11.209842538684542"><ele>182.0</ele><time>2026-03-28T09:57:25Z</time></trkpt><trkpt lat="43.585317262580745" lon="11.20996407196108"><ele>179.0</ele><time>2026-03-28T09:57:26Z</time></trkpt><trkpt lat="43.58513280451711" lon="11.210077789016868"><ele>176.0</ele><time>2026-03-28T09:57:27Z</time></trkpt><trkpt lat="43.58495673265511" lon="11.21018845005389"><ele>173.0</ele><time>2026-03-28T09:57:28Z</time></trkpt><trkpt lat="43.58477884266331" lon="11.21030844420595"><ele>173.0</ele><time>2026-03-28T09:57:29Z</time></trkpt><trkpt lat="43.58459699298135" lon="11.210426987154271"><ele>173.0</ele><time>2026-03-28T09:57:30Z</time></trkpt><trkpt lat="43.584408059691306" lon="11.210521271846666"><ele>173.0</ele><time>2026-03-28T09:57:31Z</time></trkpt><trkpt lat="43.58423613590512" lon="11.210649713700114"><ele>173.33333333333331</ele><time>2026-03-28T09:57:32Z</time></trkpt><trkpt lat="43.584048400291074" lon="11.210739765065231"><ele>173.66666666666666</ele><time>2026-03-28T09:57:33Z</time></trkpt><trkpt lat="43.58388379381402" lon="11.210890918471332"><ele>174.0</ele><time>2026-03-28T09:57:34Z</time></trkpt><trkpt lat="43.58371963230831" lon="11.211034910097359"><ele>174.0</ele><time>2026-03-28T09:57:35Z</time></trkpt><trkpt lat="43.583558833235735" lon="11.211179706738386"><ele>174.0</ele><time>2026-03-28T09:57:36Z</time></trkpt><trkpt lat="43.58338339313973" lon="11.211304691404425"><ele>174.0</ele><time>2026-03-28T09:57:37Z</time></trkpt><trkpt lat="43.58316830948137" lon="11.211372208754288"><ele>174.0</ele><time>2026-03-28T09:57:38Z</time></trkpt><trkpt lat="43.58294595571105" lon="11.211482169568377"><ele>174.0</ele><time>2026-03-28T09:57:39Z</time></trkpt><trkpt lat="43.58272596335885" lon="11.211574731638613"><ele>175.33333333333334</ele><time>2026-03-28T09:57:40Z</time></trkpt><trkpt lat="43.582527438607435" lon="11.211664821771318"><ele>176.66666666666669</ele><time>2026-03-28T09:57:41Z</time></trkpt><trkpt lat="43.582331336614764" lon="11.211752622344157"><ele>178.0</ele><time>2026-03-28T09:57:42Z</time></trkpt><trkpt lat="43.58212546569821" lon="11.211847064908037"><ele>177.33333333333334</ele><time>2026-03-28T09:57:43Z</time></trkpt><trkpt lat="43.58192789531721" lon="11.211932681640493"><ele>176.66666666666666</ele><time>2026-03-28T09:57:43.999Z</time></trkpt><trkpt lat="43.581752310593444" lon="11.212011345315387"><ele>176.0</ele><time>2026-03-28T09:57:44.999Z</time></trkpt><trkpt lat="43.58158191182249" lon="11.21203972748287"><ele>176.0</ele><time>2026-03-28T09:57:45.999Z</time></trkpt><trkpt lat="43.58142478144615" lon="11.212056650908954"><ele>176.0</ele><time>2026-03-28T09:57:46.999Z</time></trkpt><trkpt lat="43.58126369082243" lon="11.212013386251245"><ele>176.0</ele><time>2026-03-28T09:57:47.999Z</time></trkpt><trkpt lat="43.581087694200754" lon="11.211976894226344"><ele>175.33333333333331</ele><time>2026-03-28T09:57:48.999Z</time></trkpt><trkpt lat="43.580914215151786" lon="11.211979100007527"><ele>174.66666666666666</ele><time>2026-03-28T09:57:49.999Z</time></trkpt><trkpt lat="43.580728101781105" lon="11.212012621904657"><ele>174.0</ele><time>2026-03-28T09:57:50.999Z</time></trkpt><trkpt lat="43.5805670648499" lon="11.212023567567273"><ele>174.0</ele><time>2026-03-28T09:57:51.999Z</time></trkpt><trkpt lat="43.580423459797" lon="11.212043387148176"><ele>174.0</ele><time>2026-03-28T09:57:52.999Z</time></trkpt><trkpt lat="43.580304953382424" lon="11.212065260895827"><ele>174.0</ele><time>2026-03-28T09:57:53.999Z</time></trkpt><trkpt lat="43.580200753145164" lon="11.21208740211597"><ele>174.0</ele><time>2026-03-28T09:57:54.999Z</time></trkpt><trkpt lat="43.580109001312245" lon="11.212110469154023"><ele>174.0</ele><time>2026-03-28T09:57:55.999Z</time></trkpt><trkpt lat="43.580022839600424" lon="11.212132009613542"><ele>174.0</ele><time>2026-03-28T09:57:56.999Z</time></trkpt><trkpt lat="43.57993291769011" lon="11.212157758371193"><ele>174.0</ele><time>2026-03-28T09:57:57.999Z</time></trkpt><trkpt lat="43.57981702657505" lon="11.212195407793072"><ele>174.0</ele><time>2026-03-28T09:57:59Z</time></trkpt><trkpt lat="43.57968786952052" lon="11.212245665297308"><ele>174.0</ele><time>2026-03-28T09:58:00Z</time></trkpt><trkpt lat="43.579548322139956" lon="11.21230978755118"><ele>174.33333333333334</ele><time>2026-03-28T09:58:01Z</time></trkpt><trkpt lat="43.5793982348617" lon="11.212381902963747"><ele>174.66666666666669</ele><time>2026-03-28T09:58:02Z</time></trkpt><trkpt lat="43.57923701694802" lon="11.212487401537548"><ele>175.0</ele><time>2026-03-28T09:58:03Z</time></trkpt><trkpt lat="43.57906694097624" lon="11.212568911743059"><ele>175.0</ele><time>2026-03-28T09:58:04Z</time></trkpt><trkpt lat="43.57890461532264" lon="11.212644606676875"><ele>175.0</ele><time>2026-03-28T09:58:05Z</time></trkpt><trkpt lat="43.57875485274634" lon="11.212729225274796"><ele>175.0</ele><time>2026-03-28T09:58:06Z</time></trkpt><trkpt lat="43.57861425866687" lon="11.212844200228396"><ele>175.33333333333334</ele><time>2026-03-28T09:58:07Z</time></trkpt><trkpt lat="43.57846809250241" lon="11.21298836458512"><ele>175.66666666666666</ele><time>2026-03-28T09:58:08Z</time></trkpt><trkpt lat="43.57831735544725" lon="11.213117439344902"><ele>176.0</ele><time>2026-03-28T09:58:09Z</time></trkpt><trkpt lat="43.57817632394186" lon="11.213311729498098"><ele>176.0</ele><time>2026-03-28T09:58:10Z</time></trkpt><trkpt lat="43.57804226917126" lon="11.213520498804803"><ele>176.0</ele><time>2026-03-28T09:58:11Z</time></trkpt><trkpt lat="43.57790613721395" lon="11.21371654232394"><ele>176.0</ele><time>2026-03-28T09:58:12Z</time></trkpt><trkpt lat="43.57777499804661" lon="11.21389871206981"><ele>175.66666666666666</ele><time>2026-03-28T09:58:13Z</time></trkpt><trkpt lat="43.577653286972904" lon="11.214066575431668"><ele>175.33333333333334</ele><time>2026-03-28T09:58:14Z</time></trkpt><trkpt lat="43.57752886321679" lon="11.21423121572634"><ele>175.0</ele><time>2026-03-28T09:58:15Z</time></trkpt><trkpt lat="43.57739144319285" lon="11.214360725667623"><ele>175.0</ele><time>2026-03-28T09:58:16Z</time></trkpt><trkpt lat="43.57724437763253" lon="11.214454235083386"><ele>175.0</ele><time>2026-03-28T09:58:17Z</time></trkpt><trkpt lat="43.57707217244917" lon="11.21452911731499"><ele>175.0</ele><time>2026-03-28T09:58:18Z</time></trkpt><trkpt lat="43.57687609494259" lon="11.214600000552922"><ele>174.33333333333334</ele><time>2026-03-28T09:58:19Z</time></trkpt><trkpt lat="43.57666711793706" lon="11.214696881352804"><ele>173.66666666666666</ele><time>2026-03-28T09:58:20Z</time></trkpt><trkpt lat="43.576464037416585" lon="11.214820830153776"><ele>173.0</ele><time>2026-03-28T09:58:21Z</time></trkpt><trkpt lat="43.576262023957334" lon="11.214913169201004"><ele>174.33333333333331</ele><time>2026-03-28T09:58:22Z</time></trkpt><trkpt lat="43.57605736207908" lon="11.21499320125556"><ele>175.66666666666666</ele><time>2026-03-28T09:58:23Z</time></trkpt><trkpt lat="43.57585152353112" lon="11.215077264782646"><ele>177.0</ele><time>2026-03-28T09:58:24Z</time></trkpt><trkpt lat="43.575651144641995" lon="11.21517309844173"><ele>177.0</ele><time>2026-03-28T09:58:25Z</time></trkpt><trkpt lat="43.575471598845745" lon="11.215277846432546"><ele>177.0</ele><time>2026-03-28T09:58:26Z</time></trkpt><trkpt lat="43.575274798620505" lon="11.215343437487363"><ele>177.0</ele><time>2026-03-28T09:58:27Z</time></trkpt><trkpt lat="43.575085799644356" lon="11.215416338458944"><ele>176.66666666666666</ele><time>2026-03-28T09:58:28Z</time></trkpt><trkpt lat="43.57488861219069" lon="11.215487314847659"><ele>176.33333333333331</ele><time>2026-03-28T09:58:29Z</time></trkpt><trkpt lat="43.57468637065244" lon="11.21555554670155"><ele>176.0</ele><time>2026-03-28T09:58:30Z</time></trkpt><trkpt lat="43.57449215414988" lon="11.2156287356389"><ele>176.33333333333331</ele><time>2026-03-28T09:58:31Z</time></trkpt><trkpt lat="43.57430709001345" lon="11.21572340050427"><ele>176.66666666666666</ele><time>2026-03-28T09:58:32Z</time></trkpt><trkpt lat="43.574114970905484" lon="11.215814032852263"><ele>177.0</ele><time>2026-03-28T09:58:33Z</time></trkpt><trkpt lat="43.57394087098278" lon="11.215896922092321"><ele>177.0</ele><time>2026-03-28T09:58:34Z</time></trkpt><trkpt lat="43.57376934509049" lon="11.21597679985534"><ele>177.0</ele><time>2026-03-28T09:58:35Z</time></trkpt><trkpt lat="43.57359309353145" lon="11.21607591009671"><ele>177.0</ele><time>2026-03-28T09:58:36Z</time></trkpt><trkpt lat="43.57341979307032" lon="11.216206341161639"><ele>177.66666666666666</ele><time>2026-03-28T09:58:37Z</time></trkpt><trkpt lat="43.57325230381877" lon="11.216342651305963"><ele>178.33333333333331</ele><time>2026-03-28T09:58:38Z</time></trkpt><trkpt lat="43.573093021260206" lon="11.216462582138927"><ele>179.0</ele><time>2026-03-28T09:58:39Z</time></trkpt><trkpt lat="43.57292035488781" lon="11.216511279113632"><ele>181.0</ele><time>2026-03-28T09:58:40Z</time></trkpt><trkpt lat="43.57275143641197" lon="11.216555763451666"><ele>183.0</ele><time>2026-03-28T09:58:41Z</time></trkpt><trkpt lat="43.572572895615075" lon="11.216570098344265"><ele>185.0</ele><time>2026-03-28T09:58:42Z</time></trkpt><trkpt lat="43.57239250903768" lon="11.216538528496152"><ele>185.0</ele><time>2026-03-28T09:58:43Z</time></trkpt><trkpt lat="43.57220828743357" lon="11.216505058071116"><ele>185.0</ele><time>2026-03-28T09:58:44Z</time></trkpt><trkpt lat="43.572046702471056" lon="11.21638552021518"><ele>185.0</ele><time>2026-03-28T09:58:45Z</time></trkpt><trkpt lat="43.571901963878666" lon="11.216268998485985"><ele>183.75</ele><time>2026-03-28T09:58:46Z</time></trkpt><trkpt lat="43.571789141970044" lon="11.216132290037741"><ele>182.5</ele><time>2026-03-28T09:58:47Z</time></trkpt><trkpt lat="43.57168327043546" lon="11.215992935237177"><ele>181.25</ele><time>2026-03-28T09:58:48Z</time></trkpt><trkpt lat="43.571594606410606" lon="11.215866618678046"><ele>180.0</ele><time>2026-03-28T09:58:49Z</time></trkpt><trkpt lat="43.57150790326399" lon="11.215743543824605"><ele>179.8</ele><time>2026-03-28T09:58:50Z</time></trkpt><trkpt lat="43.57141490799329" lon="11.215610312990195"><ele>179.6</ele><time>2026-03-28T09:58:51Z</time></trkpt><trkpt lat="43.57134159238762" lon="11.215507436145081"><ele>179.39999999999998</ele><time>2026-03-28T09:58:52Z</time></trkpt><trkpt lat="43.57129456883228" lon="11.21544207308918"><ele>179.2</ele><time>2026-03-28T09:58:53Z</time></trkpt><trkpt lat="43.57122945653231" lon="11.215352792678718"><ele>179.0</ele><time>2026-03-28T09:58:55Z</time></trkpt><trkpt lat="43.57116003565744" lon="11.215260923212435"><ele>179.75</ele><time>2026-03-28T09:58:57Z</time></trkpt><trkpt lat="43.57110059749578" lon="11.215191884065115"><ele>180.5</ele><time>2026-03-28T09:58:58Z</time></trkpt><trkpt lat="43.57100831010569" lon="11.215109857065745"><ele>181.25</ele><time>2026-03-28T09:58:59Z</time></trkpt><trkpt lat="43.57088826938691" lon="11.215054026897441"><ele>182.0</ele><time>2026-03-28T09:59:00Z</time></trkpt><trkpt lat="43.57075355820162" lon="11.21498997935173"><ele>182.0</ele><time>2026-03-28T09:59:01Z</time></trkpt><trkpt lat="43.57059088517774" lon="11.214958089039992"><ele>182.0</ele><time>2026-03-28T09:59:02Z</time></trkpt><trkpt lat="43.57042314004081" lon="11.214960930964642"><ele>182.0</ele><time>2026-03-28T09:59:03Z</time></trkpt><trkpt lat="43.57024310497502" lon="11.2150122078733"><ele>183.33333333333331</ele><time>2026-03-28T09:59:04Z</time></trkpt><trkpt lat="43.570060295919234" lon="11.215086389378348"><ele>184.66666666666666</ele><time>2026-03-28T09:59:05Z</time></trkpt><trkpt lat="43.56987271031704" lon="11.215173642365908"><ele>186.0</ele><time>2026-03-28T09:59:06Z</time></trkpt><trkpt lat="43.569680762057345" lon="11.21522972820757"><ele>189.66666666666669</ele><time>2026-03-28T09:59:07Z</time></trkpt><trkpt lat="43.569496150593345" lon="11.215299472817176"><ele>193.33333333333334</ele><time>2026-03-28T09:59:08Z</time></trkpt><trkpt lat="43.56930318646298" lon="11.21537632550416"><ele>197.0</ele><time>2026-03-28T09:59:09Z</time></trkpt><trkpt lat="43.56910560761968" lon="11.215457495152982"><ele>197.0</ele><time>2026-03-28T09:59:10Z</time></trkpt><trkpt lat="43.56890804500151" lon="11.215562387822152"><ele>197.0</ele><time>2026-03-28T09:59:11Z</time></trkpt><trkpt lat="43.56870361236076" lon="11.215646784932995"><ele>197.0</ele><time>2026-03-28T09:59:12Z</time></trkpt><trkpt lat="43.56849715849773" lon="11.215734236880117"><ele>194.33333333333334</ele><time>2026-03-28T09:59:13Z</time></trkpt><trkpt lat="43.56829945911601" lon="11.21578729370489"><ele>191.66666666666669</ele><time>2026-03-28T09:59:14Z</time></trkpt><trkpt lat="43.5681008085014" lon="11.215862626824718"><ele>189.0</ele><time>2026-03-28T09:59:15Z</time></trkpt><trkpt lat="43.567878320892596" lon="11.215937667924615"><ele>193.5</ele><time>2026-03-28T09:59:16Z</time></trkpt><trkpt lat="43.56765001772787" lon="11.216003549827656"><ele>198.0</ele><time>2026-03-28T09:59:17Z</time></trkpt><trkpt lat="43.56740917370278" lon="11.216064511047529"><ele>198.0</ele><time>2026-03-28T09:59:18Z</time></trkpt><trkpt lat="43.56717199433106" lon="11.216127662097128"><ele>198.0</ele><time>2026-03-28T09:59:19Z</time></trkpt><trkpt lat="43.566933414245106" lon="11.216156137649442"><ele>202.5</ele><time>2026-03-28T09:59:20Z</time></trkpt><trkpt lat="43.56669191689934" lon="11.216226078523166"><ele>207.0</ele><time>2026-03-28T09:59:21Z</time></trkpt><trkpt lat="43.56644422652192" lon="11.216284146662014"><ele>207.0</ele><time>2026-03-28T09:59:22Z</time></trkpt><trkpt lat="43.56619791140312" lon="11.216371059243354"><ele>207.0</ele><time>2026-03-28T09:59:23Z</time></trkpt><trkpt lat="43.56594905144383" lon="11.216473311880335"><ele>205.5</ele><time>2026-03-28T09:59:24Z</time></trkpt><trkpt lat="43.56569967251165" lon="11.216582086214943"><ele>204.0</ele><time>2026-03-28T09:59:25Z</time></trkpt><trkpt lat="43.56546740872377" lon="11.216681560314065"><ele>204.0</ele><time>2026-03-28T09:59:26Z</time></trkpt><trkpt lat="43.56525908865931" lon="11.216760348777909"><ele>204.0</ele><time>2026-03-28T09:59:27Z</time></trkpt><trkpt lat="43.56507193458807" lon="11.216839238655984"><ele>204.0</ele><time>2026-03-28T09:59:28Z</time></trkpt><trkpt lat="43.564900628019984" lon="11.216925296156097"><ele>204.0</ele><time>2026-03-28T09:59:29Z</time></trkpt><trkpt lat="43.564750876308764" lon="11.217039837145876"><ele>204.0</ele><time>2026-03-28T09:59:30Z</time></trkpt><trkpt lat="43.564612508545125" lon="11.21721288832283"><ele>204.0</ele><time>2026-03-28T09:59:31Z</time></trkpt><trkpt lat="43.564496632995294" lon="11.217445797717295"><ele>211.0</ele><time>2026-03-28T09:59:32Z</time></trkpt><trkpt lat="43.56441554404405" lon="11.217740000531498"><ele>218.0</ele><time>2026-03-28T09:59:33Z</time></trkpt><trkpt lat="43.56435272241979" lon="11.218057482748653"><ele>218.0</ele><time>2026-03-28T09:59:34Z</time></trkpt><trkpt lat="43.56428133887956" lon="11.218389815166857"><ele>218.0</ele><time>2026-03-28T09:59:35Z</time></trkpt><trkpt lat="43.56420370331105" lon="11.218718967942056"><ele>216.5</ele><time>2026-03-28T09:59:36Z</time></trkpt><trkpt lat="43.56412325685868" lon="11.219052432618462"><ele>215.0</ele><time>2026-03-28T09:59:37Z</time></trkpt><trkpt lat="43.564027222306315" lon="11.219379345768452"><ele>215.0</ele><time>2026-03-28T09:59:38Z</time></trkpt><trkpt lat="43.563952933491954" lon="11.219722176411057"><ele>215.0</ele><time>2026-03-28T09:59:39Z</time></trkpt><trkpt lat="43.563869701113894" lon="11.220055876960624"><ele>214.33333333333334</ele><time>2026-03-28T09:59:40Z</time></trkpt><trkpt lat="43.56379129568813" lon="11.22036331433548"><ele>213.66666666666669</ele><time>2026-03-28T09:59:41Z</time></trkpt><trkpt lat="43.56372117175368" lon="11.220633175343563"><ele>213.0</ele><time>2026-03-28T09:59:42Z</time></trkpt><trkpt lat="43.563625651788485" lon="11.220811614514638"><ele>219.33333333333331</ele><time>2026-03-28T09:59:43Z</time></trkpt><trkpt lat="43.56352897793743" lon="11.22096686482871"><ele>225.66666666666666</ele><time>2026-03-28T09:59:44Z</time></trkpt><trkpt lat="43.5633921900271" lon="11.221057922057106"><ele>232.0</ele><time>2026-03-28T09:59:45Z</time></trkpt><trkpt lat="43.56323347423507" lon="11.221135042039526"><ele>232.0</ele><time>2026-03-28T09:59:46Z</time></trkpt><trkpt lat="43.56304563443424" lon="11.221199509125244"><ele>232.0</ele><time>2026-03-28T09:59:47Z</time></trkpt><trkpt lat="43.56284121726468" lon="11.221280986811532"><ele>232.0</ele><time>2026-03-28T09:59:48Z</time></trkpt><trkpt lat="43.562647073257274" lon="11.221366330053014"><ele>231.33333333333331</ele><time>2026-03-28T09:59:49Z</time></trkpt><trkpt lat="43.56245727361697" lon="11.221451499133927"><ele>230.66666666666669</ele><time>2026-03-28T09:59:50Z</time></trkpt><trkpt lat="43.5622545803312" lon="11.221555062031268"><ele>230.0</ele><time>2026-03-28T09:59:50.999Z</time></trkpt><trkpt lat="43.5620421432323" lon="11.221651460401105"><ele>233.66666666666669</ele><time>2026-03-28T09:59:51.999Z</time></trkpt><trkpt lat="43.56183601228586" lon="11.221734502354725"><ele>237.33333333333331</ele><time>2026-03-28T09:59:52.999Z</time></trkpt><trkpt lat="43.5616609352687" lon="11.221816174581132"><ele>241.0</ele><time>2026-03-28T09:59:53.999Z</time></trkpt><trkpt lat="43.56151171927711" lon="11.221886536824869"><ele>241.0</ele><time>2026-03-28T09:59:54.999Z</time></trkpt><trkpt lat="43.56138417997444" lon="11.221947679086625"><ele>241.0</ele><time>2026-03-28T09:59:55.999Z</time></trkpt><trkpt lat="43.5612873037869" lon="11.22203095896517"><ele>241.0</ele><time>2026-03-28T09:59:56.999Z</time></trkpt><trkpt lat="43.561230282900475" lon="11.222165037975419"><ele>241.0</ele><time>2026-03-28T09:59:57.999Z</time></trkpt><trkpt lat="43.56121840904718" lon="11.222336974703815"><ele>240.75</ele><time>2026-03-28T09:59:58.999Z</time></trkpt><trkpt lat="43.56125948873112" lon="11.222490657249224"><ele>240.5</ele><time>2026-03-28T09:59:59.999Z</time></trkpt><trkpt lat="43.561327153811625" lon="11.22262835420567"><ele>240.25</ele><time>2026-03-28T10:00:00.999Z</time></trkpt><trkpt lat="43.56148098811493" lon="11.22267432863788"><ele>240.0</ele><time>2026-03-28T10:00:01.999Z</time></trkpt><trkpt lat="43.56164348776638" lon="11.22268477819585"><ele>240.0</ele><time>2026-03-28T10:00:02.999Z</time></trkpt><trkpt lat="43.56179319954277" lon="11.222746760347164"><ele>240.0</ele><time>2026-03-28T10:00:03.999Z</time></trkpt><trkpt lat="43.56191285305784" lon="11.22281439806995"><ele>240.0</ele><time>2026-03-28T10:00:05Z</time></trkpt><trkpt lat="43.562035377941186" lon="11.222904827147087"><ele>240.0</ele><time>2026-03-28T10:00:06Z</time></trkpt><trkpt lat="43.56212438454217" lon="11.22299937685584"><ele>240.4</ele><time>2026-03-28T10:00:07Z</time></trkpt><trkpt lat="43.56218158523263" lon="11.223082029663122"><ele>240.8</ele><time>2026-03-28T10:00:08Z</time></trkpt><trkpt lat="43.56219744810153" lon="11.223173674871655"><ele>241.2</ele><time>2026-03-28T10:00:09Z</time></trkpt><trkpt lat="43.562157052014925" lon="11.223295430919762"><ele>241.6</ele><time>2026-03-28T10:00:10Z</time></trkpt><trkpt lat="43.562046423034346" lon="11.22334837718284"><ele>242.0</ele><time>2026-03-28T10:00:11Z</time></trkpt><trkpt lat="43.561912977067976" lon="11.22341958744097"><ele>246.0</ele><time>2026-03-28T10:00:12Z</time></trkpt><trkpt lat="43.561766475550854" lon="11.223529455098477"><ele>250.0</ele><time>2026-03-28T10:00:13Z</time></trkpt><trkpt lat="43.56161100323591" lon="11.223659383396967"><ele>254.0</ele><time>2026-03-28T10:00:14Z</time></trkpt><trkpt lat="43.56144804488221" lon="11.22382854502242"><ele>251.33333333333334</ele><time>2026-03-28T10:00:15Z</time></trkpt><trkpt lat="43.561311078747174" lon="11.2240187501954"><ele>248.66666666666669</ele><time>2026-03-28T10:00:16Z</time></trkpt><trkpt lat="43.561175160457154" lon="11.224177635889598"><ele>246.0</ele><time>2026-03-28T10:00:17Z</time></trkpt><trkpt lat="43.561027235111695" lon="11.224316364674602"><ele>252.66666666666669</ele><time>2026-03-28T10:00:18Z</time></trkpt><trkpt lat="43.5608464863423" lon="11.224415268466332"><ele>259.33333333333337</ele><time>2026-03-28T10:00:19Z</time></trkpt><trkpt lat="43.56064247217127" lon="11.224519165190214"><ele>266.0</ele><time>2026-03-28T10:00:20Z</time></trkpt><trkpt lat="43.56043526487637" lon="11.224638362782821"><ele>269.0</ele><time>2026-03-28T10:00:21Z</time></trkpt><trkpt lat="43.56020993598378" lon="11.224748897174981"><ele>272.0</ele><time>2026-03-28T10:00:22Z</time></trkpt><trkpt lat="43.55998832459601" lon="11.224861812999414"><ele>272.0</ele><time>2026-03-28T10:00:23Z</time></trkpt><trkpt lat="43.559799152397126" lon="11.224962190660849"><ele>272.0</ele><time>2026-03-28T10:00:24Z</time></trkpt><trkpt lat="43.559629301130066" lon="11.225054719855526"><ele>272.0</ele><time>2026-03-28T10:00:25Z</time></trkpt><trkpt lat="43.55948346478168" lon="11.225134523641653"><ele>274.25</ele><time>2026-03-28T10:00:26Z</time></trkpt><trkpt lat="43.55935592653856" lon="11.225153762266169"><ele>276.5</ele><time>2026-03-28T10:00:27Z</time></trkpt><trkpt lat="43.55923762293476" lon="11.225176690650905"><ele>278.75</ele><time>2026-03-28T10:00:28Z</time></trkpt><trkpt lat="43.55913153382605" lon="11.225068958970976"><ele>281.0</ele><time>2026-03-28T10:00:29Z</time></trkpt><trkpt lat="43.55901043793647" lon="11.22494913054271"><ele>283.33333333333337</ele><time>2026-03-28T10:00:30Z</time></trkpt><trkpt lat="43.55888560789209" lon="11.22480857544384"><ele>285.6666666666667</ele><time>2026-03-28T10:00:31Z</time></trkpt><trkpt lat="43.55876078730076" lon="11.224658411558044"><ele>288.0</ele><time>2026-03-28T10:00:32Z</time></trkpt><trkpt lat="43.55863936955188" lon="11.224568405107723"><ele>289.5</ele><time>2026-03-28T10:00:33Z</time></trkpt><trkpt lat="43.558501515028226" lon="11.22455026264941"><ele>291.0</ele><time>2026-03-28T10:00:34Z</time></trkpt><trkpt lat="43.55834951202066" lon="11.224588917181642"><ele>292.5</ele><time>2026-03-28T10:00:35Z</time></trkpt><trkpt lat="43.558220253140526" lon="11.224639394259059"><ele>294.0</ele><time>2026-03-28T10:00:36Z</time></trkpt><trkpt lat="43.558114823763965" lon="11.224623979512156"><ele>294.0</ele><time>2026-03-28T10:00:37Z</time></trkpt><trkpt lat="43.55800621528245" lon="11.224587197368207"><ele>294.0</ele><time>2026-03-28T10:00:38Z</time></trkpt><trkpt lat="43.55791766859745" lon="11.224467234063635"><ele>294.0</ele><time>2026-03-28T10:00:39Z</time></trkpt><trkpt lat="43.557824237550605" lon="11.22429407973313"><ele>294.0</ele><time>2026-03-28T10:00:40Z</time></trkpt><trkpt lat="43.55771994081017" lon="11.224101585309327"><ele>296.0</ele><time>2026-03-28T10:00:41Z</time></trkpt><trkpt lat="43.55759058813119" lon="11.22391082614658"><ele>298.0</ele><time>2026-03-28T10:00:42Z</time></trkpt><trkpt lat="43.55741861358487" lon="11.223752563568555"><ele>300.0</ele><time>2026-03-28T10:00:43Z</time></trkpt><trkpt lat="43.557286235624346" lon="11.223621765103147"><ele>300.0</ele><time>2026-03-28T10:00:44Z</time></trkpt><trkpt lat="43.55721061879751" lon="11.223477699658492"><ele>300.0</ele><time>2026-03-28T10:00:45Z</time></trkpt><trkpt lat="43.5571512406319" lon="11.223319133538117"><ele>300.0</ele><time>2026-03-28T10:00:46Z</time></trkpt><trkpt lat="43.55709363321157" lon="11.22311958373713"><ele>300.0</ele><time>2026-03-28T10:00:47Z</time></trkpt><trkpt lat="43.557035417037156" lon="11.222942338734867"><ele>302.25</ele><time>2026-03-28T10:00:48Z</time></trkpt><trkpt lat="43.55693660032036" lon="11.222807946100161"><ele>304.5</ele><time>2026-03-28T10:00:49Z</time></trkpt><trkpt lat="43.55681318563481" lon="11.222727454268345"><ele>306.75</ele><time>2026-03-28T10:00:50Z</time></trkpt><trkpt lat="43.556663817298855" lon="11.22270437921177"><ele>309.0</ele><time>2026-03-28T10:00:51Z</time></trkpt><trkpt lat="43.55650122504261" lon="11.222746898118226"><ele>309.0</ele><time>2026-03-28T10:00:52Z</time></trkpt><trkpt lat="43.55633909698347" lon="11.22282011394741"><ele>309.0</ele><time>2026-03-28T10:00:53Z</time></trkpt><trkpt lat="43.55617594006783" lon="11.222801704283784"><ele>309.0</ele><time>2026-03-28T10:00:54Z</time></trkpt><trkpt lat="43.556046382500796" lon="11.22270035896439"><ele>310.6666666666667</ele><time>2026-03-28T10:00:55Z</time></trkpt><trkpt lat="43.55588852272659" lon="11.222628271063227"><ele>312.33333333333337</ele><time>2026-03-28T10:00:56Z</time></trkpt><trkpt lat="43.55572187250601" lon="11.222655555758667"><ele>314.0</ele><time>2026-03-28T10:00:57Z</time></trkpt><trkpt lat="43.55555997852433" lon="11.222699287942937"><ele>314.0</ele><time>2026-03-28T10:00:58Z</time></trkpt><trkpt lat="43.555429820450556" lon="11.222795317860106"><ele>314.0</ele><time>2026-03-28T10:00:59Z</time></trkpt><trkpt lat="43.555314801616305" lon="11.222821800279034"><ele>314.0</ele><time>2026-03-28T10:01:00Z</time></trkpt><trkpt lat="43.55522782060702" lon="11.222792597470757"><ele>314.0</ele><time>2026-03-28T10:01:01Z</time></trkpt><trkpt lat="43.555128330294515" lon="11.222756660632854"><ele>314.25</ele><time>2026-03-28T10:01:02Z</time></trkpt><trkpt lat="43.55501437286421" lon="11.22270609313799"><ele>314.5</ele><time>2026-03-28T10:01:03Z</time></trkpt><trkpt lat="43.55488120094095" lon="11.222637379035536"><ele>314.75</ele><time>2026-03-28T10:01:04Z</time></trkpt><trkpt lat="43.55472388575517" lon="11.222537466949701"><ele>315.0</ele><time>2026-03-28T10:01:05Z</time></trkpt><trkpt lat="43.5545408986365" lon="11.222430044415761"><ele>317.6666666666667</ele><time>2026-03-28T10:01:06Z</time></trkpt><trkpt lat="43.55435612667796" lon="11.222323132572075"><ele>320.33333333333337</ele><time>2026-03-28T10:01:07Z</time></trkpt><trkpt lat="43.55419294979538" lon="11.222204790156873"><ele>323.0</ele><time>2026-03-28T10:01:08Z</time></trkpt><trkpt lat="43.55402261154036" lon="11.222057091902988"><ele>323.0</ele><time>2026-03-28T10:01:09Z</time></trkpt><trkpt lat="43.55387467020123" lon="11.221922622108934"><ele>323.0</ele><time>2026-03-28T10:01:10Z</time></trkpt><trkpt lat="43.55369947054114" lon="11.22179677249222"><ele>323.0</ele><time>2026-03-28T10:01:11Z</time></trkpt><trkpt lat="43.55348837788942" lon="11.221712088404958"><ele>320.0</ele><time>2026-03-28T10:01:12Z</time></trkpt><trkpt lat="43.55327456991398" lon="11.221642748628884"><ele>317.0</ele><time>2026-03-28T10:01:13Z</time></trkpt><trkpt lat="43.55307895086731" lon="11.221606194855255"><ele>314.0</ele><time>2026-03-28T10:01:14Z</time></trkpt><trkpt lat="43.552900063859994" lon="11.221564081893801"><ele>315.0</ele><time>2026-03-28T10:01:15Z</time></trkpt><trkpt lat="43.55271158262226" lon="11.221558525755691"><ele>316.0</ele><time>2026-03-28T10:01:16Z</time></trkpt><trkpt lat="43.55250451410065" lon="11.221616763426065"><ele>317.0</ele><time>2026-03-28T10:01:17Z</time></trkpt><trkpt lat="43.55229018002456" lon="11.221668393945112"><ele>317.0</ele><time>2026-03-28T10:01:18Z</time></trkpt><trkpt lat="43.55210139109737" lon="11.221742510379109"><ele>317.0</ele><time>2026-03-28T10:01:19Z</time></trkpt><trkpt lat="43.551941183409824" lon="11.221855280681648"><ele>317.0</ele><time>2026-03-28T10:01:20Z</time></trkpt><trkpt lat="43.55178279717229" lon="11.222006189669031"><ele>319.33333333333337</ele><time>2026-03-28T10:01:21Z</time></trkpt><trkpt lat="43.551615779805594" lon="11.22222231696099"><ele>321.6666666666667</ele><time>2026-03-28T10:01:22Z</time></trkpt><trkpt lat="43.55145894320617" lon="11.222425549480977"><ele>324.0</ele><time>2026-03-28T10:01:23Z</time></trkpt><trkpt lat="43.55130712449115" lon="11.222609045296524"><ele>327.25</ele><time>2026-03-28T10:01:24Z</time></trkpt><trkpt lat="43.55117893460784" lon="11.222755865081464"><ele>330.5</ele><time>2026-03-28T10:01:25Z</time></trkpt><trkpt lat="43.551054734479806" lon="11.222846760593402"><ele>333.75</ele><time>2026-03-28T10:01:26Z</time></trkpt><trkpt lat="43.55093951587046" lon="11.222917656408224"><ele>337.0</ele><time>2026-03-28T10:01:27Z</time></trkpt><trkpt lat="43.550815592523456" lon="11.22294338179354"><ele>337.0</ele><time>2026-03-28T10:01:28Z</time></trkpt><trkpt lat="43.550655511588694" lon="11.222960024929339"><ele>337.0</ele><time>2026-03-28T10:01:29Z</time></trkpt><trkpt lat="43.5504587736632" lon="11.222996737363312"><ele>337.0</ele><time>2026-03-28T10:01:30Z</time></trkpt><trkpt lat="43.55025314162586" lon="11.22308886314543"><ele>334.5</ele><time>2026-03-28T10:01:31Z</time></trkpt><trkpt lat="43.55004154153548" lon="11.223234940967032"><ele>332.0</ele><time>2026-03-28T10:01:32Z</time></trkpt><trkpt lat="43.5498247529488" lon="11.223419686980714"><ele>332.0</ele><time>2026-03-28T10:01:33Z</time></trkpt><trkpt lat="43.549614436135066" lon="11.223548644460779"><ele>332.0</ele><time>2026-03-28T10:01:34Z</time></trkpt><trkpt lat="43.5494488622101" lon="11.22368449143366"><ele>332.0</ele><time>2026-03-28T10:01:35Z</time></trkpt><trkpt lat="43.54928994201867" lon="11.223818327043636"><ele>333.6666666666667</ele><time>2026-03-28T10:01:36Z</time></trkpt><trkpt lat="43.54913891772545" lon="11.223925044978415"><ele>335.3333333333333</ele><time>2026-03-28T10:01:37Z</time></trkpt><trkpt lat="43.54900475554679" lon="11.22402643410737"><ele>337.0</ele><time>2026-03-28T10:01:38Z</time></trkpt><trkpt lat="43.548870237692675" lon="11.224122527866864"><ele>337.0</ele><time>2026-03-28T10:01:39Z</time></trkpt><trkpt lat="43.54877118856343" lon="11.224190589670247"><ele>337.0</ele><time>2026-03-28T10:01:40Z</time></trkpt><trkpt lat="43.54866717282801" lon="11.224277933744306"><ele>337.0</ele><time>2026-03-28T10:01:41Z</time></trkpt><trkpt lat="43.54855536501777" lon="11.224336047871322"><ele>337.0</ele><time>2026-03-28T10:01:42Z</time></trkpt><trkpt lat="43.54845813576969" lon="11.224403295880805"><ele>336.75</ele><time>2026-03-28T10:01:43Z</time></trkpt><trkpt lat="43.548366081532386" lon="11.224469209228289"><ele>336.5</ele><time>2026-03-28T10:01:44Z</time></trkpt><trkpt lat="43.548268989343875" lon="11.22455676053463"><ele>336.25</ele><time>2026-03-28T10:01:45Z</time></trkpt><trkpt lat="43.54818071345611" lon="11.224691969076462"><ele>336.0</ele><time>2026-03-28T10:01:46Z</time></trkpt><trkpt lat="43.54812469562749" lon="11.22484711221607"><ele>336.0</ele><time>2026-03-28T10:01:47Z</time></trkpt><trkpt lat="43.548075783779346" lon="11.22499533230848"><ele>336.0</ele><time>2026-03-28T10:01:48Z</time></trkpt><trkpt lat="43.548045343957256" lon="11.22513811514826"><ele>336.0</ele><time>2026-03-28T10:01:49Z</time></trkpt><trkpt lat="43.54801144967698" lon="11.22526496643949"><ele>336.0</ele><time>2026-03-28T10:01:50Z</time></trkpt><trkpt lat="43.54796929598214" lon="11.225385802559297"><ele>336.0</ele><time>2026-03-28T10:01:51Z</time></trkpt><trkpt lat="43.54793015666408" lon="11.225488076839708"><ele>336.0</ele><time>2026-03-28T10:01:52Z</time></trkpt><trkpt lat="43.547885584931805" lon="11.225586493161263"><ele>336.0</ele><time>2026-03-28T10:01:53Z</time></trkpt><trkpt lat="43.54783623691172" lon="11.225704560930922"><ele>336.0</ele><time>2026-03-28T10:01:54Z</time></trkpt><trkpt lat="43.54778027357875" lon="11.225821852671242"><ele>336.0</ele><time>2026-03-28T10:01:54.999Z</time></trkpt><trkpt lat="43.54772518264027" lon="11.225922347275883"><ele>336.0</ele><time>2026-03-28T10:01:55.999Z</time></trkpt><trkpt lat="43.54765920902766" lon="11.226035717158322"><ele>338.8</ele><time>2026-03-28T10:01:56.999Z</time></trkpt><trkpt lat="43.54758392525888" lon="11.226132372645802"><ele>341.6</ele><time>2026-03-28T10:01:57.999Z</time></trkpt><trkpt lat="43.54750987929012" lon="11.226224585736011"><ele>344.4</ele><time>2026-03-28T10:01:58.999Z</time></trkpt><trkpt lat="43.54743612040847" lon="11.226311834395414"><ele>347.2</ele><time>2026-03-28T10:01:59.999Z</time></trkpt><trkpt lat="43.54736511590628" lon="11.226392322479063"><ele>350.0</ele><time>2026-03-28T10:02:00.999Z</time></trkpt><trkpt lat="43.54730249599062" lon="11.226461891277866"><ele>350.0</ele><time>2026-03-28T10:02:01.999Z</time></trkpt><trkpt lat="43.547245511896215" lon="11.226515866141336"><ele>350.0</ele><time>2026-03-28T10:02:02.999Z</time></trkpt><trkpt lat="43.54719303911269" lon="11.226565858326168"><ele>350.0</ele><time>2026-03-28T10:02:03.999Z</time></trkpt><trkpt lat="43.547095945560734" lon="11.226642905505072"><ele>350.0</ele><time>2026-03-28T10:02:05.999Z</time></trkpt><trkpt lat="43.547012866980225" lon="11.22662714754996"><ele>350.0</ele><time>2026-03-28T10:02:09.999Z</time></trkpt><trkpt lat="43.54695811248814" lon="11.226673764388908"><ele>350.0</ele><time>2026-03-28T10:02:11Z</time></trkpt><trkpt lat="43.54688180512416" lon="11.22673724929697"><ele>350.0</ele><time>2026-03-28T10:02:12Z</time></trkpt><trkpt lat="43.54679690330117" lon="11.226887358423216"><ele>350.0</ele><time>2026-03-28T10:02:13Z</time></trkpt><trkpt lat="43.54669011192314" lon="11.227029690235417"><ele>350.0</ele><time>2026-03-28T10:02:14Z</time></trkpt><trkpt lat="43.54654126925834" lon="11.227162290022294"><ele>350.0</ele><time>2026-03-28T10:02:15Z</time></trkpt><trkpt lat="43.54637707037179" lon="11.22727552189454"><ele>350.0</ele><time>2026-03-28T10:02:16Z</time></trkpt><trkpt lat="43.54620504185591" lon="11.227402648787054"><ele>350.0</ele><time>2026-03-28T10:02:17Z</time></trkpt><trkpt lat="43.5460241201389" lon="11.227538999757545"><ele>350.6666666666667</ele><time>2026-03-28T10:02:18Z</time></trkpt><trkpt lat="43.54583689325839" lon="11.227682102072338"><ele>351.3333333333333</ele><time>2026-03-28T10:02:19Z</time></trkpt><trkpt lat="43.54564129583516" lon="11.22782320065997"><ele>352.0</ele><time>2026-03-28T10:02:20Z</time></trkpt><trkpt lat="43.54544296448616" lon="11.227968879792632"><ele>351.0</ele><time>2026-03-28T10:02:21Z</time></trkpt><trkpt lat="43.5452445619249" lon="11.228120618900496"><ele>350.0</ele><time>2026-03-28T10:02:22Z</time></trkpt><trkpt lat="43.54504936021394" lon="11.228270304813755"><ele>353.5</ele><time>2026-03-28T10:02:23Z</time></trkpt><trkpt lat="43.54485298462004" lon="11.228423508505553"><ele>357.0</ele><time>2026-03-28T10:02:24Z</time></trkpt><trkpt lat="43.54465659899558" lon="11.228572916064172"><ele>357.3333333333333</ele><time>2026-03-28T10:02:25Z</time></trkpt><trkpt lat="43.54446034557986" lon="11.228725825365427"><ele>357.66666666666663</ele><time>2026-03-28T10:02:26Z</time></trkpt><trkpt lat="43.54426942752843" lon="11.228875644113524"><ele>358.0</ele><time>2026-03-28T10:02:27Z</time></trkpt><trkpt lat="43.5440777492003" lon="11.2290268512829"><ele>359.66666666666663</ele><time>2026-03-28T10:02:28Z</time></trkpt><trkpt lat="43.54388935317981" lon="11.229183479463284"><ele>361.3333333333333</ele><time>2026-03-28T10:02:29Z</time></trkpt><trkpt lat="43.543709308565624" lon="11.229335111418361"><ele>363.0</ele><time>2026-03-28T10:02:30Z</time></trkpt><trkpt lat="43.54354174731924" lon="11.229473151554874"><ele>363.6666666666667</ele><time>2026-03-28T10:02:31Z</time></trkpt><trkpt lat="43.54337130146117" lon="11.229607822963812"><ele>364.33333333333337</ele><time>2026-03-28T10:02:32Z</time></trkpt><trkpt lat="43.5431751647777" lon="11.229727870154871"><ele>365.0</ele><time>2026-03-28T10:02:33Z</time></trkpt><trkpt lat="43.54295638921508" lon="11.22980134167721"><ele>365.0</ele><time>2026-03-28T10:02:34Z</time></trkpt><trkpt lat="43.542736090837884" lon="11.22990817153587"><ele>365.0</ele><time>2026-03-28T10:02:35Z</time></trkpt><trkpt lat="43.54251505126709" lon="11.229985799190478"><ele>365.0</ele><time>2026-03-28T10:02:36Z</time></trkpt><trkpt lat="43.5422925585846" lon="11.230068785545193"><ele>365.0</ele><time>2026-03-28T10:02:37Z</time></trkpt><trkpt lat="43.542072349783254" lon="11.230154302753391"><ele>365.33333333333337</ele><time>2026-03-28T10:02:38Z</time></trkpt><trkpt lat="43.54186466873235" lon="11.230230909484417"><ele>365.6666666666667</ele><time>2026-03-28T10:02:39Z</time></trkpt><trkpt lat="43.54165185579931" lon="11.230311225545256"><ele>366.0</ele><time>2026-03-28T10:02:40Z</time></trkpt><trkpt lat="43.541430056206785" lon="11.230391535207563"><ele>367.0</ele><time>2026-03-28T10:02:41Z</time></trkpt><trkpt lat="43.541207099652496" lon="11.230473902205652"><ele>368.0</ele><time>2026-03-28T10:02:42Z</time></trkpt><trkpt lat="43.54099221341411" lon="11.230550680826937"><ele>368.0</ele><time>2026-03-28T10:02:43Z</time></trkpt><trkpt lat="43.540785464319825" lon="11.23063156613943"><ele>368.0</ele><time>2026-03-28T10:02:44Z</time></trkpt><trkpt lat="43.540584467221684" lon="11.230719520706515"><ele>368.0</ele><time>2026-03-28T10:02:45Z</time></trkpt><trkpt lat="43.54038902301343" lon="11.230815262982482"><ele>369.6666666666667</ele><time>2026-03-28T10:02:46Z</time></trkpt><trkpt lat="43.54020075683132" lon="11.23091767964044"><ele>371.3333333333333</ele><time>2026-03-28T10:02:47Z</time></trkpt><trkpt lat="43.540007061363056" lon="11.231022324518575"><ele>373.0</ele><time>2026-03-28T10:02:48Z</time></trkpt><trkpt lat="43.53981729354628" lon="11.231126814710029"><ele>373.0</ele><time>2026-03-28T10:02:49Z</time></trkpt><trkpt lat="43.539624994996274" lon="11.231233288000238"><ele>373.0</ele><time>2026-03-28T10:02:50Z</time></trkpt><trkpt lat="43.5394340999204" lon="11.231340913369943"><ele>373.0</ele><time>2026-03-28T10:02:51Z</time></trkpt><trkpt lat="43.53924508896087" lon="11.231448929414354"><ele>373.0</ele><time>2026-03-28T10:02:52Z</time></trkpt><trkpt lat="43.53906774245999" lon="11.231547169474457"><ele>373.0</ele><time>2026-03-28T10:02:53Z</time></trkpt><trkpt lat="43.53890753969917" lon="11.231647783102797"><ele>373.0</ele><time>2026-03-28T10:02:54Z</time></trkpt><trkpt lat="43.5387707559532" lon="11.231750681230455"><ele>374.66666666666663</ele><time>2026-03-28T10:02:55Z</time></trkpt><trkpt lat="43.53864760010509" lon="11.231877220396154"><ele>376.3333333333333</ele><time>2026-03-28T10:02:56Z</time></trkpt><trkpt lat="43.53855278957989" lon="11.232045393851454"><ele>378.0</ele><time>2026-03-28T10:02:57Z</time></trkpt><trkpt lat="43.53847092101141" lon="11.232258149823508"><ele>377.6666666666667</ele><time>2026-03-28T10:02:58Z</time></trkpt><trkpt lat="43.53840517014018" lon="11.232492243691027"><ele>377.33333333333337</ele><time>2026-03-28T10:02:59Z</time></trkpt><trkpt lat="43.53836264753012" lon="11.232760392941671"><ele>377.0</ele><time>2026-03-28T10:03:00Z</time></trkpt><trkpt lat="43.53835273153585" lon="11.233062629065696"><ele>377.5</ele><time>2026-03-28T10:03:01Z</time></trkpt><trkpt lat="43.53835144337259" lon="11.23337468043114"><ele>378.0</ele><time>2026-03-28T10:03:02Z</time></trkpt><trkpt lat="43.538354860832996" lon="11.233690727848675"><ele>381.5</ele><time>2026-03-28T10:03:03Z</time></trkpt><trkpt lat="43.53834409410887" lon="11.23400328820954"><ele>385.0</ele><time>2026-03-28T10:03:04Z</time></trkpt><trkpt lat="43.53833369338395" lon="11.234310952281726"><ele>385.0</ele><time>2026-03-28T10:03:05Z</time></trkpt><trkpt lat="43.53832253947392" lon="11.234611531289053"><ele>385.0</ele><time>2026-03-28T10:03:06Z</time></trkpt><trkpt lat="43.538311003247145" lon="11.234895247216416"><ele>385.0</ele><time>2026-03-28T10:03:07Z</time></trkpt><trkpt lat="43.538302784648515" lon="11.23515257768173"><ele>387.33333333333337</ele><time>2026-03-28T10:03:08Z</time></trkpt><trkpt lat="43.53828971801594" lon="11.235382377963338"><ele>389.66666666666663</ele><time>2026-03-28T10:03:09Z</time></trkpt><trkpt lat="43.53826407746248" lon="11.235591238501215"><ele>392.0</ele><time>2026-03-28T10:03:10Z</time></trkpt><trkpt lat="43.53822060602472" lon="11.23579286493167"><ele>393.0</ele><time>2026-03-28T10:03:11Z</time></trkpt><trkpt lat="43.53815748447208" lon="11.235997567542997"><ele>394.0</ele><time>2026-03-28T10:03:12Z</time></trkpt><trkpt lat="43.538063173389794" lon="11.236190470140029"><ele>395.0</ele><time>2026-03-28T10:03:13Z</time></trkpt><trkpt lat="43.537916537530336" lon="11.236347506337408"><ele>395.0</ele><time>2026-03-28T10:03:14Z</time></trkpt><trkpt lat="43.537740239468626" lon="11.2365025884965"><ele>395.0</ele><time>2026-03-28T10:03:15Z</time></trkpt><trkpt lat="43.53755805283198" lon="11.236684584385626"><ele>395.0</ele><time>2026-03-28T10:03:16Z</time></trkpt><trkpt lat="43.537355403320575" lon="11.236844684613317"><ele>395.0</ele><time>2026-03-28T10:03:17Z</time></trkpt><trkpt lat="43.5371634594531" lon="11.23700999176466"><ele>395.0</ele><time>2026-03-28T10:03:18Z</time></trkpt><trkpt lat="43.536989927312696" lon="11.237187123791173"><ele>395.0</ele><time>2026-03-28T10:03:19Z</time></trkpt><trkpt lat="43.53683300248769" lon="11.237372309285353"><ele>396.66666666666663</ele><time>2026-03-28T10:03:20Z</time></trkpt><trkpt lat="43.53669550343521" lon="11.237583188244665"><ele>398.33333333333337</ele><time>2026-03-28T10:03:21Z</time></trkpt><trkpt lat="43.53658578723828" lon="11.237832242610764"><ele>400.0</ele><time>2026-03-28T10:03:22Z</time></trkpt><trkpt lat="43.53650481150912" lon="11.238104044826065"><ele>399.33333333333337</ele><time>2026-03-28T10:03:23Z</time></trkpt><trkpt lat="43.536432871018626" lon="11.238382280567155"><ele>398.66666666666663</ele><time>2026-03-28T10:03:24Z</time></trkpt><trkpt lat="43.53635581859273" lon="11.238652607368357"><ele>398.0</ele><time>2026-03-28T10:03:25Z</time></trkpt><trkpt lat="43.53627876177853" lon="11.238903025545987"><ele>399.0</ele><time>2026-03-28T10:03:26Z</time></trkpt><trkpt lat="43.53619198616676" lon="11.239130387057703"><ele>400.0</ele><time>2026-03-28T10:03:27Z</time></trkpt><trkpt lat="43.53611155313059" lon="11.239362642080858"><ele>401.0</ele><time>2026-03-28T10:03:28Z</time></trkpt><trkpt lat="43.536011083389916" lon="11.239588874163509"><ele>399.3333333333333</ele><time>2026-03-28T10:03:29Z</time></trkpt><trkpt lat="43.535891746172005" lon="11.2398205246655"><ele>397.66666666666663</ele><time>2026-03-28T10:03:30Z</time></trkpt><trkpt lat="43.53578236864792" lon="11.240053453291203"><ele>396.0</ele><time>2026-03-28T10:03:31Z</time></trkpt><trkpt lat="43.535634957474734" lon="11.240260178401272"><ele>396.0</ele><time>2026-03-28T10:03:32Z</time></trkpt><trkpt lat="43.53548297559183" lon="11.240476415474948"><ele>396.0</ele><time>2026-03-28T10:03:33Z</time></trkpt><trkpt lat="43.53532263383635" lon="11.240667328963548"><ele>396.0</ele><time>2026-03-28T10:03:34Z</time></trkpt><trkpt lat="43.53514516084058" lon="11.240850584925026"><ele>393.0</ele><time>2026-03-28T10:03:35Z</time></trkpt><trkpt lat="43.53495679740576" lon="11.241049296613653"><ele>390.0</ele><time>2026-03-28T10:03:36Z</time></trkpt><trkpt lat="43.53475734848316" lon="11.241213538304837"><ele>390.0</ele><time>2026-03-28T10:03:37Z</time></trkpt><trkpt lat="43.534561690139334" lon="11.241360469338202"><ele>390.0</ele><time>2026-03-28T10:03:37.999Z</time></trkpt><trkpt lat="43.534360596826566" lon="11.241484843655229"><ele>390.0</ele><time>2026-03-28T10:03:38.999Z</time></trkpt><trkpt lat="43.534159444420006" lon="11.241600601821107"><ele>389.33333333333337</ele><time>2026-03-28T10:03:39.999Z</time></trkpt><trkpt lat="43.53397591371177" lon="11.241686185779432"><ele>388.6666666666667</ele><time>2026-03-28T10:03:40.999Z</time></trkpt><trkpt lat="43.53382205462938" lon="11.241747486287736"><ele>388.0</ele><time>2026-03-28T10:03:41.999Z</time></trkpt><trkpt lat="43.53369151487659" lon="11.241770282842097"><ele>387.6666666666667</ele><time>2026-03-28T10:03:42.999Z</time></trkpt><trkpt lat="43.53358467358995" lon="11.241805381045909"><ele>387.33333333333337</ele><time>2026-03-28T10:03:43.999Z</time></trkpt><trkpt lat="43.53349962805468" lon="11.241833847435906"><ele>387.0</ele><time>2026-03-28T10:03:44.999Z</time></trkpt><trkpt lat="43.53343149740079" lon="11.241859429915046"><ele>386.66666666666663</ele><time>2026-03-28T10:03:46.999Z</time></trkpt><trkpt lat="43.533359712959104" lon="11.241886384385138"><ele>386.3333333333333</ele><time>2026-03-28T10:04:26Z</time></trkpt><trkpt lat="43.533269319229895" lon="11.241920326315027"><ele>386.0</ele><time>2026-03-28T10:04:28Z</time></trkpt><trkpt lat="43.533187976877805" lon="11.241945764981493"><ele>386.0</ele><time>2026-03-28T10:04:29Z</time></trkpt><trkpt lat="43.53308369843682" lon="11.241968170248471"><ele>386.0</ele><time>2026-03-28T10:04:30Z</time></trkpt><trkpt lat="43.53297376382501" lon="11.241981446089067"><ele>386.0</ele><time>2026-03-28T10:04:31Z</time></trkpt><trkpt lat="43.53284993254104" lon="11.24198733723126"><ele>386.0</ele><time>2026-03-28T10:04:32Z</time></trkpt><trkpt lat="43.532721012883705" lon="11.241989398387352"><ele>386.66666666666663</ele><time>2026-03-28T10:04:33Z</time></trkpt><trkpt lat="43.532569695760216" lon="11.241986666637729"><ele>387.33333333333337</ele><time>2026-03-28T10:04:34Z</time></trkpt><trkpt lat="43.53240673502344" lon="11.241980755182158"><ele>388.0</ele><time>2026-03-28T10:04:35Z</time></trkpt><trkpt lat="43.53224072751402" lon="11.241982780918313"><ele>388.0</ele><time>2026-03-28T10:04:36Z</time></trkpt><trkpt lat="43.532079049259224" lon="11.241982820386067"><ele>388.0</ele><time>2026-03-28T10:04:37Z</time></trkpt><trkpt lat="43.53192229191563" lon="11.241976765063157"><ele>388.0</ele><time>2026-03-28T10:04:38Z</time></trkpt><trkpt lat="43.53175576540962" lon="11.24186499118497"><ele>389.6666666666667</ele><time>2026-03-28T10:04:39Z</time></trkpt><trkpt lat="43.531576697092405" lon="11.241747458299818"><ele>391.33333333333337</ele><time>2026-03-28T10:04:40Z</time></trkpt><trkpt lat="43.53139105663233" lon="11.241635705633005"><ele>393.0</ele><time>2026-03-28T10:04:41Z</time></trkpt><trkpt lat="43.531227683858305" lon="11.24147188084098"><ele>394.66666666666663</ele><time>2026-03-28T10:04:42Z</time></trkpt><trkpt lat="43.53105362277732" lon="11.241344064633374"><ele>396.3333333333333</ele><time>2026-03-28T10:04:43Z</time></trkpt><trkpt lat="43.53089715844682" lon="11.241200288238193"><ele>398.0</ele><time>2026-03-28T10:04:44Z</time></trkpt><trkpt lat="43.530720229398" lon="11.241077653471413"><ele>398.0</ele><time>2026-03-28T10:04:45Z</time></trkpt><trkpt lat="43.53053424542456" lon="11.24096388534385"><ele>398.0</ele><time>2026-03-28T10:04:46Z</time></trkpt><trkpt lat="43.53032496831673" lon="11.240860576899127"><ele>398.0</ele><time>2026-03-28T10:04:47Z</time></trkpt><trkpt lat="43.53008432194966" lon="11.240753423201356"><ele>399.0</ele><time>2026-03-28T10:04:48Z</time></trkpt><trkpt lat="43.52983421279235" lon="11.240700727283262"><ele>400.0</ele><time>2026-03-28T10:04:49Z</time></trkpt><trkpt lat="43.529589217836346" lon="11.240635434823542"><ele>396.0</ele><time>2026-03-28T10:04:50Z</time></trkpt><trkpt lat="43.5293517713261" lon="11.240551358437532"><ele>392.0</ele><time>2026-03-28T10:04:51Z</time></trkpt><trkpt lat="43.529122121260826" lon="11.240403921366493"><ele>392.0</ele><time>2026-03-28T10:04:52Z</time></trkpt><trkpt lat="43.52888530259522" lon="11.240243956275991"><ele>392.0</ele><time>2026-03-28T10:04:53Z</time></trkpt><trkpt lat="43.52865882264169" lon="11.240085557310314"><ele>395.0</ele><time>2026-03-28T10:04:54Z</time></trkpt><trkpt lat="43.52843948894412" lon="11.239930235729204"><ele>398.0</ele><time>2026-03-28T10:04:55Z</time></trkpt><trkpt lat="43.52820141636666" lon="11.239782649789921"><ele>399.5</ele><time>2026-03-28T10:04:56Z</time></trkpt><trkpt lat="43.52797556775802" lon="11.239623725269109"><ele>401.0</ele><time>2026-03-28T10:04:57Z</time></trkpt><trkpt lat="43.52776109786085" lon="11.239481780052962"><ele>401.0</ele><time>2026-03-28T10:04:58Z</time></trkpt><trkpt lat="43.527538127196344" lon="11.239340074203504"><ele>401.0</ele><time>2026-03-28T10:04:59Z</time></trkpt><trkpt lat="43.527292385936164" lon="11.239215337526831"><ele>399.5</ele><time>2026-03-28T10:05:00Z</time></trkpt><trkpt lat="43.52703410009121" lon="11.239090142985289"><ele>398.0</ele><time>2026-03-28T10:05:01Z</time></trkpt><trkpt lat="43.526756815221326" lon="11.239023008412412"><ele>400.0</ele><time>2026-03-28T10:05:02Z</time></trkpt><trkpt lat="43.52647658560913" lon="11.238914714936797"><ele>402.0</ele><time>2026-03-28T10:05:03Z</time></trkpt><trkpt lat="43.526207762470555" lon="11.238815098042794"><ele>404.0</ele><time>2026-03-28T10:05:04Z</time></trkpt><trkpt lat="43.52596239551886" lon="11.238710226031039"><ele>406.0</ele><time>2026-03-28T10:05:05Z</time></trkpt><trkpt lat="43.52573099537288" lon="11.238632519346965"><ele>406.0</ele><time>2026-03-28T10:05:06Z</time></trkpt><trkpt lat="43.525530505746474" lon="11.23854576698812"><ele>406.0</ele><time>2026-03-28T10:05:07Z</time></trkpt><trkpt lat="43.52535222948431" lon="11.238468445326896"><ele>406.0</ele><time>2026-03-28T10:05:08Z</time></trkpt><trkpt lat="43.52519867749578" lon="11.238416466980976"><ele>406.0</ele><time>2026-03-28T10:05:09Z</time></trkpt><trkpt lat="43.52505136640655" lon="11.238422550991771"><ele>406.0</ele><time>2026-03-28T10:05:10Z</time></trkpt><trkpt lat="43.52488998740043" lon="11.23849453790961"><ele>406.0</ele><time>2026-03-28T10:05:11Z</time></trkpt><trkpt lat="43.5247234364458" lon="11.238645379169665"><ele>406.0</ele><time>2026-03-28T10:05:12Z</time></trkpt><trkpt lat="43.524568502319454" lon="11.238848688072022"><ele>406.0</ele><time>2026-03-28T10:05:13Z</time></trkpt><trkpt lat="43.52444203121699" lon="11.239065725061986"><ele>406.0</ele><time>2026-03-28T10:05:14Z</time></trkpt><trkpt lat="43.52434281522215" lon="11.2392883555932"><ele>407.33333333333337</ele><time>2026-03-28T10:05:15Z</time></trkpt><trkpt lat="43.524268954797755" lon="11.23955524047707"><ele>408.66666666666663</ele><time>2026-03-28T10:05:16Z</time></trkpt><trkpt lat="43.52419435054797" lon="11.239834609730497"><ele>410.0</ele><time>2026-03-28T10:05:17Z</time></trkpt><trkpt lat="43.52405452172874" lon="11.240080704058494"><ele>411.3333333333333</ele><time>2026-03-28T10:05:18Z</time></trkpt><trkpt lat="43.52392391797751" lon="11.240303340554513"><ele>412.66666666666663</ele><time>2026-03-28T10:05:19Z</time></trkpt><trkpt lat="43.52379989382315" lon="11.240477272797882"><ele>414.0</ele><time>2026-03-28T10:05:20Z</time></trkpt><trkpt lat="43.52368225759479" lon="11.240607709716176"><ele>415.33333333333337</ele><time>2026-03-28T10:05:21Z</time></trkpt><trkpt lat="43.52355630339694" lon="11.240703212681524"><ele>416.6666666666667</ele><time>2026-03-28T10:05:22Z</time></trkpt><trkpt lat="43.5233980945963" lon="11.240776996647368"><ele>418.0</ele><time>2026-03-28T10:05:23Z</time></trkpt><trkpt lat="43.52321415321955" lon="11.24088033921377"><ele>418.0</ele><time>2026-03-28T10:05:24Z</time></trkpt><trkpt lat="43.523022254073226" lon="11.240969099563035"><ele>418.0</ele><time>2026-03-28T10:05:25Z</time></trkpt><trkpt lat="43.52283645057026" lon="11.241101984769319"><ele>418.0</ele><time>2026-03-28T10:05:26Z</time></trkpt><trkpt lat="43.52266352977969" lon="11.241285562019325"><ele>418.5</ele><time>2026-03-28T10:05:27Z</time></trkpt><trkpt lat="43.52249099692638" lon="11.241522107644576"><ele>419.0</ele><time>2026-03-28T10:05:28Z</time></trkpt><trkpt lat="43.52233057673995" lon="11.24178459078016"><ele>419.0</ele><time>2026-03-28T10:05:29Z</time></trkpt><trkpt lat="43.5221938466845" lon="11.242078326628663"><ele>419.0</ele><time>2026-03-28T10:05:30Z</time></trkpt><trkpt lat="43.522084731553775" lon="11.242411745672603"><ele>422.5</ele><time>2026-03-28T10:05:31Z</time></trkpt><trkpt lat="43.52200184532874" lon="11.242758974469224"><ele>426.0</ele><time>2026-03-28T10:05:32Z</time></trkpt><trkpt lat="43.52193195935913" lon="11.243099307631393"><ele>427.5</ele><time>2026-03-28T10:05:33Z</time></trkpt><trkpt lat="43.521864864208986" lon="11.243403351537946"><ele>429.0</ele><time>2026-03-28T10:05:34Z</time></trkpt><trkpt lat="43.52179592813367" lon="11.243698585648406"><ele>429.0</ele><time>2026-03-28T10:05:35Z</time></trkpt><trkpt lat="43.52173202522594" lon="11.244001329437506"><ele>429.0</ele><time>2026-03-28T10:05:36Z</time></trkpt><trkpt lat="43.52165492467278" lon="11.244292658538768"><ele>429.0</ele><time>2026-03-28T10:05:37Z</time></trkpt><trkpt lat="43.521593622282786" lon="11.244577822351351"><ele>429.0</ele><time>2026-03-28T10:05:38Z</time></trkpt><trkpt lat="43.52153000224796" lon="11.244839963132009"><ele>429.0</ele><time>2026-03-28T10:05:39Z</time></trkpt><trkpt lat="43.52146226995878" lon="11.245088202003004"><ele>429.33333333333337</ele><time>2026-03-28T10:05:40Z</time></trkpt><trkpt lat="43.52135277572953" lon="11.245323635344953"><ele>429.6666666666667</ele><time>2026-03-28T10:05:41Z</time></trkpt><trkpt lat="43.52119012447542" lon="11.245508161898446"><ele>430.0</ele><time>2026-03-28T10:05:42Z</time></trkpt><trkpt lat="43.52100996155254" lon="11.24567119074222"><ele>429.0</ele><time>2026-03-28T10:05:43Z</time></trkpt><trkpt lat="43.52081463226199" lon="11.245808454495272"><ele>428.0</ele><time>2026-03-28T10:05:44Z</time></trkpt><trkpt lat="43.52063559094778" lon="11.245918193927826"><ele>427.0</ele><time>2026-03-28T10:05:44.999Z</time></trkpt><trkpt lat="43.520472488169666" lon="11.246014199150173"><ele>426.33333333333337</ele><time>2026-03-28T10:05:45.999Z</time></trkpt><trkpt lat="43.52032892700967" lon="11.24611460981912"><ele>425.66666666666663</ele><time>2026-03-28T10:05:46.999Z</time></trkpt><trkpt lat="43.520169394435115" lon="11.246194318532327"><ele>425.0</ele><time>2026-03-28T10:05:47.999Z</time></trkpt><trkpt lat="43.52000614617035" lon="11.246312872661433"><ele>425.3333333333333</ele><time>2026-03-28T10:05:48.999Z</time></trkpt><trkpt lat="43.51983801635452" lon="11.246489492124532"><ele>425.66666666666663</ele><time>2026-03-28T10:05:49.999Z</time></trkpt><trkpt lat="43.51966219089701" lon="11.246706761536402"><ele>426.0</ele><time>2026-03-28T10:05:50.999Z</time></trkpt><trkpt lat="43.519489105429315" lon="11.246924262835034"><ele>423.0</ele><time>2026-03-28T10:05:51.999Z</time></trkpt><trkpt lat="43.51930269948891" lon="11.247141427329899"><ele>420.0</ele><time>2026-03-28T10:05:52.999Z</time></trkpt><trkpt lat="43.519097122304046" lon="11.24735001428114"><ele>418.5</ele><time>2026-03-28T10:05:53.999Z</time></trkpt><trkpt lat="43.51890051101781" lon="11.247530647873422"><ele>417.0</ele><time>2026-03-28T10:05:54.999Z</time></trkpt><trkpt lat="43.51870593516906" lon="11.247693125490057"><ele>415.66666666666663</ele><time>2026-03-28T10:05:55.999Z</time></trkpt><trkpt lat="43.518511570824984" lon="11.247835450080617"><ele>414.3333333333333</ele><time>2026-03-28T10:05:56.999Z</time></trkpt><trkpt lat="43.518319356735866" lon="11.247950705120735"><ele>413.0</ele><time>2026-03-28T10:05:57.999Z</time></trkpt><trkpt lat="43.51811878432027" lon="11.248010278328145"><ele>413.0</ele><time>2026-03-28T10:05:58.999Z</time></trkpt><trkpt lat="43.5179126979566" lon="11.248065823060738"><ele>413.0</ele><time>2026-03-28T10:05:59.999Z</time></trkpt><trkpt lat="43.51767660311706" lon="11.248118213490498"><ele>413.0</ele><time>2026-03-28T10:06:00.999Z</time></trkpt><trkpt lat="43.51747115280714" lon="11.248146924963526"><ele>414.66666666666663</ele><time>2026-03-28T10:06:01.999Z</time></trkpt><trkpt lat="43.5172683129758" lon="11.248169100797236"><ele>416.33333333333337</ele><time>2026-03-28T10:06:02.999Z</time></trkpt><trkpt lat="43.51707668102119" lon="11.248205246660481"><ele>418.0</ele><time>2026-03-28T10:06:03.999Z</time></trkpt><trkpt lat="43.51684826027937" lon="11.247998950658243"><ele>418.0</ele><time>2026-03-28T10:06:04.999Z</time></trkpt><trkpt lat="43.5166581603614" lon="11.247935814401657"><ele>418.0</ele><time>2026-03-28T10:06:05.999Z</time></trkpt><trkpt lat="43.51647603355383" lon="11.247857621556218"><ele>418.0</ele><time>2026-03-28T10:06:06.999Z</time></trkpt><trkpt lat="43.516308406279855" lon="11.247717932693027"><ele>420.0</ele><time>2026-03-28T10:06:07.999Z</time></trkpt><trkpt lat="43.51615210201399" lon="11.247502184495398"><ele>422.0</ele><time>2026-03-28T10:06:08.999Z</time></trkpt><trkpt lat="43.515978042867026" lon="11.247310628038846"><ele>424.0</ele><time>2026-03-28T10:06:09.999Z</time></trkpt><trkpt lat="43.51576725570753" lon="11.24716723882817"><ele>424.6666666666667</ele><time>2026-03-28T10:06:10.999Z</time></trkpt><trkpt lat="43.515553360417115" lon="11.247058381950817"><ele>425.33333333333337</ele><time>2026-03-28T10:06:11.999Z</time></trkpt><trkpt lat="43.51536054598834" lon="11.246964748233244"><ele>426.0</ele><time>2026-03-28T10:06:12.999Z</time></trkpt><trkpt lat="43.51515813362911" lon="11.246888596339366"><ele>428.66666666666663</ele><time>2026-03-28T10:06:13.999Z</time></trkpt><trkpt lat="43.5149444894588" lon="11.246856164853767"><ele>431.3333333333333</ele><time>2026-03-28T10:06:14.999Z</time></trkpt><trkpt lat="43.51474759505174" lon="11.246872691482535"><ele>434.0</ele><time>2026-03-28T10:06:15.999Z</time></trkpt><trkpt lat="43.51457828602083" lon="11.246882226458055"><ele>439.0</ele><time>2026-03-28T10:06:16.999Z</time></trkpt><trkpt lat="43.51442848469203" lon="11.24685248135218"><ele>444.0</ele><time>2026-03-28T10:06:17.999Z</time></trkpt><trkpt lat="43.51428023262255" lon="11.24674930161124"><ele>449.0</ele><time>2026-03-28T10:06:18.999Z</time></trkpt><trkpt lat="43.514122874641515" lon="11.246584235165605"><ele>448.3333333333333</ele><time>2026-03-28T10:06:19.999Z</time></trkpt><trkpt lat="43.513962620158416" lon="11.246406657534195"><ele>447.66666666666663</ele><time>2026-03-28T10:06:20.999Z</time></trkpt><trkpt lat="43.513837884107446" lon="11.246243958519194"><ele>447.0</ele><time>2026-03-28T10:06:22Z</time></trkpt><trkpt lat="43.51376026232528" lon="11.24607612914664"><ele>447.0</ele><time>2026-03-28T10:06:23Z</time></trkpt><trkpt lat="43.51373529177739" lon="11.245891837698343"><ele>447.0</ele><time>2026-03-28T10:06:24Z</time></trkpt><trkpt lat="43.51376228874788" lon="11.245696208988633"><ele>447.0</ele><time>2026-03-28T10:06:25Z</time></trkpt><trkpt lat="43.513830940076005" lon="11.2454913569587"><ele>447.0</ele><time>2026-03-28T10:06:26Z</time></trkpt><trkpt lat="43.51389763964316" lon="11.245287497395532"><ele>446.75</ele><time>2026-03-28T10:06:27Z</time></trkpt><trkpt lat="43.5139193814251" lon="11.24510242932381"><ele>446.5</ele><time>2026-03-28T10:06:28Z</time></trkpt><trkpt lat="43.51386877567757" lon="11.24492767564932"><ele>446.25</ele><time>2026-03-28T10:06:29Z</time></trkpt><trkpt lat="43.51374335087942" lon="11.244781104966314"><ele>446.0</ele><time>2026-03-28T10:06:30Z</time></trkpt><trkpt lat="43.51360084947343" lon="11.244664344948198"><ele>451.66666666666663</ele><time>2026-03-28T10:06:31Z</time></trkpt><trkpt lat="43.5134243851379" lon="11.244555543661354"><ele>457.33333333333337</ele><time>2026-03-28T10:06:32Z</time></trkpt><trkpt lat="43.513251039823636" lon="11.244410536816353"><ele>463.0</ele><time>2026-03-28T10:06:33Z</time></trkpt><trkpt lat="43.51307425881517" lon="11.244223962552569"><ele>463.0</ele><time>2026-03-28T10:06:34Z</time></trkpt><trkpt lat="43.512914675506174" lon="11.244067412635172"><ele>463.0</ele><time>2026-03-28T10:06:35Z</time></trkpt><trkpt lat="43.51278463681553" lon="11.243939910260641"><ele>463.0</ele><time>2026-03-28T10:06:36Z</time></trkpt><trkpt lat="43.51267399884066" lon="11.243837661043392"><ele>464.5</ele><time>2026-03-28T10:06:37Z</time></trkpt><trkpt lat="43.51256010526208" lon="11.243764247865661"><ele>466.0</ele><time>2026-03-28T10:06:38Z</time></trkpt><trkpt lat="43.51241942921476" lon="11.243757225826188"><ele>467.5</ele><time>2026-03-28T10:06:39Z</time></trkpt><trkpt lat="43.51225664482196" lon="11.243816088501323"><ele>469.0</ele><time>2026-03-28T10:06:40Z</time></trkpt><trkpt lat="43.51206878848459" lon="11.24390000992395"><ele>474.0</ele><time>2026-03-28T10:06:41Z</time></trkpt><trkpt lat="43.51186797257505" lon="11.24397901664463"><ele>479.0</ele><time>2026-03-28T10:06:42Z</time></trkpt><trkpt lat="43.511658999573356" lon="11.244058090461413"><ele>484.0</ele><time>2026-03-28T10:06:43Z</time></trkpt><trkpt lat="43.51143200951566" lon="11.24414392153714"><ele>484.6666666666667</ele><time>2026-03-28T10:06:44Z</time></trkpt><trkpt lat="43.511212721004256" lon="11.244227689761614"><ele>485.33333333333337</ele><time>2026-03-28T10:06:45Z</time></trkpt><trkpt lat="43.51101050560215" lon="11.24428552504994"><ele>486.0</ele><time>2026-03-28T10:06:46Z</time></trkpt><trkpt lat="43.5108131914186" lon="11.244294472151505"><ele>486.0</ele><time>2026-03-28T10:06:47Z</time></trkpt><trkpt lat="43.51061371114349" lon="11.244259436416455"><ele>486.0</ele><time>2026-03-28T10:06:48Z</time></trkpt><trkpt lat="43.510405041420775" lon="11.244181947633793"><ele>486.0</ele><time>2026-03-28T10:06:49Z</time></trkpt><trkpt lat="43.510223896151665" lon="11.244081559294692"><ele>488.0</ele><time>2026-03-28T10:06:50Z</time></trkpt><trkpt lat="43.51007851370676" lon="11.243928145488711"><ele>490.0</ele><time>2026-03-28T10:06:51Z</time></trkpt><trkpt lat="43.509958980071424" lon="11.243714268166784"><ele>492.0</ele><time>2026-03-28T10:06:52Z</time></trkpt><trkpt lat="43.50986087389159" lon="11.243459537807517"><ele>492.0</ele><time>2026-03-28T10:06:53Z</time></trkpt><trkpt lat="43.50976475318024" lon="11.24324239197762"><ele>492.0</ele><time>2026-03-28T10:06:54Z</time></trkpt><trkpt lat="43.50965107427921" lon="11.243075799510494"><ele>492.0</ele><time>2026-03-28T10:06:55Z</time></trkpt><trkpt lat="43.50948546693761" lon="11.242956133273122"><ele>494.66666666666663</ele><time>2026-03-28T10:06:56Z</time></trkpt><trkpt lat="43.50929594654518" lon="11.242876657054877"><ele>497.3333333333333</ele><time>2026-03-28T10:06:57Z</time></trkpt><trkpt lat="43.50913801567875" lon="11.242826836315604"><ele>500.0</ele><time>2026-03-28T10:06:58Z</time></trkpt><trkpt lat="43.509003204197555" lon="11.242807726063667"><ele>500.0</ele><time>2026-03-28T10:06:59Z</time></trkpt><trkpt lat="43.50886179207227" lon="11.242861020207462"><ele>500.0</ele><time>2026-03-28T10:07:00Z</time></trkpt><trkpt lat="43.50869228733872" lon="11.242987972308267"><ele>500.0</ele><time>2026-03-28T10:07:01Z</time></trkpt><trkpt lat="43.508505429159975" lon="11.24312758092001"><ele>500.0</ele><time>2026-03-28T10:07:02Z</time></trkpt><trkpt lat="43.50832729110748" lon="11.243222508511693"><ele>500.0</ele><time>2026-03-28T10:07:03Z</time></trkpt><trkpt lat="43.50815466049768" lon="11.243262504068813"><ele>500.0</ele><time>2026-03-28T10:07:04Z</time></trkpt><trkpt lat="43.50793892776024" lon="11.243230562406593"><ele>500.0</ele><time>2026-03-28T10:07:05Z</time></trkpt><trkpt lat="43.50770675035975" lon="11.24321002919188"><ele>500.0</ele><time>2026-03-28T10:07:06Z</time></trkpt><trkpt lat="43.507476409100846" lon="11.243206865763353"><ele>500.0</ele><time>2026-03-28T10:07:07Z</time></trkpt><trkpt lat="43.50725053522129" lon="11.243242922489094"><ele>500.0</ele><time>2026-03-28T10:07:08Z</time></trkpt><trkpt lat="43.507031586521066" lon="11.24334672686428"><ele>502.66666666666663</ele><time>2026-03-28T10:07:09Z</time></trkpt><trkpt lat="43.50683773700195" lon="11.2434787256698"><ele>505.33333333333337</ele><time>2026-03-28T10:07:10Z</time></trkpt><trkpt lat="43.5066735653755" lon="11.243606904556183"><ele>508.0</ele><time>2026-03-28T10:07:11Z</time></trkpt><trkpt lat="43.50651939905866" lon="11.243641543072252"><ele>508.0</ele><time>2026-03-28T10:07:12Z</time></trkpt><trkpt lat="43.506386893166784" lon="11.243605810473777"><ele>508.0</ele><time>2026-03-28T10:07:13Z</time></trkpt><trkpt lat="43.506238197353724" lon="11.243534005276862"><ele>508.0</ele><time>2026-03-28T10:07:14Z</time></trkpt><trkpt lat="43.50605052965073" lon="11.24344114454356"><ele>511.33333333333337</ele><time>2026-03-28T10:07:15Z</time></trkpt><trkpt lat="43.50584839676661" lon="11.24336634536022"><ele>514.6666666666666</ele><time>2026-03-28T10:07:16Z</time></trkpt><trkpt lat="43.505658209026684" lon="11.243300037192874"><ele>518.0</ele><time>2026-03-28T10:07:17Z</time></trkpt><trkpt lat="43.505472722140695" lon="11.24329153045703"><ele>519.6666666666666</ele><time>2026-03-28T10:07:18Z</time></trkpt><trkpt lat="43.50527150034492" lon="11.243360896206898"><ele>521.3333333333334</ele><time>2026-03-28T10:07:19Z</time></trkpt><trkpt lat="43.50508485908562" lon="11.243454932368028"><ele>523.0</ele><time>2026-03-28T10:07:20Z</time></trkpt><trkpt lat="43.50490997905662" lon="11.243557776171007"><ele>523.0</ele><time>2026-03-28T10:07:21Z</time></trkpt><trkpt lat="43.50472399696525" lon="11.243700398684304"><ele>523.0</ele><time>2026-03-28T10:07:22Z</time></trkpt><trkpt lat="43.504538755930334" lon="11.243905778072078"><ele>524.0</ele><time>2026-03-28T10:07:23Z</time></trkpt><trkpt lat="43.504346816244706" lon="11.244134600257992"><ele>525.0</ele><time>2026-03-28T10:07:24Z</time></trkpt><trkpt lat="43.50414649017477" lon="11.24434396713217"><ele>525.0</ele><time>2026-03-28T10:07:25Z</time></trkpt><trkpt lat="43.503951909545584" lon="11.244553778916154"><ele>525.0</ele><time>2026-03-28T10:07:26Z</time></trkpt><trkpt lat="43.503763595005424" lon="11.244795121484069"><ele>528.0</ele><time>2026-03-28T10:07:27Z</time></trkpt><trkpt lat="43.503617492562036" lon="11.245069153201225"><ele>531.0</ele><time>2026-03-28T10:07:28Z</time></trkpt><trkpt lat="43.50349981996894" lon="11.245324137423506"><ele>531.0</ele><time>2026-03-28T10:07:29Z</time></trkpt><trkpt lat="43.50337977725753" lon="11.245540069725394"><ele>531.0</ele><time>2026-03-28T10:07:30Z</time></trkpt><trkpt lat="43.503237706261466" lon="11.245731432057502"><ele>531.0</ele><time>2026-03-28T10:07:31Z</time></trkpt><trkpt lat="43.503048982771745" lon="11.245913445680186"><ele>528.6666666666666</ele><time>2026-03-28T10:07:32Z</time></trkpt><trkpt lat="43.502865604935614" lon="11.246095777295443"><ele>526.3333333333333</ele><time>2026-03-28T10:07:33Z</time></trkpt><trkpt lat="43.502712821122714" lon="11.246288953031375"><ele>524.0</ele><time>2026-03-28T10:07:34Z</time></trkpt><trkpt lat="43.50259104109708" lon="11.246533927962613"><ele>524.0</ele><time>2026-03-28T10:07:35Z</time></trkpt><trkpt lat="43.50248333833322" lon="11.246836419130393"><ele>524.0</ele><time>2026-03-28T10:07:36Z</time></trkpt><trkpt lat="43.50240494198981" lon="11.247162077589111"><ele>526.0</ele><time>2026-03-28T10:07:37Z</time></trkpt><trkpt lat="43.5023459669118" lon="11.247509212788417"><ele>528.0</ele><time>2026-03-28T10:07:38Z</time></trkpt><trkpt lat="43.50227795303372" lon="11.24786742181059"><ele>528.5</ele><time>2026-03-28T10:07:39Z</time></trkpt><trkpt lat="43.50221081912983" lon="11.248191887402646"><ele>529.0</ele><time>2026-03-28T10:07:40Z</time></trkpt><trkpt lat="43.50217410281831" lon="11.24847601083192"><ele>529.0</ele><time>2026-03-28T10:07:41Z</time></trkpt><trkpt lat="43.50216968579318" lon="11.248731431061163"><ele>529.0</ele><time>2026-03-28T10:07:42Z</time></trkpt><trkpt lat="43.50217814030442" lon="11.248971771520814"><ele>529.0</ele><time>2026-03-28T10:07:43Z</time></trkpt><trkpt lat="43.502172308560255" lon="11.249192559365511"><ele>530.25</ele><time>2026-03-28T10:07:44Z</time></trkpt><trkpt lat="43.50212842195271" lon="11.249387293408727"><ele>531.5</ele><time>2026-03-28T10:07:45Z</time></trkpt><trkpt lat="43.502042459134806" lon="11.249551084306002"><ele>532.75</ele><time>2026-03-28T10:07:46Z</time></trkpt><trkpt lat="43.50191165223052" lon="11.24964312618087"><ele>534.0</ele><time>2026-03-28T10:07:47Z</time></trkpt><trkpt lat="43.50176564357712" lon="11.249689747513955"><ele>539.6666666666666</ele><time>2026-03-28T10:07:48Z</time></trkpt><trkpt lat="43.501585993898985" lon="11.249702440147576"><ele>545.3333333333333</ele><time>2026-03-28T10:07:49Z</time></trkpt><trkpt lat="43.501387581901916" lon="11.249717866584582"><ele>551.0</ele><time>2026-03-28T10:07:50Z</time></trkpt><trkpt lat="43.50117199237604" lon="11.249724141113388"><ele>555.0</ele><time>2026-03-28T10:07:50.999Z</time></trkpt><trkpt lat="43.50094563780805" lon="11.249739891451817"><ele>559.0</ele><time>2026-03-28T10:07:51.999Z</time></trkpt><trkpt lat="43.500706774506796" lon="11.249758197634167"><ele>559.0</ele><time>2026-03-28T10:07:52.999Z</time></trkpt><trkpt lat="43.500464732406364" lon="11.249780495402533"><ele>559.0</ele><time>2026-03-28T10:07:53.999Z</time></trkpt><trkpt lat="43.5002125465508" lon="11.249810262842344"><ele>555.0</ele><time>2026-03-28T10:07:54.999Z</time></trkpt><trkpt lat="43.49996057486122" lon="11.249848764857644"><ele>551.0</ele><time>2026-03-28T10:07:55.999Z</time></trkpt><trkpt lat="43.499694369270365" lon="11.249884108122442"><ele>551.5</ele><time>2026-03-28T10:07:56.999Z</time></trkpt><trkpt lat="43.499419291867255" lon="11.249916264545536"><ele>552.0</ele><time>2026-03-28T10:07:57.999Z</time></trkpt><trkpt lat="43.49916517540589" lon="11.249944780401371"><ele>552.0</ele><time>2026-03-28T10:07:58.999Z</time></trkpt><trkpt lat="43.49893254535071" lon="11.249972492771999"><ele>552.0</ele><time>2026-03-28T10:07:59.999Z</time></trkpt><trkpt lat="43.49871288432166" lon="11.250015174543723"><ele>553.0</ele><time>2026-03-28T10:08:00.999Z</time></trkpt><trkpt lat="43.49850849140403" lon="11.250093560282066"><ele>554.0</ele><time>2026-03-28T10:08:01.999Z</time></trkpt><trkpt lat="43.49830545118643" lon="11.250215990052842"><ele>555.0</ele><time>2026-03-28T10:08:02.999Z</time></trkpt><trkpt lat="43.498131319347785" lon="11.250392263111067"><ele>555.0</ele><time>2026-03-28T10:08:03.999Z</time></trkpt><trkpt lat="43.49800164211427" lon="11.25057615537149"><ele>555.0</ele><time>2026-03-28T10:08:04.999Z</time></trkpt><trkpt lat="43.49788294688561" lon="11.250756577922045"><ele>555.0</ele><time>2026-03-28T10:08:05.999Z</time></trkpt><trkpt lat="43.49773717839175" lon="11.250902686487947"><ele>558.6666666666666</ele><time>2026-03-28T10:08:06.999Z</time></trkpt><trkpt lat="43.49757759563363" lon="11.250972297158578"><ele>562.3333333333333</ele><time>2026-03-28T10:08:07.999Z</time></trkpt><trkpt lat="43.49741628824659" lon="11.25101257489392"><ele>566.0</ele><time>2026-03-28T10:08:08.999Z</time></trkpt><trkpt lat="43.49724526916133" lon="11.25099650794363"><ele>565.0</ele><time>2026-03-28T10:08:09.999Z</time></trkpt><trkpt lat="43.497060506153275" lon="11.250929834764152"><ele>564.0</ele><time>2026-03-28T10:08:10.999Z</time></trkpt><trkpt lat="43.49686712707297" lon="11.250832973680238"><ele>563.0</ele><time>2026-03-28T10:08:11.999Z</time></trkpt><trkpt lat="43.496683908105496" lon="11.250735861693649"><ele>563.3333333333333</ele><time>2026-03-28T10:08:12.999Z</time></trkpt><trkpt lat="43.49651728297992" lon="11.250623863383483"><ele>563.6666666666666</ele><time>2026-03-28T10:08:13.999Z</time></trkpt><trkpt lat="43.496372529825244" lon="11.250524131728097"><ele>564.0</ele><time>2026-03-28T10:08:14.999Z</time></trkpt><trkpt lat="43.496237691405" lon="11.250450559698763"><ele>564.0</ele><time>2026-03-28T10:08:15.999Z</time></trkpt><trkpt lat="43.49610390515642" lon="11.250436731929536"><ele>564.0</ele><time>2026-03-28T10:08:16.999Z</time></trkpt><trkpt lat="43.495961143311916" lon="11.250513185102376"><ele>564.0</ele><time>2026-03-28T10:08:17.999Z</time></trkpt><trkpt lat="43.49582141201415" lon="11.250662743642595"><ele>564.0</ele><time>2026-03-28T10:08:18.999Z</time></trkpt><trkpt lat="43.49569494929192" lon="11.250884504731948"><ele>564.0</ele><time>2026-03-28T10:08:19.999Z</time></trkpt><trkpt lat="43.49557671614018" lon="11.25111004241653"><ele>564.0</ele><time>2026-03-28T10:08:20.999Z</time></trkpt><trkpt lat="43.495482470190694" lon="11.251332238725059"><ele>563.6666666666666</ele><time>2026-03-28T10:08:21.999Z</time></trkpt><trkpt lat="43.49541783249683" lon="11.251570222651772"><ele>563.3333333333333</ele><time>2026-03-28T10:08:22.999Z</time></trkpt><trkpt lat="43.495383229422806" lon="11.251846797763383"><ele>563.0</ele><time>2026-03-28T10:08:23.999Z</time></trkpt><trkpt lat="43.49535014402368" lon="11.252120316061365"><ele>564.0</ele><time>2026-03-28T10:08:24.999Z</time></trkpt><trkpt lat="43.49527907031489" lon="11.252361805582616"><ele>565.0</ele><time>2026-03-28T10:08:25.999Z</time></trkpt><trkpt lat="43.495193961658636" lon="11.252581662133434"><ele>566.0</ele><time>2026-03-28T10:08:26.999Z</time></trkpt><trkpt lat="43.495069933780975" lon="11.252794250878061"><ele>566.0</ele><time>2026-03-28T10:08:28Z</time></trkpt><trkpt lat="43.494934160200586" lon="11.252988292570581"><ele>566.0</ele><time>2026-03-28T10:08:29Z</time></trkpt><trkpt lat="43.49480838430761" lon="11.253148572512659"><ele>566.0</ele><time>2026-03-28T10:08:30Z</time></trkpt><trkpt lat="43.49472291327912" lon="11.25334295127985"><ele>568.3333333333333</ele><time>2026-03-28T10:08:31Z</time></trkpt><trkpt lat="43.49467185245068" lon="11.253583125312227"><ele>570.6666666666666</ele><time>2026-03-28T10:08:32Z</time></trkpt><trkpt lat="43.494652467125654" lon="11.253861119408185"><ele>573.0</ele><time>2026-03-28T10:08:33Z</time></trkpt><trkpt lat="43.49465149383852" lon="11.254160964834684"><ele>574.6666666666666</ele><time>2026-03-28T10:08:34Z</time></trkpt><trkpt lat="43.49465384762255" lon="11.254430433272834"><ele>576.3333333333333</ele><time>2026-03-28T10:08:35Z</time></trkpt><trkpt lat="43.49465308383402" lon="11.25468101684209"><ele>578.0</ele><time>2026-03-28T10:08:36Z</time></trkpt><trkpt lat="43.49462681106389" lon="11.254911526200154"><ele>576.0</ele><time>2026-03-28T10:08:37Z</time></trkpt><trkpt lat="43.49454179023224" lon="11.255140858032428"><ele>574.0</ele><time>2026-03-28T10:08:38Z</time></trkpt><trkpt lat="43.494451284970474" lon="11.25537249766538"><ele>572.0</ele><time>2026-03-28T10:08:39Z</time></trkpt><trkpt lat="43.49437257734335" lon="11.25558819683158"><ele>575.0</ele><time>2026-03-28T10:08:40Z</time></trkpt><trkpt lat="43.49427067500419" lon="11.25573638515274"><ele>578.0</ele><time>2026-03-28T10:08:41Z</time></trkpt><trkpt lat="43.49414531553636" lon="11.255822362157184"><ele>581.0</ele><time>2026-03-28T10:08:42Z</time></trkpt><trkpt lat="43.49400113388707" lon="11.25581386088606"><ele>584.0</ele><time>2026-03-28T10:08:43Z</time></trkpt><trkpt lat="43.493854888073045" lon="11.255761423884715"><ele>584.0</ele><time>2026-03-28T10:08:44Z</time></trkpt><trkpt lat="43.493681629990874" lon="11.255725245693931"><ele>584.0</ele><time>2026-03-28T10:08:45Z</time></trkpt><trkpt lat="43.49353256506226" lon="11.255661523957428"><ele>584.0</ele><time>2026-03-28T10:08:46Z</time></trkpt><trkpt lat="43.493406159828766" lon="11.255681964171385"><ele>584.0</ele><time>2026-03-28T10:08:47Z</time></trkpt><trkpt lat="43.49328938674379" lon="11.255795328844165"><ele>584.0</ele><time>2026-03-28T10:08:48Z</time></trkpt><trkpt lat="43.49319631950079" lon="11.255991365190686"><ele>584.0</ele><time>2026-03-28T10:08:49Z</time></trkpt><trkpt lat="43.49313827557886" lon="11.256252350502647"><ele>585.3333333333333</ele><time>2026-03-28T10:08:50Z</time></trkpt><trkpt lat="43.49309821140754" lon="11.256550819155862"><ele>586.6666666666666</ele><time>2026-03-28T10:08:51Z</time></trkpt><trkpt lat="43.493082425343765" lon="11.256829334164939"><ele>588.0</ele><time>2026-03-28T10:08:52Z</time></trkpt><trkpt lat="43.49303270613737" lon="11.25706613048814"><ele>588.0</ele><time>2026-03-28T10:08:53Z</time></trkpt><trkpt lat="43.49295646679123" lon="11.257272310519362"><ele>588.0</ele><time>2026-03-28T10:08:54Z</time></trkpt><trkpt lat="43.492840652540735" lon="11.257454558928337"><ele>588.0</ele><time>2026-03-28T10:08:55Z</time></trkpt><trkpt lat="43.49267347277542" lon="11.257584205963537"><ele>588.3333333333334</ele><time>2026-03-28T10:08:56Z</time></trkpt><trkpt lat="43.49249520277527" lon="11.257702616972502"><ele>588.6666666666667</ele><time>2026-03-28T10:08:57Z</time></trkpt><trkpt lat="43.49231544639157" lon="11.257852403711658"><ele>589.0</ele><time>2026-03-28T10:08:58Z</time></trkpt><trkpt lat="43.49216784394674" lon="11.258063529883872"><ele>587.0</ele><time>2026-03-28T10:08:59Z</time></trkpt><trkpt lat="43.49202284891106" lon="11.258314516300237"><ele>585.0</ele><time>2026-03-28T10:09:00Z</time></trkpt><trkpt lat="43.491860955672145" lon="11.258575183803378"><ele>585.0</ele><time>2026-03-28T10:09:01Z</time></trkpt><trkpt lat="43.491664912942966" lon="11.258790096834892"><ele>585.0</ele><time>2026-03-28T10:09:02Z</time></trkpt><trkpt lat="43.49144466838492" lon="11.25897308615016"><ele>591.5</ele><time>2026-03-28T10:09:03Z</time></trkpt><trkpt lat="43.491224081397" lon="11.25911960661669"><ele>598.0</ele><time>2026-03-28T10:09:04Z</time></trkpt><trkpt lat="43.49102222266015" lon="11.259243678627364"><ele>598.0</ele><time>2026-03-28T10:09:05Z</time></trkpt><trkpt lat="43.49082967673356" lon="11.25935600150765"><ele>598.0</ele><time>2026-03-28T10:09:06Z</time></trkpt><trkpt lat="43.49066590429593" lon="11.259463277693746"><ele>598.0</ele><time>2026-03-28T10:09:07Z</time></trkpt><trkpt lat="43.49051306615218" lon="11.259562657520773"><ele>595.3333333333334</ele><time>2026-03-28T10:09:08Z</time></trkpt><trkpt lat="43.49038102641004" lon="11.259712423964393"><ele>592.6666666666666</ele><time>2026-03-28T10:09:09Z</time></trkpt><trkpt lat="43.49028340320404" lon="11.259914892197326"><ele>590.0</ele><time>2026-03-28T10:09:10Z</time></trkpt><trkpt lat="43.490209318417804" lon="11.260136915146452"><ele>590.0</ele><time>2026-03-28T10:09:11Z</time></trkpt><trkpt lat="43.49015081329745" lon="11.260358271029096"><ele>590.0</ele><time>2026-03-28T10:09:12Z</time></trkpt><trkpt lat="43.49003778640103" lon="11.260530048917158"><ele>590.0</ele><time>2026-03-28T10:09:13Z</time></trkpt><trkpt lat="43.48988800120885" lon="11.260639988049032"><ele>591.6666666666666</ele><time>2026-03-28T10:09:14Z</time></trkpt><trkpt lat="43.489701600061714" lon="11.260703405223953"><ele>593.3333333333334</ele><time>2026-03-28T10:09:15Z</time></trkpt><trkpt lat="43.48949183126039" lon="11.260747826436086"><ele>595.0</ele><time>2026-03-28T10:09:16Z</time></trkpt><trkpt lat="43.48930576103071" lon="11.26076172056019"><ele>595.0</ele><time>2026-03-28T10:09:17Z</time></trkpt><trkpt lat="43.48912458808832" lon="11.260834750124022"><ele>595.0</ele><time>2026-03-28T10:09:18Z</time></trkpt><trkpt lat="43.488936007057056" lon="11.260979468203137"><ele>595.0</ele><time>2026-03-28T10:09:19Z</time></trkpt><trkpt lat="43.4887516876671" lon="11.261157851248587"><ele>595.6666666666667</ele><time>2026-03-28T10:09:20Z</time></trkpt><trkpt lat="43.48857705118412" lon="11.261308035666186"><ele>596.3333333333334</ele><time>2026-03-28T10:09:21Z</time></trkpt><trkpt lat="43.48841044638888" lon="11.26142349296734"><ele>597.0</ele><time>2026-03-28T10:09:22Z</time></trkpt><trkpt lat="43.48824207346465" lon="11.26153802897379"><ele>597.0</ele><time>2026-03-28T10:09:23Z</time></trkpt><trkpt lat="43.488063540954734" lon="11.261650836998514"><ele>597.0</ele><time>2026-03-28T10:09:24Z</time></trkpt><trkpt lat="43.48788389963867" lon="11.261753615503718"><ele>597.0</ele><time>2026-03-28T10:09:25Z</time></trkpt><trkpt lat="43.48771966432108" lon="11.261867510787251"><ele>596.3333333333334</ele><time>2026-03-28T10:09:26Z</time></trkpt><trkpt lat="43.48757521904537" lon="11.262050724075033"><ele>595.6666666666667</ele><time>2026-03-28T10:09:27Z</time></trkpt><trkpt lat="43.48745673981553" lon="11.262298879473395"><ele>595.0</ele><time>2026-03-28T10:09:28Z</time></trkpt><trkpt lat="43.48736061153279" lon="11.262526993074314"><ele>594.6666666666667</ele><time>2026-03-28T10:09:29Z</time></trkpt><trkpt lat="43.48723587713327" lon="11.2627281749194"><ele>594.3333333333334</ele><time>2026-03-28T10:09:30Z</time></trkpt><trkpt lat="43.48707207374274" lon="11.26290903232611"><ele>594.0</ele><time>2026-03-28T10:09:31Z</time></trkpt><trkpt lat="43.486868699262715" lon="11.26305135695257"><ele>596.5</ele><time>2026-03-28T10:09:32Z</time></trkpt><trkpt lat="43.4866576591121" lon="11.263199470212333"><ele>599.0</ele><time>2026-03-28T10:09:33Z</time></trkpt><trkpt lat="43.48643050129453" lon="11.26332217812837"><ele>598.6666666666666</ele><time>2026-03-28T10:09:34Z</time></trkpt><trkpt lat="43.486213466039494" lon="11.263431825673479"><ele>598.3333333333334</ele><time>2026-03-28T10:09:35Z</time></trkpt><trkpt lat="43.48602162813557" lon="11.263513391605443"><ele>598.0</ele><time>2026-03-28T10:09:36Z</time></trkpt><trkpt lat="43.48581959739868" lon="11.26360012819903"><ele>598.0</ele><time>2026-03-28T10:09:37Z</time></trkpt><trkpt lat="43.48560914636326" lon="11.263664059111207"><ele>598.0</ele><time>2026-03-28T10:09:38Z</time></trkpt><trkpt lat="43.48540626937124" lon="11.263733580893188"><ele>598.0</ele><time>2026-03-28T10:09:39Z</time></trkpt><trkpt lat="43.485203067720356" lon="11.263828090073114"><ele>596.5</ele><time>2026-03-28T10:09:40Z</time></trkpt><trkpt lat="43.48499743991459" lon="11.263969262382968"><ele>595.0</ele><time>2026-03-28T10:09:41Z</time></trkpt><trkpt lat="43.484810241290944" lon="11.264152729164037"><ele>595.0</ele><time>2026-03-28T10:09:42Z</time></trkpt><trkpt lat="43.48463883201548" lon="11.264370102246911"><ele>595.0</ele><time>2026-03-28T10:09:43Z</time></trkpt><trkpt lat="43.48448591612736" lon="11.264593663735816"><ele>593.0</ele><time>2026-03-28T10:09:44Z</time></trkpt><trkpt lat="43.48432285000336" lon="11.264811026771335"><ele>591.0</ele><time>2026-03-28T10:09:45Z</time></trkpt><trkpt lat="43.48413849598265" lon="11.265016035722544"><ele>591.0</ele><time>2026-03-28T10:09:46Z</time></trkpt><trkpt lat="43.48393674557397" lon="11.265200016650654"><ele>591.0</ele><time>2026-03-28T10:09:47Z</time></trkpt><trkpt lat="43.48374479219461" lon="11.265361581374203"><ele>591.6666666666666</ele><time>2026-03-28T10:09:48Z</time></trkpt><trkpt lat="43.483581195693915" lon="11.265498914188317"><ele>592.3333333333333</ele><time>2026-03-28T10:09:49Z</time></trkpt><trkpt lat="43.48343827318641" lon="11.265636467730328"><ele>593.0</ele><time>2026-03-28T10:09:50Z</time></trkpt><trkpt lat="43.48331505151998" lon="11.265805377820364"><ele>593.0</ele><time>2026-03-28T10:09:51Z</time></trkpt><trkpt lat="43.483224364151255" lon="11.26602436630844"><ele>593.0</ele><time>2026-03-28T10:09:52Z</time></trkpt><trkpt lat="43.48315591243" lon="11.266282686991286"><ele>593.0</ele><time>2026-03-28T10:09:53Z</time></trkpt><trkpt lat="43.48311163279756" lon="11.266537024880364"><ele>594.3333333333333</ele><time>2026-03-28T10:09:54Z</time></trkpt><trkpt lat="43.483067506936635" lon="11.2667843028022"><ele>595.6666666666666</ele><time>2026-03-28T10:09:54.999Z</time></trkpt><trkpt lat="43.48298055735656" lon="11.267009381546234"><ele>597.0</ele><time>2026-03-28T10:09:55.999Z</time></trkpt><trkpt lat="43.482830662487075" lon="11.267188042054073"><ele>598.5</ele><time>2026-03-28T10:09:56.999Z</time></trkpt><trkpt lat="43.48264337133738" lon="11.267351419734403"><ele>600.0</ele><time>2026-03-28T10:09:57.999Z</time></trkpt><trkpt lat="43.48244443797462" lon="11.267509022436254"><ele>600.0</ele><time>2026-03-28T10:09:58.999Z</time></trkpt><trkpt lat="43.48226334918529" lon="11.267651086996286"><ele>600.0</ele><time>2026-03-28T10:09:59.999Z</time></trkpt><trkpt lat="43.48208470058956" lon="11.2678036686902"><ele>600.0</ele><time>2026-03-28T10:10:00.999Z</time></trkpt><trkpt lat="43.481890898588205" lon="11.267963111973556"><ele>599.0</ele><time>2026-03-28T10:10:01.999Z</time></trkpt><trkpt lat="43.48168583236019" lon="11.268101691016856"><ele>598.0</ele><time>2026-03-28T10:10:02.999Z</time></trkpt><trkpt lat="43.481465403383936" lon="11.268203687538813"><ele>603.6666666666667</ele><time>2026-03-28T10:10:03.999Z</time></trkpt><trkpt lat="43.4812652347145" lon="11.26828097858434"><ele>609.3333333333334</ele><time>2026-03-28T10:10:04.999Z</time></trkpt><trkpt lat="43.48109406167786" lon="11.26834584625794"><ele>615.0</ele><time>2026-03-28T10:10:05.999Z</time></trkpt><trkpt lat="43.480935446955485" lon="11.268372972953692"><ele>615.0</ele><time>2026-03-28T10:10:06.999Z</time></trkpt><trkpt lat="43.4807582308915" lon="11.26837175962788"><ele>615.0</ele><time>2026-03-28T10:10:07.999Z</time></trkpt><trkpt lat="43.480555173196215" lon="11.268338361991452"><ele>615.0</ele><time>2026-03-28T10:10:08.999Z</time></trkpt><trkpt lat="43.48034312965134" lon="11.268267385610946"><ele>615.0</ele><time>2026-03-28T10:10:09.999Z</time></trkpt><trkpt lat="43.4801240570651" lon="11.268223285777616"><ele>615.0</ele><time>2026-03-28T10:10:10.999Z</time></trkpt><trkpt lat="43.479921177040865" lon="11.268160399304733"><ele>615.0</ele><time>2026-03-28T10:10:11.999Z</time></trkpt><trkpt lat="43.47972094613779" lon="11.2681196975137"><ele>616.6666666666666</ele><time>2026-03-28T10:10:12.999Z</time></trkpt><trkpt lat="43.47950881894656" lon="11.268091245046252"><ele>618.3333333333333</ele><time>2026-03-28T10:10:13.999Z</time></trkpt><trkpt lat="43.47928970502306" lon="11.268082501187925"><ele>620.0</ele><time>2026-03-28T10:10:14.999Z</time></trkpt><trkpt lat="43.47909180419377" lon="11.268078219097776"><ele>620.0</ele><time>2026-03-28T10:10:15.999Z</time></trkpt><trkpt lat="43.47892432136624" lon="11.268077600434525"><ele>620.0</ele><time>2026-03-28T10:10:16.999Z</time></trkpt><trkpt lat="43.478770273690806" lon="11.268093167196223"><ele>620.0</ele><time>2026-03-28T10:10:17.999Z</time></trkpt><trkpt lat="43.47861282317269" lon="11.26815706266376"><ele>621.6666666666666</ele><time>2026-03-28T10:10:18.999Z</time></trkpt><trkpt lat="43.47846385214887" lon="11.268290867871672"><ele>623.3333333333334</ele><time>2026-03-28T10:10:19.999Z</time></trkpt><trkpt lat="43.4783107011823" lon="11.268476803881674"><ele>625.0</ele><time>2026-03-28T10:10:20.999Z</time></trkpt><trkpt lat="43.47816443170375" lon="11.268695035360107"><ele>625.0</ele><time>2026-03-28T10:10:21.999Z</time></trkpt><trkpt lat="43.47800765113132" lon="11.268908709399167"><ele>625.0</ele><time>2026-03-28T10:10:22.999Z</time></trkpt><trkpt lat="43.477844945514676" lon="11.269137149552817"><ele>625.0</ele><time>2026-03-28T10:10:23.999Z</time></trkpt><trkpt lat="43.477673754983094" lon="11.269377758643564"><ele>625.0</ele><time>2026-03-28T10:10:24.999Z</time></trkpt><trkpt lat="43.47749684397065" lon="11.26960451046372"><ele>624.6666666666667</ele><time>2026-03-28T10:10:25.999Z</time></trkpt><trkpt lat="43.47732339294852" lon="11.269805880912294"><ele>624.3333333333334</ele><time>2026-03-28T10:10:26.999Z</time></trkpt><trkpt lat="43.47715828291254" lon="11.2699983057309"><ele>624.0</ele><time>2026-03-28T10:10:27.999Z</time></trkpt><trkpt lat="43.47702269095584" lon="11.27020059532241"><ele>624.0</ele><time>2026-03-28T10:10:28.999Z</time></trkpt><trkpt lat="43.47692566356066" lon="11.270410407171699"><ele>624.0</ele><time>2026-03-28T10:10:29.999Z</time></trkpt><trkpt lat="43.476844907077854" lon="11.27062130553009"><ele>624.0</ele><time>2026-03-28T10:10:30.999Z</time></trkpt><trkpt lat="43.47676107522178" lon="11.270855286341414"><ele>624.6666666666666</ele><time>2026-03-28T10:10:31.999Z</time></trkpt><trkpt lat="43.476658808047944" lon="11.2710894215755"><ele>625.3333333333333</ele><time>2026-03-28T10:10:33Z</time></trkpt><trkpt lat="43.476570294020355" lon="11.271309786467253"><ele>626.0</ele><time>2026-03-28T10:10:34Z</time></trkpt><trkpt lat="43.47646641402185" lon="11.271532937285265"><ele>627.0</ele><time>2026-03-28T10:10:35Z</time></trkpt><trkpt lat="43.476321769642645" lon="11.271757236243301"><ele>628.0</ele><time>2026-03-28T10:10:36Z</time></trkpt><trkpt lat="43.47614714271192" lon="11.271965986267677"><ele>629.0</ele><time>2026-03-28T10:10:37Z</time></trkpt><trkpt lat="43.47596637382721" lon="11.272157221227049"><ele>625.0</ele><time>2026-03-28T10:10:38Z</time></trkpt><trkpt lat="43.47579143474567" lon="11.272337918537918"><ele>621.0</ele><time>2026-03-28T10:10:39Z</time></trkpt><trkpt lat="43.4756307556587" lon="11.272526799070528"><ele>617.0</ele><time>2026-03-28T10:10:40Z</time></trkpt><trkpt lat="43.475477102159594" lon="11.27273537746571"><ele>614.6666666666666</ele><time>2026-03-28T10:10:41Z</time></trkpt><trkpt lat="43.47533768555667" lon="11.272970378256122"><ele>612.3333333333334</ele><time>2026-03-28T10:10:42Z</time></trkpt><trkpt lat="43.47521628360958" lon="11.273206136679256"><ele>610.0</ele><time>2026-03-28T10:10:43Z</time></trkpt><trkpt lat="43.47509390427961" lon="11.27342508716592"><ele>610.0</ele><time>2026-03-28T10:10:44Z</time></trkpt><trkpt lat="43.47498632640548" lon="11.273649493059525"><ele>610.0</ele><time>2026-03-28T10:10:45Z</time></trkpt><trkpt lat="43.47489905737132" lon="11.273908108041855"><ele>610.0</ele><time>2026-03-28T10:10:46Z</time></trkpt><trkpt lat="43.474842407817924" lon="11.274192456222103"><ele>610.3333333333334</ele><time>2026-03-28T10:10:47Z</time></trkpt><trkpt lat="43.47479593022394" lon="11.274485204686703"><ele>610.6666666666666</ele><time>2026-03-28T10:10:48Z</time></trkpt><trkpt lat="43.47475572697803" lon="11.274760926558532"><ele>611.0</ele><time>2026-03-28T10:10:49Z</time></trkpt><trkpt lat="43.47473723411535" lon="11.275022763988442"><ele>611.6666666666666</ele><time>2026-03-28T10:10:50Z</time></trkpt><trkpt lat="43.474744886922814" lon="11.275284660825356"><ele>612.3333333333334</ele><time>2026-03-28T10:10:51Z</time></trkpt><trkpt lat="43.47477027947183" lon="11.275525559655039"><ele>613.0</ele><time>2026-03-28T10:10:52Z</time></trkpt><trkpt lat="43.474791736202555" lon="11.27575175562792"><ele>614.0</ele><time>2026-03-28T10:10:53Z</time></trkpt><trkpt lat="43.474802733098194" lon="11.275974609928562"><ele>615.0</ele><time>2026-03-28T10:10:54Z</time></trkpt><trkpt lat="43.47480427621199" lon="11.276189226034408"><ele>616.0</ele><time>2026-03-28T10:10:55Z</time></trkpt><trkpt lat="43.474802854620634" lon="11.27637624615681"><ele>615.25</ele><time>2026-03-28T10:10:56Z</time></trkpt><trkpt lat="43.47479414419834" lon="11.276545891274075"><ele>614.5</ele><time>2026-03-28T10:10:57Z</time></trkpt><trkpt lat="43.474760586698764" lon="11.276708308527505"><ele>613.75</ele><time>2026-03-28T10:10:58Z</time></trkpt><trkpt lat="43.47470375614881" lon="11.276860761327086"><ele>613.0</ele><time>2026-03-28T10:10:59Z</time></trkpt><trkpt lat="43.474622825934986" lon="11.277012826436149"><ele>613.25</ele><time>2026-03-28T10:11:00Z</time></trkpt><trkpt lat="43.474531478739586" lon="11.277172576426034"><ele>613.5</ele><time>2026-03-28T10:11:01Z</time></trkpt><trkpt lat="43.47444741280347" lon="11.277354970288327"><ele>613.75</ele><time>2026-03-28T10:11:02Z</time></trkpt><trkpt lat="43.47437044521585" lon="11.277521607944678"><ele>614.0</ele><time>2026-03-28T10:11:03Z</time></trkpt><trkpt lat="43.47428535979819" lon="11.277691268959883"><ele>612.25</ele><time>2026-03-28T10:11:04Z</time></trkpt><trkpt lat="43.47420457490866" lon="11.277860092589899"><ele>610.5</ele><time>2026-03-28T10:11:05Z</time></trkpt><trkpt lat="43.474124131596184" lon="11.278027634765655"><ele>608.75</ele><time>2026-03-28T10:11:06Z</time></trkpt><trkpt lat="43.47404315624696" lon="11.278192963324624"><ele>607.0</ele><time>2026-03-28T10:11:07Z</time></trkpt><trkpt lat="43.47396328543708" lon="11.278361652323316"><ele>605.75</ele><time>2026-03-28T10:11:08Z</time></trkpt><trkpt lat="43.47387806153764" lon="11.278517365481422"><ele>604.5</ele><time>2026-03-28T10:11:09Z</time></trkpt><trkpt lat="43.473789312880115" lon="11.278675012750279"><ele>603.25</ele><time>2026-03-28T10:11:10Z</time></trkpt><trkpt lat="43.47368812983776" lon="11.27882395702718"><ele>602.0</ele><time>2026-03-28T10:11:11Z</time></trkpt><trkpt lat="43.47358056757123" lon="11.278956062010034"><ele>600.0</ele><time>2026-03-28T10:11:12Z</time></trkpt><trkpt lat="43.473479329182695" lon="11.27909506429972"><ele>598.0</ele><time>2026-03-28T10:11:13Z</time></trkpt><trkpt lat="43.4733840955126" lon="11.279238665610464"><ele>596.0</ele><time>2026-03-28T10:11:14Z</time></trkpt><trkpt lat="43.47329948286097" lon="11.279387813961332"><ele>594.0</ele><time>2026-03-28T10:11:15Z</time></trkpt><trkpt lat="43.4732271425349" lon="11.279543145670527"><ele>594.0</ele><time>2026-03-28T10:11:16Z</time></trkpt><trkpt lat="43.47317307082726" lon="11.27970218725628"><ele>594.0</ele><time>2026-03-28T10:11:17Z</time></trkpt><trkpt lat="43.47313115174189" lon="11.279868982621272"><ele>594.0</ele><time>2026-03-28T10:11:18Z</time></trkpt><trkpt lat="43.47310042831824" lon="11.280035817245556"><ele>594.0</ele><time>2026-03-28T10:11:19Z</time></trkpt><trkpt lat="43.473070244019425" lon="11.280208342319023"><ele>592.25</ele><time>2026-03-28T10:11:20Z</time></trkpt><trkpt lat="43.47302512343388" lon="11.280377486646854"><ele>590.5</ele><time>2026-03-28T10:11:21Z</time></trkpt><trkpt lat="43.47296447898057" lon="11.28052516793837"><ele>588.75</ele><time>2026-03-28T10:11:22Z</time></trkpt><trkpt lat="43.47290090403798" lon="11.280670245282721"><ele>587.0</ele><time>2026-03-28T10:11:23Z</time></trkpt><trkpt lat="43.47284630508243" lon="11.280830116593433"><ele>586.8000000000001</ele><time>2026-03-28T10:11:24Z</time></trkpt><trkpt lat="43.47278648760959" lon="11.280969007718053"><ele>586.6</ele><time>2026-03-28T10:11:25Z</time></trkpt><trkpt lat="43.47272091182062" lon="11.281071782685375"><ele>586.4000000000001</ele><time>2026-03-28T10:11:26Z</time></trkpt><trkpt lat="43.47265790848339" lon="11.281180518321007"><ele>586.2</ele><time>2026-03-28T10:11:27Z</time></trkpt><trkpt lat="43.472585995201236" lon="11.281276827207586"><ele>586.0</ele><time>2026-03-28T10:11:28Z</time></trkpt><trkpt lat="43.47251302123896" lon="11.281348276050066"><ele>586.0</ele><time>2026-03-28T10:11:29Z</time></trkpt><trkpt lat="43.4724475309899" lon="11.281419851019512"><ele>586.0</ele><time>2026-03-28T10:11:30Z</time></trkpt><trkpt lat="43.47238200094467" lon="11.281501259595482"><ele>586.0</ele><time>2026-03-28T10:11:31Z</time></trkpt><trkpt lat="43.47231609184967" lon="11.28159116042208"><ele>586.0</ele><time>2026-03-28T10:11:32Z</time></trkpt><trkpt lat="43.47225870157774" lon="11.28166577002928"><ele>586.0</ele><time>2026-03-28T10:11:33Z</time></trkpt><trkpt lat="43.47221490609247" lon="11.281731174443436"><ele>586.0</ele><time>2026-03-28T10:11:34Z</time></trkpt><trkpt lat="43.472171533892386" lon="11.281811353747273"><ele>586.3333333333334</ele><time>2026-03-28T10:11:35Z</time></trkpt><trkpt lat="43.472126639089254" lon="11.281915201978922"><ele>586.6666666666667</ele><time>2026-03-28T10:11:36Z</time></trkpt><trkpt lat="43.47209129198595" lon="11.282027860731946"><ele>587.0</ele><time>2026-03-28T10:11:37Z</time></trkpt><trkpt lat="43.472071237196225" lon="11.282134142781484"><ele>587.3333333333334</ele><time>2026-03-28T10:11:38Z</time></trkpt><trkpt lat="43.472047383560664" lon="11.282246903795095"><ele>587.6666666666666</ele><time>2026-03-28T10:11:39Z</time></trkpt><trkpt lat="43.47202327118394" lon="11.282366073647463"><ele>588.0</ele><time>2026-03-28T10:11:40Z</time></trkpt><trkpt lat="43.47199533072449" lon="11.282499759083874"><ele>587.1999999999999</ele><time>2026-03-28T10:11:41Z</time></trkpt><trkpt lat="43.47197019300355" lon="11.282634873486636"><ele>586.4</ele><time>2026-03-28T10:11:42Z</time></trkpt><trkpt lat="43.47194893499803" lon="11.282767958289204"><ele>585.5999999999999</ele><time>2026-03-28T10:11:43Z</time></trkpt><trkpt lat="43.47192430849938" lon="11.28289427479428"><ele>584.8</ele><time>2026-03-28T10:11:44Z</time></trkpt><trkpt lat="43.47190810239907" lon="11.28302097054049"><ele>584.0</ele><time>2026-03-28T10:11:45Z</time></trkpt><trkpt lat="43.47188352601526" lon="11.283147678813686"><ele>583.2</ele><time>2026-03-28T10:11:46Z</time></trkpt><trkpt lat="43.47184599319152" lon="11.283254875884937"><ele>582.4</ele><time>2026-03-28T10:11:47Z</time></trkpt><trkpt lat="43.47183059606447" lon="11.283379152754431"><ele>581.6</ele><time>2026-03-28T10:11:48Z</time></trkpt><trkpt lat="43.47179659396413" lon="11.283513622214834"><ele>580.8</ele><time>2026-03-28T10:11:49Z</time></trkpt><trkpt lat="43.47176537921778" lon="11.28365997270698"><ele>580.0</ele><time>2026-03-28T10:11:50Z</time></trkpt><trkpt lat="43.47173723642118" lon="11.283801908213599"><ele>579.8</ele><time>2026-03-28T10:11:51Z</time></trkpt><trkpt lat="43.47171287876946" lon="11.283942553852475"><ele>579.6</ele><time>2026-03-28T10:11:52Z</time></trkpt><trkpt lat="43.471685888728395" lon="11.284076926041317"><ele>579.4</ele><time>2026-03-28T10:11:53Z</time></trkpt><trkpt lat="43.47165089333702" lon="11.284218918048916"><ele>579.2</ele><time>2026-03-28T10:11:54Z</time></trkpt><trkpt lat="43.471622135361194" lon="11.28435145088433"><ele>579.0</ele><time>2026-03-28T10:11:55Z</time></trkpt><trkpt lat="43.471609126824404" lon="11.284476242783445"><ele>578.9999999999999</ele><time>2026-03-28T10:11:56Z</time></trkpt><trkpt lat="43.47159907293834" lon="11.284590836408224"><ele>579.0</ele><time>2026-03-28T10:11:57Z</time></trkpt><trkpt lat="43.471589407293216" lon="11.284694911273506"><ele>579.0</ele><time>2026-03-28T10:11:57.999Z</time></trkpt><trkpt lat="43.47158716583183" lon="11.284800411899674"><ele>579.0</ele><time>2026-03-28T10:11:58.999Z</time></trkpt><trkpt lat="43.471576429108815" lon="11.284899340885437"><ele>579.0</ele><time>2026-03-28T10:11:59.999Z</time></trkpt><trkpt lat="43.47156492002112" lon="11.285000049437826"><ele>578.9999999999999</ele><time>2026-03-28T10:12:00.999Z</time></trkpt><trkpt lat="43.47155687181184" lon="11.285089849225741"><ele>579.0</ele><time>2026-03-28T10:12:01.999Z</time></trkpt><trkpt lat="43.471533463206626" lon="11.285219734326274"><ele>578.4</ele><time>2026-03-28T10:12:03.999Z</time></trkpt><trkpt lat="43.471513002054856" lon="11.285319080154279"><ele>577.8</ele><time>2026-03-28T10:12:06.999Z</time></trkpt><trkpt lat="43.47147293117422" lon="11.285407513901813"><ele>577.2</ele><time>2026-03-28T10:12:17.999Z</time></trkpt><trkpt lat="43.47143463932558" lon="11.285476918067136"><ele>576.6</ele><time>2026-03-28T10:12:23.999Z</time></trkpt><trkpt lat="43.471387074214654" lon="11.285536034597856"><ele>576.0</ele><time>2026-03-28T10:12:34.999Z</time></trkpt><trkpt lat="43.47121244933884" lon="11.285331161358428"><ele>576.0000000000001</ele><time>2026-03-28T10:12:49Z</time></trkpt><trkpt lat="43.47125391581178" lon="11.28526216255229"><ele>576.0</ele><time>2026-03-28T10:16:41.999Z</time></trkpt><trkpt lat="43.47120514673478" lon="11.28533057564582"><ele>576.0</ele><time>2026-03-28T10:18:36.999Z</time></trkpt><trkpt lat="43.47119190756139" lon="11.2854181446046"><ele>576.0</ele><time>2026-03-28T10:24:32Z</time></trkpt><trkpt lat="43.471243322004334" lon="11.285494030880232"><ele>576.0</ele><time>2026-03-28T10:24:38Z</time></trkpt><trkpt lat="43.47130361439959" lon="11.285534140075397"><ele>576.0000000000001</ele><time>2026-03-28T10:24:44Z</time></trkpt><trkpt lat="43.471332471975686" lon="11.28562158553008"><ele>576.0</ele><time>2026-03-28T10:24:50Z</time></trkpt><trkpt lat="43.4712269689344" lon="11.285629932170242"><ele>576.0</ele><time>2026-03-28T10:25:04Z</time></trkpt><trkpt lat="43.471173771524704" lon="11.285681756066646"><ele>576.0</ele><time>2026-03-28T10:25:08Z</time></trkpt><trkpt lat="43.47104611041358" lon="11.285514657045105"><ele>576.0</ele><time>2026-03-28T10:25:11Z</time></trkpt><trkpt lat="43.4709747159218" lon="11.285411310328893"><ele>576.0</ele><time>2026-03-28T10:25:13Z</time></trkpt><trkpt lat="43.47129427152772" lon="11.285583069551196"><ele>576.0000000000001</ele><time>2026-03-28T10:25:24.45Z</time></trkpt><trkpt lat="43.47125040896572" lon="11.28549443566253"><ele>576.0</ele><time>2026-03-28T10:28:37Z</time></trkpt><trkpt lat="43.47125514811848" lon="11.285407760812323"><ele>576.0</ele><time>2026-03-28T10:28:46Z</time></trkpt><trkpt lat="43.47125223548208" lon="11.285313521263962"><ele>576.0</ele><time>2026-03-28T10:29:04Z</time></trkpt><trkpt lat="43.4712720738707" lon="11.285226023633806"><ele>576.0</ele><time>2026-03-28T10:29:13Z</time></trkpt><trkpt lat="43.47122699421836" lon="11.28529717283133"><ele>576.0000000000001</ele><time>2026-03-28T10:33:50Z</time></trkpt><trkpt lat="43.471274977098005" lon="11.285356646126283"><ele>576.0</ele><time>2026-03-28T10:37:11Z</time></trkpt><trkpt lat="43.47131586457449" lon="11.28546579963166"><ele>576.0</ele><time>2026-03-28T10:37:15Z</time></trkpt><trkpt lat="43.47141504508734" lon="11.28550267736143"><ele>576.0</ele><time>2026-03-28T10:37:17Z</time></trkpt><trkpt lat="43.471481064221095" lon="11.285506192667906"><ele>576.0</ele><time>2026-03-28T10:37:18Z</time></trkpt><trkpt lat="43.47155661228043" lon="11.285524767363805"><ele>576.0</ele><time>2026-03-28T10:37:19Z</time></trkpt><trkpt lat="43.47162321017429" lon="11.285550347395983"><ele>576.0</ele><time>2026-03-28T10:37:20Z</time></trkpt><trkpt lat="43.47170013956724" lon="11.285570188680595"><ele>576.0</ele><time>2026-03-28T10:37:21Z</time></trkpt><trkpt lat="43.47177351269884" lon="11.28559393625521"><ele>576.3333333333334</ele><time>2026-03-28T10:37:22Z</time></trkpt><trkpt lat="43.47184924339677" lon="11.285617247617465"><ele>576.6666666666666</ele><time>2026-03-28T10:37:23Z</time></trkpt><trkpt lat="43.47192781720774" lon="11.285638670323623"><ele>577.0</ele><time>2026-03-28T10:37:24Z</time></trkpt><trkpt lat="43.47199583225675" lon="11.285665834262442"><ele>577.3333333333333</ele><time>2026-03-28T10:37:25Z</time></trkpt><trkpt lat="43.47207026307276" lon="11.28569182354155"><ele>577.6666666666666</ele><time>2026-03-28T10:37:26Z</time></trkpt><trkpt lat="43.4721497999787" lon="11.285713591731685"><ele>578.0</ele><time>2026-03-28T10:37:27Z</time></trkpt><trkpt lat="43.47222777051414" lon="11.285736042465018"><ele>578.0</ele><time>2026-03-28T10:37:28Z</time></trkpt><trkpt lat="43.47230160410846" lon="11.285761196502927"><ele>578.0</ele><time>2026-03-28T10:37:29Z</time></trkpt><trkpt lat="43.472382893725054" lon="11.285792022954528"><ele>578.0</ele><time>2026-03-28T10:37:30Z</time></trkpt><trkpt lat="43.472468225746056" lon="11.285818175535825"><ele>578.0</ele><time>2026-03-28T10:37:31Z</time></trkpt><trkpt lat="43.47255010270936" lon="11.28584494393413"><ele>578.0</ele><time>2026-03-28T10:37:32Z</time></trkpt><trkpt lat="43.47263294462819" lon="11.28587364452343"><ele>578.0</ele><time>2026-03-28T10:37:33Z</time></trkpt><trkpt lat="43.47269959642255" lon="11.285918795444855"><ele>578.0</ele><time>2026-03-28T10:37:34Z</time></trkpt><trkpt lat="43.47276219129635" lon="11.285977429454228"><ele>578.0</ele><time>2026-03-28T10:37:35Z</time></trkpt><trkpt lat="43.472810932308334" lon="11.28603248592179"><ele>578.0</ele><time>2026-03-28T10:37:36Z</time></trkpt><trkpt lat="43.472885803238235" lon="11.28617508229833"><ele>578.0</ele><time>2026-03-28T10:37:38Z</time></trkpt><trkpt lat="43.47292324898039" lon="11.286254185927"><ele>578.0</ele><time>2026-03-28T10:37:39Z</time></trkpt><trkpt lat="43.472956864804125" lon="11.286328442669229"><ele>578.0</ele><time>2026-03-28T10:37:40Z</time></trkpt><trkpt lat="43.47301441325389" lon="11.286471484369441"><ele>576.6</ele><time>2026-03-28T10:37:42Z</time></trkpt><trkpt lat="43.47306183281298" lon="11.28663859770026"><ele>575.1999999999999</ele><time>2026-03-28T10:37:44Z</time></trkpt><trkpt lat="43.47307833492319" lon="11.28676133666599"><ele>573.8</ele><time>2026-03-28T10:37:45Z</time></trkpt><trkpt lat="43.473091663354516" lon="11.286906694465129"><ele>572.4</ele><time>2026-03-28T10:37:46Z</time></trkpt><trkpt lat="43.47308663944747" lon="11.287052731450833"><ele>571.0</ele><time>2026-03-28T10:37:47Z</time></trkpt><trkpt lat="43.47307135990784" lon="11.287203230929002"><ele>570.75</ele><time>2026-03-28T10:37:48Z</time></trkpt><trkpt lat="43.47305349206807" lon="11.287360254568538"><ele>570.5</ele><time>2026-03-28T10:37:49Z</time></trkpt><trkpt lat="43.47303438987221" lon="11.287519707439827"><ele>570.25</ele><time>2026-03-28T10:37:50Z</time></trkpt><trkpt lat="43.47301001533625" lon="11.287684557219837"><ele>570.0</ele><time>2026-03-28T10:37:51Z</time></trkpt><trkpt lat="43.47299266144998" lon="11.287855670249723"><ele>570.0</ele><time>2026-03-28T10:37:52Z</time></trkpt><trkpt lat="43.47297803077481" lon="11.288021642682073"><ele>570.0</ele><time>2026-03-28T10:37:53Z</time></trkpt><trkpt lat="43.472956450278794" lon="11.288178809699154"><ele>570.0</ele><time>2026-03-28T10:37:54Z</time></trkpt><trkpt lat="43.472931033777044" lon="11.288324921105762"><ele>570.0</ele><time>2026-03-28T10:37:55Z</time></trkpt><trkpt lat="43.472918717482" lon="11.288470138249863"><ele>569.4</ele><time>2026-03-28T10:37:56Z</time></trkpt><trkpt lat="43.472938415789386" lon="11.288601412663859"><ele>568.8</ele><time>2026-03-28T10:37:57Z</time></trkpt><trkpt lat="43.47299151379459" lon="11.28873184492199"><ele>568.2</ele><time>2026-03-28T10:37:58Z</time></trkpt><trkpt lat="43.47306814998681" lon="11.288827300552112"><ele>567.6</ele><time>2026-03-28T10:37:59Z</time></trkpt><trkpt lat="43.4731596484225" lon="11.288879504476872"><ele>567.0</ele><time>2026-03-28T10:38:00Z</time></trkpt><trkpt lat="43.473266488813785" lon="11.288895640347663"><ele>567.0</ele><time>2026-03-28T10:38:01Z</time></trkpt><trkpt lat="43.473381126550166" lon="11.288845934487721"><ele>567.0</ele><time>2026-03-28T10:38:02Z</time></trkpt><trkpt lat="43.47348150344701" lon="11.288729035560692"><ele>567.0</ele><time>2026-03-28T10:38:03Z</time></trkpt><trkpt lat="43.47359335511035" lon="11.288593341299197"><ele>567.0</ele><time>2026-03-28T10:38:04Z</time></trkpt><trkpt lat="43.47363348278401" lon="11.288364904921263"><ele>567.0</ele><time>2026-03-28T10:38:05Z</time></trkpt><trkpt lat="43.473710176127085" lon="11.288137982270612"><ele>567.0</ele><time>2026-03-28T10:38:06Z</time></trkpt><trkpt lat="43.473782173743096" lon="11.287920822302425"><ele>567.0</ele><time>2026-03-28T10:38:07Z</time></trkpt><trkpt lat="43.47383008335537" lon="11.287699462410064"><ele>562.6666666666666</ele><time>2026-03-28T10:38:08Z</time></trkpt><trkpt lat="43.47387147154862" lon="11.287462301430054"><ele>558.3333333333333</ele><time>2026-03-28T10:38:09Z</time></trkpt><trkpt lat="43.47391261659166" lon="11.287201631001913"><ele>554.0</ele><time>2026-03-28T10:38:10Z</time></trkpt><trkpt lat="43.47393943834518" lon="11.286968920141026"><ele>554.0</ele><time>2026-03-28T10:38:11Z</time></trkpt><trkpt lat="43.473962472859" lon="11.286739821880147"><ele>554.0</ele><time>2026-03-28T10:38:12Z</time></trkpt><trkpt lat="43.47398201121735" lon="11.286527213318662"><ele>554.0</ele><time>2026-03-28T10:38:13Z</time></trkpt><trkpt lat="43.47401441818995" lon="11.286335365960008"><ele>554.25</ele><time>2026-03-28T10:38:14Z</time></trkpt><trkpt lat="43.474065200162315" lon="11.28616618258069"><ele>554.5</ele><time>2026-03-28T10:38:15Z</time></trkpt><trkpt lat="43.47412890751901" lon="11.286033774897595"><ele>554.75</ele><time>2026-03-28T10:38:16Z</time></trkpt><trkpt lat="43.47421427578867" lon="11.285957358800964"><ele>555.0</ele><time>2026-03-28T10:38:17Z</time></trkpt><trkpt lat="43.474315165661494" lon="11.28592076965982"><ele>555.0</ele><time>2026-03-28T10:38:18Z</time></trkpt><trkpt lat="43.47441698585634" lon="11.285924013639557"><ele>555.0</ele><time>2026-03-28T10:38:19Z</time></trkpt><trkpt lat="43.47451024668732" lon="11.286008078063638"><ele>555.0</ele><time>2026-03-28T10:38:20Z</time></trkpt><trkpt lat="43.47458335308438" lon="11.286154280337342"><ele>555.0</ele><time>2026-03-28T10:38:21Z</time></trkpt><trkpt lat="43.47461642395382" lon="11.286349171020964"><ele>558.3333333333334</ele><time>2026-03-28T10:38:22Z</time></trkpt><trkpt lat="43.47462489288298" lon="11.286574435850556"><ele>561.6666666666667</ele><time>2026-03-28T10:38:23Z</time></trkpt><trkpt lat="43.47464293306222" lon="11.286800446289739"><ele>565.0</ele><time>2026-03-28T10:38:24Z</time></trkpt><trkpt lat="43.47467472770107" lon="11.287026943808035"><ele>565.0</ele><time>2026-03-28T10:38:25Z</time></trkpt><trkpt lat="43.47470951995001" lon="11.287237516548892"><ele>565.0</ele><time>2026-03-28T10:38:25.999Z</time></trkpt><trkpt lat="43.47474817003425" lon="11.28744226876284"><ele>565.0</ele><time>2026-03-28T10:38:26.999Z</time></trkpt><trkpt lat="43.47479115879076" lon="11.287629221700424"><ele>563.0</ele><time>2026-03-28T10:38:27.999Z</time></trkpt><trkpt lat="43.47483296977258" lon="11.287820621208626"><ele>561.0</ele><time>2026-03-28T10:38:28.999Z</time></trkpt><trkpt lat="43.474877908961304" lon="11.28800332767418"><ele>559.0</ele><time>2026-03-28T10:38:29.999Z</time></trkpt><trkpt lat="43.47493042689689" lon="11.288157549711107"><ele>557.0</ele><time>2026-03-28T10:38:31Z</time></trkpt><trkpt lat="43.47499350154827" lon="11.288289754477425"><ele>555.5</ele><time>2026-03-28T10:38:32Z</time></trkpt><trkpt lat="43.47507581280391" lon="11.288403677393486"><ele>554.0</ele><time>2026-03-28T10:38:33Z</time></trkpt><trkpt lat="43.47517507342695" lon="11.288503446740265"><ele>552.5</ele><time>2026-03-28T10:38:34Z</time></trkpt><trkpt lat="43.47530410086644" lon="11.288573027731765"><ele>551.0</ele><time>2026-03-28T10:38:35Z</time></trkpt><trkpt lat="43.47546063465239" lon="11.288623533169597"><ele>551.0</ele><time>2026-03-28T10:38:36Z</time></trkpt><trkpt lat="43.475614262647596" lon="11.28867093789584"><ele>551.0</ele><time>2026-03-28T10:38:37Z</time></trkpt><trkpt lat="43.4757513144826" lon="11.288707261792736"><ele>551.0</ele><time>2026-03-28T10:38:38Z</time></trkpt><trkpt lat="43.47587187872508" lon="11.288766493505372"><ele>551.0</ele><time>2026-03-28T10:38:39Z</time></trkpt><trkpt lat="43.47597763309594" lon="11.288865353949864"><ele>547.0</ele><time>2026-03-28T10:38:40Z</time></trkpt><trkpt lat="43.47606956865648" lon="11.288991918583962"><ele>543.0</ele><time>2026-03-28T10:38:41Z</time></trkpt><trkpt lat="43.47613827133087" lon="11.289132575480956"><ele>539.0</ele><time>2026-03-28T10:38:42Z</time></trkpt><trkpt lat="43.47618311873449" lon="11.28928364722997"><ele>535.0</ele><time>2026-03-28T10:38:43Z</time></trkpt><trkpt lat="43.476207919264525" lon="11.289435073445116"><ele>535.0</ele><time>2026-03-28T10:38:44Z</time></trkpt><trkpt lat="43.47623019072224" lon="11.289580251884272"><ele>535.0</ele><time>2026-03-28T10:38:45Z</time></trkpt><trkpt lat="43.47625377242504" lon="11.289728538377078"><ele>535.0</ele><time>2026-03-28T10:38:46Z</time></trkpt><trkpt lat="43.47627685327825" lon="11.28986600929984"><ele>535.0</ele><time>2026-03-28T10:38:47Z</time></trkpt><trkpt lat="43.47629982167902" lon="11.289990226388754"><ele>535.0</ele><time>2026-03-28T10:38:48Z</time></trkpt><trkpt lat="43.4763212314422" lon="11.290105112413906"><ele>536.8333333333334</ele><time>2026-03-28T10:38:49Z</time></trkpt><trkpt lat="43.476340406627386" lon="11.290203367548683"><ele>538.6666666666667</ele><time>2026-03-28T10:38:50Z</time></trkpt><trkpt lat="43.47635650169617" lon="11.290294266349271"><ele>540.5</ele><time>2026-03-28T10:38:51Z</time></trkpt><trkpt lat="43.47638638093637" lon="11.29045231733094"><ele>542.3333333333334</ele><time>2026-03-28T10:38:53Z</time></trkpt><trkpt lat="43.47640564628223" lon="11.290559225472958"><ele>544.1666666666666</ele><time>2026-03-28T10:38:55Z</time></trkpt><trkpt lat="43.47642202123363" lon="11.290648968515276"><ele>546.0</ele><time>2026-03-28T10:40:34.999Z</time></trkpt><trkpt lat="43.47645655503035" lon="11.29081182601284"><ele>546.0</ele><time>2026-03-28T10:40:37Z</time></trkpt><trkpt lat="43.47647219265592" lon="11.290918804774483"><ele>546.0</ele><time>2026-03-28T10:40:38Z</time></trkpt><trkpt lat="43.47647105968713" lon="11.291026815696307"><ele>546.0</ele><time>2026-03-28T10:40:39Z</time></trkpt><trkpt lat="43.47643872197306" lon="11.291133757173588"><ele>546.0</ele><time>2026-03-28T10:40:40Z</time></trkpt><trkpt lat="43.47636954852978" lon="11.291220904234768"><ele>546.0</ele><time>2026-03-28T10:40:41Z</time></trkpt><trkpt lat="43.47626899606136" lon="11.291273186943727"><ele>546.0</ele><time>2026-03-28T10:40:42Z</time></trkpt><trkpt lat="43.476160866563944" lon="11.291321584179903"><ele>545.75</ele><time>2026-03-28T10:40:43Z</time></trkpt><trkpt lat="43.47605089396917" lon="11.291381612608175"><ele>545.5</ele><time>2026-03-28T10:40:44Z</time></trkpt><trkpt lat="43.47593925587461" lon="11.291448032119426"><ele>545.25</ele><time>2026-03-28T10:40:45Z</time></trkpt><trkpt lat="43.47585872546711" lon="11.291575703317914"><ele>545.0</ele><time>2026-03-28T10:40:46Z</time></trkpt><trkpt lat="43.475758555236304" lon="11.291725337400699"><ele>545.0</ele><time>2026-03-28T10:40:47Z</time></trkpt><trkpt lat="43.47566782107933" lon="11.291892334773204"><ele>545.0</ele><time>2026-03-28T10:40:48Z</time></trkpt><trkpt lat="43.475571718151485" lon="11.292068346705397"><ele>545.0</ele><time>2026-03-28T10:40:49Z</time></trkpt><trkpt lat="43.47547380427642" lon="11.292254609325846"><ele>542.0</ele><time>2026-03-28T10:40:50Z</time></trkpt><trkpt lat="43.47538570303853" lon="11.292450531286805"><ele>539.0</ele><time>2026-03-28T10:40:51Z</time></trkpt><trkpt lat="43.47532040936736" lon="11.29266838710307"><ele>536.0</ele><time>2026-03-28T10:40:52Z</time></trkpt><trkpt lat="43.475289657864636" lon="11.29290185221498"><ele>537.3333333333333</ele><time>2026-03-28T10:40:53Z</time></trkpt><trkpt lat="43.47527212001554" lon="11.293143208111141"><ele>538.6666666666666</ele><time>2026-03-28T10:40:54Z</time></trkpt><trkpt lat="43.47526208345378" lon="11.293384474726153"><ele>540.0</ele><time>2026-03-28T10:40:55Z</time></trkpt><trkpt lat="43.4752532259818" lon="11.293623745986924"><ele>540.0</ele><time>2026-03-28T10:40:56Z</time></trkpt><trkpt lat="43.4752395913836" lon="11.293866083812004"><ele>540.0</ele><time>2026-03-28T10:40:57Z</time></trkpt><trkpt lat="43.4752248938141" lon="11.294102794148948"><ele>540.0</ele><time>2026-03-28T10:40:58Z</time></trkpt><trkpt lat="43.47520198978608" lon="11.294336019858118"><ele>542.6666666666666</ele><time>2026-03-28T10:40:59Z</time></trkpt><trkpt lat="43.475181090066094" lon="11.294580590898212"><ele>545.3333333333333</ele><time>2026-03-28T10:41:00Z</time></trkpt><trkpt lat="43.47516196815571" lon="11.294829066999776"><ele>548.0</ele><time>2026-03-28T10:41:01Z</time></trkpt><trkpt lat="43.475145522983475" lon="11.295089503584448"><ele>548.3333333333333</ele><time>2026-03-28T10:41:02Z</time></trkpt><trkpt lat="43.47513229569395" lon="11.295334220053013"><ele>548.6666666666666</ele><time>2026-03-28T10:41:03Z</time></trkpt><trkpt lat="43.47514321804002" lon="11.295576046517978"><ele>549.0</ele><time>2026-03-28T10:41:04Z</time></trkpt><trkpt lat="43.475187649956766" lon="11.29582454301633"><ele>549.0</ele><time>2026-03-28T10:41:05Z</time></trkpt><trkpt lat="43.475273586021785" lon="11.296069049388992"><ele>549.0</ele><time>2026-03-28T10:41:06Z</time></trkpt><trkpt lat="43.475396869851764" lon="11.296293388647513"><ele>549.0</ele><time>2026-03-28T10:41:07Z</time></trkpt><trkpt lat="43.475561616239624" lon="11.29647290959527"><ele>553.3333333333334</ele><time>2026-03-28T10:41:08Z</time></trkpt><trkpt lat="43.475724562709374" lon="11.296626318442643"><ele>557.6666666666667</ele><time>2026-03-28T10:41:09Z</time></trkpt><trkpt lat="43.47591704677202" lon="11.29672537770926"><ele>562.0</ele><time>2026-03-28T10:41:10Z</time></trkpt><trkpt lat="43.47611368441258" lon="11.296803292127306"><ele>566.3333333333334</ele><time>2026-03-28T10:41:11Z</time></trkpt><trkpt lat="43.47631122232048" lon="11.296884726812275"><ele>570.6666666666666</ele><time>2026-03-28T10:41:12Z</time></trkpt><trkpt lat="43.476501359060954" lon="11.296969308781533"><ele>575.0</ele><time>2026-03-28T10:41:13Z</time></trkpt><trkpt lat="43.47668691505521" lon="11.297059622675564"><ele>575.0</ele><time>2026-03-28T10:41:14Z</time></trkpt><trkpt lat="43.47687028287344" lon="11.297150150495032"><ele>575.0</ele><time>2026-03-28T10:41:15Z</time></trkpt><trkpt lat="43.4770586665263" lon="11.297237231666406"><ele>575.0</ele><time>2026-03-28T10:41:16Z</time></trkpt><trkpt lat="43.47724801978567" lon="11.2973234504882"><ele>575.0</ele><time>2026-03-28T10:41:17Z</time></trkpt><trkpt lat="43.477438232693" lon="11.297412953624054"><ele>575.0</ele><time>2026-03-28T10:41:18Z</time></trkpt><trkpt lat="43.47762831655201" lon="11.297498984135297"><ele>575.0</ele><time>2026-03-28T10:41:19Z</time></trkpt><trkpt lat="43.477815512622726" lon="11.297588827213856"><ele>574.6666666666666</ele><time>2026-03-28T10:41:20Z</time></trkpt><trkpt lat="43.47800938614163" lon="11.297682616327728"><ele>574.3333333333334</ele><time>2026-03-28T10:41:21Z</time></trkpt><trkpt lat="43.478195917419264" lon="11.297768715992563"><ele>574.0</ele><time>2026-03-28T10:41:22Z</time></trkpt><trkpt lat="43.47837364971738" lon="11.297841166431146"><ele>574.0</ele><time>2026-03-28T10:41:23Z</time></trkpt><trkpt lat="43.4785514325456" lon="11.297908435039986"><ele>574.0</ele><time>2026-03-28T10:41:24Z</time></trkpt><trkpt lat="43.47874062743555" lon="11.297950882307205"><ele>574.0</ele><time>2026-03-28T10:41:25Z</time></trkpt><trkpt lat="43.478944910486625" lon="11.297962816832115"><ele>570.6666666666667</ele><time>2026-03-28T10:41:26Z</time></trkpt><trkpt lat="43.479152334333314" lon="11.297957890033421"><ele>567.3333333333334</ele><time>2026-03-28T10:41:27Z</time></trkpt><trkpt lat="43.47936173078748" lon="11.29794601377283"><ele>564.0</ele><time>2026-03-28T10:41:28Z</time></trkpt><trkpt lat="43.47957470661195" lon="11.297930706825037"><ele>560.3333333333334</ele><time>2026-03-28T10:41:29Z</time></trkpt><trkpt lat="43.47979806921282" lon="11.297925173798166"><ele>556.6666666666667</ele><time>2026-03-28T10:41:30Z</time></trkpt><trkpt lat="43.48001928176331" lon="11.297928321785603"><ele>553.0</ele><time>2026-03-28T10:41:31Z</time></trkpt><trkpt lat="43.480244567418595" lon="11.2979279140441"><ele>554.0</ele><time>2026-03-28T10:41:32Z</time></trkpt><trkpt lat="43.48046735697228" lon="11.297929497788763"><ele>555.0</ele><time>2026-03-28T10:41:33Z</time></trkpt><trkpt lat="43.480692370284345" lon="11.297925057951197"><ele>556.0</ele><time>2026-03-28T10:41:34Z</time></trkpt><trkpt lat="43.48091576762956" lon="11.297913124383593"><ele>556.0</ele><time>2026-03-28T10:41:35Z</time></trkpt><trkpt lat="43.48114414512941" lon="11.297907149341931"><ele>556.0</ele><time>2026-03-28T10:41:36Z</time></trkpt><trkpt lat="43.48136565997054" lon="11.297902753233018"><ele>556.3333333333334</ele><time>2026-03-28T10:41:37Z</time></trkpt><trkpt lat="43.4815727304117" lon="11.29789953281848"><ele>556.6666666666666</ele><time>2026-03-28T10:41:38Z</time></trkpt><trkpt lat="43.481775518712375" lon="11.297898488333963"><ele>557.0</ele><time>2026-03-28T10:41:39Z</time></trkpt><trkpt lat="43.481976022890365" lon="11.297900224192059"><ele>554.6666666666666</ele><time>2026-03-28T10:41:40Z</time></trkpt><trkpt lat="43.48217674636245" lon="11.297911318080741"><ele>552.3333333333334</ele><time>2026-03-28T10:41:41Z</time></trkpt><trkpt lat="43.48237863474394" lon="11.297934036506918"><ele>550.0</ele><time>2026-03-28T10:41:42Z</time></trkpt><trkpt lat="43.48257624838537" lon="11.29796898135676"><ele>550.0</ele><time>2026-03-28T10:41:43Z</time></trkpt><trkpt lat="43.48277814615517" lon="11.298015736025164"><ele>550.0</ele><time>2026-03-28T10:41:44Z</time></trkpt><trkpt lat="43.482981774202365" lon="11.298065955974405"><ele>550.0</ele><time>2026-03-28T10:41:45Z</time></trkpt><trkpt lat="43.483185784682156" lon="11.298119633813089"><ele>546.3333333333334</ele><time>2026-03-28T10:41:46Z</time></trkpt><trkpt lat="43.483377974496925" lon="11.298178577058007"><ele>542.6666666666666</ele><time>2026-03-28T10:41:47Z</time></trkpt><trkpt lat="43.4835591625547" lon="11.298230324589564"><ele>539.0</ele><time>2026-03-28T10:41:48Z</time></trkpt><trkpt lat="43.48373244493096" lon="11.298279193475233"><ele>539.0</ele><time>2026-03-28T10:41:49Z</time></trkpt><trkpt lat="43.483898214147274" lon="11.298326951685626"><ele>539.0</ele><time>2026-03-28T10:41:50Z</time></trkpt><trkpt lat="43.48406624020107" lon="11.298372093747371"><ele>539.0</ele><time>2026-03-28T10:41:51Z</time></trkpt><trkpt lat="43.48423776617878" lon="11.298420232325352"><ele>539.0</ele><time>2026-03-28T10:41:52Z</time></trkpt><trkpt lat="43.48440822447491" lon="11.298464189371865"><ele>539.0</ele><time>2026-03-28T10:41:53Z</time></trkpt><trkpt lat="43.48458222765485" lon="11.298512571588729"><ele>539.0</ele><time>2026-03-28T10:41:54Z</time></trkpt><trkpt lat="43.48475446946194" lon="11.298564758254482"><ele>539.3333333333333</ele><time>2026-03-28T10:41:55Z</time></trkpt><trkpt lat="43.48492715071084" lon="11.298614693502303"><ele>539.6666666666666</ele><time>2026-03-28T10:41:56Z</time></trkpt><trkpt lat="43.48510327564848" lon="11.298664867016475"><ele>540.0</ele><time>2026-03-28T10:41:57Z</time></trkpt><trkpt lat="43.48527950002717" lon="11.29871314168606"><ele>541.6666666666666</ele><time>2026-03-28T10:41:58Z</time></trkpt><trkpt lat="43.48545852438859" lon="11.298758975224551"><ele>543.3333333333333</ele><time>2026-03-28T10:41:59Z</time></trkpt><trkpt lat="43.48563364338102" lon="11.29880690511419"><ele>545.0</ele><time>2026-03-28T10:42:00Z</time></trkpt><trkpt lat="43.485814143867756" lon="11.298851061289938"><ele>545.0</ele><time>2026-03-28T10:42:01Z</time></trkpt><trkpt lat="43.48599590536028" lon="11.298906710461964"><ele>545.0</ele><time>2026-03-28T10:42:02Z</time></trkpt><trkpt lat="43.48617827056318" lon="11.298963247906189"><ele>545.0</ele><time>2026-03-28T10:42:03Z</time></trkpt><trkpt lat="43.48635254791047" lon="11.299010733783708"><ele>540.0</ele><time>2026-03-28T10:42:04Z</time></trkpt><trkpt lat="43.4865188052762" lon="11.299053664727959"><ele>535.0</ele><time>2026-03-28T10:42:05Z</time></trkpt><trkpt lat="43.48667785151547" lon="11.299101733549314"><ele>530.0</ele><time>2026-03-28T10:42:06Z</time></trkpt><trkpt lat="43.486834401970306" lon="11.299146884405188"><ele>530.0</ele><time>2026-03-28T10:42:07Z</time></trkpt><trkpt lat="43.48698527983106" lon="11.299188355858917"><ele>530.0</ele><time>2026-03-28T10:42:08Z</time></trkpt><trkpt lat="43.48714172738844" lon="11.29922787097871"><ele>530.0</ele><time>2026-03-28T10:42:09Z</time></trkpt><trkpt lat="43.48729483828922" lon="11.299271091454045"><ele>529.3333333333333</ele><time>2026-03-28T10:42:10Z</time></trkpt><trkpt lat="43.48745498894011" lon="11.299312648597182"><ele>528.6666666666666</ele><time>2026-03-28T10:42:11Z</time></trkpt><trkpt lat="43.487616532087046" lon="11.299358068096975"><ele>528.0</ele><time>2026-03-28T10:42:12Z</time></trkpt><trkpt lat="43.48777300986305" lon="11.29940341474352"><ele>528.0</ele><time>2026-03-28T10:42:13Z</time></trkpt><trkpt lat="43.48791917475846" lon="11.299445291959765"><ele>528.0</ele><time>2026-03-28T10:42:14Z</time></trkpt><trkpt lat="43.48805792729769" lon="11.29948441640415"><ele>528.0</ele><time>2026-03-28T10:42:15Z</time></trkpt><trkpt lat="43.48819751068433" lon="11.299525979588083"><ele>528.0</ele><time>2026-03-28T10:42:16Z</time></trkpt><trkpt lat="43.48833992198916" lon="11.299563822097527"><ele>530.3333333333334</ele><time>2026-03-28T10:42:17Z</time></trkpt><trkpt lat="43.48849053251348" lon="11.29960193441339"><ele>532.6666666666667</ele><time>2026-03-28T10:42:18Z</time></trkpt><trkpt lat="43.48864230554151" lon="11.29964331775272"><ele>535.0</ele><time>2026-03-28T10:42:19Z</time></trkpt><trkpt lat="43.48880012346886" lon="11.29968897526227"><ele>535.0</ele><time>2026-03-28T10:42:19.999Z</time></trkpt><trkpt lat="43.48897061093676" lon="11.299737425044864"><ele>535.0</ele><time>2026-03-28T10:42:20.999Z</time></trkpt><trkpt lat="43.48915167637011" lon="11.29978639037941"><ele>535.0</ele><time>2026-03-28T10:42:21.999Z</time></trkpt><trkpt lat="43.48933630690156" lon="11.299839176890892"><ele>530.0</ele><time>2026-03-28T10:42:22.999Z</time></trkpt><trkpt lat="43.489526576500126" lon="11.299891808932655"><ele>525.0</ele><time>2026-03-28T10:42:23.999Z</time></trkpt><trkpt lat="43.48972692901279" lon="11.29994488044746"><ele>520.0</ele><time>2026-03-28T10:42:24.999Z</time></trkpt><trkpt lat="43.48993529066539" lon="11.300000121125635"><ele>520.0</ele><time>2026-03-28T10:42:25.999Z</time></trkpt><trkpt lat="43.49014538030511" lon="11.300058854291807"><ele>520.0</ele><time>2026-03-28T10:42:26.999Z</time></trkpt><trkpt lat="43.490343010747985" lon="11.300115656862673"><ele>520.0</ele><time>2026-03-28T10:42:27.999Z</time></trkpt><trkpt lat="43.4905321597822" lon="11.300169661124036"><ele>521.6666666666667</ele><time>2026-03-28T10:42:28.999Z</time></trkpt><trkpt lat="43.49071209198023" lon="11.300221508645572"><ele>523.3333333333334</ele><time>2026-03-28T10:42:29.999Z</time></trkpt><trkpt lat="43.49089328812973" lon="11.300265870155764"><ele>525.0</ele><time>2026-03-28T10:42:30.999Z</time></trkpt><trkpt lat="43.491075753810755" lon="11.300301226015069"><ele>523.0</ele><time>2026-03-28T10:42:31.999Z</time></trkpt><trkpt lat="43.49126721539978" lon="11.30031820136569"><ele>521.0</ele><time>2026-03-28T10:42:32.999Z</time></trkpt><trkpt lat="43.49147374825869" lon="11.300309465318504"><ele>519.0</ele><time>2026-03-28T10:42:33.999Z</time></trkpt><trkpt lat="43.491683130748626" lon="11.300280902437704"><ele>519.0</ele><time>2026-03-28T10:42:34.999Z</time></trkpt><trkpt lat="43.491898561227" lon="11.300238811410342"><ele>519.0</ele><time>2026-03-28T10:42:35.999Z</time></trkpt><trkpt lat="43.49211664125603" lon="11.300196463761585"><ele>519.0</ele><time>2026-03-28T10:42:36.999Z</time></trkpt><trkpt lat="43.492340357623114" lon="11.300160667919108"><ele>518.0</ele><time>2026-03-28T10:42:37.999Z</time></trkpt><trkpt lat="43.49256108227133" lon="11.300129364890319"><ele>517.0</ele><time>2026-03-28T10:42:38.999Z</time></trkpt><trkpt lat="43.492793679127494" lon="11.300095092225497"><ele>515.5</ele><time>2026-03-28T10:42:39.999Z</time></trkpt><trkpt lat="43.49302760387386" lon="11.300057509635604"><ele>514.0</ele><time>2026-03-28T10:42:40.999Z</time></trkpt><trkpt lat="43.49326171207786" lon="11.300021604871407"><ele>514.0</ele><time>2026-03-28T10:42:41.999Z</time></trkpt><trkpt lat="43.49348498750485" lon="11.29998720881178"><ele>514.0</ele><time>2026-03-28T10:42:43Z</time></trkpt><trkpt lat="43.49370212464489" lon="11.299952514049435"><ele>514.0</ele><time>2026-03-28T10:42:44Z</time></trkpt><trkpt lat="43.49391683366602" lon="11.299920820389104"><ele>512.3333333333334</ele><time>2026-03-28T10:42:45Z</time></trkpt><trkpt lat="43.49413511988367" lon="11.299888172873974"><ele>510.66666666666663</ele><time>2026-03-28T10:42:46Z</time></trkpt><trkpt lat="43.494356974540025" lon="11.29985289658394"><ele>509.0</ele><time>2026-03-28T10:42:47Z</time></trkpt><trkpt lat="43.49457995023106" lon="11.29981815322625"><ele>511.0</ele><time>2026-03-28T10:42:48Z</time></trkpt><trkpt lat="43.49481086573646" lon="11.299778937045716"><ele>513.0</ele><time>2026-03-28T10:42:49Z</time></trkpt><trkpt lat="43.49504393731993" lon="11.299739414811631"><ele>503.5</ele><time>2026-03-28T10:42:50Z</time></trkpt><trkpt lat="43.4952778901813" lon="11.299698642130103"><ele>494.0</ele><time>2026-03-28T10:42:51Z</time></trkpt><trkpt lat="43.49550089209284" lon="11.29965215627748"><ele>492.66666666666663</ele><time>2026-03-28T10:42:52Z</time></trkpt><trkpt lat="43.49571832000241" lon="11.299612299920877"><ele>491.33333333333337</ele><time>2026-03-28T10:42:53Z</time></trkpt><trkpt lat="43.49592977129685" lon="11.299573062373836"><ele>490.0</ele><time>2026-03-28T10:42:54Z</time></trkpt><trkpt lat="43.49614154448315" lon="11.299531734648628"><ele>488.0</ele><time>2026-03-28T10:42:55Z</time></trkpt><trkpt lat="43.496355415102" lon="11.299484496890882"><ele>486.0</ele><time>2026-03-28T10:42:56Z</time></trkpt><trkpt lat="43.49656956680495" lon="11.299415576579435"><ele>484.0</ele><time>2026-03-28T10:42:57Z</time></trkpt><trkpt lat="43.49677692999879" lon="11.2993256910631"><ele>484.0</ele><time>2026-03-28T10:42:58Z</time></trkpt><trkpt lat="43.496978660741895" lon="11.29921625991402"><ele>484.0</ele><time>2026-03-28T10:42:59Z</time></trkpt><trkpt lat="43.49718495392595" lon="11.299076097388818"><ele>484.0</ele><time>2026-03-28T10:43:00Z</time></trkpt><trkpt lat="43.49738559957901" lon="11.298905396002615"><ele>479.0</ele><time>2026-03-28T10:43:01Z</time></trkpt><trkpt lat="43.49756843615148" lon="11.298712724333365"><ele>474.0</ele><time>2026-03-28T10:43:02Z</time></trkpt><trkpt lat="43.497724465857864" lon="11.298520022970862"><ele>469.0</ele><time>2026-03-28T10:43:03Z</time></trkpt><trkpt lat="43.49785859335897" lon="11.29833911212683"><ele>468.5</ele><time>2026-03-28T10:43:04Z</time></trkpt><trkpt lat="43.49797403081202" lon="11.298184763669019"><ele>468.0</ele><time>2026-03-28T10:43:05Z</time></trkpt><trkpt lat="43.49807626955672" lon="11.298057917783838"><ele>467.5</ele><time>2026-03-28T10:43:06Z</time></trkpt><trkpt lat="43.498182302476906" lon="11.297999680328576"><ele>467.0</ele><time>2026-03-28T10:43:07Z</time></trkpt><trkpt lat="43.49830084208564" lon="11.29798781260564"><ele>467.0</ele><time>2026-03-28T10:43:08Z</time></trkpt><trkpt lat="43.4984244818321" lon="11.298032446687186"><ele>467.0</ele><time>2026-03-28T10:43:09Z</time></trkpt><trkpt lat="43.49852575103053" lon="11.298154955110716"><ele>467.0</ele><time>2026-03-28T10:43:10Z</time></trkpt><trkpt lat="43.49859766440177" lon="11.29831305727835"><ele>467.0</ele><time>2026-03-28T10:43:11Z</time></trkpt><trkpt lat="43.498624930957995" lon="11.298496766909642"><ele>467.0</ele><time>2026-03-28T10:43:12Z</time></trkpt><trkpt lat="43.49860399387113" lon="11.298693852413958"><ele>467.0</ele><time>2026-03-28T10:43:13Z</time></trkpt><trkpt lat="43.49853367210055" lon="11.298886630890381"><ele>467.0</ele><time>2026-03-28T10:43:14Z</time></trkpt><trkpt lat="43.49842253874034" lon="11.299081106634388"><ele>466.66666666666663</ele><time>2026-03-28T10:43:15Z</time></trkpt><trkpt lat="43.498316625071475" lon="11.299296516616042"><ele>466.33333333333337</ele><time>2026-03-28T10:43:16Z</time></trkpt><trkpt lat="43.498224090212034" lon="11.299529820666274"><ele>466.0</ele><time>2026-03-28T10:43:17Z</time></trkpt><trkpt lat="43.498138124210996" lon="11.299755769863992"><ele>468.6666666666667</ele><time>2026-03-28T10:43:18Z</time></trkpt><trkpt lat="43.498049494036636" lon="11.299959018594636"><ele>471.33333333333337</ele><time>2026-03-28T10:43:19Z</time></trkpt><trkpt lat="43.49793802501493" lon="11.300143595068779"><ele>474.0</ele><time>2026-03-28T10:43:20Z</time></trkpt><trkpt lat="43.49781209979888" lon="11.300284340215248"><ele>474.0</ele><time>2026-03-28T10:43:21Z</time></trkpt><trkpt lat="43.49769699751642" lon="11.300418450616053"><ele>474.0</ele><time>2026-03-28T10:43:22Z</time></trkpt><trkpt lat="43.49760568475601" lon="11.300542924799784"><ele>474.0</ele><time>2026-03-28T10:43:23Z</time></trkpt><trkpt lat="43.49755598662417" lon="11.300698388429733"><ele>474.0</ele><time>2026-03-28T10:43:24Z</time></trkpt><trkpt lat="43.49756362257172" lon="11.300861192552246"><ele>472.0</ele><time>2026-03-28T10:43:25Z</time></trkpt><trkpt lat="43.49762546455374" lon="11.301013143570042"><ele>470.0</ele><time>2026-03-28T10:43:26Z</time></trkpt><trkpt lat="43.49772635416942" lon="11.301132507614856"><ele>468.0</ele><time>2026-03-28T10:43:27Z</time></trkpt><trkpt lat="43.49785832611551" lon="11.301215442794634"><ele>466.0</ele><time>2026-03-28T10:43:28Z</time></trkpt><trkpt lat="43.49801113221054" lon="11.301258488467319"><ele>461.33333333333337</ele><time>2026-03-28T10:43:29Z</time></trkpt><trkpt lat="43.49814067592025" lon="11.301306721074752"><ele>456.66666666666663</ele><time>2026-03-28T10:43:30Z</time></trkpt><trkpt lat="43.498326611726995" lon="11.301221039803298"><ele>452.0</ele><time>2026-03-28T10:43:31Z</time></trkpt><trkpt lat="43.49850824039648" lon="11.30106503701651"><ele>452.0</ele><time>2026-03-28T10:43:32Z</time></trkpt><trkpt lat="43.498682993867" lon="11.30088879571607"><ele>452.0</ele><time>2026-03-28T10:43:33Z</time></trkpt><trkpt lat="43.49887414658053" lon="11.30074651878667"><ele>452.0</ele><time>2026-03-28T10:43:34Z</time></trkpt><trkpt lat="43.49907058594962" lon="11.300622399720126"><ele>448.3333333333333</ele><time>2026-03-28T10:43:35Z</time></trkpt><trkpt lat="43.499247238792144" lon="11.300484225395902"><ele>444.66666666666663</ele><time>2026-03-28T10:43:36Z</time></trkpt><trkpt lat="43.49944206314388" lon="11.300431727561685"><ele>441.0</ele><time>2026-03-28T10:43:37Z</time></trkpt><trkpt lat="43.499635692791045" lon="11.300399574371816"><ele>438.66666666666663</ele><time>2026-03-28T10:43:38Z</time></trkpt><trkpt lat="43.49986228392437" lon="11.300405168591022"><ele>436.3333333333333</ele><time>2026-03-28T10:43:39Z</time></trkpt><trkpt lat="43.500070655058536" lon="11.300425478759179"><ele>434.0</ele><time>2026-03-28T10:43:40Z</time></trkpt><trkpt lat="43.50028405988851" lon="11.300373951080573"><ele>433.0</ele><time>2026-03-28T10:43:41Z</time></trkpt><trkpt lat="43.500500968743005" lon="11.300301453957665"><ele>432.0</ele><time>2026-03-28T10:43:42Z</time></trkpt><trkpt lat="43.50071121578193" lon="11.300258555929396"><ele>431.0</ele><time>2026-03-28T10:43:43Z</time></trkpt><trkpt lat="43.50090679996728" lon="11.300207978594786"><ele>431.0</ele><time>2026-03-28T10:43:44Z</time></trkpt><trkpt lat="43.501096340173746" lon="11.300093860040155"><ele>431.0</ele><time>2026-03-28T10:43:45Z</time></trkpt><trkpt lat="43.50129304183353" lon="11.299974794289211"><ele>431.0</ele><time>2026-03-28T10:43:46Z</time></trkpt><trkpt lat="43.501482887324876" lon="11.2999193564848"><ele>432.66666666666663</ele><time>2026-03-28T10:43:47Z</time></trkpt><trkpt lat="43.501668050041765" lon="11.299899907575707"><ele>434.33333333333337</ele><time>2026-03-28T10:43:48Z</time></trkpt><trkpt lat="43.50185469248688" lon="11.29982196876878"><ele>436.0</ele><time>2026-03-28T10:43:49Z</time></trkpt><trkpt lat="43.50204101172119" lon="11.299683194812502"><ele>432.0</ele><time>2026-03-28T10:43:50Z</time></trkpt><trkpt lat="43.50223484492667" lon="11.299565690233237"><ele>428.0</ele><time>2026-03-28T10:43:51Z</time></trkpt><trkpt lat="43.50240722655939" lon="11.299489074091058"><ele>424.0</ele><time>2026-03-28T10:43:52Z</time></trkpt><trkpt lat="43.50255113565806" lon="11.299344240176055"><ele>424.0</ele><time>2026-03-28T10:43:53Z</time></trkpt><trkpt lat="43.50267399711245" lon="11.299131685982777"><ele>424.0</ele><time>2026-03-28T10:43:54Z</time></trkpt><trkpt lat="43.5027523926278" lon="11.298907672684702"><ele>424.0</ele><time>2026-03-28T10:43:55Z</time></trkpt><trkpt lat="43.50284637123297" lon="11.29871720521222"><ele>425.0</ele><time>2026-03-28T10:43:56Z</time></trkpt><trkpt lat="43.50299106562043" lon="11.29857224145473"><ele>426.0</ele><time>2026-03-28T10:43:57Z</time></trkpt><trkpt lat="43.503139114560554" lon="11.298481522567005"><ele>427.0</ele><time>2026-03-28T10:43:58Z</time></trkpt><trkpt lat="43.503247098320216" lon="11.29836559265706"><ele>427.0</ele><time>2026-03-28T10:43:59Z</time></trkpt><trkpt lat="43.50331131900095" lon="11.298200815953855"><ele>427.0</ele><time>2026-03-28T10:44:00Z</time></trkpt><trkpt lat="43.50330774021188" lon="11.297985672547979"><ele>427.0</ele><time>2026-03-28T10:44:01Z</time></trkpt><trkpt lat="43.50325224169239" lon="11.29777553485164"><ele>424.33333333333337</ele><time>2026-03-28T10:44:02Z</time></trkpt><trkpt lat="43.50320010863437" lon="11.297578445938623"><ele>421.66666666666663</ele><time>2026-03-28T10:44:03Z</time></trkpt><trkpt lat="43.5031886382574" lon="11.297359924182471"><ele>419.0</ele><time>2026-03-28T10:44:04Z</time></trkpt><trkpt lat="43.50323452399427" lon="11.29712555811417"><ele>416.0</ele><time>2026-03-28T10:44:05Z</time></trkpt><trkpt lat="43.50333145438414" lon="11.296904916368538"><ele>413.0</ele><time>2026-03-28T10:44:06Z</time></trkpt><trkpt lat="43.5034337266096" lon="11.296712246528319"><ele>410.0</ele><time>2026-03-28T10:44:07Z</time></trkpt><trkpt lat="43.50348555467261" lon="11.296500080025922"><ele>408.3333333333333</ele><time>2026-03-28T10:44:08Z</time></trkpt><trkpt lat="43.50347719131311" lon="11.296240275265502"><ele>406.66666666666663</ele><time>2026-03-28T10:44:09Z</time></trkpt><trkpt lat="43.50342618177398" lon="11.29596994016758"><ele>405.0</ele><time>2026-03-28T10:44:10Z</time></trkpt><trkpt lat="43.503386225078714" lon="11.295715966156195"><ele>401.66666666666663</ele><time>2026-03-28T10:44:11Z</time></trkpt><trkpt lat="43.50337760583868" lon="11.295450272747727"><ele>398.3333333333333</ele><time>2026-03-28T10:44:12Z</time></trkpt><trkpt lat="43.5034091628325" lon="11.295222561728274"><ele>395.0</ele><time>2026-03-28T10:44:13Z</time></trkpt><trkpt lat="43.503461869368635" lon="11.295030786734134"><ele>395.0</ele><time>2026-03-28T10:44:14Z</time></trkpt><trkpt lat="43.50354107706232" lon="11.294862927050088"><ele>395.0</ele><time>2026-03-28T10:44:15Z</time></trkpt><trkpt lat="43.50367075640428" lon="11.294719383639666"><ele>395.0</ele><time>2026-03-28T10:44:16Z</time></trkpt><trkpt lat="43.50383673054513" lon="11.29460768067891"><ele>395.66666666666663</ele><time>2026-03-28T10:44:17Z</time></trkpt><trkpt lat="43.50400757725909" lon="11.294480609503603"><ele>396.33333333333337</ele><time>2026-03-28T10:44:18Z</time></trkpt><trkpt lat="43.504144776034465" lon="11.294274147703774"><ele>397.0</ele><time>2026-03-28T10:44:19Z</time></trkpt><trkpt lat="43.50423189700277" lon="11.294030167975711"><ele>392.33333333333337</ele><time>2026-03-28T10:44:20Z</time></trkpt><trkpt lat="43.504273970995975" lon="11.29379833694489"><ele>387.6666666666667</ele><time>2026-03-28T10:44:21Z</time></trkpt><trkpt lat="43.50432757813355" lon="11.293589331253346"><ele>383.0</ele><time>2026-03-28T10:44:22Z</time></trkpt><trkpt lat="43.50443477245056" lon="11.293417462448131"><ele>383.6666666666667</ele><time>2026-03-28T10:44:23Z</time></trkpt><trkpt lat="43.50459194003394" lon="11.29327204987517"><ele>384.33333333333337</ele><time>2026-03-28T10:44:24Z</time></trkpt><trkpt lat="43.50475295805657" lon="11.293177133884104"><ele>385.0</ele><time>2026-03-28T10:44:25Z</time></trkpt><trkpt lat="43.50487345619564" lon="11.293073776095609"><ele>385.0</ele><time>2026-03-28T10:44:26Z</time></trkpt><trkpt lat="43.504944463729714" lon="11.292913075669533"><ele>385.0</ele><time>2026-03-28T10:44:27Z</time></trkpt><trkpt lat="43.504950859348654" lon="11.292720973625112"><ele>385.0</ele><time>2026-03-28T10:44:28Z</time></trkpt><trkpt lat="43.504931424054384" lon="11.2925717412896"><ele>385.0</ele><time>2026-03-28T10:44:29Z</time></trkpt><trkpt lat="43.50496242413566" lon="11.292458785427215"><ele>385.0</ele><time>2026-03-28T10:44:30Z</time></trkpt><trkpt lat="43.5050481970718" lon="11.292395112851036"><ele>385.0</ele><time>2026-03-28T10:44:31Z</time></trkpt><trkpt lat="43.50517522500249" lon="11.29239473093042"><ele>385.0</ele><time>2026-03-28T10:44:32Z</time></trkpt><trkpt lat="43.50533021948276" lon="11.292442392494117"><ele>385.0</ele><time>2026-03-28T10:44:33Z</time></trkpt><trkpt lat="43.50551367243367" lon="11.292493597112736"><ele>384.0</ele><time>2026-03-28T10:44:34Z</time></trkpt><trkpt lat="43.505700404906875" lon="11.292539444851387"><ele>383.0</ele><time>2026-03-28T10:44:35Z</time></trkpt><trkpt lat="43.50589343799028" lon="11.29257921350305"><ele>382.0</ele><time>2026-03-28T10:44:36Z</time></trkpt><trkpt lat="43.50605931021005" lon="11.292602234582304"><ele>382.0</ele><time>2026-03-28T10:44:37Z</time></trkpt><trkpt lat="43.50622096141607" lon="11.29258132043618"><ele>382.0</ele><time>2026-03-28T10:44:38Z</time></trkpt><trkpt lat="43.506379910256406" lon="11.292472031180495"><ele>382.0</ele><time>2026-03-28T10:44:39Z</time></trkpt><trkpt lat="43.50649474707599" lon="11.292311336997045"><ele>375.0</ele><time>2026-03-28T10:44:40Z</time></trkpt><trkpt lat="43.50660275517882" lon="11.292150370379892"><ele>368.0</ele><time>2026-03-28T10:44:41Z</time></trkpt><trkpt lat="43.50673914451757" lon="11.292052353085476"><ele>361.0</ele><time>2026-03-28T10:44:42Z</time></trkpt><trkpt lat="43.50688688485828" lon="11.292027393685437"><ele>361.0</ele><time>2026-03-28T10:44:43Z</time></trkpt><trkpt lat="43.50703652952814" lon="11.29207206375079"><ele>361.0</ele><time>2026-03-28T10:44:44Z</time></trkpt><trkpt lat="43.50718140613922" lon="11.292206011307918"><ele>361.0</ele><time>2026-03-28T10:44:45Z</time></trkpt><trkpt lat="43.50729647701024" lon="11.292378024239003"><ele>364.75</ele><time>2026-03-28T10:44:46Z</time></trkpt><trkpt lat="43.50741919954826" lon="11.292522023075914"><ele>368.5</ele><time>2026-03-28T10:44:47Z</time></trkpt><trkpt lat="43.507514352919486" lon="11.292631913574382"><ele>372.25</ele><time>2026-03-28T10:44:48Z</time></trkpt><trkpt lat="43.5076353137985" lon="11.292607875848443"><ele>376.0</ele><time>2026-03-28T10:44:49Z</time></trkpt><trkpt lat="43.507751970809274" lon="11.292500635496832"><ele>376.0</ele><time>2026-03-28T10:44:50Z</time></trkpt><trkpt lat="43.50784838990273" lon="11.292320797669364"><ele>376.0</ele><time>2026-03-28T10:44:51Z</time></trkpt><trkpt lat="43.5079304835509" lon="11.292171204222123"><ele>376.0</ele><time>2026-03-28T10:44:52Z</time></trkpt><trkpt lat="43.508054534681555" lon="11.292092012452796"><ele>376.0</ele><time>2026-03-28T10:44:53Z</time></trkpt><trkpt lat="43.508210159522" lon="11.29208115776485"><ele>373.66666666666663</ele><time>2026-03-28T10:44:54Z</time></trkpt><trkpt lat="43.50835641148032" lon="11.292147799619467"><ele>371.3333333333333</ele><time>2026-03-28T10:44:55Z</time></trkpt><trkpt lat="43.5084980740969" lon="11.292279118263393"><ele>369.0</ele><time>2026-03-28T10:44:56Z</time></trkpt><trkpt lat="43.50862192244087" lon="11.292472572177902"><ele>363.3333333333333</ele><time>2026-03-28T10:44:57Z</time></trkpt><trkpt lat="43.5087892354556" lon="11.292615514947205"><ele>357.66666666666663</ele><time>2026-03-28T10:44:58Z</time></trkpt><trkpt lat="43.50894513607457" lon="11.292740920390546"><ele>352.0</ele><time>2026-03-28T10:44:59Z</time></trkpt><trkpt lat="43.50908243620482" lon="11.292817533989782"><ele>352.0</ele><time>2026-03-28T10:45:00Z</time></trkpt><trkpt lat="43.5092144765132" lon="11.292855563384421"><ele>352.0</ele><time>2026-03-28T10:45:01Z</time></trkpt><trkpt lat="43.509353764685024" lon="11.292828594405417"><ele>352.0</ele><time>2026-03-28T10:45:02Z</time></trkpt><trkpt lat="43.50948965973265" lon="11.292715520340787"><ele>352.0</ele><time>2026-03-28T10:45:03Z</time></trkpt><trkpt lat="43.50961889362764" lon="11.292562054772079"><ele>350.5</ele><time>2026-03-28T10:45:04Z</time></trkpt><trkpt lat="43.50974050489647" lon="11.292403051496214"><ele>349.0</ele><time>2026-03-28T10:45:05Z</time></trkpt><trkpt lat="43.50983359486496" lon="11.292347670400552"><ele>347.5</ele><time>2026-03-28T10:45:06Z</time></trkpt><trkpt lat="43.50994590002452" lon="11.292309755035598"><ele>346.0</ele><time>2026-03-28T10:45:07Z</time></trkpt><trkpt lat="43.5100692747657" lon="11.2923345100967"><ele>346.0</ele><time>2026-03-28T10:45:08Z</time></trkpt><trkpt lat="43.51018725960565" lon="11.292432934916716"><ele>346.0</ele><time>2026-03-28T10:45:09Z</time></trkpt><trkpt lat="43.51029402145614" lon="11.292607689654028"><ele>346.0</ele><time>2026-03-28T10:45:10Z</time></trkpt><trkpt lat="43.51039386488392" lon="11.292745828056287"><ele>346.0</ele><time>2026-03-28T10:45:11Z</time></trkpt><trkpt lat="43.51047657589959" lon="11.292831811157823"><ele>343.4</ele><time>2026-03-28T10:45:12Z</time></trkpt><trkpt lat="43.51056493884153" lon="11.292909195628798"><ele>340.8</ele><time>2026-03-28T10:45:13Z</time></trkpt><trkpt lat="43.51065008600374" lon="11.292918673074123"><ele>338.2</ele><time>2026-03-28T10:45:14Z</time></trkpt><trkpt lat="43.510726401889016" lon="11.292842975964492"><ele>335.59999999999997</ele><time>2026-03-28T10:45:15Z</time></trkpt><trkpt lat="43.51076083965871" lon="11.292710706817687"><ele>333.0</ele><time>2026-03-28T10:45:16Z</time></trkpt><trkpt lat="43.51074523119301" lon="11.292537603327226"><ele>333.0</ele><time>2026-03-28T10:45:17Z</time></trkpt><trkpt lat="43.51070053309782" lon="11.292331258018267"><ele>333.0</ele><time>2026-03-28T10:45:18Z</time></trkpt><trkpt lat="43.51065320688604" lon="11.292102994462104"><ele>333.0</ele><time>2026-03-28T10:45:19Z</time></trkpt><trkpt lat="43.510612365515286" lon="11.29184315618413"><ele>331.3333333333333</ele><time>2026-03-28T10:45:20Z</time></trkpt><trkpt lat="43.51056754472163" lon="11.291577539440986"><ele>329.66666666666663</ele><time>2026-03-28T10:45:21Z</time></trkpt><trkpt lat="43.51050578836639" lon="11.291332850978725"><ele>328.0</ele><time>2026-03-28T10:45:22Z</time></trkpt><trkpt lat="43.51041381816872" lon="11.291114212956742"><ele>327.75</ele><time>2026-03-28T10:45:23Z</time></trkpt><trkpt lat="43.51033091226989" lon="11.290923589106983"><ele>327.5</ele><time>2026-03-28T10:45:24Z</time></trkpt><trkpt lat="43.510264390491784" lon="11.290765420497928"><ele>327.25</ele><time>2026-03-28T10:45:25Z</time></trkpt><trkpt lat="43.51022150210972" lon="11.29062043387364"><ele>327.0</ele><time>2026-03-28T10:45:26Z</time></trkpt><trkpt lat="43.51022465896016" lon="11.290481015459132"><ele>325.25</ele><time>2026-03-28T10:45:27Z</time></trkpt><trkpt lat="43.51028671325" lon="11.290375096551173"><ele>323.5</ele><time>2026-03-28T10:45:28Z</time></trkpt><trkpt lat="43.510382392704415" lon="11.290339965690922"><ele>321.75</ele><time>2026-03-28T10:45:29Z</time></trkpt><trkpt lat="43.510496182988696" lon="11.290383468564643"><ele>320.0</ele><time>2026-03-28T10:45:30Z</time></trkpt><trkpt lat="43.51061928711959" lon="11.290506922832332"><ele>320.33333333333337</ele><time>2026-03-28T10:45:31Z</time></trkpt><trkpt lat="43.51075249902568" lon="11.290670464464792"><ele>320.6666666666667</ele><time>2026-03-28T10:45:32Z</time></trkpt><trkpt lat="43.510918123283915" lon="11.290814529879716"><ele>321.0</ele><time>2026-03-28T10:45:33Z</time></trkpt><trkpt lat="43.511081083582646" lon="11.2908835237768"><ele>317.0</ele><time>2026-03-28T10:45:34Z</time></trkpt><trkpt lat="43.511256550307344" lon="11.29089067405333"><ele>313.0</ele><time>2026-03-28T10:45:35Z</time></trkpt><trkpt lat="43.51141698650092" lon="11.290897067835825"><ele>309.0</ele><time>2026-03-28T10:45:36Z</time></trkpt><trkpt lat="43.51156969459353" lon="11.290972357707904"><ele>309.0</ele><time>2026-03-28T10:45:37Z</time></trkpt><trkpt lat="43.51170781379975" lon="11.291134451418346"><ele>309.0</ele><time>2026-03-28T10:45:38Z</time></trkpt><trkpt lat="43.511844852974804" lon="11.291339100743604"><ele>309.0</ele><time>2026-03-28T10:45:39Z</time></trkpt><trkpt lat="43.51197523458877" lon="11.291526853380242"><ele>308.75</ele><time>2026-03-28T10:45:40Z</time></trkpt><trkpt lat="43.51208415568364" lon="11.291680241486299"><ele>308.5</ele><time>2026-03-28T10:45:41Z</time></trkpt><trkpt lat="43.512176712534" lon="11.291810914995121"><ele>308.25</ele><time>2026-03-28T10:45:42Z</time></trkpt><trkpt lat="43.51227247484078" lon="11.291921573273015"><ele>308.0</ele><time>2026-03-28T10:45:43Z</time></trkpt><trkpt lat="43.51239237811103" lon="11.291974456489104"><ele>308.0</ele><time>2026-03-28T10:45:44Z</time></trkpt><trkpt lat="43.512531094235506" lon="11.291960258306526"><ele>308.0</ele><time>2026-03-28T10:45:45Z</time></trkpt><trkpt lat="43.51268372991241" lon="11.29183362691487"><ele>308.0</ele><time>2026-03-28T10:45:46Z</time></trkpt><trkpt lat="43.51283482944114" lon="11.291661953527974"><ele>308.0</ele><time>2026-03-28T10:45:47Z</time></trkpt><trkpt lat="43.512996099772735" lon="11.29150246806657"><ele>308.0</ele><time>2026-03-28T10:45:48Z</time></trkpt><trkpt lat="43.51314228111323" lon="11.291368237444496"><ele>308.0</ele><time>2026-03-28T10:45:49Z</time></trkpt><trkpt lat="43.51327493621294" lon="11.291246803285008"><ele>304.25</ele><time>2026-03-28T10:45:50Z</time></trkpt><trkpt lat="43.51339376948486" lon="11.291137098853518"><ele>300.5</ele><time>2026-03-28T10:45:51Z</time></trkpt><trkpt lat="43.51349695007451" lon="11.291038861704447"><ele>296.75</ele><time>2026-03-28T10:45:52Z</time></trkpt><trkpt lat="43.51358310782796" lon="11.290973356739311"><ele>293.0</ele><time>2026-03-28T10:45:53Z</time></trkpt><trkpt lat="43.51367155646435" lon="11.2909556264912"><ele>291.6666666666667</ele><time>2026-03-28T10:45:54Z</time></trkpt><trkpt lat="43.51378085483281" lon="11.291004359842429"><ele>290.3333333333333</ele><time>2026-03-28T10:45:55Z</time></trkpt><trkpt lat="43.513917735871786" lon="11.291114822675253"><ele>289.0</ele><time>2026-03-28T10:45:56Z</time></trkpt><trkpt lat="43.51408012692571" lon="11.291223180437846"><ele>289.0</ele><time>2026-03-28T10:45:57Z</time></trkpt><trkpt lat="43.5142512706929" lon="11.291301856389884"><ele>289.0</ele><time>2026-03-28T10:45:58Z</time></trkpt><trkpt lat="43.51442058632725" lon="11.291346014320641"><ele>289.0</ele><time>2026-03-28T10:45:59Z</time></trkpt><trkpt lat="43.51459026047814" lon="11.291362415461242"><ele>287.3333333333333</ele><time>2026-03-28T10:46:00Z</time></trkpt><trkpt lat="43.51477038801505" lon="11.291366846897313"><ele>285.6666666666667</ele><time>2026-03-28T10:46:01Z</time></trkpt><trkpt lat="43.51497003822263" lon="11.291381772254836"><ele>284.0</ele><time>2026-03-28T10:46:02Z</time></trkpt><trkpt lat="43.51515290345059" lon="11.291399281721977"><ele>284.0</ele><time>2026-03-28T10:46:03Z</time></trkpt><trkpt lat="43.51531213006715" lon="11.29141874796748"><ele>284.0</ele><time>2026-03-28T10:46:04Z</time></trkpt><trkpt lat="43.515467187031334" lon="11.291463726441375"><ele>284.0</ele><time>2026-03-28T10:46:05Z</time></trkpt><trkpt lat="43.51562288475189" lon="11.291555647499084"><ele>283.75</ele><time>2026-03-28T10:46:06Z</time></trkpt><trkpt lat="43.51575299983991" lon="11.29167371773282"><ele>283.5</ele><time>2026-03-28T10:46:07Z</time></trkpt><trkpt lat="43.51584472198539" lon="11.291836331875103"><ele>283.25</ele><time>2026-03-28T10:46:08Z</time></trkpt><trkpt lat="43.515910073749396" lon="11.292012674770636"><ele>283.0</ele><time>2026-03-28T10:46:09Z</time></trkpt><trkpt lat="43.5159570980708" lon="11.29217920439962"><ele>281.5</ele><time>2026-03-28T10:46:10Z</time></trkpt><trkpt lat="43.51603487291943" lon="11.29229484305986"><ele>280.0</ele><time>2026-03-28T10:46:11Z</time></trkpt><trkpt lat="43.51615607960713" lon="11.292331443766447"><ele>278.5</ele><time>2026-03-28T10:46:12Z</time></trkpt><trkpt lat="43.516284393339006" lon="11.29229330084893"><ele>277.0</ele><time>2026-03-28T10:46:13Z</time></trkpt><trkpt lat="43.516420727937835" lon="11.292209898213276"><ele>277.0</ele><time>2026-03-28T10:46:14Z</time></trkpt><trkpt lat="43.516550611104165" lon="11.292136825139249"><ele>277.0</ele><time>2026-03-28T10:46:15Z</time></trkpt><trkpt lat="43.51665977112362" lon="11.292094304349012"><ele>277.0</ele><time>2026-03-28T10:46:16Z</time></trkpt><trkpt lat="43.516770022017155" lon="11.292102350443734"><ele>277.0</ele><time>2026-03-28T10:46:17Z</time></trkpt><trkpt lat="43.516877814718946" lon="11.292184923169645"><ele>276.0</ele><time>2026-03-28T10:46:18Z</time></trkpt><trkpt lat="43.51698168707219" lon="11.292339281299515"><ele>275.0</ele><time>2026-03-28T10:46:19Z</time></trkpt><trkpt lat="43.517090471042735" lon="11.292553899051056"><ele>274.0</ele><time>2026-03-28T10:46:20Z</time></trkpt><trkpt lat="43.517222397196505" lon="11.292780321592138"><ele>274.3333333333333</ele><time>2026-03-28T10:46:21Z</time></trkpt><trkpt lat="43.51736028269777" lon="11.292999147727937"><ele>274.6666666666667</ele><time>2026-03-28T10:46:22Z</time></trkpt><trkpt lat="43.517497135668386" lon="11.293209337624951"><ele>275.0</ele><time>2026-03-28T10:46:23Z</time></trkpt><trkpt lat="43.51761802880602" lon="11.293392586372011"><ele>275.0</ele><time>2026-03-28T10:46:24Z</time></trkpt><trkpt lat="43.51771736294184" lon="11.293550487918496"><ele>275.0</ele><time>2026-03-28T10:46:25Z</time></trkpt><trkpt lat="43.51780375086651" lon="11.293681232288069"><ele>275.0</ele><time>2026-03-28T10:46:26Z</time></trkpt><trkpt lat="43.51789757663315" lon="11.293780530338493"><ele>275.0</ele><time>2026-03-28T10:46:27Z</time></trkpt><trkpt lat="43.51801667921609" lon="11.293807077679508"><ele>274.33333333333337</ele><time>2026-03-28T10:46:28Z</time></trkpt><trkpt lat="43.518143364894385" lon="11.293745594197627"><ele>273.6666666666667</ele><time>2026-03-28T10:46:29Z</time></trkpt><trkpt lat="43.51826533235927" lon="11.293612237412155"><ele>273.0</ele><time>2026-03-28T10:46:30Z</time></trkpt><trkpt lat="43.51835516649251" lon="11.293411154926881"><ele>273.0</ele><time>2026-03-28T10:46:31Z</time></trkpt><trkpt lat="43.51842403125778" lon="11.293184818824015"><ele>273.0</ele><time>2026-03-28T10:46:32Z</time></trkpt><trkpt lat="43.518505381731416" lon="11.293002282257987"><ele>273.0</ele><time>2026-03-28T10:46:33Z</time></trkpt><trkpt lat="43.518621123738505" lon="11.292852541130957"><ele>272.6666666666667</ele><time>2026-03-28T10:46:34Z</time></trkpt><trkpt lat="43.51878049378389" lon="11.292713423431678"><ele>272.33333333333337</ele><time>2026-03-28T10:46:35Z</time></trkpt><trkpt lat="43.51895527983149" lon="11.292559657415843"><ele>272.0</ele><time>2026-03-28T10:46:36Z</time></trkpt><trkpt lat="43.5191249662695" lon="11.292419604674881"><ele>272.0</ele><time>2026-03-28T10:46:37Z</time></trkpt><trkpt lat="43.51927887028325" lon="11.2922916240964"><ele>272.0</ele><time>2026-03-28T10:46:37.999Z</time></trkpt><trkpt lat="43.51942263081842" lon="11.292178890960342"><ele>272.0</ele><time>2026-03-28T10:46:38.999Z</time></trkpt><trkpt lat="43.51954817081802" lon="11.292068503368313"><ele>273.6</ele><time>2026-03-28T10:46:39.999Z</time></trkpt><trkpt lat="43.519650208054905" lon="11.291978558064432"><ele>275.2</ele><time>2026-03-28T10:46:40.999Z</time></trkpt><trkpt lat="43.51973705353828" lon="11.29190401436925"><ele>276.8</ele><time>2026-03-28T10:46:41.999Z</time></trkpt><trkpt lat="43.51981870561892" lon="11.291840421172331"><ele>278.4</ele><time>2026-03-28T10:46:42.999Z</time></trkpt><trkpt lat="43.51989418574878" lon="11.291798246541687"><ele>280.0</ele><time>2026-03-28T10:46:43.999Z</time></trkpt><trkpt lat="43.51997877680526" lon="11.291802036533785"><ele>280.0</ele><time>2026-03-28T10:46:44.999Z</time></trkpt><trkpt lat="43.52006153012344" lon="11.29186466966433"><ele>280.0</ele><time>2026-03-28T10:46:45.999Z</time></trkpt><trkpt lat="43.52011123572992" lon="11.29198063946594"><ele>280.0</ele><time>2026-03-28T10:46:46.999Z</time></trkpt><trkpt lat="43.52011173491809" lon="11.292143963958784"><ele>280.0</ele><time>2026-03-28T10:46:47.999Z</time></trkpt><trkpt lat="43.52013962423725" lon="11.292331231792051"><ele>280.0</ele><time>2026-03-28T10:46:48.999Z</time></trkpt><trkpt lat="43.520158904290255" lon="11.29254202538822"><ele>278.0</ele><time>2026-03-28T10:46:49.999Z</time></trkpt><trkpt lat="43.52018957533142" lon="11.292741399391954"><ele>276.0</ele><time>2026-03-28T10:46:50.999Z</time></trkpt><trkpt lat="43.5202109473639" lon="11.292925860906788"><ele>274.0</ele><time>2026-03-28T10:46:51.999Z</time></trkpt><trkpt lat="43.52018629727336" lon="11.293094561656247"><ele>272.0</ele><time>2026-03-28T10:46:52.999Z</time></trkpt><trkpt lat="43.52012672859074" lon="11.293254004470308"><ele>272.0</ele><time>2026-03-28T10:46:54Z</time></trkpt><trkpt lat="43.52001836266231" lon="11.293392283369657"><ele>272.0</ele><time>2026-03-28T10:46:55Z</time></trkpt><trkpt lat="43.519941129520305" lon="11.293535841149211"><ele>272.0</ele><time>2026-03-28T10:46:56Z</time></trkpt><trkpt lat="43.519901504948855" lon="11.293670843400276"><ele>272.0</ele><time>2026-03-28T10:46:57Z</time></trkpt><trkpt lat="43.51993047450635" lon="11.293808036043476"><ele>272.0</ele><time>2026-03-28T10:46:58Z</time></trkpt><trkpt lat="43.520020224974886" lon="11.29390605475934"><ele>272.0</ele><time>2026-03-28T10:46:59Z</time></trkpt><trkpt lat="43.52014930940518" lon="11.293958327973392"><ele>272.0</ele><time>2026-03-28T10:47:00Z</time></trkpt><trkpt lat="43.52030829306792" lon="11.293987269945434"><ele>272.0</ele><time>2026-03-28T10:47:01Z</time></trkpt><trkpt lat="43.52048820500569" lon="11.294039513388439"><ele>276.0</ele><time>2026-03-28T10:47:02Z</time></trkpt><trkpt lat="43.520682312214625" lon="11.294106525356147"><ele>280.0</ele><time>2026-03-28T10:47:03Z</time></trkpt><trkpt lat="43.52088427252873" lon="11.2941766886666"><ele>284.0</ele><time>2026-03-28T10:47:04Z</time></trkpt><trkpt lat="43.52105369978301" lon="11.294233623075465"><ele>284.0</ele><time>2026-03-28T10:47:05Z</time></trkpt><trkpt lat="43.5212224871644" lon="11.294293253754113"><ele>284.0</ele><time>2026-03-28T10:47:06Z</time></trkpt><trkpt lat="43.52133784062266" lon="11.294323034719486"><ele>284.0</ele><time>2026-03-28T10:47:07Z</time></trkpt><trkpt lat="43.5214409045882" lon="11.294381187957656"><ele>284.0</ele><time>2026-03-28T10:47:08Z</time></trkpt><trkpt lat="43.52151444572403" lon="11.294494606369344"><ele>283.0</ele><time>2026-03-28T10:47:09Z</time></trkpt><trkpt lat="43.52154281395857" lon="11.29462505273649"><ele>282.0</ele><time>2026-03-28T10:47:10Z</time></trkpt><trkpt lat="43.52152013007318" lon="11.294759425892492"><ele>281.0</ele><time>2026-03-28T10:47:11Z</time></trkpt><trkpt lat="43.5214372992926" lon="11.29484926079436"><ele>280.0</ele><time>2026-03-28T10:47:12Z</time></trkpt><trkpt lat="43.52132856394926" lon="11.294842693183213"><ele>279.0</ele><time>2026-03-28T10:47:12.999Z</time></trkpt><trkpt lat="43.52120416530409" lon="11.294819084174886"><ele>280.6666666666667</ele><time>2026-03-28T10:47:13.999Z</time></trkpt><trkpt lat="43.521050863499056" lon="11.294789804831623"><ele>282.33333333333337</ele><time>2026-03-28T10:47:14.999Z</time></trkpt><trkpt lat="43.52087975249922" lon="11.294770039078733"><ele>284.0</ele><time>2026-03-28T10:47:15.999Z</time></trkpt><trkpt lat="43.52070658254585" lon="11.294687724714402"><ele>284.0</ele><time>2026-03-28T10:47:16.999Z</time></trkpt><trkpt lat="43.52055182571623" lon="11.294598843851443"><ele>284.0</ele><time>2026-03-28T10:47:17.999Z</time></trkpt><trkpt lat="43.52041511799638" lon="11.294544007138006"><ele>284.0</ele><time>2026-03-28T10:47:18.999Z</time></trkpt><trkpt lat="43.520272541695945" lon="11.294557417362364"><ele>283.6666666666667</ele><time>2026-03-28T10:47:19.999Z</time></trkpt><trkpt lat="43.520118023952854" lon="11.294663703923776"><ele>283.3333333333333</ele><time>2026-03-28T10:47:20.999Z</time></trkpt><trkpt lat="43.51996678628383" lon="11.294794929223642"><ele>283.0</ele><time>2026-03-28T10:47:21.999Z</time></trkpt><trkpt lat="43.519816678630654" lon="11.294933334481222"><ele>289.66666666666663</ele><time>2026-03-28T10:47:22.999Z</time></trkpt><trkpt lat="43.51970289903802" lon="11.295089730560596"><ele>296.3333333333333</ele><time>2026-03-28T10:47:23.999Z</time></trkpt><trkpt lat="43.5196243500154" lon="11.295276897883312"><ele>303.0</ele><time>2026-03-28T10:47:24.999Z</time></trkpt><trkpt lat="43.51959644503037" lon="11.295484921141934"><ele>305.3333333333333</ele><time>2026-03-28T10:47:25.999Z</time></trkpt><trkpt lat="43.51960844860801" lon="11.295705346402142"><ele>307.66666666666663</ele><time>2026-03-28T10:47:26.999Z</time></trkpt><trkpt lat="43.51966379258911" lon="11.295896858707858"><ele>310.0</ele><time>2026-03-28T10:47:27.999Z</time></trkpt><trkpt lat="43.51975612294738" lon="11.296086024574931"><ele>310.0</ele><time>2026-03-28T10:47:28.999Z</time></trkpt><trkpt lat="43.519870540286156" lon="11.296251468609578"><ele>310.0</ele><time>2026-03-28T10:47:29.999Z</time></trkpt><trkpt lat="43.52002046722837" lon="11.296471987803486"><ele>310.0</ele><time>2026-03-28T10:47:30.999Z</time></trkpt><trkpt lat="43.5201612226368" lon="11.296699158316214"><ele>306.0</ele><time>2026-03-28T10:47:31.999Z</time></trkpt><trkpt lat="43.52030983499839" lon="11.296927155151804"><ele>302.0</ele><time>2026-03-28T10:47:32.999Z</time></trkpt><trkpt lat="43.520467951983974" lon="11.29716744874893"><ele>310.5</ele><time>2026-03-28T10:47:33.999Z</time></trkpt><trkpt lat="43.52061493509712" lon="11.297409267906623"><ele>319.0</ele><time>2026-03-28T10:47:34.998Z</time></trkpt><trkpt lat="43.52077203790022" lon="11.297644389344796"><ele>319.0</ele><time>2026-03-28T10:47:35.998Z</time></trkpt><trkpt lat="43.52089399130465" lon="11.297825320064991"><ele>319.0</ele><time>2026-03-28T10:47:36.998Z</time></trkpt><trkpt lat="43.52099116481981" lon="11.29796810770225"><ele>319.0</ele><time>2026-03-28T10:47:37.998Z</time></trkpt><trkpt lat="43.52109317589548" lon="11.298090513108635"><ele>319.3333333333333</ele><time>2026-03-28T10:47:38.998Z</time></trkpt><trkpt lat="43.521265961479756" lon="11.298143304370479"><ele>319.6666666666667</ele><time>2026-03-28T10:47:39.998Z</time></trkpt><trkpt lat="43.52146493446484" lon="11.298131454919822"><ele>320.0</ele><time>2026-03-28T10:47:40.998Z</time></trkpt><trkpt lat="43.521677359092635" lon="11.298120766045567"><ele>320.0</ele><time>2026-03-28T10:47:41.998Z</time></trkpt><trkpt lat="43.52187422193894" lon="11.298139630421474"><ele>320.0</ele><time>2026-03-28T10:47:42.998Z</time></trkpt><trkpt lat="43.522046229833045" lon="11.2982443772839"><ele>320.0</ele><time>2026-03-28T10:47:43.998Z</time></trkpt><trkpt lat="43.52223016063607" lon="11.298389065743853"><ele>326.5</ele><time>2026-03-28T10:47:44.998Z</time></trkpt><trkpt lat="43.522429385674826" lon="11.298546399352634"><ele>333.0</ele><time>2026-03-28T10:47:45.998Z</time></trkpt><trkpt lat="43.52262852786317" lon="11.298719404118064"><ele>333.0</ele><time>2026-03-28T10:47:46.998Z</time></trkpt><trkpt lat="43.522831058063936" lon="11.29891478623123"><ele>333.0</ele><time>2026-03-28T10:47:47.998Z</time></trkpt><trkpt lat="43.523028843384665" lon="11.299086400127107"><ele>336.0</ele><time>2026-03-28T10:47:48.998Z</time></trkpt><trkpt lat="43.52322354694567" lon="11.299256311781868"><ele>339.0</ele><time>2026-03-28T10:47:49.998Z</time></trkpt><trkpt lat="43.52342178438532" lon="11.299421732802372"><ele>339.0</ele><time>2026-03-28T10:47:50.998Z</time></trkpt><trkpt lat="43.52361241309672" lon="11.299575259882012"><ele>339.0</ele><time>2026-03-28T10:47:51.998Z</time></trkpt><trkpt lat="43.52378268642835" lon="11.299709381160717"><ele>339.0</ele><time>2026-03-28T10:47:52.998Z</time></trkpt><trkpt lat="43.52393983263915" lon="11.299837065575916"><ele>342.0</ele><time>2026-03-28T10:47:53.998Z</time></trkpt><trkpt lat="43.52407701332551" lon="11.299981792462638"><ele>345.0</ele><time>2026-03-28T10:47:54.998Z</time></trkpt><trkpt lat="43.52417650341783" lon="11.300161849784638"><ele>348.0</ele><time>2026-03-28T10:47:55.998Z</time></trkpt><trkpt lat="43.524235686927405" lon="11.300363205781672"><ele>347.6666666666667</ele><time>2026-03-28T10:47:56.998Z</time></trkpt><trkpt lat="43.52423026527942" lon="11.300594801063845"><ele>347.33333333333337</ele><time>2026-03-28T10:47:57.998Z</time></trkpt><trkpt lat="43.52417305945254" lon="11.300820453251216"><ele>347.0</ele><time>2026-03-28T10:47:58.998Z</time></trkpt><trkpt lat="43.524108900298465" lon="11.301011342585609"><ele>347.0</ele><time>2026-03-28T10:47:59.998Z</time></trkpt><trkpt lat="43.524082801590055" lon="11.301179847760359"><ele>347.0</ele><time>2026-03-28T10:48:00.998Z</time></trkpt><trkpt lat="43.52412910094386" lon="11.301338859844515"><ele>347.0</ele><time>2026-03-28T10:48:01.998Z</time></trkpt><trkpt lat="43.52423770402418" lon="11.301483352364968"><ele>347.0</ele><time>2026-03-28T10:48:02.998Z</time></trkpt><trkpt lat="43.52439170230543" lon="11.30161717138589"><ele>346.33333333333337</ele><time>2026-03-28T10:48:03.998Z</time></trkpt><trkpt lat="43.52454790152853" lon="11.301752626330567"><ele>345.6666666666667</ele><time>2026-03-28T10:48:04.998Z</time></trkpt><trkpt lat="43.52470580217987" lon="11.301923559131579"><ele>345.0</ele><time>2026-03-28T10:48:05.998Z</time></trkpt><trkpt lat="43.52486338247161" lon="11.302098584929764"><ele>348.3333333333333</ele><time>2026-03-28T10:48:06.998Z</time></trkpt><trkpt lat="43.52500117951398" lon="11.302242181578531"><ele>351.66666666666663</ele><time>2026-03-28T10:48:07.998Z</time></trkpt><trkpt lat="43.52512603919281" lon="11.302381898915542"><ele>355.0</ele><time>2026-03-28T10:48:08.998Z</time></trkpt><trkpt lat="43.525245459731714" lon="11.30251744297487"><ele>355.0</ele><time>2026-03-28T10:48:09.998Z</time></trkpt><trkpt lat="43.52534414079008" lon="11.302628969624777"><ele>355.0</ele><time>2026-03-28T10:48:10.998Z</time></trkpt><trkpt lat="43.52543562009733" lon="11.302697879272428"><ele>355.0</ele><time>2026-03-28T10:48:11.998Z</time></trkpt><trkpt lat="43.52553121661921" lon="11.302687137776845"><ele>355.0</ele><time>2026-03-28T10:48:12.998Z</time></trkpt><trkpt lat="43.525622194774044" lon="11.302620770716764"><ele>355.0</ele><time>2026-03-28T10:48:13.998Z</time></trkpt><trkpt lat="43.5256569389014" lon="11.30242800102037"><ele>359.66666666666663</ele><time>2026-03-28T10:48:14.998Z</time></trkpt><trkpt lat="43.52563551681672" lon="11.302214476257259"><ele>364.3333333333333</ele><time>2026-03-28T10:48:15.998Z</time></trkpt><trkpt lat="43.52557726276912" lon="11.302008060339142"><ele>369.0</ele><time>2026-03-28T10:48:16.998Z</time></trkpt><trkpt lat="43.52545934501957" lon="11.301816835455163"><ele>367.0</ele><time>2026-03-28T10:48:17.998Z</time></trkpt><trkpt lat="43.525302254904055" lon="11.301666110739166"><ele>365.0</ele><time>2026-03-28T10:48:18.998Z</time></trkpt><trkpt lat="43.52515582238803" lon="11.301512842926979"><ele>363.0</ele><time>2026-03-28T10:48:19.998Z</time></trkpt><trkpt lat="43.52503748105993" lon="11.301372944466625"><ele>363.0</ele><time>2026-03-28T10:48:20.998Z</time></trkpt><trkpt lat="43.52494861506353" lon="11.301239121773975"><ele>363.0</ele><time>2026-03-28T10:48:21.998Z</time></trkpt><trkpt lat="43.5248972762615" lon="11.301101690782165"><ele>363.0</ele><time>2026-03-28T10:48:22.998Z</time></trkpt><trkpt lat="43.52488308414991" lon="11.300941743937948"><ele>363.0</ele><time>2026-03-28T10:48:23.998Z</time></trkpt><trkpt lat="43.52491369126115" lon="11.30075933682147"><ele>363.3333333333333</ele><time>2026-03-28T10:48:24.998Z</time></trkpt><trkpt lat="43.52497094674118" lon="11.300523430131596"><ele>363.66666666666663</ele><time>2026-03-28T10:48:25.998Z</time></trkpt><trkpt lat="43.52503605766159" lon="11.300270341609652"><ele>364.0</ele><time>2026-03-28T10:48:26.998Z</time></trkpt><trkpt lat="43.52507557752149" lon="11.300060637148702"><ele>364.0</ele><time>2026-03-28T10:48:27.998Z</time></trkpt><trkpt lat="43.52514721800855" lon="11.299927058677552"><ele>364.0</ele><time>2026-03-28T10:48:28.998Z</time></trkpt><trkpt lat="43.52523398844892" lon="11.299821441744422"><ele>364.0</ele><time>2026-03-28T10:48:29.998Z</time></trkpt><trkpt lat="43.525362974893774" lon="11.299762821498671"><ele>364.0</ele><time>2026-03-28T10:48:30.998Z</time></trkpt><trkpt lat="43.525516204817976" lon="11.299750492938182"><ele>366.66666666666663</ele><time>2026-03-28T10:48:31.998Z</time></trkpt><trkpt lat="43.525686696961806" lon="11.299742593010098"><ele>369.3333333333333</ele><time>2026-03-28T10:48:32.998Z</time></trkpt><trkpt lat="43.525860319539944" lon="11.299777895078055"><ele>372.0</ele><time>2026-03-28T10:48:33.998Z</time></trkpt><trkpt lat="43.52601643344113" lon="11.299815290813013"><ele>372.0</ele><time>2026-03-28T10:48:34.998Z</time></trkpt><trkpt lat="43.52613799409342" lon="11.299885903099142"><ele>372.0</ele><time>2026-03-28T10:48:35.998Z</time></trkpt><trkpt lat="43.526230657778996" lon="11.300018445174633"><ele>372.0</ele><time>2026-03-28T10:48:36.998Z</time></trkpt><trkpt lat="43.526310213668275" lon="11.300220310108394"><ele>372.0</ele><time>2026-03-28T10:48:37.998Z</time></trkpt><trkpt lat="43.52638969699942" lon="11.300454040960512"><ele>372.0</ele><time>2026-03-28T10:48:38.998Z</time></trkpt><trkpt lat="43.52647517142956" lon="11.300696511270818"><ele>372.0</ele><time>2026-03-28T10:48:39.998Z</time></trkpt><trkpt lat="43.52654361629642" lon="11.300924928488774"><ele>372.0</ele><time>2026-03-28T10:48:40.998Z</time></trkpt><trkpt lat="43.5265819649328" lon="11.301170099490259"><ele>373.0</ele><time>2026-03-28T10:48:41.998Z</time></trkpt><trkpt lat="43.526587580722364" lon="11.301452015550854"><ele>374.0</ele><time>2026-03-28T10:48:42.998Z</time></trkpt><trkpt lat="43.526604997437566" lon="11.301751487719738"><ele>375.0</ele><time>2026-03-28T10:48:43.998Z</time></trkpt><trkpt lat="43.526630844018804" lon="11.302018960689207"><ele>376.3333333333333</ele><time>2026-03-28T10:48:44.998Z</time></trkpt><trkpt lat="43.526677099988724" lon="11.302253974294306"><ele>377.66666666666663</ele><time>2026-03-28T10:48:45.998Z</time></trkpt><trkpt lat="43.526778786872924" lon="11.30245693100402"><ele>379.0</ele><time>2026-03-28T10:48:46.998Z</time></trkpt><trkpt lat="43.52692565972346" lon="11.3026504767977"><ele>377.3333333333333</ele><time>2026-03-28T10:48:47.998Z</time></trkpt><trkpt lat="43.5270816343397" lon="11.302846299219869"><ele>375.6666666666667</ele><time>2026-03-28T10:48:48.998Z</time></trkpt><trkpt lat="43.52721867491695" lon="11.30302034687778"><ele>374.0</ele><time>2026-03-28T10:48:49.998Z</time></trkpt><trkpt lat="43.52736045617793" lon="11.3031554827596"><ele>379.0</ele><time>2026-03-28T10:48:50.998Z</time></trkpt><trkpt lat="43.52752372982484" lon="11.30323247383146"><ele>384.0</ele><time>2026-03-28T10:48:51.998Z</time></trkpt><trkpt lat="43.52767427418342" lon="11.30327426071239"><ele>389.0</ele><time>2026-03-28T10:48:52.998Z</time></trkpt><trkpt lat="43.52779688394948" lon="11.303354658619671"><ele>387.0</ele><time>2026-03-28T10:48:53.998Z</time></trkpt><trkpt lat="43.52789357283819" lon="11.303502810008165"><ele>385.0</ele><time>2026-03-28T10:48:54.998Z</time></trkpt><trkpt lat="43.52797540870937" lon="11.303719478586498"><ele>383.0</ele><time>2026-03-28T10:48:55.998Z</time></trkpt><trkpt lat="43.52806610961276" lon="11.303900367030572"><ele>386.5</ele><time>2026-03-28T10:48:56.998Z</time></trkpt><trkpt lat="43.528168635217654" lon="11.304019805195741"><ele>390.0</ele><time>2026-03-28T10:48:57.998Z</time></trkpt><trkpt lat="43.52829783027157" lon="11.304072289234043"><ele>393.5</ele><time>2026-03-28T10:48:58.998Z</time></trkpt><trkpt lat="43.52844381426158" lon="11.304039387204083"><ele>397.0</ele><time>2026-03-28T10:48:59.999Z</time></trkpt><trkpt lat="43.52859016799183" lon="11.30393366846778"><ele>393.0</ele><time>2026-03-28T10:49:00.999Z</time></trkpt><trkpt lat="43.52872535511153" lon="11.30383834527783"><ele>389.0</ele><time>2026-03-28T10:49:01.999Z</time></trkpt><trkpt lat="43.52886599096279" lon="11.303847983683069"><ele>385.0</ele><time>2026-03-28T10:49:02.999Z</time></trkpt><trkpt lat="43.52902734125314" lon="11.303866962731655"><ele>391.0</ele><time>2026-03-28T10:49:03.999Z</time></trkpt><trkpt lat="43.52919798470395" lon="11.30392378219851"><ele>397.0</ele><time>2026-03-28T10:49:04.999Z</time></trkpt><trkpt lat="43.52937077674844" lon="11.303957193804253"><ele>403.0</ele><time>2026-03-28T10:49:05.999Z</time></trkpt><trkpt lat="43.52954778250242" lon="11.30397728444158"><ele>404.33333333333337</ele><time>2026-03-28T10:49:06.999Z</time></trkpt><trkpt lat="43.52972526909407" lon="11.30397692067265"><ele>405.66666666666663</ele><time>2026-03-28T10:49:07.999Z</time></trkpt><trkpt lat="43.529890798867896" lon="11.303937906674498"><ele>407.0</ele><time>2026-03-28T10:49:08.999Z</time></trkpt><trkpt lat="43.5300573029989" lon="11.303873524989548"><ele>401.0</ele><time>2026-03-28T10:49:09.999Z</time></trkpt><trkpt lat="43.53023484403404" lon="11.303851444171773"><ele>395.0</ele><time>2026-03-28T10:49:10.999Z</time></trkpt><trkpt lat="43.530428043905346" lon="11.30386704027593"><ele>389.0</ele><time>2026-03-28T10:49:11.999Z</time></trkpt><trkpt lat="43.5306206604509" lon="11.3038847323559"><ele>389.0</ele><time>2026-03-28T10:49:13Z</time></trkpt><trkpt lat="43.53078951033045" lon="11.303908772711832"><ele>389.0</ele><time>2026-03-28T10:49:14Z</time></trkpt><trkpt lat="43.53096310757964" lon="11.303965931104791"><ele>389.0</ele><time>2026-03-28T10:49:15Z</time></trkpt><trkpt lat="43.531145531838554" lon="11.304074642401627"><ele>393.0</ele><time>2026-03-28T10:49:16Z</time></trkpt><trkpt lat="43.53132262515452" lon="11.304199559462509"><ele>397.0</ele><time>2026-03-28T10:49:17Z</time></trkpt><trkpt lat="43.531476685001905" lon="11.30433896525517"><ele>401.0</ele><time>2026-03-28T10:49:18Z</time></trkpt><trkpt lat="43.531607975964576" lon="11.304471824612417"><ele>401.0</ele><time>2026-03-28T10:49:19Z</time></trkpt><trkpt lat="43.53171094133393" lon="11.304605363092946"><ele>401.0</ele><time>2026-03-28T10:49:20Z</time></trkpt><trkpt lat="43.531789236269816" lon="11.304757690222193"><ele>401.0</ele><time>2026-03-28T10:49:21Z</time></trkpt><trkpt lat="43.531834912449945" lon="11.304940163302076"><ele>401.0</ele><time>2026-03-28T10:49:22Z</time></trkpt><trkpt lat="43.531840866389395" lon="11.305155767236645"><ele>405.66666666666663</ele><time>2026-03-28T10:49:23Z</time></trkpt><trkpt lat="43.531818768844566" lon="11.305416488753988"><ele>410.33333333333337</ele><time>2026-03-28T10:49:24Z</time></trkpt><trkpt lat="43.53179926243002" lon="11.305701134124497"><ele>415.0</ele><time>2026-03-28T10:49:25Z</time></trkpt><trkpt lat="43.5317887722474" lon="11.305990389602412"><ele>416.6666666666667</ele><time>2026-03-28T10:49:26Z</time></trkpt><trkpt lat="43.531793017769495" lon="11.30627368499318"><ele>418.33333333333337</ele><time>2026-03-28T10:49:27Z</time></trkpt><trkpt lat="43.53183615160336" lon="11.30653957365009"><ele>420.0</ele><time>2026-03-28T10:49:28Z</time></trkpt><trkpt lat="43.531933582091334" lon="11.306804624705974"><ele>415.5</ele><time>2026-03-28T10:49:29Z</time></trkpt><trkpt lat="43.53207046809999" lon="11.307062152110435"><ele>411.0</ele><time>2026-03-28T10:49:30Z</time></trkpt><trkpt lat="43.53221065374256" lon="11.307311340535486"><ele>411.0</ele><time>2026-03-28T10:49:31Z</time></trkpt><trkpt lat="43.532320931699736" lon="11.307565108159139"><ele>411.0</ele><time>2026-03-28T10:49:32Z</time></trkpt><trkpt lat="43.53238979607965" lon="11.307844821220119"><ele>411.0</ele><time>2026-03-28T10:49:33Z</time></trkpt><trkpt lat="43.532463487236136" lon="11.308150711631251"><ele>413.33333333333337</ele><time>2026-03-28T10:49:34Z</time></trkpt><trkpt lat="43.532513327656325" lon="11.308446117311655"><ele>415.6666666666667</ele><time>2026-03-28T10:49:35Z</time></trkpt><trkpt lat="43.53257733493689" lon="11.3087064816818"><ele>418.0</ele><time>2026-03-28T10:49:36Z</time></trkpt><trkpt lat="43.53267262685341" lon="11.308898480665622"><ele>418.0</ele><time>2026-03-28T10:49:37Z</time></trkpt><trkpt lat="43.53282802619672" lon="11.30906842328252"><ele>418.0</ele><time>2026-03-28T10:49:38Z</time></trkpt><trkpt lat="43.53302473269529" lon="11.309209544110304"><ele>418.0</ele><time>2026-03-28T10:49:39Z</time></trkpt><trkpt lat="43.533214858795894" lon="11.309351469389611"><ele>418.0</ele><time>2026-03-28T10:49:40Z</time></trkpt><trkpt lat="43.533407359281576" lon="11.309522698430689"><ele>418.0</ele><time>2026-03-28T10:49:41Z</time></trkpt><trkpt lat="43.53360288000776" lon="11.309703141088596"><ele>418.0</ele><time>2026-03-28T10:49:42Z</time></trkpt><trkpt lat="43.5337816623921" lon="11.30986496257364"><ele>418.0</ele><time>2026-03-28T10:49:43Z</time></trkpt><trkpt lat="43.53394248862261" lon="11.310013556173798"><ele>418.0</ele><time>2026-03-28T10:49:44Z</time></trkpt><trkpt lat="43.53408161700393" lon="11.310156676913742"><ele>418.0</ele><time>2026-03-28T10:49:45Z</time></trkpt><trkpt lat="43.534197307409876" lon="11.31030595090025"><ele>418.0</ele><time>2026-03-28T10:49:46Z</time></trkpt><trkpt lat="43.53428882442419" lon="11.310484626268364"><ele>418.0</ele><time>2026-03-28T10:49:47Z</time></trkpt><trkpt lat="43.534351362268104" lon="11.310704077045244"><ele>421.33333333333337</ele><time>2026-03-28T10:49:48Z</time></trkpt><trkpt lat="43.53438110486935" lon="11.31096424707499"><ele>424.66666666666663</ele><time>2026-03-28T10:49:49Z</time></trkpt><trkpt lat="43.534394663645415" lon="11.311243418913472"><ele>428.0</ele><time>2026-03-28T10:49:50Z</time></trkpt><trkpt lat="43.534429745250755" lon="11.311523732119253"><ele>429.66666666666663</ele><time>2026-03-28T10:49:51Z</time></trkpt><trkpt lat="43.53450293740648" lon="11.311789470043314"><ele>431.33333333333337</ele><time>2026-03-28T10:49:52Z</time></trkpt><trkpt lat="43.534628057680976" lon="11.312030568154539"><ele>433.0</ele><time>2026-03-28T10:49:53Z</time></trkpt><trkpt lat="43.53479177319296" lon="11.31224620852857"><ele>433.0</ele><time>2026-03-28T10:49:54Z</time></trkpt><trkpt lat="43.53495683519238" lon="11.312455317683442"><ele>433.0</ele><time>2026-03-28T10:49:55Z</time></trkpt><trkpt lat="43.535099827169255" lon="11.31265381670186"><ele>433.0</ele><time>2026-03-28T10:49:56Z</time></trkpt><trkpt lat="43.53523162358507" lon="11.312833522563869"><ele>433.0</ele><time>2026-03-28T10:49:57Z</time></trkpt><trkpt lat="43.535365872029814" lon="11.313008975720564"><ele>433.0</ele><time>2026-03-28T10:49:58Z</time></trkpt><trkpt lat="43.53550887610702" lon="11.313191082393962"><ele>433.0</ele><time>2026-03-28T10:49:59Z</time></trkpt><trkpt lat="43.53564558878399" lon="11.313374848195428"><ele>431.5</ele><time>2026-03-28T10:50:00Z</time></trkpt><trkpt lat="43.535765967282785" lon="11.313534882790142"><ele>430.0</ele><time>2026-03-28T10:50:01Z</time></trkpt><trkpt lat="43.53586495355252" lon="11.3136671092445"><ele>428.5</ele><time>2026-03-28T10:50:02Z</time></trkpt><trkpt lat="43.53595864207208" lon="11.31378683299432"><ele>427.0</ele><time>2026-03-28T10:50:03Z</time></trkpt><trkpt lat="43.53604612260317" lon="11.313899280116907"><ele>427.8</ele><time>2026-03-28T10:50:04Z</time></trkpt><trkpt lat="43.53612164019111" lon="11.314006313031133"><ele>428.6</ele><time>2026-03-28T10:50:05Z</time></trkpt><trkpt lat="43.536189872233415" lon="11.314106246320993"><ele>429.40000000000003</ele><time>2026-03-28T10:50:06Z</time></trkpt><trkpt lat="43.53625140031333" lon="11.31421123417468"><ele>430.20000000000005</ele><time>2026-03-28T10:50:07Z</time></trkpt><trkpt lat="43.536308914626176" lon="11.314334150553993"><ele>431.0</ele><time>2026-03-28T10:50:08Z</time></trkpt><trkpt lat="43.53635591178431" lon="11.314467292056143"><ele>431.0</ele><time>2026-03-28T10:50:09Z</time></trkpt><trkpt lat="43.536398650958716" lon="11.314588688588328"><ele>431.0</ele><time>2026-03-28T10:50:10Z</time></trkpt><trkpt lat="43.53643837006733" lon="11.314697591401561"><ele>431.0</ele><time>2026-03-28T10:50:11Z</time></trkpt><trkpt lat="43.536483152905696" lon="11.314815860890844"><ele>431.0</ele><time>2026-03-28T10:50:12Z</time></trkpt><trkpt lat="43.53653260063232" lon="11.314915771396793"><ele>431.0</ele><time>2026-03-28T10:50:13Z</time></trkpt><trkpt lat="43.53659282425717" lon="11.315008053598884"><ele>432.6</ele><time>2026-03-28T10:50:14Z</time></trkpt><trkpt lat="43.53666483600668" lon="11.315097465170222"><ele>434.20000000000005</ele><time>2026-03-28T10:50:15Z</time></trkpt><trkpt lat="43.53675109711503" lon="11.315180840254188"><ele>435.79999999999995</ele><time>2026-03-28T10:50:16Z</time></trkpt><trkpt lat="43.536836291369575" lon="11.315265882697842"><ele>437.4</ele><time>2026-03-28T10:50:17Z</time></trkpt><trkpt lat="43.536923892177555" lon="11.315359807858977"><ele>439.0</ele><time>2026-03-28T10:50:18Z</time></trkpt><trkpt lat="43.537008464776896" lon="11.315476761172976"><ele>438.5</ele><time>2026-03-28T10:50:19Z</time></trkpt><trkpt lat="43.537088592527674" lon="11.315625915474772"><ele>438.0</ele><time>2026-03-28T10:50:20Z</time></trkpt><trkpt lat="43.53716547871424" lon="11.31578561926404"><ele>437.5</ele><time>2026-03-28T10:50:21Z</time></trkpt><trkpt lat="43.53724402689563" lon="11.31595873003899"><ele>437.0</ele><time>2026-03-28T10:50:22Z</time></trkpt><trkpt lat="43.53732973699508" lon="11.316145416328661"><ele>437.0</ele><time>2026-03-28T10:50:23Z</time></trkpt><trkpt lat="43.537429772055866" lon="11.316319539864693"><ele>437.0</ele><time>2026-03-28T10:50:24Z</time></trkpt><trkpt lat="43.537558276799935" lon="11.316476357531876"><ele>437.0</ele><time>2026-03-28T10:50:25Z</time></trkpt><trkpt lat="43.53770558087431" lon="11.316598393352505"><ele>439.3333333333333</ele><time>2026-03-28T10:50:26Z</time></trkpt><trkpt lat="43.53787963128064" lon="11.316693523569036"><ele>441.66666666666663</ele><time>2026-03-28T10:50:27Z</time></trkpt><trkpt lat="43.53806580835812" lon="11.316760809728539"><ele>444.0</ele><time>2026-03-28T10:50:28Z</time></trkpt><trkpt lat="43.53826258630246" lon="11.316832072676764"><ele>444.0</ele><time>2026-03-28T10:50:29Z</time></trkpt><trkpt lat="43.53846505693953" lon="11.316909659399046"><ele>444.0</ele><time>2026-03-28T10:50:30Z</time></trkpt><trkpt lat="43.53866757757479" lon="11.316993107149893"><ele>444.0</ele><time>2026-03-28T10:50:31Z</time></trkpt><trkpt lat="43.53886425729183" lon="11.317076691932188"><ele>443.66666666666663</ele><time>2026-03-28T10:50:32Z</time></trkpt><trkpt lat="43.539052885942" lon="11.317150155354327"><ele>443.3333333333333</ele><time>2026-03-28T10:50:33Z</time></trkpt><trkpt lat="43.53922052301076" lon="11.317216353977525"><ele>443.0</ele><time>2026-03-28T10:50:34Z</time></trkpt><trkpt lat="43.53937788168665" lon="11.317283112325088"><ele>448.0</ele><time>2026-03-28T10:50:35Z</time></trkpt><trkpt lat="43.53953244084827" lon="11.31734305354206"><ele>453.0</ele><time>2026-03-28T10:50:36Z</time></trkpt><trkpt lat="43.53969153865678" lon="11.317389751671032"><ele>458.0</ele><time>2026-03-28T10:50:37Z</time></trkpt><trkpt lat="43.53985819574568" lon="11.317404459871446"><ele>458.66666666666663</ele><time>2026-03-28T10:50:38Z</time></trkpt><trkpt lat="43.540031901334565" lon="11.317355489172659"><ele>459.33333333333337</ele><time>2026-03-28T10:50:39Z</time></trkpt><trkpt lat="43.540209473777445" lon="11.31725661063705"><ele>460.0</ele><time>2026-03-28T10:50:40Z</time></trkpt><trkpt lat="43.540366011249375" lon="11.317148390044792"><ele>458.25</ele><time>2026-03-28T10:50:41Z</time></trkpt><trkpt lat="43.54049521609898" lon="11.317053675998089"><ele>456.5</ele><time>2026-03-28T10:50:42Z</time></trkpt><trkpt lat="43.54062228519289" lon="11.316978851758892"><ele>454.75</ele><time>2026-03-28T10:50:43Z</time></trkpt><trkpt lat="43.540741020758645" lon="11.316930416361162"><ele>453.0</ele><time>2026-03-28T10:50:44Z</time></trkpt><trkpt lat="43.54086886361429" lon="11.316921567909077"><ele>453.0</ele><time>2026-03-28T10:50:45Z</time></trkpt><trkpt lat="43.54101875465321" lon="11.316951197240902"><ele>453.0</ele><time>2026-03-28T10:50:46Z</time></trkpt><trkpt lat="43.54119120731228" lon="11.317007124722759"><ele>453.0</ele><time>2026-03-28T10:50:47Z</time></trkpt><trkpt lat="43.54136604968697" lon="11.317071291305094"><ele>453.66666666666663</ele><time>2026-03-28T10:50:48Z</time></trkpt><trkpt lat="43.54153231916183" lon="11.317128167964563"><ele>454.3333333333333</ele><time>2026-03-28T10:50:49Z</time></trkpt><trkpt lat="43.541679352638766" lon="11.317181338707453"><ele>455.0</ele><time>2026-03-28T10:50:50Z</time></trkpt><trkpt lat="43.54181679062105" lon="11.317227171137027"><ele>458.5</ele><time>2026-03-28T10:50:51Z</time></trkpt><trkpt lat="43.54193959355884" lon="11.317262637019809"><ele>462.0</ele><time>2026-03-28T10:50:52Z</time></trkpt><trkpt lat="43.542059208207675" lon="11.317279530121422"><ele>465.5</ele><time>2026-03-28T10:50:53Z</time></trkpt><trkpt lat="43.54217818100115" lon="11.317245659553404"><ele>469.0</ele><time>2026-03-28T10:50:54Z</time></trkpt><trkpt lat="43.54229382389616" lon="11.31717328697183"><ele>469.0</ele><time>2026-03-28T10:50:55Z</time></trkpt><trkpt lat="43.542391341684805" lon="11.317080010246332"><ele>469.0</ele><time>2026-03-28T10:50:56Z</time></trkpt><trkpt lat="43.54247238695026" lon="11.316984281232367"><ele>469.0</ele><time>2026-03-28T10:50:57Z</time></trkpt><trkpt lat="43.542538084841254" lon="11.316887536439932"><ele>469.0</ele><time>2026-03-28T10:50:58Z</time></trkpt><trkpt lat="43.54260217096172" lon="11.316802857809456"><ele>469.0</ele><time>2026-03-28T10:50:59Z</time></trkpt><trkpt lat="43.54268587145279" lon="11.316723811145586"><ele>469.0</ele><time>2026-03-28T10:51:00Z</time></trkpt><trkpt lat="43.542790801297436" lon="11.316662211351252"><ele>469.0</ele><time>2026-03-28T10:51:01Z</time></trkpt><trkpt lat="43.54291450568609" lon="11.316640824396998"><ele>469.0</ele><time>2026-03-28T10:51:02Z</time></trkpt><trkpt lat="43.54304034639086" lon="11.316589271064379"><ele>469.0</ele><time>2026-03-28T10:51:03Z</time></trkpt><trkpt lat="43.54318745483134" lon="11.316559706431649"><ele>472.0</ele><time>2026-03-28T10:51:04Z</time></trkpt><trkpt lat="43.54331408187302" lon="11.316519496088405"><ele>475.0</ele><time>2026-03-28T10:51:05Z</time></trkpt><trkpt lat="43.54343700130142" lon="11.316486385059749"><ele>478.0</ele><time>2026-03-28T10:51:06Z</time></trkpt><trkpt lat="43.54356032676866" lon="11.31645101961302"><ele>481.0</ele><time>2026-03-28T10:51:07Z</time></trkpt><trkpt lat="43.54367847832102" lon="11.316415281462358"><ele>478.8</ele><time>2026-03-28T10:51:08Z</time></trkpt><trkpt lat="43.54377773339889" lon="11.316377376268738"><ele>476.6</ele><time>2026-03-28T10:51:09Z</time></trkpt><trkpt lat="43.54387543033068" lon="11.316342208931513"><ele>474.4</ele><time>2026-03-28T10:51:10Z</time></trkpt><trkpt lat="43.54398032132089" lon="11.316314492388674"><ele>472.2</ele><time>2026-03-28T10:51:11Z</time></trkpt><trkpt lat="43.54409264321993" lon="11.316288789888572"><ele>470.0</ele><time>2026-03-28T10:51:12Z</time></trkpt><trkpt lat="43.54418965782736" lon="11.316261455528089"><ele>469.99999999999994</ele><time>2026-03-28T10:51:13Z</time></trkpt><trkpt lat="43.544293924150345" lon="11.316230209059357"><ele>470.0</ele><time>2026-03-28T10:51:14Z</time></trkpt><trkpt lat="43.54439819094842" lon="11.316197368168663"><ele>470.0</ele><time>2026-03-28T10:51:15Z</time></trkpt><trkpt lat="43.54448441726724" lon="11.316170905090074"><ele>470.0</ele><time>2026-03-28T10:51:16Z</time></trkpt><trkpt lat="43.5445484874794" lon="11.316159402467253"><ele>469.99999999999994</ele><time>2026-03-28T10:51:17Z</time></trkpt><trkpt lat="43.54462546776635" lon="11.31612894409138"><ele>470.0</ele><time>2026-03-28T10:51:19Z</time></trkpt><trkpt lat="43.54472573280557" lon="11.316097609667269"><ele>470.8333333333333</ele><time>2026-03-28T10:51:22Z</time></trkpt><trkpt lat="43.544833451250426" lon="11.316080143254029"><ele>471.66666666666663</ele><time>2026-03-28T10:51:24Z</time></trkpt><trkpt lat="43.544897773991195" lon="11.31608502996551"><ele>472.5</ele><time>2026-03-28T10:51:25Z</time></trkpt><trkpt lat="43.54495922475963" lon="11.31611516677626"><ele>473.33333333333337</ele><time>2026-03-28T10:51:26Z</time></trkpt><trkpt lat="43.54501238756979" lon="11.316176112499653"><ele>474.1666666666667</ele><time>2026-03-28T10:51:27Z</time></trkpt><trkpt lat="43.545061781326794" lon="11.31625556896491"><ele>475.0</ele><time>2026-03-28T10:51:28Z</time></trkpt><trkpt lat="43.5450823724432" lon="11.316344704471812"><ele>475.33333333333337</ele><time>2026-03-28T10:51:29Z</time></trkpt><trkpt lat="43.54509381653456" lon="11.316442358295046"><ele>475.6666666666667</ele><time>2026-03-28T10:51:30Z</time></trkpt><trkpt lat="43.54508689923559" lon="11.316559065149226"><ele>476.0</ele><time>2026-03-28T10:51:31Z</time></trkpt><trkpt lat="43.54507239360578" lon="11.316678657941127"><ele>476.33333333333337</ele><time>2026-03-28T10:51:32Z</time></trkpt><trkpt lat="43.545070987456754" lon="11.316800288226599"><ele>476.6666666666667</ele><time>2026-03-28T10:51:33Z</time></trkpt><trkpt lat="43.54506522931543" lon="11.316917100265485"><ele>477.0</ele><time>2026-03-28T10:51:34Z</time></trkpt><trkpt lat="43.54506607761633" lon="11.317048784221816"><ele>477.0</ele><time>2026-03-28T10:51:35Z</time></trkpt><trkpt lat="43.54508362856625" lon="11.317183307944502"><ele>477.00000000000006</ele><time>2026-03-28T10:51:36Z</time></trkpt><trkpt lat="43.5451171931418" lon="11.317324373243359"><ele>477.00000000000006</ele><time>2026-03-28T10:51:37Z</time></trkpt><trkpt lat="43.54517695707297" lon="11.317464417305347"><ele>477.0</ele><time>2026-03-28T10:51:38Z</time></trkpt><trkpt lat="43.54526033273451" lon="11.317590942535384"><ele>477.0</ele><time>2026-03-28T10:51:39Z</time></trkpt><trkpt lat="43.54537118713439" lon="11.317696098599889"><ele>474.33333333333337</ele><time>2026-03-28T10:51:40Z</time></trkpt><trkpt lat="43.54551536310531" lon="11.31775474826277"><ele>471.6666666666667</ele><time>2026-03-28T10:51:41Z</time></trkpt><trkpt lat="43.54567608599611" lon="11.31778305670242"><ele>469.0</ele><time>2026-03-28T10:51:42Z</time></trkpt><trkpt lat="43.545824448356754" lon="11.317786290313828"><ele>469.0</ele><time>2026-03-28T10:51:43Z</time></trkpt><trkpt lat="43.54595296778448" lon="11.317792415540591"><ele>469.0</ele><time>2026-03-28T10:51:44Z</time></trkpt><trkpt lat="43.54606471104097" lon="11.317805613972432"><ele>469.0</ele><time>2026-03-28T10:51:45Z</time></trkpt><trkpt lat="43.54617356645019" lon="11.317828605580095"><ele>469.0</ele><time>2026-03-28T10:51:46Z</time></trkpt><trkpt lat="43.546277080663856" lon="11.317860317333055"><ele>466.5</ele><time>2026-03-28T10:51:47Z</time></trkpt><trkpt lat="43.54637968945849" lon="11.317927783754635"><ele>464.0</ele><time>2026-03-28T10:51:48Z</time></trkpt><trkpt lat="43.54645674819987" lon="11.318057207230922"><ele>461.5</ele><time>2026-03-28T10:51:49Z</time></trkpt><trkpt lat="43.54650092149672" lon="11.318233092159623"><ele>459.0</ele><time>2026-03-28T10:51:50Z</time></trkpt><trkpt lat="43.54648237380963" lon="11.318426093133382"><ele>459.0</ele><time>2026-03-28T10:51:51Z</time></trkpt><trkpt lat="43.546477193162985" lon="11.318614712975513"><ele>459.0</ele><time>2026-03-28T10:51:52Z</time></trkpt><trkpt lat="43.54646543966194" lon="11.318789780975903"><ele>459.0</ele><time>2026-03-28T10:51:53Z</time></trkpt><trkpt lat="43.54648644610748" lon="11.31896778919148"><ele>459.0</ele><time>2026-03-28T10:51:54Z</time></trkpt><trkpt lat="43.5465369783173" lon="11.319146607304951"><ele>459.75</ele><time>2026-03-28T10:51:55Z</time></trkpt><trkpt lat="43.54661953759238" lon="11.319314030979651"><ele>460.5</ele><time>2026-03-28T10:51:56Z</time></trkpt><trkpt lat="43.54671561589582" lon="11.31945742506064"><ele>461.25</ele><time>2026-03-28T10:51:57Z</time></trkpt><trkpt lat="43.54683769831115" lon="11.319576645836692"><ele>462.0</ele><time>2026-03-28T10:51:58Z</time></trkpt><trkpt lat="43.54700294821078" lon="11.319681582479197"><ele>459.33333333333337</ele><time>2026-03-28T10:51:59Z</time></trkpt><trkpt lat="43.54718266285608" lon="11.319818795795022"><ele>456.6666666666667</ele><time>2026-03-28T10:52:00Z</time></trkpt><trkpt lat="43.54733138576456" lon="11.319955908145113"><ele>454.0</ele><time>2026-03-28T10:52:01Z</time></trkpt><trkpt lat="43.54745387342755" lon="11.320086950132618"><ele>454.0</ele><time>2026-03-28T10:52:02Z</time></trkpt><trkpt lat="43.54754410825121" lon="11.320225606259905"><ele>454.0</ele><time>2026-03-28T10:52:03Z</time></trkpt><trkpt lat="43.547599766936585" lon="11.320359984871573"><ele>454.0</ele><time>2026-03-28T10:52:04Z</time></trkpt><trkpt lat="43.54761328662988" lon="11.320508426481698"><ele>454.0</ele><time>2026-03-28T10:52:05Z</time></trkpt><trkpt lat="43.547567878859645" lon="11.32067678104606"><ele>454.75</ele><time>2026-03-28T10:52:06Z</time></trkpt><trkpt lat="43.5474689761903" lon="11.320808663805456"><ele>455.5</ele><time>2026-03-28T10:52:07Z</time></trkpt><trkpt lat="43.547335899567514" lon="11.320890174027257"><ele>456.25</ele><time>2026-03-28T10:52:08Z</time></trkpt><trkpt lat="43.54718893562534" lon="11.320913874822272"><ele>457.0</ele><time>2026-03-28T10:52:09Z</time></trkpt><trkpt lat="43.547002391826325" lon="11.320967498204212"><ele>457.0</ele><time>2026-03-28T10:52:10Z</time></trkpt><trkpt lat="43.54679039980412" lon="11.321070529671948"><ele>457.0</ele><time>2026-03-28T10:52:11Z</time></trkpt><trkpt lat="43.546627813661985" lon="11.321157428445861"><ele>457.0</ele><time>2026-03-28T10:52:12Z</time></trkpt><trkpt lat="43.54649164343769" lon="11.321238198144453"><ele>457.0</ele><time>2026-03-28T10:52:13Z</time></trkpt><trkpt lat="43.54629271276066" lon="11.321258516546093"><ele>457.0</ele><time>2026-03-28T10:52:14Z</time></trkpt><trkpt lat="43.54607398135168" lon="11.321247762024306"><ele>457.0</ele><time>2026-03-28T10:52:15Z</time></trkpt><trkpt lat="43.54584526436504" lon="11.321251307944248"><ele>456.5</ele><time>2026-03-28T10:52:16Z</time></trkpt><trkpt lat="43.54560053826298" lon="11.321264155597197"><ele>456.0</ele><time>2026-03-28T10:52:17Z</time></trkpt><trkpt lat="43.54535915744605" lon="11.321273605586242"><ele>454.0</ele><time>2026-03-28T10:52:18Z</time></trkpt><trkpt lat="43.54512513483413" lon="11.32128900027505"><ele>452.0</ele><time>2026-03-28T10:52:19Z</time></trkpt><trkpt lat="43.544908757638865" lon="11.321304354850781"><ele>452.0</ele><time>2026-03-28T10:52:20Z</time></trkpt><trkpt lat="43.54471481166025" lon="11.321314972027855"><ele>452.0</ele><time>2026-03-28T10:52:21Z</time></trkpt><trkpt lat="43.544542663584224" lon="11.321321742777545"><ele>452.0</ele><time>2026-03-28T10:52:22Z</time></trkpt><trkpt lat="43.544390747354505" lon="11.321327932314258"><ele>451.5</ele><time>2026-03-28T10:52:23Z</time></trkpt><trkpt lat="43.54425351085925" lon="11.321344575800648"><ele>451.0</ele><time>2026-03-28T10:52:24Z</time></trkpt><trkpt lat="43.54413454543398" lon="11.321398442495527"><ele>450.5</ele><time>2026-03-28T10:52:25Z</time></trkpt><trkpt lat="43.544049707339354" lon="11.32151834634195"><ele>450.0</ele><time>2026-03-28T10:52:26Z</time></trkpt><trkpt lat="43.54401161647122" lon="11.321682517720062"><ele>446.0</ele><time>2026-03-28T10:52:27Z</time></trkpt><trkpt lat="43.544018230507504" lon="11.321878165600642"><ele>442.0</ele><time>2026-03-28T10:52:28Z</time></trkpt><trkpt lat="43.544070899404076" lon="11.322088767476593"><ele>438.0</ele><time>2026-03-28T10:52:29Z</time></trkpt><trkpt lat="43.54415740852811" lon="11.322308794716884"><ele>437.0</ele><time>2026-03-28T10:52:30Z</time></trkpt><trkpt lat="43.5442658538901" lon="11.322553535477983"><ele>436.0</ele><time>2026-03-28T10:52:31Z</time></trkpt><trkpt lat="43.544364658606746" lon="11.322797940890894"><ele>435.0</ele><time>2026-03-28T10:52:32Z</time></trkpt><trkpt lat="43.544440391887456" lon="11.32301798142948"><ele>435.33333333333337</ele><time>2026-03-28T10:52:33Z</time></trkpt><trkpt lat="43.54450536436769" lon="11.32321230885577"><ele>435.6666666666667</ele><time>2026-03-28T10:52:34Z</time></trkpt><trkpt lat="43.54456333056803" lon="11.323408758591954"><ele>436.0</ele><time>2026-03-28T10:52:35Z</time></trkpt><trkpt lat="43.544602414750386" lon="11.323611131654545"><ele>433.6666666666667</ele><time>2026-03-28T10:52:36Z</time></trkpt><trkpt lat="43.54458003814675" lon="11.323824931891615"><ele>431.33333333333337</ele><time>2026-03-28T10:52:37Z</time></trkpt><trkpt lat="43.54453063660851" lon="11.32403194818"><ele>429.0</ele><time>2026-03-28T10:52:38Z</time></trkpt><trkpt lat="43.54443626441163" lon="11.324209875431947"><ele>429.0</ele><time>2026-03-28T10:52:39Z</time></trkpt><trkpt lat="43.54431729982852" lon="11.3243659580419"><ele>429.0</ele><time>2026-03-28T10:52:40Z</time></trkpt><trkpt lat="43.544212339635216" lon="11.324523558506282"><ele>429.0</ele><time>2026-03-28T10:52:41Z</time></trkpt><trkpt lat="43.544134737804285" lon="11.324705634948941"><ele>426.66666666666663</ele><time>2026-03-28T10:52:42Z</time></trkpt><trkpt lat="43.544113269678235" lon="11.324942933130426"><ele>424.3333333333333</ele><time>2026-03-28T10:52:43Z</time></trkpt><trkpt lat="43.544132765592174" lon="11.325223011677735"><ele>422.0</ele><time>2026-03-28T10:52:44Z</time></trkpt><trkpt lat="43.54416377246357" lon="11.325510027832527"><ele>421.3333333333333</ele><time>2026-03-28T10:52:45Z</time></trkpt><trkpt lat="43.54420092390089" lon="11.325805366296594"><ele>420.66666666666663</ele><time>2026-03-28T10:52:46Z</time></trkpt><trkpt lat="43.5442557982714" lon="11.32610683836747"><ele>420.0</ele><time>2026-03-28T10:52:47Z</time></trkpt><trkpt lat="43.54430733927508" lon="11.32638540659003"><ele>421.33333333333337</ele><time>2026-03-28T10:52:48Z</time></trkpt><trkpt lat="43.54434047570143" lon="11.326643354919637"><ele>422.6666666666667</ele><time>2026-03-28T10:52:49Z</time></trkpt><trkpt lat="43.54436856751637" lon="11.32684983245655"><ele>424.0</ele><time>2026-03-28T10:52:50Z</time></trkpt><trkpt lat="43.544416484435686" lon="11.327027019475787"><ele>424.0</ele><time>2026-03-28T10:52:51Z</time></trkpt><trkpt lat="43.544507226901025" lon="11.327161606061242"><ele>424.0</ele><time>2026-03-28T10:52:52Z</time></trkpt><trkpt lat="43.54463398812682" lon="11.3272326094736"><ele>424.0</ele><time>2026-03-28T10:52:53Z</time></trkpt><trkpt lat="43.544780654668806" lon="11.327244211533255"><ele>424.0</ele><time>2026-03-28T10:52:54Z</time></trkpt><trkpt lat="43.544923664552975" lon="11.327183606000048"><ele>420.0</ele><time>2026-03-28T10:52:55Z</time></trkpt><trkpt lat="43.545064956223015" lon="11.32704858776177"><ele>416.0</ele><time>2026-03-28T10:52:56Z</time></trkpt><trkpt lat="43.54519711335923" lon="11.326853056225376"><ele>412.0</ele><time>2026-03-28T10:52:57Z</time></trkpt><trkpt lat="43.54532517663382" lon="11.326620954994327"><ele>410.33333333333337</ele><time>2026-03-28T10:52:58Z</time></trkpt><trkpt lat="43.545453210463975" lon="11.326393190516653"><ele>408.66666666666663</ele><time>2026-03-28T10:52:59Z</time></trkpt><trkpt lat="43.54557334417149" lon="11.32616434120229"><ele>407.0</ele><time>2026-03-28T10:53:00Z</time></trkpt><trkpt lat="43.54567618027512" lon="11.32589990458805"><ele>407.0</ele><time>2026-03-28T10:53:01Z</time></trkpt><trkpt lat="43.54575781478532" lon="11.325604223718319"><ele>407.0</ele><time>2026-03-28T10:53:02Z</time></trkpt><trkpt lat="43.54584033000149" lon="11.325298568313128"><ele>406.3333333333333</ele><time>2026-03-28T10:53:03Z</time></trkpt><trkpt lat="43.54592568861806" lon="11.325018282271298"><ele>405.66666666666663</ele><time>2026-03-28T10:53:04Z</time></trkpt><trkpt lat="43.54600461732454" lon="11.324756042199926"><ele>405.0</ele><time>2026-03-28T10:53:05Z</time></trkpt><trkpt lat="43.54606972287528" lon="11.32451859013751"><ele>403.66666666666663</ele><time>2026-03-28T10:53:06Z</time></trkpt><trkpt lat="43.54615010931706" lon="11.324298275077577"><ele>402.3333333333333</ele><time>2026-03-28T10:53:07Z</time></trkpt><trkpt lat="43.54621011865064" lon="11.32409990814644"><ele>401.0</ele><time>2026-03-28T10:53:08Z</time></trkpt><trkpt lat="43.546257015673476" lon="11.323915962531263"><ele>401.66666666666663</ele><time>2026-03-28T10:53:09Z</time></trkpt><trkpt lat="43.54635437538378" lon="11.32378083715995"><ele>402.33333333333337</ele><time>2026-03-28T10:53:10Z</time></trkpt><trkpt lat="43.546484568176204" lon="11.323689492455864"><ele>403.0</ele><time>2026-03-28T10:53:11Z</time></trkpt><trkpt lat="43.546652135129854" lon="11.323638572786436"><ele>403.0</ele><time>2026-03-28T10:53:12.001Z</time></trkpt><trkpt lat="43.54684802574308" lon="11.323609522673411"><ele>403.0</ele><time>2026-03-28T10:53:13.001Z</time></trkpt><trkpt lat="43.547064768336554" lon="11.323571266337195"><ele>403.0</ele><time>2026-03-28T10:53:14.001Z</time></trkpt><trkpt lat="43.547296408576116" lon="11.3235159548618"><ele>399.0</ele><time>2026-03-28T10:53:15.001Z</time></trkpt><trkpt lat="43.54753718221446" lon="11.323462319511965"><ele>395.0</ele><time>2026-03-28T10:53:16.001Z</time></trkpt><trkpt lat="43.54778117220494" lon="11.323408627375954"><ele>392.0</ele><time>2026-03-28T10:53:17.001Z</time></trkpt><trkpt lat="43.54803461952933" lon="11.32334471872273"><ele>389.0</ele><time>2026-03-28T10:53:18.001Z</time></trkpt><trkpt lat="43.54829457459128" lon="11.323277219229565"><ele>389.0</ele><time>2026-03-28T10:53:19.001Z</time></trkpt><trkpt lat="43.54854713350969" lon="11.323215909604047"><ele>389.0</ele><time>2026-03-28T10:53:20.001Z</time></trkpt><trkpt lat="43.548771543722935" lon="11.323161825069826"><ele>386.66666666666663</ele><time>2026-03-28T10:53:21.001Z</time></trkpt><trkpt lat="43.54898065359164" lon="11.3231059253797"><ele>384.3333333333333</ele><time>2026-03-28T10:53:22.001Z</time></trkpt><trkpt lat="43.549176526734364" lon="11.32304449252542"><ele>382.0</ele><time>2026-03-28T10:53:23Z</time></trkpt><trkpt lat="43.54934890905583" lon="11.323006254913297"><ele>386.3333333333333</ele><time>2026-03-28T10:53:24Z</time></trkpt><trkpt lat="43.54951644906593" lon="11.322959855701761"><ele>390.66666666666663</ele><time>2026-03-28T10:53:25Z</time></trkpt><trkpt lat="43.54968102072041" lon="11.322926140447631"><ele>395.0</ele><time>2026-03-28T10:53:26Z</time></trkpt><trkpt lat="43.54984813584509" lon="11.322943818086804"><ele>395.0</ele><time>2026-03-28T10:53:27Z</time></trkpt><trkpt lat="43.55001995661977" lon="11.323017811914777"><ele>395.0</ele><time>2026-03-28T10:53:28Z</time></trkpt><trkpt lat="43.55018016489915" lon="11.323143968105366"><ele>395.0</ele><time>2026-03-28T10:53:29Z</time></trkpt><trkpt lat="43.55032115434687" lon="11.323315440022327"><ele>395.0</ele><time>2026-03-28T10:53:30Z</time></trkpt><trkpt lat="43.5504486605734" lon="11.323511701053539"><ele>395.0</ele><time>2026-03-28T10:53:31Z</time></trkpt><trkpt lat="43.550573987037886" lon="11.323685687161927"><ele>395.0</ele><time>2026-03-28T10:53:32Z</time></trkpt><trkpt lat="43.55071870006927" lon="11.323820625932925"><ele>389.66666666666663</ele><time>2026-03-28T10:53:33Z</time></trkpt><trkpt lat="43.55089687458062" lon="11.32390766867084"><ele>384.3333333333333</ele><time>2026-03-28T10:53:34Z</time></trkpt><trkpt lat="43.55110949471837" lon="11.323991457335561"><ele>379.0</ele><time>2026-03-28T10:53:35Z</time></trkpt><trkpt lat="43.55132053796928" lon="11.324072767650595"><ele>379.0</ele><time>2026-03-28T10:53:36Z</time></trkpt><trkpt lat="43.55152685097771" lon="11.324156577332005"><ele>379.0</ele><time>2026-03-28T10:53:37Z</time></trkpt><trkpt lat="43.55171645945487" lon="11.324224580918077"><ele>379.0</ele><time>2026-03-28T10:53:38Z</time></trkpt><trkpt lat="43.55190648323276" lon="11.324254943714857"><ele>378.3333333333333</ele><time>2026-03-28T10:53:39Z</time></trkpt><trkpt lat="43.5521164026073" lon="11.324235100174345"><ele>377.6666666666667</ele><time>2026-03-28T10:53:40Z</time></trkpt><trkpt lat="43.552328292015986" lon="11.324205151595596"><ele>377.0</ele><time>2026-03-28T10:53:41Z</time></trkpt><trkpt lat="43.55252240590145" lon="11.32417871855769"><ele>377.0</ele><time>2026-03-28T10:53:42Z</time></trkpt><trkpt lat="43.55269221916915" lon="11.32416314041633"><ele>377.0</ele><time>2026-03-28T10:53:43Z</time></trkpt><trkpt lat="43.55284662269585" lon="11.324173177206"><ele>377.0</ele><time>2026-03-28T10:53:44Z</time></trkpt><trkpt lat="43.55299396291057" lon="11.324216465980513"><ele>378.0</ele><time>2026-03-28T10:53:45Z</time></trkpt><trkpt lat="43.55312126588876" lon="11.324317401531614"><ele>379.0</ele><time>2026-03-28T10:53:46Z</time></trkpt><trkpt lat="43.55321397176989" lon="11.32447262072949"><ele>380.0</ele><time>2026-03-28T10:53:47Z</time></trkpt><trkpt lat="43.55325895001741" lon="11.324656930475854"><ele>381.0</ele><time>2026-03-28T10:53:48Z</time></trkpt><trkpt lat="43.553280429800814" lon="11.32484946385339"><ele>378.20000000000005</ele><time>2026-03-28T10:53:49Z</time></trkpt><trkpt lat="43.55329767058698" lon="11.325020101248636"><ele>375.40000000000003</ele><time>2026-03-28T10:53:50Z</time></trkpt><trkpt lat="43.55333059968355" lon="11.325173212543076"><ele>372.6</ele><time>2026-03-28T10:53:51Z</time></trkpt><trkpt lat="43.553372375963704" lon="11.325292087549546"><ele>369.8</ele><time>2026-03-28T10:53:52Z</time></trkpt><trkpt lat="43.553432974918096" lon="11.325378315846438"><ele>367.0</ele><time>2026-03-28T10:53:53Z</time></trkpt><trkpt lat="43.55351386245179" lon="11.325430187441563"><ele>367.0</ele><time>2026-03-28T10:53:54Z</time></trkpt><trkpt lat="43.55361487821998" lon="11.325441703073622"><ele>367.0</ele><time>2026-03-28T10:53:55Z</time></trkpt><trkpt lat="43.55372005735078" lon="11.32539908638521"><ele>367.0</ele><time>2026-03-28T10:53:56Z</time></trkpt><trkpt lat="43.55381724281556" lon="11.325323222643883"><ele>367.0</ele><time>2026-03-28T10:53:57Z</time></trkpt><trkpt lat="43.553907337885846" lon="11.325251960285657"><ele>367.0</ele><time>2026-03-28T10:53:58Z</time></trkpt><trkpt lat="43.55399163946563" lon="11.325166636623376"><ele>366.5</ele><time>2026-03-28T10:53:59Z</time></trkpt><trkpt lat="43.554077242010536" lon="11.32507187290966"><ele>366.0</ele><time>2026-03-28T10:54:00Z</time></trkpt><trkpt lat="43.554167447965895" lon="11.324958809343954"><ele>365.5</ele><time>2026-03-28T10:54:01Z</time></trkpt><trkpt lat="43.55427545912531" lon="11.324855212767961"><ele>365.0</ele><time>2026-03-28T10:54:02Z</time></trkpt><trkpt lat="43.55438131454937" lon="11.324727963682504"><ele>365.0</ele><time>2026-03-28T10:54:03Z</time></trkpt><trkpt lat="43.554475322073195" lon="11.324623940267445"><ele>365.0</ele><time>2026-03-28T10:54:04Z</time></trkpt><trkpt lat="43.55456326143389" lon="11.324533011452973"><ele>365.0</ele><time>2026-03-28T10:54:05Z</time></trkpt><trkpt lat="43.55468288484009" lon="11.324495511564868"><ele>365.0</ele><time>2026-03-28T10:54:06Z</time></trkpt><trkpt lat="43.55481017036165" lon="11.32452921185931"><ele>365.0</ele><time>2026-03-28T10:54:07Z</time></trkpt><trkpt lat="43.55497834011215" lon="11.324567081844085"><ele>365.0</ele><time>2026-03-28T10:54:08Z</time></trkpt><trkpt lat="43.555133498342606" lon="11.32465584333371"><ele>365.0</ele><time>2026-03-28T10:54:09Z</time></trkpt><trkpt lat="43.555265537643166" lon="11.324716650061408"><ele>360.6666666666667</ele><time>2026-03-28T10:54:10Z</time></trkpt><trkpt lat="43.55542356204101" lon="11.32472216257536"><ele>356.3333333333333</ele><time>2026-03-28T10:54:11Z</time></trkpt><trkpt lat="43.555574958465684" lon="11.324648931040628"><ele>352.0</ele><time>2026-03-28T10:54:12Z</time></trkpt><trkpt lat="43.55573505416734" lon="11.324521951455917"><ele>352.0</ele><time>2026-03-28T10:54:13Z</time></trkpt><trkpt lat="43.55589821000376" lon="11.32436559576133"><ele>352.0</ele><time>2026-03-28T10:54:14Z</time></trkpt><trkpt lat="43.55607528361422" lon="11.32420121978563"><ele>352.0</ele><time>2026-03-28T10:54:15Z</time></trkpt><trkpt lat="43.556258498399785" lon="11.324047917848048"><ele>350.66666666666663</ele><time>2026-03-28T10:54:16Z</time></trkpt><trkpt lat="43.55644071005817" lon="11.323906109022488"><ele>349.3333333333333</ele><time>2026-03-28T10:54:17Z</time></trkpt><trkpt lat="43.55663775109334" lon="11.323734566043099"><ele>348.0</ele><time>2026-03-28T10:54:18Z</time></trkpt><trkpt lat="43.55681937539123" lon="11.32357009094941"><ele>348.0</ele><time>2026-03-28T10:54:19Z</time></trkpt><trkpt lat="43.556989322691464" lon="11.323415120881455"><ele>348.0</ele><time>2026-03-28T10:54:20Z</time></trkpt><trkpt lat="43.55714313096818" lon="11.323251537456086"><ele>348.0</ele><time>2026-03-28T10:54:21Z</time></trkpt><trkpt lat="43.557266247470864" lon="11.323074711318057"><ele>348.3333333333333</ele><time>2026-03-28T10:54:22Z</time></trkpt><trkpt lat="43.55740164900384" lon="11.322920457577133"><ele>348.66666666666663</ele><time>2026-03-28T10:54:23Z</time></trkpt><trkpt lat="43.557593187797316" lon="11.322861240274532"><ele>349.0</ele><time>2026-03-28T10:54:24Z</time></trkpt><trkpt lat="43.55780890814233" lon="11.322789684741142"><ele>343.5</ele><time>2026-03-28T10:54:25Z</time></trkpt><trkpt lat="43.55803631921387" lon="11.322706413834561"><ele>338.0</ele><time>2026-03-28T10:54:26Z</time></trkpt><trkpt lat="43.558276452243874" lon="11.322629445278228"><ele>338.0</ele><time>2026-03-28T10:54:27Z</time></trkpt><trkpt lat="43.55848942341964" lon="11.32256315142524"><ele>338.0</ele><time>2026-03-28T10:54:28Z</time></trkpt><trkpt lat="43.55867183035688" lon="11.322495307225429"><ele>338.0</ele><time>2026-03-28T10:54:29Z</time></trkpt><trkpt lat="43.55883416864833" lon="11.322441897970844"><ele>336.75</ele><time>2026-03-28T10:54:30Z</time></trkpt><trkpt lat="43.55898075897608" lon="11.32240611479696"><ele>335.5</ele><time>2026-03-28T10:54:31Z</time></trkpt><trkpt lat="43.55912477592538" lon="11.322441186277466"><ele>334.25</ele><time>2026-03-28T10:54:32Z</time></trkpt><trkpt lat="43.55923886412211" lon="11.322524507145946"><ele>333.0</ele><time>2026-03-28T10:54:33Z</time></trkpt><trkpt lat="43.559315341472285" lon="11.322655206112637"><ele>333.0</ele><time>2026-03-28T10:54:34Z</time></trkpt><trkpt lat="43.5593654439128" lon="11.322821826021626"><ele>333.0</ele><time>2026-03-28T10:54:35Z</time></trkpt><trkpt lat="43.559433250179836" lon="11.323039648362142"><ele>333.0</ele><time>2026-03-28T10:54:36Z</time></trkpt><trkpt lat="43.55951781031713" lon="11.323278272147848"><ele>331.3333333333333</ele><time>2026-03-28T10:54:37Z</time></trkpt><trkpt lat="43.55963678795705" lon="11.323492886285054"><ele>329.66666666666663</ele><time>2026-03-28T10:54:38Z</time></trkpt><trkpt lat="43.55981219077477" lon="11.323675636835965"><ele>328.0</ele><time>2026-03-28T10:54:39Z</time></trkpt><trkpt lat="43.56000975179302" lon="11.323855826031608"><ele>326.0</ele><time>2026-03-28T10:54:40Z</time></trkpt><trkpt lat="43.56019618894908" lon="11.324033958260161"><ele>324.0</ele><time>2026-03-28T10:54:41Z</time></trkpt><trkpt lat="43.560371127542616" lon="11.324194692908568"><ele>322.0</ele><time>2026-03-28T10:54:42Z</time></trkpt><trkpt lat="43.56056853516754" lon="11.324313323353056"><ele>322.0</ele><time>2026-03-28T10:54:43Z</time></trkpt><trkpt lat="43.56078316800831" lon="11.32440197378696"><ele>322.0</ele><time>2026-03-28T10:54:44Z</time></trkpt><trkpt lat="43.560997944847074" lon="11.324448941431537"><ele>322.0</ele><time>2026-03-28T10:54:45Z</time></trkpt><trkpt lat="43.56120607948387" lon="11.324470075908266"><ele>320.0</ele><time>2026-03-28T10:54:46Z</time></trkpt><trkpt lat="43.56142150582559" lon="11.324458769911637"><ele>318.0</ele><time>2026-03-28T10:54:47Z</time></trkpt><trkpt lat="43.5616462838972" lon="11.32439411314268"><ele>316.0</ele><time>2026-03-28T10:54:48Z</time></trkpt><trkpt lat="43.56187505702325" lon="11.32430926757011"><ele>309.5</ele><time>2026-03-28T10:54:49Z</time></trkpt><trkpt lat="43.562097846351854" lon="11.324181676590843"><ele>303.0</ele><time>2026-03-28T10:54:50Z</time></trkpt><trkpt lat="43.562292545973364" lon="11.324018623339942"><ele>304.3333333333333</ele><time>2026-03-28T10:54:51Z</time></trkpt><trkpt lat="43.5624760925008" lon="11.32387856441071"><ele>305.66666666666663</ele><time>2026-03-28T10:54:52Z</time></trkpt><trkpt lat="43.56267723707463" lon="11.323849813488309"><ele>307.0</ele><time>2026-03-28T10:54:53Z</time></trkpt><trkpt lat="43.562900973217985" lon="11.323820278043021"><ele>307.0</ele><time>2026-03-28T10:54:54Z</time></trkpt><trkpt lat="43.563094953314874" lon="11.32374211110466"><ele>307.0</ele><time>2026-03-28T10:54:55Z</time></trkpt><trkpt lat="43.56330078674289" lon="11.323595761003245"><ele>307.0</ele><time>2026-03-28T10:54:56Z</time></trkpt><trkpt lat="43.56349290043899" lon="11.323431712187892"><ele>307.0</ele><time>2026-03-28T10:54:57Z</time></trkpt><trkpt lat="43.563675113595" lon="11.323284566847454"><ele>307.0</ele><time>2026-03-28T10:54:58Z</time></trkpt><trkpt lat="43.56387459164527" lon="11.32319986585847"><ele>307.0</ele><time>2026-03-28T10:54:59Z</time></trkpt><trkpt lat="43.564082525795435" lon="11.323173990978379"><ele>303.3333333333333</ele><time>2026-03-28T10:55:00Z</time></trkpt><trkpt lat="43.56427819873717" lon="11.323161522868816"><ele>299.6666666666667</ele><time>2026-03-28T10:55:01Z</time></trkpt><trkpt lat="43.56447203122575" lon="11.32311912423936"><ele>296.0</ele><time>2026-03-28T10:55:02Z</time></trkpt><trkpt lat="43.56464560677994" lon="11.323039654807769"><ele>295.6666666666667</ele><time>2026-03-28T10:55:03Z</time></trkpt><trkpt lat="43.56480413695897" lon="11.322897186317833"><ele>295.3333333333333</ele><time>2026-03-28T10:55:04Z</time></trkpt><trkpt lat="43.56493096208652" lon="11.322743591772147"><ele>295.0</ele><time>2026-03-28T10:55:05Z</time></trkpt><trkpt lat="43.56507680244965" lon="11.322648081454766"><ele>295.0</ele><time>2026-03-28T10:55:06Z</time></trkpt><trkpt lat="43.56525187614213" lon="11.322561789641716"><ele>295.0</ele><time>2026-03-28T10:55:07Z</time></trkpt><trkpt lat="43.56546530290448" lon="11.322567190198985"><ele>295.0</ele><time>2026-03-28T10:55:08Z</time></trkpt><trkpt lat="43.565684904709975" lon="11.322513461000108"><ele>291.66666666666663</ele><time>2026-03-28T10:55:09Z</time></trkpt><trkpt lat="43.56589251940946" lon="11.322457281855687"><ele>288.3333333333333</ele><time>2026-03-28T10:55:10Z</time></trkpt><trkpt lat="43.56608547404251" lon="11.322383327574512"><ele>285.0</ele><time>2026-03-28T10:55:11Z</time></trkpt><trkpt lat="43.56628084460447" lon="11.322334944115395"><ele>284.0</ele><time>2026-03-28T10:55:12Z</time></trkpt><trkpt lat="43.56647085754313" lon="11.32236367666699"><ele>283.0</ele><time>2026-03-28T10:55:13Z</time></trkpt><trkpt lat="43.56665543904594" lon="11.322405392362704"><ele>282.0</ele><time>2026-03-28T10:55:14Z</time></trkpt><trkpt lat="43.56685527365025" lon="11.322478582815064"><ele>283.3333333333333</ele><time>2026-03-28T10:55:15Z</time></trkpt><trkpt lat="43.567044180579224" lon="11.322608948201696"><ele>284.66666666666663</ele><time>2026-03-28T10:55:16Z</time></trkpt><trkpt lat="43.56722649111143" lon="11.322740133268933"><ele>286.0</ele><time>2026-03-28T10:55:17Z</time></trkpt><trkpt lat="43.567393232127706" lon="11.322822202144572"><ele>286.0</ele><time>2026-03-28T10:55:18.001Z</time></trkpt><trkpt lat="43.56756972629551" lon="11.322831539823005"><ele>286.0</ele><time>2026-03-28T10:55:19.001Z</time></trkpt><trkpt lat="43.56776723652992" lon="11.322773569167433"><ele>286.0</ele><time>2026-03-28T10:55:20.001Z</time></trkpt><trkpt lat="43.56797847335704" lon="11.32269523216235"><ele>283.66666666666663</ele><time>2026-03-28T10:55:21.001Z</time></trkpt><trkpt lat="43.56819184095213" lon="11.322648485536673"><ele>281.3333333333333</ele><time>2026-03-28T10:55:22.001Z</time></trkpt><trkpt lat="43.56838461856039" lon="11.322608961259752"><ele>279.0</ele><time>2026-03-28T10:55:23.001Z</time></trkpt><trkpt lat="43.568545572978294" lon="11.322570909188157"><ele>279.0</ele><time>2026-03-28T10:55:24.001Z</time></trkpt><trkpt lat="43.568682151835354" lon="11.322502771051052"><ele>279.0</ele><time>2026-03-28T10:55:25.001Z</time></trkpt><trkpt lat="43.56880329760097" lon="11.322357421922316"><ele>279.0</ele><time>2026-03-28T10:55:26.001Z</time></trkpt><trkpt lat="43.56891760335803" lon="11.322161994874996"><ele>273.6666666666667</ele><time>2026-03-28T10:55:27.001Z</time></trkpt><trkpt lat="43.56902880668221" lon="11.321956458994707"><ele>268.33333333333337</ele><time>2026-03-28T10:55:28.001Z</time></trkpt><trkpt lat="43.569126001294926" lon="11.321763810997396"><ele>263.0</ele><time>2026-03-28T10:55:29.001Z</time></trkpt><trkpt lat="43.56919481081983" lon="11.321551018768714"><ele>264.33333333333337</ele><time>2026-03-28T10:55:30.001Z</time></trkpt><trkpt lat="43.569227204620574" lon="11.321327734179132"><ele>265.6666666666667</ele><time>2026-03-28T10:55:31.001Z</time></trkpt><trkpt lat="43.56923989639159" lon="11.321112784149378"><ele>267.0</ele><time>2026-03-28T10:55:32.001Z</time></trkpt><trkpt lat="43.569256010266365" lon="11.320926589301287"><ele>267.0</ele><time>2026-03-28T10:55:33Z</time></trkpt><trkpt lat="43.569291115813485" lon="11.320780088393436"><ele>267.0</ele><time>2026-03-28T10:55:34Z</time></trkpt><trkpt lat="43.569354645663054" lon="11.32066571331136"><ele>267.0</ele><time>2026-03-28T10:55:35Z</time></trkpt><trkpt lat="43.56947204415315" lon="11.320609183019108"><ele>267.0</ele><time>2026-03-28T10:55:36Z</time></trkpt><trkpt lat="43.569614032664354" lon="11.320535339193437"><ele>265.3333333333333</ele><time>2026-03-28T10:55:37Z</time></trkpt><trkpt lat="43.56978034343841" lon="11.320507226346201"><ele>263.66666666666663</ele><time>2026-03-28T10:55:38Z</time></trkpt><trkpt lat="43.5699647007924" lon="11.32046940422302"><ele>262.0</ele><time>2026-03-28T10:55:39Z</time></trkpt><trkpt lat="43.570152133012044" lon="11.32042497021779"><ele>262.0</ele><time>2026-03-28T10:55:40Z</time></trkpt><trkpt lat="43.570343003338614" lon="11.320375802121942"><ele>262.0</ele><time>2026-03-28T10:55:41Z</time></trkpt><trkpt lat="43.57054596182612" lon="11.320302799371916"><ele>262.0</ele><time>2026-03-28T10:55:42Z</time></trkpt><trkpt lat="43.570758914524966" lon="11.320201966525328"><ele>261.0</ele><time>2026-03-28T10:55:43Z</time></trkpt><trkpt lat="43.570925050235225" lon="11.320135978540725"><ele>260.0</ele><time>2026-03-28T10:55:44Z</time></trkpt><trkpt lat="43.57109230029409" lon="11.32004506589658"><ele>259.0</ele><time>2026-03-28T10:55:45Z</time></trkpt><trkpt lat="43.57125629545293" lon="11.319960834388947"><ele>261.66666666666663</ele><time>2026-03-28T10:55:46Z</time></trkpt><trkpt lat="43.57141143801134" lon="11.319883093978826"><ele>264.3333333333333</ele><time>2026-03-28T10:55:47Z</time></trkpt><trkpt lat="43.571562610926584" lon="11.319810524306005"><ele>267.0</ele><time>2026-03-28T10:55:48Z</time></trkpt><trkpt lat="43.571713656463125" lon="11.319732111257007"><ele>267.0</ele><time>2026-03-28T10:55:49Z</time></trkpt><trkpt lat="43.57186855999789" lon="11.31965886005406"><ele>267.0</ele><time>2026-03-28T10:55:50Z</time></trkpt><trkpt lat="43.572025172483606" lon="11.319584475946513"><ele>267.0</ele><time>2026-03-28T10:55:51Z</time></trkpt><trkpt lat="43.57217875390988" lon="11.319510164685724"><ele>264.0</ele><time>2026-03-28T10:55:52Z</time></trkpt><trkpt lat="43.57232932688995" lon="11.319433121403984"><ele>261.0</ele><time>2026-03-28T10:55:53Z</time></trkpt><trkpt lat="43.5724769734756" lon="11.319351331152244"><ele>258.0</ele><time>2026-03-28T10:55:54Z</time></trkpt><trkpt lat="43.572628014804835" lon="11.319275373407628"><ele>258.0</ele><time>2026-03-28T10:55:55Z</time></trkpt><trkpt lat="43.57277710713289" lon="11.319199901481733"><ele>258.0</ele><time>2026-03-28T10:55:56Z</time></trkpt><trkpt lat="43.57292721770717" lon="11.319126527529562"><ele>258.0</ele><time>2026-03-28T10:55:57Z</time></trkpt><trkpt lat="43.57308046618718" lon="11.319053033167235"><ele>255.0</ele><time>2026-03-28T10:55:58Z</time></trkpt><trkpt lat="43.57323241756886" lon="11.318979063860839"><ele>252.0</ele><time>2026-03-28T10:55:59Z</time></trkpt><trkpt lat="43.57338093298131" lon="11.318908369787712"><ele>249.0</ele><time>2026-03-28T10:56:00Z</time></trkpt><trkpt lat="43.57353172930305" lon="11.318832845598845"><ele>252.0</ele><time>2026-03-28T10:56:01Z</time></trkpt><trkpt lat="43.573677973972146" lon="11.318758857302074"><ele>255.0</ele><time>2026-03-28T10:56:02Z</time></trkpt><trkpt lat="43.57382257786868" lon="11.31868470228446"><ele>258.0</ele><time>2026-03-28T10:56:03Z</time></trkpt><trkpt lat="43.57396401259331" lon="11.318615719834519"><ele>258.0</ele><time>2026-03-28T10:56:04Z</time></trkpt><trkpt lat="43.57410426400096" lon="11.318545862952439"><ele>258.0</ele><time>2026-03-28T10:56:05Z</time></trkpt><trkpt lat="43.574241345160736" lon="11.318474133121715"><ele>258.0</ele><time>2026-03-28T10:56:06Z</time></trkpt><trkpt lat="43.57437686665642" lon="11.318408255746247"><ele>258.0</ele><time>2026-03-28T10:56:07Z</time></trkpt><trkpt lat="43.57451105108692" lon="11.318346051847179"><ele>253.0</ele><time>2026-03-28T10:56:08Z</time></trkpt><trkpt lat="43.57465215499799" lon="11.318280200242473"><ele>248.0</ele><time>2026-03-28T10:56:09Z</time></trkpt><trkpt lat="43.57479111680037" lon="11.318205019604965"><ele>243.0</ele><time>2026-03-28T10:56:10Z</time></trkpt><trkpt lat="43.574935740091234" lon="11.318128851799184"><ele>243.25</ele><time>2026-03-28T10:56:11Z</time></trkpt><trkpt lat="43.57507734533456" lon="11.318057311098984"><ele>243.5</ele><time>2026-03-28T10:56:12Z</time></trkpt><trkpt lat="43.575210941161345" lon="11.317996114096486"><ele>243.75</ele><time>2026-03-28T10:56:13Z</time></trkpt><trkpt lat="43.575349346711334" lon="11.317931118521857"><ele>244.0</ele><time>2026-03-28T10:56:14Z</time></trkpt><trkpt lat="43.57548551841501" lon="11.317858095790177"><ele>244.0</ele><time>2026-03-28T10:56:15Z</time></trkpt><trkpt lat="43.57562167968319" lon="11.317789456891141"><ele>244.0</ele><time>2026-03-28T10:56:16Z</time></trkpt><trkpt lat="43.575758594848885" lon="11.317724567860187"><ele>244.0</ele><time>2026-03-28T10:56:17Z</time></trkpt><trkpt lat="43.5758923382394" lon="11.317657552744452"><ele>244.0</ele><time>2026-03-28T10:56:18Z</time></trkpt><trkpt lat="43.576018523098156" lon="11.317592425447863"><ele>244.0</ele><time>2026-03-28T10:56:19Z</time></trkpt><trkpt lat="43.576149750654785" lon="11.317519796598502"><ele>244.0</ele><time>2026-03-28T10:56:20Z</time></trkpt><trkpt lat="43.576288274363975" lon="11.317446848544908"><ele>244.0</ele><time>2026-03-28T10:56:21Z</time></trkpt><trkpt lat="43.576429009950274" lon="11.31737678814607"><ele>244.0</ele><time>2026-03-28T10:56:22Z</time></trkpt><trkpt lat="43.576569087755324" lon="11.317301871246269"><ele>246.33333333333331</ele><time>2026-03-28T10:56:23Z</time></trkpt><trkpt lat="43.57672744885567" lon="11.317220030309814"><ele>248.66666666666669</ele><time>2026-03-28T10:56:24Z</time></trkpt><trkpt lat="43.576873690968206" lon="11.317134433428816"><ele>251.0</ele><time>2026-03-28T10:56:25Z</time></trkpt><trkpt lat="43.57700126498312" lon="11.317076488136104"><ele>248.66666666666669</ele><time>2026-03-28T10:56:26Z</time></trkpt><trkpt lat="43.577150075370454" lon="11.317008521044693"><ele>246.33333333333331</ele><time>2026-03-28T10:56:27Z</time></trkpt><trkpt lat="43.57729697679175" lon="11.316947552783073"><ele>244.0</ele><time>2026-03-28T10:56:28Z</time></trkpt><trkpt lat="43.577445153005556" lon="11.316901390720963"><ele>244.0</ele><time>2026-03-28T10:56:29Z</time></trkpt><trkpt lat="43.57755275082618" lon="11.316868496767475"><ele>243.99999999999997</ele><time>2026-03-28T10:56:30Z</time></trkpt><trkpt lat="43.57764081861438" lon="11.316839079048858"><ele>243.99999999999997</ele><time>2026-03-28T10:56:31Z</time></trkpt><trkpt lat="43.577732969391086" lon="11.316807775927511"><ele>244.0</ele><time>2026-03-28T10:56:32Z</time></trkpt><trkpt lat="43.57782680767642" lon="11.316773588782478"><ele>244.0</ele><time>2026-03-28T10:56:33Z</time></trkpt><trkpt lat="43.57793106832793" lon="11.316737090107052"><ele>243.0</ele><time>2026-03-28T10:56:34Z</time></trkpt><trkpt lat="43.57803892815392" lon="11.31670148396051"><ele>242.0</ele><time>2026-03-28T10:56:35Z</time></trkpt><trkpt lat="43.578156847884216" lon="11.31666273568144"><ele>241.0</ele><time>2026-03-28T10:56:36Z</time></trkpt><trkpt lat="43.5783006655143" lon="11.31661923184424"><ele>240.0</ele><time>2026-03-28T10:56:37Z</time></trkpt><trkpt lat="43.578444729937054" lon="11.3165940119248"><ele>240.0</ele><time>2026-03-28T10:56:38Z</time></trkpt><trkpt lat="43.578575109022275" lon="11.316587157357974"><ele>240.0</ele><time>2026-03-28T10:56:39Z</time></trkpt><trkpt lat="43.57870023331168" lon="11.316604645246393"><ele>240.0</ele><time>2026-03-28T10:56:40Z</time></trkpt><trkpt lat="43.578836628358175" lon="11.316644116085753"><ele>240.0</ele><time>2026-03-28T10:56:41Z</time></trkpt><trkpt lat="43.57898245756317" lon="11.316706173969218"><ele>239.75</ele><time>2026-03-28T10:56:42Z</time></trkpt><trkpt lat="43.57912630277179" lon="11.31676392252991"><ele>239.5</ele><time>2026-03-28T10:56:43Z</time></trkpt><trkpt lat="43.57926044424015" lon="11.316817529420366"><ele>239.25</ele><time>2026-03-28T10:56:44Z</time></trkpt><trkpt lat="43.579377074319254" lon="11.316864498840294"><ele>239.0</ele><time>2026-03-28T10:56:45Z</time></trkpt><trkpt lat="43.57948958804684" lon="11.316898844460272"><ele>239.79999999999998</ele><time>2026-03-28T10:56:46Z</time></trkpt><trkpt lat="43.57959990705524" lon="11.316936512489063"><ele>240.59999999999997</ele><time>2026-03-28T10:56:47Z</time></trkpt><trkpt lat="43.57970013570816" lon="11.316965443396736"><ele>241.4</ele><time>2026-03-28T10:56:48Z</time></trkpt><trkpt lat="43.57979575464946" lon="11.31699766814104"><ele>242.2</ele><time>2026-03-28T10:56:49Z</time></trkpt><trkpt lat="43.579885584116255" lon="11.317030107416594"><ele>243.0</ele><time>2026-03-28T10:56:50Z</time></trkpt><trkpt lat="43.57997512458101" lon="11.31706540241006"><ele>243.0</ele><time>2026-03-28T10:56:51Z</time></trkpt><trkpt lat="43.58007071971796" lon="11.317119346278195"><ele>243.0</ele><time>2026-03-28T10:56:52Z</time></trkpt><trkpt lat="43.58016333952966" lon="11.317219418801109"><ele>243.0</ele><time>2026-03-28T10:56:53Z</time></trkpt><trkpt lat="43.5802543091111" lon="11.317344709709827"><ele>243.0</ele><time>2026-03-28T10:56:54Z</time></trkpt><trkpt lat="43.58035924548899" lon="11.31746643827116"><ele>241.5</ele><time>2026-03-28T10:56:55Z</time></trkpt><trkpt lat="43.58047783454219" lon="11.31757586291143"><ele>240.0</ele><time>2026-03-28T10:56:56Z</time></trkpt><trkpt lat="43.58059973820255" lon="11.31766105487646"><ele>238.5</ele><time>2026-03-28T10:56:57Z</time></trkpt><trkpt lat="43.58071242130956" lon="11.317746181246324"><ele>237.0</ele><time>2026-03-28T10:56:58Z</time></trkpt><trkpt lat="43.580809138919605" lon="11.317828201530606"><ele>237.0</ele><time>2026-03-28T10:56:59Z</time></trkpt><trkpt lat="43.580900816263124" lon="11.317901733968158"><ele>237.0</ele><time>2026-03-28T10:57:00Z</time></trkpt><trkpt lat="43.58099847797278" lon="11.31795715782704"><ele>237.0</ele><time>2026-03-28T10:57:01Z</time></trkpt><trkpt lat="43.581104589597885" lon="11.317966799400134"><ele>237.0</ele><time>2026-03-28T10:57:02Z</time></trkpt><trkpt lat="43.58120869633293" lon="11.317953017273817"><ele>237.0</ele><time>2026-03-28T10:57:03Z</time></trkpt><trkpt lat="43.581299862467006" lon="11.317933230530292"><ele>237.33333333333334</ele><time>2026-03-28T10:57:04Z</time></trkpt><trkpt lat="43.58138467537889" lon="11.31791948293852"><ele>237.66666666666669</ele><time>2026-03-28T10:57:05Z</time></trkpt><trkpt lat="43.58145857139999" lon="11.317916637323943"><ele>238.0</ele><time>2026-03-28T10:57:06Z</time></trkpt><trkpt lat="43.58153081766739" lon="11.317912567865143"><ele>238.33333333333334</ele><time>2026-03-28T10:57:07Z</time></trkpt><trkpt lat="43.581613915840514" lon="11.31791955890677"><ele>238.66666666666669</ele><time>2026-03-28T10:57:08Z</time></trkpt><trkpt lat="43.58170817546081" lon="11.317931360254594"><ele>239.0</ele><time>2026-03-28T10:57:09Z</time></trkpt><trkpt lat="43.58180871701908" lon="11.317966913446764"><ele>239.00000000000003</ele><time>2026-03-28T10:57:10Z</time></trkpt><trkpt lat="43.581906192916534" lon="11.317998066447993"><ele>239.0</ele><time>2026-03-28T10:57:11Z</time></trkpt><trkpt lat="43.58199634203977" lon="11.318019570353536"><ele>239.0</ele><time>2026-03-28T10:57:12Z</time></trkpt><trkpt lat="43.58207965342168" lon="11.318027515476608"><ele>239.0</ele><time>2026-03-28T10:57:13Z</time></trkpt><trkpt lat="43.5821607729689" lon="11.31802122323308"><ele>239.00000000000003</ele><time>2026-03-28T10:57:14Z</time></trkpt><trkpt lat="43.58223452081832" lon="11.3179983994559"><ele>239.0</ele><time>2026-03-28T10:57:15Z</time></trkpt><trkpt lat="43.5822976255155" lon="11.31796421221724"><ele>238.50000000000003</ele><time>2026-03-28T10:57:16Z</time></trkpt><trkpt lat="43.58240300797191" lon="11.31794468886895"><ele>238.0</ele><time>2026-03-28T10:57:18Z</time></trkpt><trkpt lat="43.582486338018704" lon="11.317912185111727"><ele>237.5</ele><time>2026-03-28T10:57:20Z</time></trkpt><trkpt lat="43.582561413782294" lon="11.317882901030938"><ele>237.0</ele><time>2026-03-28T10:57:23Z</time></trkpt><trkpt lat="43.58262548240678" lon="11.317858129222842"><ele>236.50000000000003</ele><time>2026-03-28T10:57:26.001Z</time></trkpt><trkpt lat="43.582721474125506" lon="11.317799832482883"><ele>236.0</ele><time>2026-03-28T10:57:28.001Z</time></trkpt><trkpt lat="43.58285403869794" lon="11.317765303613735"><ele>235.66666666666669</ele><time>2026-03-28T10:57:30.001Z</time></trkpt><trkpt lat="43.582920771135335" lon="11.317742334644702"><ele>235.33333333333334</ele><time>2026-03-28T10:57:31.001Z</time></trkpt><trkpt lat="43.58304182247369" lon="11.317700671721441"><ele>235.0</ele><time>2026-03-28T10:57:33.001Z</time></trkpt><trkpt lat="43.58309937389567" lon="11.317623802898124"><ele>234.66666666666669</ele><time>2026-03-28T10:57:34.001Z</time></trkpt><trkpt lat="43.5831603585379" lon="11.317574494101668"><ele>234.33333333333334</ele><time>2026-03-28T10:57:35.001Z</time></trkpt><trkpt lat="43.58321386843714" lon="11.317527132671135"><ele>234.0</ele><time>2026-03-28T10:57:36.001Z</time></trkpt><trkpt lat="43.583314768454024" lon="11.31742703797855"><ele>234.0</ele><time>2026-03-28T10:57:38.001Z</time></trkpt><trkpt lat="43.58337798347282" lon="11.317389440889853"><ele>234.0</ele><time>2026-03-28T10:57:39.001Z</time></trkpt><trkpt lat="43.58343097239033" lon="11.317329087721468"><ele>234.0</ele><time>2026-03-28T10:57:40.001Z</time></trkpt><trkpt lat="43.58347784945357" lon="11.317256230640076"><ele>234.0</ele><time>2026-03-28T10:57:41Z</time></trkpt><trkpt lat="43.58355222606035" lon="11.317120489100068"><ele>234.0</ele><time>2026-03-28T10:57:43Z</time></trkpt><trkpt lat="43.58358890086281" lon="11.317049084787211"><ele>234.0</ele><time>2026-03-28T10:57:44Z</time></trkpt><trkpt lat="43.583647881839724" lon="11.316918895200045"><ele>233.5</ele><time>2026-03-28T10:57:46Z</time></trkpt><trkpt lat="43.583696238704285" lon="11.316808124429368"><ele>233.0</ele><time>2026-03-28T10:57:48Z</time></trkpt><trkpt lat="43.58373531308507" lon="11.316718617097118"><ele>232.5</ele><time>2026-03-28T10:57:50Z</time></trkpt><trkpt lat="43.583773035996124" lon="11.31663220554498"><ele>232.0</ele><time>2026-03-28T10:57:52Z</time></trkpt><trkpt lat="43.58381665973474" lon="11.316532277013271"><ele>231.5</ele><time>2026-03-28T10:57:54Z</time></trkpt><trkpt lat="43.58387149649897" lon="11.316406662807664"><ele>231.0</ele><time>2026-03-28T10:57:56Z</time></trkpt><trkpt lat="43.583906827920515" lon="11.31632572942761"><ele>231.0</ele><time>2026-03-28T10:57:57Z</time></trkpt><trkpt lat="43.583945959926616" lon="11.31623609001822"><ele>231.00000000000003</ele><time>2026-03-28T10:57:58Z</time></trkpt><trkpt lat="43.58398248368616" lon="11.316152425333446"><ele>231.00000000000003</ele><time>2026-03-28T10:57:59Z</time></trkpt><trkpt lat="43.58400227524628" lon="11.316064362738098"><ele>231.0</ele><time>2026-03-28T10:58:00Z</time></trkpt><trkpt lat="43.58406839297929" lon="11.31592835469481"><ele>231.0</ele><time>2026-03-28T10:58:02Z</time></trkpt><trkpt lat="43.58415473863932" lon="11.31579888550786"><ele>231.0</ele><time>2026-03-28T10:58:04Z</time></trkpt><trkpt lat="43.58420758978928" lon="11.315744752063681"><ele>231.0</ele><time>2026-03-28T10:58:05Z</time></trkpt><trkpt lat="43.58426886660052" lon="11.315704850058543"><ele>231.0</ele><time>2026-03-28T10:58:06Z</time></trkpt><trkpt lat="43.584345848025144" lon="11.31565525804855"><ele>231.0</ele><time>2026-03-28T10:58:07Z</time></trkpt><trkpt lat="43.584433754405985" lon="11.315611246039854"><ele>231.0</ele><time>2026-03-28T10:58:08Z</time></trkpt><trkpt lat="43.584511685961765" lon="11.315581220976831"><ele>231.0</ele><time>2026-03-28T10:58:09Z</time></trkpt><trkpt lat="43.58461449321514" lon="11.315535422767582"><ele>230.8</ele><time>2026-03-28T10:58:11Z</time></trkpt><trkpt lat="43.58470323111466" lon="11.315497506854147"><ele>230.60000000000002</ele><time>2026-03-28T10:58:13Z</time></trkpt><trkpt lat="43.584792182149535" lon="11.315460842141885"><ele>230.4</ele><time>2026-03-28T10:58:15Z</time></trkpt><trkpt lat="43.58490202690581" lon="11.315423587195898"><ele>230.2</ele><time>2026-03-28T10:58:17Z</time></trkpt><trkpt lat="43.584995687168835" lon="11.315393387351644"><ele>230.0</ele><time>2026-03-28T10:58:19Z</time></trkpt><trkpt lat="43.585095823988844" lon="11.315374711069996"><ele>230.0</ele><time>2026-03-28T10:58:21Z</time></trkpt><trkpt lat="43.58518272707915" lon="11.315380002583273"><ele>230.0</ele><time>2026-03-28T10:58:22Z</time></trkpt><trkpt lat="43.58528613861481" lon="11.315341999947853"><ele>230.0</ele><time>2026-03-28T10:58:23Z</time></trkpt><trkpt lat="43.58539699545434" lon="11.315327570400921"><ele>230.0</ele><time>2026-03-28T10:58:24Z</time></trkpt><trkpt lat="43.585496615338585" lon="11.315300518716478"><ele>230.0</ele><time>2026-03-28T10:58:25Z</time></trkpt><trkpt lat="43.58559757400703" lon="11.315300964708035"><ele>229.66666666666669</ele><time>2026-03-28T10:58:26Z</time></trkpt><trkpt lat="43.58569054773084" lon="11.315283251056483"><ele>229.33333333333334</ele><time>2026-03-28T10:58:27Z</time></trkpt><trkpt lat="43.58576200659123" lon="11.315269883345248"><ele>229.0</ele><time>2026-03-28T10:58:28Z</time></trkpt><trkpt lat="43.58583212358013" lon="11.315258112750834"><ele>228.66666666666669</ele><time>2026-03-28T10:58:29Z</time></trkpt><trkpt lat="43.585948129101936" lon="11.315231291058756"><ele>228.33333333333334</ele><time>2026-03-28T10:58:31Z</time></trkpt><trkpt lat="43.58603639025654" lon="11.315212476511247"><ele>228.0</ele><time>2026-03-28T10:58:33Z</time></trkpt><trkpt lat="43.58610137595369" lon="11.315197995776252"><ele>228.0</ele><time>2026-03-28T10:58:35Z</time></trkpt><trkpt lat="43.58618503203248" lon="11.31519788650842"><ele>228.0</ele><time>2026-03-28T10:58:42Z</time></trkpt><trkpt lat="43.58626989750682" lon="11.315191709280482"><ele>228.0</ele><time>2026-03-28T10:58:43Z</time></trkpt><trkpt lat="43.5863700716195" lon="11.315170014995463"><ele>228.0</ele><time>2026-03-28T10:58:44Z</time></trkpt><trkpt lat="43.586474500939175" lon="11.315138093286102"><ele>228.0</ele><time>2026-03-28T10:58:45Z</time></trkpt><trkpt lat="43.58659439967339" lon="11.315111334740099"><ele>228.0</ele><time>2026-03-28T10:58:46Z</time></trkpt><trkpt lat="43.5867307104835" lon="11.315086570722976"><ele>228.0</ele><time>2026-03-28T10:58:47Z</time></trkpt><trkpt lat="43.5868836660223" lon="11.31505971869726"><ele>228.0</ele><time>2026-03-28T10:58:48Z</time></trkpt><trkpt lat="43.58703330150458" lon="11.315028394745315"><ele>228.0</ele><time>2026-03-28T10:58:49Z</time></trkpt><trkpt lat="43.58718204889963" lon="11.315001974471208"><ele>227.66666666666669</ele><time>2026-03-28T10:58:50Z</time></trkpt><trkpt lat="43.58733795834236" lon="11.314967296946298"><ele>227.33333333333334</ele><time>2026-03-28T10:58:51Z</time></trkpt><trkpt lat="43.58749026279531" lon="11.314939976928967"><ele>227.0</ele><time>2026-03-28T10:58:52Z</time></trkpt><trkpt lat="43.58765542801685" lon="11.31491363375177"><ele>227.0</ele><time>2026-03-28T10:58:53Z</time></trkpt><trkpt lat="43.587815702893145" lon="11.314885010679754"><ele>227.0</ele><time>2026-03-28T10:58:54Z</time></trkpt><trkpt lat="43.58798566996158" lon="11.314852957632393"><ele>227.0</ele><time>2026-03-28T10:58:55Z</time></trkpt><trkpt lat="43.58816214646523" lon="11.314820677767976"><ele>227.0</ele><time>2026-03-28T10:58:56Z</time></trkpt><trkpt lat="43.588326656004305" lon="11.314788907880263"><ele>227.0</ele><time>2026-03-28T10:58:57Z</time></trkpt><trkpt lat="43.58847948795855" lon="11.31476332698668"><ele>227.0</ele><time>2026-03-28T10:58:58Z</time></trkpt><trkpt lat="43.58863304353072" lon="11.314740002158732"><ele>226.6</ele><time>2026-03-28T10:58:59Z</time></trkpt><trkpt lat="43.588751209281675" lon="11.314712037602654"><ele>226.2</ele><time>2026-03-28T10:59:00Z</time></trkpt><trkpt lat="43.588861077997436" lon="11.314692877656519"><ele>225.8</ele><time>2026-03-28T10:59:01Z</time></trkpt><trkpt lat="43.58895204805434" lon="11.314670454287427"><ele>225.4</ele><time>2026-03-28T10:59:02Z</time></trkpt><trkpt lat="43.5890377039066" lon="11.31465852529739"><ele>225.0</ele><time>2026-03-28T10:59:03Z</time></trkpt><trkpt lat="43.58911228307242" lon="11.314647698431745"><ele>225.0</ele><time>2026-03-28T10:59:04Z</time></trkpt><trkpt lat="43.58921615600979" lon="11.314628876801448"><ele>225.0</ele><time>2026-03-28T10:59:06Z</time></trkpt><trkpt lat="43.58929037629139" lon="11.314614086132924"><ele>225.0</ele><time>2026-03-28T10:59:09Z</time></trkpt><trkpt lat="43.58939306180657" lon="11.314592479928244"><ele>225.0</ele><time>2026-03-28T10:59:15Z</time></trkpt><trkpt lat="43.589471756274975" lon="11.314579434919507"><ele>225.0</ele><time>2026-03-28T10:59:16Z</time></trkpt><trkpt lat="43.58955848502718" lon="11.314565968246193"><ele>224.6</ele><time>2026-03-28T10:59:17Z</time></trkpt><trkpt lat="43.58963594681939" lon="11.314558542996123"><ele>224.2</ele><time>2026-03-28T10:59:18Z</time></trkpt><trkpt lat="43.5897227465216" lon="11.314540955978906"><ele>223.8</ele><time>2026-03-28T10:59:19Z</time></trkpt><trkpt lat="43.58982203680951" lon="11.314529691567182"><ele>223.4</ele><time>2026-03-28T10:59:20Z</time></trkpt><trkpt lat="43.58992511617278" lon="11.314509799075394"><ele>223.0</ele><time>2026-03-28T10:59:21Z</time></trkpt><trkpt lat="43.59003387997736" lon="11.31448842874131"><ele>223.0</ele><time>2026-03-28T10:59:22Z</time></trkpt><trkpt lat="43.59014718785008" lon="11.31446127256035"><ele>223.0</ele><time>2026-03-28T10:59:23Z</time></trkpt><trkpt lat="43.59026912864081" lon="11.31443967476542"><ele>223.0</ele><time>2026-03-28T10:59:24Z</time></trkpt><trkpt lat="43.590392810009675" lon="11.314425012343719"><ele>223.0</ele><time>2026-03-28T10:59:25Z</time></trkpt><trkpt lat="43.59051832533858" lon="11.314428657041494"><ele>222.75</ele><time>2026-03-28T10:59:26Z</time></trkpt><trkpt lat="43.590649098566956" lon="11.314440368677628"><ele>222.5</ele><time>2026-03-28T10:59:27Z</time></trkpt><trkpt lat="43.590791484022965" lon="11.314469714635317"><ele>222.25</ele><time>2026-03-28T10:59:28Z</time></trkpt><trkpt lat="43.59093387373512" lon="11.314509078841219"><ele>222.0</ele><time>2026-03-28T10:59:29Z</time></trkpt><trkpt lat="43.5910805077743" lon="11.314558014049911"><ele>222.0</ele><time>2026-03-28T10:59:30.001Z</time></trkpt><trkpt lat="43.59124491624115" lon="11.314619609560918"><ele>222.0</ele><time>2026-03-28T10:59:31.001Z</time></trkpt><trkpt lat="43.59140567274595" lon="11.314705681874106"><ele>222.0</ele><time>2026-03-28T10:59:32.001Z</time></trkpt><trkpt lat="43.5915379280605" lon="11.31481117862741"><ele>222.0</ele><time>2026-03-28T10:59:33.001Z</time></trkpt><trkpt lat="43.59164707747221" lon="11.314893010547863"><ele>222.0</ele><time>2026-03-28T10:59:34.001Z</time></trkpt><trkpt lat="43.591739694890045" lon="11.314958193511503"><ele>222.0</ele><time>2026-03-28T10:59:35Z</time></trkpt><trkpt lat="43.59182732103136" lon="11.315027179884652"><ele>222.0</ele><time>2026-03-28T10:59:36Z</time></trkpt><trkpt lat="43.591893440698115" lon="11.315125619735715"><ele>222.0</ele><time>2026-03-28T10:59:37Z</time></trkpt><trkpt lat="43.59197139936595" lon="11.31518881023055"><ele>221.75</ele><time>2026-03-28T10:59:38Z</time></trkpt><trkpt lat="43.59205875609401" lon="11.315252337602969"><ele>221.5</ele><time>2026-03-28T10:59:39Z</time></trkpt><trkpt lat="43.59217284006259" lon="11.31531138328323"><ele>221.25</ele><time>2026-03-28T10:59:40Z</time></trkpt><trkpt lat="43.59231344463315" lon="11.315357227128672"><ele>221.0</ele><time>2026-03-28T10:59:41Z</time></trkpt><trkpt lat="43.592421370971664" lon="11.315442347559134"><ele>221.0</ele><time>2026-03-28T10:59:42Z</time></trkpt><trkpt lat="43.59253578692123" lon="11.315531247251403"><ele>221.0</ele><time>2026-03-28T10:59:43Z</time></trkpt><trkpt lat="43.59268601646578" lon="11.315605441290627"><ele>221.0</ele><time>2026-03-28T10:59:44Z</time></trkpt><trkpt lat="43.5928599256877" lon="11.315667071408404"><ele>222.0</ele><time>2026-03-28T10:59:45Z</time></trkpt><trkpt lat="43.59304168776105" lon="11.315735364085159"><ele>223.0</ele><time>2026-03-28T10:59:46Z</time></trkpt><trkpt lat="43.59322084690298" lon="11.315817483552761"><ele>224.0</ele><time>2026-03-28T10:59:47Z</time></trkpt><trkpt lat="43.59340493992487" lon="11.315923844576128"><ele>224.0</ele><time>2026-03-28T10:59:48Z</time></trkpt><trkpt lat="43.593590188935636" lon="11.316056860539845"><ele>224.0</ele><time>2026-03-28T10:59:49Z</time></trkpt><trkpt lat="43.593778971368195" lon="11.316190124054655"><ele>224.0</ele><time>2026-03-28T10:59:50Z</time></trkpt><trkpt lat="43.59396024658334" lon="11.316321162589695"><ele>225.66666666666669</ele><time>2026-03-28T10:59:51Z</time></trkpt><trkpt lat="43.59412964231668" lon="11.316436657814563"><ele>227.33333333333331</ele><time>2026-03-28T10:59:52Z</time></trkpt><trkpt lat="43.594286464308986" lon="11.31654565718038"><ele>229.0</ele><time>2026-03-28T10:59:53Z</time></trkpt><trkpt lat="43.59444725212535" lon="11.316645833844092"><ele>226.66666666666666</ele><time>2026-03-28T10:59:54Z</time></trkpt><trkpt lat="43.594622943279234" lon="11.316721203576575"><ele>224.33333333333331</ele><time>2026-03-28T10:59:55Z</time></trkpt><trkpt lat="43.594828817723695" lon="11.316740292255133"><ele>222.0</ele><time>2026-03-28T10:59:56Z</time></trkpt><trkpt lat="43.59505301004009" lon="11.316715364080954"><ele>222.0</ele><time>2026-03-28T10:59:57Z</time></trkpt><trkpt lat="43.595275220278445" lon="11.31668560256396"><ele>222.0</ele><time>2026-03-28T10:59:58Z</time></trkpt><trkpt lat="43.595494665254044" lon="11.316701649800255"><ele>222.0</ele><time>2026-03-28T10:59:59Z</time></trkpt><trkpt lat="43.59571911213869" lon="11.316776023738475"><ele>220.66666666666669</ele><time>2026-03-28T11:00:00Z</time></trkpt><trkpt lat="43.595937329930635" lon="11.31685895485383"><ele>219.33333333333334</ele><time>2026-03-28T11:00:01Z</time></trkpt><trkpt lat="43.596139072703096" lon="11.316936623159528"><ele>218.0</ele><time>2026-03-28T11:00:02Z</time></trkpt><trkpt lat="43.59633371560078" lon="11.316994174390269"><ele>218.0</ele><time>2026-03-28T11:00:03Z</time></trkpt><trkpt lat="43.596541846166076" lon="11.317012766563728"><ele>218.0</ele><time>2026-03-28T11:00:04Z</time></trkpt><trkpt lat="43.59675745010457" lon="11.316979047960443"><ele>218.0</ele><time>2026-03-28T11:00:05Z</time></trkpt><trkpt lat="43.59697366151673" lon="11.316890452567689"><ele>219.0</ele><time>2026-03-28T11:00:06Z</time></trkpt><trkpt lat="43.59719197812504" lon="11.316759835883419"><ele>220.0</ele><time>2026-03-28T11:00:07Z</time></trkpt><trkpt lat="43.59741066970509" lon="11.316604372270959"><ele>220.0</ele><time>2026-03-28T11:00:08Z</time></trkpt><trkpt lat="43.59761176005661" lon="11.31646306816018"><ele>220.0</ele><time>2026-03-28T11:00:09Z</time></trkpt><trkpt lat="43.597791121318764" lon="11.31633061205327"><ele>220.0</ele><time>2026-03-28T11:00:10Z</time></trkpt><trkpt lat="43.597957013591504" lon="11.31616778793709"><ele>220.0</ele><time>2026-03-28T11:00:11Z</time></trkpt><trkpt lat="43.59810563068697" lon="11.315946756291854"><ele>220.0</ele><time>2026-03-28T11:00:12Z</time></trkpt><trkpt lat="43.59824174055781" lon="11.315687213564145"><ele>218.0</ele><time>2026-03-28T11:00:13Z</time></trkpt><trkpt lat="43.59838668422438" lon="11.31541202610832"><ele>216.0</ele><time>2026-03-28T11:00:14Z</time></trkpt><trkpt lat="43.59853167159508" lon="11.315140738925715"><ele>216.0</ele><time>2026-03-28T11:00:15Z</time></trkpt><trkpt lat="43.59866674033933" lon="11.314891747524708"><ele>216.0</ele><time>2026-03-28T11:00:16Z</time></trkpt><trkpt lat="43.598789897679026" lon="11.31467010555839"><ele>216.0</ele><time>2026-03-28T11:00:17Z</time></trkpt><trkpt lat="43.59890323972865" lon="11.314463168574596"><ele>216.33333333333331</ele><time>2026-03-28T11:00:18Z</time></trkpt><trkpt lat="43.599012849011835" lon="11.314254891249687"><ele>216.66666666666666</ele><time>2026-03-28T11:00:19Z</time></trkpt><trkpt lat="43.59912520566374" lon="11.314044775958072"><ele>217.0</ele><time>2026-03-28T11:00:20Z</time></trkpt><trkpt lat="43.59925115748544" lon="11.31384855403703"><ele>216.66666666666666</ele><time>2026-03-28T11:00:21Z</time></trkpt><trkpt lat="43.5993549286028" lon="11.313658837043507"><ele>216.33333333333331</ele><time>2026-03-28T11:00:22Z</time></trkpt><trkpt lat="43.59946026621748" lon="11.313466256061464"><ele>216.0</ele><time>2026-03-28T11:00:23Z</time></trkpt><trkpt lat="43.59957261523674" lon="11.31326085677502"><ele>215.0</ele><time>2026-03-28T11:00:24Z</time></trkpt><trkpt lat="43.59967866382491" lon="11.313037585006786"><ele>214.0</ele><time>2026-03-28T11:00:25Z</time></trkpt><trkpt lat="43.599809132121436" lon="11.312827071781562"><ele>213.0</ele><time>2026-03-28T11:00:26Z</time></trkpt><trkpt lat="43.59993336446745" lon="11.312590285007065"><ele>213.0</ele><time>2026-03-28T11:00:27Z</time></trkpt><trkpt lat="43.60006799037234" lon="11.312342829638439"><ele>213.0</ele><time>2026-03-28T11:00:28Z</time></trkpt><trkpt lat="43.60020712443005" lon="11.312094964320734"><ele>215.33333333333331</ele><time>2026-03-28T11:00:29Z</time></trkpt><trkpt lat="43.60033768582411" lon="11.311858163419078"><ele>217.66666666666666</ele><time>2026-03-28T11:00:30Z</time></trkpt><trkpt lat="43.60045050866357" lon="11.31164488181804"><ele>220.0</ele><time>2026-03-28T11:00:31Z</time></trkpt><trkpt lat="43.60055345276185" lon="11.311453022453987"><ele>218.33333333333331</ele><time>2026-03-28T11:00:32Z</time></trkpt><trkpt lat="43.60065094465452" lon="11.31126910471595"><ele>216.66666666666669</ele><time>2026-03-28T11:00:33Z</time></trkpt><trkpt lat="43.600750926291816" lon="11.311111275525475"><ele>215.0</ele><time>2026-03-28T11:00:34Z</time></trkpt><trkpt lat="43.60085465826304" lon="11.310967951312888"><ele>215.0</ele><time>2026-03-28T11:00:35Z</time></trkpt><trkpt lat="43.600970179257345" lon="11.310849093621496"><ele>215.0</ele><time>2026-03-28T11:00:36Z</time></trkpt><trkpt lat="43.60109896572382" lon="11.310749093724269"><ele>215.0</ele><time>2026-03-28T11:00:37Z</time></trkpt><trkpt lat="43.601244161507225" lon="11.310655734214158"><ele>214.0</ele><time>2026-03-28T11:00:38Z</time></trkpt><trkpt lat="43.60139895176124" lon="11.310582530115925"><ele>213.0</ele><time>2026-03-28T11:00:39Z</time></trkpt><trkpt lat="43.60154550797416" lon="11.310516965268326"><ele>212.0</ele><time>2026-03-28T11:00:40Z</time></trkpt><trkpt lat="43.60167935985891" lon="11.310437532919504"><ele>212.0</ele><time>2026-03-28T11:00:41Z</time></trkpt><trkpt lat="43.60181264255817" lon="11.310354566076633"><ele>212.0</ele><time>2026-03-28T11:00:42Z</time></trkpt><trkpt lat="43.60195110723226" lon="11.310274843456952"><ele>212.0</ele><time>2026-03-28T11:00:43Z</time></trkpt><trkpt lat="43.60208848091375" lon="11.310198011020981"><ele>212.0</ele><time>2026-03-28T11:00:44Z</time></trkpt><trkpt lat="43.6022238173745" lon="11.310118713362037"><ele>212.5</ele><time>2026-03-28T11:00:45Z</time></trkpt><trkpt lat="43.60236092669657" lon="11.310045614384403"><ele>213.0</ele><time>2026-03-28T11:00:46Z</time></trkpt><trkpt lat="43.60249678608364" lon="11.309973919251517"><ele>213.5</ele><time>2026-03-28T11:00:47Z</time></trkpt><trkpt lat="43.60263171734431" lon="11.309901139987657"><ele>214.0</ele><time>2026-03-28T11:00:48Z</time></trkpt><trkpt lat="43.60276158529671" lon="11.309827339181059"><ele>213.75</ele><time>2026-03-28T11:00:49Z</time></trkpt><trkpt lat="43.60288747735081" lon="11.309757106038127"><ele>213.5</ele><time>2026-03-28T11:00:50Z</time></trkpt><trkpt lat="43.603013811153566" lon="11.309690902695008"><ele>213.25</ele><time>2026-03-28T11:00:51Z</time></trkpt><trkpt lat="43.60313525585254" lon="11.309619848873288"><ele>213.0</ele><time>2026-03-28T11:00:52Z</time></trkpt><trkpt lat="43.603255803540016" lon="11.309551924106346"><ele>213.0</ele><time>2026-03-28T11:00:53Z</time></trkpt><trkpt lat="43.60337968072217" lon="11.309485179398315"><ele>213.0</ele><time>2026-03-28T11:00:54Z</time></trkpt><trkpt lat="43.60349963838963" lon="11.309417201172872"><ele>213.0</ele><time>2026-03-28T11:00:55Z</time></trkpt><trkpt lat="43.603615079708014" lon="11.309344577250663"><ele>213.0</ele><time>2026-03-28T11:00:56Z</time></trkpt><trkpt lat="43.60372223591834" lon="11.309261841352717"><ele>213.75</ele><time>2026-03-28T11:00:57Z</time></trkpt><trkpt lat="43.60382518569768" lon="11.309154797444926"><ele>214.5</ele><time>2026-03-28T11:00:58Z</time></trkpt><trkpt lat="43.60391030830006" lon="11.309019408608215"><ele>215.25</ele><time>2026-03-28T11:00:59Z</time></trkpt><trkpt lat="43.60398537877075" lon="11.308869137760075"><ele>216.0</ele><time>2026-03-28T11:01:00Z</time></trkpt><trkpt lat="43.60404632757686" lon="11.308709093712972"><ele>216.0</ele><time>2026-03-28T11:01:01Z</time></trkpt><trkpt lat="43.60409865234566" lon="11.30855172253196"><ele>216.0</ele><time>2026-03-28T11:01:02Z</time></trkpt><trkpt lat="43.604134164762215" lon="11.3083870778298"><ele>216.0</ele><time>2026-03-28T11:01:03Z</time></trkpt><trkpt lat="43.60415010355221" lon="11.308212575310419"><ele>216.0</ele><time>2026-03-28T11:01:04Z</time></trkpt><trkpt lat="43.604155226996575" lon="11.30804206514267"><ele>215.60000000000002</ele><time>2026-03-28T11:01:05Z</time></trkpt><trkpt lat="43.604161786169605" lon="11.307880793973517"><ele>215.20000000000002</ele><time>2026-03-28T11:01:06Z</time></trkpt><trkpt lat="43.60416666982812" lon="11.307727528163307"><ele>214.79999999999998</ele><time>2026-03-28T11:01:07Z</time></trkpt><trkpt lat="43.604169003649496" lon="11.30758119525921"><ele>214.39999999999998</ele><time>2026-03-28T11:01:08Z</time></trkpt><trkpt lat="43.60416944299506" lon="11.307437624559682"><ele>214.0</ele><time>2026-03-28T11:01:09Z</time></trkpt><trkpt lat="43.60416998875114" lon="11.307284675436597"><ele>212.75</ele><time>2026-03-28T11:01:10Z</time></trkpt><trkpt lat="43.60417848454304" lon="11.30712603018109"><ele>211.5</ele><time>2026-03-28T11:01:11Z</time></trkpt><trkpt lat="43.60420822159656" lon="11.306971660859698"><ele>210.25</ele><time>2026-03-28T11:01:12Z</time></trkpt><trkpt lat="43.60425552114588" lon="11.306831985101741"><ele>209.0</ele><time>2026-03-28T11:01:13Z</time></trkpt><trkpt lat="43.60432632178185" lon="11.306701156036016"><ele>209.0</ele><time>2026-03-28T11:01:14Z</time></trkpt><trkpt lat="43.60442517757812" lon="11.306587730334448"><ele>209.0</ele><time>2026-03-28T11:01:15Z</time></trkpt><trkpt lat="43.60454403978995" lon="11.306479932612259"><ele>209.0</ele><time>2026-03-28T11:01:16Z</time></trkpt><trkpt lat="43.604673545776016" lon="11.306368076925686"><ele>209.0</ele><time>2026-03-28T11:01:17Z</time></trkpt><trkpt lat="43.604816106808876" lon="11.306248867244275"><ele>208.66666666666669</ele><time>2026-03-28T11:01:18Z</time></trkpt><trkpt lat="43.604967146001165" lon="11.306126487895245"><ele>208.33333333333331</ele><time>2026-03-28T11:01:19Z</time></trkpt><trkpt lat="43.605126671507975" lon="11.305995941332933"><ele>208.0</ele><time>2026-03-28T11:01:20Z</time></trkpt><trkpt lat="43.60528711926748" lon="11.305857420067108"><ele>208.0</ele><time>2026-03-28T11:01:21Z</time></trkpt><trkpt lat="43.60544804627199" lon="11.305716945113378"><ele>208.0</ele><time>2026-03-28T11:01:22Z</time></trkpt><trkpt lat="43.605586796624586" lon="11.30559675307607"><ele>208.0</ele><time>2026-03-28T11:01:23Z</time></trkpt><trkpt lat="43.60568119579366" lon="11.305518120401263"><ele>208.0</ele><time>2026-03-28T11:01:24Z</time></trkpt><trkpt lat="43.60577154918298" lon="11.30544443743715"><ele>208.0</ele><time>2026-03-28T11:01:25Z</time></trkpt><trkpt lat="43.60585686235023" lon="11.305361749800769"><ele>208.0</ele><time>2026-03-28T11:01:26Z</time></trkpt><trkpt lat="43.60594214010356" lon="11.305281510328507"><ele>208.0</ele><time>2026-03-28T11:01:27Z</time></trkpt><trkpt lat="43.60604798053868" lon="11.30518823104056"><ele>208.0</ele><time>2026-03-28T11:01:27.999Z</time></trkpt><trkpt lat="43.60618087022646" lon="11.305078897566514"><ele>208.33333333333331</ele><time>2026-03-28T11:01:28.999Z</time></trkpt><trkpt lat="43.606329772965466" lon="11.304953198746178"><ele>208.66666666666669</ele><time>2026-03-28T11:01:29.999Z</time></trkpt><trkpt lat="43.606486413020825" lon="11.304825070959925"><ele>209.0</ele><time>2026-03-28T11:01:30.999Z</time></trkpt><trkpt lat="43.606642692771274" lon="11.304690114265489"><ele>209.0</ele><time>2026-03-28T11:01:31.999Z</time></trkpt><trkpt lat="43.60679302402429" lon="11.304519273443876"><ele>209.0</ele><time>2026-03-28T11:01:32.999Z</time></trkpt><trkpt lat="43.606919213705716" lon="11.304305004676074"><ele>209.0</ele><time>2026-03-28T11:01:33.999Z</time></trkpt><trkpt lat="43.60701994329973" lon="11.304091887451115"><ele>209.0</ele><time>2026-03-28T11:01:34.999Z</time></trkpt><trkpt lat="43.60713456107197" lon="11.303906745392004"><ele>209.0</ele><time>2026-03-28T11:01:36Z</time></trkpt><trkpt lat="43.60723317370583" lon="11.303714711528912"><ele>209.0</ele><time>2026-03-28T11:01:37Z</time></trkpt><trkpt lat="43.60731379680195" lon="11.303519170960294"><ele>209.0</ele><time>2026-03-28T11:01:38Z</time></trkpt><trkpt lat="43.60741775454622" lon="11.303356148978946"><ele>209.0</ele><time>2026-03-28T11:01:39Z</time></trkpt><trkpt lat="43.60749521275418" lon="11.303169803745277"><ele>209.0</ele><time>2026-03-28T11:01:40Z</time></trkpt><trkpt lat="43.607586485675306" lon="11.302995483282123"><ele>208.0</ele><time>2026-03-28T11:01:41Z</time></trkpt><trkpt lat="43.60768228020737" lon="11.30283427256932"><ele>207.0</ele><time>2026-03-28T11:01:42Z</time></trkpt><trkpt lat="43.60777184255606" lon="11.30265404175003"><ele>206.0</ele><time>2026-03-28T11:01:43Z</time></trkpt><trkpt lat="43.60785456830268" lon="11.302475118105708"><ele>208.0</ele><time>2026-03-28T11:01:44Z</time></trkpt><trkpt lat="43.60791948141522" lon="11.302266751234413"><ele>210.0</ele><time>2026-03-28T11:01:45Z</time></trkpt><trkpt lat="43.60793744157713" lon="11.302024556103026"><ele>212.0</ele><time>2026-03-28T11:01:46Z</time></trkpt><trkpt lat="43.60794832943146" lon="11.301790112425715"><ele>212.5</ele><time>2026-03-28T11:01:47Z</time></trkpt><trkpt lat="43.60796892023185" lon="11.301575527179207"><ele>213.0</ele><time>2026-03-28T11:01:48Z</time></trkpt><trkpt lat="43.60802604943983" lon="11.301385349832895"><ele>213.5</ele><time>2026-03-28T11:01:49Z</time></trkpt><trkpt lat="43.60806220631942" lon="11.301198915953774"><ele>214.0</ele><time>2026-03-28T11:01:50Z</time></trkpt><trkpt lat="43.60811294981947" lon="11.301027364617587"><ele>212.0</ele><time>2026-03-28T11:01:51Z</time></trkpt><trkpt lat="43.60819194656587" lon="11.300863610560876"><ele>210.0</ele><time>2026-03-28T11:01:52Z</time></trkpt><trkpt lat="43.608273410037974" lon="11.300678817619648"><ele>208.0</ele><time>2026-03-28T11:01:53Z</time></trkpt><trkpt lat="43.6083650661172" lon="11.300498673913758"><ele>207.5</ele><time>2026-03-28T11:01:54Z</time></trkpt><trkpt lat="43.608442181977196" lon="11.300323271709043"><ele>207.0</ele><time>2026-03-28T11:01:55Z</time></trkpt><trkpt lat="43.60853020177195" lon="11.300172708208681"><ele>206.5</ele><time>2026-03-28T11:01:56Z</time></trkpt><trkpt lat="43.60860583917885" lon="11.300034635601099"><ele>206.0</ele><time>2026-03-28T11:01:57Z</time></trkpt><trkpt lat="43.6086849513697" lon="11.299896508899202"><ele>206.0</ele><time>2026-03-28T11:01:58Z</time></trkpt><trkpt lat="43.60877850875525" lon="11.299791946217967"><ele>206.0</ele><time>2026-03-28T11:01:59Z</time></trkpt><trkpt lat="43.60885395638954" lon="11.299679908638351"><ele>206.0</ele><time>2026-03-28T11:02:00Z</time></trkpt><trkpt lat="43.60896908601081" lon="11.299685614555782"><ele>206.0</ele><time>2026-03-28T11:02:01Z</time></trkpt><trkpt lat="43.609068743399625" lon="11.299746851024716"><ele>206.0</ele><time>2026-03-28T11:02:02Z</time></trkpt><trkpt lat="43.60919924248594" lon="11.299799196816142"><ele>206.0</ele><time>2026-03-28T11:02:03Z</time></trkpt><trkpt lat="43.609324218210986" lon="11.299839126592342"><ele>206.0</ele><time>2026-03-28T11:02:04Z</time></trkpt><trkpt lat="43.60944539046925" lon="11.299906579366642"><ele>206.0</ele><time>2026-03-28T11:02:05Z</time></trkpt><trkpt lat="43.60960350618054" lon="11.299969535417809"><ele>207.66666666666669</ele><time>2026-03-28T11:02:06Z</time></trkpt><trkpt lat="43.60976656760595" lon="11.299988751880242"><ele>209.33333333333331</ele><time>2026-03-28T11:02:07Z</time></trkpt><trkpt lat="43.609931063082016" lon="11.299969431231613"><ele>211.0</ele><time>2026-03-28T11:02:08Z</time></trkpt><trkpt lat="43.61009296440371" lon="11.299902490173704"><ele>211.0</ele><time>2026-03-28T11:02:09Z</time></trkpt><trkpt lat="43.61025314406076" lon="11.299791125881699"><ele>211.0</ele><time>2026-03-28T11:02:10Z</time></trkpt><trkpt lat="43.61042058969243" lon="11.29966988550954"><ele>211.0</ele><time>2026-03-28T11:02:11Z</time></trkpt><trkpt lat="43.61058863504346" lon="11.2995579188133"><ele>214.66666666666666</ele><time>2026-03-28T11:02:12Z</time></trkpt><trkpt lat="43.61074423248923" lon="11.29946934557212"><ele>218.33333333333331</ele><time>2026-03-28T11:02:13Z</time></trkpt><trkpt lat="43.610890681786664" lon="11.299415994513268"><ele>222.0</ele><time>2026-03-28T11:02:14Z</time></trkpt><trkpt lat="43.61103732498611" lon="11.299419026663461"><ele>223.25</ele><time>2026-03-28T11:02:15Z</time></trkpt><trkpt lat="43.61117642535239" lon="11.299492485992515"><ele>224.5</ele><time>2026-03-28T11:02:16Z</time></trkpt><trkpt lat="43.611314303373504" lon="11.29958829305093"><ele>225.75</ele><time>2026-03-28T11:02:17Z</time></trkpt><trkpt lat="43.611454639261375" lon="11.299618666130705"><ele>227.0</ele><time>2026-03-28T11:02:18Z</time></trkpt><trkpt lat="43.611591474948575" lon="11.299553289369108"><ele>227.0</ele><time>2026-03-28T11:02:19Z</time></trkpt><trkpt lat="43.61173363416536" lon="11.299428536073307"><ele>227.0</ele><time>2026-03-28T11:02:20Z</time></trkpt><trkpt lat="43.61187387391735" lon="11.299305827776504"><ele>227.0</ele><time>2026-03-28T11:02:21Z</time></trkpt><trkpt lat="43.61200669516828" lon="11.299251172058911"><ele>227.66666666666669</ele><time>2026-03-28T11:02:22Z</time></trkpt><trkpt lat="43.612149730405456" lon="11.299306848413057"><ele>228.33333333333331</ele><time>2026-03-28T11:02:23Z</time></trkpt><trkpt lat="43.6123202411878" lon="11.299371763998408"><ele>229.0</ele><time>2026-03-28T11:02:24Z</time></trkpt><trkpt lat="43.612493647230245" lon="11.299474486690926"><ele>229.0</ele><time>2026-03-28T11:02:25Z</time></trkpt><trkpt lat="43.612673534938175" lon="11.29957065147257"><ele>229.0</ele><time>2026-03-28T11:02:26Z</time></trkpt><trkpt lat="43.612863807832014" lon="11.299676376621212"><ele>229.0</ele><time>2026-03-28T11:02:27Z</time></trkpt><trkpt lat="43.61306024783531" lon="11.299784535696102"><ele>228.5</ele><time>2026-03-28T11:02:28Z</time></trkpt><trkpt lat="43.613273106826156" lon="11.299896896605198"><ele>228.0</ele><time>2026-03-28T11:02:29Z</time></trkpt><trkpt lat="43.613496076209586" lon="11.300017472785777"><ele>231.33333333333331</ele><time>2026-03-28T11:02:30Z</time></trkpt><trkpt lat="43.61371278371638" lon="11.300135567567537"><ele>234.66666666666666</ele><time>2026-03-28T11:02:31Z</time></trkpt><trkpt lat="43.613900494199086" lon="11.300240719148254"><ele>238.0</ele><time>2026-03-28T11:02:32Z</time></trkpt><trkpt lat="43.61404400300192" lon="11.30032389196155"><ele>238.0</ele><time>2026-03-28T11:02:33Z</time></trkpt><trkpt lat="43.61415292581293" lon="11.300381976020871"><ele>238.0</ele><time>2026-03-28T11:02:34Z</time></trkpt><trkpt lat="43.61424323261904" lon="11.30038760790951"><ele>238.0</ele><time>2026-03-28T11:02:35Z</time></trkpt><trkpt lat="43.614324722500164" lon="11.300316078391274"><ele>238.0</ele><time>2026-03-28T11:02:36Z</time></trkpt><trkpt lat="43.614372675054135" lon="11.300179155954483"><ele>238.0</ele><time>2026-03-28T11:02:37Z</time></trkpt><trkpt lat="43.61438190648004" lon="11.300025576152589"><ele>238.0</ele><time>2026-03-28T11:02:38Z</time></trkpt><trkpt lat="43.61430482592024" lon="11.299872634215347"><ele>238.0</ele><time>2026-03-28T11:02:39Z</time></trkpt><trkpt lat="43.61416535562776" lon="11.299790233238307"><ele>238.0</ele><time>2026-03-28T11:02:40Z</time></trkpt><trkpt lat="43.61400241723795" lon="11.299708292735868"><ele>238.66666666666666</ele><time>2026-03-28T11:02:41Z</time></trkpt><trkpt lat="43.613848349502774" lon="11.299586659126419"><ele>239.33333333333331</ele><time>2026-03-28T11:02:42Z</time></trkpt><trkpt lat="43.613715000564596" lon="11.299490064747456"><ele>240.0</ele><time>2026-03-28T11:02:43Z</time></trkpt><trkpt lat="43.61361116900037" lon="11.299376039263398"><ele>240.0</ele><time>2026-03-28T11:02:44Z</time></trkpt><trkpt lat="43.61351058721433" lon="11.299201607693602"><ele>240.0</ele><time>2026-03-28T11:02:45Z</time></trkpt><trkpt lat="43.613391576305204" lon="11.298976511180998"><ele>240.0</ele><time>2026-03-28T11:02:46Z</time></trkpt><trkpt lat="43.61328340170048" lon="11.298767028969051"><ele>241.25</ele><time>2026-03-28T11:02:47Z</time></trkpt><trkpt lat="43.613197196614514" lon="11.298601109008477"><ele>242.5</ele><time>2026-03-28T11:02:48Z</time></trkpt><trkpt lat="43.61313154551848" lon="11.298461603396499"><ele>243.75</ele><time>2026-03-28T11:02:49Z</time></trkpt><trkpt lat="43.61307967404479" lon="11.298328931878228"><ele>245.0</ele><time>2026-03-28T11:02:50Z</time></trkpt><trkpt lat="43.61305077933131" lon="11.2981830120207"><ele>244.25</ele><time>2026-03-28T11:02:51Z</time></trkpt><trkpt lat="43.61308083519024" lon="11.298019873763261"><ele>243.5</ele><time>2026-03-28T11:02:52Z</time></trkpt><trkpt lat="43.61314697306545" lon="11.297888076080152"><ele>242.75</ele><time>2026-03-28T11:02:53Z</time></trkpt><trkpt lat="43.613249654800555" lon="11.29780988434993"><ele>242.0</ele><time>2026-03-28T11:02:54Z</time></trkpt><trkpt lat="43.613375271231966" lon="11.297794238973596"><ele>242.0</ele><time>2026-03-28T11:02:55Z</time></trkpt><trkpt lat="43.613490365291014" lon="11.29784217392452"><ele>242.0</ele><time>2026-03-28T11:02:56Z</time></trkpt><trkpt lat="43.61357549664608" lon="11.2979312184828"><ele>242.0</ele><time>2026-03-28T11:02:57Z</time></trkpt><trkpt lat="43.61363522185136" lon="11.298031151826063"><ele>242.0</ele><time>2026-03-28T11:02:58Z</time></trkpt><trkpt lat="43.61368190673366" lon="11.298116215078224"><ele>242.0</ele><time>2026-03-28T11:02:59Z</time></trkpt><trkpt lat="43.61375401134673" lon="11.29820495204705"><ele>240.5</ele><time>2026-03-28T11:03:01Z</time></trkpt><trkpt lat="43.61380253779901" lon="11.298019305414549"><ele>239.0</ele><time>2026-03-28T11:03:02Z</time></trkpt><trkpt lat="43.61387541780666" lon="11.297949809168657"><ele>237.5</ele><time>2026-03-28T11:03:04Z</time></trkpt><trkpt lat="43.61398359461766" lon="11.29792171823169"><ele>236.0</ele><time>2026-03-28T11:03:05Z</time></trkpt><trkpt lat="43.61411177401696" lon="11.297893669437507"><ele>236.0</ele><time>2026-03-28T11:03:06Z</time></trkpt><trkpt lat="43.61426127092304" lon="11.297875780367143"><ele>236.0</ele><time>2026-03-28T11:03:07Z</time></trkpt><trkpt lat="43.61442343264499" lon="11.297836176706477"><ele>236.0</ele><time>2026-03-28T11:03:08Z</time></trkpt><trkpt lat="43.61460457889747" lon="11.297774921012982"><ele>235.66666666666669</ele><time>2026-03-28T11:03:09Z</time></trkpt><trkpt lat="43.61478985992758" lon="11.297713142832691"><ele>235.33333333333331</ele><time>2026-03-28T11:03:10Z</time></trkpt><trkpt lat="43.61498284823727" lon="11.297630248011169"><ele>235.0</ele><time>2026-03-28T11:03:11Z</time></trkpt><trkpt lat="43.61518507423244" lon="11.297546514404488"><ele>235.0</ele><time>2026-03-28T11:03:12Z</time></trkpt><trkpt lat="43.61538349479282" lon="11.29747228622321"><ele>235.0</ele><time>2026-03-28T11:03:13Z</time></trkpt><trkpt lat="43.61557360133233" lon="11.297412322934916"><ele>235.0</ele><time>2026-03-28T11:03:14Z</time></trkpt><trkpt lat="43.615752499688966" lon="11.297337540410497"><ele>234.33333333333331</ele><time>2026-03-28T11:03:15Z</time></trkpt><trkpt lat="43.61593033298523" lon="11.297227366019417"><ele>233.66666666666669</ele><time>2026-03-28T11:03:16Z</time></trkpt><trkpt lat="43.61609379130835" lon="11.29706728871276"><ele>233.0</ele><time>2026-03-28T11:03:17Z</time></trkpt><trkpt lat="43.616248190106475" lon="11.296853091431483"><ele>233.0</ele><time>2026-03-28T11:03:18Z</time></trkpt><trkpt lat="43.6163810224728" lon="11.296638104499706"><ele>233.0</ele><time>2026-03-28T11:03:19Z</time></trkpt><trkpt lat="43.616516168744056" lon="11.29648441514459"><ele>233.0</ele><time>2026-03-28T11:03:19.999Z</time></trkpt><trkpt lat="43.61662725126504" lon="11.296341978370863"><ele>228.66666666666669</ele><time>2026-03-28T11:03:20.999Z</time></trkpt><trkpt lat="43.61676363919795" lon="11.29621755125646"><ele>224.33333333333331</ele><time>2026-03-28T11:03:21.999Z</time></trkpt><trkpt lat="43.616919334565246" lon="11.296121000704861"><ele>220.0</ele><time>2026-03-28T11:03:22.999Z</time></trkpt><trkpt lat="43.617102258874354" lon="11.296078832890204"><ele>220.0</ele><time>2026-03-28T11:03:23.999Z</time></trkpt><trkpt lat="43.61727532044042" lon="11.29606423053978"><ele>220.0</ele><time>2026-03-28T11:03:24.999Z</time></trkpt><trkpt lat="43.61748584148762" lon="11.29602556105651"><ele>220.0</ele><time>2026-03-28T11:03:25.999Z</time></trkpt><trkpt lat="43.61768426260804" lon="11.295989738306442"><ele>218.0</ele><time>2026-03-28T11:03:26.999Z</time></trkpt><trkpt lat="43.61785797666394" lon="11.295961085618925"><ele>216.0</ele><time>2026-03-28T11:03:27.999Z</time></trkpt><trkpt lat="43.618008743431325" lon="11.295946267447022"><ele>214.0</ele><time>2026-03-28T11:03:28.999Z</time></trkpt><trkpt lat="43.61815365644646" lon="11.29598862994562"><ele>214.0</ele><time>2026-03-28T11:03:29.999Z</time></trkpt><trkpt lat="43.61829828671853" lon="11.296104129667164"><ele>214.0</ele><time>2026-03-28T11:03:30.999Z</time></trkpt><trkpt lat="43.6184737662493" lon="11.296246551945043"><ele>214.0</ele><time>2026-03-28T11:03:31.999Z</time></trkpt><trkpt lat="43.61863273254986" lon="11.29640634099703"><ele>215.0</ele><time>2026-03-28T11:03:32.999Z</time></trkpt><trkpt lat="43.61876858819551" lon="11.296549794120526"><ele>216.0</ele><time>2026-03-28T11:03:33.999Z</time></trkpt><trkpt lat="43.618960427468494" lon="11.296579638196057"><ele>217.0</ele><time>2026-03-28T11:03:34.999Z</time></trkpt><trkpt lat="43.61914970812823" lon="11.296585428415483"><ele>217.0</ele><time>2026-03-28T11:03:35.999Z</time></trkpt><trkpt lat="43.619318642729965" lon="11.296619579461497"><ele>217.0</ele><time>2026-03-28T11:03:36.999Z</time></trkpt><trkpt lat="43.619465845609604" lon="11.296658544088311"><ele>217.0</ele><time>2026-03-28T11:03:37.999Z</time></trkpt><trkpt lat="43.61958252662199" lon="11.296746239642367"><ele>215.25</ele><time>2026-03-28T11:03:38.999Z</time></trkpt><trkpt lat="43.6196360940307" lon="11.296922063142777"><ele>213.5</ele><time>2026-03-28T11:03:39.999Z</time></trkpt><trkpt lat="43.619702204872986" lon="11.29711704201607"><ele>211.75</ele><time>2026-03-28T11:03:40.999Z</time></trkpt><trkpt lat="43.619756321829726" lon="11.297287831981773"><ele>210.0</ele><time>2026-03-28T11:03:42Z</time></trkpt><trkpt lat="43.619867578989556" lon="11.29738721926826"><ele>210.0</ele><time>2026-03-28T11:03:43Z</time></trkpt><trkpt lat="43.61999230084413" lon="11.297443537119142"><ele>210.0</ele><time>2026-03-28T11:03:44Z</time></trkpt><trkpt lat="43.62010737573723" lon="11.297471795852031"><ele>210.0</ele><time>2026-03-28T11:03:45Z</time></trkpt><trkpt lat="43.62019418800467" lon="11.297455228258487"><ele>210.0</ele><time>2026-03-28T11:03:46Z</time></trkpt><trkpt lat="43.62029608796592" lon="11.29736518752159"><ele>211.5</ele><time>2026-03-28T11:03:47Z</time></trkpt><trkpt lat="43.62037676125609" lon="11.297240699981327"><ele>213.0</ele><time>2026-03-28T11:03:48Z</time></trkpt><trkpt lat="43.620405195088495" lon="11.297090400010067"><ele>214.5</ele><time>2026-03-28T11:03:49Z</time></trkpt><trkpt lat="43.620382422242706" lon="11.296913205290469"><ele>216.0</ele><time>2026-03-28T11:03:50Z</time></trkpt><trkpt lat="43.620326815354844" lon="11.296717741947239"><ele>213.0</ele><time>2026-03-28T11:03:51Z</time></trkpt><trkpt lat="43.620271553407605" lon="11.296463689677767"><ele>210.0</ele><time>2026-03-28T11:03:52Z</time></trkpt><trkpt lat="43.620247193031226" lon="11.296191452373007"><ele>207.0</ele><time>2026-03-28T11:03:53Z</time></trkpt><trkpt lat="43.620148575230814" lon="11.295920145583327"><ele>205.66666666666669</ele><time>2026-03-28T11:03:54Z</time></trkpt><trkpt lat="43.62004349560216" lon="11.295675917795961"><ele>204.33333333333334</ele><time>2026-03-28T11:03:55Z</time></trkpt><trkpt lat="43.61994215702908" lon="11.295446203793329"><ele>203.0</ele><time>2026-03-28T11:03:56Z</time></trkpt><trkpt lat="43.61989254395983" lon="11.295184899247966"><ele>203.0</ele><time>2026-03-28T11:03:57Z</time></trkpt><trkpt lat="43.61982061823217" lon="11.295005757122127"><ele>203.0</ele><time>2026-03-28T11:03:58Z</time></trkpt><trkpt lat="43.61972128230223" lon="11.29484576504512"><ele>203.0</ele><time>2026-03-28T11:03:59Z</time></trkpt><trkpt lat="43.61958828178686" lon="11.29471776052792"><ele>200.0</ele><time>2026-03-28T11:04:00Z</time></trkpt><trkpt lat="43.61942737103703" lon="11.294639032838424"><ele>197.0</ele><time>2026-03-28T11:04:01Z</time></trkpt><trkpt lat="43.61925759131606" lon="11.294531390740644"><ele>194.0</ele><time>2026-03-28T11:04:02Z</time></trkpt><trkpt lat="43.619145395918686" lon="11.294350404090496"><ele>194.0</ele><time>2026-03-28T11:04:03Z</time></trkpt><trkpt lat="43.6190604080537" lon="11.294162095662942"><ele>194.0</ele><time>2026-03-28T11:04:04Z</time></trkpt><trkpt lat="43.61896773927366" lon="11.293924740273722"><ele>194.0</ele><time>2026-03-28T11:04:05Z</time></trkpt><trkpt lat="43.61884404361452" lon="11.293610937223848"><ele>194.33333333333334</ele><time>2026-03-28T11:04:06Z</time></trkpt><trkpt lat="43.61875008503639" lon="11.293372573660482"><ele>194.66666666666669</ele><time>2026-03-28T11:04:07Z</time></trkpt><trkpt lat="43.618661427981465" lon="11.293145130038212"><ele>195.0</ele><time>2026-03-28T11:04:08Z</time></trkpt><trkpt lat="43.61858119475057" lon="11.292929185266663"><ele>192.33333333333334</ele><time>2026-03-28T11:04:09Z</time></trkpt><trkpt lat="43.618520365394" lon="11.292701377095922"><ele>189.66666666666669</ele><time>2026-03-28T11:04:10Z</time></trkpt><trkpt lat="43.618499112510165" lon="11.292484189196047"><ele>187.0</ele><time>2026-03-28T11:04:11Z</time></trkpt><trkpt lat="43.61851413336207" lon="11.292254607716023"><ele>186.0</ele><time>2026-03-28T11:04:12Z</time></trkpt><trkpt lat="43.618560035279316" lon="11.292007138670257"><ele>185.0</ele><time>2026-03-28T11:04:13Z</time></trkpt><trkpt lat="43.61861976281564" lon="11.291734699327874"><ele>184.0</ele><time>2026-03-28T11:04:14Z</time></trkpt><trkpt lat="43.61867633747496" lon="11.29143735758099"><ele>185.66666666666669</ele><time>2026-03-28T11:04:15Z</time></trkpt><trkpt lat="43.61874206774714" lon="11.291143233282957"><ele>187.33333333333334</ele><time>2026-03-28T11:04:16Z</time></trkpt><trkpt lat="43.618808532295695" lon="11.290858185346869"><ele>189.0</ele><time>2026-03-28T11:04:17Z</time></trkpt><trkpt lat="43.61886961383581" lon="11.290581499842236"><ele>189.0</ele><time>2026-03-28T11:04:18Z</time></trkpt><trkpt lat="43.61892412351837" lon="11.290287770918502"><ele>189.0</ele><time>2026-03-28T11:04:19Z</time></trkpt><trkpt lat="43.61897683638993" lon="11.289982932241546"><ele>189.0</ele><time>2026-03-28T11:04:20Z</time></trkpt><trkpt lat="43.61902863419881" lon="11.289670012758036"><ele>187.66666666666666</ele><time>2026-03-28T11:04:21Z</time></trkpt><trkpt lat="43.6190971392684" lon="11.28938000275397"><ele>186.33333333333331</ele><time>2026-03-28T11:04:22Z</time></trkpt><trkpt lat="43.61915549087186" lon="11.289103618528474"><ele>185.0</ele><time>2026-03-28T11:04:23Z</time></trkpt><trkpt lat="43.61922679185372" lon="11.288822889222823"><ele>182.0</ele><time>2026-03-28T11:04:24Z</time></trkpt><trkpt lat="43.61931279442636" lon="11.288533370464378"><ele>179.0</ele><time>2026-03-28T11:04:25Z</time></trkpt><trkpt lat="43.619414875156096" lon="11.288242437153091"><ele>181.0</ele><time>2026-03-28T11:04:26Z</time></trkpt><trkpt lat="43.61950695108939" lon="11.287971405661134"><ele>183.0</ele><time>2026-03-28T11:04:27Z</time></trkpt><trkpt lat="43.619625244224615" lon="11.28772594953573"><ele>185.0</ele><time>2026-03-28T11:04:28Z</time></trkpt><trkpt lat="43.61975013916544" lon="11.287471785355672"><ele>182.0</ele><time>2026-03-28T11:04:29Z</time></trkpt><trkpt lat="43.619871187382465" lon="11.287228054181101"><ele>179.0</ele><time>2026-03-28T11:04:30Z</time></trkpt><trkpt lat="43.61997848207188" lon="11.287005767900284"><ele>176.0</ele><time>2026-03-28T11:04:31Z</time></trkpt><trkpt lat="43.62010080568416" lon="11.286815356978133"><ele>176.0</ele><time>2026-03-28T11:04:32Z</time></trkpt><trkpt lat="43.62021332714832" lon="11.286630144092472"><ele>176.0</ele><time>2026-03-28T11:04:33Z</time></trkpt><trkpt lat="43.62031542021961" lon="11.286462503775157"><ele>176.0</ele><time>2026-03-28T11:04:34Z</time></trkpt><trkpt lat="43.62044885281925" lon="11.286346311235869"><ele>174.66666666666666</ele><time>2026-03-28T11:04:35Z</time></trkpt><trkpt lat="43.620598816728666" lon="11.286266147530249"><ele>173.33333333333334</ele><time>2026-03-28T11:04:36Z</time></trkpt><trkpt lat="43.62077097634539" lon="11.286220100826402"><ele>172.0</ele><time>2026-03-28T11:04:37Z</time></trkpt><trkpt lat="43.62096493209822" lon="11.286216363328487"><ele>171.66666666666669</ele><time>2026-03-28T11:04:38Z</time></trkpt><trkpt lat="43.6211640705141" lon="11.286209590101604"><ele>171.33333333333334</ele><time>2026-03-28T11:04:39Z</time></trkpt><trkpt lat="43.621360993558746" lon="11.286188599045477"><ele>171.0</ele><time>2026-03-28T11:04:40Z</time></trkpt><trkpt lat="43.621553433162184" lon="11.286167139912761"><ele>171.0</ele><time>2026-03-28T11:04:41Z</time></trkpt><trkpt lat="43.62172943875777" lon="11.286148027664694"><ele>171.0</ele><time>2026-03-28T11:04:42Z</time></trkpt><trkpt lat="43.6218937736182" lon="11.28612370713459"><ele>171.0</ele><time>2026-03-28T11:04:43Z</time></trkpt><trkpt lat="43.62204659871845" lon="11.286080900099437"><ele>172.66666666666666</ele><time>2026-03-28T11:04:44Z</time></trkpt><trkpt lat="43.622187449534465" lon="11.285996508444338"><ele>174.33333333333331</ele><time>2026-03-28T11:04:45Z</time></trkpt><trkpt lat="43.62232875942462" lon="11.285873026037857"><ele>176.0</ele><time>2026-03-28T11:04:46Z</time></trkpt><trkpt lat="43.6224802117396" lon="11.285723843869427"><ele>175.66666666666666</ele><time>2026-03-28T11:04:47Z</time></trkpt><trkpt lat="43.62263347790629" lon="11.285548022625548"><ele>175.33333333333334</ele><time>2026-03-28T11:04:48Z</time></trkpt><trkpt lat="43.62279144993759" lon="11.2853561015394"><ele>175.0</ele><time>2026-03-28T11:04:49Z</time></trkpt><trkpt lat="43.62293908749146" lon="11.2851882056349"><ele>175.0</ele><time>2026-03-28T11:04:50Z</time></trkpt><trkpt lat="43.623079030023504" lon="11.28503227130015"><ele>175.0</ele><time>2026-03-28T11:04:51Z</time></trkpt><trkpt lat="43.62322265711424" lon="11.284891437730233"><ele>175.0</ele><time>2026-03-28T11:04:52Z</time></trkpt><trkpt lat="43.62338455657702" lon="11.284764117139876"><ele>174.0</ele><time>2026-03-28T11:04:53Z</time></trkpt><trkpt lat="43.62355330960022" lon="11.284661922857257"><ele>173.0</ele><time>2026-03-28T11:04:54Z</time></trkpt><trkpt lat="43.623718949625705" lon="11.284591352693894"><ele>172.0</ele><time>2026-03-28T11:04:55Z</time></trkpt><trkpt lat="43.623873761871295" lon="11.284506582158597"><ele>172.0</ele><time>2026-03-28T11:04:56Z</time></trkpt><trkpt lat="43.62400342364866" lon="11.284382586665934"><ele>172.0</ele><time>2026-03-28T11:04:57Z</time></trkpt><trkpt lat="43.62411351597772" lon="11.284202021566417"><ele>172.0</ele><time>2026-03-28T11:04:58Z</time></trkpt><trkpt lat="43.6242099983265" lon="11.283988269133124"><ele>170.66666666666669</ele><time>2026-03-28T11:04:59Z</time></trkpt><trkpt lat="43.6242971337186" lon="11.283766407964546"><ele>169.33333333333334</ele><time>2026-03-28T11:05:00Z</time></trkpt><trkpt lat="43.624380603942654" lon="11.283559049417642"><ele>168.0</ele><time>2026-03-28T11:05:01Z</time></trkpt><trkpt lat="43.62446543252065" lon="11.283369971340818"><ele>168.66666666666666</ele><time>2026-03-28T11:05:02Z</time></trkpt><trkpt lat="43.624549942083355" lon="11.283184868510851"><ele>169.33333333333331</ele><time>2026-03-28T11:05:03Z</time></trkpt><trkpt lat="43.62463515570642" lon="11.282993302415699"><ele>170.0</ele><time>2026-03-28T11:05:04Z</time></trkpt><trkpt lat="43.624722697599736" lon="11.282792955329969"><ele>168.66666666666666</ele><time>2026-03-28T11:05:05Z</time></trkpt><trkpt lat="43.6248142846648" lon="11.282594910344175"><ele>167.33333333333334</ele><time>2026-03-28T11:05:06Z</time></trkpt><trkpt lat="43.62490218421802" lon="11.282396205076337"><ele>166.0</ele><time>2026-03-28T11:05:07Z</time></trkpt><trkpt lat="43.62498304458996" lon="11.282212522498908"><ele>165.5</ele><time>2026-03-28T11:05:08Z</time></trkpt><trkpt lat="43.62505742193783" lon="11.282049295240668"><ele>165.0</ele><time>2026-03-28T11:05:09Z</time></trkpt><trkpt lat="43.6251249858604" lon="11.281902682290129"><ele>164.5</ele><time>2026-03-28T11:05:10Z</time></trkpt><trkpt lat="43.62517972385887" lon="11.281776334050466"><ele>164.0</ele><time>2026-03-28T11:05:11Z</time></trkpt><trkpt lat="43.625228097576155" lon="11.281655675436632"><ele>164.0</ele><time>2026-03-28T11:05:12Z</time></trkpt><trkpt lat="43.62527937022328" lon="11.281536134787654"><ele>164.0</ele><time>2026-03-28T11:05:13Z</time></trkpt><trkpt lat="43.62534101149721" lon="11.281401832164866"><ele>164.0</ele><time>2026-03-28T11:05:14Z</time></trkpt><trkpt lat="43.62541380622229" lon="11.281243760934142"><ele>164.0</ele><time>2026-03-28T11:05:15Z</time></trkpt><trkpt lat="43.62549178520712" lon="11.281062706007669"><ele>164.0</ele><time>2026-03-28T11:05:16Z</time></trkpt><trkpt lat="43.625570334626026" lon="11.28086912686391"><ele>164.0</ele><time>2026-03-28T11:05:17Z</time></trkpt><trkpt lat="43.62566092296403" lon="11.280663838769986"><ele>164.0</ele><time>2026-03-28T11:05:18Z</time></trkpt><trkpt lat="43.62575492342322" lon="11.280440979070578"><ele>164.0</ele><time>2026-03-28T11:05:18.999Z</time></trkpt><trkpt lat="43.62585401587554" lon="11.280210262110625"><ele>164.0</ele><time>2026-03-28T11:05:19.999Z</time></trkpt><trkpt lat="43.625953193867396" lon="11.27998583342526"><ele>164.0</ele><time>2026-03-28T11:05:20.999Z</time></trkpt><trkpt lat="43.626054409172845" lon="11.27975939835577"><ele>165.0</ele><time>2026-03-28T11:05:21.999Z</time></trkpt><trkpt lat="43.626166324206345" lon="11.279522015489965"><ele>166.0</ele><time>2026-03-28T11:05:22.999Z</time></trkpt><trkpt lat="43.626304895988696" lon="11.27928703958929"><ele>167.0</ele><time>2026-03-28T11:05:23.999Z</time></trkpt><trkpt lat="43.62645940023095" lon="11.279065765829419"><ele>164.5</ele><time>2026-03-28T11:05:24.999Z</time></trkpt><trkpt lat="43.62661631344246" lon="11.278833439388738"><ele>162.0</ele><time>2026-03-28T11:05:25.999Z</time></trkpt><trkpt lat="43.626773166988265" lon="11.27860309263622"><ele>162.0</ele><time>2026-03-28T11:05:26.999Z</time></trkpt><trkpt lat="43.62692704858226" lon="11.278375611969823"><ele>162.0</ele><time>2026-03-28T11:05:27.999Z</time></trkpt><trkpt lat="43.627085216690745" lon="11.278153618958578"><ele>162.0</ele><time>2026-03-28T11:05:28.999Z</time></trkpt><trkpt lat="43.62725117113536" lon="11.277945855239926"><ele>162.0</ele><time>2026-03-28T11:05:29.999Z</time></trkpt><trkpt lat="43.62742188563252" lon="11.277762888973704"><ele>162.0</ele><time>2026-03-28T11:05:30.999Z</time></trkpt><trkpt lat="43.6276089523912" lon="11.277599539416023"><ele>162.0</ele><time>2026-03-28T11:05:31.999Z</time></trkpt><trkpt lat="43.627810374171936" lon="11.277451907282238"><ele>162.0</ele><time>2026-03-28T11:05:32.999Z</time></trkpt><trkpt lat="43.62800649877558" lon="11.277316081127735"><ele>162.0</ele><time>2026-03-28T11:05:33.999Z</time></trkpt><trkpt lat="43.62820964373009" lon="11.277196167463153"><ele>162.0</ele><time>2026-03-28T11:05:34.999Z</time></trkpt><trkpt lat="43.628422302189584" lon="11.27708694690705"><ele>162.0</ele><time>2026-03-28T11:05:35.999Z</time></trkpt><trkpt lat="43.62863974825098" lon="11.276979151547543"><ele>162.66666666666666</ele><time>2026-03-28T11:05:36.999Z</time></trkpt><trkpt lat="43.628847717968014" lon="11.276882053993273"><ele>163.33333333333331</ele><time>2026-03-28T11:05:37.999Z</time></trkpt><trkpt lat="43.629041917346534" lon="11.276788582033578"><ele>164.0</ele><time>2026-03-28T11:05:38.999Z</time></trkpt><trkpt lat="43.629229460078456" lon="11.276671311723824"><ele>164.0</ele><time>2026-03-28T11:05:39.999Z</time></trkpt><trkpt lat="43.629397288673395" lon="11.276509566959959"><ele>164.0</ele><time>2026-03-28T11:05:40.999Z</time></trkpt><trkpt lat="43.629548799475735" lon="11.276313481287922"><ele>164.0</ele><time>2026-03-28T11:05:41.999Z</time></trkpt><trkpt lat="43.62970167040322" lon="11.276094212153529"><ele>162.5</ele><time>2026-03-28T11:05:42.999Z</time></trkpt><trkpt lat="43.62987692486205" lon="11.275882912802196"><ele>161.0</ele><time>2026-03-28T11:05:43.999Z</time></trkpt><trkpt lat="43.630082637766826" lon="11.275691559451019"><ele>159.66666666666666</ele><time>2026-03-28T11:05:44.999Z</time></trkpt><trkpt lat="43.63028241901453" lon="11.275534188064793"><ele>158.33333333333334</ele><time>2026-03-28T11:05:45.999Z</time></trkpt><trkpt lat="43.63047172466838" lon="11.275390549315626"><ele>157.0</ele><time>2026-03-28T11:05:46.999Z</time></trkpt><trkpt lat="43.63065461247031" lon="11.275256802790324"><ele>157.0</ele><time>2026-03-28T11:05:48Z</time></trkpt><trkpt lat="43.63083932859414" lon="11.275124029143244"><ele>157.0</ele><time>2026-03-28T11:05:49Z</time></trkpt><trkpt lat="43.63104739791882" lon="11.275004198337662"><ele>157.0</ele><time>2026-03-28T11:05:50Z</time></trkpt><trkpt lat="43.63128370791814" lon="11.274929384182716"><ele>157.0</ele><time>2026-03-28T11:05:51Z</time></trkpt><trkpt lat="43.63153029557264" lon="11.274873378123635"><ele>157.0</ele><time>2026-03-28T11:05:52Z</time></trkpt><trkpt lat="43.631746993468816" lon="11.274822598730548"><ele>157.0</ele><time>2026-03-28T11:05:53Z</time></trkpt><trkpt lat="43.63193636444731" lon="11.27476870114356"><ele>157.0</ele><time>2026-03-28T11:05:54Z</time></trkpt><trkpt lat="43.632101462640016" lon="11.274718747743314"><ele>157.0</ele><time>2026-03-28T11:05:55Z</time></trkpt><trkpt lat="43.63224177419123" lon="11.274654338285837"><ele>156.5</ele><time>2026-03-28T11:05:56Z</time></trkpt><trkpt lat="43.63235194424418" lon="11.2745468179558"><ele>156.0</ele><time>2026-03-28T11:05:57Z</time></trkpt><trkpt lat="43.63242429253776" lon="11.274381783897509"><ele>155.5</ele><time>2026-03-28T11:05:58Z</time></trkpt><trkpt lat="43.6324565164817" lon="11.274168167208664"><ele>155.0</ele><time>2026-03-28T11:05:59Z</time></trkpt><trkpt lat="43.6324332565673" lon="11.273955396486583"><ele>154.33333333333331</ele><time>2026-03-28T11:06:00Z</time></trkpt><trkpt lat="43.632354745417246" lon="11.27375838853303"><ele>153.66666666666666</ele><time>2026-03-28T11:06:01Z</time></trkpt><trkpt lat="43.63223087326002" lon="11.273568740482323"><ele>153.0</ele><time>2026-03-28T11:06:02Z</time></trkpt><trkpt lat="43.632117887143394" lon="11.273356007857057"><ele>153.0</ele><time>2026-03-28T11:06:03Z</time></trkpt><trkpt lat="43.632027790819684" lon="11.273166448422648"><ele>153.0</ele><time>2026-03-28T11:06:04Z</time></trkpt><trkpt lat="43.6319745616569" lon="11.272977200950068"><ele>153.0</ele><time>2026-03-28T11:06:05Z</time></trkpt><trkpt lat="43.631968858105125" lon="11.27278001573383"><ele>153.66666666666666</ele><time>2026-03-28T11:06:06Z</time></trkpt><trkpt lat="43.63199376779364" lon="11.272567028500694"><ele>154.33333333333331</ele><time>2026-03-28T11:06:07Z</time></trkpt><trkpt lat="43.63210889369112" lon="11.272382733767627"><ele>155.0</ele><time>2026-03-28T11:06:08Z</time></trkpt><trkpt lat="43.63222661697505" lon="11.272171389152476"><ele>155.0</ele><time>2026-03-28T11:06:09Z</time></trkpt><trkpt lat="43.63238334320461" lon="11.271975525191465"><ele>155.0</ele><time>2026-03-28T11:06:10Z</time></trkpt><trkpt lat="43.63254214953085" lon="11.271761827315848"><ele>155.0</ele><time>2026-03-28T11:06:11Z</time></trkpt><trkpt lat="43.63269995853708" lon="11.271543210326435"><ele>154.5</ele><time>2026-03-28T11:06:12Z</time></trkpt><trkpt lat="43.63286313398935" lon="11.271313038687166"><ele>154.0</ele><time>2026-03-28T11:06:13Z</time></trkpt><trkpt lat="43.63302976110574" lon="11.271076763978451"><ele>154.0</ele><time>2026-03-28T11:06:14Z</time></trkpt><trkpt lat="43.633191519387196" lon="11.270850614632723"><ele>154.0</ele><time>2026-03-28T11:06:15Z</time></trkpt><trkpt lat="43.63334401657878" lon="11.270640964351077"><ele>154.0</ele><time>2026-03-28T11:06:16Z</time></trkpt><trkpt lat="43.633490647147184" lon="11.27044202393526"><ele>153.66666666666669</ele><time>2026-03-28T11:06:17Z</time></trkpt><trkpt lat="43.63363069645795" lon="11.270241016077216"><ele>153.33333333333334</ele><time>2026-03-28T11:06:18Z</time></trkpt><trkpt lat="43.633765880748676" lon="11.270079426031431"><ele>153.0</ele><time>2026-03-28T11:06:19Z</time></trkpt><trkpt lat="43.633876769330904" lon="11.269902131070669"><ele>156.0</ele><time>2026-03-28T11:06:20Z</time></trkpt><trkpt lat="43.634042993408855" lon="11.269768762739771"><ele>159.0</ele><time>2026-03-28T11:06:21Z</time></trkpt><trkpt lat="43.63425531122671" lon="11.26971151308506"><ele>162.0</ele><time>2026-03-28T11:06:22Z</time></trkpt><trkpt lat="43.63445652792595" lon="11.269633767441164"><ele>159.33333333333334</ele><time>2026-03-28T11:06:23Z</time></trkpt><trkpt lat="43.63465587634781" lon="11.269564607894749"><ele>156.66666666666669</ele><time>2026-03-28T11:06:24Z</time></trkpt><trkpt lat="43.63485536394779" lon="11.26943372845398"><ele>154.0</ele><time>2026-03-28T11:06:25Z</time></trkpt><trkpt lat="43.635051361317686" lon="11.269261616739696"><ele>154.0</ele><time>2026-03-28T11:06:26Z</time></trkpt><trkpt lat="43.635234698745606" lon="11.269068010644917"><ele>154.0</ele><time>2026-03-28T11:06:27Z</time></trkpt><trkpt lat="43.635378804454845" lon="11.268866571339611"><ele>154.0</ele><time>2026-03-28T11:06:28Z</time></trkpt><trkpt lat="43.6354830357121" lon="11.268636221430889"><ele>153.5</ele><time>2026-03-28T11:06:29Z</time></trkpt><trkpt lat="43.63555466358461" lon="11.268355225635078"><ele>153.0</ele><time>2026-03-28T11:06:30Z</time></trkpt><trkpt lat="43.63560106312229" lon="11.26803422322129"><ele>153.0</ele><time>2026-03-28T11:06:31Z</time></trkpt><trkpt lat="43.635655387308596" lon="11.267720691909624"><ele>153.0</ele><time>2026-03-28T11:06:32Z</time></trkpt><trkpt lat="43.63569538325731" lon="11.267440772942392"><ele>153.0</ele><time>2026-03-28T11:06:33Z</time></trkpt><trkpt lat="43.63571728668454" lon="11.267202301994729"><ele>153.66666666666666</ele><time>2026-03-28T11:06:34Z</time></trkpt><trkpt lat="43.635780938930246" lon="11.26700192594938"><ele>154.33333333333331</ele><time>2026-03-28T11:06:35Z</time></trkpt><trkpt lat="43.635861618266205" lon="11.266797906410076"><ele>155.0</ele><time>2026-03-28T11:06:36Z</time></trkpt><trkpt lat="43.6359807259589" lon="11.266624844786445"><ele>155.66666666666666</ele><time>2026-03-28T11:06:37Z</time></trkpt><trkpt lat="43.63614401549254" lon="11.26648833535834"><ele>156.33333333333334</ele><time>2026-03-28T11:06:38Z</time></trkpt><trkpt lat="43.63634005163658" lon="11.266384311786222"><ele>157.0</ele><time>2026-03-28T11:06:39Z</time></trkpt><trkpt lat="43.636551742540206" lon="11.266275855850024"><ele>157.0</ele><time>2026-03-28T11:06:40Z</time></trkpt><trkpt lat="43.63674527119527" lon="11.266203122396165"><ele>157.0</ele><time>2026-03-28T11:06:41Z</time></trkpt><trkpt lat="43.6369236821121" lon="11.266121286027767"><ele>157.0</ele><time>2026-03-28T11:06:42Z</time></trkpt><trkpt lat="43.63710468913897" lon="11.266036402598973"><ele>156.33333333333334</ele><time>2026-03-28T11:06:43Z</time></trkpt><trkpt lat="43.63729444780531" lon="11.265949909223163"><ele>155.66666666666666</ele><time>2026-03-28T11:06:44Z</time></trkpt><trkpt lat="43.63748414391537" lon="11.265860735187816"><ele>155.0</ele><time>2026-03-28T11:06:45Z</time></trkpt><trkpt lat="43.637683788754764" lon="11.265768145499644"><ele>155.0</ele><time>2026-03-28T11:06:46Z</time></trkpt><trkpt lat="43.6378865040212" lon="11.265668850298786"><ele>155.0</ele><time>2026-03-28T11:06:47Z</time></trkpt><trkpt lat="43.63809418939007" lon="11.265562003582188"><ele>155.0</ele><time>2026-03-28T11:06:48Z</time></trkpt><trkpt lat="43.63830893188995" lon="11.26545426460807"><ele>155.0</ele><time>2026-03-28T11:06:49Z</time></trkpt><trkpt lat="43.63852020823312" lon="11.265343456319997"><ele>155.0</ele><time>2026-03-28T11:06:50Z</time></trkpt><trkpt lat="43.638734500016604" lon="11.26522919525328"><ele>153.5</ele><time>2026-03-28T11:06:51Z</time></trkpt><trkpt lat="43.63895069824194" lon="11.26511316153482"><ele>152.0</ele><time>2026-03-28T11:06:52Z</time></trkpt><trkpt lat="43.63916668354714" lon="11.264995143566107"><ele>152.0</ele><time>2026-03-28T11:06:53Z</time></trkpt><trkpt lat="43.639379282152184" lon="11.264880832619946"><ele>152.0</ele><time>2026-03-28T11:06:54Z</time></trkpt><trkpt lat="43.639577177938484" lon="11.264772252329859"><ele>152.0</ele><time>2026-03-28T11:06:55Z</time></trkpt><trkpt lat="43.63976661110734" lon="11.264668203623609"><ele>152.66666666666666</ele><time>2026-03-28T11:06:56Z</time></trkpt><trkpt lat="43.639947621258415" lon="11.264575494703179"><ele>153.33333333333334</ele><time>2026-03-28T11:06:57Z</time></trkpt><trkpt lat="43.64012182287411" lon="11.264490425456914"><ele>154.0</ele><time>2026-03-28T11:06:58Z</time></trkpt><trkpt lat="43.640291175619716" lon="11.264402919140105"><ele>152.66666666666669</ele><time>2026-03-28T11:06:59Z</time></trkpt><trkpt lat="43.64045127821501" lon="11.26430913071828"><ele>151.33333333333334</ele><time>2026-03-28T11:07:00Z</time></trkpt><trkpt lat="43.640607091250914" lon="11.264221132806131"><ele>150.0</ele><time>2026-03-28T11:07:01Z</time></trkpt><trkpt lat="43.64076598794939" lon="11.26416227685506"><ele>150.0</ele><time>2026-03-28T11:07:02Z</time></trkpt><trkpt lat="43.64095097145806" lon="11.264131380138187"><ele>150.0</ele><time>2026-03-28T11:07:03Z</time></trkpt><trkpt lat="43.641158176599546" lon="11.264159917940564"><ele>150.0</ele><time>2026-03-28T11:07:04Z</time></trkpt><trkpt lat="43.64137220201632" lon="11.264220759481582"><ele>150.66666666666666</ele><time>2026-03-28T11:07:05Z</time></trkpt><trkpt lat="43.64158116932517" lon="11.264309193216361"><ele>151.33333333333331</ele><time>2026-03-28T11:07:06Z</time></trkpt><trkpt lat="43.6417824194445" lon="11.264441269871718"><ele>152.0</ele><time>2026-03-28T11:07:07Z</time></trkpt><trkpt lat="43.64198805410696" lon="11.264616177912837"><ele>151.5</ele><time>2026-03-28T11:07:08Z</time></trkpt><trkpt lat="43.64218085605275" lon="11.264806488392923"><ele>151.0</ele><time>2026-03-28T11:07:09Z</time></trkpt><trkpt lat="43.64236868798291" lon="11.264982208466192"><ele>151.0</ele><time>2026-03-28T11:07:10Z</time></trkpt><trkpt lat="43.64255928450592" lon="11.265153382873955"><ele>151.0</ele><time>2026-03-28T11:07:11Z</time></trkpt><trkpt lat="43.64273925589744" lon="11.265309278988823"><ele>151.0</ele><time>2026-03-28T11:07:12Z</time></trkpt><trkpt lat="43.642913539370035" lon="11.265467997343206"><ele>150.0</ele><time>2026-03-28T11:07:13Z</time></trkpt><trkpt lat="43.64309935564392" lon="11.265630015315306"><ele>149.0</ele><time>2026-03-28T11:07:14Z</time></trkpt><trkpt lat="43.643284786203296" lon="11.265766712995989"><ele>148.0</ele><time>2026-03-28T11:07:15Z</time></trkpt><trkpt lat="43.643473363696984" lon="11.265871794511668"><ele>147.66666666666669</ele><time>2026-03-28T11:07:16Z</time></trkpt><trkpt lat="43.643675442434706" lon="11.265931232214378"><ele>147.33333333333334</ele><time>2026-03-28T11:07:17Z</time></trkpt><trkpt lat="43.64384596579066" lon="11.265973931697092"><ele>147.0</ele><time>2026-03-28T11:07:18Z</time></trkpt><trkpt lat="43.64403267209982" lon="11.26597399860179"><ele>147.0</ele><time>2026-03-28T11:07:19Z</time></trkpt><trkpt lat="43.64422167249338" lon="11.265921226245084"><ele>147.0</ele><time>2026-03-28T11:07:20Z</time></trkpt><trkpt lat="43.644411128981524" lon="11.26582570609846"><ele>147.0</ele><time>2026-03-28T11:07:20.999Z</time></trkpt><trkpt lat="43.6446058269808" lon="11.265696138250041"><ele>146.33333333333334</ele><time>2026-03-28T11:07:21.999Z</time></trkpt><trkpt lat="43.644801966326966" lon="11.265568216103842"><ele>145.66666666666669</ele><time>2026-03-28T11:07:22.999Z</time></trkpt><trkpt lat="43.645002876900406" lon="11.265443914271023"><ele>145.0</ele><time>2026-03-28T11:07:23.999Z</time></trkpt><trkpt lat="43.64520896555879" lon="11.265327894098228"><ele>146.0</ele><time>2026-03-28T11:07:24.999Z</time></trkpt><trkpt lat="43.64542216977978" lon="11.265211868821801"><ele>147.0</ele><time>2026-03-28T11:07:25.999Z</time></trkpt><trkpt lat="43.6456333510803" lon="11.265094380015721"><ele>147.0</ele><time>2026-03-28T11:07:26.999Z</time></trkpt><trkpt lat="43.645835730769264" lon="11.264974212729866"><ele>147.0</ele><time>2026-03-28T11:07:27.999Z</time></trkpt><trkpt lat="43.64602795146139" lon="11.264863711302393"><ele>147.0</ele><time>2026-03-28T11:07:28.999Z</time></trkpt><trkpt lat="43.646215937517184" lon="11.264752817756625"><ele>146.0</ele><time>2026-03-28T11:07:29.999Z</time></trkpt><trkpt lat="43.64639721348352" lon="11.264647187824021"><ele>145.0</ele><time>2026-03-28T11:07:30.999Z</time></trkpt><trkpt lat="43.64656847847232" lon="11.264544547225787"><ele>144.0</ele><time>2026-03-28T11:07:31.999Z</time></trkpt><trkpt lat="43.64673454545967" lon="11.26444660524344"><ele>144.0</ele><time>2026-03-28T11:07:32.999Z</time></trkpt><trkpt lat="43.646900294603235" lon="11.26434771291506"><ele>144.0</ele><time>2026-03-28T11:07:33.999Z</time></trkpt><trkpt lat="43.647059471274105" lon="11.264249001513011"><ele>144.0</ele><time>2026-03-28T11:07:34.999Z</time></trkpt><trkpt lat="43.647218535727184" lon="11.264149231815756"><ele>145.0</ele><time>2026-03-28T11:07:35.999Z</time></trkpt><trkpt lat="43.647373096623625" lon="11.264046029142255"><ele>146.0</ele><time>2026-03-28T11:07:36.999Z</time></trkpt><trkpt lat="43.64753604679055" lon="11.263922721992015"><ele>147.0</ele><time>2026-03-28T11:07:37.999Z</time></trkpt><trkpt lat="43.647702890468274" lon="11.263779372250005"><ele>145.66666666666666</ele><time>2026-03-28T11:07:38.999Z</time></trkpt><trkpt lat="43.647859817118764" lon="11.263613053107411"><ele>144.33333333333331</ele><time>2026-03-28T11:07:39.999Z</time></trkpt><trkpt lat="43.6479862168191" lon="11.263441417333677"><ele>143.0</ele><time>2026-03-28T11:07:40.999Z</time></trkpt><trkpt lat="43.64809264822402" lon="11.263260097756213"><ele>142.33333333333331</ele><time>2026-03-28T11:07:41.999Z</time></trkpt><trkpt lat="43.64817972767039" lon="11.263073947413014"><ele>141.66666666666666</ele><time>2026-03-28T11:07:42.999Z</time></trkpt><trkpt lat="43.64824987950922" lon="11.262878380961736"><ele>141.0</ele><time>2026-03-28T11:07:43.999Z</time></trkpt><trkpt lat="43.64830755129983" lon="11.262662250463764"><ele>141.0</ele><time>2026-03-28T11:07:44.999Z</time></trkpt><trkpt lat="43.64834903212122" lon="11.262412704821177"><ele>141.0</ele><time>2026-03-28T11:07:45.999Z</time></trkpt><trkpt lat="43.64835844562498" lon="11.26212722906713"><ele>141.0</ele><time>2026-03-28T11:07:46.999Z</time></trkpt><trkpt lat="43.64834516323704" lon="11.261825804723882"><ele>141.5</ele><time>2026-03-28T11:07:47.999Z</time></trkpt><trkpt lat="43.64831065024629" lon="11.261508718973547"><ele>142.0</ele><time>2026-03-28T11:07:48.999Z</time></trkpt><trkpt lat="43.64827450852437" lon="11.26119979319257"><ele>142.0</ele><time>2026-03-28T11:07:49.999Z</time></trkpt><trkpt lat="43.64825022254021" lon="11.260924092038671"><ele>142.0</ele><time>2026-03-28T11:07:50.999Z</time></trkpt><trkpt lat="43.64822364556396" lon="11.260668738791994"><ele>142.0</ele><time>2026-03-28T11:07:51.999Z</time></trkpt><trkpt lat="43.648207289904676" lon="11.260422126153296"><ele>141.75</ele><time>2026-03-28T11:07:52.999Z</time></trkpt><trkpt lat="43.648200773107924" lon="11.260207927884432"><ele>141.5</ele><time>2026-03-28T11:07:54Z</time></trkpt><trkpt lat="43.64822752731284" lon="11.26001805749841"><ele>141.25</ele><time>2026-03-28T11:07:55Z</time></trkpt><trkpt lat="43.64829827302187" lon="11.25982843821969"><ele>141.0</ele><time>2026-03-28T11:07:56Z</time></trkpt><trkpt lat="43.648414851598375" lon="11.25966265879343"><ele>140.66666666666666</ele><time>2026-03-28T11:07:57Z</time></trkpt><trkpt lat="43.64855708381903" lon="11.259560638527812"><ele>140.33333333333331</ele><time>2026-03-28T11:07:58Z</time></trkpt><trkpt lat="43.648699459555445" lon="11.259510629814972"><ele>140.0</ele><time>2026-03-28T11:07:59Z</time></trkpt><trkpt lat="43.64886607258809" lon="11.25957530112985"><ele>139.66666666666666</ele><time>2026-03-28T11:08:00Z</time></trkpt><trkpt lat="43.64906127205281" lon="11.25958685275713"><ele>139.33333333333334</ele><time>2026-03-28T11:08:01Z</time></trkpt><trkpt lat="43.64927616179854" lon="11.25959958596474"><ele>139.0</ele><time>2026-03-28T11:08:02Z</time></trkpt><trkpt lat="43.649497652574226" lon="11.259625342464663"><ele>138.66666666666669</ele><time>2026-03-28T11:08:03Z</time></trkpt><trkpt lat="43.649692621010836" lon="11.25963915529942"><ele>138.33333333333334</ele><time>2026-03-28T11:08:04Z</time></trkpt><trkpt lat="43.64986298323003" lon="11.259643945322614"><ele>138.0</ele><time>2026-03-28T11:08:05Z</time></trkpt><trkpt lat="43.650018403246854" lon="11.259656894438542"><ele>138.0</ele><time>2026-03-28T11:08:06Z</time></trkpt><trkpt lat="43.65015594412297" lon="11.259614307487718"><ele>138.0</ele><time>2026-03-28T11:08:07Z</time></trkpt><trkpt lat="43.650274314552036" lon="11.259481067778252"><ele>138.0</ele><time>2026-03-28T11:08:08Z</time></trkpt><trkpt lat="43.65039181323834" lon="11.259300167802014"><ele>137.66666666666666</ele><time>2026-03-28T11:08:09Z</time></trkpt><trkpt lat="43.650532410753456" lon="11.259113779178394"><ele>137.33333333333331</ele><time>2026-03-28T11:08:10Z</time></trkpt><trkpt lat="43.650679436315365" lon="11.258937026703654"><ele>137.0</ele><time>2026-03-28T11:08:11Z</time></trkpt><trkpt lat="43.65083600623673" lon="11.25876664938161"><ele>136.66666666666666</ele><time>2026-03-28T11:08:12Z</time></trkpt><trkpt lat="43.651002304490554" lon="11.2586677596343"><ele>136.33333333333334</ele><time>2026-03-28T11:08:13Z</time></trkpt><trkpt lat="43.65116627272731" lon="11.258599519324854"><ele>136.0</ele><time>2026-03-28T11:08:14Z</time></trkpt><trkpt lat="43.65133887071056" lon="11.258583337970794"><ele>135.33333333333334</ele><time>2026-03-28T11:08:15Z</time></trkpt><trkpt lat="43.65153305562343" lon="11.258603157985842"><ele>134.66666666666666</ele><time>2026-03-28T11:08:16Z</time></trkpt><trkpt lat="43.65173561283384" lon="11.258636876990757"><ele>134.0</ele><time>2026-03-28T11:08:17Z</time></trkpt><trkpt lat="43.651893037240015" lon="11.258659123168451"><ele>134.0</ele><time>2026-03-28T11:08:18Z</time></trkpt><trkpt lat="43.65202904829278" lon="11.25867305599549"><ele>134.0</ele><time>2026-03-28T11:08:19Z</time></trkpt><trkpt lat="43.65216190539106" lon="11.258685154161856"><ele>134.0</ele><time>2026-03-28T11:08:20Z</time></trkpt><trkpt lat="43.65229240688621" lon="11.258694350422717"><ele>134.0</ele><time>2026-03-28T11:08:21Z</time></trkpt><trkpt lat="43.65241778148121" lon="11.258706516984258"><ele>134.0</ele><time>2026-03-28T11:08:22Z</time></trkpt><trkpt lat="43.652535928658516" lon="11.258719852269383"><ele>134.0</ele><time>2026-03-28T11:08:23Z</time></trkpt><trkpt lat="43.65264535366404" lon="11.258731962381667"><ele>134.0</ele><time>2026-03-28T11:08:24Z</time></trkpt><trkpt lat="43.65275266197364" lon="11.258738981714725"><ele>134.0</ele><time>2026-03-28T11:08:25Z</time></trkpt><trkpt lat="43.65285305198846" lon="11.258754715535769"><ele>134.0</ele><time>2026-03-28T11:08:26Z</time></trkpt><trkpt lat="43.65295468896863" lon="11.258755013998915"><ele>134.25</ele><time>2026-03-28T11:08:27Z</time></trkpt><trkpt lat="43.65305888738628" lon="11.258764291257718"><ele>134.5</ele><time>2026-03-28T11:08:28Z</time></trkpt><trkpt lat="43.65317201619608" lon="11.258773860681895"><ele>134.75</ele><time>2026-03-28T11:08:29Z</time></trkpt><trkpt lat="43.65330717602778" lon="11.258748678081329"><ele>135.0</ele><time>2026-03-28T11:08:30Z</time></trkpt><trkpt lat="43.65346242873922" lon="11.258689886827188"><ele>136.0</ele><time>2026-03-28T11:08:31Z</time></trkpt><trkpt lat="43.65363050151887" lon="11.25860748785206"><ele>137.0</ele><time>2026-03-28T11:08:32Z</time></trkpt><trkpt lat="43.65380968078819" lon="11.258508883583827"><ele>138.0</ele><time>2026-03-28T11:08:33Z</time></trkpt><trkpt lat="43.6539891011622" lon="11.258421813853433"><ele>138.0</ele><time>2026-03-28T11:08:34Z</time></trkpt><trkpt lat="43.654162311472454" lon="11.258342320846296"><ele>138.0</ele><time>2026-03-28T11:08:35Z</time></trkpt><trkpt lat="43.65432454091501" lon="11.25827299410532"><ele>138.0</ele><time>2026-03-28T11:08:36Z</time></trkpt><trkpt lat="43.65450284213051" lon="11.258246709896358"><ele>138.0</ele><time>2026-03-28T11:08:37Z</time></trkpt><trkpt lat="43.65469467845132" lon="11.258254282519413"><ele>138.0</ele><time>2026-03-28T11:08:38Z</time></trkpt><trkpt lat="43.654881043778616" lon="11.25823596181725"><ele>138.0</ele><time>2026-03-28T11:08:39Z</time></trkpt><trkpt lat="43.65505077272258" lon="11.258168452569123"><ele>137.33333333333334</ele><time>2026-03-28T11:08:40Z</time></trkpt><trkpt lat="43.65521145530501" lon="11.258051277097872"><ele>136.66666666666669</ele><time>2026-03-28T11:08:41Z</time></trkpt><trkpt lat="43.65536263319404" lon="11.257940313795672"><ele>136.0</ele><time>2026-03-28T11:08:42Z</time></trkpt><trkpt lat="43.65552807821619" lon="11.25791020085321"><ele>135.0</ele><time>2026-03-28T11:08:43Z</time></trkpt><trkpt lat="43.65571495076972" lon="11.257927562345209"><ele>134.0</ele><time>2026-03-28T11:08:44Z</time></trkpt><trkpt lat="43.65591667315116" lon="11.257975434120391"><ele>133.0</ele><time>2026-03-28T11:08:45Z</time></trkpt><trkpt lat="43.65610938515245" lon="11.258019231921098"><ele>132.33333333333334</ele><time>2026-03-28T11:08:46Z</time></trkpt><trkpt lat="43.6562779823776" lon="11.258054541786558"><ele>131.66666666666666</ele><time>2026-03-28T11:08:47Z</time></trkpt><trkpt lat="43.656435353509885" lon="11.258089597530091"><ele>131.0</ele><time>2026-03-28T11:08:48Z</time></trkpt><trkpt lat="43.65658801391773" lon="11.258139284931705"><ele>131.0</ele><time>2026-03-28T11:08:49Z</time></trkpt><trkpt lat="43.65673665599264" lon="11.258222132585932"><ele>131.0</ele><time>2026-03-28T11:08:50Z</time></trkpt><trkpt lat="43.65687811751215" lon="11.258310704358786"><ele>131.0</ele><time>2026-03-28T11:08:51Z</time></trkpt><trkpt lat="43.65703095761206" lon="11.258366939114262"><ele>131.0</ele><time>2026-03-28T11:08:52Z</time></trkpt><trkpt lat="43.65718055950649" lon="11.258372906299575"><ele>131.0</ele><time>2026-03-28T11:08:53Z</time></trkpt><trkpt lat="43.65731983274125" lon="11.258362608609868"><ele>131.0</ele><time>2026-03-28T11:08:54Z</time></trkpt><trkpt lat="43.65745427731504" lon="11.258332260403787"><ele>131.0</ele><time>2026-03-28T11:08:55Z</time></trkpt><trkpt lat="43.657576901049666" lon="11.25827237513201"><ele>131.0</ele><time>2026-03-28T11:08:56Z</time></trkpt><trkpt lat="43.657702616714104" lon="11.258208633005415"><ele>131.0</ele><time>2026-03-28T11:08:57Z</time></trkpt><trkpt lat="43.65782142103723" lon="11.258150474644177"><ele>131.0</ele><time>2026-03-28T11:08:58Z</time></trkpt><trkpt lat="43.657931803179586" lon="11.258096004570568"><ele>131.0</ele><time>2026-03-28T11:08:59Z</time></trkpt><trkpt lat="43.65803340805806" lon="11.258041761445181"><ele>131.25</ele><time>2026-03-28T11:09:00Z</time></trkpt><trkpt lat="43.65812797660174" lon="11.257970959381536"><ele>131.5</ele><time>2026-03-28T11:09:01Z</time></trkpt><trkpt lat="43.65821802356985" lon="11.257879792166875"><ele>131.75</ele><time>2026-03-28T11:09:02Z</time></trkpt><trkpt lat="43.658308140749355" lon="11.257766486391292"><ele>132.0</ele><time>2026-03-28T11:09:03Z</time></trkpt><trkpt lat="43.65840498580049" lon="11.257635857934138"><ele>132.0</ele><time>2026-03-28T11:09:04Z</time></trkpt><trkpt lat="43.65850534830985" lon="11.257513510560639"><ele>132.0</ele><time>2026-03-28T11:09:05Z</time></trkpt><trkpt lat="43.658600557921375" lon="11.257401229186891"><ele>132.0</ele><time>2026-03-28T11:09:06Z</time></trkpt><trkpt lat="43.65868617137245" lon="11.257293591069939"><ele>132.0</ele><time>2026-03-28T11:09:07Z</time></trkpt><trkpt lat="43.658766843305706" lon="11.257174460027995"><ele>132.33333333333334</ele><time>2026-03-28T11:09:08Z</time></trkpt><trkpt lat="43.65887275097548" lon="11.257041045779989"><ele>132.66666666666669</ele><time>2026-03-28T11:09:09Z</time></trkpt><trkpt lat="43.658965506784654" lon="11.25685034367168"><ele>133.0</ele><time>2026-03-28T11:09:10Z</time></trkpt><trkpt lat="43.65904242194396" lon="11.256628412755989"><ele>134.0</ele><time>2026-03-28T11:09:11Z</time></trkpt><trkpt lat="43.65905230197986" lon="11.256357461261642"><ele>135.0</ele><time>2026-03-28T11:09:12Z</time></trkpt><trkpt lat="43.65905524677615" lon="11.256078692741555"><ele>136.0</ele><time>2026-03-28T11:09:13Z</time></trkpt><trkpt lat="43.65903155530297" lon="11.255795447853986"><ele>135.5</ele><time>2026-03-28T11:09:14Z</time></trkpt><trkpt lat="43.65899815577467" lon="11.25549614966886"><ele>135.0</ele><time>2026-03-28T11:09:15Z</time></trkpt><trkpt lat="43.65897576458889" lon="11.255171176799466"><ele>135.0</ele><time>2026-03-28T11:09:16Z</time></trkpt><trkpt lat="43.658959923343836" lon="11.254826989985668"><ele>135.0</ele><time>2026-03-28T11:09:17Z</time></trkpt><trkpt lat="43.65894409697268" lon="11.254489973239496"><ele>133.5</ele><time>2026-03-28T11:09:18Z</time></trkpt><trkpt lat="43.65892257798011" lon="11.254145700188467"><ele>132.0</ele><time>2026-03-28T11:09:19Z</time></trkpt><trkpt lat="43.65889952806157" lon="11.253798193216863"><ele>132.0</ele><time>2026-03-28T11:09:20Z</time></trkpt><trkpt lat="43.65887763901426" lon="11.25344326150257"><ele>132.0</ele><time>2026-03-28T11:09:21Z</time></trkpt><trkpt lat="43.658852103028046" lon="11.253076227213372"><ele>133.0</ele><time>2026-03-28T11:09:22Z</time></trkpt><trkpt lat="43.65884585749179" lon="11.252700324881525"><ele>134.0</ele><time>2026-03-28T11:09:23Z</time></trkpt><trkpt lat="43.65882473787372" lon="11.25234848914264"><ele>133.5</ele><time>2026-03-28T11:09:24Z</time></trkpt><trkpt lat="43.65880560177918" lon="11.25201825023667"><ele>133.0</ele><time>2026-03-28T11:09:25Z</time></trkpt><trkpt lat="43.65878772444886" lon="11.251715246678376"><ele>132.66666666666669</ele><time>2026-03-28T11:09:26Z</time></trkpt><trkpt lat="43.658770367261766" lon="11.25143534547058"><ele>132.33333333333334</ele><time>2026-03-28T11:09:27Z</time></trkpt><trkpt lat="43.65875358481311" lon="11.25117008101807"><ele>132.0</ele><time>2026-03-28T11:09:28Z</time></trkpt><trkpt lat="43.658725948998274" lon="11.25092360069258"><ele>132.0</ele><time>2026-03-28T11:09:29Z</time></trkpt><trkpt lat="43.65871237483119" lon="11.250699457096356"><ele>132.0</ele><time>2026-03-28T11:09:30Z</time></trkpt><trkpt lat="43.65870086495685" lon="11.250491547928293"><ele>132.0</ele><time>2026-03-28T11:09:31Z</time></trkpt><trkpt lat="43.65868798979999" lon="11.250276729845236"><ele>131.66666666666666</ele><time>2026-03-28T11:09:32Z</time></trkpt><trkpt lat="43.65868098363082" lon="11.250042246878516"><ele>131.33333333333331</ele><time>2026-03-28T11:09:33Z</time></trkpt><trkpt lat="43.65868405756294" lon="11.249802764722775"><ele>131.0</ele><time>2026-03-28T11:09:34Z</time></trkpt><trkpt lat="43.658696895465916" lon="11.249577981462425"><ele>131.0</ele><time>2026-03-28T11:09:35Z</time></trkpt><trkpt lat="43.65870953765645" lon="11.249349477948664"><ele>131.0</ele><time>2026-03-28T11:09:36Z</time></trkpt><trkpt lat="43.65872357318574" lon="11.249125923613432"><ele>131.0</ele><time>2026-03-28T11:09:37Z</time></trkpt><trkpt lat="43.65873571976932" lon="11.248904315561308"><ele>132.0</ele><time>2026-03-28T11:09:38Z</time></trkpt><trkpt lat="43.65874730952942" lon="11.248677303111835"><ele>133.0</ele><time>2026-03-28T11:09:39Z</time></trkpt><trkpt lat="43.658754901789635" lon="11.248432643035796"><ele>134.0</ele><time>2026-03-28T11:09:40Z</time></trkpt><trkpt lat="43.658782411825584" lon="11.248153589673786"><ele>132.5</ele><time>2026-03-28T11:09:41Z</time></trkpt><trkpt lat="43.65879805961938" lon="11.247850570367937"><ele>131.0</ele><time>2026-03-28T11:09:42Z</time></trkpt><trkpt lat="43.65881172850594" lon="11.24753024058484"><ele>131.0</ele><time>2026-03-28T11:09:43Z</time></trkpt><trkpt lat="43.65883176829685" lon="11.247205146707623"><ele>131.0</ele><time>2026-03-28T11:09:44Z</time></trkpt><trkpt lat="43.65884677671066" lon="11.246876679820213"><ele>131.0</ele><time>2026-03-28T11:09:45Z</time></trkpt><trkpt lat="43.65886179330389" lon="11.246537480150225"><ele>131.0</ele><time>2026-03-28T11:09:46Z</time></trkpt><trkpt lat="43.658884485200396" lon="11.24618455708058"><ele>131.5</ele><time>2026-03-28T11:09:47Z</time></trkpt><trkpt lat="43.65890372255367" lon="11.245848100174376"><ele>132.0</ele><time>2026-03-28T11:09:48Z</time></trkpt><trkpt lat="43.658919714613766" lon="11.245533198575126"><ele>132.33333333333334</ele><time>2026-03-28T11:09:49Z</time></trkpt><trkpt lat="43.65892588633003" lon="11.245219472997261"><ele>132.66666666666669</ele><time>2026-03-28T11:09:50Z</time></trkpt><trkpt lat="43.65889683659973" lon="11.244915048434606"><ele>133.0</ele><time>2026-03-28T11:09:51Z</time></trkpt><trkpt lat="43.65882266840334" lon="11.24461346088425"><ele>133.0</ele><time>2026-03-28T11:09:52Z</time></trkpt><trkpt lat="43.658712327854424" lon="11.244300044389142"><ele>133.0</ele><time>2026-03-28T11:09:53Z</time></trkpt><trkpt lat="43.65859395259519" lon="11.24398373481658"><ele>129.5</ele><time>2026-03-28T11:09:54Z</time></trkpt><trkpt lat="43.65848282359463" lon="11.24367779963075"><ele>126.0</ele><time>2026-03-28T11:09:55Z</time></trkpt><trkpt lat="43.658403278341815" lon="11.243382164965041"><ele>126.33333333333334</ele><time>2026-03-28T11:09:56Z</time></trkpt><trkpt lat="43.65830667988481" lon="11.243129661307835"><ele>126.66666666666667</ele><time>2026-03-28T11:09:57Z</time></trkpt><trkpt lat="43.658261929544" lon="11.242884209569098"><ele>127.0</ele><time>2026-03-28T11:09:58Z</time></trkpt><trkpt lat="43.65823115085512" lon="11.24266019665912"><ele>127.0</ele><time>2026-03-28T11:09:59Z</time></trkpt><trkpt lat="43.65822216632555" lon="11.242433141097324"><ele>127.0</ele><time>2026-03-28T11:10:00Z</time></trkpt><trkpt lat="43.658244527231915" lon="11.242202514488666"><ele>127.0</ele><time>2026-03-28T11:10:01Z</time></trkpt><trkpt lat="43.65830170928386" lon="11.241977098657237"><ele>126.33333333333334</ele><time>2026-03-28T11:10:02Z</time></trkpt><trkpt lat="43.65839532846453" lon="11.241771229007808"><ele>125.66666666666666</ele><time>2026-03-28T11:10:03Z</time></trkpt><trkpt lat="43.6585322490483" lon="11.24157746070933"><ele>125.0</ele><time>2026-03-28T11:10:04Z</time></trkpt><trkpt lat="43.65868945407908" lon="11.241409614331948"><ele>124.0</ele><time>2026-03-28T11:10:05Z</time></trkpt><trkpt lat="43.658850012356865" lon="11.241263742394343"><ele>123.0</ele><time>2026-03-28T11:10:06Z</time></trkpt><trkpt lat="43.65902666076111" lon="11.241123823645948"><ele>122.0</ele><time>2026-03-28T11:10:07Z</time></trkpt><trkpt lat="43.659238053429036" lon="11.24102953066397"><ele>123.5</ele><time>2026-03-28T11:10:08Z</time></trkpt><trkpt lat="43.65945708209925" lon="11.240952845007696"><ele>125.0</ele><time>2026-03-28T11:10:09Z</time></trkpt><trkpt lat="43.65968910374934" lon="11.24089545085184"><ele>125.0</ele><time>2026-03-28T11:10:10Z</time></trkpt><trkpt lat="43.65992565592244" lon="11.24084066569915"><ele>125.0</ele><time>2026-03-28T11:10:11Z</time></trkpt><trkpt lat="43.66016151071718" lon="11.240781790742233"><ele>127.0</ele><time>2026-03-28T11:10:12Z</time></trkpt><trkpt lat="43.66040612414947" lon="11.240717530266288"><ele>129.0</ele><time>2026-03-28T11:10:13Z</time></trkpt><trkpt lat="43.660654202888594" lon="11.24065368987911"><ele>126.0</ele><time>2026-03-28T11:10:14Z</time></trkpt><trkpt lat="43.66089903393737" lon="11.240590812107081"><ele>123.0</ele><time>2026-03-28T11:10:15Z</time></trkpt><trkpt lat="43.66115027302171" lon="11.24052706340026"><ele>122.5</ele><time>2026-03-28T11:10:16Z</time></trkpt><trkpt lat="43.66139947158227" lon="11.240467085292648"><ele>122.0</ele><time>2026-03-28T11:10:17Z</time></trkpt><trkpt lat="43.661639306362225" lon="11.240403967023495"><ele>122.0</ele><time>2026-03-28T11:10:18Z</time></trkpt><trkpt lat="43.66186451193206" lon="11.240341381458274"><ele>122.0</ele><time>2026-03-28T11:10:19Z</time></trkpt><trkpt lat="43.662079971822095" lon="11.240294549391372"><ele>122.0</ele><time>2026-03-28T11:10:20Z</time></trkpt><trkpt lat="43.66229869896937" lon="11.240251285984582"><ele>124.0</ele><time>2026-03-28T11:10:21Z</time></trkpt><trkpt lat="43.66252323648475" lon="11.240213995460934"><ele>126.0</ele><time>2026-03-28T11:10:22Z</time></trkpt><trkpt lat="43.66274865538259" lon="11.240202963593667"><ele>125.0</ele><time>2026-03-28T11:10:23Z</time></trkpt><trkpt lat="43.662977367278195" lon="11.240187903533908"><ele>124.0</ele><time>2026-03-28T11:10:24Z</time></trkpt><trkpt lat="43.66319351310727" lon="11.240257071636245"><ele>124.0</ele><time>2026-03-28T11:10:25Z</time></trkpt><trkpt lat="43.663396673269204" lon="11.240299971470822"><ele>124.0</ele><time>2026-03-28T11:10:26Z</time></trkpt><trkpt lat="43.66358153528421" lon="11.240366233675495"><ele>124.0</ele><time>2026-03-28T11:10:27Z</time></trkpt><trkpt lat="43.66374848552635" lon="11.24045038253157"><ele>123.0</ele><time>2026-03-28T11:10:28Z</time></trkpt><trkpt lat="43.663899975955616" lon="11.2405341651915"><ele>122.0</ele><time>2026-03-28T11:10:29Z</time></trkpt><trkpt lat="43.66404332314137" lon="11.24059537421567"><ele>121.0</ele><time>2026-03-28T11:10:30Z</time></trkpt><trkpt lat="43.66419060526081" lon="11.240630287656579"><ele>121.0</ele><time>2026-03-28T11:10:31Z</time></trkpt><trkpt lat="43.66433468996096" lon="11.240591251367926"><ele>121.0</ele><time>2026-03-28T11:10:32Z</time></trkpt><trkpt lat="43.6644827964287" lon="11.240494172005624"><ele>121.0</ele><time>2026-03-28T11:10:33Z</time></trkpt><trkpt lat="43.664622237549864" lon="11.240333101428114"><ele>122.33333333333334</ele><time>2026-03-28T11:10:34Z</time></trkpt><trkpt lat="43.664732406649335" lon="11.24011440160382"><ele>123.66666666666666</ele><time>2026-03-28T11:10:35Z</time></trkpt><trkpt lat="43.66480719500152" lon="11.239850032337378"><ele>125.0</ele><time>2026-03-28T11:10:36Z</time></trkpt><trkpt lat="43.66487754994216" lon="11.239549969593186"><ele>125.0</ele><time>2026-03-28T11:10:37Z</time></trkpt><trkpt lat="43.664951431470875" lon="11.239248168281204"><ele>125.0</ele><time>2026-03-28T11:10:38Z</time></trkpt><trkpt lat="43.66503844952479" lon="11.238928881294603"><ele>123.0</ele><time>2026-03-28T11:10:39Z</time></trkpt><trkpt lat="43.66512549428395" lon="11.23859631687352"><ele>121.0</ele><time>2026-03-28T11:10:40Z</time></trkpt><trkpt lat="43.66521402973491" lon="11.238264202960117"><ele>128.5</ele><time>2026-03-28T11:10:41Z</time></trkpt><trkpt lat="43.665302081728676" lon="11.237921657373606"><ele>136.0</ele><time>2026-03-28T11:10:42Z</time></trkpt><trkpt lat="43.66539111068378" lon="11.237578433422554"><ele>134.5</ele><time>2026-03-28T11:10:43Z</time></trkpt><trkpt lat="43.66547884532525" lon="11.237231788720631"><ele>133.0</ele><time>2026-03-28T11:10:44Z</time></trkpt><trkpt lat="43.66556440623062" lon="11.236892793596237"><ele>133.0</ele><time>2026-03-28T11:10:45Z</time></trkpt><trkpt lat="43.66565717455655" lon="11.23654300051391"><ele>133.0</ele><time>2026-03-28T11:10:46Z</time></trkpt><trkpt lat="43.66574943598457" lon="11.236191442238802"><ele>131.0</ele><time>2026-03-28T11:10:47Z</time></trkpt><trkpt lat="43.665845610767924" lon="11.235829848668597"><ele>129.0</ele><time>2026-03-28T11:10:48Z</time></trkpt><trkpt lat="43.66594607172646" lon="11.235449013945637"><ele>132.0</ele><time>2026-03-28T11:10:49Z</time></trkpt><trkpt lat="43.66605428810712" lon="11.23506647228549"><ele>135.0</ele><time>2026-03-28T11:10:50Z</time></trkpt><trkpt lat="43.666157596085675" lon="11.234685533009511"><ele>135.0</ele><time>2026-03-28T11:10:51Z</time></trkpt><trkpt lat="43.66625278093142" lon="11.23433341591193"><ele>135.0</ele><time>2026-03-28T11:10:52Z</time></trkpt><trkpt lat="43.66633720950544" lon="11.23400210785626"><ele>131.5</ele><time>2026-03-28T11:10:53Z</time></trkpt><trkpt lat="43.666414350017895" lon="11.233698654303305"><ele>128.0</ele><time>2026-03-28T11:10:54Z</time></trkpt><trkpt lat="43.66648265230026" lon="11.233383994812483"><ele>125.0</ele><time>2026-03-28T11:10:55Z</time></trkpt><trkpt lat="43.6665199262304" lon="11.233039995450625"><ele>122.0</ele><time>2026-03-28T11:10:56Z</time></trkpt><trkpt lat="43.66651187359034" lon="11.232682601040315"><ele>122.0</ele><time>2026-03-28T11:10:57Z</time></trkpt><trkpt lat="43.66648771479388" lon="11.232313880474885"><ele>122.0</ele><time>2026-03-28T11:10:58Z</time></trkpt><trkpt lat="43.666469746328715" lon="11.231950415344684"><ele>124.0</ele><time>2026-03-28T11:10:59Z</time></trkpt><trkpt lat="43.66644821062845" lon="11.231597718340861"><ele>126.0</ele><time>2026-03-28T11:11:00Z</time></trkpt><trkpt lat="43.666443519943684" lon="11.231229843701067"><ele>128.0</ele><time>2026-03-28T11:11:01Z</time></trkpt><trkpt lat="43.66643303332545" lon="11.23086464960702"><ele>130.0</ele><time>2026-03-28T11:11:02Z</time></trkpt><trkpt lat="43.666419952263176" lon="11.23049779961319"><ele>130.0</ele><time>2026-03-28T11:11:03Z</time></trkpt><trkpt lat="43.66640940906538" lon="11.2301268617413"><ele>130.0</ele><time>2026-03-28T11:11:04Z</time></trkpt><trkpt lat="43.66639408489731" lon="11.22975463220794"><ele>128.0</ele><time>2026-03-28T11:11:05Z</time></trkpt><trkpt lat="43.66638213490088" lon="11.229406976424523"><ele>126.0</ele><time>2026-03-28T11:11:06Z</time></trkpt><trkpt lat="43.66637388628126" lon="11.229085749763367"><ele>125.33333333333334</ele><time>2026-03-28T11:11:07Z</time></trkpt><trkpt lat="43.66636734262135" lon="11.22879076471184"><ele>124.66666666666667</ele><time>2026-03-28T11:11:08Z</time></trkpt><trkpt lat="43.6663889353488" lon="11.228486837781432"><ele>124.0</ele><time>2026-03-28T11:11:09Z</time></trkpt><trkpt lat="43.666444557766624" lon="11.228174210110291"><ele>123.66666666666667</ele><time>2026-03-28T11:11:10Z</time></trkpt><trkpt lat="43.66652434326658" lon="11.22788239444147"><ele>123.33333333333334</ele><time>2026-03-28T11:11:11Z</time></trkpt><trkpt lat="43.66660036220132" lon="11.227622838324699"><ele>123.0</ele><time>2026-03-28T11:11:12Z</time></trkpt><trkpt lat="43.66666728113997" lon="11.22735808183826"><ele>121.33333333333334</ele><time>2026-03-28T11:11:13Z</time></trkpt><trkpt lat="43.66672654119653" lon="11.227102467238925"><ele>119.66666666666667</ele><time>2026-03-28T11:11:14Z</time></trkpt><trkpt lat="43.666781256304255" lon="11.226866579290158"><ele>118.0</ele><time>2026-03-28T11:11:15Z</time></trkpt><trkpt lat="43.66682828728259" lon="11.226625566384337"><ele>118.33333333333334</ele><time>2026-03-28T11:11:16Z</time></trkpt><trkpt lat="43.66685161209469" lon="11.226361782461487"><ele>118.66666666666666</ele><time>2026-03-28T11:11:17Z</time></trkpt><trkpt lat="43.6668328595605" lon="11.226081326257173"><ele>119.0</ele><time>2026-03-28T11:11:18Z</time></trkpt><trkpt lat="43.666792343281955" lon="11.225785340173069"><ele>119.5</ele><time>2026-03-28T11:11:19Z</time></trkpt><trkpt lat="43.66674929877422" lon="11.225473551668331"><ele>120.0</ele><time>2026-03-28T11:11:20Z</time></trkpt><trkpt lat="43.6667104788579" lon="11.225148920508211"><ele>119.5</ele><time>2026-03-28T11:11:21Z</time></trkpt><trkpt lat="43.66667428192157" lon="11.224809907322571"><ele>119.0</ele><time>2026-03-28T11:11:22Z</time></trkpt><trkpt lat="43.66663950137889" lon="11.224453856598926"><ele>119.0</ele><time>2026-03-28T11:11:23Z</time></trkpt><trkpt lat="43.6666068528548" lon="11.224099083095208"><ele>119.0</ele><time>2026-03-28T11:11:24Z</time></trkpt><trkpt lat="43.66657374179492" lon="11.223738797793192"><ele>119.0</ele><time>2026-03-28T11:11:25Z</time></trkpt><trkpt lat="43.66654294025546" lon="11.223404285564"><ele>119.0</ele><time>2026-03-28T11:11:26Z</time></trkpt><trkpt lat="43.666513329398754" lon="11.223092727616654"><ele>118.66666666666666</ele><time>2026-03-28T11:11:27Z</time></trkpt><trkpt lat="43.66648288116428" lon="11.222795676745605"><ele>118.33333333333334</ele><time>2026-03-28T11:11:28Z</time></trkpt><trkpt lat="43.666453467106805" lon="11.222512463299186"><ele>118.0</ele><time>2026-03-28T11:11:29Z</time></trkpt><trkpt lat="43.66642756508086" lon="11.222241823955645"><ele>118.0</ele><time>2026-03-28T11:11:30Z</time></trkpt><trkpt lat="43.66640571256358" lon="11.221982441694898"><ele>118.0</ele><time>2026-03-28T11:11:31Z</time></trkpt><trkpt lat="43.66639464086453" lon="11.221738217336256"><ele>118.0</ele><time>2026-03-28T11:11:32Z</time></trkpt><trkpt lat="43.66640227543505" lon="11.2214970918233"><ele>118.33333333333334</ele><time>2026-03-28T11:11:33Z</time></trkpt><trkpt lat="43.666459513467935" lon="11.221254099170162"><ele>118.66666666666666</ele><time>2026-03-28T11:11:34Z</time></trkpt><trkpt lat="43.66652251180212" lon="11.220988887789995"><ele>119.0</ele><time>2026-03-28T11:11:35Z</time></trkpt><trkpt lat="43.66657937290817" lon="11.220705639820604"><ele>118.33333333333333</ele><time>2026-03-28T11:11:36Z</time></trkpt><trkpt lat="43.666644457088715" lon="11.220442543679171"><ele>117.66666666666666</ele><time>2026-03-28T11:11:37Z</time></trkpt><trkpt lat="43.66669533553635" lon="11.22019784863979"><ele>117.0</ele><time>2026-03-28T11:11:38Z</time></trkpt><trkpt lat="43.666730966772384" lon="11.219945282272077"><ele>116.66666666666666</ele><time>2026-03-28T11:11:39Z</time></trkpt><trkpt lat="43.66674470638588" lon="11.219677761085052"><ele>116.33333333333333</ele><time>2026-03-28T11:11:40Z</time></trkpt><trkpt lat="43.66674757771639" lon="11.219393303245901"><ele>116.0</ele><time>2026-03-28T11:11:41Z</time></trkpt><trkpt lat="43.66674435267791" lon="11.21912794201207"><ele>116.0</ele><time>2026-03-28T11:11:42Z</time></trkpt><trkpt lat="43.666745821546264" lon="11.21887922669592"><ele>116.0</ele><time>2026-03-28T11:11:43Z</time></trkpt><trkpt lat="43.666755584866394" lon="11.218644723060104"><ele>116.0</ele><time>2026-03-28T11:11:44Z</time></trkpt><trkpt lat="43.66676813734882" lon="11.218418695745903"><ele>116.0</ele><time>2026-03-28T11:11:45Z</time></trkpt><trkpt lat="43.66678204333154" lon="11.21818878603261"><ele>116.0</ele><time>2026-03-28T11:11:46Z</time></trkpt><trkpt lat="43.666797522466865" lon="11.21795169409217"><ele>116.0</ele><time>2026-03-28T11:11:47Z</time></trkpt><trkpt lat="43.66681527514382" lon="11.217709380923893"><ele>115.0</ele><time>2026-03-28T11:11:48Z</time></trkpt><trkpt lat="43.66683534548733" lon="11.217485446119356"><ele>114.0</ele><time>2026-03-28T11:11:49Z</time></trkpt><trkpt lat="43.66685324964999" lon="11.217256004477173"><ele>113.0</ele><time>2026-03-28T11:11:50Z</time></trkpt><trkpt lat="43.666909111700335" lon="11.217032797125823"><ele>113.66666666666666</ele><time>2026-03-28T11:11:51Z</time></trkpt><trkpt lat="43.66698407805273" lon="11.21680648676547"><ele>114.33333333333334</ele><time>2026-03-28T11:11:52Z</time></trkpt><trkpt lat="43.66708753022871" lon="11.216582392176601"><ele>115.0</ele><time>2026-03-28T11:11:53Z</time></trkpt><trkpt lat="43.667198782487034" lon="11.21632850196142"><ele>115.0</ele><time>2026-03-28T11:11:54Z</time></trkpt><trkpt lat="43.667326846391866" lon="11.216105022399859"><ele>115.0</ele><time>2026-03-28T11:11:55Z</time></trkpt><trkpt lat="43.66743786064813" lon="11.215898801980902"><ele>115.0</ele><time>2026-03-28T11:11:56Z</time></trkpt><trkpt lat="43.66753569910299" lon="11.215707735397594"><ele>114.33333333333334</ele><time>2026-03-28T11:11:57Z</time></trkpt><trkpt lat="43.667625811416265" lon="11.215529228440223"><ele>113.66666666666666</ele><time>2026-03-28T11:11:58Z</time></trkpt><trkpt lat="43.66772175931804" lon="11.21534916337101"><ele>113.0</ele><time>2026-03-28T11:11:59Z</time></trkpt><trkpt lat="43.66782743908492" lon="11.215185737340338"><ele>113.0</ele><time>2026-03-28T11:12:00Z</time></trkpt><trkpt lat="43.66795204889762" lon="11.215050189530828"><ele>113.0</ele><time>2026-03-28T11:12:01Z</time></trkpt><trkpt lat="43.66810008624841" lon="11.214939743850113"><ele>113.0</ele><time>2026-03-28T11:12:01.999Z</time></trkpt><trkpt lat="43.668281072762866" lon="11.214867446018845"><ele>113.0</ele><time>2026-03-28T11:12:02.999Z</time></trkpt><trkpt lat="43.66848704123123" lon="11.214814031236402"><ele>113.0</ele><time>2026-03-28T11:12:03.999Z</time></trkpt><trkpt lat="43.66868489969528" lon="11.214774026664644"><ele>113.0</ele><time>2026-03-28T11:12:04.999Z</time></trkpt><trkpt lat="43.668863866534075" lon="11.214736313162307"><ele>113.0</ele><time>2026-03-28T11:12:06Z</time></trkpt><trkpt lat="43.6690312022257" lon="11.214699055356988"><ele>113.0</ele><time>2026-03-28T11:12:07Z</time></trkpt><trkpt lat="43.669199289644595" lon="11.214659700119702"><ele>113.0</ele><time>2026-03-28T11:12:08Z</time></trkpt><trkpt lat="43.66937274761922" lon="11.214617682622702"><ele>111.66666666666666</ele><time>2026-03-28T11:12:09Z</time></trkpt><trkpt lat="43.669554098789156" lon="11.214569581457921"><ele>110.33333333333334</ele><time>2026-03-28T11:12:10Z</time></trkpt><trkpt lat="43.669741944066864" lon="11.214521973277723"><ele>109.0</ele><time>2026-03-28T11:12:11Z</time></trkpt><trkpt lat="43.669939051363805" lon="11.21447364677302"><ele>109.0</ele><time>2026-03-28T11:12:12Z</time></trkpt><trkpt lat="43.67012553644209" lon="11.21443333691118"><ele>109.0</ele><time>2026-03-28T11:12:13Z</time></trkpt><trkpt lat="43.670302917660386" lon="11.214393324634878"><ele>109.0</ele><time>2026-03-28T11:12:14Z</time></trkpt><trkpt lat="43.67047296471116" lon="11.214354726352887"><ele>109.33333333333334</ele><time>2026-03-28T11:12:15Z</time></trkpt><trkpt lat="43.67065043937961" lon="11.21431717957352"><ele>109.66666666666666</ele><time>2026-03-28T11:12:16Z</time></trkpt><trkpt lat="43.670834301219266" lon="11.21428213215409"><ele>110.0</ele><time>2026-03-28T11:12:17Z</time></trkpt><trkpt lat="43.6710234574174" lon="11.214248585607013"><ele>111.33333333333333</ele><time>2026-03-28T11:12:18Z</time></trkpt><trkpt lat="43.671215112885086" lon="11.214209356317575"><ele>112.66666666666666</ele><time>2026-03-28T11:12:19Z</time></trkpt><trkpt lat="43.671393477085196" lon="11.214166993964962"><ele>114.0</ele><time>2026-03-28T11:12:20Z</time></trkpt><trkpt lat="43.67156506193968" lon="11.214124476814312"><ele>114.0</ele><time>2026-03-28T11:12:21Z</time></trkpt><trkpt lat="43.671734745504004" lon="11.214089813061964"><ele>114.0</ele><time>2026-03-28T11:12:22Z</time></trkpt><trkpt lat="43.67190970461369" lon="11.214054811338347"><ele>114.0</ele><time>2026-03-28T11:12:23Z</time></trkpt><trkpt lat="43.672072291303124" lon="11.21401961288764"><ele>112.33333333333334</ele><time>2026-03-28T11:12:24Z</time></trkpt><trkpt lat="43.67223720578242" lon="11.214010629621672"><ele>110.66666666666667</ele><time>2026-03-28T11:12:25Z</time></trkpt><trkpt lat="43.67240978219735" lon="11.214044885644423"><ele>109.0</ele><time>2026-03-28T11:12:26Z</time></trkpt><trkpt lat="43.67258166693856" lon="11.214134061557184"><ele>109.0</ele><time>2026-03-28T11:12:27Z</time></trkpt><trkpt lat="43.6727451869983" lon="11.214242701368285"><ele>109.0</ele><time>2026-03-28T11:12:28Z</time></trkpt><trkpt lat="43.6729007798198" lon="11.214368552071978"><ele>109.0</ele><time>2026-03-28T11:12:29Z</time></trkpt><trkpt lat="43.67303464324267" lon="11.21450064880021"><ele>108.33333333333334</ele><time>2026-03-28T11:12:30Z</time></trkpt><trkpt lat="43.67315287297086" lon="11.21466881379702"><ele>107.66666666666666</ele><time>2026-03-28T11:12:31Z</time></trkpt><trkpt lat="43.67325518277798" lon="11.214893138198338"><ele>107.0</ele><time>2026-03-28T11:12:32Z</time></trkpt><trkpt lat="43.67336485232938" lon="11.215112091442558"><ele>107.0</ele><time>2026-03-28T11:12:33Z</time></trkpt><trkpt lat="43.67348998403898" lon="11.215294168179616"><ele>107.0</ele><time>2026-03-28T11:12:34Z</time></trkpt><trkpt lat="43.67363583278753" lon="11.215463144449213"><ele>107.0</ele><time>2026-03-28T11:12:35Z</time></trkpt><trkpt lat="43.673794729488584" lon="11.215616850302991"><ele>106.33333333333333</ele><time>2026-03-28T11:12:36Z</time></trkpt><trkpt lat="43.67394954118438" lon="11.21574236748615"><ele>105.66666666666666</ele><time>2026-03-28T11:12:37Z</time></trkpt><trkpt lat="43.674098506756046" lon="11.215827917397363"><ele>105.0</ele><time>2026-03-28T11:12:38Z</time></trkpt><trkpt lat="43.67424196937845" lon="11.21589583650891"><ele>105.0</ele><time>2026-03-28T11:12:39Z</time></trkpt><trkpt lat="43.674379913988794" lon="11.21594333251829"><ele>105.0</ele><time>2026-03-28T11:12:40Z</time></trkpt><trkpt lat="43.67450829252361" lon="11.215975174940448"><ele>105.0</ele><time>2026-03-28T11:12:41Z</time></trkpt><trkpt lat="43.67462977039816" lon="11.21598580043606"><ele>105.0</ele><time>2026-03-28T11:12:42Z</time></trkpt><trkpt lat="43.67474926214579" lon="11.215974591869047"><ele>105.8</ele><time>2026-03-28T11:12:43Z</time></trkpt><trkpt lat="43.67486234718507" lon="11.215929246327335"><ele>106.6</ele><time>2026-03-28T11:12:44Z</time></trkpt><trkpt lat="43.674962225371964" lon="11.215874829905752"><ele>107.4</ele><time>2026-03-28T11:12:45Z</time></trkpt><trkpt lat="43.67505175900307" lon="11.215825985713904"><ele>108.2</ele><time>2026-03-28T11:12:46Z</time></trkpt><trkpt lat="43.675128805686626" lon="11.215780934456467"><ele>109.0</ele><time>2026-03-28T11:12:47Z</time></trkpt><trkpt lat="43.67519991100796" lon="11.215740966298968"><ele>109.00000000000001</ele><time>2026-03-28T11:12:48Z</time></trkpt><trkpt lat="43.675265941730565" lon="11.215698281351495"><ele>109.0</ele><time>2026-03-28T11:12:49Z</time></trkpt><trkpt lat="43.67533045482158" lon="11.215638417652116"><ele>109.0</ele><time>2026-03-28T11:12:50Z</time></trkpt><trkpt lat="43.67540476164441" lon="11.2155840951013"><ele>109.0</ele><time>2026-03-28T11:12:51Z</time></trkpt><trkpt lat="43.675483082646984" lon="11.215523056291055"><ele>109.00000000000001</ele><time>2026-03-28T11:12:52Z</time></trkpt><trkpt lat="43.67555180300298" lon="11.21546403131856"><ele>109.0</ele><time>2026-03-28T11:12:53Z</time></trkpt><trkpt lat="43.675612851582784" lon="11.215403694977299"><ele>108.6</ele><time>2026-03-28T11:12:54Z</time></trkpt><trkpt lat="43.67566848437811" lon="11.215335753490743"><ele>108.2</ele><time>2026-03-28T11:12:55Z</time></trkpt><trkpt lat="43.67573349854994" lon="11.215258103353788"><ele>107.79999999999998</ele><time>2026-03-28T11:12:56Z</time></trkpt><trkpt lat="43.675797409993" lon="11.21516157361308"><ele>107.39999999999999</ele><time>2026-03-28T11:12:57Z</time></trkpt><trkpt lat="43.675861522171914" lon="11.215053300232551"><ele>107.0</ele><time>2026-03-28T11:12:58Z</time></trkpt><trkpt lat="43.67592259817584" lon="11.214934037425184"><ele>106.39999999999999</ele><time>2026-03-28T11:12:59Z</time></trkpt><trkpt lat="43.675980016987396" lon="11.21480527198789"><ele>105.79999999999998</ele><time>2026-03-28T11:13:00Z</time></trkpt><trkpt lat="43.67602991745512" lon="11.214672460794379"><ele>105.2</ele><time>2026-03-28T11:13:01Z</time></trkpt><trkpt lat="43.67606504163715" lon="11.214543825287327"><ele>104.6</ele><time>2026-03-28T11:13:02Z</time></trkpt><trkpt lat="43.67609479478693" lon="11.214427918457831"><ele>104.0</ele><time>2026-03-28T11:13:03Z</time></trkpt><trkpt lat="43.676119895401534" lon="11.214314433593174"><ele>105.33333333333333</ele><time>2026-03-28T11:13:04Z</time></trkpt><trkpt lat="43.676145691053684" lon="11.214200478310936"><ele>106.66666666666666</ele><time>2026-03-28T11:13:05Z</time></trkpt><trkpt lat="43.67617031073662" lon="11.214081165930017"><ele>108.0</ele><time>2026-03-28T11:13:06Z</time></trkpt><trkpt lat="43.67618054411752" lon="11.213974267127297"><ele>109.33333333333334</ele><time>2026-03-28T11:13:07Z</time></trkpt><trkpt lat="43.67618585393427" lon="11.213877021962551"><ele>110.66666666666667</ele><time>2026-03-28T11:13:08Z</time></trkpt><trkpt lat="43.676190473780345" lon="11.213786964013345"><ele>112.0</ele><time>2026-03-28T11:13:09Z</time></trkpt><trkpt lat="43.67619310476021" lon="11.213697487248355"><ele>112.00000000000001</ele><time>2026-03-28T11:13:10Z</time></trkpt><trkpt lat="43.67619419996368" lon="11.213609265734247"><ele>112.0</ele><time>2026-03-28T11:13:11Z</time></trkpt><trkpt lat="43.67619682173894" lon="11.2135138162816"><ele>112.0</ele><time>2026-03-28T11:13:12Z</time></trkpt><trkpt lat="43.67619503808208" lon="11.213414847780173"><ele>112.0</ele><time>2026-03-28T11:13:13Z</time></trkpt><trkpt lat="43.676190772225404" lon="11.21332304322771"><ele>112.00000000000001</ele><time>2026-03-28T11:13:14Z</time></trkpt><trkpt lat="43.67619214918205" lon="11.213197497943435"><ele>112.0</ele><time>2026-03-28T11:13:15Z</time></trkpt><trkpt lat="43.6762028822086" lon="11.213032670449637"><ele>111.75</ele><time>2026-03-28T11:13:16Z</time></trkpt><trkpt lat="43.676207596774184" lon="11.212832624301614"><ele>111.5</ele><time>2026-03-28T11:13:17Z</time></trkpt><trkpt lat="43.676222156721416" lon="11.212628813015083"><ele>111.25</ele><time>2026-03-28T11:13:18Z</time></trkpt><trkpt lat="43.676224468581694" lon="11.212449698649197"><ele>111.0</ele><time>2026-03-28T11:13:19Z</time></trkpt><trkpt lat="43.67620984551843" lon="11.212285621354658"><ele>111.75</ele><time>2026-03-28T11:13:20Z</time></trkpt><trkpt lat="43.67622706789144" lon="11.212123452065368"><ele>112.5</ele><time>2026-03-28T11:13:21Z</time></trkpt><trkpt lat="43.67622955311435" lon="11.21196210162644"><ele>113.25</ele><time>2026-03-28T11:13:22Z</time></trkpt><trkpt lat="43.6762177764893" lon="11.211783617210699"><ele>114.0</ele><time>2026-03-28T11:13:23Z</time></trkpt><trkpt lat="43.67623985236099" lon="11.211624928777027"><ele>114.25</ele><time>2026-03-28T11:13:24Z</time></trkpt><trkpt lat="43.67625011967676" lon="11.211465983845171"><ele>114.5</ele><time>2026-03-28T11:13:25Z</time></trkpt><trkpt lat="43.67626620116994" lon="11.211302136099546"><ele>114.75</ele><time>2026-03-28T11:13:26Z</time></trkpt><trkpt lat="43.67629286625705" lon="11.211140155385964"><ele>115.0</ele><time>2026-03-28T11:13:27Z</time></trkpt><trkpt lat="43.676344356854344" lon="11.210905818022288"><ele>115.0</ele><time>2026-03-28T11:13:28Z</time></trkpt><trkpt lat="43.67639526168195" lon="11.210692883184414"><ele>115.0</ele><time>2026-03-28T11:13:29Z</time></trkpt><trkpt lat="43.6764966751998" lon="11.210483849785003"><ele>115.0</ele><time>2026-03-28T11:13:30Z</time></trkpt><trkpt lat="43.67657529419519" lon="11.210299324525167"><ele>111.33333333333334</ele><time>2026-03-28T11:13:31Z</time></trkpt><trkpt lat="43.67669175958937" lon="11.210108242504534"><ele>107.66666666666666</ele><time>2026-03-28T11:13:32Z</time></trkpt><trkpt lat="43.67683032536655" lon="11.209936176068037"><ele>104.0</ele><time>2026-03-28T11:13:33Z</time></trkpt><trkpt lat="43.676982981271266" lon="11.209773528518053"><ele>102.66666666666666</ele><time>2026-03-28T11:13:34Z</time></trkpt><trkpt lat="43.67715932499752" lon="11.209668616126104"><ele>101.33333333333334</ele><time>2026-03-28T11:13:35Z</time></trkpt><trkpt lat="43.677333723141224" lon="11.209580676954184"><ele>100.0</ele><time>2026-03-28T11:13:36Z</time></trkpt><trkpt lat="43.67750391183898" lon="11.209520908408296"><ele>100.0</ele><time>2026-03-28T11:13:37Z</time></trkpt><trkpt lat="43.677670920603695" lon="11.209479908291597"><ele>100.0</ele><time>2026-03-28T11:13:38Z</time></trkpt><trkpt lat="43.677842244854105" lon="11.209465640697601"><ele>100.0</ele><time>2026-03-28T11:13:39Z</time></trkpt><trkpt lat="43.67800861635747" lon="11.20947209303315"><ele>99.0</ele><time>2026-03-28T11:13:40Z</time></trkpt><trkpt lat="43.678170028662834" lon="11.20951065498617"><ele>98.0</ele><time>2026-03-28T11:13:41Z</time></trkpt><trkpt lat="43.67833080435672" lon="11.209579042218353"><ele>97.0</ele><time>2026-03-28T11:13:42Z</time></trkpt><trkpt lat="43.67848983234764" lon="11.209672931287008"><ele>97.0</ele><time>2026-03-28T11:13:43Z</time></trkpt><trkpt lat="43.67864588694467" lon="11.209794343091652"><ele>97.0</ele><time>2026-03-28T11:13:44Z</time></trkpt><trkpt lat="43.67878855879882" lon="11.209934481541243"><ele>97.0</ele><time>2026-03-28T11:13:45Z</time></trkpt><trkpt lat="43.67891793906563" lon="11.210081941229294"><ele>97.0</ele><time>2026-03-28T11:13:46Z</time></trkpt><trkpt lat="43.67904340822306" lon="11.210231890067966"><ele>97.0</ele><time>2026-03-28T11:13:47Z</time></trkpt><trkpt lat="43.67916618761348" lon="11.210395389772385"><ele>97.0</ele><time>2026-03-28T11:13:48Z</time></trkpt><trkpt lat="43.679296853503544" lon="11.21056629816074"><ele>96.66666666666667</ele><time>2026-03-28T11:13:49Z</time></trkpt><trkpt lat="43.67943502995888" lon="11.210718947637906"><ele>96.33333333333334</ele><time>2026-03-28T11:13:50Z</time></trkpt><trkpt lat="43.679589122999715" lon="11.21086914313547"><ele>96.0</ele><time>2026-03-28T11:13:51Z</time></trkpt><trkpt lat="43.67975221256435" lon="11.211054227493426"><ele>96.0</ele><time>2026-03-28T11:13:52Z</time></trkpt><trkpt lat="43.679934107345076" lon="11.211248260208672"><ele>96.0</ele><time>2026-03-28T11:13:53Z</time></trkpt><trkpt lat="43.680131551165246" lon="11.21143687198502"><ele>96.0</ele><time>2026-03-28T11:13:54Z</time></trkpt><trkpt lat="43.680291201762145" lon="11.21162761397765"><ele>96.0</ele><time>2026-03-28T11:13:55Z</time></trkpt><trkpt lat="43.680440197809965" lon="11.211788705502734"><ele>96.0</ele><time>2026-03-28T11:13:56Z</time></trkpt><trkpt lat="43.68057762913559" lon="11.21193629422396"><ele>96.0</ele><time>2026-03-28T11:13:57Z</time></trkpt><trkpt lat="43.68070170088688" lon="11.212079865423954"><ele>96.0</ele><time>2026-03-28T11:13:58Z</time></trkpt><trkpt lat="43.68082563946676" lon="11.212216224884358"><ele>96.0</ele><time>2026-03-28T11:13:59Z</time></trkpt><trkpt lat="43.680957984068314" lon="11.212364619776647"><ele>96.66666666666666</ele><time>2026-03-28T11:14:00Z</time></trkpt><trkpt lat="43.68108748143289" lon="11.212483564108584"><ele>97.33333333333333</ele><time>2026-03-28T11:14:01Z</time></trkpt><trkpt lat="43.68121062933183" lon="11.212591141742532"><ele>98.0</ele><time>2026-03-28T11:14:02Z</time></trkpt><trkpt lat="43.681362649263754" lon="11.21266127306129"><ele>98.0</ele><time>2026-03-28T11:14:03Z</time></trkpt><trkpt lat="43.681554917639055" lon="11.212688465312976"><ele>98.0</ele><time>2026-03-28T11:14:04Z</time></trkpt><trkpt lat="43.681766926732635" lon="11.21272520144889"><ele>98.0</ele><time>2026-03-28T11:14:05Z</time></trkpt><trkpt lat="43.68198561767521" lon="11.212796313388683"><ele>97.66666666666666</ele><time>2026-03-28T11:14:06Z</time></trkpt><trkpt lat="43.682181984350464" lon="11.21287321226796"><ele>97.33333333333334</ele><time>2026-03-28T11:14:07Z</time></trkpt><trkpt lat="43.68236263787188" lon="11.21291803246737"><ele>97.0</ele><time>2026-03-28T11:14:08Z</time></trkpt><trkpt lat="43.68254142503519" lon="11.21292999674014"><ele>97.0</ele><time>2026-03-28T11:14:09Z</time></trkpt><trkpt lat="43.68271656270348" lon="11.21289960123467"><ele>97.0</ele><time>2026-03-28T11:14:10Z</time></trkpt><trkpt lat="43.68287458382416" lon="11.212828912633993"><ele>97.0</ele><time>2026-03-28T11:14:11Z</time></trkpt><trkpt lat="43.68300570997516" lon="11.212744057301743"><ele>97.0</ele><time>2026-03-28T11:14:12Z</time></trkpt><trkpt lat="43.68312079900594" lon="11.212664305965669"><ele>97.0</ele><time>2026-03-28T11:14:13Z</time></trkpt><trkpt lat="43.68322030441321" lon="11.212586849772096"><ele>97.0</ele><time>2026-03-28T11:14:14Z</time></trkpt><trkpt lat="43.68330617845637" lon="11.212515644436639"><ele>97.0</ele><time>2026-03-28T11:14:15Z</time></trkpt><trkpt lat="43.6833868453299" lon="11.21246088423885"><ele>97.0</ele><time>2026-03-28T11:14:16Z</time></trkpt><trkpt lat="43.683470702869165" lon="11.212417026532156"><ele>97.0</ele><time>2026-03-28T11:14:17Z</time></trkpt><trkpt lat="43.68356181858746" lon="11.21237559522463"><ele>97.0</ele><time>2026-03-28T11:14:18Z</time></trkpt><trkpt lat="43.68367860855573" lon="11.212322634407004"><ele>97.0</ele><time>2026-03-28T11:14:19Z</time></trkpt><trkpt lat="43.6838189496623" lon="11.212273928841176"><ele>97.0</ele><time>2026-03-28T11:14:20Z</time></trkpt><trkpt lat="43.68397894802319" lon="11.212234397109507"><ele>102.0</ele><time>2026-03-28T11:14:21Z</time></trkpt><trkpt lat="43.68414885036819" lon="11.212194615050052"><ele>107.0</ele><time>2026-03-28T11:14:22Z</time></trkpt><trkpt lat="43.68433084577881" lon="11.21214556412073"><ele>112.0</ele><time>2026-03-28T11:14:23Z</time></trkpt><trkpt lat="43.68452055311838" lon="11.212096469198958"><ele>112.0</ele><time>2026-03-28T11:14:24Z</time></trkpt><trkpt lat="43.6847150562181" lon="11.212049799911332"><ele>112.0</ele><time>2026-03-28T11:14:25Z</time></trkpt><trkpt lat="43.68492056369032" lon="11.211998905837083"><ele>112.0</ele><time>2026-03-28T11:14:26Z</time></trkpt><trkpt lat="43.68513102323065" lon="11.211940136150123"><ele>110.33333333333334</ele><time>2026-03-28T11:14:27Z</time></trkpt><trkpt lat="43.68534250850699" lon="11.211883736713116"><ele>108.66666666666666</ele><time>2026-03-28T11:14:28Z</time></trkpt><trkpt lat="43.68554427847011" lon="11.21183603298946"><ele>107.0</ele><time>2026-03-28T11:14:29Z</time></trkpt><trkpt lat="43.685730960644094" lon="11.211785706290492"><ele>107.0</ele><time>2026-03-28T11:14:30Z</time></trkpt><trkpt lat="43.685921078272315" lon="11.211739141204644"><ele>107.0</ele><time>2026-03-28T11:14:31Z</time></trkpt><trkpt lat="43.686119898746696" lon="11.21169952094602"><ele>107.0</ele><time>2026-03-28T11:14:32Z</time></trkpt><trkpt lat="43.68632924948726" lon="11.2116823294961"><ele>106.0</ele><time>2026-03-28T11:14:33Z</time></trkpt><trkpt lat="43.68655142051835" lon="11.211662671294961"><ele>105.0</ele><time>2026-03-28T11:14:34Z</time></trkpt><trkpt lat="43.68677387949389" lon="11.211644018577209"><ele>104.0</ele><time>2026-03-28T11:14:35Z</time></trkpt><trkpt lat="43.68700190955618" lon="11.211633046465648"><ele>103.0</ele><time>2026-03-28T11:14:36Z</time></trkpt><trkpt lat="43.68723085219068" lon="11.211621028430237"><ele>102.0</ele><time>2026-03-28T11:14:37Z</time></trkpt><trkpt lat="43.68746298167138" lon="11.211605648917145"><ele>102.0</ele><time>2026-03-28T11:14:38Z</time></trkpt><trkpt lat="43.6876925703336" lon="11.211589896972656"><ele>102.0</ele><time>2026-03-28T11:14:39Z</time></trkpt><trkpt lat="43.687910111421964" lon="11.211575540207232"><ele>102.0</ele><time>2026-03-28T11:14:40Z</time></trkpt><trkpt lat="43.68811621369844" lon="11.211561687287839"><ele>101.66666666666666</ele><time>2026-03-28T11:14:41Z</time></trkpt><trkpt lat="43.688322735350766" lon="11.211554042823227"><ele>101.33333333333333</ele><time>2026-03-28T11:14:42Z</time></trkpt><trkpt lat="43.68854124959245" lon="11.211555336777431"><ele>101.0</ele><time>2026-03-28T11:14:43Z</time></trkpt><trkpt lat="43.688759882945966" lon="11.211568812192661"><ele>97.0</ele><time>2026-03-28T11:14:44Z</time></trkpt><trkpt lat="43.68898153792064" lon="11.211587061403613"><ele>93.0</ele><time>2026-03-28T11:14:45Z</time></trkpt><trkpt lat="43.6892083770484" lon="11.211616379242443"><ele>92.66666666666667</ele><time>2026-03-28T11:14:46Z</time></trkpt><trkpt lat="43.68943694122885" lon="11.211668207201111"><ele>92.33333333333334</ele><time>2026-03-28T11:14:47Z</time></trkpt><trkpt lat="43.68964328639304" lon="11.211730334811925"><ele>92.0</ele><time>2026-03-28T11:14:48Z</time></trkpt><trkpt lat="43.689879866616515" lon="11.21184068570931"><ele>92.0</ele><time>2026-03-28T11:14:49Z</time></trkpt><trkpt lat="43.690121197975756" lon="11.211953557932388"><ele>92.0</ele><time>2026-03-28T11:14:50Z</time></trkpt><trkpt lat="43.69035765182757" lon="11.212056546761982"><ele>92.5</ele><time>2026-03-28T11:14:51Z</time></trkpt><trkpt lat="43.69059122434036" lon="11.212158664041487"><ele>93.0</ele><time>2026-03-28T11:14:52Z</time></trkpt><trkpt lat="43.69082216473762" lon="11.212261250099758"><ele>93.5</ele><time>2026-03-28T11:14:53Z</time></trkpt><trkpt lat="43.69105642296761" lon="11.212360511421112"><ele>94.0</ele><time>2026-03-28T11:14:54Z</time></trkpt><trkpt lat="43.691288683770885" lon="11.21246183996053"><ele>93.0</ele><time>2026-03-28T11:14:55Z</time></trkpt><trkpt lat="43.69151920121726" lon="11.212562721026957"><ele>92.0</ele><time>2026-03-28T11:14:56Z</time></trkpt><trkpt lat="43.6917450881439" lon="11.212665539586276"><ele>91.66666666666667</ele><time>2026-03-28T11:14:57Z</time></trkpt><trkpt lat="43.691963860726105" lon="11.212754414060182"><ele>91.33333333333333</ele><time>2026-03-28T11:14:58Z</time></trkpt><trkpt lat="43.692170715249766" lon="11.21281824487082"><ele>91.0</ele><time>2026-03-28T11:14:59Z</time></trkpt><trkpt lat="43.692383505359764" lon="11.212838011553233"><ele>91.0</ele><time>2026-03-28T11:15:00Z</time></trkpt><trkpt lat="43.69261386283566" lon="11.21281325443007"><ele>91.0</ele><time>2026-03-28T11:15:01Z</time></trkpt><trkpt lat="43.69285771862207" lon="11.212742689714913"><ele>94.0</ele><time>2026-03-28T11:15:02Z</time></trkpt><trkpt lat="43.69310049392389" lon="11.212631211138357"><ele>97.0</ele><time>2026-03-28T11:15:03Z</time></trkpt><trkpt lat="43.69334447872143" lon="11.212490857565154"><ele>97.0</ele><time>2026-03-28T11:15:04Z</time></trkpt><trkpt lat="43.69357983365174" lon="11.212342552245511"><ele>97.0</ele><time>2026-03-28T11:15:05Z</time></trkpt><trkpt lat="43.69381935734492" lon="11.21220204945497"><ele>92.5</ele><time>2026-03-28T11:15:06Z</time></trkpt><trkpt lat="43.69404506258836" lon="11.212072108857845"><ele>88.0</ele><time>2026-03-28T11:15:07Z</time></trkpt><trkpt lat="43.69426188756186" lon="11.211957316994933"><ele>90.0</ele><time>2026-03-28T11:15:08Z</time></trkpt><trkpt lat="43.694475831271944" lon="11.211846814488249"><ele>92.0</ele><time>2026-03-28T11:15:09Z</time></trkpt><trkpt lat="43.69468872703474" lon="11.211735391868118"><ele>92.0</ele><time>2026-03-28T11:15:10Z</time></trkpt><trkpt lat="43.69490662120424" lon="11.211622469979487"><ele>92.0</ele><time>2026-03-28T11:15:11Z</time></trkpt><trkpt lat="43.69511360052152" lon="11.211518640770205"><ele>91.0</ele><time>2026-03-28T11:15:12Z</time></trkpt><trkpt lat="43.69532313424838" lon="11.211423408655623"><ele>90.0</ele><time>2026-03-28T11:15:13Z</time></trkpt><trkpt lat="43.69554797960318" lon="11.211348402070557"><ele>90.0</ele><time>2026-03-28T11:15:14Z</time></trkpt><trkpt lat="43.6957858331811" lon="11.211295038773573"><ele>90.0</ele><time>2026-03-28T11:15:15Z</time></trkpt><trkpt lat="43.69602326567179" lon="11.211251257818882"><ele>90.0</ele><time>2026-03-28T11:15:16Z</time></trkpt><trkpt lat="43.696264761201085" lon="11.211221547030393"><ele>90.0</ele><time>2026-03-28T11:15:17Z</time></trkpt><trkpt lat="43.69651287954304" lon="11.211209906861079"><ele>90.0</ele><time>2026-03-28T11:15:18Z</time></trkpt><trkpt lat="43.69676504595087" lon="11.211212596023087"><ele>90.0</ele><time>2026-03-28T11:15:19Z</time></trkpt><trkpt lat="43.697002303238435" lon="11.211225135460724"><ele>88.0</ele><time>2026-03-28T11:15:20Z</time></trkpt><trkpt lat="43.69722310085321" lon="11.211258764594861"><ele>86.0</ele><time>2026-03-28T11:15:21Z</time></trkpt><trkpt lat="43.697432959507616" lon="11.211301951727334"><ele>84.0</ele><time>2026-03-28T11:15:22Z</time></trkpt><trkpt lat="43.69763079888877" lon="11.21134751183425"><ele>83.66666666666667</ele><time>2026-03-28T11:15:23Z</time></trkpt><trkpt lat="43.69780962721166" lon="11.211406561064104"><ele>83.33333333333334</ele><time>2026-03-28T11:15:24Z</time></trkpt><trkpt lat="43.697973234525804" lon="11.211474533895132"><ele>83.0</ele><time>2026-03-28T11:15:25Z</time></trkpt><trkpt lat="43.698118263689665" lon="11.211539082015308"><ele>83.80000000000001</ele><time>2026-03-28T11:15:26Z</time></trkpt><trkpt lat="43.69825101703974" lon="11.211599042987487"><ele>84.6</ele><time>2026-03-28T11:15:27Z</time></trkpt><trkpt lat="43.69836415056768" lon="11.21164296078805"><ele>85.4</ele><time>2026-03-28T11:15:28Z</time></trkpt><trkpt lat="43.698454471332454" lon="11.211679704451635"><ele>86.19999999999999</ele><time>2026-03-28T11:15:29Z</time></trkpt><trkpt lat="43.69852652158352" lon="11.211710468583995"><ele>87.0</ele><time>2026-03-28T11:15:30Z</time></trkpt><trkpt lat="43.698616995945436" lon="11.211745429880404"><ele>87.0</ele><time>2026-03-28T11:15:32Z</time></trkpt><trkpt lat="43.69869594690864" lon="11.211765482724232"><ele>87.0</ele><time>2026-03-28T11:16:09Z</time></trkpt><trkpt lat="43.698778706893584" lon="11.211787301301968"><ele>87.0</ele><time>2026-03-28T11:16:10Z</time></trkpt><trkpt lat="43.69887857302856" lon="11.211817306447127"><ele>87.0</ele><time>2026-03-28T11:16:11Z</time></trkpt><trkpt lat="43.6989832550009" lon="11.211847286275544"><ele>87.0</ele><time>2026-03-28T11:16:12Z</time></trkpt><trkpt lat="43.69908872695113" lon="11.211903393493769"><ele>87.0</ele><time>2026-03-28T11:16:13Z</time></trkpt><trkpt lat="43.699219567558686" lon="11.211956302167069"><ele>87.0</ele><time>2026-03-28T11:16:14Z</time></trkpt><trkpt lat="43.69935470146625" lon="11.212024697390737"><ele>87.0</ele><time>2026-03-28T11:16:15Z</time></trkpt><trkpt lat="43.699484493543295" lon="11.21210201674744"><ele>87.0</ele><time>2026-03-28T11:16:15.999Z</time></trkpt><trkpt lat="43.69961878413911" lon="11.212202315431032"><ele>86.0</ele><time>2026-03-28T11:16:16.999Z</time></trkpt><trkpt lat="43.69975125908617" lon="11.212337630299114"><ele>85.0</ele><time>2026-03-28T11:16:18Z</time></trkpt><trkpt lat="43.69988071569027" lon="11.212506828732609"><ele>84.0</ele><time>2026-03-28T11:16:19Z</time></trkpt><trkpt lat="43.70001304391213" lon="11.212651845209505"><ele>84.0</ele><time>2026-03-28T11:16:20Z</time></trkpt><trkpt lat="43.700100801632445" lon="11.212888209006076"><ele>84.0</ele><time>2026-03-28T11:16:21Z</time></trkpt><trkpt lat="43.700184793566905" lon="11.213087162275805"><ele>84.0</ele><time>2026-03-28T11:16:22Z</time></trkpt><trkpt lat="43.70025211414731" lon="11.21331259024871"><ele>84.66666666666667</ele><time>2026-03-28T11:16:23Z</time></trkpt><trkpt lat="43.7003057516971" lon="11.213564671718139"><ele>85.33333333333334</ele><time>2026-03-28T11:16:24Z</time></trkpt><trkpt lat="43.70035877275884" lon="11.213808160901614"><ele>86.0</ele><time>2026-03-28T11:16:25Z</time></trkpt><trkpt lat="43.70042032171237" lon="11.214037756771777"><ele>86.0</ele><time>2026-03-28T11:16:26Z</time></trkpt><trkpt lat="43.70049584636454" lon="11.214287579615924"><ele>86.0</ele><time>2026-03-28T11:16:27Z</time></trkpt><trkpt lat="43.70060594104268" lon="11.214510026188536"><ele>86.0</ele><time>2026-03-28T11:16:28Z</time></trkpt><trkpt lat="43.70073729768926" lon="11.21471866281049"><ele>86.33333333333334</ele><time>2026-03-28T11:16:29Z</time></trkpt><trkpt lat="43.70089101567662" lon="11.214910056779596"><ele>86.66666666666667</ele><time>2026-03-28T11:16:30Z</time></trkpt><trkpt lat="43.70107381308387" lon="11.215077837197912"><ele>87.0</ele><time>2026-03-28T11:16:31Z</time></trkpt><trkpt lat="43.70126143991501" lon="11.215187601732648"><ele>87.0</ele><time>2026-03-28T11:16:32Z</time></trkpt><trkpt lat="43.70144975542978" lon="11.215273416377567"><ele>87.0</ele><time>2026-03-28T11:16:33Z</time></trkpt><trkpt lat="43.7016509751994" lon="11.215309859612201"><ele>87.0</ele><time>2026-03-28T11:16:34Z</time></trkpt><trkpt lat="43.70186360574842" lon="11.215309780226207"><ele>87.33333333333333</ele><time>2026-03-28T11:16:35Z</time></trkpt><trkpt lat="43.70207043839101" lon="11.215293519999923"><ele>87.66666666666666</ele><time>2026-03-28T11:16:36Z</time></trkpt><trkpt lat="43.702263558292564" lon="11.215248175816757"><ele>88.0</ele><time>2026-03-28T11:16:37Z</time></trkpt><trkpt lat="43.70244533421341" lon="11.215160410458852"><ele>88.0</ele><time>2026-03-28T11:16:38Z</time></trkpt><trkpt lat="43.702627512149995" lon="11.215049309824616"><ele>88.0</ele><time>2026-03-28T11:16:39Z</time></trkpt><trkpt lat="43.70278336448694" lon="11.214907179097304"><ele>88.0</ele><time>2026-03-28T11:16:40Z</time></trkpt><trkpt lat="43.70293106148046" lon="11.214742028936017"><ele>92.66666666666666</ele><time>2026-03-28T11:16:41Z</time></trkpt><trkpt lat="43.70308474240724" lon="11.214555980260238"><ele>97.33333333333333</ele><time>2026-03-28T11:16:42Z</time></trkpt><trkpt lat="43.70322414809891" lon="11.214342695288355"><ele>102.0</ele><time>2026-03-28T11:16:43Z</time></trkpt><trkpt lat="43.70332885649853" lon="11.214114435387454"><ele>100.33333333333334</ele><time>2026-03-28T11:16:44Z</time></trkpt><trkpt lat="43.70339248120501" lon="11.213885803536327"><ele>98.66666666666667</ele><time>2026-03-28T11:16:45Z</time></trkpt><trkpt lat="43.70343143793351" lon="11.2136284969571"><ele>97.0</ele><time>2026-03-28T11:16:46Z</time></trkpt><trkpt lat="43.703444950028384" lon="11.213389053369127"><ele>97.0</ele><time>2026-03-28T11:16:47Z</time></trkpt><trkpt lat="43.70345962714829" lon="11.213156621238934"><ele>97.0</ele><time>2026-03-28T11:16:48Z</time></trkpt><trkpt lat="43.70347569033427" lon="11.212931464055986"><ele>97.0</ele><time>2026-03-28T11:16:49Z</time></trkpt><trkpt lat="43.7035064544129" lon="11.212721789510555"><ele>96.33333333333334</ele><time>2026-03-28T11:16:50Z</time></trkpt><trkpt lat="43.70352124446943" lon="11.21249921712248"><ele>95.66666666666667</ele><time>2026-03-28T11:16:51Z</time></trkpt><trkpt lat="43.70353884401781" lon="11.21225274128592"><ele>95.0</ele><time>2026-03-28T11:16:52Z</time></trkpt><trkpt lat="43.70354982617121" lon="11.211987048996443"><ele>103.33333333333334</ele><time>2026-03-28T11:16:53Z</time></trkpt><trkpt lat="43.703619980529396" lon="11.211719695332343"><ele>111.66666666666667</ele><time>2026-03-28T11:16:54Z</time></trkpt><trkpt lat="43.703689998721245" lon="11.211435770278019"><ele>120.0</ele><time>2026-03-28T11:16:55Z</time></trkpt><trkpt lat="43.70375954420994" lon="11.211163042445394"><ele>120.0</ele><time>2026-03-28T11:16:56Z</time></trkpt><trkpt lat="43.703802544399764" lon="11.210901335912498"><ele>120.0</ele><time>2026-03-28T11:16:57Z</time></trkpt><trkpt lat="43.703833417613836" lon="11.210641028407228"><ele>120.0</ele><time>2026-03-28T11:16:58Z</time></trkpt><trkpt lat="43.70383115410176" lon="11.210386079165701"><ele>120.33333333333334</ele><time>2026-03-28T11:16:59Z</time></trkpt><trkpt lat="43.70379319703869" lon="11.21012235765691"><ele>120.66666666666667</ele><time>2026-03-28T11:17:00Z</time></trkpt><trkpt lat="43.70374658957721" lon="11.209838482835359"><ele>121.0</ele><time>2026-03-28T11:17:01Z</time></trkpt><trkpt lat="43.70370815797796" lon="11.20957198797709"><ele>120.33333333333334</ele><time>2026-03-28T11:17:02Z</time></trkpt><trkpt lat="43.703685034778864" lon="11.209313229589737"><ele>119.66666666666666</ele><time>2026-03-28T11:17:03Z</time></trkpt><trkpt lat="43.70369042242708" lon="11.209061111234599"><ele>119.0</ele><time>2026-03-28T11:17:04Z</time></trkpt><trkpt lat="43.703747707039426" lon="11.208802051305467"><ele>113.33333333333333</ele><time>2026-03-28T11:17:05Z</time></trkpt><trkpt lat="43.70377899639883" lon="11.208559234427828"><ele>107.66666666666666</ele><time>2026-03-28T11:17:06Z</time></trkpt><trkpt lat="43.70384078726765" lon="11.208345371819279"><ele>102.0</ele><time>2026-03-28T11:17:07Z</time></trkpt><trkpt lat="43.7039284855001" lon="11.208154885006476"><ele>96.66666666666667</ele><time>2026-03-28T11:17:08Z</time></trkpt><trkpt lat="43.70405429853134" lon="11.208010726773376"><ele>91.33333333333334</ele><time>2026-03-28T11:17:09Z</time></trkpt><trkpt lat="43.70419262795678" lon="11.207837832812121"><ele>86.0</ele><time>2026-03-28T11:17:10Z</time></trkpt><trkpt lat="43.70435668010891" lon="11.207662149184454"><ele>84.0</ele><time>2026-03-28T11:17:11Z</time></trkpt><trkpt lat="43.70451378087451" lon="11.207488762895544"><ele>82.0</ele><time>2026-03-28T11:17:12Z</time></trkpt><trkpt lat="43.70464839873514" lon="11.207339247645976"><ele>80.0</ele><time>2026-03-28T11:17:13Z</time></trkpt><trkpt lat="43.704790469957054" lon="11.20722320271707"><ele>80.0</ele><time>2026-03-28T11:17:14Z</time></trkpt><trkpt lat="43.70495957858304" lon="11.207159972278117"><ele>80.0</ele><time>2026-03-28T11:17:15Z</time></trkpt><trkpt lat="43.70512828335367" lon="11.207134749245215"><ele>80.0</ele><time>2026-03-28T11:17:16Z</time></trkpt><trkpt lat="43.705302035545806" lon="11.207129176015576"><ele>80.66666666666667</ele><time>2026-03-28T11:17:17Z</time></trkpt><trkpt lat="43.705489606333565" lon="11.20723890624201"><ele>81.33333333333333</ele><time>2026-03-28T11:17:18Z</time></trkpt><trkpt lat="43.70569866043127" lon="11.207351453474109"><ele>82.0</ele><time>2026-03-28T11:17:19Z</time></trkpt><trkpt lat="43.70590776414555" lon="11.207502075707001"><ele>83.0</ele><time>2026-03-28T11:17:20Z</time></trkpt><trkpt lat="43.70609686633948" lon="11.207637894215052"><ele>84.0</ele><time>2026-03-28T11:17:21Z</time></trkpt><trkpt lat="43.706280673988076" lon="11.207757463668178"><ele>85.0</ele><time>2026-03-28T11:17:22Z</time></trkpt><trkpt lat="43.70647931593541" lon="11.20785001562752"><ele>85.0</ele><time>2026-03-28T11:17:23Z</time></trkpt><trkpt lat="43.706690389881096" lon="11.207916970318287"><ele>85.0</ele><time>2026-03-28T11:17:24Z</time></trkpt><trkpt lat="43.70688680621306" lon="11.207982016035189"><ele>85.0</ele><time>2026-03-28T11:17:25Z</time></trkpt><trkpt lat="43.707067172515266" lon="11.208076451671841"><ele>84.0</ele><time>2026-03-28T11:17:26Z</time></trkpt><trkpt lat="43.70723373678693" lon="11.208212909533616"><ele>83.0</ele><time>2026-03-28T11:17:27Z</time></trkpt><trkpt lat="43.707391478901435" lon="11.208383706448108"><ele>82.0</ele><time>2026-03-28T11:17:28Z</time></trkpt><trkpt lat="43.70752847666709" lon="11.208568356275034"><ele>82.0</ele><time>2026-03-28T11:17:29Z</time></trkpt><trkpt lat="43.70765477362316" lon="11.208752611247919"><ele>82.0</ele><time>2026-03-28T11:17:30Z</time></trkpt><trkpt lat="43.70777120838214" lon="11.208936030893025"><ele>82.0</ele><time>2026-03-28T11:17:31Z</time></trkpt><trkpt lat="43.70787019628883" lon="11.20912923913761"><ele>80.0</ele><time>2026-03-28T11:17:32Z</time></trkpt><trkpt lat="43.707968976743764" lon="11.209313994311321"><ele>78.0</ele><time>2026-03-28T11:17:33Z</time></trkpt><trkpt lat="43.70808967255823" lon="11.209490469854169"><ele>76.0</ele><time>2026-03-28T11:17:34Z</time></trkpt><trkpt lat="43.70824047959334" lon="11.209632434207778"><ele>76.0</ele><time>2026-03-28T11:17:35Z</time></trkpt><trkpt lat="43.70839206634925" lon="11.209747380176262"><ele>76.0</ele><time>2026-03-28T11:17:36Z</time></trkpt><trkpt lat="43.70852757789411" lon="11.209863601462027"><ele>76.0</ele><time>2026-03-28T11:17:37Z</time></trkpt><trkpt lat="43.7086526447501" lon="11.209997252004273"><ele>75.33333333333333</ele><time>2026-03-28T11:17:38Z</time></trkpt><trkpt lat="43.70877943822969" lon="11.210139092537323"><ele>74.66666666666667</ele><time>2026-03-28T11:17:39Z</time></trkpt><trkpt lat="43.70891256908758" lon="11.210283898283851"><ele>74.0</ele><time>2026-03-28T11:17:40Z</time></trkpt><trkpt lat="43.709046024286266" lon="11.210416998958893"><ele>74.0</ele><time>2026-03-28T11:17:41Z</time></trkpt><trkpt lat="43.70916456035386" lon="11.210545964204282"><ele>74.0</ele><time>2026-03-28T11:17:42Z</time></trkpt><trkpt lat="43.70925776164989" lon="11.21069917030112"><ele>74.0</ele><time>2026-03-28T11:17:43Z</time></trkpt><trkpt lat="43.70932543292158" lon="11.210889362506473"><ele>74.0</ele><time>2026-03-28T11:17:44Z</time></trkpt><trkpt lat="43.70936992506586" lon="11.211090597431495"><ele>74.25</ele><time>2026-03-28T11:17:45Z</time></trkpt><trkpt lat="43.70939744779584" lon="11.211295417009708"><ele>74.5</ele><time>2026-03-28T11:17:46Z</time></trkpt><trkpt lat="43.70941747687392" lon="11.211479772202024"><ele>74.75</ele><time>2026-03-28T11:17:47Z</time></trkpt><trkpt lat="43.70942229859097" lon="11.211602405993759"><ele>75.0</ele><time>2026-03-28T11:17:48Z</time></trkpt><trkpt lat="43.7094361300223" lon="11.211706714689274"><ele>74.6</ele><time>2026-03-28T11:17:49Z</time></trkpt><trkpt lat="43.7094520646852" lon="11.211805694215503"><ele>74.2</ele><time>2026-03-28T11:17:50Z</time></trkpt><trkpt lat="43.7094761564449" lon="11.211937048666123"><ele>73.8</ele><time>2026-03-28T11:17:51Z</time></trkpt><trkpt lat="43.70950780971865" lon="11.212079965377928"><ele>73.4</ele><time>2026-03-28T11:17:52Z</time></trkpt><trkpt lat="43.709549705374755" lon="11.212247322137314"><ele>73.0</ele><time>2026-03-28T11:17:53Z</time></trkpt><trkpt lat="43.709592515313176" lon="11.212430866238435"><ele>72.75</ele><time>2026-03-28T11:17:54Z</time></trkpt><trkpt lat="43.70962857972312" lon="11.212611127572725"><ele>72.5</ele><time>2026-03-28T11:17:55Z</time></trkpt><trkpt lat="43.70963909747439" lon="11.212784847679627"><ele>72.25</ele><time>2026-03-28T11:17:55.999Z</time></trkpt><trkpt lat="43.70961852506226" lon="11.212952853633531"><ele>72.0</ele><time>2026-03-28T11:17:56.999Z</time></trkpt><trkpt lat="43.70958247329271" lon="11.213126572595767"><ele>72.25</ele><time>2026-03-28T11:17:57.999Z</time></trkpt><trkpt lat="43.709523901485476" lon="11.213303681707352"><ele>72.5</ele><time>2026-03-28T11:17:58.999Z</time></trkpt><trkpt lat="43.70945174901348" lon="11.213489644557493"><ele>72.75</ele><time>2026-03-28T11:17:59.999Z</time></trkpt><trkpt lat="43.70939160889562" lon="11.213683167798091"><ele>73.0</ele><time>2026-03-28T11:18:00.999Z</time></trkpt><trkpt lat="43.70935545576281" lon="11.213879967448475"><ele>73.0</ele><time>2026-03-28T11:18:01.999Z</time></trkpt><trkpt lat="43.70934783904742" lon="11.214102273975977"><ele>73.0</ele><time>2026-03-28T11:18:02.999Z</time></trkpt><trkpt lat="43.7093603748868" lon="11.214333668183123"><ele>73.0</ele><time>2026-03-28T11:18:03.999Z</time></trkpt><trkpt lat="43.709386190719776" lon="11.214558758132963"><ele>73.0</ele><time>2026-03-28T11:18:04.999Z</time></trkpt><trkpt lat="43.70941750846499" lon="11.214770501708307"><ele>73.0</ele><time>2026-03-28T11:18:05.999Z</time></trkpt><trkpt lat="43.70945608188212" lon="11.214970314906338"><ele>73.0</ele><time>2026-03-28T11:18:06.999Z</time></trkpt><trkpt lat="43.70951008962251" lon="11.215156369716649"><ele>73.0</ele><time>2026-03-28T11:18:07.999Z</time></trkpt><trkpt lat="43.709560288411204" lon="11.215332535668516"><ele>73.0</ele><time>2026-03-28T11:18:08.999Z</time></trkpt><trkpt lat="43.709597315137046" lon="11.215489201035"><ele>73.0</ele><time>2026-03-28T11:18:09.999Z</time></trkpt><trkpt lat="43.709631385123465" lon="11.215625917171144"><ele>73.0</ele><time>2026-03-28T11:18:10.999Z</time></trkpt><trkpt lat="43.70965926435821" lon="11.215743315376221"><ele>73.0</ele><time>2026-03-28T11:18:11.999Z</time></trkpt><trkpt lat="43.70968636775088" lon="11.215851939607282"><ele>73.0</ele><time>2026-03-28T11:18:12.999Z</time></trkpt><trkpt lat="43.70970247900104" lon="11.21595851275329"><ele>73.0</ele><time>2026-03-28T11:18:13.999Z</time></trkpt><trkpt lat="43.70971917122865" lon="11.216056299655637"><ele>73.0</ele><time>2026-03-28T11:18:14.999Z</time></trkpt><trkpt lat="43.70976895734968" lon="11.21612054197162"><ele>73.0</ele><time>2026-03-28T11:18:15.999Z</time></trkpt><trkpt lat="43.709841272094266" lon="11.216160876485489"><ele>73.0</ele><time>2026-03-28T11:18:16.999Z</time></trkpt><trkpt lat="43.7099257677042" lon="11.216220581837664"><ele>73.0</ele><time>2026-03-28T11:18:17.999Z</time></trkpt><trkpt lat="43.710006423331734" lon="11.216323343028296"><ele>73.0</ele><time>2026-03-28T11:18:18.999Z</time></trkpt><trkpt lat="43.710091054843275" lon="11.216458399467717"><ele>73.0</ele><time>2026-03-28T11:18:19.999Z</time></trkpt><trkpt lat="43.710187347650184" lon="11.216603124687117"><ele>73.0</ele><time>2026-03-28T11:18:20.999Z</time></trkpt><trkpt lat="43.71029036897272" lon="11.21675828085726"><ele>72.33333333333333</ele><time>2026-03-28T11:18:21.999Z</time></trkpt><trkpt lat="43.710397000072206" lon="11.216914982446298"><ele>71.66666666666667</ele><time>2026-03-28T11:18:23Z</time></trkpt><trkpt lat="43.71051052648245" lon="11.217072608417636"><ele>71.0</ele><time>2026-03-28T11:18:24Z</time></trkpt><trkpt lat="43.71062011613708" lon="11.217229501836904"><ele>71.33333333333334</ele><time>2026-03-28T11:18:25Z</time></trkpt><trkpt lat="43.710727373308565" lon="11.217389929179394"><ele>71.66666666666667</ele><time>2026-03-28T11:18:26Z</time></trkpt><trkpt lat="43.71083684523101" lon="11.217552481155794"><ele>72.0</ele><time>2026-03-28T11:18:27Z</time></trkpt><trkpt lat="43.71094365512649" lon="11.21771135633665"><ele>72.0</ele><time>2026-03-28T11:18:28Z</time></trkpt><trkpt lat="43.71105433360613" lon="11.21786949525323"><ele>72.0</ele><time>2026-03-28T11:18:29Z</time></trkpt><trkpt lat="43.71116841221476" lon="11.218030577269849"><ele>72.0</ele><time>2026-03-28T11:18:30Z</time></trkpt><trkpt lat="43.71128303912027" lon="11.218193187244383"><ele>72.0</ele><time>2026-03-28T11:18:31Z</time></trkpt><trkpt lat="43.71139432937528" lon="11.218357847425601"><ele>72.0</ele><time>2026-03-28T11:18:32Z</time></trkpt><trkpt lat="43.711505143252325" lon="11.218519759194889"><ele>72.0</ele><time>2026-03-28T11:18:33Z</time></trkpt><trkpt lat="43.71160985866208" lon="11.218674928137444"><ele>72.0</ele><time>2026-03-28T11:18:34Z</time></trkpt><trkpt lat="43.711712901515824" lon="11.218811726982798"><ele>72.0</ele><time>2026-03-28T11:18:35Z</time></trkpt><trkpt lat="43.71181731548098" lon="11.218927777674661"><ele>72.0</ele><time>2026-03-28T11:18:36Z</time></trkpt><trkpt lat="43.71189168857743" lon="11.219056240868984"><ele>72.0</ele><time>2026-03-28T11:18:37Z</time></trkpt><trkpt lat="43.71197943755666" lon="11.219207246834886"><ele>72.0</ele><time>2026-03-28T11:18:38Z</time></trkpt><trkpt lat="43.71205127547586" lon="11.219308466420387"><ele>72.0</ele><time>2026-03-28T11:18:39Z</time></trkpt><trkpt lat="43.71211772325522" lon="11.2194048032316"><ele>72.0</ele><time>2026-03-28T11:18:40Z</time></trkpt><trkpt lat="43.71219429759337" lon="11.21951067831132"><ele>72.0</ele><time>2026-03-28T11:18:41Z</time></trkpt><trkpt lat="43.71228884657704" lon="11.219623825647256"><ele>72.0</ele><time>2026-03-28T11:18:42Z</time></trkpt><trkpt lat="43.71240850385613" lon="11.219737424108189"><ele>71.66666666666667</ele><time>2026-03-28T11:18:43Z</time></trkpt><trkpt lat="43.71253603704421" lon="11.219861245486404"><ele>71.33333333333334</ele><time>2026-03-28T11:18:44Z</time></trkpt><trkpt lat="43.712671505757015" lon="11.219989441524385"><ele>71.0</ele><time>2026-03-28T11:18:45Z</time></trkpt><trkpt lat="43.712803950636726" lon="11.220116234180738"><ele>71.0</ele><time>2026-03-28T11:18:46Z</time></trkpt><trkpt lat="43.71292958052701" lon="11.220235053987398"><ele>71.0</ele><time>2026-03-28T11:18:47Z</time></trkpt><trkpt lat="43.713052286525276" lon="11.220350379215963"><ele>71.0</ele><time>2026-03-28T11:18:48Z</time></trkpt><trkpt lat="43.7131820969822" lon="11.220469501563864"><ele>71.0</ele><time>2026-03-28T11:18:49Z</time></trkpt><trkpt lat="43.71331684128102" lon="11.220596420366988"><ele>71.0</ele><time>2026-03-28T11:18:50Z</time></trkpt><trkpt lat="43.71344696992076" lon="11.220724746832618"><ele>71.0</ele><time>2026-03-28T11:18:51Z</time></trkpt><trkpt lat="43.713567528889584" lon="11.220842978477075"><ele>71.25</ele><time>2026-03-28T11:18:52Z</time></trkpt><trkpt lat="43.71368747383167" lon="11.22095326347656"><ele>71.5</ele><time>2026-03-28T11:18:53Z</time></trkpt><trkpt lat="43.713804029600084" lon="11.22105203569428"><ele>71.75</ele><time>2026-03-28T11:18:54Z</time></trkpt><trkpt lat="43.71391088086217" lon="11.221145976408364"><ele>72.0</ele><time>2026-03-28T11:18:55Z</time></trkpt><trkpt lat="43.71403581537934" lon="11.221207543995046"><ele>72.0</ele><time>2026-03-28T11:18:56Z</time></trkpt><trkpt lat="43.71417474251175" lon="11.22125349961488"><ele>72.0</ele><time>2026-03-28T11:18:57Z</time></trkpt><trkpt lat="43.71432283622678" lon="11.22129075129939"><ele>72.0</ele><time>2026-03-28T11:18:58Z</time></trkpt><trkpt lat="43.71446862889944" lon="11.221308301960585"><ele>72.0</ele><time>2026-03-28T11:18:59Z</time></trkpt><trkpt lat="43.714620089163354" lon="11.221344338325402"><ele>72.33333333333333</ele><time>2026-03-28T11:19:00Z</time></trkpt><trkpt lat="43.71477159892079" lon="11.22140082373654"><ele>72.66666666666666</ele><time>2026-03-28T11:19:01Z</time></trkpt><trkpt lat="43.71491975908904" lon="11.221494204222727"><ele>73.0</ele><time>2026-03-28T11:19:02Z</time></trkpt><trkpt lat="43.715064412562235" lon="11.22161761347656"><ele>73.0</ele><time>2026-03-28T11:19:03Z</time></trkpt><trkpt lat="43.71520832703754" lon="11.22174042904891"><ele>73.0</ele><time>2026-03-28T11:19:04Z</time></trkpt><trkpt lat="43.71536113351108" lon="11.221841878009378"><ele>73.0</ele><time>2026-03-28T11:19:05Z</time></trkpt><trkpt lat="43.715533000862216" lon="11.221901546978629"><ele>71.33333333333333</ele><time>2026-03-28T11:19:06Z</time></trkpt><trkpt lat="43.71572081397132" lon="11.221923758255821"><ele>69.66666666666667</ele><time>2026-03-28T11:19:07Z</time></trkpt><trkpt lat="43.71591379882529" lon="11.221952038282335"><ele>68.0</ele><time>2026-03-28T11:19:08Z</time></trkpt><trkpt lat="43.71609463343723" lon="11.221996885761827"><ele>68.0</ele><time>2026-03-28T11:19:09Z</time></trkpt><trkpt lat="43.71626003058663" lon="11.222065328684335"><ele>68.0</ele><time>2026-03-28T11:19:10Z</time></trkpt><trkpt lat="43.71642610374262" lon="11.22216677936713"><ele>68.0</ele><time>2026-03-28T11:19:11Z</time></trkpt><trkpt lat="43.71658858502384" lon="11.22228824633273"><ele>68.0</ele><time>2026-03-28T11:19:12Z</time></trkpt><trkpt lat="43.71676114107978" lon="11.222390202437872"><ele>68.0</ele><time>2026-03-28T11:19:13Z</time></trkpt><trkpt lat="43.71694243888795" lon="11.222465655337947"><ele>68.0</ele><time>2026-03-28T11:19:14Z</time></trkpt><trkpt lat="43.71713180659911" lon="11.222525158146349"><ele>68.0</ele><time>2026-03-28T11:19:15Z</time></trkpt><trkpt lat="43.71731204357798" lon="11.222588297472766"><ele>68.0</ele><time>2026-03-28T11:19:16Z</time></trkpt><trkpt lat="43.717478146639344" lon="11.222650620265984"><ele>68.0</ele><time>2026-03-28T11:19:17Z</time></trkpt><trkpt lat="43.717637429712035" lon="11.222711738064035"><ele>68.0</ele><time>2026-03-28T11:19:18Z</time></trkpt><trkpt lat="43.71778875474703" lon="11.222761598445901"><ele>68.0</ele><time>2026-03-28T11:19:19Z</time></trkpt><trkpt lat="43.71793333381325" lon="11.222814668739954"><ele>68.0</ele><time>2026-03-28T11:19:20Z</time></trkpt><trkpt lat="43.718066589353164" lon="11.222873637252945"><ele>68.0</ele><time>2026-03-28T11:19:21Z</time></trkpt><trkpt lat="43.71819599303449" lon="11.222929935988295"><ele>68.0</ele><time>2026-03-28T11:19:22Z</time></trkpt><trkpt lat="43.71831977222049" lon="11.222978377063292"><ele>68.0</ele><time>2026-03-28T11:19:23Z</time></trkpt><trkpt lat="43.71844635019133" lon="11.223023704895414"><ele>68.0</ele><time>2026-03-28T11:19:24Z</time></trkpt><trkpt lat="43.71858674253615" lon="11.223058999441173"><ele>68.0</ele><time>2026-03-28T11:19:25Z</time></trkpt><trkpt lat="43.71873578935034" lon="11.223099369480341"><ele>68.5</ele><time>2026-03-28T11:19:26Z</time></trkpt><trkpt lat="43.718880397820556" lon="11.223136197889888"><ele>69.0</ele><time>2026-03-28T11:19:27Z</time></trkpt><trkpt lat="43.71901215751346" lon="11.223176382893618"><ele>69.5</ele><time>2026-03-28T11:19:28Z</time></trkpt><trkpt lat="43.719147818808636" lon="11.223216995570372"><ele>70.0</ele><time>2026-03-28T11:19:29Z</time></trkpt><trkpt lat="43.7192802544892" lon="11.223253259235149"><ele>69.6</ele><time>2026-03-28T11:19:30Z</time></trkpt><trkpt lat="43.71940057245392" lon="11.223289142797906"><ele>69.2</ele><time>2026-03-28T11:19:31Z</time></trkpt><trkpt lat="43.719509506160676" lon="11.223328804866753"><ele>68.8</ele><time>2026-03-28T11:19:32Z</time></trkpt><trkpt lat="43.71961027046206" lon="11.223374639268053"><ele>68.4</ele><time>2026-03-28T11:19:33Z</time></trkpt><trkpt lat="43.7197046966747" lon="11.223417881641447"><ele>68.0</ele><time>2026-03-28T11:19:34Z</time></trkpt><trkpt lat="43.71978671452669" lon="11.22345784884449"><ele>68.0</ele><time>2026-03-28T11:19:35Z</time></trkpt><trkpt lat="43.7198595669549" lon="11.223490274175775"><ele>68.0</ele><time>2026-03-28T11:19:36Z</time></trkpt><trkpt lat="43.71992902606764" lon="11.22350892495829"><ele>68.0</ele><time>2026-03-28T11:19:37Z</time></trkpt><trkpt lat="43.720009272768785" lon="11.223522508456634"><ele>68.0</ele><time>2026-03-28T11:19:38Z</time></trkpt><trkpt lat="43.72011150345195" lon="11.223546666369016"><ele>68.0</ele><time>2026-03-28T11:19:39Z</time></trkpt><trkpt lat="43.72021079557271" lon="11.223568232075335"><ele>68.0</ele><time>2026-03-28T11:19:40Z</time></trkpt><trkpt lat="43.72031366074227" lon="11.223593755128164"><ele>67.75</ele><time>2026-03-28T11:19:41Z</time></trkpt><trkpt lat="43.72042473736109" lon="11.223636820274221"><ele>67.5</ele><time>2026-03-28T11:19:42Z</time></trkpt><trkpt lat="43.72054948766015" lon="11.223695707748787"><ele>67.25</ele><time>2026-03-28T11:19:43Z</time></trkpt><trkpt lat="43.7206904087529" lon="11.223772339050416"><ele>67.0</ele><time>2026-03-28T11:19:44Z</time></trkpt><trkpt lat="43.720835560947855" lon="11.22386856004871"><ele>67.0</ele><time>2026-03-28T11:19:45Z</time></trkpt><trkpt lat="43.72096951500869" lon="11.223957698873553"><ele>67.0</ele><time>2026-03-28T11:19:46Z</time></trkpt><trkpt lat="43.72109167656351" lon="11.224040412115967"><ele>67.0</ele><time>2026-03-28T11:19:47Z</time></trkpt><trkpt lat="43.72120354740376" lon="11.224121184998078"><ele>67.0</ele><time>2026-03-28T11:19:48Z</time></trkpt><trkpt lat="43.72131090751583" lon="11.224198184053366"><ele>67.0</ele><time>2026-03-28T11:19:49Z</time></trkpt><trkpt lat="43.7214168857083" lon="11.224267326160094"><ele>67.0</ele><time>2026-03-28T11:19:50Z</time></trkpt><trkpt lat="43.721516998363185" lon="11.224333774892177"><ele>67.0</ele><time>2026-03-28T11:19:51Z</time></trkpt><trkpt lat="43.721612529236516" lon="11.22443017132645"><ele>67.0</ele><time>2026-03-28T11:19:52Z</time></trkpt><trkpt lat="43.721719643918604" lon="11.224511679028609"><ele>67.0</ele><time>2026-03-28T11:19:53Z</time></trkpt><trkpt lat="43.721830347771515" lon="11.2245678401197"><ele>67.0</ele><time>2026-03-28T11:19:54Z</time></trkpt><trkpt lat="43.72193176528582" lon="11.224669122970575"><ele>67.0</ele><time>2026-03-28T11:19:55Z</time></trkpt><trkpt lat="43.722046574758295" lon="11.224749502803474"><ele>67.0</ele><time>2026-03-28T11:19:56Z</time></trkpt><trkpt lat="43.72215783916566" lon="11.224808244390672"><ele>68.4</ele><time>2026-03-28T11:19:57Z</time></trkpt><trkpt lat="43.72226470668414" lon="11.22485359002242"><ele>69.80000000000001</ele><time>2026-03-28T11:19:58Z</time></trkpt><trkpt lat="43.72236857995004" lon="11.22489491611708"><ele>71.2</ele><time>2026-03-28T11:19:59Z</time></trkpt><trkpt lat="43.72247292975989" lon="11.224933567162864"><ele>72.60000000000001</ele><time>2026-03-28T11:20:00Z</time></trkpt><trkpt lat="43.722569504740996" lon="11.22496933849881"><ele>74.0</ele><time>2026-03-28T11:20:01Z</time></trkpt><trkpt lat="43.72266102620467" lon="11.225003315473957"><ele>72.66666666666667</ele><time>2026-03-28T11:20:02Z</time></trkpt><trkpt lat="43.72275257190775" lon="11.225036555715747"><ele>71.33333333333334</ele><time>2026-03-28T11:20:03Z</time></trkpt><trkpt lat="43.72283312696166" lon="11.225063646256997"><ele>70.0</ele><time>2026-03-28T11:20:04Z</time></trkpt><trkpt lat="43.72290581823091" lon="11.225088785674101"><ele>68.66666666666667</ele><time>2026-03-28T11:20:05Z</time></trkpt><trkpt lat="43.722981900676075" lon="11.225117019481127"><ele>67.33333333333333</ele><time>2026-03-28T11:20:06Z</time></trkpt><trkpt lat="43.723055420632434" lon="11.225145537032107"><ele>66.0</ele><time>2026-03-28T11:20:07Z</time></trkpt><trkpt lat="43.72314514327698" lon="11.225181982784376"><ele>66.0</ele><time>2026-03-28T11:20:08Z</time></trkpt><trkpt lat="43.723237980918704" lon="11.225216437789877"><ele>66.0</ele><time>2026-03-28T11:20:09Z</time></trkpt><trkpt lat="43.72334700793172" lon="11.225243647565364"><ele>66.0</ele><time>2026-03-28T11:20:10Z</time></trkpt><trkpt lat="43.72345155790444" lon="11.225242875305852"><ele>66.0</ele><time>2026-03-28T11:20:11Z</time></trkpt><trkpt lat="43.72356417633453" lon="11.225250593174588"><ele>66.0</ele><time>2026-03-28T11:20:12Z</time></trkpt><trkpt lat="43.72366982437909" lon="11.225242601364325"><ele>65.8</ele><time>2026-03-28T11:20:13Z</time></trkpt><trkpt lat="43.723771102390195" lon="11.225230213504787"><ele>65.6</ele><time>2026-03-28T11:20:14Z</time></trkpt><trkpt lat="43.72386821922095" lon="11.225214463690037"><ele>65.4</ele><time>2026-03-28T11:20:14.999Z</time></trkpt><trkpt lat="43.723957057605276" lon="11.225201048324513"><ele>65.2</ele><time>2026-03-28T11:20:15.999Z</time></trkpt><trkpt lat="43.72403986780623" lon="11.225187285020107"><ele>65.0</ele><time>2026-03-28T11:20:16.999Z</time></trkpt><trkpt lat="43.72411840209993" lon="11.22517514593467"><ele>65.0</ele><time>2026-03-28T11:20:17.999Z</time></trkpt><trkpt lat="43.72419854370362" lon="11.225166278581595"><ele>65.0</ele><time>2026-03-28T11:20:18.999Z</time></trkpt><trkpt lat="43.724287474655064" lon="11.225159040767174"><ele>65.0</ele><time>2026-03-28T11:20:19.999Z</time></trkpt><trkpt lat="43.72438165934875" lon="11.225149273721046"><ele>65.0</ele><time>2026-03-28T11:20:20.999Z</time></trkpt><trkpt lat="43.724468482048216" lon="11.2251354544847"><ele>65.0</ele><time>2026-03-28T11:20:21.999Z</time></trkpt><trkpt lat="43.72455260796318" lon="11.225125575596739"><ele>65.0</ele><time>2026-03-28T11:20:22.999Z</time></trkpt><trkpt lat="43.72464303586761" lon="11.225117676877948"><ele>65.16666666666667</ele><time>2026-03-28T11:20:23.999Z</time></trkpt><trkpt lat="43.72474435909545" lon="11.225107393822409"><ele>65.33333333333334</ele><time>2026-03-28T11:20:24.999Z</time></trkpt><trkpt lat="43.7248440222383" lon="11.225090978540724"><ele>65.5</ele><time>2026-03-28T11:20:25.999Z</time></trkpt><trkpt lat="43.72493590754849" lon="11.225079996272985"><ele>65.66666666666667</ele><time>2026-03-28T11:20:26.999Z</time></trkpt><trkpt lat="43.72501757867227" lon="11.225071077253695"><ele>65.83333333333333</ele><time>2026-03-28T11:20:27.999Z</time></trkpt><trkpt lat="43.72509012454411" lon="11.225061445727157"><ele>66.0</ele><time>2026-03-28T11:20:29Z</time></trkpt><trkpt lat="43.72519103416772" lon="11.225041070783307"><ele>65.39999999999999</ele><time>2026-03-28T11:20:31Z</time></trkpt><trkpt lat="43.72530636348462" lon="11.22502742686933"><ele>64.8</ele><time>2026-03-28T11:20:33Z</time></trkpt><trkpt lat="43.72537863087064" lon="11.22503062691628"><ele>64.19999999999999</ele><time>2026-03-28T11:20:34Z</time></trkpt><trkpt lat="43.72545262754469" lon="11.225010523760531"><ele>63.599999999999994</ele><time>2026-03-28T11:20:35Z</time></trkpt><trkpt lat="43.725538827927146" lon="11.224981580214836"><ele>63.0</ele><time>2026-03-28T11:20:36Z</time></trkpt><trkpt lat="43.725643940815004" lon="11.224946258194878"><ele>63.0</ele><time>2026-03-28T11:20:37Z</time></trkpt><trkpt lat="43.72577423441719" lon="11.224865903502922"><ele>63.0</ele><time>2026-03-28T11:20:38Z</time></trkpt><trkpt lat="43.72593779060385" lon="11.224811963192225"><ele>63.0</ele><time>2026-03-28T11:20:39Z</time></trkpt><trkpt lat="43.72610819334443" lon="11.224767496403874"><ele>63.0</ele><time>2026-03-28T11:20:40Z</time></trkpt><trkpt lat="43.72628621494705" lon="11.224707549599382"><ele>63.0</ele><time>2026-03-28T11:20:41Z</time></trkpt><trkpt lat="43.72643595115423" lon="11.224651942373592"><ele>63.0</ele><time>2026-03-28T11:20:42Z</time></trkpt><trkpt lat="43.726565489204255" lon="11.22460206955108"><ele>63.0</ele><time>2026-03-28T11:20:43Z</time></trkpt><trkpt lat="43.72668941782356" lon="11.22455740277373"><ele>63.0</ele><time>2026-03-28T11:20:44Z</time></trkpt><trkpt lat="43.7268050560042" lon="11.224516790780614"><ele>63.0</ele><time>2026-03-28T11:20:45Z</time></trkpt><trkpt lat="43.72691032920404" lon="11.224475899549976"><ele>63.0</ele><time>2026-03-28T11:20:46Z</time></trkpt><trkpt lat="43.72701508565357" lon="11.22443039663334"><ele>63.75</ele><time>2026-03-28T11:20:47Z</time></trkpt><trkpt lat="43.727127639852135" lon="11.22437118792157"><ele>64.5</ele><time>2026-03-28T11:20:48Z</time></trkpt><trkpt lat="43.72725136015019" lon="11.2242936207064"><ele>65.25</ele><time>2026-03-28T11:20:49Z</time></trkpt><trkpt lat="43.727394886466406" lon="11.22423942398073"><ele>66.0</ele><time>2026-03-28T11:20:50Z</time></trkpt><trkpt lat="43.72755512501665" lon="11.224150486757383"><ele>67.66666666666667</ele><time>2026-03-28T11:20:51Z</time></trkpt><trkpt lat="43.72772943133556" lon="11.224052864938855"><ele>69.33333333333334</ele><time>2026-03-28T11:20:52Z</time></trkpt><trkpt lat="43.727914953526266" lon="11.223948961626327"><ele>71.0</ele><time>2026-03-28T11:20:53Z</time></trkpt><trkpt lat="43.728093392346686" lon="11.22382940566787"><ele>71.0</ele><time>2026-03-28T11:20:54Z</time></trkpt><trkpt lat="43.72827678110106" lon="11.223745572882347"><ele>71.0</ele><time>2026-03-28T11:20:55Z</time></trkpt><trkpt lat="43.728449274571226" lon="11.223645528205479"><ele>71.0</ele><time>2026-03-28T11:20:56Z</time></trkpt><trkpt lat="43.728614341762345" lon="11.223555365218534"><ele>72.33333333333334</ele><time>2026-03-28T11:20:57Z</time></trkpt><trkpt lat="43.72877045399252" lon="11.22346796475983"><ele>73.66666666666667</ele><time>2026-03-28T11:20:58Z</time></trkpt><trkpt lat="43.72891946718314" lon="11.223393134773259"><ele>75.0</ele><time>2026-03-28T11:20:59Z</time></trkpt><trkpt lat="43.72908366647625" lon="11.223308520388647"><ele>75.0</ele><time>2026-03-28T11:21:00Z</time></trkpt><trkpt lat="43.729277871243156" lon="11.223266723898364"><ele>75.0</ele><time>2026-03-28T11:21:01Z</time></trkpt><trkpt lat="43.72947943467804" lon="11.223248566768538"><ele>75.0</ele><time>2026-03-28T11:21:02Z</time></trkpt><trkpt lat="43.72967885214563" lon="11.223259133975494"><ele>77.0</ele><time>2026-03-28T11:21:03Z</time></trkpt><trkpt lat="43.72988794310885" lon="11.22330186829561"><ele>79.0</ele><time>2026-03-28T11:21:04Z</time></trkpt><trkpt lat="43.73008628082529" lon="11.223358668652578"><ele>81.0</ele><time>2026-03-28T11:21:05Z</time></trkpt><trkpt lat="43.7302668099793" lon="11.223404918774367"><ele>81.0</ele><time>2026-03-28T11:21:06Z</time></trkpt><trkpt lat="43.730437222673174" lon="11.223438655322099"><ele>81.0</ele><time>2026-03-28T11:21:07Z</time></trkpt><trkpt lat="43.73060170671184" lon="11.223463401358705"><ele>81.0</ele><time>2026-03-28T11:21:08Z</time></trkpt><trkpt lat="43.730775637211146" lon="11.223500104745408"><ele>81.0</ele><time>2026-03-28T11:21:09Z</time></trkpt><trkpt lat="43.73095710700056" lon="11.223540254886988"><ele>81.0</ele><time>2026-03-28T11:21:10Z</time></trkpt><trkpt lat="43.73113110440201" lon="11.223597098984033"><ele>81.0</ele><time>2026-03-28T11:21:11Z</time></trkpt><trkpt lat="43.73129381748142" lon="11.223655864719035"><ele>79.33333333333333</ele><time>2026-03-28T11:21:12Z</time></trkpt><trkpt lat="43.731450756264415" lon="11.223720274721325"><ele>77.66666666666666</ele><time>2026-03-28T11:21:13Z</time></trkpt><trkpt lat="43.73160446314417" lon="11.223816783501311"><ele>76.0</ele><time>2026-03-28T11:21:14Z</time></trkpt><trkpt lat="43.73175089862946" lon="11.223948772280956"><ele>77.0</ele><time>2026-03-28T11:21:15Z</time></trkpt><trkpt lat="43.731880518918096" lon="11.22409056150187"><ele>78.0</ele><time>2026-03-28T11:21:16Z</time></trkpt><trkpt lat="43.732007259547984" lon="11.224241975742045"><ele>79.0</ele><time>2026-03-28T11:21:17Z</time></trkpt><trkpt lat="43.7321303584344" lon="11.224392026270607"><ele>75.33333333333333</ele><time>2026-03-28T11:21:18Z</time></trkpt><trkpt lat="43.732248861422114" lon="11.224538520647764"><ele>71.66666666666667</ele><time>2026-03-28T11:21:19Z</time></trkpt><trkpt lat="43.73235986609386" lon="11.22468365103267"><ele>68.0</ele><time>2026-03-28T11:21:20Z</time></trkpt><trkpt lat="43.73246552919607" lon="11.224819425141757"><ele>68.0</ele><time>2026-03-28T11:21:21Z</time></trkpt><trkpt lat="43.73257680418818" lon="11.22492994369962"><ele>68.0</ele><time>2026-03-28T11:21:22Z</time></trkpt><trkpt lat="43.73269262334271" lon="11.225014371992494"><ele>68.0</ele><time>2026-03-28T11:21:23Z</time></trkpt><trkpt lat="43.732810423318206" lon="11.225079309347404"><ele>68.0</ele><time>2026-03-28T11:21:24Z</time></trkpt><trkpt lat="43.73293340470276" lon="11.22513031531785"><ele>66.0</ele><time>2026-03-28T11:21:25Z</time></trkpt><trkpt lat="43.733065983576765" lon="11.225155572072339"><ele>64.0</ele><time>2026-03-28T11:21:26Z</time></trkpt><trkpt lat="43.73319717933288" lon="11.225160518034883"><ele>62.0</ele><time>2026-03-28T11:21:27Z</time></trkpt><trkpt lat="43.73333669316974" lon="11.225151166279682"><ele>60.0</ele><time>2026-03-28T11:21:28Z</time></trkpt><trkpt lat="43.73347325495505" lon="11.225120715269103"><ele>59.75</ele><time>2026-03-28T11:21:29Z</time></trkpt><trkpt lat="43.733602184057766" lon="11.225071243907387"><ele>59.5</ele><time>2026-03-28T11:21:30Z</time></trkpt><trkpt lat="43.733730253133245" lon="11.225016793622984"><ele>59.25</ele><time>2026-03-28T11:21:31Z</time></trkpt><trkpt lat="43.73385410373595" lon="11.224967457885327"><ele>59.0</ele><time>2026-03-28T11:21:32Z</time></trkpt><trkpt lat="43.73397753389008" lon="11.224917653153677"><ele>59.0</ele><time>2026-03-28T11:21:33Z</time></trkpt><trkpt lat="43.734103345819214" lon="11.224863566925494"><ele>59.0</ele><time>2026-03-28T11:21:34Z</time></trkpt><trkpt lat="43.734222300273125" lon="11.224814214356595"><ele>59.0</ele><time>2026-03-28T11:21:35Z</time></trkpt><trkpt lat="43.734335385740884" lon="11.224767611665493"><ele>59.0</ele><time>2026-03-28T11:21:36Z</time></trkpt><trkpt lat="43.73444203044229" lon="11.224729733772682"><ele>58.800000000000004</ele><time>2026-03-28T11:21:37Z</time></trkpt><trkpt lat="43.73454506021164" lon="11.224711878570432"><ele>58.60000000000001</ele><time>2026-03-28T11:21:38Z</time></trkpt><trkpt lat="43.73464407729447" lon="11.22471677051796"><ele>58.4</ele><time>2026-03-28T11:21:39Z</time></trkpt><trkpt lat="43.73474368228768" lon="11.224726596684208"><ele>58.2</ele><time>2026-03-28T11:21:40Z</time></trkpt><trkpt lat="43.73487050945313" lon="11.22472683791179"><ele>58.0</ele><time>2026-03-28T11:21:41Z</time></trkpt><trkpt lat="43.73500129952515" lon="11.224729580543315"><ele>58.0</ele><time>2026-03-28T11:21:42Z</time></trkpt><trkpt lat="43.73513405215995" lon="11.224726709130303"><ele>58.0</ele><time>2026-03-28T11:21:43Z</time></trkpt><trkpt lat="43.73527065774584" lon="11.22473277311865"><ele>58.0</ele><time>2026-03-28T11:21:44Z</time></trkpt><trkpt lat="43.73541040513475" lon="11.224728240600955"><ele>58.0</ele><time>2026-03-28T11:21:45Z</time></trkpt><trkpt lat="43.73554411000127" lon="11.224729165300795"><ele>58.4</ele><time>2026-03-28T11:21:46Z</time></trkpt><trkpt lat="43.73567117305637" lon="11.224725051228438"><ele>58.8</ele><time>2026-03-28T11:21:47Z</time></trkpt><trkpt lat="43.73578627221966" lon="11.2247236906919"><ele>59.2</ele><time>2026-03-28T11:21:48Z</time></trkpt><trkpt lat="43.73588384753602" lon="11.224728324663332"><ele>59.6</ele><time>2026-03-28T11:21:49Z</time></trkpt><trkpt lat="43.735961932932874" lon="11.224730033255904"><ele>60.0</ele><time>2026-03-28T11:21:50Z</time></trkpt><trkpt lat="43.73606896712883" lon="11.224729701974544"><ele>60.333333333333336</ele><time>2026-03-28T11:21:52Z</time></trkpt><trkpt lat="43.73613406100384" lon="11.224738323048797"><ele>60.66666666666667</ele><time>2026-03-28T11:21:54Z</time></trkpt><trkpt lat="43.73620210060793" lon="11.224725917643587"><ele>61.0</ele><time>2026-03-28T11:22:19Z</time></trkpt><trkpt lat="43.736303569926065" lon="11.224729720241621"><ele>61.333333333333336</ele><time>2026-03-28T11:22:21Z</time></trkpt><trkpt lat="43.73638032453546" lon="11.224728983383756"><ele>61.66666666666667</ele><time>2026-03-28T11:22:22Z</time></trkpt><trkpt lat="43.73645046014387" lon="11.224732864625668"><ele>62.0</ele><time>2026-03-28T11:22:23Z</time></trkpt><trkpt lat="43.736519795408014" lon="11.224730168488637"><ele>62.00000000000001</ele><time>2026-03-28T11:22:24Z</time></trkpt><trkpt lat="43.736583650573436" lon="11.224725928321666"><ele>62.0</ele><time>2026-03-28T11:22:25Z</time></trkpt><trkpt lat="43.73665916218373" lon="11.224721102738979"><ele>62.0</ele><time>2026-03-28T11:22:26Z</time></trkpt><trkpt lat="43.73674210289205" lon="11.224715103822094"><ele>62.0</ele><time>2026-03-28T11:22:26.999Z</time></trkpt><trkpt lat="43.73682698452617" lon="11.224712086434922"><ele>62.00000000000001</ele><time>2026-03-28T11:22:27.999Z</time></trkpt><trkpt lat="43.736925374125036" lon="11.224708724521067"><ele>62.0</ele><time>2026-03-28T11:22:28.999Z</time></trkpt><trkpt lat="43.73704631301438" lon="11.224707150975277"><ele>62.2</ele><time>2026-03-28T11:22:29.999Z</time></trkpt><trkpt lat="43.73716959626653" lon="11.224714244724986"><ele>62.400000000000006</ele><time>2026-03-28T11:22:30.999Z</time></trkpt><trkpt lat="43.7372800447142" lon="11.224729126173624"><ele>62.599999999999994</ele><time>2026-03-28T11:22:31.999Z</time></trkpt><trkpt lat="43.737371901296555" lon="11.224722779002827"><ele>62.8</ele><time>2026-03-28T11:22:32.999Z</time></trkpt><trkpt lat="43.73745081139657" lon="11.224697996160064"><ele>63.0</ele><time>2026-03-28T11:22:33.999Z</time></trkpt><trkpt lat="43.737523760903535" lon="11.224682704962902"><ele>63.0</ele><time>2026-03-28T11:22:35Z</time></trkpt><trkpt lat="43.737603518516586" lon="11.22468224859171"><ele>63.0</ele><time>2026-03-28T11:22:36Z</time></trkpt><trkpt lat="43.73768624290454" lon="11.224683219945932"><ele>63.0</ele><time>2026-03-28T11:22:37Z</time></trkpt><trkpt lat="43.73779735682121" lon="11.224646688918057"><ele>63.0</ele><time>2026-03-28T11:22:38Z</time></trkpt><trkpt lat="43.73794542446564" lon="11.224635087826515"><ele>63.0</ele><time>2026-03-28T11:22:39Z</time></trkpt><trkpt lat="43.73810157770236" lon="11.224609974733111"><ele>63.0</ele><time>2026-03-28T11:22:40Z</time></trkpt><trkpt lat="43.73826821212099" lon="11.224590306256527"><ele>63.0</ele><time>2026-03-28T11:22:41Z</time></trkpt><trkpt lat="43.738442365560154" lon="11.224552808333815"><ele>63.0</ele><time>2026-03-28T11:22:42Z</time></trkpt><trkpt lat="43.73862078305671" lon="11.224531047910961"><ele>63.0</ele><time>2026-03-28T11:22:43Z</time></trkpt><trkpt lat="43.738816248174714" lon="11.224500334548186"><ele>63.0</ele><time>2026-03-28T11:22:44Z</time></trkpt><trkpt lat="43.73901154159546" lon="11.224465547017724"><ele>63.0</ele><time>2026-03-28T11:22:45Z</time></trkpt><trkpt lat="43.73920594460162" lon="11.224434265715505"><ele>63.33333333333333</ele><time>2026-03-28T11:22:46Z</time></trkpt><trkpt lat="43.73938465511625" lon="11.22442037975405"><ele>63.666666666666664</ele><time>2026-03-28T11:22:47Z</time></trkpt><trkpt lat="43.73956037775615" lon="11.224411338039893"><ele>64.0</ele><time>2026-03-28T11:22:48Z</time></trkpt><trkpt lat="43.73973589325974" lon="11.224413182392471"><ele>64.0</ele><time>2026-03-28T11:22:49Z</time></trkpt><trkpt lat="43.73990138414724" lon="11.224425220123196"><ele>64.0</ele><time>2026-03-28T11:22:50Z</time></trkpt><trkpt lat="43.74004739592393" lon="11.224444138240582"><ele>64.0</ele><time>2026-03-28T11:22:51Z</time></trkpt><trkpt lat="43.740177900579305" lon="11.224460820759825"><ele>64.0</ele><time>2026-03-28T11:22:52Z</time></trkpt><trkpt lat="43.74028931601245" lon="11.22446753275766"><ele>64.60000000000001</ele><time>2026-03-28T11:22:53Z</time></trkpt><trkpt lat="43.74038392602209" lon="11.22448526810705"><ele>65.2</ele><time>2026-03-28T11:22:54Z</time></trkpt><trkpt lat="43.74047225429943" lon="11.224533346511212"><ele>65.80000000000001</ele><time>2026-03-28T11:22:55Z</time></trkpt><trkpt lat="43.740556718167745" lon="11.224556814441678"><ele>66.4</ele><time>2026-03-28T11:22:56Z</time></trkpt><trkpt lat="43.74066039473318" lon="11.2245358450402"><ele>67.0</ele><time>2026-03-28T11:22:57Z</time></trkpt><trkpt lat="43.740782116046496" lon="11.224520307789446"><ele>67.0</ele><time>2026-03-28T11:22:58Z</time></trkpt><trkpt lat="43.74090769626396" lon="11.224546575099271"><ele>67.0</ele><time>2026-03-28T11:22:59Z</time></trkpt><trkpt lat="43.741058456219235" lon="11.22459293230838"><ele>67.0</ele><time>2026-03-28T11:23:00Z</time></trkpt><trkpt lat="43.74119252969841" lon="11.2246342878459"><ele>67.0</ele><time>2026-03-28T11:23:01Z</time></trkpt><trkpt lat="43.74131092528697" lon="11.22467624140701"><ele>67.4</ele><time>2026-03-28T11:23:02Z</time></trkpt><trkpt lat="43.74141552784637" lon="11.224720866322768"><ele>67.80000000000001</ele><time>2026-03-28T11:23:03Z</time></trkpt><trkpt lat="43.74151510507234" lon="11.224761679532149"><ele>68.2</ele><time>2026-03-28T11:23:04Z</time></trkpt><trkpt lat="43.74160714650951" lon="11.22479614311288"><ele>68.60000000000001</ele><time>2026-03-28T11:23:05Z</time></trkpt><trkpt lat="43.741695416096626" lon="11.224824030186962"><ele>69.0</ele><time>2026-03-28T11:23:06Z</time></trkpt><trkpt lat="43.741757937138416" lon="11.224848527980313"><ele>69.4</ele><time>2026-03-28T11:23:07Z</time></trkpt><trkpt lat="43.74186505468268" lon="11.224890703485146"><ele>69.80000000000001</ele><time>2026-03-28T11:23:09Z</time></trkpt><trkpt lat="43.74195263581782" lon="11.224927191303362"><ele>70.19999999999999</ele><time>2026-03-28T11:23:11Z</time></trkpt><trkpt lat="43.742019419605526" lon="11.224992371428405"><ele>70.6</ele><time>2026-03-28T11:23:13Z</time></trkpt><trkpt lat="43.7420932013419" lon="11.225104964541226"><ele>71.0</ele><time>2026-03-28T11:23:15Z</time></trkpt><trkpt lat="43.742137781574186" lon="11.225170654021044"><ele>71.0</ele><time>2026-03-28T11:23:16Z</time></trkpt><trkpt lat="43.74224736174131" lon="11.2252392080557"><ele>71.0</ele><time>2026-03-28T11:23:18Z</time></trkpt><trkpt lat="43.74231124738586" lon="11.225221102909309"><ele>71.0</ele><time>2026-03-28T11:23:19Z</time></trkpt><trkpt lat="43.742374777817915" lon="11.225145606397495"><ele>71.0</ele><time>2026-03-28T11:23:20Z</time></trkpt><trkpt lat="43.742409115568556" lon="11.225059631289227"><ele>71.0</ele><time>2026-03-28T11:23:21Z</time></trkpt><trkpt lat="43.74241838135616" lon="11.224951166414264"><ele>71.0</ele><time>2026-03-28T11:23:22Z</time></trkpt><trkpt lat="43.74240237742597" lon="11.224831694668671"><ele>72.25</ele><time>2026-03-28T11:23:23Z</time></trkpt><trkpt lat="43.74236124423352" lon="11.224707921340405"><ele>73.5</ele><time>2026-03-28T11:23:24Z</time></trkpt><trkpt lat="43.7423174201439" lon="11.22455871981831"><ele>74.75</ele><time>2026-03-28T11:23:25Z</time></trkpt><trkpt lat="43.74229708878485" lon="11.224379079329983"><ele>76.0</ele><time>2026-03-28T11:23:26Z</time></trkpt><trkpt lat="43.742336435126255" lon="11.224178686261737"><ele>79.66666666666666</ele><time>2026-03-28T11:23:27Z</time></trkpt><trkpt lat="43.742346210360004" lon="11.223941973827872"><ele>83.33333333333333</ele><time>2026-03-28T11:23:28Z</time></trkpt><trkpt lat="43.742357842621516" lon="11.223674061373648"><ele>87.0</ele><time>2026-03-28T11:23:29Z</time></trkpt><trkpt lat="43.7423696403189" lon="11.223402338538426"><ele>88.66666666666667</ele><time>2026-03-28T11:23:30Z</time></trkpt><trkpt lat="43.742381099489066" lon="11.223138412721331"><ele>90.33333333333334</ele><time>2026-03-28T11:23:31Z</time></trkpt><trkpt lat="43.74239236002517" lon="11.222879061733787"><ele>92.0</ele><time>2026-03-28T11:23:32Z</time></trkpt><trkpt lat="43.74240400311404" lon="11.222610899896145"><ele>90.66666666666667</ele><time>2026-03-28T11:23:33Z</time></trkpt><trkpt lat="43.74241714425719" lon="11.222308386581343"><ele>89.33333333333333</ele><time>2026-03-28T11:23:34.068Z</time></trkpt><trkpt lat="43.74242910641736" lon="11.222027871782917"><ele>88.0</ele><time>2026-03-28T11:23:35.072Z</time></trkpt><trkpt lat="43.74244156099947" lon="11.221760041146624"><ele>74.0</ele><time>2026-03-28T11:23:36.073Z</time></trkpt><trkpt lat="43.74247367554092" lon="11.22106972914402"><ele>74.0</ele><time>2026-03-28T11:23:40Z</time></trkpt><trkpt lat="43.7424847566525" lon="11.220832479530348"><ele>74.0</ele><time>2026-03-28T11:23:41Z</time></trkpt><trkpt lat="43.742550234623344" lon="11.220375958052154"><ele>73.66666666666667</ele><time>2026-03-28T11:23:42Z</time></trkpt><trkpt lat="43.74256427803645" lon="11.220099458736136"><ele>73.33333333333333</ele><time>2026-03-28T11:23:43Z</time></trkpt><trkpt lat="43.74255512062038" lon="11.219870965250662"><ele>73.0</ele><time>2026-03-28T11:23:44Z</time></trkpt><trkpt lat="43.74260983899401" lon="11.219775152863367"><ele>72.2</ele><time>2026-03-28T11:23:45Z</time></trkpt><trkpt lat="43.742737972580926" lon="11.219701775450329"><ele>71.4</ele><time>2026-03-28T11:23:47Z</time></trkpt><trkpt lat="43.742802651511035" lon="11.219630283815777"><ele>70.60000000000001</ele><time>2026-03-28T11:23:48Z</time></trkpt><trkpt lat="43.742861421435165" lon="11.219502202180426"><ele>69.8</ele><time>2026-03-28T11:23:49Z</time></trkpt><trkpt lat="43.74291173800329" lon="11.219361562513983"><ele>69.0</ele><time>2026-03-28T11:23:50Z</time></trkpt><trkpt lat="43.742978719623835" lon="11.21925356444098"><ele>69.0</ele><time>2026-03-28T11:23:51Z</time></trkpt><trkpt lat="43.74303242537508" lon="11.219152187156254"><ele>69.0</ele><time>2026-03-28T11:23:52Z</time></trkpt><trkpt lat="43.743083056201044" lon="11.21902863320122"><ele>69.0</ele><time>2026-03-28T11:23:53Z</time></trkpt><trkpt lat="43.7431183608801" lon="11.218819633535274"><ele>69.0</ele><time>2026-03-28T11:23:54Z</time></trkpt><trkpt lat="43.743123755546144" lon="11.218581007203738"><ele>69.66666666666667</ele><time>2026-03-28T11:23:55Z</time></trkpt><trkpt lat="43.743120783021055" lon="11.218373452164212"><ele>70.33333333333334</ele><time>2026-03-28T11:23:56Z</time></trkpt><trkpt lat="43.743076714225595" lon="11.21815700814037"><ele>71.0</ele><time>2026-03-28T11:23:57Z</time></trkpt><trkpt lat="43.743066103090776" lon="11.217894160983306"><ele>71.66666666666667</ele><time>2026-03-28T11:23:58Z</time></trkpt><trkpt lat="43.7430396858191" lon="11.217632016270258"><ele>72.33333333333333</ele><time>2026-03-28T11:23:59Z</time></trkpt><trkpt lat="43.74305272294368" lon="11.217398130915653"><ele>73.0</ele><time>2026-03-28T11:24:00Z</time></trkpt><trkpt lat="43.74306625182457" lon="11.217179082836765"><ele>73.0</ele><time>2026-03-28T11:24:01Z</time></trkpt><trkpt lat="43.74308855395652" lon="11.216981713476349"><ele>73.0</ele><time>2026-03-28T11:24:02Z</time></trkpt><trkpt lat="43.74309487457975" lon="11.21682807190542"><ele>73.0</ele><time>2026-03-28T11:24:03Z</time></trkpt><trkpt lat="43.74311685847694" lon="11.216691038115034"><ele>73.0</ele><time>2026-03-28T11:24:04Z</time></trkpt><trkpt lat="43.74313274159178" lon="11.21654001008843"><ele>71.8</ele><time>2026-03-28T11:24:05Z</time></trkpt><trkpt lat="43.74314810298013" lon="11.216374610334078"><ele>70.6</ele><time>2026-03-28T11:24:06Z</time></trkpt><trkpt lat="43.743161964920084" lon="11.21621470262593"><ele>69.4</ele><time>2026-03-28T11:24:07Z</time></trkpt><trkpt lat="43.74317776563577" lon="11.2160670789001"><ele>68.2</ele><time>2026-03-28T11:24:08Z</time></trkpt><trkpt lat="43.74318336020931" lon="11.215923713307657"><ele>67.0</ele><time>2026-03-28T11:24:09Z</time></trkpt><trkpt lat="43.743192610374166" lon="11.215792214647049"><ele>67.0</ele><time>2026-03-28T11:24:10Z</time></trkpt><trkpt lat="43.743197435623934" lon="11.215664950847033"><ele>67.0</ele><time>2026-03-28T11:24:11Z</time></trkpt><trkpt lat="43.743195954684815" lon="11.215521819960165"><ele>67.0</ele><time>2026-03-28T11:24:12Z</time></trkpt><trkpt lat="43.743190044591145" lon="11.215363589647218"><ele>67.0</ele><time>2026-03-28T11:24:13Z</time></trkpt><trkpt lat="43.743174277950686" lon="11.215216262993522"><ele>67.0</ele><time>2026-03-28T11:24:14Z</time></trkpt><trkpt lat="43.74314390203551" lon="11.215085112211897"><ele>66.0</ele><time>2026-03-28T11:24:15Z</time></trkpt><trkpt lat="43.74310897372215" lon="11.21496411659878"><ele>65.0</ele><time>2026-03-28T11:24:16Z</time></trkpt><trkpt lat="43.74308470225147" lon="11.214845963302098"><ele>64.0</ele><time>2026-03-28T11:24:17Z</time></trkpt><trkpt lat="43.74306651992588" lon="11.214725366938206"><ele>63.0</ele><time>2026-03-28T11:24:18Z</time></trkpt><trkpt lat="43.74304530908477" lon="11.21461121035971"><ele>61.99999999999999</ele><time>2026-03-28T11:24:19Z</time></trkpt><trkpt lat="43.74302825286824" lon="11.214508183897696"><ele>61.0</ele><time>2026-03-28T11:24:20Z</time></trkpt><trkpt lat="43.74302111964029" lon="11.214399667540171"><ele>60.4</ele><time>2026-03-28T11:24:21Z</time></trkpt><trkpt lat="43.74304526254821" lon="11.214280205454335"><ele>59.8</ele><time>2026-03-28T11:24:22Z</time></trkpt><trkpt lat="43.74311399756772" lon="11.214169338286302"><ele>59.199999999999996</ele><time>2026-03-28T11:24:23Z</time></trkpt><trkpt lat="43.743212314351695" lon="11.214081408217526"><ele>58.599999999999994</ele><time>2026-03-28T11:24:24Z</time></trkpt><trkpt lat="43.74332619814353" lon="11.213986018970012"><ele>58.0</ele><time>2026-03-28T11:24:25Z</time></trkpt><trkpt lat="43.743413529481245" lon="11.213873690402666"><ele>57.25</ele><time>2026-03-28T11:24:26Z</time></trkpt><trkpt lat="43.74348058586162" lon="11.213748276013499"><ele>56.5</ele><time>2026-03-28T11:24:27Z</time></trkpt><trkpt lat="43.74357249597779" lon="11.213619719076435"><ele>55.75</ele><time>2026-03-28T11:24:28Z</time></trkpt><trkpt lat="43.743655001657054" lon="11.213467550488152"><ele>55.0</ele><time>2026-03-28T11:24:29Z</time></trkpt><trkpt lat="43.74376095689152" lon="11.213270872654398"><ele>57.666666666666664</ele><time>2026-03-28T11:24:30Z</time></trkpt><trkpt lat="43.74387837579524" lon="11.213041339473499"><ele>60.33333333333333</ele><time>2026-03-28T11:24:31Z</time></trkpt><trkpt lat="43.74400452475648" lon="11.212813329765657"><ele>63.0</ele><time>2026-03-28T11:24:32Z</time></trkpt><trkpt lat="43.74410740265432" lon="11.21255115695913"><ele>60.0</ele><time>2026-03-28T11:24:33Z</time></trkpt><trkpt lat="43.74419699992154" lon="11.21226353699486"><ele>57.0</ele><time>2026-03-28T11:24:34Z</time></trkpt><trkpt lat="43.74428142793666" lon="11.211986268559375"><ele>54.0</ele><time>2026-03-28T11:24:35Z</time></trkpt><trkpt lat="43.744369593203366" lon="11.211711374812111"><ele>54.5</ele><time>2026-03-28T11:24:36Z</time></trkpt><trkpt lat="43.744467066441274" lon="11.21142777577204"><ele>55.0</ele><time>2026-03-28T11:24:37Z</time></trkpt><trkpt lat="43.74456936767873" lon="11.211142933664009"><ele>55.0</ele><time>2026-03-28T11:24:38Z</time></trkpt><trkpt lat="43.744674007515286" lon="11.210851504713563"><ele>55.0</ele><time>2026-03-28T11:24:39Z</time></trkpt><trkpt lat="43.74477919557798" lon="11.210586037334357"><ele>54.0</ele><time>2026-03-28T11:24:40Z</time></trkpt><trkpt lat="43.74487556127485" lon="11.21033280720236"><ele>53.0</ele><time>2026-03-28T11:24:41Z</time></trkpt><trkpt lat="43.7449681335421" lon="11.210090598376725"><ele>52.0</ele><time>2026-03-28T11:24:42Z</time></trkpt><trkpt lat="43.74505275416566" lon="11.209856228058207"><ele>51.666666666666664</ele><time>2026-03-28T11:24:43Z</time></trkpt><trkpt lat="43.74513884094983" lon="11.209632988968108"><ele>51.33333333333333</ele><time>2026-03-28T11:24:44Z</time></trkpt><trkpt lat="43.74522993889327" lon="11.209428951144396"><ele>51.0</ele><time>2026-03-28T11:24:45Z</time></trkpt><trkpt lat="43.74533871253226" lon="11.209254553210622"><ele>51.0</ele><time>2026-03-28T11:24:46Z</time></trkpt><trkpt lat="43.74547215314524" lon="11.209139354790182"><ele>51.0</ele><time>2026-03-28T11:24:47Z</time></trkpt><trkpt lat="43.7455994683109" lon="11.209028255637772"><ele>51.0</ele><time>2026-03-28T11:24:48Z</time></trkpt><trkpt lat="43.74571862924716" lon="11.208918965547486"><ele>51.25</ele><time>2026-03-28T11:24:49Z</time></trkpt><trkpt lat="43.7458440100853" lon="11.208850952300697"><ele>51.5</ele><time>2026-03-28T11:24:50Z</time></trkpt><trkpt lat="43.7459578045807" lon="11.2087814143547"><ele>51.75</ele><time>2026-03-28T11:24:51Z</time></trkpt><trkpt lat="43.74606432981815" lon="11.208713397467873"><ele>52.0</ele><time>2026-03-28T11:24:52Z</time></trkpt><trkpt lat="43.746174679915235" lon="11.20865623331516"><ele>51.5</ele><time>2026-03-28T11:24:53Z</time></trkpt><trkpt lat="43.74629002640411" lon="11.208615326237286"><ele>51.0</ele><time>2026-03-28T11:24:54Z</time></trkpt><trkpt lat="43.74640310910372" lon="11.208583663443422"><ele>50.5</ele><time>2026-03-28T11:24:55Z</time></trkpt><trkpt lat="43.74652858295314" lon="11.208552861498926"><ele>50.0</ele><time>2026-03-28T11:24:56Z</time></trkpt><trkpt lat="43.746658609128865" lon="11.208523620496155"><ele>50.0</ele><time>2026-03-28T11:24:57Z</time></trkpt><trkpt lat="43.74678828337287" lon="11.20849029206925"><ele>50.0</ele><time>2026-03-28T11:24:58Z</time></trkpt><trkpt lat="43.74692898522919" lon="11.208452993009187"><ele>50.0</ele><time>2026-03-28T11:24:59Z</time></trkpt><trkpt lat="43.7470886402546" lon="11.208424527312634"><ele>50.0</ele><time>2026-03-28T11:25:00Z</time></trkpt><trkpt lat="43.74726523312396" lon="11.208379812534382"><ele>51.0</ele><time>2026-03-28T11:25:01Z</time></trkpt><trkpt lat="43.747444156047436" lon="11.208330457145488"><ele>52.0</ele><time>2026-03-28T11:25:02Z</time></trkpt><trkpt lat="43.747632926256195" lon="11.208277125573716"><ele>53.0</ele><time>2026-03-28T11:25:03Z</time></trkpt><trkpt lat="43.74783569904544" lon="11.208234611525581"><ele>52.0</ele><time>2026-03-28T11:25:04Z</time></trkpt><trkpt lat="43.74804150404427" lon="11.208178521901495"><ele>51.0</ele><time>2026-03-28T11:25:05Z</time></trkpt><trkpt lat="43.748239001270505" lon="11.208126904976194"><ele>50.0</ele><time>2026-03-28T11:25:06Z</time></trkpt><trkpt lat="43.74843684436166" lon="11.208078549607885"><ele>50.0</ele><time>2026-03-28T11:25:07Z</time></trkpt><trkpt lat="43.748626536997136" lon="11.2080337716776"><ele>50.0</ele><time>2026-03-28T11:25:08Z</time></trkpt><trkpt lat="43.748809476780906" lon="11.20799468685622"><ele>50.0</ele><time>2026-03-28T11:25:09Z</time></trkpt><trkpt lat="43.748990169343806" lon="11.207953202297102"><ele>50.0</ele><time>2026-03-28T11:25:10Z</time></trkpt><trkpt lat="43.749170496572475" lon="11.207893608366906"><ele>50.0</ele><time>2026-03-28T11:25:11Z</time></trkpt><trkpt lat="43.74934669032217" lon="11.207794968808926"><ele>50.0</ele><time>2026-03-28T11:25:12Z</time></trkpt><trkpt lat="43.74951945756242" lon="11.207665954883774"><ele>49.66666666666667</ele><time>2026-03-28T11:25:13Z</time></trkpt><trkpt lat="43.7496845145806" lon="11.207548215287094"><ele>49.33333333333333</ele><time>2026-03-28T11:25:14Z</time></trkpt><trkpt lat="43.74982123759713" lon="11.207431466888439"><ele>49.0</ele><time>2026-03-28T11:25:15Z</time></trkpt><trkpt lat="43.74995576953529" lon="11.207326211799232"><ele>49.0</ele><time>2026-03-28T11:25:16Z</time></trkpt><trkpt lat="43.75008694914441" lon="11.207235331877733"><ele>49.0</ele><time>2026-03-28T11:25:17Z</time></trkpt><trkpt lat="43.75020796335179" lon="11.20714678816142"><ele>49.0</ele><time>2026-03-28T11:25:18Z</time></trkpt><trkpt lat="43.750321552135944" lon="11.20706196243694"><ele>49.0</ele><time>2026-03-28T11:25:19Z</time></trkpt><trkpt lat="43.75043329458702" lon="11.206984960330416"><ele>50.25</ele><time>2026-03-28T11:25:20Z</time></trkpt><trkpt lat="43.75054279971458" lon="11.206914891311065"><ele>51.5</ele><time>2026-03-28T11:25:21Z</time></trkpt><trkpt lat="43.75065217545718" lon="11.20684822162059"><ele>52.75</ele><time>2026-03-28T11:25:22Z</time></trkpt><trkpt lat="43.75076710320296" lon="11.206775673536345"><ele>54.0</ele><time>2026-03-28T11:25:23Z</time></trkpt><trkpt lat="43.75088085643343" lon="11.206702423420897"><ele>54.0</ele><time>2026-03-28T11:25:24Z</time></trkpt><trkpt lat="43.750983778101464" lon="11.206620124590915"><ele>54.00000000000001</ele><time>2026-03-28T11:25:25Z</time></trkpt><trkpt lat="43.75106906632829" lon="11.206527227992511"><ele>54.00000000000001</ele><time>2026-03-28T11:25:26Z</time></trkpt><trkpt lat="43.751135329216794" lon="11.206422448635045"><ele>54.0</ele><time>2026-03-28T11:25:27Z</time></trkpt><trkpt lat="43.751191992929286" lon="11.206315998425929"><ele>54.0</ele><time>2026-03-28T11:25:28Z</time></trkpt><trkpt lat="43.75124078292202" lon="11.206215109917851"><ele>53.75</ele><time>2026-03-28T11:25:29Z</time></trkpt><trkpt lat="43.75130108696579" lon="11.20609556144786"><ele>53.5</ele><time>2026-03-28T11:25:30Z</time></trkpt><trkpt lat="43.75137021013354" lon="11.205951191265695"><ele>53.25</ele><time>2026-03-28T11:25:31Z</time></trkpt><trkpt lat="43.751447733057205" lon="11.205800673499029"><ele>53.0</ele><time>2026-03-28T11:25:32Z</time></trkpt><trkpt lat="43.75152194961258" lon="11.205644070543942"><ele>53.0</ele><time>2026-03-28T11:25:33Z</time></trkpt><trkpt lat="43.75158778085435" lon="11.205503266239061"><ele>53.0</ele><time>2026-03-28T11:25:34Z</time></trkpt><trkpt lat="43.75166436553595" lon="11.205376906106746"><ele>53.0</ele><time>2026-03-28T11:25:35Z</time></trkpt><trkpt lat="43.751734751046655" lon="11.20522141817984"><ele>53.0</ele><time>2026-03-28T11:25:36Z</time></trkpt><trkpt lat="43.751806589841365" lon="11.205056844214454"><ele>53.0</ele><time>2026-03-28T11:25:37Z</time></trkpt><trkpt lat="43.7518569239763" lon="11.20486855088955"><ele>53.0</ele><time>2026-03-28T11:25:38Z</time></trkpt><trkpt lat="43.75190988315702" lon="11.204695455519156"><ele>53.0</ele><time>2026-03-28T11:25:39Z</time></trkpt><trkpt lat="43.75194329250459" lon="11.204520531764697"><ele>53.0</ele><time>2026-03-28T11:25:40Z</time></trkpt><trkpt lat="43.75196973425382" lon="11.20435140059936"><ele>53.25</ele><time>2026-03-28T11:25:41Z</time></trkpt><trkpt lat="43.75198903455672" lon="11.204182353902244"><ele>53.5</ele><time>2026-03-28T11:25:42Z</time></trkpt><trkpt lat="43.752005460691855" lon="11.20401821711071"><ele>53.75</ele><time>2026-03-28T11:25:43Z</time></trkpt><trkpt lat="43.752028217539404" lon="11.203863387453127"><ele>54.0</ele><time>2026-03-28T11:25:44Z</time></trkpt><trkpt lat="43.752063433543036" lon="11.203715750421516"><ele>54.0</ele><time>2026-03-28T11:25:45Z</time></trkpt><trkpt lat="43.75210335799605" lon="11.203583696527431"><ele>54.00000000000001</ele><time>2026-03-28T11:25:46Z</time></trkpt><trkpt lat="43.752143154444184" lon="11.203452395423504"><ele>54.00000000000001</ele><time>2026-03-28T11:25:47Z</time></trkpt><trkpt lat="43.75218151107385" lon="11.20331921006281"><ele>54.0</ele><time>2026-03-28T11:25:48Z</time></trkpt><trkpt lat="43.75222748038407" lon="11.203179701017325"><ele>54.0</ele><time>2026-03-28T11:25:49Z</time></trkpt><trkpt lat="43.75228790493756" lon="11.203056015979586"><ele>53.0</ele><time>2026-03-28T11:25:50Z</time></trkpt><trkpt lat="43.75238048327892" lon="11.202975531471193"><ele>52.0</ele><time>2026-03-28T11:25:51Z</time></trkpt><trkpt lat="43.752477180771585" lon="11.202915695110407"><ele>51.0</ele><time>2026-03-28T11:25:52Z</time></trkpt><trkpt lat="43.75257707736449" lon="11.202835253425013"><ele>50.0</ele><time>2026-03-28T11:25:53Z</time></trkpt><trkpt lat="43.75269059739522" lon="11.20276765992407"><ele>51.25</ele><time>2026-03-28T11:25:54Z</time></trkpt><trkpt lat="43.752798151444885" lon="11.20267673609666"><ele>52.5</ele><time>2026-03-28T11:25:55Z</time></trkpt><trkpt lat="43.75289210426726" lon="11.202573042384675"><ele>53.75</ele><time>2026-03-28T11:25:56Z</time></trkpt><trkpt lat="43.75294726541736" lon="11.202424209830559"><ele>55.0</ele><time>2026-03-28T11:25:57Z</time></trkpt><trkpt lat="43.75297701807485" lon="11.202248739189274"><ele>55.0</ele><time>2026-03-28T11:25:58Z</time></trkpt><trkpt lat="43.75300811132232" lon="11.202075585109469"><ele>55.0</ele><time>2026-03-28T11:25:59Z</time></trkpt><trkpt lat="43.7530348188391" lon="11.201920894716608"><ele>55.0</ele><time>2026-03-28T11:26:00Z</time></trkpt><trkpt lat="43.75307152633845" lon="11.201769235407392"><ele>55.0</ele><time>2026-03-28T11:26:01Z</time></trkpt><trkpt lat="43.753107997944795" lon="11.20161825078428"><ele>54.4</ele><time>2026-03-28T11:26:02Z</time></trkpt><trkpt lat="43.753147303820796" lon="11.201475552730344"><ele>53.8</ele><time>2026-03-28T11:26:03Z</time></trkpt><trkpt lat="43.75319153096051" lon="11.20134278273199"><ele>53.2</ele><time>2026-03-28T11:26:04Z</time></trkpt><trkpt lat="43.75324514196707" lon="11.201229214907803"><ele>52.6</ele><time>2026-03-28T11:26:05Z</time></trkpt><trkpt lat="43.753318445804894" lon="11.201119352499065"><ele>52.0</ele><time>2026-03-28T11:26:06Z</time></trkpt><trkpt lat="43.75341597198036" lon="11.201017777682688"><ele>52.0</ele><time>2026-03-28T11:26:07Z</time></trkpt><trkpt lat="43.75353477465894" lon="11.200934376500207"><ele>52.0</ele><time>2026-03-28T11:26:08Z</time></trkpt><trkpt lat="43.753646217329546" lon="11.200860273903862"><ele>52.0</ele><time>2026-03-28T11:26:09Z</time></trkpt><trkpt lat="43.753755259063674" lon="11.200794503339223"><ele>52.0</ele><time>2026-03-28T11:26:10Z</time></trkpt><trkpt lat="43.75387754563751" lon="11.200755967952784"><ele>52.5</ele><time>2026-03-28T11:26:11Z</time></trkpt><trkpt lat="43.75400176585635" lon="11.200740455443633"><ele>53.0</ele><time>2026-03-28T11:26:12Z</time></trkpt><trkpt lat="43.75412180201049" lon="11.20074846423781"><ele>53.5</ele><time>2026-03-28T11:26:13Z</time></trkpt><trkpt lat="43.75423460588294" lon="11.200761177253826"><ele>54.0</ele><time>2026-03-28T11:26:14Z</time></trkpt><trkpt lat="43.75434503902518" lon="11.200763984186594"><ele>53.0</ele><time>2026-03-28T11:26:15Z</time></trkpt><trkpt lat="43.75445841310201" lon="11.200744305435864"><ele>52.00000000000001</ele><time>2026-03-28T11:26:16Z</time></trkpt><trkpt lat="43.75456828118253" lon="11.200706398384716"><ele>51.0</ele><time>2026-03-28T11:26:17Z</time></trkpt><trkpt lat="43.754660723522676" lon="11.200652372113465"><ele>50.0</ele><time>2026-03-28T11:26:18Z</time></trkpt><trkpt lat="43.75476344608786" lon="11.200604691112694"><ele>49.0</ele><time>2026-03-28T11:26:19Z</time></trkpt><trkpt lat="43.75486952060959" lon="11.200501855639853"><ele>48.666666666666664</ele><time>2026-03-28T11:26:20Z</time></trkpt><trkpt lat="43.7550003125459" lon="11.200428415002955"><ele>48.33333333333333</ele><time>2026-03-28T11:26:21Z</time></trkpt><trkpt lat="43.755145999846896" lon="11.200351889625303"><ele>48.0</ele><time>2026-03-28T11:26:22Z</time></trkpt><trkpt lat="43.755317840532626" lon="11.200275243250841"><ele>47.5</ele><time>2026-03-28T11:26:23Z</time></trkpt><trkpt lat="43.75546783341621" lon="11.200207839206085"><ele>47.0</ele><time>2026-03-28T11:26:24Z</time></trkpt><trkpt lat="43.75560524454771" lon="11.200139779864099"><ele>46.5</ele><time>2026-03-28T11:26:25Z</time></trkpt><trkpt lat="43.75573824480388" lon="11.200058566163646"><ele>46.0</ele><time>2026-03-28T11:26:26Z</time></trkpt><trkpt lat="43.75587027359516" lon="11.199931922216667"><ele>46.333333333333336</ele><time>2026-03-28T11:26:27Z</time></trkpt><trkpt lat="43.75600428549148" lon="11.199769446459447"><ele>46.666666666666664</ele><time>2026-03-28T11:26:28Z</time></trkpt><trkpt lat="43.756126898867095" lon="11.19959764514016"><ele>47.0</ele><time>2026-03-28T11:26:29Z</time></trkpt><trkpt lat="43.75623710377818" lon="11.199448532228148"><ele>47.0</ele><time>2026-03-28T11:26:30Z</time></trkpt><trkpt lat="43.75633566507292" lon="11.199307182009289"><ele>47.0</ele><time>2026-03-28T11:26:31Z</time></trkpt><trkpt lat="43.756431830757386" lon="11.199185019698882"><ele>47.0</ele><time>2026-03-28T11:26:32Z</time></trkpt><trkpt lat="43.75651584182316" lon="11.199081670946105"><ele>47.0</ele><time>2026-03-28T11:26:33Z</time></trkpt><trkpt lat="43.75659208841518" lon="11.198990166208846"><ele>47.166666666666664</ele><time>2026-03-28T11:26:34Z</time></trkpt><trkpt lat="43.75665564363759" lon="11.198907490016216"><ele>47.33333333333333</ele><time>2026-03-28T11:26:35Z</time></trkpt><trkpt lat="43.75671156818146" lon="11.19884018949571"><ele>47.5</ele><time>2026-03-28T11:26:36Z</time></trkpt><trkpt lat="43.756776904227806" lon="11.198765440839976"><ele>47.666666666666664</ele><time>2026-03-28T11:26:38Z</time></trkpt><trkpt lat="43.75685020844103" lon="11.19870693352216"><ele>47.833333333333336</ele><time>2026-03-28T11:27:41Z</time></trkpt><trkpt lat="43.756899799465884" lon="11.198647963673533"><ele>48.0</ele><time>2026-03-28T11:27:42Z</time></trkpt><trkpt lat="43.756963521680376" lon="11.198571397905456"><ele>48.0</ele><time>2026-03-28T11:27:43Z</time></trkpt><trkpt lat="43.75701876671697" lon="11.198463221905824"><ele>48.0</ele><time>2026-03-28T11:27:44Z</time></trkpt><trkpt lat="43.757084803881284" lon="11.19836605242116"><ele>48.0</ele><time>2026-03-28T11:27:45Z</time></trkpt><trkpt lat="43.757173182215475" lon="11.19828408293356"><ele>48.0</ele><time>2026-03-28T11:27:46Z</time></trkpt><trkpt lat="43.75724306141824" lon="11.198214469938105"><ele>48.0</ele><time>2026-03-28T11:27:47Z</time></trkpt><trkpt lat="43.757314312785326" lon="11.19814657445546"><ele>48.0</ele><time>2026-03-28T11:27:48Z</time></trkpt><trkpt lat="43.75738110164288" lon="11.198075881823797"><ele>48.0</ele><time>2026-03-28T11:27:49Z</time></trkpt><trkpt lat="43.75745651844324" lon="11.1980090204608"><ele>48.0</ele><time>2026-03-28T11:27:50Z</time></trkpt><trkpt lat="43.75755193083024" lon="11.197914240294848"><ele>48.0</ele><time>2026-03-28T11:27:51Z</time></trkpt><trkpt lat="43.757656709304186" lon="11.197800238769535"><ele>48.0</ele><time>2026-03-28T11:27:52Z</time></trkpt><trkpt lat="43.75776049989964" lon="11.197684126837808"><ele>48.0</ele><time>2026-03-28T11:27:53Z</time></trkpt><trkpt lat="43.757859750609455" lon="11.19756709678753"><ele>48.0</ele><time>2026-03-28T11:27:54Z</time></trkpt><trkpt lat="43.757972737421845" lon="11.197476048728616"><ele>48.0</ele><time>2026-03-28T11:27:55Z</time></trkpt><trkpt lat="43.75808787355092" lon="11.197346762305019"><ele>48.0</ele><time>2026-03-28T11:27:56Z</time></trkpt><trkpt lat="43.75818190254477" lon="11.197219141309926"><ele>47.599999999999994</ele><time>2026-03-28T11:27:57Z</time></trkpt><trkpt lat="43.75825017129368" lon="11.197097382658063"><ele>47.199999999999996</ele><time>2026-03-28T11:27:58Z</time></trkpt><trkpt lat="43.75831698951616" lon="11.19700625095878"><ele>46.8</ele><time>2026-03-28T11:27:59Z</time></trkpt><trkpt lat="43.758375782684055" lon="11.196917344006883"><ele>46.4</ele><time>2026-03-28T11:28:00Z</time></trkpt><trkpt lat="43.75843038046271" lon="11.19682178210983"><ele>46.0</ele><time>2026-03-28T11:28:01Z</time></trkpt><trkpt lat="43.7584753821059" lon="11.19672409821507"><ele>46.0</ele><time>2026-03-28T11:28:02Z</time></trkpt><trkpt lat="43.75853274436249" lon="11.196648666238092"><ele>46.0</ele><time>2026-03-28T11:28:03Z</time></trkpt><trkpt lat="43.75857272373865" lon="11.196566885122486"><ele>46.0</ele><time>2026-03-28T11:28:04Z</time></trkpt><trkpt lat="43.75861016070445" lon="11.19649030489765"><ele>46.0</ele><time>2026-03-28T11:28:05Z</time></trkpt><trkpt lat="43.75865065835499" lon="11.19641302570519"><ele>46.0</ele><time>2026-03-28T11:28:06Z</time></trkpt><trkpt lat="43.75871814888837" lon="11.196389761667598"><ele>46.0</ele><time>2026-03-28T11:28:07Z</time></trkpt><trkpt lat="43.75878993861113" lon="11.196400076646693"><ele>46.0</ele><time>2026-03-28T11:28:08Z</time></trkpt><trkpt lat="43.75885982881144" lon="11.19649307534745"><ele>46.0</ele><time>2026-03-28T11:28:09Z</time></trkpt><trkpt lat="43.75896271874207" lon="11.19654326100996"><ele>46.0</ele><time>2026-03-28T11:28:10Z</time></trkpt><trkpt lat="43.759056348673354" lon="11.196615708337093"><ele>46.0</ele><time>2026-03-28T11:28:11Z</time></trkpt><trkpt lat="43.75911904888144" lon="11.196673136081078"><ele>46.0</ele><time>2026-03-28T11:28:12Z</time></trkpt><trkpt lat="43.75922809887216" lon="11.19654147480445"><ele>46.0</ele><time>2026-03-28T11:28:13Z</time></trkpt><trkpt lat="43.75932486373981" lon="11.196498017219156"><ele>45.4</ele><time>2026-03-28T11:28:15Z</time></trkpt><trkpt lat="43.75939770645322" lon="11.19645549923887"><ele>44.8</ele><time>2026-03-28T11:28:53Z</time></trkpt><trkpt lat="43.7595215242145" lon="11.19637945804526"><ele>44.199999999999996</ele><time>2026-03-28T11:28:55Z</time></trkpt><trkpt lat="43.75960840250229" lon="11.196311615861577"><ele>43.599999999999994</ele><time>2026-03-28T11:28:56Z</time></trkpt><trkpt lat="43.759705420369905" lon="11.196255053850157"><ele>43.0</ele><time>2026-03-28T11:28:57Z</time></trkpt><trkpt lat="43.75980414039104" lon="11.196180796448925"><ele>43.0</ele><time>2026-03-28T11:28:58Z</time></trkpt><trkpt lat="43.759914277601375" lon="11.19613441637888"><ele>43.0</ele><time>2026-03-28T11:28:59Z</time></trkpt><trkpt lat="43.76003127731561" lon="11.196075439071324"><ele>43.0</ele><time>2026-03-28T11:29:00Z</time></trkpt><trkpt lat="43.76015748292698" lon="11.195994213915549"><ele>43.0</ele><time>2026-03-28T11:29:01Z</time></trkpt><trkpt lat="43.76029706431215" lon="11.195886018850727"><ele>42.333333333333336</ele><time>2026-03-28T11:29:02Z</time></trkpt><trkpt lat="43.760443661173305" lon="11.195774312039227"><ele>41.666666666666664</ele><time>2026-03-28T11:29:03Z</time></trkpt><trkpt lat="43.760597765459046" lon="11.195663706704607"><ele>41.0</ele><time>2026-03-28T11:29:04Z</time></trkpt><trkpt lat="43.76074338596937" lon="11.195557454336775"><ele>41.0</ele><time>2026-03-28T11:29:05Z</time></trkpt><trkpt lat="43.7608778186377" lon="11.195448720045192"><ele>41.0</ele><time>2026-03-28T11:29:06Z</time></trkpt><trkpt lat="43.76100877430572" lon="11.195354058644277"><ele>41.0</ele><time>2026-03-28T11:29:07Z</time></trkpt><trkpt lat="43.76112124477356" lon="11.195200960065593"><ele>41.0</ele><time>2026-03-28T11:29:08Z</time></trkpt><trkpt lat="43.76121302744674" lon="11.194977919329636"><ele>41.0</ele><time>2026-03-28T11:29:09Z</time></trkpt><trkpt lat="43.76129239423088" lon="11.194721633444775"><ele>41.0</ele><time>2026-03-28T11:29:10Z</time></trkpt><trkpt lat="43.76134372488955" lon="11.194581101711021"><ele>41.0</ele><time>2026-03-28T11:29:11Z</time></trkpt><trkpt lat="43.761405678816864" lon="11.194311648311752"><ele>41.0</ele><time>2026-03-28T11:29:12Z</time></trkpt><trkpt lat="43.76146337639546" lon="11.194084266721674"><ele>41.0</ele><time>2026-03-28T11:29:13Z</time></trkpt><trkpt lat="43.76152527316096" lon="11.193887498332384"><ele>40.8</ele><time>2026-03-28T11:29:14Z</time></trkpt><trkpt lat="43.76157566960614" lon="11.193715445001247"><ele>40.599999999999994</ele><time>2026-03-28T11:29:15Z</time></trkpt><trkpt lat="43.76163762709561" lon="11.193580521539154"><ele>40.4</ele><time>2026-03-28T11:29:16Z</time></trkpt><trkpt lat="43.761694874413166" lon="11.193471812012648"><ele>40.2</ele><time>2026-03-28T11:29:17Z</time></trkpt><trkpt lat="43.76175419598005" lon="11.193396217134909"><ele>40.0</ele><time>2026-03-28T11:29:18Z</time></trkpt><trkpt lat="43.761848481117994" lon="11.193393262954453"><ele>41.0</ele><time>2026-03-28T11:29:19Z</time></trkpt><trkpt lat="43.761977966975024" lon="11.193346674382797"><ele>42.0</ele><time>2026-03-28T11:29:20Z</time></trkpt><trkpt lat="43.762140918211415" lon="11.193272658274376"><ele>43.0</ele><time>2026-03-28T11:29:21Z</time></trkpt><trkpt lat="43.76230639475326" lon="11.193219774235132"><ele>42.333333333333336</ele><time>2026-03-28T11:29:22Z</time></trkpt><trkpt lat="43.76246289667899" lon="11.193161431079684"><ele>41.666666666666664</ele><time>2026-03-28T11:29:23Z</time></trkpt><trkpt lat="43.76263324540295" lon="11.193105762221146"><ele>41.0</ele><time>2026-03-28T11:29:24Z</time></trkpt><trkpt lat="43.7628012772547" lon="11.193010522878085"><ele>40.666666666666664</ele><time>2026-03-28T11:29:25Z</time></trkpt><trkpt lat="43.76298888912148" lon="11.19290391814842"><ele>40.333333333333336</ele><time>2026-03-28T11:29:26Z</time></trkpt><trkpt lat="43.76318176306019" lon="11.192805521512783"><ele>40.0</ele><time>2026-03-28T11:29:27Z</time></trkpt><trkpt lat="43.76336555387848" lon="11.192670144055496"><ele>41.0</ele><time>2026-03-28T11:29:28Z</time></trkpt><trkpt lat="43.76353860718312" lon="11.192571964387275"><ele>42.0</ele><time>2026-03-28T11:29:29Z</time></trkpt><trkpt lat="43.76369888103353" lon="11.19248171607252"><ele>43.0</ele><time>2026-03-28T11:29:30Z</time></trkpt><trkpt lat="43.763827521576665" lon="11.19240600723075"><ele>43.0</ele><time>2026-03-28T11:29:31Z</time></trkpt><trkpt lat="43.76395128708686" lon="11.192384076540703"><ele>43.0</ele><time>2026-03-28T11:29:32Z</time></trkpt><trkpt lat="43.764053624188556" lon="11.19239407385312"><ele>43.0</ele><time>2026-03-28T11:29:33Z</time></trkpt><trkpt lat="43.76413624613698" lon="11.192465664768298"><ele>43.0</ele><time>2026-03-28T11:29:34Z</time></trkpt><trkpt lat="43.76425439661886" lon="11.192544188953256"><ele>43.333333333333336</ele><time>2026-03-28T11:29:35Z</time></trkpt><trkpt lat="43.76441104517847" lon="11.192640139465329"><ele>43.666666666666664</ele><time>2026-03-28T11:29:36Z</time></trkpt><trkpt lat="43.76455232485831" lon="11.192746740003523"><ele>44.0</ele><time>2026-03-28T11:29:37Z</time></trkpt><trkpt lat="43.764666356288664" lon="11.192844545466725"><ele>44.0</ele><time>2026-03-28T11:29:38Z</time></trkpt><trkpt lat="43.76475435495785" lon="11.192916572340188"><ele>44.0</ele><time>2026-03-28T11:29:39Z</time></trkpt><trkpt lat="43.76482128998203" lon="11.19297869738927"><ele>44.0</ele><time>2026-03-28T11:29:40Z</time></trkpt><trkpt lat="43.7648731306783" lon="11.193052044212793"><ele>44.0</ele><time>2026-03-28T11:29:41Z</time></trkpt><trkpt lat="43.764938474127476" lon="11.193102865668793"><ele>44.0</ele><time>2026-03-28T11:29:43Z</time></trkpt><trkpt lat="43.76496378094934" lon="11.192910249075684"><ele>44.0</ele><time>2026-03-28T11:29:45Z</time></trkpt><trkpt lat="43.765007290302584" lon="11.192779429081774"><ele>44.0</ele><time>2026-03-28T11:29:46Z</time></trkpt><trkpt lat="43.76504421065391" lon="11.19262353494258"><ele>44.0</ele><time>2026-03-28T11:29:47Z</time></trkpt><trkpt lat="43.76513138774807" lon="11.19246317459188"><ele>44.0</ele><time>2026-03-28T11:29:48Z</time></trkpt><trkpt lat="43.76525581490597" lon="11.192341626278308"><ele>43.666666666666664</ele><time>2026-03-28T11:29:49Z</time></trkpt><trkpt lat="43.7653880599163" lon="11.19218155184876"><ele>43.333333333333336</ele><time>2026-03-28T11:29:50Z</time></trkpt><trkpt lat="43.76552043356278" lon="11.192029972093017"><ele>43.0</ele><time>2026-03-28T11:29:51Z</time></trkpt><trkpt lat="43.76562258812564" lon="11.19190057782271"><ele>43.0</ele><time>2026-03-28T11:29:52Z</time></trkpt><trkpt lat="43.76572512295146" lon="11.191791153321317"><ele>43.0</ele><time>2026-03-28T11:29:53Z</time></trkpt><trkpt lat="43.76583338458933" lon="11.19170251319832"><ele>43.0</ele><time>2026-03-28T11:29:54Z</time></trkpt><trkpt lat="43.765948048211506" lon="11.191630115491678"><ele>43.0</ele><time>2026-03-28T11:29:55Z</time></trkpt><trkpt lat="43.76604985933994" lon="11.191567651194246"><ele>42.8</ele><time>2026-03-28T11:29:56Z</time></trkpt><trkpt lat="43.766138838530374" lon="11.191521592384236"><ele>42.599999999999994</ele><time>2026-03-28T11:29:57Z</time></trkpt><trkpt lat="43.76623031893545" lon="11.191505800928859"><ele>42.400000000000006</ele><time>2026-03-28T11:29:58Z</time></trkpt><trkpt lat="43.76632732184913" lon="11.191526593110192"><ele>42.2</ele><time>2026-03-28T11:29:59Z</time></trkpt><trkpt lat="43.76642392445067" lon="11.1915604581602"><ele>42.0</ele><time>2026-03-28T11:30:00Z</time></trkpt><trkpt lat="43.766508428587926" lon="11.191613133590137"><ele>42.0</ele><time>2026-03-28T11:30:01Z</time></trkpt><trkpt lat="43.766594643315685" lon="11.191644978982279"><ele>42.0</ele><time>2026-03-28T11:30:02Z</time></trkpt><trkpt lat="43.766667278148674" lon="11.191648426579361"><ele>42.0</ele><time>2026-03-28T11:30:03Z</time></trkpt><trkpt lat="43.76673698901142" lon="11.191545904627082"><ele>42.0</ele><time>2026-03-28T11:30:04Z</time></trkpt><trkpt lat="43.766798327986194" lon="11.191425479323533"><ele>42.0</ele><time>2026-03-28T11:30:05Z</time></trkpt><trkpt lat="43.76685131024643" lon="11.19126475847829"><ele>42.0</ele><time>2026-03-28T11:30:06Z</time></trkpt><trkpt lat="43.76693245690167" lon="11.191118273503813"><ele>42.0</ele><time>2026-03-28T11:30:07Z</time></trkpt><trkpt lat="43.76700131904353" lon="11.19099696934018"><ele>42.0</ele><time>2026-03-28T11:30:08Z</time></trkpt><trkpt lat="43.76706676165451" lon="11.19089485797201"><ele>42.0</ele><time>2026-03-28T11:30:09Z</time></trkpt><trkpt lat="43.76712479826799" lon="11.190803569899607"><ele>42.0</ele><time>2026-03-28T11:30:10Z</time></trkpt><trkpt lat="43.767170992436384" lon="11.190735096214622"><ele>41.833333333333336</ele><time>2026-03-28T11:30:11Z</time></trkpt><trkpt lat="43.76723139107283" lon="11.190633350938583"><ele>41.666666666666664</ele><time>2026-03-28T11:30:13Z</time></trkpt><trkpt lat="43.76728807225068" lon="11.190528193218608"><ele>41.5</ele><time>2026-03-28T11:30:26Z</time></trkpt><trkpt lat="43.76733095548157" lon="11.190456803544176"><ele>41.33333333333333</ele><time>2026-03-28T11:30:29Z</time></trkpt><trkpt lat="43.76737151066547" lon="11.190389819933452"><ele>41.166666666666664</ele><time>2026-03-28T11:30:52Z</time></trkpt><trkpt lat="43.767418428248284" lon="11.190330088864656"><ele>41.0</ele><time>2026-03-28T11:31:02Z</time></trkpt><trkpt lat="43.76746506175109" lon="11.190258554863034"><ele>41.0</ele><time>2026-03-28T11:31:10Z</time></trkpt><trkpt lat="43.767555261601615" lon="11.190358754302537"><ele>41.0</ele><time>2026-03-28T11:31:15Z</time></trkpt><trkpt lat="43.7675865656608" lon="11.19045494143653"><ele>41.0</ele><time>2026-03-28T11:31:17Z</time></trkpt><trkpt lat="43.76762710268978" lon="11.190550701827014"><ele>41.0</ele><time>2026-03-28T11:31:19Z</time></trkpt><trkpt lat="43.76768097561535" lon="11.190658524383457"><ele>41.0</ele><time>2026-03-28T11:31:22Z</time></trkpt><trkpt lat="43.7677355224894" lon="11.190763701103743"><ele>41.199999999999996</ele><time>2026-03-28T11:31:24Z</time></trkpt><trkpt lat="43.76778591526204" lon="11.190859254678774"><ele>41.4</ele><time>2026-03-28T11:31:26Z</time></trkpt><trkpt lat="43.76784256365311" lon="11.190970943386864"><ele>41.6</ele><time>2026-03-28T11:31:28Z</time></trkpt><trkpt lat="43.767907265429216" lon="11.191095477423826"><ele>41.8</ele><time>2026-03-28T11:31:30Z</time></trkpt><trkpt lat="43.76796588176466" lon="11.19121557949734"><ele>42.0</ele><time>2026-03-28T11:31:32Z</time></trkpt><trkpt lat="43.768004858776585" lon="11.191285077684602"><ele>42.0</ele><time>2026-03-28T11:31:34Z</time></trkpt><trkpt lat="43.76804903251453" lon="11.191364229795607"><ele>42.0</ele><time>2026-03-28T11:31:43Z</time></trkpt><trkpt lat="43.76810444598508" lon="11.19146622792377"><ele>42.0</ele><time>2026-03-28T11:31:46Z</time></trkpt><trkpt lat="43.76816167336737" lon="11.19157413655911"><ele>42.0</ele><time>2026-03-28T11:31:48Z</time></trkpt><trkpt lat="43.76824537228243" lon="11.191714977531"><ele>42.0</ele><time>2026-03-28T11:31:50Z</time></trkpt><trkpt lat="43.768289915613224" lon="11.19177828784444"><ele>42.0</ele><time>2026-03-28T11:31:51Z</time></trkpt><trkpt lat="43.768336957844625" lon="11.191856047535667"><ele>42.0</ele><time>2026-03-28T11:31:52Z</time></trkpt><trkpt lat="43.768378985727324" lon="11.191927068178401"><ele>42.0</ele><time>2026-03-28T11:31:53Z</time></trkpt><trkpt lat="43.76842861485622" lon="11.19199838233377"><ele>42.0</ele><time>2026-03-28T11:31:54Z</time></trkpt><trkpt lat="43.7684739437115" lon="11.192064481229291"><ele>42.0</ele><time>2026-03-28T11:31:55Z</time></trkpt><trkpt lat="43.76851655996065" lon="11.192134266460458"><ele>42.0</ele><time>2026-03-28T11:31:56Z</time></trkpt><trkpt lat="43.76855554465607" lon="11.19221528847341"><ele>42.0</ele><time>2026-03-28T11:31:57Z</time></trkpt><trkpt lat="43.76860546552676" lon="11.192297330533611"><ele>42.0</ele><time>2026-03-28T11:31:59Z</time></trkpt><trkpt lat="43.76873432688015" lon="11.192237950285046"><ele>42.0</ele><time>2026-03-28T11:32:03Z</time></trkpt><trkpt lat="43.7687974902034" lon="11.19218792256053"><ele>42.0</ele><time>2026-03-28T11:32:04Z</time></trkpt><trkpt lat="43.76886575289121" lon="11.192135759011393"><ele>42.0</ele><time>2026-03-28T11:32:06Z</time></trkpt><trkpt lat="43.768965564485164" lon="11.192054307243016"><ele>42.0</ele><time>2026-03-28T11:32:56Z</time></trkpt><trkpt lat="43.76902569986786" lon="11.192007845282497"><ele>42.0</ele><time>2026-03-28T11:32:57Z</time></trkpt><trkpt lat="43.769110487924465" lon="11.191967329472709"><ele>42.0</ele><time>2026-03-28T11:32:59Z</time></trkpt><trkpt lat="43.769098920261406" lon="11.19176392153256"><ele>42.0</ele><time>2026-03-28T11:33:00Z</time></trkpt><trkpt lat="43.769101138635776" lon="11.191642251756036"><ele>42.0</ele><time>2026-03-28T11:33:01Z</time></trkpt><trkpt lat="43.76909301975262" lon="11.191518735502791"><ele>42.0</ele><time>2026-03-28T11:33:02Z</time></trkpt><trkpt lat="43.76908829242794" lon="11.191405267491296"><ele>42.0</ele><time>2026-03-28T11:33:03Z</time></trkpt><trkpt lat="43.769085167071076" lon="11.19129398909654"><ele>42.0</ele><time>2026-03-28T11:33:04Z</time></trkpt><trkpt lat="43.76907313890201" lon="11.19118293553835"><ele>42.0</ele><time>2026-03-28T11:33:05Z</time></trkpt><trkpt lat="43.769064617516065" lon="11.19108539452639"><ele>42.0</ele><time>2026-03-28T11:33:06Z</time></trkpt><trkpt lat="43.76905369883815" lon="11.19099574463549"><ele>42.0</ele><time>2026-03-28T11:33:07Z</time></trkpt><trkpt lat="43.769026637966896" lon="11.190851614698598"><ele>42.0</ele><time>2026-03-28T11:33:09Z</time></trkpt><trkpt lat="43.76901226149911" lon="11.190750537465599"><ele>41.8</ele><time>2026-03-28T11:33:11Z</time></trkpt><trkpt lat="43.76901957418244" lon="11.190599286954972"><ele>41.6</ele><time>2026-03-28T11:33:14Z</time></trkpt><trkpt lat="43.7690449203104" lon="11.190508903434988"><ele>41.4</ele><time>2026-03-28T11:33:15Z</time></trkpt><trkpt lat="43.769128055403755" lon="11.190386710289102"><ele>41.199999999999996</ele><time>2026-03-28T11:33:17Z</time></trkpt><trkpt lat="43.76917801988448" lon="11.190303038693349"><ele>41.0</ele><time>2026-03-28T11:33:18Z</time></trkpt><trkpt lat="43.769225697079655" lon="11.190211811712475"><ele>41.0</ele><time>2026-03-28T11:33:19Z</time></trkpt><trkpt lat="43.76926622783378" lon="11.190100140167065"><ele>41.0</ele><time>2026-03-28T11:33:20Z</time></trkpt><trkpt lat="43.76927677439976" lon="11.189982540591467"><ele>41.0</ele><time>2026-03-28T11:33:21Z</time></trkpt><trkpt lat="43.76926222095533" lon="11.189861687575712"><ele>41.0</ele><time>2026-03-28T11:33:22Z</time></trkpt><trkpt lat="43.76923036300806" lon="11.18973087929553"><ele>41.0</ele><time>2026-03-28T11:33:23Z</time></trkpt><trkpt lat="43.76923974379216" lon="11.189603260401242"><ele>40.75</ele><time>2026-03-28T11:33:24Z</time></trkpt><trkpt lat="43.7692616299794" lon="11.189465683593191"><ele>40.5</ele><time>2026-03-28T11:33:25Z</time></trkpt><trkpt lat="43.76929259288398" lon="11.189298062516311"><ele>40.25</ele><time>2026-03-28T11:33:26Z</time></trkpt><trkpt lat="43.769348175694695" lon="11.189129758251209"><ele>40.0</ele><time>2026-03-28T11:33:27Z</time></trkpt><trkpt lat="43.76941437549623" lon="11.188944945745856"><ele>39.0</ele><time>2026-03-28T11:33:28Z</time></trkpt><trkpt lat="43.76949604974128" lon="11.188762761960982"><ele>38.0</ele><time>2026-03-28T11:33:29Z</time></trkpt><trkpt lat="43.76961169578769" lon="11.188611788668178"><ele>37.0</ele><time>2026-03-28T11:33:30Z</time></trkpt><trkpt lat="43.769768805895175" lon="11.18848105049694"><ele>37.0</ele><time>2026-03-28T11:33:31Z</time></trkpt><trkpt lat="43.769956312279476" lon="11.18834275197965"><ele>37.0</ele><time>2026-03-28T11:33:32Z</time></trkpt><trkpt lat="43.77015144261389" lon="11.18821804760234"><ele>37.0</ele><time>2026-03-28T11:33:33Z</time></trkpt><trkpt lat="43.770338686022804" lon="11.188093116220342"><ele>37.333333333333336</ele><time>2026-03-28T11:33:34Z</time></trkpt><trkpt lat="43.770518841491004" lon="11.187998161777587"><ele>37.666666666666664</ele><time>2026-03-28T11:33:35Z</time></trkpt><trkpt lat="43.77068290082599" lon="11.18791376693941"><ele>38.0</ele><time>2026-03-28T11:33:36Z</time></trkpt><trkpt lat="43.77083907979074" lon="11.187823443997392"><ele>38.0</ele><time>2026-03-28T11:33:37Z</time></trkpt><trkpt lat="43.77098617556175" lon="11.187747480475348"><ele>38.0</ele><time>2026-03-28T11:33:38Z</time></trkpt><trkpt lat="43.77112176562716" lon="11.187682134014004"><ele>38.0</ele><time>2026-03-28T11:33:39Z</time></trkpt><trkpt lat="43.771260033905115" lon="11.187591740096723"><ele>37.666666666666664</ele><time>2026-03-28T11:33:40Z</time></trkpt><trkpt lat="43.77143470398893" lon="11.18751576797323"><ele>37.333333333333336</ele><time>2026-03-28T11:33:41Z</time></trkpt><trkpt lat="43.77162671750701" lon="11.187402790555474"><ele>37.0</ele><time>2026-03-28T11:33:42Z</time></trkpt><trkpt lat="43.7718361388076" lon="11.187279174227717"><ele>37.5</ele><time>2026-03-28T11:33:43Z</time></trkpt><trkpt lat="43.77206207777921" lon="11.187143709794258"><ele>38.0</ele><time>2026-03-28T11:33:44Z</time></trkpt><trkpt lat="43.77228373542467" lon="11.187010079657831"><ele>38.0</ele><time>2026-03-28T11:33:45Z</time></trkpt><trkpt lat="43.77250292793048" lon="11.186855556823385"><ele>38.0</ele><time>2026-03-28T11:33:46Z</time></trkpt><trkpt lat="43.772695367694354" lon="11.186697839207561"><ele>37.666666666666664</ele><time>2026-03-28T11:33:47Z</time></trkpt><trkpt lat="43.77290365747931" lon="11.18663224886951"><ele>37.333333333333336</ele><time>2026-03-28T11:33:48Z</time></trkpt><trkpt lat="43.77313457741216" lon="11.186618524808274"><ele>37.0</ele><time>2026-03-28T11:33:49Z</time></trkpt><trkpt lat="43.773391818438675" lon="11.186639270197952"><ele>37.0</ele><time>2026-03-28T11:33:50Z</time></trkpt><trkpt lat="43.77365587214094" lon="11.186670327321146"><ele>37.0</ele><time>2026-03-28T11:33:51Z</time></trkpt><trkpt lat="43.77392461066315" lon="11.186694864379618"><ele>37.0</ele><time>2026-03-28T11:33:52Z</time></trkpt><trkpt lat="43.774188305043204" lon="11.186717551962317"><ele>37.0</ele><time>2026-03-28T11:33:53Z</time></trkpt><trkpt lat="43.77445687028075" lon="11.186742918686626"><ele>37.0</ele><time>2026-03-28T11:33:54Z</time></trkpt><trkpt lat="43.774732709227116" lon="11.186763759631164"><ele>37.0</ele><time>2026-03-28T11:33:55Z</time></trkpt><trkpt lat="43.77501512634752" lon="11.186786513423513"><ele>37.0</ele><time>2026-03-28T11:33:56Z</time></trkpt><trkpt lat="43.775296302607465" lon="11.186809841868902"><ele>37.0</ele><time>2026-03-28T11:33:57Z</time></trkpt><trkpt lat="43.775567631584344" lon="11.186836424654476"><ele>37.0</ele><time>2026-03-28T11:33:58Z</time></trkpt><trkpt lat="43.77582629283775" lon="11.186859642356378"><ele>37.0</ele><time>2026-03-28T11:33:59Z</time></trkpt><trkpt lat="43.776082089373524" lon="11.186883487565469"><ele>36.0</ele><time>2026-03-28T11:34:00Z</time></trkpt><trkpt lat="43.77634871245109" lon="11.186894229169779"><ele>35.0</ele><time>2026-03-28T11:34:01Z</time></trkpt><trkpt lat="43.77661034110692" lon="11.186882748603333"><ele>36.5</ele><time>2026-03-28T11:34:02Z</time></trkpt><trkpt lat="43.7768754378638" lon="11.18683924700287"><ele>38.0</ele><time>2026-03-28T11:34:03Z</time></trkpt><trkpt lat="43.77713544892347" lon="11.186763892049616"><ele>38.0</ele><time>2026-03-28T11:34:04Z</time></trkpt><trkpt lat="43.777398649984285" lon="11.18667259892658"><ele>38.0</ele><time>2026-03-28T11:34:05Z</time></trkpt><trkpt lat="43.77765380881128" lon="11.186545598323066"><ele>37.0</ele><time>2026-03-28T11:34:06Z</time></trkpt><trkpt lat="43.777905225504334" lon="11.186392159718388"><ele>36.0</ele><time>2026-03-28T11:34:07Z</time></trkpt><trkpt lat="43.778155189767844" lon="11.186225786698053"><ele>36.0</ele><time>2026-03-28T11:34:08Z</time></trkpt><trkpt lat="43.77841110261172" lon="11.186069925066166"><ele>36.0</ele><time>2026-03-28T11:34:09Z</time></trkpt><trkpt lat="43.77866517083447" lon="11.185927307373772"><ele>36.5</ele><time>2026-03-28T11:34:10Z</time></trkpt><trkpt lat="43.77891171133506" lon="11.185828569548764"><ele>37.0</ele><time>2026-03-28T11:34:11Z</time></trkpt><trkpt lat="43.779156873847256" lon="11.18576718320122"><ele>38.5</ele><time>2026-03-28T11:34:12Z</time></trkpt><trkpt lat="43.77939801337297" lon="11.185744940565819"><ele>40.0</ele><time>2026-03-28T11:34:13Z</time></trkpt><trkpt lat="43.77965171763756" lon="11.18575465474039"><ele>40.0</ele><time>2026-03-28T11:34:14Z</time></trkpt><trkpt lat="43.77990494361418" lon="11.185810269572722"><ele>40.0</ele><time>2026-03-28T11:34:15Z</time></trkpt><trkpt lat="43.78014481994553" lon="11.18590920773986"><ele>39.333333333333336</ele><time>2026-03-28T11:34:16Z</time></trkpt><trkpt lat="43.78036334697383" lon="11.186025377263137"><ele>38.666666666666664</ele><time>2026-03-28T11:34:17Z</time></trkpt><trkpt lat="43.78055906723444" lon="11.186145466959701"><ele>38.0</ele><time>2026-03-28T11:34:18Z</time></trkpt><trkpt lat="43.78074957072757" lon="11.18627855793744"><ele>38.0</ele><time>2026-03-28T11:34:19Z</time></trkpt><trkpt lat="43.780939795110235" lon="11.18643453879735"><ele>38.0</ele><time>2026-03-28T11:34:20Z</time></trkpt><trkpt lat="43.78114247813077" lon="11.186599989265185"><ele>38.5</ele><time>2026-03-28T11:34:21Z</time></trkpt><trkpt lat="43.78135464228052" lon="11.18677494567608"><ele>39.0</ele><time>2026-03-28T11:34:22Z</time></trkpt><trkpt lat="43.78157210956155" lon="11.186960064631512"><ele>39.0</ele><time>2026-03-28T11:34:23Z</time></trkpt><trkpt lat="43.78178912111437" lon="11.187144731189564"><ele>39.0</ele><time>2026-03-28T11:34:24Z</time></trkpt><trkpt lat="43.78199377270657" lon="11.187316229203274"><ele>39.5</ele><time>2026-03-28T11:34:25Z</time></trkpt><trkpt lat="43.782192464747304" lon="11.187482110751684"><ele>40.0</ele><time>2026-03-28T11:34:26Z</time></trkpt><trkpt lat="43.78238828717735" lon="11.187641489439493"><ele>40.0</ele><time>2026-03-28T11:34:27Z</time></trkpt><trkpt lat="43.78257675236117" lon="11.187799643376529"><ele>40.0</ele><time>2026-03-28T11:34:28Z</time></trkpt><trkpt lat="43.782765536535884" lon="11.18796022292155"><ele>40.0</ele><time>2026-03-28T11:34:29Z</time></trkpt><trkpt lat="43.78294710969634" lon="11.188114221101895"><ele>40.66666666666667</ele><time>2026-03-28T11:34:30Z</time></trkpt><trkpt lat="43.783131402087285" lon="11.18826606343726"><ele>41.333333333333336</ele><time>2026-03-28T11:34:31Z</time></trkpt><trkpt lat="43.783304084807625" lon="11.188408204170159"><ele>42.0</ele><time>2026-03-28T11:34:32Z</time></trkpt><trkpt lat="43.78346505040782" lon="11.188541390278075"><ele>42.0</ele><time>2026-03-28T11:34:33Z</time></trkpt><trkpt lat="43.78361917062414" lon="11.188672611753395"><ele>42.0</ele><time>2026-03-28T11:34:34Z</time></trkpt><trkpt lat="43.78376051113042" lon="11.18881205748526"><ele>42.0</ele><time>2026-03-28T11:34:35Z</time></trkpt><trkpt lat="43.783888660637594" lon="11.188959561241948"><ele>41.666666666666664</ele><time>2026-03-28T11:34:36Z</time></trkpt><trkpt lat="43.78401042360889" lon="11.18911634365836"><ele>41.33333333333333</ele><time>2026-03-28T11:34:37Z</time></trkpt><trkpt lat="43.78412019545356" lon="11.18927905847521"><ele>41.0</ele><time>2026-03-28T11:34:38Z</time></trkpt><trkpt lat="43.78423019314889" lon="11.189464729154327"><ele>41.0</ele><time>2026-03-28T11:34:39Z</time></trkpt><trkpt lat="43.78433046533698" lon="11.189652182234866"><ele>41.0</ele><time>2026-03-28T11:34:40Z</time></trkpt><trkpt lat="43.784419361389105" lon="11.189855505003562"><ele>41.0</ele><time>2026-03-28T11:34:41Z</time></trkpt><trkpt lat="43.784507127950484" lon="11.190070426366406"><ele>40.33333333333333</ele><time>2026-03-28T11:34:42Z</time></trkpt><trkpt lat="43.78459913505627" lon="11.19027918890291"><ele>39.666666666666664</ele><time>2026-03-28T11:34:43Z</time></trkpt><trkpt lat="43.784691168848894" lon="11.19049609269412"><ele>39.0</ele><time>2026-03-28T11:34:44Z</time></trkpt><trkpt lat="43.784781529564064" lon="11.190720140099504"><ele>39.0</ele><time>2026-03-28T11:34:45Z</time></trkpt><trkpt lat="43.784872130531305" lon="11.190938419801533"><ele>39.0</ele><time>2026-03-28T11:34:46Z</time></trkpt><trkpt lat="43.78496592612824" lon="11.19115799431109"><ele>39.0</ele><time>2026-03-28T11:34:47Z</time></trkpt><trkpt lat="43.785064727570145" lon="11.191389361778198"><ele>39.0</ele><time>2026-03-28T11:34:48Z</time></trkpt><trkpt lat="43.78516360486586" lon="11.19162792909333"><ele>39.0</ele><time>2026-03-28T11:34:49Z</time></trkpt><trkpt lat="43.785267505018865" lon="11.19186669666922"><ele>39.0</ele><time>2026-03-28T11:34:50Z</time></trkpt><trkpt lat="43.78537503250121" lon="11.192098264522286"><ele>39.0</ele><time>2026-03-28T11:34:51Z</time></trkpt><trkpt lat="43.78549566676694" lon="11.192341966886918"><ele>39.0</ele><time>2026-03-28T11:34:52Z</time></trkpt><trkpt lat="43.78564842220714" lon="11.192570324801899"><ele>39.0</ele><time>2026-03-28T11:34:53Z</time></trkpt><trkpt lat="43.7858031723501" lon="11.192806335370905"><ele>39.0</ele><time>2026-03-28T11:34:54Z</time></trkpt><trkpt lat="43.785974461910115" lon="11.193038494895553"><ele>39.0</ele><time>2026-03-28T11:34:55Z</time></trkpt><trkpt lat="43.7861350992893" lon="11.193269231065477"><ele>38.666666666666664</ele><time>2026-03-28T11:34:56Z</time></trkpt><trkpt lat="43.78630830638133" lon="11.193443400673727"><ele>38.33333333333333</ele><time>2026-03-28T11:34:57Z</time></trkpt><trkpt lat="43.78649163474133" lon="11.193613675593552"><ele>38.0</ele><time>2026-03-28T11:34:58Z</time></trkpt><trkpt lat="43.78668066872509" lon="11.193782760771818"><ele>38.0</ele><time>2026-03-28T11:34:59Z</time></trkpt><trkpt lat="43.78687749969101" lon="11.193949768518015"><ele>38.0</ele><time>2026-03-28T11:35:00Z</time></trkpt><trkpt lat="43.78708715314492" lon="11.194127635706131"><ele>38.0</ele><time>2026-03-28T11:35:01Z</time></trkpt><trkpt lat="43.78732754163746" lon="11.194283137664474"><ele>38.0</ele><time>2026-03-28T11:35:02Z</time></trkpt><trkpt lat="43.78756520747196" lon="11.194464384236593"><ele>38.5</ele><time>2026-03-28T11:35:03Z</time></trkpt><trkpt lat="43.78782507942925" lon="11.19462987538031"><ele>39.0</ele><time>2026-03-28T11:35:04Z</time></trkpt><trkpt lat="43.78807639998547" lon="11.194807680712733"><ele>40.0</ele><time>2026-03-28T11:35:05Z</time></trkpt><trkpt lat="43.788327880391634" lon="11.194996577576854"><ele>41.0</ele><time>2026-03-28T11:35:06Z</time></trkpt><trkpt lat="43.78858523742877" lon="11.195187767812403"><ele>41.0</ele><time>2026-03-28T11:35:07Z</time></trkpt><trkpt lat="43.788846390358515" lon="11.19538146484058"><ele>41.0</ele><time>2026-03-28T11:35:08Z</time></trkpt><trkpt lat="43.789111435235895" lon="11.195579065813765"><ele>34.5</ele><time>2026-03-28T11:35:09Z</time></trkpt><trkpt lat="43.78937227060316" lon="11.195771528959577"><ele>28.0</ele><time>2026-03-28T11:35:10Z</time></trkpt><trkpt lat="43.78963537863117" lon="11.195962702219669"><ele>28.0</ele><time>2026-03-28T11:35:11Z</time></trkpt><trkpt lat="43.78990017094261" lon="11.196154576635418"><ele>28.0</ele><time>2026-03-28T11:35:12Z</time></trkpt><trkpt lat="43.790145901922" lon="11.19633586676111"><ele>29.5</ele><time>2026-03-28T11:35:13Z</time></trkpt><trkpt lat="43.79037573807584" lon="11.19650849227196"><ele>31.0</ele><time>2026-03-28T11:35:14Z</time></trkpt><trkpt lat="43.79059638684764" lon="11.196670410366064"><ele>31.0</ele><time>2026-03-28T11:35:15Z</time></trkpt><trkpt lat="43.79080789904831" lon="11.19682521810687"><ele>31.0</ele><time>2026-03-28T11:35:16Z</time></trkpt><trkpt lat="43.79100043330206" lon="11.196965100912221"><ele>33.66666666666667</ele><time>2026-03-28T11:35:17Z</time></trkpt><trkpt lat="43.79117551427377" lon="11.197094611653412"><ele>36.333333333333336</ele><time>2026-03-28T11:35:18Z</time></trkpt><trkpt lat="43.79133605952263" lon="11.197210774287948"><ele>39.0</ele><time>2026-03-28T11:35:19Z</time></trkpt><trkpt lat="43.79148610423353" lon="11.197322189021747"><ele>39.0</ele><time>2026-03-28T11:35:20Z</time></trkpt><trkpt lat="43.791627346186274" lon="11.197422378493581"><ele>39.0</ele><time>2026-03-28T11:35:21Z</time></trkpt><trkpt lat="43.79176066920656" lon="11.197519274492997"><ele>39.0</ele><time>2026-03-28T11:35:22Z</time></trkpt><trkpt lat="43.79188780580307" lon="11.197616290087344"><ele>39.6</ele><time>2026-03-28T11:35:23Z</time></trkpt><trkpt lat="43.79200428478573" lon="11.197699945108958"><ele>40.2</ele><time>2026-03-28T11:35:24Z</time></trkpt><trkpt lat="43.79210638898996" lon="11.197777502264755"><ele>40.800000000000004</ele><time>2026-03-28T11:35:25Z</time></trkpt><trkpt lat="43.792201262816675" lon="11.197847342122905"><ele>41.4</ele><time>2026-03-28T11:35:26Z</time></trkpt><trkpt lat="43.79228003720752" lon="11.197919005456907"><ele>42.0</ele><time>2026-03-28T11:35:27Z</time></trkpt><trkpt lat="43.792366828543884" lon="11.197977518387647"><ele>42.0</ele><time>2026-03-28T11:35:28Z</time></trkpt><trkpt lat="43.79246705101411" lon="11.198053778735392"><ele>42.0</ele><time>2026-03-28T11:35:29Z</time></trkpt><trkpt lat="43.79258239851261" lon="11.198135125301341"><ele>42.0</ele><time>2026-03-28T11:35:30Z</time></trkpt><trkpt lat="43.79271203848224" lon="11.198225264081893"><ele>42.0</ele><time>2026-03-28T11:35:31Z</time></trkpt><trkpt lat="43.79284855030318" lon="11.198323397628853"><ele>41.333333333333336</ele><time>2026-03-28T11:35:32Z</time></trkpt><trkpt lat="43.79299656614157" lon="11.198425202301804"><ele>40.66666666666667</ele><time>2026-03-28T11:35:33Z</time></trkpt><trkpt lat="43.79315876778398" lon="11.198542824593881"><ele>40.0</ele><time>2026-03-28T11:35:34Z</time></trkpt><trkpt lat="43.79333035384619" lon="11.198667120517085"><ele>39.66666666666667</ele><time>2026-03-28T11:35:35Z</time></trkpt><trkpt lat="43.79350890584381" lon="11.198800187621105"><ele>39.333333333333336</ele><time>2026-03-28T11:35:36Z</time></trkpt><trkpt lat="43.793696268769814" lon="11.198960459479697"><ele>39.0</ele><time>2026-03-28T11:35:37Z</time></trkpt><trkpt lat="43.79388316305264" lon="11.199149832280327"><ele>39.0</ele><time>2026-03-28T11:35:38Z</time></trkpt><trkpt lat="43.79405966678949" lon="11.19935952492581"><ele>39.0</ele><time>2026-03-28T11:35:39Z</time></trkpt><trkpt lat="43.79423940179918" lon="11.199595640918725"><ele>41.0</ele><time>2026-03-28T11:35:40Z</time></trkpt><trkpt lat="43.79439837052842" lon="11.199841158561334"><ele>43.0</ele><time>2026-03-28T11:35:41Z</time></trkpt><trkpt lat="43.794530046446766" lon="11.200086813477027"><ele>43.0</ele><time>2026-03-28T11:35:42Z</time></trkpt><trkpt lat="43.79464469953403" lon="11.200325256242555"><ele>43.0</ele><time>2026-03-28T11:35:43Z</time></trkpt><trkpt lat="43.794753514027335" lon="11.20054471631629"><ele>43.0</ele><time>2026-03-28T11:35:44Z</time></trkpt><trkpt lat="43.79485529903923" lon="11.200744338031946"><ele>43.0</ele><time>2026-03-28T11:35:45Z</time></trkpt><trkpt lat="43.79495087288651" lon="11.200927820736258"><ele>43.0</ele><time>2026-03-28T11:35:46Z</time></trkpt><trkpt lat="43.79504761299648" lon="11.201110728752361"><ele>43.0</ele><time>2026-03-28T11:35:47Z</time></trkpt><trkpt lat="43.795139026639234" lon="11.201288911895908"><ele>42.0</ele><time>2026-03-28T11:35:48Z</time></trkpt><trkpt lat="43.795232475657414" lon="11.201476762732844"><ele>41.0</ele><time>2026-03-28T11:35:49Z</time></trkpt><trkpt lat="43.79533215683685" lon="11.201667575915156"><ele>40.0</ele><time>2026-03-28T11:35:50Z</time></trkpt><trkpt lat="43.79542781801436" lon="11.201851734801842"><ele>40.0</ele><time>2026-03-28T11:35:51Z</time></trkpt><trkpt lat="43.79551530477205" lon="11.202035411503951"><ele>40.0</ele><time>2026-03-28T11:35:52Z</time></trkpt><trkpt lat="43.79560572668879" lon="11.202231322912793"><ele>40.0</ele><time>2026-03-28T11:35:53Z</time></trkpt><trkpt lat="43.79570477907539" lon="11.202425144792407"><ele>40.0</ele><time>2026-03-28T11:35:54Z</time></trkpt><trkpt lat="43.795805750278795" lon="11.202589360430864"><ele>40.0</ele><time>2026-03-28T11:35:55Z</time></trkpt><trkpt lat="43.795917769790385" lon="11.20276282712847"><ele>40.0</ele><time>2026-03-28T11:35:56Z</time></trkpt><trkpt lat="43.79603973282679" lon="11.202941595345001"><ele>40.0</ele><time>2026-03-28T11:35:57Z</time></trkpt><trkpt lat="43.79616815984117" lon="11.203088345676806"><ele>40.0</ele><time>2026-03-28T11:35:58Z</time></trkpt><trkpt lat="43.7963161392887" lon="11.203200669123156"><ele>40.0</ele><time>2026-03-28T11:35:59Z</time></trkpt><trkpt lat="43.79649056819033" lon="11.203298697158495"><ele>40.333333333333336</ele><time>2026-03-28T11:36:00Z</time></trkpt><trkpt lat="43.79668700711057" lon="11.203379862976787"><ele>40.666666666666664</ele><time>2026-03-28T11:36:01Z</time></trkpt><trkpt lat="43.79688674051626" lon="11.203451621921934"><ele>41.0</ele><time>2026-03-28T11:36:02Z</time></trkpt><trkpt lat="43.79706292982556" lon="11.203526817799325"><ele>40.33333333333333</ele><time>2026-03-28T11:36:03Z</time></trkpt><trkpt lat="43.79722154986233" lon="11.20359054751271"><ele>39.666666666666664</ele><time>2026-03-28T11:36:04Z</time></trkpt><trkpt lat="43.79736310899526" lon="11.203660969850523"><ele>39.0</ele><time>2026-03-28T11:36:05Z</time></trkpt><trkpt lat="43.79748899502787" lon="11.20375764753185"><ele>39.0</ele><time>2026-03-28T11:36:06Z</time></trkpt><trkpt lat="43.79761049520488" lon="11.203882184016308"><ele>39.0</ele><time>2026-03-28T11:36:07Z</time></trkpt><trkpt lat="43.797737413654566" lon="11.204003051598544"><ele>39.0</ele><time>2026-03-28T11:36:08Z</time></trkpt><trkpt lat="43.79785955993785" lon="11.204113011904672"><ele>39.5</ele><time>2026-03-28T11:36:09Z</time></trkpt><trkpt lat="43.79797155912941" lon="11.204217233334505"><ele>40.0</ele><time>2026-03-28T11:36:10Z</time></trkpt><trkpt lat="43.79807685485689" lon="11.204309709751813"><ele>40.5</ele><time>2026-03-28T11:36:11Z</time></trkpt><trkpt lat="43.79819000087007" lon="11.204377916456794"><ele>41.0</ele><time>2026-03-28T11:36:12Z</time></trkpt><trkpt lat="43.798308686652184" lon="11.204426444632514"><ele>41.0</ele><time>2026-03-28T11:36:13Z</time></trkpt><trkpt lat="43.79842449970372" lon="11.204429523997835"><ele>41.0</ele><time>2026-03-28T11:36:14Z</time></trkpt><trkpt lat="43.798526010779014" lon="11.204399787405935"><ele>41.0</ele><time>2026-03-28T11:36:15Z</time></trkpt><trkpt lat="43.79860666933422" lon="11.204366731565715"><ele>41.0</ele><time>2026-03-28T11:36:16Z</time></trkpt><trkpt lat="43.7986731010076" lon="11.204342333130672"><ele>41.0</ele><time>2026-03-28T11:36:17Z</time></trkpt><trkpt lat="43.79875756346551" lon="11.204310378728277"><ele>40.8</ele><time>2026-03-28T11:36:19Z</time></trkpt><trkpt lat="43.798838612161234" lon="11.204296565360403"><ele>40.599999999999994</ele><time>2026-03-28T11:36:47Z</time></trkpt><trkpt lat="43.79891223570525" lon="11.204277071467592"><ele>40.4</ele><time>2026-03-28T11:36:48Z</time></trkpt><trkpt lat="43.799003325962495" lon="11.204272356768158"><ele>40.2</ele><time>2026-03-28T11:36:49Z</time></trkpt><trkpt lat="43.799108220224554" lon="11.204277010724297"><ele>40.0</ele><time>2026-03-28T11:36:50Z</time></trkpt><trkpt lat="43.79925090563378" lon="11.204139992721869"><ele>40.0</ele><time>2026-03-28T11:36:51Z</time></trkpt><trkpt lat="43.799376029773256" lon="11.204041782785888"><ele>40.0</ele><time>2026-03-28T11:36:52Z</time></trkpt><trkpt lat="43.79948698580714" lon="11.203930354751206"><ele>40.0</ele><time>2026-03-28T11:36:53Z</time></trkpt><trkpt lat="43.799603917784644" lon="11.20385061612044"><ele>40.0</ele><time>2026-03-28T11:36:54Z</time></trkpt><trkpt lat="43.799711451413295" lon="11.203780976030606"><ele>39.6</ele><time>2026-03-28T11:36:55Z</time></trkpt><trkpt lat="43.799811493173486" lon="11.20373578078718"><ele>39.2</ele><time>2026-03-28T11:36:56Z</time></trkpt><trkpt lat="43.79991162784188" lon="11.203733736309017"><ele>38.8</ele><time>2026-03-28T11:36:57Z</time></trkpt><trkpt lat="43.8000015435303" lon="11.20377569438694"><ele>38.4</ele><time>2026-03-28T11:36:58Z</time></trkpt><trkpt lat="43.80007200515325" lon="11.203853977594676"><ele>38.0</ele><time>2026-03-28T11:36:59Z</time></trkpt><trkpt lat="43.80011725354001" lon="11.203957194533446"><ele>38.5</ele><time>2026-03-28T11:37:00Z</time></trkpt><trkpt lat="43.80016811761619" lon="11.204070929980203"><ele>39.0</ele><time>2026-03-28T11:37:01Z</time></trkpt><trkpt lat="43.800204421909385" lon="11.204219927093133"><ele>39.5</ele><time>2026-03-28T11:37:02Z</time></trkpt><trkpt lat="43.80015421252726" lon="11.204450507221507"><ele>40.0</ele><time>2026-03-28T11:37:03Z</time></trkpt><trkpt lat="43.80015774500775" lon="11.20469425239188"><ele>40.0</ele><time>2026-03-28T11:37:04Z</time></trkpt><trkpt lat="43.80016301523054" lon="11.20494954346578"><ele>40.0</ele><time>2026-03-28T11:37:05Z</time></trkpt><trkpt lat="43.80017152913983" lon="11.205199903708072"><ele>40.0</ele><time>2026-03-28T11:37:06Z</time></trkpt><trkpt lat="43.80019455742479" lon="11.205474376092774"><ele>38.66666666666667</ele><time>2026-03-28T11:37:07Z</time></trkpt><trkpt lat="43.800213113293616" lon="11.205751558347881"><ele>37.333333333333336</ele><time>2026-03-28T11:37:08Z</time></trkpt><trkpt lat="43.80021633128155" lon="11.206005999908239"><ele>36.0</ele><time>2026-03-28T11:37:09Z</time></trkpt><trkpt lat="43.80020312680894" lon="11.20624825990509"><ele>36.666666666666664</ele><time>2026-03-28T11:37:10Z</time></trkpt><trkpt lat="43.80016365411105" lon="11.20650225848775"><ele>37.33333333333333</ele><time>2026-03-28T11:37:11Z</time></trkpt><trkpt lat="43.80009859413706" lon="11.206757088862869"><ele>38.0</ele><time>2026-03-28T11:37:12Z</time></trkpt><trkpt lat="43.80002398358609" lon="11.206987600728114"><ele>38.0</ele><time>2026-03-28T11:37:13Z</time></trkpt><trkpt lat="43.79993804206088" lon="11.20721395460722"><ele>38.0</ele><time>2026-03-28T11:37:14Z</time></trkpt><trkpt lat="43.799838279788744" lon="11.207447078244062"><ele>38.0</ele><time>2026-03-28T11:37:15Z</time></trkpt><trkpt lat="43.79974853635446" lon="11.207674066320957"><ele>38.0</ele><time>2026-03-28T11:37:16Z</time></trkpt><trkpt lat="43.79966142469282" lon="11.207896832719815"><ele>38.0</ele><time>2026-03-28T11:37:17Z</time></trkpt><trkpt lat="43.799566074494045" lon="11.208133170169324"><ele>38.0</ele><time>2026-03-28T11:37:18Z</time></trkpt><trkpt lat="43.79947184170398" lon="11.208378552098115"><ele>38.0</ele><time>2026-03-28T11:37:19Z</time></trkpt><trkpt lat="43.799395732029936" lon="11.208615188522076"><ele>38.0</ele><time>2026-03-28T11:37:20Z</time></trkpt><trkpt lat="43.79932512497098" lon="11.208827163356512"><ele>38.0</ele><time>2026-03-28T11:37:21Z</time></trkpt><trkpt lat="43.79925073393986" lon="11.209021484728748"><ele>38.25</ele><time>2026-03-28T11:37:22Z</time></trkpt><trkpt lat="43.7991896057377" lon="11.20921077680394"><ele>38.5</ele><time>2026-03-28T11:37:23Z</time></trkpt><trkpt lat="43.79913813677015" lon="11.209381195638768"><ele>38.75</ele><time>2026-03-28T11:37:24Z</time></trkpt><trkpt lat="43.79909974518984" lon="11.2095367148889"><ele>39.0</ele><time>2026-03-28T11:37:25Z</time></trkpt><trkpt lat="43.79909080884933" lon="11.209693807919205"><ele>38.75</ele><time>2026-03-28T11:37:26Z</time></trkpt><trkpt lat="43.799117250571705" lon="11.209852134142531"><ele>38.5</ele><time>2026-03-28T11:37:27Z</time></trkpt><trkpt lat="43.799190549036034" lon="11.210017014178282"><ele>38.25</ele><time>2026-03-28T11:37:28Z</time></trkpt><trkpt lat="43.799298600286534" lon="11.210165491101181"><ele>38.0</ele><time>2026-03-28T11:37:29Z</time></trkpt><trkpt lat="43.79943695851877" lon="11.210305990867663"><ele>37.666666666666664</ele><time>2026-03-28T11:37:30Z</time></trkpt><trkpt lat="43.799596264485494" lon="11.210460979626731"><ele>37.333333333333336</ele><time>2026-03-28T11:37:31Z</time></trkpt><trkpt lat="43.799768523606694" lon="11.210629537263502"><ele>37.0</ele><time>2026-03-28T11:37:32Z</time></trkpt><trkpt lat="43.799959384282566" lon="11.210819331827638"><ele>37.0</ele><time>2026-03-28T11:37:33Z</time></trkpt><trkpt lat="43.80016174350616" lon="11.211020534215566"><ele>37.0</ele><time>2026-03-28T11:37:34Z</time></trkpt><trkpt lat="43.8003462453908" lon="11.21119820348988"><ele>37.333333333333336</ele><time>2026-03-28T11:37:35Z</time></trkpt><trkpt lat="43.80051006783691" lon="11.211355231989913"><ele>37.666666666666664</ele><time>2026-03-28T11:37:36Z</time></trkpt><trkpt lat="43.80064541104853" lon="11.211511668374671"><ele>38.0</ele><time>2026-03-28T11:37:37Z</time></trkpt><trkpt lat="43.800769850523416" lon="11.211642352044592"><ele>38.0</ele><time>2026-03-28T11:37:38Z</time></trkpt><trkpt lat="43.80092550539127" lon="11.211662941942732"><ele>38.0</ele><time>2026-03-28T11:37:39Z</time></trkpt><trkpt lat="43.80105699752266" lon="11.211670573097274"><ele>38.0</ele><time>2026-03-28T11:37:40Z</time></trkpt><trkpt lat="43.801181782861875" lon="11.211626945964392"><ele>38.0</ele><time>2026-03-28T11:37:41Z</time></trkpt><trkpt lat="43.801284171306754" lon="11.211541458469386"><ele>37.75</ele><time>2026-03-28T11:37:42Z</time></trkpt><trkpt lat="43.80136646347761" lon="11.211410912018783"><ele>37.5</ele><time>2026-03-28T11:37:43Z</time></trkpt><trkpt lat="43.80140952676783" lon="11.211247938457507"><ele>37.25</ele><time>2026-03-28T11:37:44Z</time></trkpt><trkpt lat="43.80141848271878" lon="11.211071787873719"><ele>37.0</ele><time>2026-03-28T11:37:45Z</time></trkpt><trkpt lat="43.80139769626504" lon="11.210868593395626"><ele>38.0</ele><time>2026-03-28T11:37:46Z</time></trkpt><trkpt lat="43.80133631196447" lon="11.210637515978467"><ele>39.0</ele><time>2026-03-28T11:37:47Z</time></trkpt><trkpt lat="43.80127316239906" lon="11.210368977402192"><ele>40.0</ele><time>2026-03-28T11:37:48Z</time></trkpt><trkpt lat="43.80120930202489" lon="11.210067703909433"><ele>40.0</ele><time>2026-03-28T11:37:49Z</time></trkpt><trkpt lat="43.80115436634492" lon="11.209745000485494"><ele>40.0</ele><time>2026-03-28T11:37:50Z</time></trkpt><trkpt lat="43.80111386322568" lon="11.209394069006336"><ele>40.0</ele><time>2026-03-28T11:37:51Z</time></trkpt><trkpt lat="43.80107894419248" lon="11.209037683406805"><ele>40.0</ele><time>2026-03-28T11:37:52Z</time></trkpt><trkpt lat="43.80105806565181" lon="11.208648741218468"><ele>40.5</ele><time>2026-03-28T11:37:53Z</time></trkpt><trkpt lat="43.80103743294588" lon="11.208236584910521"><ele>41.0</ele><time>2026-03-28T11:37:54Z</time></trkpt><trkpt lat="43.801014804594494" lon="11.207815721261078"><ele>39.5</ele><time>2026-03-28T11:37:55Z</time></trkpt><trkpt lat="43.80099396740734" lon="11.20740657908026"><ele>38.0</ele><time>2026-03-28T11:37:56Z</time></trkpt><trkpt lat="43.80097242645843" lon="11.207010074077884"><ele>37.0</ele><time>2026-03-28T11:37:57Z</time></trkpt><trkpt lat="43.80095121716187" lon="11.206636331790918"><ele>36.0</ele><time>2026-03-28T11:37:58Z</time></trkpt><trkpt lat="43.80094163106781" lon="11.206276210038855"><ele>36.0</ele><time>2026-03-28T11:37:59Z</time></trkpt><trkpt lat="43.800945584516434" lon="11.205933392295515"><ele>36.0</ele><time>2026-03-28T11:38:00Z</time></trkpt><trkpt lat="43.80095861359328" lon="11.205598672987465"><ele>38.0</ele><time>2026-03-28T11:38:01Z</time></trkpt><trkpt lat="43.800983343950236" lon="11.205259974544601"><ele>40.0</ele><time>2026-03-28T11:38:02Z</time></trkpt><trkpt lat="43.80100527656251" lon="11.204940510614207"><ele>39.66666666666667</ele><time>2026-03-28T11:38:03Z</time></trkpt><trkpt lat="43.80101235082498" lon="11.20463956561433"><ele>39.333333333333336</ele><time>2026-03-28T11:38:04Z</time></trkpt><trkpt lat="43.80101248711618" lon="11.204356128321614"><ele>39.0</ele><time>2026-03-28T11:38:05Z</time></trkpt><trkpt lat="43.80101058117987" lon="11.204088803502593"><ele>38.666666666666664</ele><time>2026-03-28T11:38:06Z</time></trkpt><trkpt lat="43.80100836131688" lon="11.203827997183723"><ele>38.33333333333333</ele><time>2026-03-28T11:38:07Z</time></trkpt><trkpt lat="43.80099554595589" lon="11.203574886535712"><ele>38.0</ele><time>2026-03-28T11:38:08Z</time></trkpt><trkpt lat="43.800981512330594" lon="11.203334795477014"><ele>38.0</ele><time>2026-03-28T11:38:09Z</time></trkpt><trkpt lat="43.80096704489405" lon="11.203088448693428"><ele>38.0</ele><time>2026-03-28T11:38:10Z</time></trkpt><trkpt lat="43.800949085126256" lon="11.2028192058203"><ele>38.0</ele><time>2026-03-28T11:38:11Z</time></trkpt><trkpt lat="43.80093579513572" lon="11.202525901296212"><ele>38.0</ele><time>2026-03-28T11:38:12Z</time></trkpt><trkpt lat="43.80092659355063" lon="11.20223626434664"><ele>38.0</ele><time>2026-03-28T11:38:13Z</time></trkpt><trkpt lat="43.80090483259542" lon="11.201977677282349"><ele>38.0</ele><time>2026-03-28T11:38:14Z</time></trkpt><trkpt lat="43.80090161913037" lon="11.201734397286643"><ele>38.0</ele><time>2026-03-28T11:38:15Z</time></trkpt><trkpt lat="43.80088020770628" lon="11.201498344842735"><ele>38.0</ele><time>2026-03-28T11:38:16Z</time></trkpt><trkpt lat="43.80091541312954" lon="11.201245674922077"><ele>38.0</ele><time>2026-03-28T11:38:17Z</time></trkpt><trkpt lat="43.800989883013166" lon="11.201007704325606"><ele>38.0</ele><time>2026-03-28T11:38:18Z</time></trkpt><trkpt lat="43.8011099576423" lon="11.200789080783446"><ele>38.0</ele><time>2026-03-28T11:38:19Z</time></trkpt><trkpt lat="43.80126358456895" lon="11.200562724525582"><ele>38.0</ele><time>2026-03-28T11:38:20Z</time></trkpt><trkpt lat="43.801429457807046" lon="11.200320290787044"><ele>38.0</ele><time>2026-03-28T11:38:21Z</time></trkpt><trkpt lat="43.8015969094698" lon="11.20005872157539"><ele>38.0</ele><time>2026-03-28T11:38:22Z</time></trkpt><trkpt lat="43.80176756782568" lon="11.199781365307949"><ele>38.5</ele><time>2026-03-28T11:38:23Z</time></trkpt><trkpt lat="43.8019459425574" lon="11.19949712625306"><ele>39.0</ele><time>2026-03-28T11:38:24Z</time></trkpt><trkpt lat="43.802121509066026" lon="11.199209536429038"><ele>38.0</ele><time>2026-03-28T11:38:25Z</time></trkpt><trkpt lat="43.80230816703585" lon="11.198912745546107"><ele>37.0</ele><time>2026-03-28T11:38:26Z</time></trkpt><trkpt lat="43.80249883673165" lon="11.198616530013469"><ele>37.0</ele><time>2026-03-28T11:38:27Z</time></trkpt><trkpt lat="43.8026943789901" lon="11.198314268620715"><ele>37.0</ele><time>2026-03-28T11:38:28Z</time></trkpt><trkpt lat="43.80289625535688" lon="11.197995565259335"><ele>37.0</ele><time>2026-03-28T11:38:29Z</time></trkpt><trkpt lat="43.80310595307664" lon="11.19766787911328"><ele>37.0</ele><time>2026-03-28T11:38:30Z</time></trkpt><trkpt lat="43.80331955623234" lon="11.19733797122531"><ele>37.5</ele><time>2026-03-28T11:38:31Z</time></trkpt><trkpt lat="43.80353601555139" lon="11.1970039992322"><ele>38.0</ele><time>2026-03-28T11:38:32Z</time></trkpt><trkpt lat="43.80375948699589" lon="11.196657649105997"><ele>38.0</ele><time>2026-03-28T11:38:33Z</time></trkpt><trkpt lat="43.80398566390574" lon="11.196304123480509"><ele>38.0</ele><time>2026-03-28T11:38:34Z</time></trkpt><trkpt lat="43.80420709008862" lon="11.19596133380123"><ele>36.5</ele><time>2026-03-28T11:38:35Z</time></trkpt><trkpt lat="43.80443327377629" lon="11.195610254729568"><ele>35.0</ele><time>2026-03-28T11:38:36Z</time></trkpt><trkpt lat="43.80465793050565" lon="11.195257326592591"><ele>35.0</ele><time>2026-03-28T11:38:37Z</time></trkpt><trkpt lat="43.804888511559156" lon="11.194886201759658"><ele>35.0</ele><time>2026-03-28T11:38:38Z</time></trkpt><trkpt lat="43.8051296617096" lon="11.194515717975124"><ele>35.5</ele><time>2026-03-28T11:38:39Z</time></trkpt><trkpt lat="43.805380004208516" lon="11.194131091465946"><ele>36.0</ele><time>2026-03-28T11:38:40Z</time></trkpt><trkpt lat="43.80563651023756" lon="11.19374063479501"><ele>36.0</ele><time>2026-03-28T11:38:41Z</time></trkpt><trkpt lat="43.80589791862953" lon="11.19334645229322"><ele>36.0</ele><time>2026-03-28T11:38:42Z</time></trkpt><trkpt lat="43.80616694591444" lon="11.192933778609067"><ele>36.0</ele><time>2026-03-28T11:38:43Z</time></trkpt><trkpt lat="43.80642336204179" lon="11.192555585427337"><ele>36.0</ele><time>2026-03-28T11:38:44Z</time></trkpt><trkpt lat="43.80666444473155" lon="11.19219239134301"><ele>36.0</ele><time>2026-03-28T11:38:45Z</time></trkpt><trkpt lat="43.80688469578232" lon="11.191853055286408"><ele>36.0</ele><time>2026-03-28T11:38:46Z</time></trkpt><trkpt lat="43.80708963558488" lon="11.191525203253189"><ele>37.0</ele><time>2026-03-28T11:38:47Z</time></trkpt><trkpt lat="43.807282309569764" lon="11.191208837495111"><ele>38.0</ele><time>2026-03-28T11:38:48Z</time></trkpt><trkpt lat="43.80746942486888" lon="11.190915450447843"><ele>38.0</ele><time>2026-03-28T11:38:49Z</time></trkpt><trkpt lat="43.807645736746316" lon="11.190635513362553"><ele>38.0</ele><time>2026-03-28T11:38:50Z</time></trkpt><trkpt lat="43.807816813825035" lon="11.190360612414992"><ele>38.0</ele><time>2026-03-28T11:38:51Z</time></trkpt><trkpt lat="43.80798807441027" lon="11.190097705166673"><ele>38.0</ele><time>2026-03-28T11:38:52Z</time></trkpt><trkpt lat="43.8081647301702" lon="11.18983137951406"><ele>37.0</ele><time>2026-03-28T11:38:53Z</time></trkpt><trkpt lat="43.80833106576864" lon="11.189582333935592"><ele>36.0</ele><time>2026-03-28T11:38:54Z</time></trkpt><trkpt lat="43.80849019853916" lon="11.189359880681176"><ele>36.0</ele><time>2026-03-28T11:38:55Z</time></trkpt><trkpt lat="43.80863872887256" lon="11.189151079335925"><ele>36.0</ele><time>2026-03-28T11:38:56Z</time></trkpt><trkpt lat="43.80877858621838" lon="11.18894155752375"><ele>36.0</ele><time>2026-03-28T11:38:57Z</time></trkpt><trkpt lat="43.808918544929476" lon="11.18873674852922"><ele>35.666666666666664</ele><time>2026-03-28T11:38:58Z</time></trkpt><trkpt lat="43.80906672198137" lon="11.188532577541686"><ele>35.33333333333333</ele><time>2026-03-28T11:38:59Z</time></trkpt><trkpt lat="43.80920756765069" lon="11.188316039963572"><ele>35.0</ele><time>2026-03-28T11:39:00Z</time></trkpt><trkpt lat="43.80935421338541" lon="11.188088751464749"><ele>35.0</ele><time>2026-03-28T11:39:01Z</time></trkpt><trkpt lat="43.809516067030664" lon="11.187862020945943"><ele>35.0</ele><time>2026-03-28T11:39:02Z</time></trkpt><trkpt lat="43.809682187268805" lon="11.187620376903592"><ele>35.0</ele><time>2026-03-28T11:39:03Z</time></trkpt><trkpt lat="43.809849746728766" lon="11.187364430552464"><ele>35.0</ele><time>2026-03-28T11:39:04Z</time></trkpt><trkpt lat="43.810016489678084" lon="11.187110630823076"><ele>34.5</ele><time>2026-03-28T11:39:05Z</time></trkpt><trkpt lat="43.81017476253698" lon="11.186865132602366"><ele>34.0</ele><time>2026-03-28T11:39:06Z</time></trkpt><trkpt lat="43.810323630512244" lon="11.186630362491368"><ele>34.66666666666667</ele><time>2026-03-28T11:39:07Z</time></trkpt><trkpt lat="43.81046181279135" lon="11.186424576826633"><ele>35.333333333333336</ele><time>2026-03-28T11:39:08Z</time></trkpt><trkpt lat="43.81060253820391" lon="11.186238081200612"><ele>36.0</ele><time>2026-03-28T11:39:09Z</time></trkpt><trkpt lat="43.81074928045557" lon="11.186066398910958"><ele>36.0</ele><time>2026-03-28T11:39:10Z</time></trkpt><trkpt lat="43.81090749842135" lon="11.185922040963726"><ele>36.0</ele><time>2026-03-28T11:39:11Z</time></trkpt><trkpt lat="43.811070224318975" lon="11.18580220219015"><ele>36.0</ele><time>2026-03-28T11:39:12Z</time></trkpt><trkpt lat="43.81123512258078" lon="11.185740703500791"><ele>35.666666666666664</ele><time>2026-03-28T11:39:13Z</time></trkpt><trkpt lat="43.81139940430216" lon="11.185683866202371"><ele>35.33333333333333</ele><time>2026-03-28T11:39:14Z</time></trkpt><trkpt lat="43.81155559190505" lon="11.185652612528923"><ele>35.0</ele><time>2026-03-28T11:39:15Z</time></trkpt><trkpt lat="43.8117260198362" lon="11.185650755229643"><ele>35.0</ele><time>2026-03-28T11:39:16Z</time></trkpt><trkpt lat="43.8118989752417" lon="11.185672401351438"><ele>35.0</ele><time>2026-03-28T11:39:17Z</time></trkpt><trkpt lat="43.81207745138603" lon="11.185707599140958"><ele>35.0</ele><time>2026-03-28T11:39:18Z</time></trkpt><trkpt lat="43.812264022373384" lon="11.185740261488785"><ele>34.666666666666664</ele><time>2026-03-28T11:39:19Z</time></trkpt><trkpt lat="43.812461280025474" lon="11.185807300300675"><ele>34.333333333333336</ele><time>2026-03-28T11:39:20Z</time></trkpt><trkpt lat="43.81267021899836" lon="11.1858736849557"><ele>34.0</ele><time>2026-03-28T11:39:21Z</time></trkpt><trkpt lat="43.812866452233706" lon="11.185935475595194"><ele>35.333333333333336</ele><time>2026-03-28T11:39:22Z</time></trkpt><trkpt lat="43.81304734014369" lon="11.185998133243176"><ele>36.666666666666664</ele><time>2026-03-28T11:39:23Z</time></trkpt><trkpt lat="43.81322183939619" lon="11.186077630764562"><ele>38.0</ele><time>2026-03-28T11:39:24Z</time></trkpt><trkpt lat="43.81338145794166" lon="11.186162768213473"><ele>38.5</ele><time>2026-03-28T11:39:25Z</time></trkpt><trkpt lat="43.81352298405554" lon="11.18625052099295"><ele>39.0</ele><time>2026-03-28T11:39:26Z</time></trkpt><trkpt lat="43.81365376278916" lon="11.18634329972954"><ele>39.5</ele><time>2026-03-28T11:39:27Z</time></trkpt><trkpt lat="43.8137773291499" lon="11.186429912772974"><ele>40.0</ele><time>2026-03-28T11:39:28Z</time></trkpt><trkpt lat="43.81390194222566" lon="11.186519939021423"><ele>40.0</ele><time>2026-03-28T11:39:29Z</time></trkpt><trkpt lat="43.81402038597924" lon="11.186612087656808"><ele>40.0</ele><time>2026-03-28T11:39:30Z</time></trkpt><trkpt lat="43.814123335342245" lon="11.186694239099275"><ele>40.0</ele><time>2026-03-28T11:39:31Z</time></trkpt><trkpt lat="43.81420905750413" lon="11.186766523060225"><ele>40.0</ele><time>2026-03-28T11:39:32Z</time></trkpt><trkpt lat="43.81428385423214" lon="11.18682856525637"><ele>40.0</ele><time>2026-03-28T11:39:33Z</time></trkpt><trkpt lat="43.81435564469227" lon="11.186880822288304"><ele>39.2</ele><time>2026-03-28T11:39:34Z</time></trkpt><trkpt lat="43.8144244261168" lon="11.186927787728433"><ele>38.4</ele><time>2026-03-28T11:39:35Z</time></trkpt><trkpt lat="43.81449935318769" lon="11.18697193400235"><ele>37.6</ele><time>2026-03-28T11:39:36Z</time></trkpt><trkpt lat="43.81459614395428" lon="11.187025662776346"><ele>36.8</ele><time>2026-03-28T11:39:37Z</time></trkpt><trkpt lat="43.81472300731517" lon="11.187087685294255"><ele>36.0</ele><time>2026-03-28T11:39:38Z</time></trkpt><trkpt lat="43.814854569854916" lon="11.187132807359013"><ele>36.0</ele><time>2026-03-28T11:39:39Z</time></trkpt><trkpt lat="43.814979690514896" lon="11.187146723742766"><ele>36.0</ele><time>2026-03-28T11:39:40Z</time></trkpt><trkpt lat="43.8151060252485" lon="11.187145416095225"><ele>36.0</ele><time>2026-03-28T11:39:41Z</time></trkpt><trkpt lat="43.81522341394757" lon="11.187128966140518"><ele>36.0</ele><time>2026-03-28T11:39:42Z</time></trkpt><trkpt lat="43.815333562866655" lon="11.187102824985516"><ele>36.8</ele><time>2026-03-28T11:39:43Z</time></trkpt><trkpt lat="43.81543559111703" lon="11.187067736498829"><ele>37.6</ele><time>2026-03-28T11:39:44Z</time></trkpt><trkpt lat="43.81552154691493" lon="11.18704078829279"><ele>38.4</ele><time>2026-03-28T11:39:45Z</time></trkpt><trkpt lat="43.815615129266135" lon="11.187000210185445"><ele>39.2</ele><time>2026-03-28T11:39:46Z</time></trkpt><trkpt lat="43.81569835307509" lon="11.186975950872203"><ele>40.0</ele><time>2026-03-28T11:39:47Z</time></trkpt><trkpt lat="43.815791398274925" lon="11.18694587796271"><ele>40.0</ele><time>2026-03-28T11:39:48Z</time></trkpt><trkpt lat="43.815886799208386" lon="11.186909776229632"><ele>40.0</ele><time>2026-03-28T11:39:49Z</time></trkpt><trkpt lat="43.815980706868785" lon="11.186888795375735"><ele>40.0</ele><time>2026-03-28T11:39:50Z</time></trkpt><trkpt lat="43.816072699644536" lon="11.186862896473542"><ele>40.0</ele><time>2026-03-28T11:39:51Z</time></trkpt><trkpt lat="43.81619956274486" lon="11.186842611950572"><ele>40.0</ele><time>2026-03-28T11:39:52Z</time></trkpt><trkpt lat="43.816353056130836" lon="11.186845921264077"><ele>39.333333333333336</ele><time>2026-03-28T11:39:53Z</time></trkpt><trkpt lat="43.81652212327421" lon="11.186876928951074"><ele>38.666666666666664</ele><time>2026-03-28T11:39:54Z</time></trkpt><trkpt lat="43.816702442942294" lon="11.186944340963876"><ele>38.0</ele><time>2026-03-28T11:39:55Z</time></trkpt><trkpt lat="43.81686739550073" lon="11.187028823945163"><ele>37.666666666666664</ele><time>2026-03-28T11:39:56Z</time></trkpt><trkpt lat="43.817016833663736" lon="11.187126324225492"><ele>37.333333333333336</ele><time>2026-03-28T11:39:57Z</time></trkpt><trkpt lat="43.81715139892656" lon="11.187224115525414"><ele>37.0</ele><time>2026-03-28T11:39:58Z</time></trkpt><trkpt lat="43.81727802572591" lon="11.18733365088135"><ele>36.66666666666667</ele><time>2026-03-28T11:39:59Z</time></trkpt><trkpt lat="43.81740828406298" lon="11.187455897684424"><ele>36.333333333333336</ele><time>2026-03-28T11:40:00Z</time></trkpt><trkpt lat="43.817561355788975" lon="11.187582673070915"><ele>36.0</ele><time>2026-03-28T11:40:01Z</time></trkpt><trkpt lat="43.8177350297554" lon="11.187735578546489"><ele>36.0</ele><time>2026-03-28T11:40:02Z</time></trkpt><trkpt lat="43.81793464730203" lon="11.187909563277403"><ele>36.0</ele><time>2026-03-28T11:40:03Z</time></trkpt><trkpt lat="43.818134331938545" lon="11.188090388246984"><ele>37.0</ele><time>2026-03-28T11:40:04Z</time></trkpt><trkpt lat="43.818335828082766" lon="11.188271735126733"><ele>38.0</ele><time>2026-03-28T11:40:05Z</time></trkpt><trkpt lat="43.818523454624774" lon="11.188436727939749"><ele>38.0</ele><time>2026-03-28T11:40:06Z</time></trkpt><trkpt lat="43.818686938993814" lon="11.18857995819125"><ele>38.0</ele><time>2026-03-28T11:40:07Z</time></trkpt><trkpt lat="43.818838430028094" lon="11.188712303914944"><ele>38.0</ele><time>2026-03-28T11:40:08Z</time></trkpt><trkpt lat="43.81898105911432" lon="11.188839212591201"><ele>38.0</ele><time>2026-03-28T11:40:09Z</time></trkpt><trkpt lat="43.81911436153294" lon="11.18895383102575"><ele>38.0</ele><time>2026-03-28T11:40:10Z</time></trkpt><trkpt lat="43.81924258787469" lon="11.189053703436064"><ele>38.0</ele><time>2026-03-28T11:40:11Z</time></trkpt><trkpt lat="43.81937663437007" lon="11.189169915334762"><ele>38.33333333333333</ele><time>2026-03-28T11:40:12Z</time></trkpt><trkpt lat="43.81952861680913" lon="11.189297281062121"><ele>38.666666666666664</ele><time>2026-03-28T11:40:13Z</time></trkpt><trkpt lat="43.81967746379958" lon="11.189435831960951"><ele>39.0</ele><time>2026-03-28T11:40:14Z</time></trkpt><trkpt lat="43.81982471784176" lon="11.189564492228715"><ele>39.0</ele><time>2026-03-28T11:40:15Z</time></trkpt><trkpt lat="43.819980352860725" lon="11.189696979639871"><ele>39.0</ele><time>2026-03-28T11:40:16Z</time></trkpt><trkpt lat="43.82013044423313" lon="11.189835217209774"><ele>39.0</ele><time>2026-03-28T11:40:17Z</time></trkpt><trkpt lat="43.820271545024674" lon="11.189963802615159"><ele>39.666666666666664</ele><time>2026-03-28T11:40:18Z</time></trkpt><trkpt lat="43.82042948181091" lon="11.19009494208877"><ele>40.33333333333333</ele><time>2026-03-28T11:40:19Z</time></trkpt><trkpt lat="43.82058637324531" lon="11.19023495538823"><ele>41.0</ele><time>2026-03-28T11:40:20Z</time></trkpt><trkpt lat="43.82074254464875" lon="11.190368961692984"><ele>41.0</ele><time>2026-03-28T11:40:21Z</time></trkpt><trkpt lat="43.820885494096835" lon="11.190492577855302"><ele>41.0</ele><time>2026-03-28T11:40:22Z</time></trkpt><trkpt lat="43.82100513469892" lon="11.190602001824324"><ele>41.0</ele><time>2026-03-28T11:40:23Z</time></trkpt><trkpt lat="43.821102422314894" lon="11.190690544319791"><ele>41.0</ele><time>2026-03-28T11:40:24Z</time></trkpt><trkpt lat="43.821168299424926" lon="11.190752697380264"><ele>40.4</ele><time>2026-03-28T11:40:25Z</time></trkpt><trkpt lat="43.821241042742436" lon="11.190807037540983"><ele>39.8</ele><time>2026-03-28T11:40:26Z</time></trkpt><trkpt lat="43.821313642614676" lon="11.190868930664031"><ele>39.199999999999996</ele><time>2026-03-28T11:40:27Z</time></trkpt><trkpt lat="43.821394048517114" lon="11.190944468256214"><ele>38.599999999999994</ele><time>2026-03-28T11:40:28Z</time></trkpt><trkpt lat="43.82149267170702" lon="11.191027543086072"><ele>38.0</ele><time>2026-03-28T11:40:29Z</time></trkpt><trkpt lat="43.8216137492883" lon="11.19113585083387"><ele>38.0</ele><time>2026-03-28T11:40:30Z</time></trkpt><trkpt lat="43.82173057807032" lon="11.19123035862689"><ele>38.0</ele><time>2026-03-28T11:40:31Z</time></trkpt><trkpt lat="43.821827930219506" lon="11.191313529452954"><ele>38.0</ele><time>2026-03-28T11:40:32Z</time></trkpt><trkpt lat="43.82191702614946" lon="11.191386077565197"><ele>38.0</ele><time>2026-03-28T11:40:33Z</time></trkpt><trkpt lat="43.821999777838506" lon="11.19145567203007"><ele>38.75</ele><time>2026-03-28T11:40:34Z</time></trkpt><trkpt lat="43.8220931183961" lon="11.191531355068872"><ele>39.5</ele><time>2026-03-28T11:40:35Z</time></trkpt><trkpt lat="43.82220973017407" lon="11.191621074039972"><ele>40.25</ele><time>2026-03-28T11:40:36Z</time></trkpt><trkpt lat="43.822341383298244" lon="11.191730317912047"><ele>41.0</ele><time>2026-03-28T11:40:37Z</time></trkpt><trkpt lat="43.82248331663022" lon="11.191849655099302"><ele>41.0</ele><time>2026-03-28T11:40:38Z</time></trkpt><trkpt lat="43.82263974012899" lon="11.19197354410412"><ele>41.0</ele><time>2026-03-28T11:40:39Z</time></trkpt><trkpt lat="43.82279580382125" lon="11.192089986584612"><ele>41.0</ele><time>2026-03-28T11:40:40Z</time></trkpt><trkpt lat="43.822937108908185" lon="11.192203902381301"><ele>40.666666666666664</ele><time>2026-03-28T11:40:41Z</time></trkpt><trkpt lat="43.82306900304226" lon="11.192304997046543"><ele>40.333333333333336</ele><time>2026-03-28T11:40:42Z</time></trkpt><trkpt lat="43.823208011338835" lon="11.192382149318309"><ele>40.0</ele><time>2026-03-28T11:40:43Z</time></trkpt><trkpt lat="43.82335328224036" lon="11.19244524405043"><ele>39.75</ele><time>2026-03-28T11:40:44Z</time></trkpt><trkpt lat="43.82349028035718" lon="11.192484906287635"><ele>39.5</ele><time>2026-03-28T11:40:45Z</time></trkpt><trkpt lat="43.823613149003855" lon="11.192518294827124"><ele>39.25</ele><time>2026-03-28T11:40:46Z</time></trkpt><trkpt lat="43.82372382070054" lon="11.192567383495874"><ele>39.0</ele><time>2026-03-28T11:40:47Z</time></trkpt><trkpt lat="43.8238164254529" lon="11.192650113503209"><ele>39.0</ele><time>2026-03-28T11:40:48Z</time></trkpt><trkpt lat="43.82388818017437" lon="11.192753059076983"><ele>39.0</ele><time>2026-03-28T11:40:49Z</time></trkpt><trkpt lat="43.82394939546859" lon="11.192852634406483"><ele>39.0</ele><time>2026-03-28T11:40:50Z</time></trkpt><trkpt lat="43.824015759772976" lon="11.192920200651441"><ele>39.0</ele><time>2026-03-28T11:40:51Z</time></trkpt><trkpt lat="43.82411303141604" lon="11.192939402501757"><ele>39.0</ele><time>2026-03-28T11:40:52Z</time></trkpt><trkpt lat="43.82420460443611" lon="11.192946304007762"><ele>39.0</ele><time>2026-03-28T11:40:53Z</time></trkpt><trkpt lat="43.824282294851486" lon="11.19281919551946"><ele>39.0</ele><time>2026-03-28T11:40:54Z</time></trkpt><trkpt lat="43.82434467658584" lon="11.19272221141112"><ele>39.0</ele><time>2026-03-28T11:40:55Z</time></trkpt><trkpt lat="43.82433750278318" lon="11.192548327763108"><ele>39.0</ele><time>2026-03-28T11:40:56Z</time></trkpt><trkpt lat="43.824329794469215" lon="11.192364910405942"><ele>39.0</ele><time>2026-03-28T11:40:57Z</time></trkpt><trkpt lat="43.824343434032066" lon="11.1921854937334"><ele>39.0</ele><time>2026-03-28T11:40:58Z</time></trkpt><trkpt lat="43.824394316952024" lon="11.192006415142913"><ele>39.0</ele><time>2026-03-28T11:40:59Z</time></trkpt><trkpt lat="43.82451277859192" lon="11.191842592178967"><ele>39.0</ele><time>2026-03-28T11:41:00Z</time></trkpt><trkpt lat="43.82463471625901" lon="11.191629192304207"><ele>38.666666666666664</ele><time>2026-03-28T11:41:01Z</time></trkpt><trkpt lat="43.82475495890176" lon="11.19137741516642"><ele>38.33333333333333</ele><time>2026-03-28T11:41:02Z</time></trkpt><trkpt lat="43.82489046224087" lon="11.191127138397864"><ele>38.0</ele><time>2026-03-28T11:41:03Z</time></trkpt><trkpt lat="43.82501929178624" lon="11.190863391602894"><ele>39.0</ele><time>2026-03-28T11:41:04Z</time></trkpt><trkpt lat="43.82514887525561" lon="11.190562655307117"><ele>40.0</ele><time>2026-03-28T11:41:05Z</time></trkpt><trkpt lat="43.82527630644172" lon="11.190256869828431"><ele>40.0</ele><time>2026-03-28T11:41:06Z</time></trkpt><trkpt lat="43.82541297422763" lon="11.189970476621172"><ele>40.0</ele><time>2026-03-28T11:41:07Z</time></trkpt><trkpt lat="43.8255322684369" lon="11.189688137145415"><ele>39.333333333333336</ele><time>2026-03-28T11:41:08Z</time></trkpt><trkpt lat="43.82564356730507" lon="11.18942472053305"><ele>38.666666666666664</ele><time>2026-03-28T11:41:09Z</time></trkpt><trkpt lat="43.8257524558313" lon="11.189167008603192"><ele>38.0</ele><time>2026-03-28T11:41:10Z</time></trkpt><trkpt lat="43.825868296100886" lon="11.188892843709443"><ele>38.0</ele><time>2026-03-28T11:41:11Z</time></trkpt><trkpt lat="43.825993453513824" lon="11.188595637426443"><ele>38.0</ele><time>2026-03-28T11:41:12Z</time></trkpt><trkpt lat="43.826124448868796" lon="11.188284301774422"><ele>38.0</ele><time>2026-03-28T11:41:13Z</time></trkpt><trkpt lat="43.826256783066455" lon="11.187969784102805"><ele>38.0</ele><time>2026-03-28T11:41:14Z</time></trkpt><trkpt lat="43.82639543603397" lon="11.18764024863816"><ele>38.0</ele><time>2026-03-28T11:41:15Z</time></trkpt><trkpt lat="43.82653725893166" lon="11.18730378382046"><ele>38.0</ele><time>2026-03-28T11:41:16Z</time></trkpt><trkpt lat="43.82668036910394" lon="11.18696524594938"><ele>38.0</ele><time>2026-03-28T11:41:17Z</time></trkpt><trkpt lat="43.82682219557601" lon="11.186629919993475"><ele>38.0</ele><time>2026-03-28T11:41:18Z</time></trkpt><trkpt lat="43.826947727896844" lon="11.186289832097781"><ele>37.5</ele><time>2026-03-28T11:41:19Z</time></trkpt><trkpt lat="43.827098532481806" lon="11.18597656581587"><ele>37.0</ele><time>2026-03-28T11:41:20Z</time></trkpt><trkpt lat="43.827229456211086" lon="11.185667211802249"><ele>38.0</ele><time>2026-03-28T11:41:21Z</time></trkpt><trkpt lat="43.82735103382817" lon="11.185373709643127"><ele>39.0</ele><time>2026-03-28T11:41:22Z</time></trkpt><trkpt lat="43.82747094999854" lon="11.18509340895304"><ele>38.5</ele><time>2026-03-28T11:41:23Z</time></trkpt><trkpt lat="43.82759056125967" lon="11.184811765731567"><ele>38.0</ele><time>2026-03-28T11:41:24Z</time></trkpt><trkpt lat="43.8277122825299" lon="11.184521007082564"><ele>38.0</ele><time>2026-03-28T11:41:25Z</time></trkpt><trkpt lat="43.82781541691948" lon="11.184233962512385"><ele>38.0</ele><time>2026-03-28T11:41:26Z</time></trkpt><trkpt lat="43.82793057268857" lon="11.183982086815533"><ele>38.0</ele><time>2026-03-28T11:41:27Z</time></trkpt><trkpt lat="43.828035827932204" lon="11.183744088603321"><ele>38.0</ele><time>2026-03-28T11:41:28Z</time></trkpt><trkpt lat="43.828128990010725" lon="11.183532038941875"><ele>38.0</ele><time>2026-03-28T11:41:29Z</time></trkpt><trkpt lat="43.82821498923847" lon="11.18334626918866"><ele>38.0</ele><time>2026-03-28T11:41:30Z</time></trkpt><trkpt lat="43.82829613672654" lon="11.183189973749533"><ele>38.0</ele><time>2026-03-28T11:41:31Z</time></trkpt><trkpt lat="43.82838432111355" lon="11.18306454996219"><ele>38.0</ele><time>2026-03-28T11:41:32Z</time></trkpt><trkpt lat="43.8284899987177" lon="11.182990632397091"><ele>38.0</ele><time>2026-03-28T11:41:33Z</time></trkpt><trkpt lat="43.828597201011924" lon="11.182925564183684"><ele>38.0</ele><time>2026-03-28T11:41:34Z</time></trkpt><trkpt lat="43.82868912099748" lon="11.182835496850652"><ele>38.33333333333333</ele><time>2026-03-28T11:41:35Z</time></trkpt><trkpt lat="43.8287544849995" lon="11.182678073298282"><ele>38.666666666666664</ele><time>2026-03-28T11:41:36Z</time></trkpt><trkpt lat="43.82878809183307" lon="11.182459570727625"><ele>39.0</ele><time>2026-03-28T11:41:37Z</time></trkpt><trkpt lat="43.828884235952806" lon="11.182271311690988"><ele>39.0</ele><time>2026-03-28T11:41:38Z</time></trkpt><trkpt lat="43.82901541575858" lon="11.182088184541461"><ele>39.0</ele><time>2026-03-28T11:41:39Z</time></trkpt><trkpt lat="43.82915429204883" lon="11.1819266240455"><ele>39.0</ele><time>2026-03-28T11:41:40Z</time></trkpt><trkpt lat="43.829302407987534" lon="11.181736417447432"><ele>38.666666666666664</ele><time>2026-03-28T11:41:41Z</time></trkpt><trkpt lat="43.82945997460878" lon="11.18153387824698"><ele>38.33333333333333</ele><time>2026-03-28T11:41:42Z</time></trkpt><trkpt lat="43.82962517332934" lon="11.181321529936282"><ele>38.0</ele><time>2026-03-28T11:41:43Z</time></trkpt><trkpt lat="43.829792862201" lon="11.181105602239276"><ele>38.0</ele><time>2026-03-28T11:41:44Z</time></trkpt><trkpt lat="43.82995705070145" lon="11.180893803027274"><ele>38.0</ele><time>2026-03-28T11:41:45Z</time></trkpt><trkpt lat="43.83012274834067" lon="11.18068005699482"><ele>37.666666666666664</ele><time>2026-03-28T11:41:46Z</time></trkpt><trkpt lat="43.83026718614116" lon="11.180480624488236"><ele>37.333333333333336</ele><time>2026-03-28T11:41:47Z</time></trkpt><trkpt lat="43.83041459533946" lon="11.18029669394427"><ele>37.0</ele><time>2026-03-28T11:41:48Z</time></trkpt><trkpt lat="43.830559144380416" lon="11.180099306641555"><ele>37.0</ele><time>2026-03-28T11:41:49Z</time></trkpt><trkpt lat="43.83072755665225" lon="11.17991686020059"><ele>37.0</ele><time>2026-03-28T11:41:50Z</time></trkpt><trkpt lat="43.83088958029219" lon="11.179709270674383"><ele>37.0</ele><time>2026-03-28T11:41:51Z</time></trkpt><trkpt lat="43.831053397781034" lon="11.179495406391432"><ele>37.333333333333336</ele><time>2026-03-28T11:41:52Z</time></trkpt><trkpt lat="43.83121497619859" lon="11.179281453598813"><ele>37.666666666666664</ele><time>2026-03-28T11:41:53Z</time></trkpt><trkpt lat="43.83136345975355" lon="11.17905633993251"><ele>38.0</ele><time>2026-03-28T11:41:54Z</time></trkpt><trkpt lat="43.83152064599352" lon="11.178876703416098"><ele>38.0</ele><time>2026-03-28T11:41:55Z</time></trkpt><trkpt lat="43.83166174301473" lon="11.178699593929466"><ele>38.0</ele><time>2026-03-28T11:41:56Z</time></trkpt><trkpt lat="43.83179660329279" lon="11.17852784251431"><ele>38.0</ele><time>2026-03-28T11:41:57Z</time></trkpt><trkpt lat="43.83192781589477" lon="11.178357490836778"><ele>38.0</ele><time>2026-03-28T11:41:58Z</time></trkpt><trkpt lat="43.8320459982434" lon="11.178173639900177"><ele>38.0</ele><time>2026-03-28T11:41:59Z</time></trkpt><trkpt lat="43.83217418083513" lon="11.178009108128862"><ele>38.0</ele><time>2026-03-28T11:42:00Z</time></trkpt><trkpt lat="43.832306984414245" lon="11.177839973486064"><ele>38.0</ele><time>2026-03-28T11:42:01Z</time></trkpt><trkpt lat="43.832439708491506" lon="11.177673465616287"><ele>38.0</ele><time>2026-03-28T11:42:02Z</time></trkpt><trkpt lat="43.83256169639877" lon="11.177506315392685"><ele>38.0</ele><time>2026-03-28T11:42:03Z</time></trkpt><trkpt lat="43.832680662024615" lon="11.177355091107641"><ele>38.0</ele><time>2026-03-28T11:42:04Z</time></trkpt><trkpt lat="43.832795489827994" lon="11.177210729905296"><ele>38.0</ele><time>2026-03-28T11:42:05Z</time></trkpt><trkpt lat="43.832909147050856" lon="11.177057062997628"><ele>38.0</ele><time>2026-03-28T11:42:06Z</time></trkpt><trkpt lat="43.83303291023238" lon="11.176898251896871"><ele>38.0</ele><time>2026-03-28T11:42:07Z</time></trkpt><trkpt lat="43.833158417395786" lon="11.176733612589436"><ele>38.0</ele><time>2026-03-28T11:42:08Z</time></trkpt><trkpt lat="43.833292076599186" lon="11.176590034808775"><ele>38.0</ele><time>2026-03-28T11:42:09Z</time></trkpt><trkpt lat="43.833406932386694" lon="11.176414088399047"><ele>37.666666666666664</ele><time>2026-03-28T11:42:10Z</time></trkpt><trkpt lat="43.8335562041961" lon="11.176251704140576"><ele>37.333333333333336</ele><time>2026-03-28T11:42:11Z</time></trkpt><trkpt lat="43.833702973823236" lon="11.176064541466658"><ele>37.0</ele><time>2026-03-28T11:42:12Z</time></trkpt><trkpt lat="43.83385456192871" lon="11.175874673217065"><ele>37.66666666666667</ele><time>2026-03-28T11:42:13Z</time></trkpt><trkpt lat="43.834012343918815" lon="11.175682368684813"><ele>38.333333333333336</ele><time>2026-03-28T11:42:14Z</time></trkpt><trkpt lat="43.83417288700007" lon="11.175489540830892"><ele>39.0</ele><time>2026-03-28T11:42:15Z</time></trkpt><trkpt lat="43.83433861457461" lon="11.17529054037568"><ele>39.0</ele><time>2026-03-28T11:42:16Z</time></trkpt><trkpt lat="43.83449662249269" lon="11.175073116275216"><ele>39.0</ele><time>2026-03-28T11:42:17Z</time></trkpt><trkpt lat="43.83466846030685" lon="11.174873697974085"><ele>39.0</ele><time>2026-03-28T11:42:18Z</time></trkpt><trkpt lat="43.83484021788544" lon="11.174664542725463"><ele>39.333333333333336</ele><time>2026-03-28T11:42:19Z</time></trkpt><trkpt lat="43.83502227147293" lon="11.1744766012807"><ele>39.66666666666667</ele><time>2026-03-28T11:42:20Z</time></trkpt><trkpt lat="43.83517239106563" lon="11.174269092471539"><ele>40.0</ele><time>2026-03-28T11:42:21Z</time></trkpt><trkpt lat="43.83532608337815" lon="11.17409693369546"><ele>39.66666666666667</ele><time>2026-03-28T11:42:22Z</time></trkpt><trkpt lat="43.83547342073546" lon="11.17392437306249"><ele>39.333333333333336</ele><time>2026-03-28T11:42:23Z</time></trkpt><trkpt lat="43.83560697419344" lon="11.173755787577107"><ele>39.0</ele><time>2026-03-28T11:42:24Z</time></trkpt><trkpt lat="43.8357258921902" lon="11.173586241078555"><ele>39.0</ele><time>2026-03-28T11:42:25Z</time></trkpt><trkpt lat="43.83582764687818" lon="11.173412093861518"><ele>39.0</ele><time>2026-03-28T11:42:26Z</time></trkpt><trkpt lat="43.83591853775689" lon="11.173245915577624"><ele>39.0</ele><time>2026-03-28T11:42:27Z</time></trkpt><trkpt lat="43.836009014593" lon="11.173103059651588"><ele>39.0</ele><time>2026-03-28T11:42:28Z</time></trkpt><trkpt lat="43.83609744146715" lon="11.172994613899638"><ele>39.0</ele><time>2026-03-28T11:42:29Z</time></trkpt><trkpt lat="43.83619490318814" lon="11.172917510780842"><ele>39.0</ele><time>2026-03-28T11:42:30Z</time></trkpt><trkpt lat="43.836323193556794" lon="11.172872021625045"><ele>39.0</ele><time>2026-03-28T11:42:31Z</time></trkpt><trkpt lat="43.83646599263285" lon="11.172863223755025"><ele>39.0</ele><time>2026-03-28T11:42:32Z</time></trkpt><trkpt lat="43.83661638448469" lon="11.17290818964475"><ele>39.0</ele><time>2026-03-28T11:42:33Z</time></trkpt><trkpt lat="43.83678827855947" lon="11.17300276542392"><ele>39.0</ele><time>2026-03-28T11:42:34Z</time></trkpt><trkpt lat="43.83696253525592" lon="11.173139638002027"><ele>39.0</ele><time>2026-03-28T11:42:35Z</time></trkpt><trkpt lat="43.83714295971465" lon="11.173295200997499"><ele>40.0</ele><time>2026-03-28T11:42:36Z</time></trkpt><trkpt lat="43.8373312949294" lon="11.173441745965246"><ele>41.0</ele><time>2026-03-28T11:42:37Z</time></trkpt><trkpt lat="43.83753969239189" lon="11.173604709402479"><ele>41.5</ele><time>2026-03-28T11:42:38Z</time></trkpt><trkpt lat="43.83773627779158" lon="11.173764327918704"><ele>42.0</ele><time>2026-03-28T11:42:39Z</time></trkpt><trkpt lat="43.83793351728084" lon="11.173930867387995"><ele>42.333333333333336</ele><time>2026-03-28T11:42:40Z</time></trkpt><trkpt lat="43.838116856569854" lon="11.174096238763793"><ele>42.66666666666667</ele><time>2026-03-28T11:42:41Z</time></trkpt><trkpt lat="43.83828722530101" lon="11.174246482024243"><ele>43.0</ele><time>2026-03-28T11:42:42Z</time></trkpt><trkpt lat="43.83844807735552" lon="11.174386713415814"><ele>43.333333333333336</ele><time>2026-03-28T11:42:43Z</time></trkpt><trkpt lat="43.8385978319388" lon="11.17451476092353"><ele>43.666666666666664</ele><time>2026-03-28T11:42:44Z</time></trkpt><trkpt lat="43.83873294151605" lon="11.174629828178956"><ele>44.0</ele><time>2026-03-28T11:42:45Z</time></trkpt><trkpt lat="43.8388520799616" lon="11.17474201353786"><ele>44.0</ele><time>2026-03-28T11:42:46Z</time></trkpt><trkpt lat="43.838960944370655" lon="11.174849893097829"><ele>44.0</ele><time>2026-03-28T11:42:47Z</time></trkpt><trkpt lat="43.83906477898105" lon="11.174952455792921"><ele>44.0</ele><time>2026-03-28T11:42:48Z</time></trkpt><trkpt lat="43.83915937915639" lon="11.175061500540851"><ele>44.0</ele><time>2026-03-28T11:42:49Z</time></trkpt><trkpt lat="43.839242388459645" lon="11.175176840253156"><ele>44.0</ele><time>2026-03-28T11:42:50Z</time></trkpt><trkpt lat="43.83931299385534" lon="11.175294982543551"><ele>44.0</ele><time>2026-03-28T11:42:51Z</time></trkpt><trkpt lat="43.839390690475014" lon="11.175390211754712"><ele>44.0</ele><time>2026-03-28T11:42:52Z</time></trkpt><trkpt lat="43.83944602964852" lon="11.175525045280706"><ele>44.0</ele><time>2026-03-28T11:42:53Z</time></trkpt><trkpt lat="43.8395502498682" lon="11.175585698830362"><ele>44.0</ele><time>2026-03-28T11:42:54Z</time></trkpt><trkpt lat="43.83968865253636" lon="11.175615330169265"><ele>44.0</ele><time>2026-03-28T11:42:55Z</time></trkpt><trkpt lat="43.83984291144152" lon="11.175659021180678"><ele>44.0</ele><time>2026-03-28T11:42:56Z</time></trkpt><trkpt lat="43.84000130605152" lon="11.17575570762666"><ele>44.0</ele><time>2026-03-28T11:42:57Z</time></trkpt><trkpt lat="43.84016982699774" lon="11.175884596494775"><ele>44.0</ele><time>2026-03-28T11:42:58Z</time></trkpt><trkpt lat="43.84032501624421" lon="11.176030330679607"><ele>44.0</ele><time>2026-03-28T11:42:59Z</time></trkpt><trkpt lat="43.84046088140284" lon="11.176150691009164"><ele>44.0</ele><time>2026-03-28T11:43:00Z</time></trkpt><trkpt lat="43.840584886027195" lon="11.176257237448773"><ele>44.0</ele><time>2026-03-28T11:43:01Z</time></trkpt><trkpt lat="43.840698495881426" lon="11.176363203193267"><ele>44.0</ele><time>2026-03-28T11:43:02Z</time></trkpt><trkpt lat="43.8408091256756" lon="11.17645788637447"><ele>44.0</ele><time>2026-03-28T11:43:03Z</time></trkpt><trkpt lat="43.840913919131005" lon="11.176548497561251"><ele>44.0</ele><time>2026-03-28T11:43:04Z</time></trkpt><trkpt lat="43.84101014692474" lon="11.176644210217708"><ele>44.5</ele><time>2026-03-28T11:43:05Z</time></trkpt><trkpt lat="43.84110175338402" lon="11.176748271765147"><ele>45.0</ele><time>2026-03-28T11:43:06Z</time></trkpt><trkpt lat="43.841187243267456" lon="11.176880919777066"><ele>45.5</ele><time>2026-03-28T11:43:07Z</time></trkpt><trkpt lat="43.84125251462295" lon="11.177035518063095"><ele>46.0</ele><time>2026-03-28T11:43:08Z</time></trkpt><trkpt lat="43.84129139190613" lon="11.17719152106752"><ele>46.0</ele><time>2026-03-28T11:43:09Z</time></trkpt><trkpt lat="43.841310929351266" lon="11.177344523512131"><ele>46.0</ele><time>2026-03-28T11:43:10Z</time></trkpt><trkpt lat="43.84131603138355" lon="11.17749608011959"><ele>46.0</ele><time>2026-03-28T11:43:11Z</time></trkpt><trkpt lat="43.84131652257574" lon="11.177646545559998"><ele>46.0</ele><time>2026-03-28T11:43:12Z</time></trkpt><trkpt lat="43.84132961085527" lon="11.17781229489149"><ele>45.75</ele><time>2026-03-28T11:43:13Z</time></trkpt><trkpt lat="43.84136079827275" lon="11.177979836867117"><ele>45.5</ele><time>2026-03-28T11:43:14Z</time></trkpt><trkpt lat="43.84141190949671" lon="11.178128270329404"><ele>45.25</ele><time>2026-03-28T11:43:15Z</time></trkpt><trkpt lat="43.84148177367494" lon="11.1782592293649"><ele>45.0</ele><time>2026-03-28T11:43:16Z</time></trkpt><trkpt lat="43.84157664333767" lon="11.178379628022004"><ele>45.75</ele><time>2026-03-28T11:43:17Z</time></trkpt><trkpt lat="43.84169521458861" lon="11.178489301464737"><ele>46.5</ele><time>2026-03-28T11:43:18Z</time></trkpt><trkpt lat="43.841820666488644" lon="11.17859035361488"><ele>47.25</ele><time>2026-03-28T11:43:19Z</time></trkpt><trkpt lat="43.84193634866372" lon="11.178665050215718"><ele>48.0</ele><time>2026-03-28T11:43:20Z</time></trkpt><trkpt lat="43.842060878132486" lon="11.178741289923774"><ele>48.0</ele><time>2026-03-28T11:43:21Z</time></trkpt><trkpt lat="43.84217014976014" lon="11.178847184142883"><ele>48.0</ele><time>2026-03-28T11:43:22Z</time></trkpt><trkpt lat="43.84227311877709" lon="11.178961853135773"><ele>48.0</ele><time>2026-03-28T11:43:23Z</time></trkpt><trkpt lat="43.84240301820051" lon="11.179070372184544"><ele>48.0</ele><time>2026-03-28T11:43:24Z</time></trkpt><trkpt lat="43.842530336199715" lon="11.179177075349166"><ele>48.25</ele><time>2026-03-28T11:43:25Z</time></trkpt><trkpt lat="43.84265446329229" lon="11.179288638269465"><ele>48.5</ele><time>2026-03-28T11:43:26Z</time></trkpt><trkpt lat="43.84278146659423" lon="11.179399223945088"><ele>48.75</ele><time>2026-03-28T11:43:27Z</time></trkpt><trkpt lat="43.842907303396586" lon="11.17950811054603"><ele>49.0</ele><time>2026-03-28T11:43:28Z</time></trkpt><trkpt lat="43.84302133166826" lon="11.179609203648042"><ele>49.0</ele><time>2026-03-28T11:43:29Z</time></trkpt><trkpt lat="43.84312512607871" lon="11.17970576961922"><ele>49.0</ele><time>2026-03-28T11:43:30Z</time></trkpt><trkpt lat="43.843228973993334" lon="11.179791921491486"><ele>49.0</ele><time>2026-03-28T11:43:31Z</time></trkpt><trkpt lat="43.84333377824268" lon="11.179883779709119"><ele>49.0</ele><time>2026-03-28T11:43:32Z</time></trkpt><trkpt lat="43.84342866067551" lon="11.179973810151012"><ele>49.2</ele><time>2026-03-28T11:43:33Z</time></trkpt><trkpt lat="43.84351343100072" lon="11.180048153150967"><ele>49.400000000000006</ele><time>2026-03-28T11:43:34Z</time></trkpt><trkpt lat="43.843593045625624" lon="11.180120279343338"><ele>49.6</ele><time>2026-03-28T11:43:35Z</time></trkpt><trkpt lat="43.84365950818334" lon="11.180201284218317"><ele>49.8</ele><time>2026-03-28T11:43:36Z</time></trkpt><trkpt lat="43.84372207429363" lon="11.180307387489023"><ele>50.0</ele><time>2026-03-28T11:43:37Z</time></trkpt><trkpt lat="43.84378337457946" lon="11.18041762595153"><ele>50.00000000000001</ele><time>2026-03-28T11:43:38Z</time></trkpt><trkpt lat="43.84380292099106" lon="11.180552575757078"><ele>50.0</ele><time>2026-03-28T11:43:39Z</time></trkpt><trkpt lat="43.84380051801396" lon="11.180671448135607"><ele>50.0</ele><time>2026-03-28T11:43:40Z</time></trkpt><trkpt lat="43.843798742628096" lon="11.180769122829208"><ele>50.0</ele><time>2026-03-28T11:43:41Z</time></trkpt><trkpt lat="43.843797580212076" lon="11.180864318583904"><ele>50.00000000000001</ele><time>2026-03-28T11:43:42Z</time></trkpt><trkpt lat="43.843790749838945" lon="11.180972113425836"><ele>50.0</ele><time>2026-03-28T11:43:43Z</time></trkpt><trkpt lat="43.8438106236716" lon="11.18107562438939"><ele>50.16666666666667</ele><time>2026-03-28T11:43:44Z</time></trkpt><trkpt lat="43.84384279447546" lon="11.181164474799642"><ele>50.333333333333336</ele><time>2026-03-28T11:43:45Z</time></trkpt><trkpt lat="43.84385195582702" lon="11.181267799740416"><ele>50.5</ele><time>2026-03-28T11:43:46Z</time></trkpt><trkpt lat="43.843873048381255" lon="11.181355661771676"><ele>50.66666666666667</ele><time>2026-03-28T11:43:47Z</time></trkpt><trkpt lat="43.843884843041664" lon="11.181447607653489"><ele>50.833333333333336</ele><time>2026-03-28T11:43:48Z</time></trkpt><trkpt lat="43.84389492677405" lon="11.18162366605134"><ele>51.0</ele><time>2026-03-28T11:43:50Z</time></trkpt><trkpt lat="43.84384931018018" lon="11.181723614831743"><ele>51.4</ele><time>2026-03-28T11:43:51Z</time></trkpt><trkpt lat="43.84382306790675" lon="11.1818073560939"><ele>51.8</ele><time>2026-03-28T11:43:52Z</time></trkpt><trkpt lat="43.84376037219418" lon="11.18193889080345"><ele>52.199999999999996</ele><time>2026-03-28T11:43:54Z</time></trkpt><trkpt lat="43.84369379999623" lon="11.182040283118194"><ele>52.599999999999994</ele><time>2026-03-28T11:43:56Z</time></trkpt><trkpt lat="43.84363644881152" lon="11.182169819816194"><ele>53.0</ele><time>2026-03-28T11:43:58Z</time></trkpt><trkpt lat="43.843602837609154" lon="11.182249595601244"><ele>53.00000000000001</ele><time>2026-03-28T11:43:59Z</time></trkpt><trkpt lat="43.843562005073004" lon="11.18233730087782"><ele>53.0</ele><time>2026-03-28T11:44:00Z</time></trkpt><trkpt lat="43.843517760357166" lon="11.182436642584419"><ele>53.0</ele><time>2026-03-28T11:44:01Z</time></trkpt><trkpt lat="43.84347783318569" lon="11.182537859398025"><ele>53.0</ele><time>2026-03-28T11:44:02Z</time></trkpt><trkpt lat="43.843434653874105" lon="11.182641539595997"><ele>53.00000000000001</ele><time>2026-03-28T11:44:03Z</time></trkpt><trkpt lat="43.84339177441372" lon="11.182734898478095"><ele>53.0</ele><time>2026-03-28T11:44:04Z</time></trkpt><trkpt lat="43.84335321146408" lon="11.182818356840114"><ele>52.599999999999994</ele><time>2026-03-28T11:44:05Z</time></trkpt><trkpt lat="43.84332071162312" lon="11.18289599157566"><ele>52.199999999999996</ele><time>2026-03-28T11:44:06Z</time></trkpt><trkpt lat="43.84326163946669" lon="11.183050941216047"><ele>51.8</ele><time>2026-03-28T11:44:08Z</time></trkpt><trkpt lat="43.84321649265406" lon="11.18315715880597"><ele>51.4</ele><time>2026-03-28T11:44:09Z</time></trkpt><trkpt lat="43.84317078387159" lon="11.183269352651589"><ele>51.0</ele><time>2026-03-28T11:44:10Z</time></trkpt><trkpt lat="43.84312416528797" lon="11.183384014677996"><ele>51.0</ele><time>2026-03-28T11:44:11Z</time></trkpt><trkpt lat="43.843085075526446" lon="11.183485331144476"><ele>51.0</ele><time>2026-03-28T11:44:12Z</time></trkpt><trkpt lat="43.84304501275737" lon="11.183577931929715"><ele>51.0</ele><time>2026-03-28T11:44:13Z</time></trkpt><trkpt lat="43.84300961001459" lon="11.183665372614882"><ele>51.0</ele><time>2026-03-28T11:44:14Z</time></trkpt><trkpt lat="43.84297730549651" lon="11.183741202735478"><ele>51.0</ele><time>2026-03-28T11:44:15Z</time></trkpt><trkpt lat="43.84291975789214" lon="11.183857503261962"><ele>51.0</ele><time>2026-03-28T11:44:17Z</time></trkpt><trkpt lat="43.84286114940849" lon="11.183897063790392"><ele>51.0</ele><time>2026-03-28T11:44:19Z</time></trkpt><trkpt lat="43.84279101723988" lon="11.183840236282466"><ele>51.0</ele><time>2026-03-28T11:44:20Z</time></trkpt><trkpt lat="43.8426853825602" lon="11.183734516942838"><ele>51.0</ele><time>2026-03-28T11:44:22Z</time></trkpt><trkpt lat="43.84262575584788" lon="11.183675955089965"><ele>51.0</ele><time>2026-03-28T11:44:23Z</time></trkpt><trkpt lat="43.842565758703394" lon="11.183632298292146"><ele>51.0</ele><time>2026-03-28T11:44:24Z</time></trkpt><trkpt lat="43.84250967968307" lon="11.183587817483325"><ele>51.0</ele><time>2026-03-28T11:44:25Z</time></trkpt><trkpt lat="43.84241536543023" lon="11.183505780374682"><ele>50.599999999999994</ele><time>2026-03-28T11:44:27Z</time></trkpt><trkpt lat="43.84234201231327" lon="11.183438442121393"><ele>50.2</ele><time>2026-03-28T11:44:29Z</time></trkpt><trkpt lat="43.84227900061263" lon="11.18339125981269"><ele>49.8</ele><time>2026-03-28T11:44:31Z</time></trkpt><trkpt lat="43.84220278924166" lon="11.183325509674308"><ele>49.400000000000006</ele><time>2026-03-28T11:44:34Z</time></trkpt><trkpt lat="43.84209824747324" lon="11.18343269200769"><ele>49.0</ele><time>2026-03-28T11:44:40Z</time></trkpt><trkpt lat="43.842090421899755" lon="11.183539637042358"><ele>49.0</ele><time>2026-03-28T11:44:43Z</time></trkpt></trkseg></trk></gpx>